<?xml version="1.0" encoding="UTF-8" standalone="no" ?>
<gpx xmlns="http://www.topografix.com/GPX/1/1" xmlns:xsi="http://www.w3.org/2001/XMLSchema-instance" xsi:schemaLocation="http://www.topografix.com/GPX/1/1 http://www.topografix.com/GPX/1/1/gpx.xsd" version="1.1" creator="VisuGPX - https://www.visugpx.com">
  <metadata>
    <name>Montenois - Pont les Moulins vélo 2/10/2015</name>
    <desc><![CDATA[[img][/img]]]></desc>
  </metadata>
  <trk>
    <name><![CDATA[Montenois - Pont les Moulins  2/10/2015]]></name>
    <trkseg>
      <trkpt lat="47.49338" lon="6.66631">
        <ele>412.062</ele>
        <time>2015-10-02T06:54:00Z</time>
      </trkpt>
      <trkpt lat="47.49338" lon="6.66631">
        <ele>411.772</ele>
        <time>2015-10-02T06:54:02Z</time>
      </trkpt>
      <trkpt lat="47.49337" lon="6.6663">
        <ele>410.737</ele>
        <time>2015-10-02T06:54:38Z</time>
      </trkpt>
      <trkpt lat="47.49337" lon="6.66629">
        <ele>411.212</ele>
        <time>2015-10-02T06:54:39Z</time>
      </trkpt>
      <trkpt lat="47.49336" lon="6.66628">
        <ele>410.218</ele>
        <time>2015-10-02T06:54:40Z</time>
      </trkpt>
      <trkpt lat="47.49335" lon="6.66626">
        <ele>409.394</ele>
        <time>2015-10-02T06:54:41Z</time>
      </trkpt>
      <trkpt lat="47.49335" lon="6.66624">
        <ele>411.112</ele>
        <time>2015-10-02T06:54:42Z</time>
      </trkpt>
      <trkpt lat="47.49335" lon="6.66623">
        <ele>411.612</ele>
        <time>2015-10-02T06:54:44Z</time>
      </trkpt>
      <trkpt lat="47.49334" lon="6.66623">
        <ele>409.802</ele>
        <time>2015-10-02T06:54:53Z</time>
      </trkpt>
      <trkpt lat="47.49333" lon="6.66623">
        <ele>409.692</ele>
        <time>2015-10-02T06:54:54Z</time>
      </trkpt>
      <trkpt lat="47.49332" lon="6.66624">
        <ele>409.916</ele>
        <time>2015-10-02T06:54:55Z</time>
      </trkpt>
      <trkpt lat="47.49331" lon="6.66625">
        <ele>410.062</ele>
        <time>2015-10-02T06:54:56Z</time>
      </trkpt>
      <trkpt lat="47.49331" lon="6.66625">
        <ele>411.62</ele>
        <time>2015-10-02T06:55:15Z</time>
      </trkpt>
      <trkpt lat="47.49335" lon="6.66625">
        <ele>409.607</ele>
        <time>2015-10-02T07:13:03Z</time>
      </trkpt>
      <trkpt lat="47.49335" lon="6.66626">
        <ele>410.417</ele>
        <time>2015-10-02T07:13:05Z</time>
      </trkpt>
      <trkpt lat="47.49336" lon="6.66628">
        <ele>411.042</ele>
        <time>2015-10-02T07:13:06Z</time>
      </trkpt>
      <trkpt lat="47.49337" lon="6.66629">
        <ele>411.263</ele>
        <time>2015-10-02T07:13:07Z</time>
      </trkpt>
      <trkpt lat="47.49338" lon="6.6663">
        <ele>411.064</ele>
        <time>2015-10-02T07:13:08Z</time>
      </trkpt>
      <trkpt lat="47.49338" lon="6.66631">
        <ele>410.921</ele>
        <time>2015-10-02T07:13:10Z</time>
      </trkpt>
      <trkpt lat="47.4934" lon="6.66633">
        <ele>409.784</ele>
        <time>2015-10-02T07:13:12Z</time>
      </trkpt>
      <trkpt lat="47.49341" lon="6.66633">
        <ele>408.908</ele>
        <time>2015-10-02T07:13:14Z</time>
      </trkpt>
      <trkpt lat="47.49341" lon="6.66633">
        <ele>408.927</ele>
        <time>2015-10-02T07:14:57Z</time>
      </trkpt>
      <trkpt lat="47.49342" lon="6.6663">
        <ele>410.107</ele>
        <time>2015-10-02T07:18:38Z</time>
      </trkpt>
      <trkpt lat="47.49343" lon="6.6663">
        <ele>412.828</ele>
        <time>2015-10-02T07:45:04Z</time>
      </trkpt>
      <trkpt lat="47.49344" lon="6.6663">
        <ele>413.445</ele>
        <time>2015-10-02T07:45:07Z</time>
      </trkpt>
      <trkpt lat="47.49344" lon="6.66633">
        <ele>414.297</ele>
        <time>2015-10-02T08:30:54Z</time>
      </trkpt>
      <trkpt lat="47.49344" lon="6.66631">
        <ele>415.61</ele>
        <time>2015-10-02T08:31:01Z</time>
      </trkpt>
      <trkpt lat="47.49344" lon="6.6663">
        <ele>415.615</ele>
        <time>2015-10-02T08:31:03Z</time>
      </trkpt>
      <trkpt lat="47.49345" lon="6.66627">
        <ele>415.265</ele>
        <time>2015-10-02T08:31:05Z</time>
      </trkpt>
      <trkpt lat="47.49345" lon="6.66626">
        <ele>415.231</ele>
        <time>2015-10-02T08:31:06Z</time>
      </trkpt>
      <trkpt lat="47.49345" lon="6.66624">
        <ele>414.892</ele>
        <time>2015-10-02T08:31:08Z</time>
      </trkpt>
      <trkpt lat="47.49347" lon="6.66624">
        <ele>414.117</ele>
        <time>2015-10-02T08:31:27Z</time>
      </trkpt>
      <trkpt lat="47.49348" lon="6.66625">
        <ele>413.797</ele>
        <time>2015-10-02T08:31:28Z</time>
      </trkpt>
      <trkpt lat="47.49348" lon="6.66627">
        <ele>412.737</ele>
        <time>2015-10-02T08:31:29Z</time>
      </trkpt>
      <trkpt lat="47.49348" lon="6.66629">
        <ele>412.685</ele>
        <time>2015-10-02T08:31:30Z</time>
      </trkpt>
      <trkpt lat="47.49347" lon="6.66631">
        <ele>413.006</ele>
        <time>2015-10-02T08:31:31Z</time>
      </trkpt>
      <trkpt lat="47.49346" lon="6.66633">
        <ele>413.034</ele>
        <time>2015-10-02T08:31:32Z</time>
      </trkpt>
      <trkpt lat="47.49345" lon="6.66636">
        <ele>411.798</ele>
        <time>2015-10-02T08:31:33Z</time>
      </trkpt>
      <trkpt lat="47.49344" lon="6.66639">
        <ele>412.212</ele>
        <time>2015-10-02T08:31:34Z</time>
      </trkpt>
      <trkpt lat="47.49343" lon="6.66642">
        <ele>412.564</ele>
        <time>2015-10-02T08:31:35Z</time>
      </trkpt>
      <trkpt lat="47.49341" lon="6.66645">
        <ele>413.131</ele>
        <time>2015-10-02T08:31:36Z</time>
      </trkpt>
      <trkpt lat="47.49341" lon="6.66648">
        <ele>412.502</ele>
        <time>2015-10-02T08:31:37Z</time>
      </trkpt>
      <trkpt lat="47.49338" lon="6.66651">
        <ele>411.009</ele>
        <time>2015-10-02T08:31:38Z</time>
      </trkpt>
      <trkpt lat="47.49334" lon="6.66655">
        <ele>409.952</ele>
        <time>2015-10-02T08:31:39Z</time>
      </trkpt>
      <trkpt lat="47.4933" lon="6.66656">
        <ele>409.718</ele>
        <time>2015-10-02T08:31:40Z</time>
      </trkpt>
      <trkpt lat="47.49325" lon="6.66656">
        <ele>408.682</ele>
        <time>2015-10-02T08:31:41Z</time>
      </trkpt>
      <trkpt lat="47.49321" lon="6.66655">
        <ele>408.547</ele>
        <time>2015-10-02T08:31:42Z</time>
      </trkpt>
      <trkpt lat="47.49317" lon="6.66652">
        <ele>408.145</ele>
        <time>2015-10-02T08:31:43Z</time>
      </trkpt>
      <trkpt lat="47.49314" lon="6.66648">
        <ele>409.725</ele>
        <time>2015-10-02T08:31:44Z</time>
      </trkpt>
      <trkpt lat="47.49311" lon="6.66644">
        <ele>409.625</ele>
        <time>2015-10-02T08:31:45Z</time>
      </trkpt>
      <trkpt lat="47.49309" lon="6.66639">
        <ele>411.308</ele>
        <time>2015-10-02T08:31:46Z</time>
      </trkpt>
      <trkpt lat="47.49307" lon="6.66635">
        <ele>411.797</ele>
        <time>2015-10-02T08:31:47Z</time>
      </trkpt>
      <trkpt lat="47.49304" lon="6.66632">
        <ele>412.445</ele>
        <time>2015-10-02T08:31:48Z</time>
      </trkpt>
      <trkpt lat="47.49301" lon="6.66628">
        <ele>411.834</ele>
        <time>2015-10-02T08:31:49Z</time>
      </trkpt>
      <trkpt lat="47.49299" lon="6.66626">
        <ele>411.357</ele>
        <time>2015-10-02T08:31:50Z</time>
      </trkpt>
      <trkpt lat="47.49296" lon="6.66623">
        <ele>411.307</ele>
        <time>2015-10-02T08:31:51Z</time>
      </trkpt>
      <trkpt lat="47.49293" lon="6.66621">
        <ele>410.744</ele>
        <time>2015-10-02T08:31:52Z</time>
      </trkpt>
      <trkpt lat="47.4929" lon="6.66619">
        <ele>411.299</ele>
        <time>2015-10-02T08:31:53Z</time>
      </trkpt>
      <trkpt lat="47.49288" lon="6.66617">
        <ele>410.9</ele>
        <time>2015-10-02T08:31:54Z</time>
      </trkpt>
      <trkpt lat="47.49286" lon="6.66616">
        <ele>411.866</ele>
        <time>2015-10-02T08:31:55Z</time>
      </trkpt>
      <trkpt lat="47.49284" lon="6.66615">
        <ele>412.073</ele>
        <time>2015-10-02T08:31:56Z</time>
      </trkpt>
      <trkpt lat="47.49282" lon="6.66613">
        <ele>411.802</ele>
        <time>2015-10-02T08:31:57Z</time>
      </trkpt>
      <trkpt lat="47.49279" lon="6.66611">
        <ele>411.827</ele>
        <time>2015-10-02T08:31:58Z</time>
      </trkpt>
      <trkpt lat="47.49277" lon="6.66609">
        <ele>411.509</ele>
        <time>2015-10-02T08:31:59Z</time>
      </trkpt>
      <trkpt lat="47.49274" lon="6.66608">
        <ele>411.146</ele>
        <time>2015-10-02T08:32:00Z</time>
      </trkpt>
      <trkpt lat="47.49272" lon="6.66605">
        <ele>411.2</ele>
        <time>2015-10-02T08:32:01Z</time>
      </trkpt>
      <trkpt lat="47.4927" lon="6.66603">
        <ele>411.575</ele>
        <time>2015-10-02T08:32:02Z</time>
      </trkpt>
      <trkpt lat="47.49268" lon="6.666">
        <ele>411.081</ele>
        <time>2015-10-02T08:32:03Z</time>
      </trkpt>
      <trkpt lat="47.49266" lon="6.66597">
        <ele>410.505</ele>
        <time>2015-10-02T08:32:04Z</time>
      </trkpt>
      <trkpt lat="47.49265" lon="6.66593">
        <ele>410.321</ele>
        <time>2015-10-02T08:32:05Z</time>
      </trkpt>
      <trkpt lat="47.49263" lon="6.6659">
        <ele>410.771</ele>
        <time>2015-10-02T08:32:06Z</time>
      </trkpt>
      <trkpt lat="47.49263" lon="6.66586">
        <ele>410.442</ele>
        <time>2015-10-02T08:32:07Z</time>
      </trkpt>
      <trkpt lat="47.49262" lon="6.66584">
        <ele>411.042</ele>
        <time>2015-10-02T08:32:08Z</time>
      </trkpt>
      <trkpt lat="47.49262" lon="6.66581">
        <ele>409.677</ele>
        <time>2015-10-02T08:32:09Z</time>
      </trkpt>
      <trkpt lat="47.49261" lon="6.66578">
        <ele>409.625</ele>
        <time>2015-10-02T08:32:10Z</time>
      </trkpt>
      <trkpt lat="47.4926" lon="6.66575">
        <ele>409.598</ele>
        <time>2015-10-02T08:32:11Z</time>
      </trkpt>
      <trkpt lat="47.49258" lon="6.66573">
        <ele>409.068</ele>
        <time>2015-10-02T08:32:12Z</time>
      </trkpt>
      <trkpt lat="47.49257" lon="6.6657">
        <ele>408.895</ele>
        <time>2015-10-02T08:32:13Z</time>
      </trkpt>
      <trkpt lat="47.49256" lon="6.66568">
        <ele>409.068</ele>
        <time>2015-10-02T08:32:14Z</time>
      </trkpt>
      <trkpt lat="47.49255" lon="6.66565">
        <ele>408.846</ele>
        <time>2015-10-02T08:32:15Z</time>
      </trkpt>
      <trkpt lat="47.49253" lon="6.66562">
        <ele>409.504</ele>
        <time>2015-10-02T08:32:16Z</time>
      </trkpt>
      <trkpt lat="47.49252" lon="6.66559">
        <ele>409.526</ele>
        <time>2015-10-02T08:32:17Z</time>
      </trkpt>
      <trkpt lat="47.49251" lon="6.66556">
        <ele>409.992</ele>
        <time>2015-10-02T08:32:18Z</time>
      </trkpt>
      <trkpt lat="47.4925" lon="6.66554">
        <ele>410.496</ele>
        <time>2015-10-02T08:32:19Z</time>
      </trkpt>
      <trkpt lat="47.49249" lon="6.66551">
        <ele>409.577</ele>
        <time>2015-10-02T08:32:20Z</time>
      </trkpt>
      <trkpt lat="47.49248" lon="6.66549">
        <ele>410.198</ele>
        <time>2015-10-02T08:32:21Z</time>
      </trkpt>
      <trkpt lat="47.49246" lon="6.66547">
        <ele>410.055</ele>
        <time>2015-10-02T08:32:22Z</time>
      </trkpt>
      <trkpt lat="47.49244" lon="6.66545">
        <ele>409.762</ele>
        <time>2015-10-02T08:32:23Z</time>
      </trkpt>
      <trkpt lat="47.49242" lon="6.66544">
        <ele>410.239</ele>
        <time>2015-10-02T08:32:24Z</time>
      </trkpt>
      <trkpt lat="47.49239" lon="6.66544">
        <ele>411.586</ele>
        <time>2015-10-02T08:32:25Z</time>
      </trkpt>
      <trkpt lat="47.49236" lon="6.66544">
        <ele>411.585</ele>
        <time>2015-10-02T08:32:26Z</time>
      </trkpt>
      <trkpt lat="47.49233" lon="6.66545">
        <ele>411.239</ele>
        <time>2015-10-02T08:32:27Z</time>
      </trkpt>
      <trkpt lat="47.4923" lon="6.66547">
        <ele>411.357</ele>
        <time>2015-10-02T08:32:28Z</time>
      </trkpt>
      <trkpt lat="47.49227" lon="6.66549">
        <ele>412.086</ele>
        <time>2015-10-02T08:32:29Z</time>
      </trkpt>
      <trkpt lat="47.49223" lon="6.66551">
        <ele>411.472</ele>
        <time>2015-10-02T08:32:30Z</time>
      </trkpt>
      <trkpt lat="47.4922" lon="6.66553">
        <ele>412.254</ele>
        <time>2015-10-02T08:32:31Z</time>
      </trkpt>
      <trkpt lat="47.49217" lon="6.66555">
        <ele>412.648</ele>
        <time>2015-10-02T08:32:32Z</time>
      </trkpt>
      <trkpt lat="47.49213" lon="6.66557">
        <ele>413.44</ele>
        <time>2015-10-02T08:32:33Z</time>
      </trkpt>
      <trkpt lat="47.49209" lon="6.66559">
        <ele>414.201</ele>
        <time>2015-10-02T08:32:34Z</time>
      </trkpt>
      <trkpt lat="47.49206" lon="6.6656">
        <ele>414.51</ele>
        <time>2015-10-02T08:32:35Z</time>
      </trkpt>
      <trkpt lat="47.49203" lon="6.66562">
        <ele>415.282</ele>
        <time>2015-10-02T08:32:36Z</time>
      </trkpt>
      <trkpt lat="47.492" lon="6.66564">
        <ele>415.493</ele>
        <time>2015-10-02T08:32:37Z</time>
      </trkpt>
      <trkpt lat="47.49197" lon="6.66565">
        <ele>415.212</ele>
        <time>2015-10-02T08:32:38Z</time>
      </trkpt>
      <trkpt lat="47.49194" lon="6.66565">
        <ele>414.791</ele>
        <time>2015-10-02T08:32:39Z</time>
      </trkpt>
      <trkpt lat="47.49191" lon="6.66565">
        <ele>414.039</ele>
        <time>2015-10-02T08:32:40Z</time>
      </trkpt>
      <trkpt lat="47.49188" lon="6.66564">
        <ele>413.21</ele>
        <time>2015-10-02T08:32:41Z</time>
      </trkpt>
      <trkpt lat="47.49184" lon="6.66563">
        <ele>413.131</ele>
        <time>2015-10-02T08:32:42Z</time>
      </trkpt>
      <trkpt lat="47.49181" lon="6.66562">
        <ele>413.093</ele>
        <time>2015-10-02T08:32:43Z</time>
      </trkpt>
      <trkpt lat="47.49178" lon="6.66561">
        <ele>412.83</ele>
        <time>2015-10-02T08:32:44Z</time>
      </trkpt>
      <trkpt lat="47.49174" lon="6.66561">
        <ele>412.634</ele>
        <time>2015-10-02T08:32:45Z</time>
      </trkpt>
      <trkpt lat="47.49172" lon="6.6656">
        <ele>413.526</ele>
        <time>2015-10-02T08:32:46Z</time>
      </trkpt>
      <trkpt lat="47.4917" lon="6.6656">
        <ele>411.772</ele>
        <time>2015-10-02T08:32:47Z</time>
      </trkpt>
      <trkpt lat="47.49167" lon="6.66559">
        <ele>411.455</ele>
        <time>2015-10-02T08:32:48Z</time>
      </trkpt>
      <trkpt lat="47.49164" lon="6.66558">
        <ele>410.525</ele>
        <time>2015-10-02T08:32:49Z</time>
      </trkpt>
      <trkpt lat="47.49161" lon="6.66557">
        <ele>410.843</ele>
        <time>2015-10-02T08:32:50Z</time>
      </trkpt>
      <trkpt lat="47.49158" lon="6.66557">
        <ele>411.171</ele>
        <time>2015-10-02T08:32:51Z</time>
      </trkpt>
      <trkpt lat="47.49154" lon="6.66556">
        <ele>411.34</ele>
        <time>2015-10-02T08:32:52Z</time>
      </trkpt>
      <trkpt lat="47.49151" lon="6.66555">
        <ele>411.63</ele>
        <time>2015-10-02T08:32:53Z</time>
      </trkpt>
      <trkpt lat="47.49148" lon="6.66554">
        <ele>411.338</ele>
        <time>2015-10-02T08:32:54Z</time>
      </trkpt>
      <trkpt lat="47.49144" lon="6.66553">
        <ele>412.236</ele>
        <time>2015-10-02T08:32:55Z</time>
      </trkpt>
      <trkpt lat="47.4914" lon="6.66552">
        <ele>412.376</ele>
        <time>2015-10-02T08:32:56Z</time>
      </trkpt>
      <trkpt lat="47.49134" lon="6.66551">
        <ele>412.255</ele>
        <time>2015-10-02T08:32:57Z</time>
      </trkpt>
      <trkpt lat="47.4913" lon="6.66551">
        <ele>412.298</ele>
        <time>2015-10-02T08:32:58Z</time>
      </trkpt>
      <trkpt lat="47.49124" lon="6.66549">
        <ele>411.417</ele>
        <time>2015-10-02T08:32:59Z</time>
      </trkpt>
      <trkpt lat="47.49119" lon="6.66548">
        <ele>411.577</ele>
        <time>2015-10-02T08:33:00Z</time>
      </trkpt>
      <trkpt lat="47.49114" lon="6.66548">
        <ele>411.695</ele>
        <time>2015-10-02T08:33:01Z</time>
      </trkpt>
      <trkpt lat="47.49109" lon="6.66547">
        <ele>411.969</ele>
        <time>2015-10-02T08:33:02Z</time>
      </trkpt>
      <trkpt lat="47.49105" lon="6.66546">
        <ele>412.385</ele>
        <time>2015-10-02T08:33:03Z</time>
      </trkpt>
      <trkpt lat="47.49102" lon="6.66545">
        <ele>413.024</ele>
        <time>2015-10-02T08:33:04Z</time>
      </trkpt>
      <trkpt lat="47.49097" lon="6.66544">
        <ele>413.023</ele>
        <time>2015-10-02T08:33:05Z</time>
      </trkpt>
      <trkpt lat="47.49091" lon="6.66542">
        <ele>412.451</ele>
        <time>2015-10-02T08:33:06Z</time>
      </trkpt>
      <trkpt lat="47.49086" lon="6.6654">
        <ele>412.565</ele>
        <time>2015-10-02T08:33:07Z</time>
      </trkpt>
      <trkpt lat="47.49082" lon="6.66539">
        <ele>412.496</ele>
        <time>2015-10-02T08:33:08Z</time>
      </trkpt>
      <trkpt lat="47.49077" lon="6.66537">
        <ele>411.993</ele>
        <time>2015-10-02T08:33:09Z</time>
      </trkpt>
      <trkpt lat="47.49069" lon="6.66533">
        <ele>409.728</ele>
        <time>2015-10-02T08:33:10Z</time>
      </trkpt>
      <trkpt lat="47.49064" lon="6.66528">
        <ele>409.138</ele>
        <time>2015-10-02T08:33:11Z</time>
      </trkpt>
      <trkpt lat="47.4906" lon="6.66525">
        <ele>408.964</ele>
        <time>2015-10-02T08:33:12Z</time>
      </trkpt>
      <trkpt lat="47.49057" lon="6.66521">
        <ele>408.199</ele>
        <time>2015-10-02T08:33:13Z</time>
      </trkpt>
      <trkpt lat="47.49053" lon="6.66516">
        <ele>409</ele>
        <time>2015-10-02T08:33:14Z</time>
      </trkpt>
      <trkpt lat="47.49049" lon="6.66512">
        <ele>408.384</ele>
        <time>2015-10-02T08:33:15Z</time>
      </trkpt>
      <trkpt lat="47.49046" lon="6.66508">
        <ele>407.527</ele>
        <time>2015-10-02T08:33:16Z</time>
      </trkpt>
      <trkpt lat="47.49042" lon="6.66504">
        <ele>407.222</ele>
        <time>2015-10-02T08:33:17Z</time>
      </trkpt>
      <trkpt lat="47.49039" lon="6.66499">
        <ele>406.388</ele>
        <time>2015-10-02T08:33:18Z</time>
      </trkpt>
      <trkpt lat="47.49036" lon="6.66494">
        <ele>406.066</ele>
        <time>2015-10-02T08:33:19Z</time>
      </trkpt>
      <trkpt lat="47.49035" lon="6.6649">
        <ele>405.83</ele>
        <time>2015-10-02T08:33:20Z</time>
      </trkpt>
      <trkpt lat="47.49032" lon="6.66484">
        <ele>404.991</ele>
        <time>2015-10-02T08:33:21Z</time>
      </trkpt>
      <trkpt lat="47.4903" lon="6.66479">
        <ele>405.133</ele>
        <time>2015-10-02T08:33:22Z</time>
      </trkpt>
      <trkpt lat="47.49026" lon="6.66474">
        <ele>405.125</ele>
        <time>2015-10-02T08:33:23Z</time>
      </trkpt>
      <trkpt lat="47.49023" lon="6.6647">
        <ele>405.509</ele>
        <time>2015-10-02T08:33:24Z</time>
      </trkpt>
      <trkpt lat="47.49017" lon="6.66465">
        <ele>405.932</ele>
        <time>2015-10-02T08:33:25Z</time>
      </trkpt>
      <trkpt lat="47.49014" lon="6.66461">
        <ele>405.494</ele>
        <time>2015-10-02T08:33:26Z</time>
      </trkpt>
      <trkpt lat="47.49009" lon="6.66458">
        <ele>404.842</ele>
        <time>2015-10-02T08:33:27Z</time>
      </trkpt>
      <trkpt lat="47.49004" lon="6.66454">
        <ele>405.16</ele>
        <time>2015-10-02T08:33:28Z</time>
      </trkpt>
      <trkpt lat="47.48999" lon="6.6645">
        <ele>404.62</ele>
        <time>2015-10-02T08:33:29Z</time>
      </trkpt>
      <trkpt lat="47.48994" lon="6.66447">
        <ele>405.053</ele>
        <time>2015-10-02T08:33:30Z</time>
      </trkpt>
      <trkpt lat="47.4899" lon="6.66445">
        <ele>405.595</ele>
        <time>2015-10-02T08:33:31Z</time>
      </trkpt>
      <trkpt lat="47.48984" lon="6.66445">
        <ele>405.679</ele>
        <time>2015-10-02T08:33:32Z</time>
      </trkpt>
      <trkpt lat="47.48979" lon="6.66442">
        <ele>405.969</ele>
        <time>2015-10-02T08:33:33Z</time>
      </trkpt>
      <trkpt lat="47.48973" lon="6.66442">
        <ele>406.265</ele>
        <time>2015-10-02T08:33:34Z</time>
      </trkpt>
      <trkpt lat="47.48968" lon="6.66442">
        <ele>405.936</ele>
        <time>2015-10-02T08:33:35Z</time>
      </trkpt>
      <trkpt lat="47.48963" lon="6.66442">
        <ele>406.159</ele>
        <time>2015-10-02T08:33:36Z</time>
      </trkpt>
      <trkpt lat="47.48958" lon="6.66442">
        <ele>406.253</ele>
        <time>2015-10-02T08:33:37Z</time>
      </trkpt>
      <trkpt lat="47.48953" lon="6.66441">
        <ele>407.051</ele>
        <time>2015-10-02T08:33:38Z</time>
      </trkpt>
      <trkpt lat="47.48949" lon="6.66441">
        <ele>407.317</ele>
        <time>2015-10-02T08:33:39Z</time>
      </trkpt>
      <trkpt lat="47.48946" lon="6.66444">
        <ele>407.001</ele>
        <time>2015-10-02T08:33:40Z</time>
      </trkpt>
      <trkpt lat="47.48942" lon="6.66447">
        <ele>407.997</ele>
        <time>2015-10-02T08:33:41Z</time>
      </trkpt>
      <trkpt lat="47.48938" lon="6.66449">
        <ele>408.815</ele>
        <time>2015-10-02T08:33:42Z</time>
      </trkpt>
      <trkpt lat="47.48934" lon="6.66451">
        <ele>409.293</ele>
        <time>2015-10-02T08:33:43Z</time>
      </trkpt>
      <trkpt lat="47.48929" lon="6.6645">
        <ele>409.027</ele>
        <time>2015-10-02T08:33:44Z</time>
      </trkpt>
      <trkpt lat="47.48928" lon="6.66452">
        <ele>407.791</ele>
        <time>2015-10-02T08:33:45Z</time>
      </trkpt>
      <trkpt lat="47.48925" lon="6.66453">
        <ele>407.572</ele>
        <time>2015-10-02T08:33:46Z</time>
      </trkpt>
      <trkpt lat="47.48921" lon="6.66455">
        <ele>408.261</ele>
        <time>2015-10-02T08:33:47Z</time>
      </trkpt>
      <trkpt lat="47.48917" lon="6.6646">
        <ele>407.553</ele>
        <time>2015-10-02T08:33:48Z</time>
      </trkpt>
      <trkpt lat="47.48914" lon="6.66463">
        <ele>407.45</ele>
        <time>2015-10-02T08:33:49Z</time>
      </trkpt>
      <trkpt lat="47.48911" lon="6.66466">
        <ele>406.894</ele>
        <time>2015-10-02T08:33:50Z</time>
      </trkpt>
      <trkpt lat="47.48908" lon="6.66468">
        <ele>408.072</ele>
        <time>2015-10-02T08:33:51Z</time>
      </trkpt>
      <trkpt lat="47.48904" lon="6.66471">
        <ele>407.712</ele>
        <time>2015-10-02T08:33:52Z</time>
      </trkpt>
      <trkpt lat="47.48901" lon="6.66473">
        <ele>407.073</ele>
        <time>2015-10-02T08:33:53Z</time>
      </trkpt>
      <trkpt lat="47.48898" lon="6.66476">
        <ele>407.37</ele>
        <time>2015-10-02T08:33:54Z</time>
      </trkpt>
      <trkpt lat="47.48894" lon="6.66478">
        <ele>407.549</ele>
        <time>2015-10-02T08:33:55Z</time>
      </trkpt>
      <trkpt lat="47.48891" lon="6.6648">
        <ele>408</ele>
        <time>2015-10-02T08:33:56Z</time>
      </trkpt>
      <trkpt lat="47.48887" lon="6.66481">
        <ele>408.194</ele>
        <time>2015-10-02T08:33:57Z</time>
      </trkpt>
      <trkpt lat="47.48883" lon="6.66483">
        <ele>408.527</ele>
        <time>2015-10-02T08:33:58Z</time>
      </trkpt>
      <trkpt lat="47.4888" lon="6.66483">
        <ele>408.633</ele>
        <time>2015-10-02T08:33:59Z</time>
      </trkpt>
      <trkpt lat="47.48876" lon="6.66484">
        <ele>409.06</ele>
        <time>2015-10-02T08:34:00Z</time>
      </trkpt>
      <trkpt lat="47.48873" lon="6.66485">
        <ele>409.771</ele>
        <time>2015-10-02T08:34:01Z</time>
      </trkpt>
      <trkpt lat="47.48869" lon="6.66487">
        <ele>409.912</ele>
        <time>2015-10-02T08:34:02Z</time>
      </trkpt>
      <trkpt lat="47.48865" lon="6.66487">
        <ele>410.236</ele>
        <time>2015-10-02T08:34:03Z</time>
      </trkpt>
      <trkpt lat="47.48862" lon="6.66488">
        <ele>410.154</ele>
        <time>2015-10-02T08:34:04Z</time>
      </trkpt>
      <trkpt lat="47.48858" lon="6.66488">
        <ele>410.321</ele>
        <time>2015-10-02T08:34:05Z</time>
      </trkpt>
      <trkpt lat="47.48855" lon="6.66488">
        <ele>409.506</ele>
        <time>2015-10-02T08:34:06Z</time>
      </trkpt>
      <trkpt lat="47.48851" lon="6.66488">
        <ele>408.802</ele>
        <time>2015-10-02T08:34:07Z</time>
      </trkpt>
      <trkpt lat="47.48847" lon="6.66488">
        <ele>408.264</ele>
        <time>2015-10-02T08:34:08Z</time>
      </trkpt>
      <trkpt lat="47.48844" lon="6.66488">
        <ele>407.752</ele>
        <time>2015-10-02T08:34:09Z</time>
      </trkpt>
      <trkpt lat="47.4884" lon="6.66488">
        <ele>407.692</ele>
        <time>2015-10-02T08:34:10Z</time>
      </trkpt>
      <trkpt lat="47.48836" lon="6.66488">
        <ele>407.539</ele>
        <time>2015-10-02T08:34:11Z</time>
      </trkpt>
      <trkpt lat="47.48833" lon="6.66489">
        <ele>407.376</ele>
        <time>2015-10-02T08:34:12Z</time>
      </trkpt>
      <trkpt lat="47.48829" lon="6.66489">
        <ele>407.349</ele>
        <time>2015-10-02T08:34:13Z</time>
      </trkpt>
      <trkpt lat="47.48825" lon="6.6649">
        <ele>407.381</ele>
        <time>2015-10-02T08:34:14Z</time>
      </trkpt>
      <trkpt lat="47.48821" lon="6.66491">
        <ele>407.61</ele>
        <time>2015-10-02T08:34:15Z</time>
      </trkpt>
      <trkpt lat="47.48817" lon="6.66491">
        <ele>408.011</ele>
        <time>2015-10-02T08:34:16Z</time>
      </trkpt>
      <trkpt lat="47.48814" lon="6.66492">
        <ele>408.539</ele>
        <time>2015-10-02T08:34:17Z</time>
      </trkpt>
      <trkpt lat="47.4881" lon="6.66493">
        <ele>408.548</ele>
        <time>2015-10-02T08:34:18Z</time>
      </trkpt>
      <trkpt lat="47.48807" lon="6.66494">
        <ele>408.587</ele>
        <time>2015-10-02T08:34:19Z</time>
      </trkpt>
      <trkpt lat="47.48804" lon="6.66495">
        <ele>408.977</ele>
        <time>2015-10-02T08:34:20Z</time>
      </trkpt>
      <trkpt lat="47.48801" lon="6.66497">
        <ele>408.559</ele>
        <time>2015-10-02T08:34:21Z</time>
      </trkpt>
      <trkpt lat="47.48798" lon="6.66499">
        <ele>408.515</ele>
        <time>2015-10-02T08:34:22Z</time>
      </trkpt>
      <trkpt lat="47.48795" lon="6.66501">
        <ele>407.898</ele>
        <time>2015-10-02T08:34:23Z</time>
      </trkpt>
      <trkpt lat="47.48792" lon="6.66503">
        <ele>408.001</ele>
        <time>2015-10-02T08:34:24Z</time>
      </trkpt>
      <trkpt lat="47.48789" lon="6.66506">
        <ele>407.723</ele>
        <time>2015-10-02T08:34:25Z</time>
      </trkpt>
      <trkpt lat="47.48786" lon="6.66509">
        <ele>407.469</ele>
        <time>2015-10-02T08:34:26Z</time>
      </trkpt>
      <trkpt lat="47.48783" lon="6.66512">
        <ele>407.505</ele>
        <time>2015-10-02T08:34:27Z</time>
      </trkpt>
      <trkpt lat="47.4878" lon="6.66516">
        <ele>407.741</ele>
        <time>2015-10-02T08:34:28Z</time>
      </trkpt>
      <trkpt lat="47.48777" lon="6.66518">
        <ele>406.918</ele>
        <time>2015-10-02T08:34:29Z</time>
      </trkpt>
      <trkpt lat="47.48774" lon="6.66521">
        <ele>406.861</ele>
        <time>2015-10-02T08:34:30Z</time>
      </trkpt>
      <trkpt lat="47.48771" lon="6.66524">
        <ele>406.685</ele>
        <time>2015-10-02T08:34:31Z</time>
      </trkpt>
      <trkpt lat="47.48768" lon="6.66527">
        <ele>407.141</ele>
        <time>2015-10-02T08:34:32Z</time>
      </trkpt>
      <trkpt lat="47.48765" lon="6.6653">
        <ele>407.417</ele>
        <time>2015-10-02T08:34:33Z</time>
      </trkpt>
      <trkpt lat="47.48761" lon="6.66533">
        <ele>407.243</ele>
        <time>2015-10-02T08:34:34Z</time>
      </trkpt>
      <trkpt lat="47.48758" lon="6.66536">
        <ele>407.601</ele>
        <time>2015-10-02T08:34:35Z</time>
      </trkpt>
      <trkpt lat="47.48755" lon="6.66539">
        <ele>407.45</ele>
        <time>2015-10-02T08:34:36Z</time>
      </trkpt>
      <trkpt lat="47.48752" lon="6.66543">
        <ele>407.29</ele>
        <time>2015-10-02T08:34:37Z</time>
      </trkpt>
      <trkpt lat="47.48749" lon="6.66546">
        <ele>406.914</ele>
        <time>2015-10-02T08:34:38Z</time>
      </trkpt>
      <trkpt lat="47.48745" lon="6.6655">
        <ele>406.776</ele>
        <time>2015-10-02T08:34:39Z</time>
      </trkpt>
      <trkpt lat="47.48742" lon="6.66553">
        <ele>406.885</ele>
        <time>2015-10-02T08:34:40Z</time>
      </trkpt>
      <trkpt lat="47.48738" lon="6.66557">
        <ele>406.976</ele>
        <time>2015-10-02T08:34:41Z</time>
      </trkpt>
      <trkpt lat="47.48734" lon="6.66561">
        <ele>406.149</ele>
        <time>2015-10-02T08:34:42Z</time>
      </trkpt>
      <trkpt lat="47.4873" lon="6.66565">
        <ele>405.487</ele>
        <time>2015-10-02T08:34:43Z</time>
      </trkpt>
      <trkpt lat="47.48725" lon="6.66569">
        <ele>405.563</ele>
        <time>2015-10-02T08:34:44Z</time>
      </trkpt>
      <trkpt lat="47.48721" lon="6.66573">
        <ele>405.325</ele>
        <time>2015-10-02T08:34:45Z</time>
      </trkpt>
      <trkpt lat="47.48716" lon="6.66577">
        <ele>405.369</ele>
        <time>2015-10-02T08:34:46Z</time>
      </trkpt>
      <trkpt lat="47.48711" lon="6.66581">
        <ele>404.896</ele>
        <time>2015-10-02T08:34:47Z</time>
      </trkpt>
      <trkpt lat="47.48706" lon="6.66585">
        <ele>404.63</ele>
        <time>2015-10-02T08:34:48Z</time>
      </trkpt>
      <trkpt lat="47.487" lon="6.66589">
        <ele>404.405</ele>
        <time>2015-10-02T08:34:49Z</time>
      </trkpt>
      <trkpt lat="47.48694" lon="6.66593">
        <ele>404.188</ele>
        <time>2015-10-02T08:34:50Z</time>
      </trkpt>
      <trkpt lat="47.48689" lon="6.66596">
        <ele>403.911</ele>
        <time>2015-10-02T08:34:51Z</time>
      </trkpt>
      <trkpt lat="47.48684" lon="6.66599">
        <ele>403.675</ele>
        <time>2015-10-02T08:34:52Z</time>
      </trkpt>
      <trkpt lat="47.48678" lon="6.66602">
        <ele>403.461</ele>
        <time>2015-10-02T08:34:53Z</time>
      </trkpt>
      <trkpt lat="47.48673" lon="6.66605">
        <ele>403.744</ele>
        <time>2015-10-02T08:34:54Z</time>
      </trkpt>
      <trkpt lat="47.48668" lon="6.66609">
        <ele>403.389</ele>
        <time>2015-10-02T08:34:55Z</time>
      </trkpt>
      <trkpt lat="47.48663" lon="6.66613">
        <ele>402.984</ele>
        <time>2015-10-02T08:34:56Z</time>
      </trkpt>
      <trkpt lat="47.48658" lon="6.66618">
        <ele>402.789</ele>
        <time>2015-10-02T08:34:57Z</time>
      </trkpt>
      <trkpt lat="47.48653" lon="6.66624">
        <ele>402.169</ele>
        <time>2015-10-02T08:34:58Z</time>
      </trkpt>
      <trkpt lat="47.48649" lon="6.66629">
        <ele>402.003</ele>
        <time>2015-10-02T08:34:59Z</time>
      </trkpt>
      <trkpt lat="47.48644" lon="6.66634">
        <ele>402.246</ele>
        <time>2015-10-02T08:35:00Z</time>
      </trkpt>
      <trkpt lat="47.48639" lon="6.6664">
        <ele>401.896</ele>
        <time>2015-10-02T08:35:01Z</time>
      </trkpt>
      <trkpt lat="47.48633" lon="6.66645">
        <ele>401.047</ele>
        <time>2015-10-02T08:35:02Z</time>
      </trkpt>
      <trkpt lat="47.48628" lon="6.66651">
        <ele>400.829</ele>
        <time>2015-10-02T08:35:03Z</time>
      </trkpt>
      <trkpt lat="47.48623" lon="6.66657">
        <ele>400.578</ele>
        <time>2015-10-02T08:35:04Z</time>
      </trkpt>
      <trkpt lat="47.48618" lon="6.66663">
        <ele>400.207</ele>
        <time>2015-10-02T08:35:05Z</time>
      </trkpt>
      <trkpt lat="47.48613" lon="6.66668">
        <ele>400.154</ele>
        <time>2015-10-02T08:35:06Z</time>
      </trkpt>
      <trkpt lat="47.48608" lon="6.66674">
        <ele>399.913</ele>
        <time>2015-10-02T08:35:07Z</time>
      </trkpt>
      <trkpt lat="47.48602" lon="6.6668">
        <ele>398.642</ele>
        <time>2015-10-02T08:35:08Z</time>
      </trkpt>
      <trkpt lat="47.48597" lon="6.66686">
        <ele>398.708</ele>
        <time>2015-10-02T08:35:09Z</time>
      </trkpt>
      <trkpt lat="47.48592" lon="6.66692">
        <ele>398.207</ele>
        <time>2015-10-02T08:35:10Z</time>
      </trkpt>
      <trkpt lat="47.48586" lon="6.66697">
        <ele>398.496</ele>
        <time>2015-10-02T08:35:11Z</time>
      </trkpt>
      <trkpt lat="47.48582" lon="6.66703">
        <ele>398.414</ele>
        <time>2015-10-02T08:35:12Z</time>
      </trkpt>
      <trkpt lat="47.48577" lon="6.66709">
        <ele>398.119</ele>
        <time>2015-10-02T08:35:13Z</time>
      </trkpt>
      <trkpt lat="47.48572" lon="6.66713">
        <ele>397.129</ele>
        <time>2015-10-02T08:35:14Z</time>
      </trkpt>
      <trkpt lat="47.48567" lon="6.66718">
        <ele>395.871</ele>
        <time>2015-10-02T08:35:15Z</time>
      </trkpt>
      <trkpt lat="47.48562" lon="6.66722">
        <ele>396.132</ele>
        <time>2015-10-02T08:35:16Z</time>
      </trkpt>
      <trkpt lat="47.48557" lon="6.66727">
        <ele>396.156</ele>
        <time>2015-10-02T08:35:17Z</time>
      </trkpt>
      <trkpt lat="47.48552" lon="6.6673">
        <ele>396.136</ele>
        <time>2015-10-02T08:35:18Z</time>
      </trkpt>
      <trkpt lat="47.48548" lon="6.66734">
        <ele>396.226</ele>
        <time>2015-10-02T08:35:19Z</time>
      </trkpt>
      <trkpt lat="47.48543" lon="6.66736">
        <ele>396.351</ele>
        <time>2015-10-02T08:35:20Z</time>
      </trkpt>
      <trkpt lat="47.48539" lon="6.66738">
        <ele>396.764</ele>
        <time>2015-10-02T08:35:21Z</time>
      </trkpt>
      <trkpt lat="47.48534" lon="6.66738">
        <ele>396.544</ele>
        <time>2015-10-02T08:35:22Z</time>
      </trkpt>
      <trkpt lat="47.4853" lon="6.66738">
        <ele>396.728</ele>
        <time>2015-10-02T08:35:23Z</time>
      </trkpt>
      <trkpt lat="47.48526" lon="6.66737">
        <ele>395.863</ele>
        <time>2015-10-02T08:35:24Z</time>
      </trkpt>
      <trkpt lat="47.48521" lon="6.66736">
        <ele>395.293</ele>
        <time>2015-10-02T08:35:25Z</time>
      </trkpt>
      <trkpt lat="47.48517" lon="6.66734">
        <ele>394.971</ele>
        <time>2015-10-02T08:35:26Z</time>
      </trkpt>
      <trkpt lat="47.48513" lon="6.66732">
        <ele>395.123</ele>
        <time>2015-10-02T08:35:27Z</time>
      </trkpt>
      <trkpt lat="47.4851" lon="6.66731">
        <ele>395.155</ele>
        <time>2015-10-02T08:35:28Z</time>
      </trkpt>
      <trkpt lat="47.48506" lon="6.66728">
        <ele>395.086</ele>
        <time>2015-10-02T08:35:29Z</time>
      </trkpt>
      <trkpt lat="47.48502" lon="6.66726">
        <ele>395.243</ele>
        <time>2015-10-02T08:35:30Z</time>
      </trkpt>
      <trkpt lat="47.48498" lon="6.66724">
        <ele>395.148</ele>
        <time>2015-10-02T08:35:31Z</time>
      </trkpt>
      <trkpt lat="47.48494" lon="6.66722">
        <ele>395.781</ele>
        <time>2015-10-02T08:35:32Z</time>
      </trkpt>
      <trkpt lat="47.4849" lon="6.6672">
        <ele>395.823</ele>
        <time>2015-10-02T08:35:33Z</time>
      </trkpt>
      <trkpt lat="47.48487" lon="6.66718">
        <ele>396.123</ele>
        <time>2015-10-02T08:35:34Z</time>
      </trkpt>
      <trkpt lat="47.48483" lon="6.66716">
        <ele>396.25</ele>
        <time>2015-10-02T08:35:35Z</time>
      </trkpt>
      <trkpt lat="47.48479" lon="6.66713">
        <ele>396.36</ele>
        <time>2015-10-02T08:35:36Z</time>
      </trkpt>
      <trkpt lat="47.48475" lon="6.66711">
        <ele>396.353</ele>
        <time>2015-10-02T08:35:37Z</time>
      </trkpt>
      <trkpt lat="47.48471" lon="6.66709">
        <ele>396.548</ele>
        <time>2015-10-02T08:35:38Z</time>
      </trkpt>
      <trkpt lat="47.48467" lon="6.66707">
        <ele>396.539</ele>
        <time>2015-10-02T08:35:39Z</time>
      </trkpt>
      <trkpt lat="47.48464" lon="6.66705">
        <ele>396.519</ele>
        <time>2015-10-02T08:35:40Z</time>
      </trkpt>
      <trkpt lat="47.4846" lon="6.66703">
        <ele>396.577</ele>
        <time>2015-10-02T08:35:41Z</time>
      </trkpt>
      <trkpt lat="47.48457" lon="6.66702">
        <ele>396.22</ele>
        <time>2015-10-02T08:35:42Z</time>
      </trkpt>
      <trkpt lat="47.48453" lon="6.66701">
        <ele>397.099</ele>
        <time>2015-10-02T08:35:43Z</time>
      </trkpt>
      <trkpt lat="47.48449" lon="6.667">
        <ele>397.046</ele>
        <time>2015-10-02T08:35:44Z</time>
      </trkpt>
      <trkpt lat="47.48445" lon="6.66699">
        <ele>397.05</ele>
        <time>2015-10-02T08:35:45Z</time>
      </trkpt>
      <trkpt lat="47.48441" lon="6.66698">
        <ele>396.884</ele>
        <time>2015-10-02T08:35:46Z</time>
      </trkpt>
      <trkpt lat="47.48438" lon="6.66698">
        <ele>397.081</ele>
        <time>2015-10-02T08:35:47Z</time>
      </trkpt>
      <trkpt lat="47.48434" lon="6.66698">
        <ele>396.981</ele>
        <time>2015-10-02T08:35:48Z</time>
      </trkpt>
      <trkpt lat="47.4843" lon="6.66698">
        <ele>397.434</ele>
        <time>2015-10-02T08:35:49Z</time>
      </trkpt>
      <trkpt lat="47.48426" lon="6.66699">
        <ele>397.611</ele>
        <time>2015-10-02T08:35:50Z</time>
      </trkpt>
      <trkpt lat="47.48422" lon="6.667">
        <ele>397.561</ele>
        <time>2015-10-02T08:35:51Z</time>
      </trkpt>
      <trkpt lat="47.48418" lon="6.66701">
        <ele>397.599</ele>
        <time>2015-10-02T08:35:52Z</time>
      </trkpt>
      <trkpt lat="47.48414" lon="6.66702">
        <ele>398.215</ele>
        <time>2015-10-02T08:35:53Z</time>
      </trkpt>
      <trkpt lat="47.4841" lon="6.66704">
        <ele>397.968</ele>
        <time>2015-10-02T08:35:54Z</time>
      </trkpt>
      <trkpt lat="47.48406" lon="6.66706">
        <ele>397.806</ele>
        <time>2015-10-02T08:35:55Z</time>
      </trkpt>
      <trkpt lat="47.48402" lon="6.66708">
        <ele>398.268</ele>
        <time>2015-10-02T08:35:56Z</time>
      </trkpt>
      <trkpt lat="47.48398" lon="6.6671">
        <ele>398.68</ele>
        <time>2015-10-02T08:35:57Z</time>
      </trkpt>
      <trkpt lat="47.48394" lon="6.66712">
        <ele>397.742</ele>
        <time>2015-10-02T08:35:58Z</time>
      </trkpt>
      <trkpt lat="47.4839" lon="6.66715">
        <ele>397.779</ele>
        <time>2015-10-02T08:35:59Z</time>
      </trkpt>
      <trkpt lat="47.48386" lon="6.66718">
        <ele>397.616</ele>
        <time>2015-10-02T08:36:00Z</time>
      </trkpt>
      <trkpt lat="47.48382" lon="6.66721">
        <ele>397.016</ele>
        <time>2015-10-02T08:36:01Z</time>
      </trkpt>
      <trkpt lat="47.48379" lon="6.66724">
        <ele>397.826</ele>
        <time>2015-10-02T08:36:02Z</time>
      </trkpt>
      <trkpt lat="47.48375" lon="6.66728">
        <ele>397.632</ele>
        <time>2015-10-02T08:36:03Z</time>
      </trkpt>
      <trkpt lat="47.48372" lon="6.66731">
        <ele>398.219</ele>
        <time>2015-10-02T08:36:04Z</time>
      </trkpt>
      <trkpt lat="47.48368" lon="6.66735">
        <ele>398.173</ele>
        <time>2015-10-02T08:36:05Z</time>
      </trkpt>
      <trkpt lat="47.48365" lon="6.66739">
        <ele>398.308</ele>
        <time>2015-10-02T08:36:06Z</time>
      </trkpt>
      <trkpt lat="47.48362" lon="6.66743">
        <ele>398.175</ele>
        <time>2015-10-02T08:36:07Z</time>
      </trkpt>
      <trkpt lat="47.48359" lon="6.66747">
        <ele>398.26</ele>
        <time>2015-10-02T08:36:08Z</time>
      </trkpt>
      <trkpt lat="47.48356" lon="6.66752">
        <ele>398.169</ele>
        <time>2015-10-02T08:36:09Z</time>
      </trkpt>
      <trkpt lat="47.48354" lon="6.66757">
        <ele>397.596</ele>
        <time>2015-10-02T08:36:10Z</time>
      </trkpt>
      <trkpt lat="47.48351" lon="6.66763">
        <ele>397.685</ele>
        <time>2015-10-02T08:36:11Z</time>
      </trkpt>
      <trkpt lat="47.48349" lon="6.66768">
        <ele>397.563</ele>
        <time>2015-10-02T08:36:12Z</time>
      </trkpt>
      <trkpt lat="47.48347" lon="6.66773">
        <ele>397.584</ele>
        <time>2015-10-02T08:36:13Z</time>
      </trkpt>
      <trkpt lat="47.48345" lon="6.66778">
        <ele>397.773</ele>
        <time>2015-10-02T08:36:14Z</time>
      </trkpt>
      <trkpt lat="47.48343" lon="6.66784">
        <ele>397.676</ele>
        <time>2015-10-02T08:36:15Z</time>
      </trkpt>
      <trkpt lat="47.48341" lon="6.66789">
        <ele>398.129</ele>
        <time>2015-10-02T08:36:16Z</time>
      </trkpt>
      <trkpt lat="47.48339" lon="6.66793">
        <ele>398.277</ele>
        <time>2015-10-02T08:36:17Z</time>
      </trkpt>
      <trkpt lat="47.48337" lon="6.66798">
        <ele>398.155</ele>
        <time>2015-10-02T08:36:18Z</time>
      </trkpt>
      <trkpt lat="47.48335" lon="6.66803">
        <ele>398.084</ele>
        <time>2015-10-02T08:36:19Z</time>
      </trkpt>
      <trkpt lat="47.48334" lon="6.66808">
        <ele>397.803</ele>
        <time>2015-10-02T08:36:20Z</time>
      </trkpt>
      <trkpt lat="47.48332" lon="6.66814">
        <ele>397.938</ele>
        <time>2015-10-02T08:36:21Z</time>
      </trkpt>
      <trkpt lat="47.4833" lon="6.66819">
        <ele>397.651</ele>
        <time>2015-10-02T08:36:22Z</time>
      </trkpt>
      <trkpt lat="47.48329" lon="6.66825">
        <ele>398.224</ele>
        <time>2015-10-02T08:36:23Z</time>
      </trkpt>
      <trkpt lat="47.48327" lon="6.6683">
        <ele>398.129</ele>
        <time>2015-10-02T08:36:24Z</time>
      </trkpt>
      <trkpt lat="47.48325" lon="6.66836">
        <ele>397.96</ele>
        <time>2015-10-02T08:36:25Z</time>
      </trkpt>
      <trkpt lat="47.48324" lon="6.66841">
        <ele>397.737</ele>
        <time>2015-10-02T08:36:26Z</time>
      </trkpt>
      <trkpt lat="47.48322" lon="6.66846">
        <ele>397.922</ele>
        <time>2015-10-02T08:36:27Z</time>
      </trkpt>
      <trkpt lat="47.4832" lon="6.66852">
        <ele>397.744</ele>
        <time>2015-10-02T08:36:28Z</time>
      </trkpt>
      <trkpt lat="47.48319" lon="6.66857">
        <ele>397.516</ele>
        <time>2015-10-02T08:36:29Z</time>
      </trkpt>
      <trkpt lat="47.48317" lon="6.66862">
        <ele>397.448</ele>
        <time>2015-10-02T08:36:30Z</time>
      </trkpt>
      <trkpt lat="47.48316" lon="6.66866">
        <ele>397.881</ele>
        <time>2015-10-02T08:36:31Z</time>
      </trkpt>
      <trkpt lat="47.48314" lon="6.66871">
        <ele>397.665</ele>
        <time>2015-10-02T08:36:32Z</time>
      </trkpt>
      <trkpt lat="47.48312" lon="6.66876">
        <ele>397.619</ele>
        <time>2015-10-02T08:36:33Z</time>
      </trkpt>
      <trkpt lat="47.48311" lon="6.66881">
        <ele>397.682</ele>
        <time>2015-10-02T08:36:34Z</time>
      </trkpt>
      <trkpt lat="47.48309" lon="6.66885">
        <ele>397.529</ele>
        <time>2015-10-02T08:36:35Z</time>
      </trkpt>
      <trkpt lat="47.48308" lon="6.6689">
        <ele>397.815</ele>
        <time>2015-10-02T08:36:36Z</time>
      </trkpt>
      <trkpt lat="47.48306" lon="6.66895">
        <ele>397.827</ele>
        <time>2015-10-02T08:36:37Z</time>
      </trkpt>
      <trkpt lat="47.48305" lon="6.669">
        <ele>397.787</ele>
        <time>2015-10-02T08:36:38Z</time>
      </trkpt>
      <trkpt lat="47.48303" lon="6.66905">
        <ele>398.024</ele>
        <time>2015-10-02T08:36:39Z</time>
      </trkpt>
      <trkpt lat="47.48301" lon="6.66911">
        <ele>397.611</ele>
        <time>2015-10-02T08:36:40Z</time>
      </trkpt>
      <trkpt lat="47.483" lon="6.66916">
        <ele>397.412</ele>
        <time>2015-10-02T08:36:41Z</time>
      </trkpt>
      <trkpt lat="47.48298" lon="6.66922">
        <ele>397.503</ele>
        <time>2015-10-02T08:36:42Z</time>
      </trkpt>
      <trkpt lat="47.48296" lon="6.66927">
        <ele>397.545</ele>
        <time>2015-10-02T08:36:43Z</time>
      </trkpt>
      <trkpt lat="47.48294" lon="6.66933">
        <ele>397.464</ele>
        <time>2015-10-02T08:36:44Z</time>
      </trkpt>
      <trkpt lat="47.48292" lon="6.66938">
        <ele>397.471</ele>
        <time>2015-10-02T08:36:45Z</time>
      </trkpt>
      <trkpt lat="47.4829" lon="6.66944">
        <ele>397.35</ele>
        <time>2015-10-02T08:36:46Z</time>
      </trkpt>
      <trkpt lat="47.48288" lon="6.66949">
        <ele>397.249</ele>
        <time>2015-10-02T08:36:47Z</time>
      </trkpt>
      <trkpt lat="47.48287" lon="6.66955">
        <ele>397.448</ele>
        <time>2015-10-02T08:36:48Z</time>
      </trkpt>
      <trkpt lat="47.48285" lon="6.66961">
        <ele>397.289</ele>
        <time>2015-10-02T08:36:49Z</time>
      </trkpt>
      <trkpt lat="47.48283" lon="6.66966">
        <ele>397.237</ele>
        <time>2015-10-02T08:36:50Z</time>
      </trkpt>
      <trkpt lat="47.48281" lon="6.66972">
        <ele>396.936</ele>
        <time>2015-10-02T08:36:51Z</time>
      </trkpt>
      <trkpt lat="47.4828" lon="6.66977">
        <ele>397.046</ele>
        <time>2015-10-02T08:36:52Z</time>
      </trkpt>
      <trkpt lat="47.48278" lon="6.66983">
        <ele>397.02</ele>
        <time>2015-10-02T08:36:53Z</time>
      </trkpt>
      <trkpt lat="47.48277" lon="6.66988">
        <ele>396.819</ele>
        <time>2015-10-02T08:36:54Z</time>
      </trkpt>
      <trkpt lat="47.48275" lon="6.66993">
        <ele>397.078</ele>
        <time>2015-10-02T08:36:55Z</time>
      </trkpt>
      <trkpt lat="47.48274" lon="6.66999">
        <ele>397.183</ele>
        <time>2015-10-02T08:36:56Z</time>
      </trkpt>
      <trkpt lat="47.48272" lon="6.67004">
        <ele>397.164</ele>
        <time>2015-10-02T08:36:57Z</time>
      </trkpt>
      <trkpt lat="47.48271" lon="6.6701">
        <ele>397.291</ele>
        <time>2015-10-02T08:36:58Z</time>
      </trkpt>
      <trkpt lat="47.48269" lon="6.67016">
        <ele>397.032</ele>
        <time>2015-10-02T08:36:59Z</time>
      </trkpt>
      <trkpt lat="47.48268" lon="6.67021">
        <ele>396.99</ele>
        <time>2015-10-02T08:37:00Z</time>
      </trkpt>
      <trkpt lat="47.48267" lon="6.67027">
        <ele>396.967</ele>
        <time>2015-10-02T08:37:01Z</time>
      </trkpt>
      <trkpt lat="47.48265" lon="6.67033">
        <ele>396.741</ele>
        <time>2015-10-02T08:37:02Z</time>
      </trkpt>
      <trkpt lat="47.48264" lon="6.67039">
        <ele>396.482</ele>
        <time>2015-10-02T08:37:03Z</time>
      </trkpt>
      <trkpt lat="47.48263" lon="6.67045">
        <ele>396.519</ele>
        <time>2015-10-02T08:37:04Z</time>
      </trkpt>
      <trkpt lat="47.48262" lon="6.67052">
        <ele>396.709</ele>
        <time>2015-10-02T08:37:05Z</time>
      </trkpt>
      <trkpt lat="47.48261" lon="6.67058">
        <ele>396.57</ele>
        <time>2015-10-02T08:37:06Z</time>
      </trkpt>
      <trkpt lat="47.4826" lon="6.67064">
        <ele>396.672</ele>
        <time>2015-10-02T08:37:07Z</time>
      </trkpt>
      <trkpt lat="47.48259" lon="6.6707">
        <ele>397.224</ele>
        <time>2015-10-02T08:37:08Z</time>
      </trkpt>
      <trkpt lat="47.48258" lon="6.67076">
        <ele>396.951</ele>
        <time>2015-10-02T08:37:09Z</time>
      </trkpt>
      <trkpt lat="47.48257" lon="6.67082">
        <ele>396.925</ele>
        <time>2015-10-02T08:37:10Z</time>
      </trkpt>
      <trkpt lat="47.48256" lon="6.67088">
        <ele>396.953</ele>
        <time>2015-10-02T08:37:11Z</time>
      </trkpt>
      <trkpt lat="47.48255" lon="6.67093">
        <ele>397.06</ele>
        <time>2015-10-02T08:37:12Z</time>
      </trkpt>
      <trkpt lat="47.48254" lon="6.67099">
        <ele>397.048</ele>
        <time>2015-10-02T08:37:13Z</time>
      </trkpt>
      <trkpt lat="47.48253" lon="6.67105">
        <ele>396.956</ele>
        <time>2015-10-02T08:37:14Z</time>
      </trkpt>
      <trkpt lat="47.48252" lon="6.67111">
        <ele>396.83</ele>
        <time>2015-10-02T08:37:15Z</time>
      </trkpt>
      <trkpt lat="47.48251" lon="6.67117">
        <ele>396.664</ele>
        <time>2015-10-02T08:37:16Z</time>
      </trkpt>
      <trkpt lat="47.4825" lon="6.67122">
        <ele>396.888</ele>
        <time>2015-10-02T08:37:17Z</time>
      </trkpt>
      <trkpt lat="47.48249" lon="6.67128">
        <ele>396.859</ele>
        <time>2015-10-02T08:37:18Z</time>
      </trkpt>
      <trkpt lat="47.48248" lon="6.67134">
        <ele>396.866</ele>
        <time>2015-10-02T08:37:19Z</time>
      </trkpt>
      <trkpt lat="47.48248" lon="6.6714">
        <ele>396.899</ele>
        <time>2015-10-02T08:37:20Z</time>
      </trkpt>
      <trkpt lat="47.48247" lon="6.67146">
        <ele>397.086</ele>
        <time>2015-10-02T08:37:21Z</time>
      </trkpt>
      <trkpt lat="47.48245" lon="6.67151">
        <ele>397.014</ele>
        <time>2015-10-02T08:37:22Z</time>
      </trkpt>
      <trkpt lat="47.48245" lon="6.67157">
        <ele>396.707</ele>
        <time>2015-10-02T08:37:23Z</time>
      </trkpt>
      <trkpt lat="47.48244" lon="6.67163">
        <ele>396.736</ele>
        <time>2015-10-02T08:37:24Z</time>
      </trkpt>
      <trkpt lat="47.48243" lon="6.67168">
        <ele>396.617</ele>
        <time>2015-10-02T08:37:25Z</time>
      </trkpt>
      <trkpt lat="47.48242" lon="6.67174">
        <ele>396.519</ele>
        <time>2015-10-02T08:37:26Z</time>
      </trkpt>
      <trkpt lat="47.48241" lon="6.6718">
        <ele>396.385</ele>
        <time>2015-10-02T08:37:27Z</time>
      </trkpt>
      <trkpt lat="47.4824" lon="6.67185">
        <ele>396.094</ele>
        <time>2015-10-02T08:37:28Z</time>
      </trkpt>
      <trkpt lat="47.48239" lon="6.67191">
        <ele>395.975</ele>
        <time>2015-10-02T08:37:29Z</time>
      </trkpt>
      <trkpt lat="47.48238" lon="6.67197">
        <ele>396.176</ele>
        <time>2015-10-02T08:37:30Z</time>
      </trkpt>
      <trkpt lat="47.48237" lon="6.67203">
        <ele>396.071</ele>
        <time>2015-10-02T08:37:31Z</time>
      </trkpt>
      <trkpt lat="47.48236" lon="6.67209">
        <ele>396.015</ele>
        <time>2015-10-02T08:37:32Z</time>
      </trkpt>
      <trkpt lat="47.48235" lon="6.67214">
        <ele>395.881</ele>
        <time>2015-10-02T08:37:33Z</time>
      </trkpt>
      <trkpt lat="47.48234" lon="6.6722">
        <ele>396.005</ele>
        <time>2015-10-02T08:37:34Z</time>
      </trkpt>
      <trkpt lat="47.48234" lon="6.67226">
        <ele>396.147</ele>
        <time>2015-10-02T08:37:35Z</time>
      </trkpt>
      <trkpt lat="47.48233" lon="6.67232">
        <ele>396.28</ele>
        <time>2015-10-02T08:37:36Z</time>
      </trkpt>
      <trkpt lat="47.48232" lon="6.67238">
        <ele>396.028</ele>
        <time>2015-10-02T08:37:37Z</time>
      </trkpt>
      <trkpt lat="47.4823" lon="6.67244">
        <ele>396.132</ele>
        <time>2015-10-02T08:37:38Z</time>
      </trkpt>
      <trkpt lat="47.48229" lon="6.67249">
        <ele>396.083</ele>
        <time>2015-10-02T08:37:39Z</time>
      </trkpt>
      <trkpt lat="47.48227" lon="6.67255">
        <ele>396.202</ele>
        <time>2015-10-02T08:37:40Z</time>
      </trkpt>
      <trkpt lat="47.48226" lon="6.6726">
        <ele>396.051</ele>
        <time>2015-10-02T08:37:41Z</time>
      </trkpt>
      <trkpt lat="47.48224" lon="6.67266">
        <ele>396.049</ele>
        <time>2015-10-02T08:37:42Z</time>
      </trkpt>
      <trkpt lat="47.48223" lon="6.67271">
        <ele>396.405</ele>
        <time>2015-10-02T08:37:43Z</time>
      </trkpt>
      <trkpt lat="47.48221" lon="6.67277">
        <ele>396.494</ele>
        <time>2015-10-02T08:37:44Z</time>
      </trkpt>
      <trkpt lat="47.48219" lon="6.67282">
        <ele>396.659</ele>
        <time>2015-10-02T08:37:45Z</time>
      </trkpt>
      <trkpt lat="47.48217" lon="6.67288">
        <ele>396.734</ele>
        <time>2015-10-02T08:37:46Z</time>
      </trkpt>
      <trkpt lat="47.48215" lon="6.67294">
        <ele>396.625</ele>
        <time>2015-10-02T08:37:47Z</time>
      </trkpt>
      <trkpt lat="47.48213" lon="6.673">
        <ele>396.494</ele>
        <time>2015-10-02T08:37:48Z</time>
      </trkpt>
      <trkpt lat="47.48211" lon="6.67306">
        <ele>396.109</ele>
        <time>2015-10-02T08:37:49Z</time>
      </trkpt>
      <trkpt lat="47.48209" lon="6.67313">
        <ele>396.129</ele>
        <time>2015-10-02T08:37:50Z</time>
      </trkpt>
      <trkpt lat="47.48207" lon="6.67319">
        <ele>396.086</ele>
        <time>2015-10-02T08:37:51Z</time>
      </trkpt>
      <trkpt lat="47.48205" lon="6.67325">
        <ele>395.838</ele>
        <time>2015-10-02T08:37:52Z</time>
      </trkpt>
      <trkpt lat="47.48203" lon="6.67332">
        <ele>395.564</ele>
        <time>2015-10-02T08:37:53Z</time>
      </trkpt>
      <trkpt lat="47.48201" lon="6.67339">
        <ele>395.638</ele>
        <time>2015-10-02T08:37:54Z</time>
      </trkpt>
      <trkpt lat="47.48199" lon="6.67346">
        <ele>395.641</ele>
        <time>2015-10-02T08:37:55Z</time>
      </trkpt>
      <trkpt lat="47.48196" lon="6.67353">
        <ele>395.535</ele>
        <time>2015-10-02T08:37:56Z</time>
      </trkpt>
      <trkpt lat="47.48194" lon="6.6736">
        <ele>395.581</ele>
        <time>2015-10-02T08:37:57Z</time>
      </trkpt>
      <trkpt lat="47.48192" lon="6.67367">
        <ele>395.492</ele>
        <time>2015-10-02T08:37:58Z</time>
      </trkpt>
      <trkpt lat="47.48189" lon="6.67373">
        <ele>395.615</ele>
        <time>2015-10-02T08:37:59Z</time>
      </trkpt>
      <trkpt lat="47.48188" lon="6.6738">
        <ele>395.673</ele>
        <time>2015-10-02T08:38:00Z</time>
      </trkpt>
      <trkpt lat="47.48185" lon="6.67387">
        <ele>395.573</ele>
        <time>2015-10-02T08:38:01Z</time>
      </trkpt>
      <trkpt lat="47.48183" lon="6.67393">
        <ele>395.52</ele>
        <time>2015-10-02T08:38:02Z</time>
      </trkpt>
      <trkpt lat="47.4818" lon="6.67399">
        <ele>395.495</ele>
        <time>2015-10-02T08:38:03Z</time>
      </trkpt>
      <trkpt lat="47.48176" lon="6.67405">
        <ele>395.579</ele>
        <time>2015-10-02T08:38:04Z</time>
      </trkpt>
      <trkpt lat="47.48173" lon="6.67411">
        <ele>395.531</ele>
        <time>2015-10-02T08:38:05Z</time>
      </trkpt>
      <trkpt lat="47.4817" lon="6.67417">
        <ele>395.353</ele>
        <time>2015-10-02T08:38:06Z</time>
      </trkpt>
      <trkpt lat="47.48167" lon="6.67423">
        <ele>395.348</ele>
        <time>2015-10-02T08:38:07Z</time>
      </trkpt>
      <trkpt lat="47.48163" lon="6.67428">
        <ele>394.82</ele>
        <time>2015-10-02T08:38:08Z</time>
      </trkpt>
      <trkpt lat="47.4816" lon="6.67433">
        <ele>395.105</ele>
        <time>2015-10-02T08:38:09Z</time>
      </trkpt>
      <trkpt lat="47.48155" lon="6.6744">
        <ele>394.851</ele>
        <time>2015-10-02T08:38:10Z</time>
      </trkpt>
      <trkpt lat="47.48151" lon="6.67446">
        <ele>394.705</ele>
        <time>2015-10-02T08:38:11Z</time>
      </trkpt>
      <trkpt lat="47.48147" lon="6.67452">
        <ele>394.728</ele>
        <time>2015-10-02T08:38:12Z</time>
      </trkpt>
      <trkpt lat="47.48144" lon="6.67459">
        <ele>394.267</ele>
        <time>2015-10-02T08:38:13Z</time>
      </trkpt>
      <trkpt lat="47.48141" lon="6.67465">
        <ele>394.207</ele>
        <time>2015-10-02T08:38:14Z</time>
      </trkpt>
      <trkpt lat="47.48137" lon="6.67473">
        <ele>394.114</ele>
        <time>2015-10-02T08:38:15Z</time>
      </trkpt>
      <trkpt lat="47.48134" lon="6.67482">
        <ele>393.777</ele>
        <time>2015-10-02T08:38:16Z</time>
      </trkpt>
      <trkpt lat="47.48131" lon="6.6749">
        <ele>393.566</ele>
        <time>2015-10-02T08:38:17Z</time>
      </trkpt>
      <trkpt lat="47.48128" lon="6.67498">
        <ele>393.766</ele>
        <time>2015-10-02T08:38:18Z</time>
      </trkpt>
      <trkpt lat="47.48126" lon="6.67505">
        <ele>393.815</ele>
        <time>2015-10-02T08:38:19Z</time>
      </trkpt>
      <trkpt lat="47.48124" lon="6.67513">
        <ele>393.78</ele>
        <time>2015-10-02T08:38:20Z</time>
      </trkpt>
      <trkpt lat="47.48121" lon="6.67519">
        <ele>394.388</ele>
        <time>2015-10-02T08:38:21Z</time>
      </trkpt>
      <trkpt lat="47.48119" lon="6.67528">
        <ele>393.786</ele>
        <time>2015-10-02T08:38:22Z</time>
      </trkpt>
      <trkpt lat="47.48117" lon="6.67537">
        <ele>393.001</ele>
        <time>2015-10-02T08:38:23Z</time>
      </trkpt>
      <trkpt lat="47.48115" lon="6.67546">
        <ele>392.631</ele>
        <time>2015-10-02T08:38:24Z</time>
      </trkpt>
      <trkpt lat="47.48113" lon="6.67555">
        <ele>392.554</ele>
        <time>2015-10-02T08:38:25Z</time>
      </trkpt>
      <trkpt lat="47.48111" lon="6.67563">
        <ele>392.484</ele>
        <time>2015-10-02T08:38:26Z</time>
      </trkpt>
      <trkpt lat="47.48109" lon="6.67572">
        <ele>392.232</ele>
        <time>2015-10-02T08:38:27Z</time>
      </trkpt>
      <trkpt lat="47.48106" lon="6.6758">
        <ele>392.125</ele>
        <time>2015-10-02T08:38:28Z</time>
      </trkpt>
      <trkpt lat="47.48104" lon="6.67588">
        <ele>392.242</ele>
        <time>2015-10-02T08:38:29Z</time>
      </trkpt>
      <trkpt lat="47.48102" lon="6.67595">
        <ele>392.157</ele>
        <time>2015-10-02T08:38:30Z</time>
      </trkpt>
      <trkpt lat="47.481" lon="6.67603">
        <ele>392.125</ele>
        <time>2015-10-02T08:38:31Z</time>
      </trkpt>
      <trkpt lat="47.48099" lon="6.67612">
        <ele>392.095</ele>
        <time>2015-10-02T08:38:32Z</time>
      </trkpt>
      <trkpt lat="47.48097" lon="6.67621">
        <ele>392.699</ele>
        <time>2015-10-02T08:38:33Z</time>
      </trkpt>
      <trkpt lat="47.48095" lon="6.67628">
        <ele>393.05</ele>
        <time>2015-10-02T08:38:34Z</time>
      </trkpt>
      <trkpt lat="47.48093" lon="6.67636">
        <ele>393.01</ele>
        <time>2015-10-02T08:38:35Z</time>
      </trkpt>
      <trkpt lat="47.48089" lon="6.67645">
        <ele>392.09</ele>
        <time>2015-10-02T08:38:36Z</time>
      </trkpt>
      <trkpt lat="47.48087" lon="6.67653">
        <ele>390.978</ele>
        <time>2015-10-02T08:38:37Z</time>
      </trkpt>
      <trkpt lat="47.48085" lon="6.67662">
        <ele>390.599</ele>
        <time>2015-10-02T08:38:38Z</time>
      </trkpt>
      <trkpt lat="47.48085" lon="6.67671">
        <ele>390.705</ele>
        <time>2015-10-02T08:38:39Z</time>
      </trkpt>
      <trkpt lat="47.48084" lon="6.6768">
        <ele>390.758</ele>
        <time>2015-10-02T08:38:40Z</time>
      </trkpt>
      <trkpt lat="47.48083" lon="6.67688">
        <ele>390.91</ele>
        <time>2015-10-02T08:38:41Z</time>
      </trkpt>
      <trkpt lat="47.48081" lon="6.67698">
        <ele>391.115</ele>
        <time>2015-10-02T08:38:42Z</time>
      </trkpt>
      <trkpt lat="47.4808" lon="6.67707">
        <ele>391.475</ele>
        <time>2015-10-02T08:38:43Z</time>
      </trkpt>
      <trkpt lat="47.48078" lon="6.67721">
        <ele>391.904</ele>
        <time>2015-10-02T08:38:44Z</time>
      </trkpt>
      <trkpt lat="47.48077" lon="6.67731">
        <ele>391.872</ele>
        <time>2015-10-02T08:38:45Z</time>
      </trkpt>
      <trkpt lat="47.48075" lon="6.6774">
        <ele>392.82</ele>
        <time>2015-10-02T08:38:47Z</time>
      </trkpt>
      <trkpt lat="47.48073" lon="6.67747">
        <ele>393.357</ele>
        <time>2015-10-02T08:38:48Z</time>
      </trkpt>
      <trkpt lat="47.4807" lon="6.67755">
        <ele>392.905</ele>
        <time>2015-10-02T08:38:49Z</time>
      </trkpt>
      <trkpt lat="47.48067" lon="6.6777">
        <ele>392.896</ele>
        <time>2015-10-02T08:38:50Z</time>
      </trkpt>
      <trkpt lat="47.48064" lon="6.67781">
        <ele>392.919</ele>
        <time>2015-10-02T08:38:51Z</time>
      </trkpt>
      <trkpt lat="47.4806" lon="6.6779">
        <ele>393.255</ele>
        <time>2015-10-02T08:38:52Z</time>
      </trkpt>
      <trkpt lat="47.48056" lon="6.67799">
        <ele>393.426</ele>
        <time>2015-10-02T08:38:53Z</time>
      </trkpt>
      <trkpt lat="47.48051" lon="6.67806">
        <ele>393.977</ele>
        <time>2015-10-02T08:38:54Z</time>
      </trkpt>
      <trkpt lat="47.48046" lon="6.6781">
        <ele>394.06</ele>
        <time>2015-10-02T08:38:55Z</time>
      </trkpt>
      <trkpt lat="47.48039" lon="6.67816">
        <ele>394.715</ele>
        <time>2015-10-02T08:38:56Z</time>
      </trkpt>
      <trkpt lat="47.48033" lon="6.67821">
        <ele>394.672</ele>
        <time>2015-10-02T08:38:57Z</time>
      </trkpt>
      <trkpt lat="47.48028" lon="6.67826">
        <ele>398.003</ele>
        <time>2015-10-02T08:38:58Z</time>
      </trkpt>
      <trkpt lat="47.48022" lon="6.67832">
        <ele>398.611</ele>
        <time>2015-10-02T08:38:59Z</time>
      </trkpt>
      <trkpt lat="47.48013" lon="6.6784">
        <ele>396.221</ele>
        <time>2015-10-02T08:39:00Z</time>
      </trkpt>
      <trkpt lat="47.48008" lon="6.67846">
        <ele>396.564</ele>
        <time>2015-10-02T08:39:01Z</time>
      </trkpt>
      <trkpt lat="47.47998" lon="6.67852">
        <ele>392.946</ele>
        <time>2015-10-02T08:39:02Z</time>
      </trkpt>
      <trkpt lat="47.47994" lon="6.67859">
        <ele>393.615</ele>
        <time>2015-10-02T08:39:03Z</time>
      </trkpt>
      <trkpt lat="47.47988" lon="6.67867">
        <ele>392.928</ele>
        <time>2015-10-02T08:39:04Z</time>
      </trkpt>
      <trkpt lat="47.47985" lon="6.67876">
        <ele>392.978</ele>
        <time>2015-10-02T08:39:05Z</time>
      </trkpt>
      <trkpt lat="47.47979" lon="6.67873">
        <ele>396.221</ele>
        <time>2015-10-02T08:39:06Z</time>
      </trkpt>
      <trkpt lat="47.47977" lon="6.67881">
        <ele>396.574</ele>
        <time>2015-10-02T08:39:07Z</time>
      </trkpt>
      <trkpt lat="47.47973" lon="6.67888">
        <ele>396.479</ele>
        <time>2015-10-02T08:39:08Z</time>
      </trkpt>
      <trkpt lat="47.47969" lon="6.67893">
        <ele>396.17</ele>
        <time>2015-10-02T08:39:09Z</time>
      </trkpt>
      <trkpt lat="47.47967" lon="6.679">
        <ele>396.843</ele>
        <time>2015-10-02T08:39:10Z</time>
      </trkpt>
      <trkpt lat="47.47966" lon="6.67908">
        <ele>397.439</ele>
        <time>2015-10-02T08:39:11Z</time>
      </trkpt>
      <trkpt lat="47.47965" lon="6.67924">
        <ele>395.059</ele>
        <time>2015-10-02T08:39:12Z</time>
      </trkpt>
      <trkpt lat="47.47961" lon="6.6793">
        <ele>395.779</ele>
        <time>2015-10-02T08:39:13Z</time>
      </trkpt>
      <trkpt lat="47.47957" lon="6.67936">
        <ele>396.138</ele>
        <time>2015-10-02T08:39:14Z</time>
      </trkpt>
      <trkpt lat="47.47957" lon="6.67951">
        <ele>394.997</ele>
        <time>2015-10-02T08:39:15Z</time>
      </trkpt>
      <trkpt lat="47.47954" lon="6.67959">
        <ele>395.899</ele>
        <time>2015-10-02T08:39:16Z</time>
      </trkpt>
      <trkpt lat="47.47955" lon="6.67971">
        <ele>396.975</ele>
        <time>2015-10-02T08:39:17Z</time>
      </trkpt>
      <trkpt lat="47.47952" lon="6.6798">
        <ele>395.635</ele>
        <time>2015-10-02T08:39:18Z</time>
      </trkpt>
      <trkpt lat="47.47949" lon="6.6799">
        <ele>394.126</ele>
        <time>2015-10-02T08:39:19Z</time>
      </trkpt>
      <trkpt lat="47.47946" lon="6.68001">
        <ele>393.688</ele>
        <time>2015-10-02T08:39:20Z</time>
      </trkpt>
      <trkpt lat="47.47946" lon="6.68019">
        <ele>391.803</ele>
        <time>2015-10-02T08:39:21Z</time>
      </trkpt>
      <trkpt lat="47.47947" lon="6.68031">
        <ele>391.157</ele>
        <time>2015-10-02T08:39:22Z</time>
      </trkpt>
      <trkpt lat="47.47951" lon="6.68061">
        <ele>384.329</ele>
        <time>2015-10-02T08:39:23Z</time>
      </trkpt>
      <trkpt lat="47.47952" lon="6.68071">
        <ele>383.317</ele>
        <time>2015-10-02T08:39:24Z</time>
      </trkpt>
      <trkpt lat="47.47953" lon="6.6809">
        <ele>378.72</ele>
        <time>2015-10-02T08:39:25Z</time>
      </trkpt>
      <trkpt lat="47.47953" lon="6.681">
        <ele>379.28</ele>
        <time>2015-10-02T08:39:26Z</time>
      </trkpt>
      <trkpt lat="47.47952" lon="6.68112">
        <ele>378.203</ele>
        <time>2015-10-02T08:39:27Z</time>
      </trkpt>
      <trkpt lat="47.4795" lon="6.68124">
        <ele>377.587</ele>
        <time>2015-10-02T08:39:28Z</time>
      </trkpt>
      <trkpt lat="47.47947" lon="6.68135">
        <ele>377.082</ele>
        <time>2015-10-02T08:39:29Z</time>
      </trkpt>
      <trkpt lat="47.47944" lon="6.68147">
        <ele>378.851</ele>
        <time>2015-10-02T08:39:30Z</time>
      </trkpt>
      <trkpt lat="47.47942" lon="6.68159">
        <ele>379.285</ele>
        <time>2015-10-02T08:39:31Z</time>
      </trkpt>
      <trkpt lat="47.47939" lon="6.68171">
        <ele>379.669</ele>
        <time>2015-10-02T08:39:32Z</time>
      </trkpt>
      <trkpt lat="47.47937" lon="6.68184">
        <ele>379.027</ele>
        <time>2015-10-02T08:39:33Z</time>
      </trkpt>
      <trkpt lat="47.47934" lon="6.68195">
        <ele>379.275</ele>
        <time>2015-10-02T08:39:34Z</time>
      </trkpt>
      <trkpt lat="47.4793" lon="6.68203">
        <ele>379.039</ele>
        <time>2015-10-02T08:39:35Z</time>
      </trkpt>
      <trkpt lat="47.47929" lon="6.68214">
        <ele>378.327</ele>
        <time>2015-10-02T08:39:36Z</time>
      </trkpt>
      <trkpt lat="47.47927" lon="6.68227">
        <ele>377.426</ele>
        <time>2015-10-02T08:39:37Z</time>
      </trkpt>
      <trkpt lat="47.47924" lon="6.6824">
        <ele>377.059</ele>
        <time>2015-10-02T08:39:38Z</time>
      </trkpt>
      <trkpt lat="47.47915" lon="6.68247">
        <ele>376.232</ele>
        <time>2015-10-02T08:39:39Z</time>
      </trkpt>
      <trkpt lat="47.47911" lon="6.68257">
        <ele>375.149</ele>
        <time>2015-10-02T08:39:40Z</time>
      </trkpt>
      <trkpt lat="47.47908" lon="6.68271">
        <ele>373.913</ele>
        <time>2015-10-02T08:39:41Z</time>
      </trkpt>
      <trkpt lat="47.47906" lon="6.68286">
        <ele>370.905</ele>
        <time>2015-10-02T08:39:42Z</time>
      </trkpt>
      <trkpt lat="47.47902" lon="6.68297">
        <ele>370.575</ele>
        <time>2015-10-02T08:39:43Z</time>
      </trkpt>
      <trkpt lat="47.47897" lon="6.68309">
        <ele>370.28</ele>
        <time>2015-10-02T08:39:44Z</time>
      </trkpt>
      <trkpt lat="47.47893" lon="6.68322">
        <ele>370.235</ele>
        <time>2015-10-02T08:39:45Z</time>
      </trkpt>
      <trkpt lat="47.47889" lon="6.68333">
        <ele>370.377</ele>
        <time>2015-10-02T08:39:46Z</time>
      </trkpt>
      <trkpt lat="47.47886" lon="6.68348">
        <ele>370.545</ele>
        <time>2015-10-02T08:39:47Z</time>
      </trkpt>
      <trkpt lat="47.47883" lon="6.68361">
        <ele>370.307</ele>
        <time>2015-10-02T08:39:48Z</time>
      </trkpt>
      <trkpt lat="47.4788" lon="6.68372">
        <ele>370.199</ele>
        <time>2015-10-02T08:39:49Z</time>
      </trkpt>
      <trkpt lat="47.47877" lon="6.68384">
        <ele>370.29</ele>
        <time>2015-10-02T08:39:50Z</time>
      </trkpt>
      <trkpt lat="47.47873" lon="6.68396">
        <ele>370.07</ele>
        <time>2015-10-02T08:39:51Z</time>
      </trkpt>
      <trkpt lat="47.47871" lon="6.68411">
        <ele>369.599</ele>
        <time>2015-10-02T08:39:52Z</time>
      </trkpt>
      <trkpt lat="47.47867" lon="6.68422">
        <ele>369.168</ele>
        <time>2015-10-02T08:39:53Z</time>
      </trkpt>
      <trkpt lat="47.47865" lon="6.68435">
        <ele>369.006</ele>
        <time>2015-10-02T08:39:54Z</time>
      </trkpt>
      <trkpt lat="47.47862" lon="6.68447">
        <ele>369.027</ele>
        <time>2015-10-02T08:39:55Z</time>
      </trkpt>
      <trkpt lat="47.47858" lon="6.68458">
        <ele>369.01</ele>
        <time>2015-10-02T08:39:56Z</time>
      </trkpt>
      <trkpt lat="47.47854" lon="6.68471">
        <ele>368.934</ele>
        <time>2015-10-02T08:39:57Z</time>
      </trkpt>
      <trkpt lat="47.47848" lon="6.68479">
        <ele>369.251</ele>
        <time>2015-10-02T08:39:58Z</time>
      </trkpt>
      <trkpt lat="47.47843" lon="6.68491">
        <ele>368.858</ele>
        <time>2015-10-02T08:39:59Z</time>
      </trkpt>
      <trkpt lat="47.47834" lon="6.68501">
        <ele>363.031</ele>
        <time>2015-10-02T08:40:00Z</time>
      </trkpt>
      <trkpt lat="47.47828" lon="6.6851">
        <ele>362.101</ele>
        <time>2015-10-02T08:40:01Z</time>
      </trkpt>
      <trkpt lat="47.47823" lon="6.6853">
        <ele>352.444</ele>
        <time>2015-10-02T08:40:02Z</time>
      </trkpt>
      <trkpt lat="47.47817" lon="6.68537">
        <ele>350.765</ele>
        <time>2015-10-02T08:40:03Z</time>
      </trkpt>
      <trkpt lat="47.4781" lon="6.68542">
        <ele>350.331</ele>
        <time>2015-10-02T08:40:04Z</time>
      </trkpt>
      <trkpt lat="47.47803" lon="6.68548">
        <ele>348.81</ele>
        <time>2015-10-02T08:40:05Z</time>
      </trkpt>
      <trkpt lat="47.47796" lon="6.68551">
        <ele>348.311</ele>
        <time>2015-10-02T08:40:06Z</time>
      </trkpt>
      <trkpt lat="47.47789" lon="6.68554">
        <ele>347.796</ele>
        <time>2015-10-02T08:40:07Z</time>
      </trkpt>
      <trkpt lat="47.47782" lon="6.68557">
        <ele>346.689</ele>
        <time>2015-10-02T08:40:08Z</time>
      </trkpt>
      <trkpt lat="47.47775" lon="6.68558">
        <ele>346.444</ele>
        <time>2015-10-02T08:40:09Z</time>
      </trkpt>
      <trkpt lat="47.47769" lon="6.68562">
        <ele>345.709</ele>
        <time>2015-10-02T08:40:10Z</time>
      </trkpt>
      <trkpt lat="47.47761" lon="6.68565">
        <ele>345.04</ele>
        <time>2015-10-02T08:40:11Z</time>
      </trkpt>
      <trkpt lat="47.47754" lon="6.68568">
        <ele>344.656</ele>
        <time>2015-10-02T08:40:12Z</time>
      </trkpt>
      <trkpt lat="47.47747" lon="6.68571">
        <ele>344.06</ele>
        <time>2015-10-02T08:40:13Z</time>
      </trkpt>
      <trkpt lat="47.47739" lon="6.68575">
        <ele>343.293</ele>
        <time>2015-10-02T08:40:14Z</time>
      </trkpt>
      <trkpt lat="47.47732" lon="6.6858">
        <ele>342.674</ele>
        <time>2015-10-02T08:40:15Z</time>
      </trkpt>
      <trkpt lat="47.47725" lon="6.68587">
        <ele>341.57</ele>
        <time>2015-10-02T08:40:16Z</time>
      </trkpt>
      <trkpt lat="47.47718" lon="6.68598">
        <ele>339.909</ele>
        <time>2015-10-02T08:40:17Z</time>
      </trkpt>
      <trkpt lat="47.47711" lon="6.68605">
        <ele>338.11</ele>
        <time>2015-10-02T08:40:18Z</time>
      </trkpt>
      <trkpt lat="47.47704" lon="6.68614">
        <ele>337.415</ele>
        <time>2015-10-02T08:40:19Z</time>
      </trkpt>
      <trkpt lat="47.47698" lon="6.68623">
        <ele>337.012</ele>
        <time>2015-10-02T08:40:20Z</time>
      </trkpt>
      <trkpt lat="47.47691" lon="6.68632">
        <ele>336.349</ele>
        <time>2015-10-02T08:40:21Z</time>
      </trkpt>
      <trkpt lat="47.47685" lon="6.68642">
        <ele>335.867</ele>
        <time>2015-10-02T08:40:22Z</time>
      </trkpt>
      <trkpt lat="47.47679" lon="6.6865">
        <ele>336.51</ele>
        <time>2015-10-02T08:40:23Z</time>
      </trkpt>
      <trkpt lat="47.47674" lon="6.68658">
        <ele>336.602</ele>
        <time>2015-10-02T08:40:24Z</time>
      </trkpt>
      <trkpt lat="47.47668" lon="6.68665">
        <ele>336.109</ele>
        <time>2015-10-02T08:40:25Z</time>
      </trkpt>
      <trkpt lat="47.47662" lon="6.68672">
        <ele>335.105</ele>
        <time>2015-10-02T08:40:26Z</time>
      </trkpt>
      <trkpt lat="47.47656" lon="6.6868">
        <ele>335.491</ele>
        <time>2015-10-02T08:40:27Z</time>
      </trkpt>
      <trkpt lat="47.47651" lon="6.68688">
        <ele>334.891</ele>
        <time>2015-10-02T08:40:28Z</time>
      </trkpt>
      <trkpt lat="47.47646" lon="6.68696">
        <ele>334.42</ele>
        <time>2015-10-02T08:40:29Z</time>
      </trkpt>
      <trkpt lat="47.47643" lon="6.68706">
        <ele>334.181</ele>
        <time>2015-10-02T08:40:30Z</time>
      </trkpt>
      <trkpt lat="47.4764" lon="6.68716">
        <ele>334.09</ele>
        <time>2015-10-02T08:40:31Z</time>
      </trkpt>
      <trkpt lat="47.47639" lon="6.68726">
        <ele>333.763</ele>
        <time>2015-10-02T08:40:32Z</time>
      </trkpt>
      <trkpt lat="47.47637" lon="6.68736">
        <ele>333.694</ele>
        <time>2015-10-02T08:40:33Z</time>
      </trkpt>
      <trkpt lat="47.47637" lon="6.68747">
        <ele>333.148</ele>
        <time>2015-10-02T08:40:34Z</time>
      </trkpt>
      <trkpt lat="47.47636" lon="6.68756">
        <ele>332.339</ele>
        <time>2015-10-02T08:40:35Z</time>
      </trkpt>
      <trkpt lat="47.47634" lon="6.68765">
        <ele>331.475</ele>
        <time>2015-10-02T08:40:36Z</time>
      </trkpt>
      <trkpt lat="47.47632" lon="6.68772">
        <ele>331.205</ele>
        <time>2015-10-02T08:40:37Z</time>
      </trkpt>
      <trkpt lat="47.47631" lon="6.68779">
        <ele>331.255</ele>
        <time>2015-10-02T08:40:38Z</time>
      </trkpt>
      <trkpt lat="47.47629" lon="6.68784">
        <ele>330.835</ele>
        <time>2015-10-02T08:40:39Z</time>
      </trkpt>
      <trkpt lat="47.47629" lon="6.68789">
        <ele>331.202</ele>
        <time>2015-10-02T08:40:40Z</time>
      </trkpt>
      <trkpt lat="47.47628" lon="6.68794">
        <ele>331.05</ele>
        <time>2015-10-02T08:40:41Z</time>
      </trkpt>
      <trkpt lat="47.47627" lon="6.68798">
        <ele>330.289</ele>
        <time>2015-10-02T08:40:42Z</time>
      </trkpt>
      <trkpt lat="47.47626" lon="6.68801">
        <ele>329.884</ele>
        <time>2015-10-02T08:40:43Z</time>
      </trkpt>
      <trkpt lat="47.47626" lon="6.68805">
        <ele>329.377</ele>
        <time>2015-10-02T08:40:44Z</time>
      </trkpt>
      <trkpt lat="47.47625" lon="6.68808">
        <ele>328.706</ele>
        <time>2015-10-02T08:40:45Z</time>
      </trkpt>
      <trkpt lat="47.47622" lon="6.68811">
        <ele>328.513</ele>
        <time>2015-10-02T08:40:46Z</time>
      </trkpt>
      <trkpt lat="47.47618" lon="6.68813">
        <ele>328.121</ele>
        <time>2015-10-02T08:40:47Z</time>
      </trkpt>
      <trkpt lat="47.47615" lon="6.68815">
        <ele>328.029</ele>
        <time>2015-10-02T08:40:48Z</time>
      </trkpt>
      <trkpt lat="47.4761" lon="6.68818">
        <ele>327.774</ele>
        <time>2015-10-02T08:40:49Z</time>
      </trkpt>
      <trkpt lat="47.47606" lon="6.68821">
        <ele>327.772</ele>
        <time>2015-10-02T08:40:50Z</time>
      </trkpt>
      <trkpt lat="47.47601" lon="6.68824">
        <ele>327.222</ele>
        <time>2015-10-02T08:40:51Z</time>
      </trkpt>
      <trkpt lat="47.47597" lon="6.68827">
        <ele>326.944</ele>
        <time>2015-10-02T08:40:52Z</time>
      </trkpt>
      <trkpt lat="47.47592" lon="6.6883">
        <ele>326.84</ele>
        <time>2015-10-02T08:40:53Z</time>
      </trkpt>
      <trkpt lat="47.47587" lon="6.68833">
        <ele>326.745</ele>
        <time>2015-10-02T08:40:54Z</time>
      </trkpt>
      <trkpt lat="47.47582" lon="6.68836">
        <ele>325.906</ele>
        <time>2015-10-02T08:40:55Z</time>
      </trkpt>
      <trkpt lat="47.47577" lon="6.68839">
        <ele>325.916</ele>
        <time>2015-10-02T08:40:56Z</time>
      </trkpt>
      <trkpt lat="47.47571" lon="6.68841">
        <ele>326.237</ele>
        <time>2015-10-02T08:40:57Z</time>
      </trkpt>
      <trkpt lat="47.47564" lon="6.68842">
        <ele>326.003</ele>
        <time>2015-10-02T08:40:58Z</time>
      </trkpt>
      <trkpt lat="47.47558" lon="6.68843">
        <ele>325.961</ele>
        <time>2015-10-02T08:40:59Z</time>
      </trkpt>
      <trkpt lat="47.47551" lon="6.68845">
        <ele>326.162</ele>
        <time>2015-10-02T08:41:00Z</time>
      </trkpt>
      <trkpt lat="47.47544" lon="6.68848">
        <ele>326.027</ele>
        <time>2015-10-02T08:41:01Z</time>
      </trkpt>
      <trkpt lat="47.47538" lon="6.6885">
        <ele>325.831</ele>
        <time>2015-10-02T08:41:02Z</time>
      </trkpt>
      <trkpt lat="47.47531" lon="6.68853">
        <ele>325.114</ele>
        <time>2015-10-02T08:41:03Z</time>
      </trkpt>
      <trkpt lat="47.47524" lon="6.68856">
        <ele>323.988</ele>
        <time>2015-10-02T08:41:04Z</time>
      </trkpt>
      <trkpt lat="47.47516" lon="6.68857">
        <ele>324.084</ele>
        <time>2015-10-02T08:41:05Z</time>
      </trkpt>
      <trkpt lat="47.47508" lon="6.68859">
        <ele>323.239</ele>
        <time>2015-10-02T08:41:06Z</time>
      </trkpt>
      <trkpt lat="47.47501" lon="6.6886">
        <ele>322.283</ele>
        <time>2015-10-02T08:41:07Z</time>
      </trkpt>
      <trkpt lat="47.47493" lon="6.6886">
        <ele>321.968</ele>
        <time>2015-10-02T08:41:08Z</time>
      </trkpt>
      <trkpt lat="47.47484" lon="6.68859">
        <ele>322.344</ele>
        <time>2015-10-02T08:41:09Z</time>
      </trkpt>
      <trkpt lat="47.47477" lon="6.68857">
        <ele>321.714</ele>
        <time>2015-10-02T08:41:10Z</time>
      </trkpt>
      <trkpt lat="47.47469" lon="6.68854">
        <ele>320.937</ele>
        <time>2015-10-02T08:41:11Z</time>
      </trkpt>
      <trkpt lat="47.47461" lon="6.68851">
        <ele>320.665</ele>
        <time>2015-10-02T08:41:12Z</time>
      </trkpt>
      <trkpt lat="47.47454" lon="6.68847">
        <ele>320.531</ele>
        <time>2015-10-02T08:41:13Z</time>
      </trkpt>
      <trkpt lat="47.47447" lon="6.68845">
        <ele>320.298</ele>
        <time>2015-10-02T08:41:14Z</time>
      </trkpt>
      <trkpt lat="47.47439" lon="6.68848">
        <ele>320.033</ele>
        <time>2015-10-02T08:41:15Z</time>
      </trkpt>
      <trkpt lat="47.47433" lon="6.68854">
        <ele>319.783</ele>
        <time>2015-10-02T08:41:16Z</time>
      </trkpt>
      <trkpt lat="47.47429" lon="6.68862">
        <ele>319.684</ele>
        <time>2015-10-02T08:41:17Z</time>
      </trkpt>
      <trkpt lat="47.47425" lon="6.6887">
        <ele>319.013</ele>
        <time>2015-10-02T08:41:18Z</time>
      </trkpt>
      <trkpt lat="47.4742" lon="6.68878">
        <ele>318.216</ele>
        <time>2015-10-02T08:41:19Z</time>
      </trkpt>
      <trkpt lat="47.47415" lon="6.68884">
        <ele>318.054</ele>
        <time>2015-10-02T08:41:20Z</time>
      </trkpt>
      <trkpt lat="47.4741" lon="6.68892">
        <ele>318.319</ele>
        <time>2015-10-02T08:41:21Z</time>
      </trkpt>
      <trkpt lat="47.47404" lon="6.68898">
        <ele>317.589</ele>
        <time>2015-10-02T08:41:22Z</time>
      </trkpt>
      <trkpt lat="47.47398" lon="6.68905">
        <ele>317.134</ele>
        <time>2015-10-02T08:41:23Z</time>
      </trkpt>
      <trkpt lat="47.47392" lon="6.68911">
        <ele>316.412</ele>
        <time>2015-10-02T08:41:24Z</time>
      </trkpt>
      <trkpt lat="47.47386" lon="6.68919">
        <ele>315.943</ele>
        <time>2015-10-02T08:41:25Z</time>
      </trkpt>
      <trkpt lat="47.4738" lon="6.68926">
        <ele>315.282</ele>
        <time>2015-10-02T08:41:26Z</time>
      </trkpt>
      <trkpt lat="47.47374" lon="6.68934">
        <ele>314.77</ele>
        <time>2015-10-02T08:41:27Z</time>
      </trkpt>
      <trkpt lat="47.47368" lon="6.68941">
        <ele>314.702</ele>
        <time>2015-10-02T08:41:28Z</time>
      </trkpt>
      <trkpt lat="47.47362" lon="6.68948">
        <ele>314.212</ele>
        <time>2015-10-02T08:41:29Z</time>
      </trkpt>
      <trkpt lat="47.47356" lon="6.68956">
        <ele>313.615</ele>
        <time>2015-10-02T08:41:30Z</time>
      </trkpt>
      <trkpt lat="47.47351" lon="6.68963">
        <ele>313.323</ele>
        <time>2015-10-02T08:41:31Z</time>
      </trkpt>
      <trkpt lat="47.47345" lon="6.6897">
        <ele>312.57</ele>
        <time>2015-10-02T08:41:32Z</time>
      </trkpt>
      <trkpt lat="47.4734" lon="6.68978">
        <ele>312.639</ele>
        <time>2015-10-02T08:41:33Z</time>
      </trkpt>
      <trkpt lat="47.47336" lon="6.68987">
        <ele>312.529</ele>
        <time>2015-10-02T08:41:34Z</time>
      </trkpt>
      <trkpt lat="47.47332" lon="6.68996">
        <ele>312.033</ele>
        <time>2015-10-02T08:41:35Z</time>
      </trkpt>
      <trkpt lat="47.47329" lon="6.69006">
        <ele>311.839</ele>
        <time>2015-10-02T08:41:36Z</time>
      </trkpt>
      <trkpt lat="47.47327" lon="6.69016">
        <ele>311.621</ele>
        <time>2015-10-02T08:41:37Z</time>
      </trkpt>
      <trkpt lat="47.47324" lon="6.69025">
        <ele>311.493</ele>
        <time>2015-10-02T08:41:38Z</time>
      </trkpt>
      <trkpt lat="47.47322" lon="6.69033">
        <ele>311.011</ele>
        <time>2015-10-02T08:41:39Z</time>
      </trkpt>
      <trkpt lat="47.47319" lon="6.69042">
        <ele>310.636</ele>
        <time>2015-10-02T08:41:40Z</time>
      </trkpt>
      <trkpt lat="47.47317" lon="6.6905">
        <ele>310.22</ele>
        <time>2015-10-02T08:41:41Z</time>
      </trkpt>
      <trkpt lat="47.47315" lon="6.69058">
        <ele>309.961</ele>
        <time>2015-10-02T08:41:42Z</time>
      </trkpt>
      <trkpt lat="47.47313" lon="6.69066">
        <ele>309.871</ele>
        <time>2015-10-02T08:41:43Z</time>
      </trkpt>
      <trkpt lat="47.4731" lon="6.69073">
        <ele>310.542</ele>
        <time>2015-10-02T08:41:44Z</time>
      </trkpt>
      <trkpt lat="47.47307" lon="6.69081">
        <ele>310.731</ele>
        <time>2015-10-02T08:41:45Z</time>
      </trkpt>
      <trkpt lat="47.47304" lon="6.69087">
        <ele>311.037</ele>
        <time>2015-10-02T08:41:46Z</time>
      </trkpt>
      <trkpt lat="47.47301" lon="6.69092">
        <ele>311.634</ele>
        <time>2015-10-02T08:41:47Z</time>
      </trkpt>
      <trkpt lat="47.47297" lon="6.69096">
        <ele>310.85</ele>
        <time>2015-10-02T08:41:48Z</time>
      </trkpt>
      <trkpt lat="47.47293" lon="6.69098">
        <ele>310.517</ele>
        <time>2015-10-02T08:41:49Z</time>
      </trkpt>
      <trkpt lat="47.4729" lon="6.691">
        <ele>310.555</ele>
        <time>2015-10-02T08:41:50Z</time>
      </trkpt>
      <trkpt lat="47.47288" lon="6.691">
        <ele>310.48</ele>
        <time>2015-10-02T08:41:51Z</time>
      </trkpt>
      <trkpt lat="47.47285" lon="6.69099">
        <ele>309.984</ele>
        <time>2015-10-02T08:41:52Z</time>
      </trkpt>
      <trkpt lat="47.47283" lon="6.69096">
        <ele>309.982</ele>
        <time>2015-10-02T08:41:53Z</time>
      </trkpt>
      <trkpt lat="47.47282" lon="6.69093">
        <ele>309.403</ele>
        <time>2015-10-02T08:41:54Z</time>
      </trkpt>
      <trkpt lat="47.4728" lon="6.69089">
        <ele>309.21</ele>
        <time>2015-10-02T08:41:55Z</time>
      </trkpt>
      <trkpt lat="47.47278" lon="6.69086">
        <ele>309.503</ele>
        <time>2015-10-02T08:41:56Z</time>
      </trkpt>
      <trkpt lat="47.47275" lon="6.69081">
        <ele>309.176</ele>
        <time>2015-10-02T08:41:57Z</time>
      </trkpt>
      <trkpt lat="47.47272" lon="6.69077">
        <ele>309.306</ele>
        <time>2015-10-02T08:41:58Z</time>
      </trkpt>
      <trkpt lat="47.4727" lon="6.69073">
        <ele>309.15</ele>
        <time>2015-10-02T08:41:59Z</time>
      </trkpt>
      <trkpt lat="47.47268" lon="6.69069">
        <ele>309.505</ele>
        <time>2015-10-02T08:42:00Z</time>
      </trkpt>
      <trkpt lat="47.47266" lon="6.69065">
        <ele>309.833</ele>
        <time>2015-10-02T08:42:01Z</time>
      </trkpt>
      <trkpt lat="47.47264" lon="6.6906">
        <ele>309.326</ele>
        <time>2015-10-02T08:42:02Z</time>
      </trkpt>
      <trkpt lat="47.47262" lon="6.69056">
        <ele>309.462</ele>
        <time>2015-10-02T08:42:03Z</time>
      </trkpt>
      <trkpt lat="47.4726" lon="6.69053">
        <ele>309.643</ele>
        <time>2015-10-02T08:42:04Z</time>
      </trkpt>
      <trkpt lat="47.4726" lon="6.69051">
        <ele>309.091</ele>
        <time>2015-10-02T08:42:05Z</time>
      </trkpt>
      <trkpt lat="47.47258" lon="6.69054">
        <ele>308.54</ele>
        <time>2015-10-02T08:42:17Z</time>
      </trkpt>
      <trkpt lat="47.47257" lon="6.69052">
        <ele>308.79</ele>
        <time>2015-10-02T08:42:18Z</time>
      </trkpt>
      <trkpt lat="47.47256" lon="6.6905">
        <ele>309.245</ele>
        <time>2015-10-02T08:42:19Z</time>
      </trkpt>
      <trkpt lat="47.47255" lon="6.69048">
        <ele>309.448</ele>
        <time>2015-10-02T08:42:20Z</time>
      </trkpt>
      <trkpt lat="47.47254" lon="6.69045">
        <ele>309.818</ele>
        <time>2015-10-02T08:42:21Z</time>
      </trkpt>
      <trkpt lat="47.47252" lon="6.69041">
        <ele>310.113</ele>
        <time>2015-10-02T08:42:22Z</time>
      </trkpt>
      <trkpt lat="47.4725" lon="6.69037">
        <ele>309.837</ele>
        <time>2015-10-02T08:42:23Z</time>
      </trkpt>
      <trkpt lat="47.47248" lon="6.69032">
        <ele>310.302</ele>
        <time>2015-10-02T08:42:24Z</time>
      </trkpt>
      <trkpt lat="47.47246" lon="6.69027">
        <ele>310.131</ele>
        <time>2015-10-02T08:42:25Z</time>
      </trkpt>
      <trkpt lat="47.47243" lon="6.69022">
        <ele>310.378</ele>
        <time>2015-10-02T08:42:26Z</time>
      </trkpt>
      <trkpt lat="47.47241" lon="6.69017">
        <ele>310.476</ele>
        <time>2015-10-02T08:42:27Z</time>
      </trkpt>
      <trkpt lat="47.47238" lon="6.69011">
        <ele>310.324</ele>
        <time>2015-10-02T08:42:28Z</time>
      </trkpt>
      <trkpt lat="47.47235" lon="6.69006">
        <ele>309.947</ele>
        <time>2015-10-02T08:42:29Z</time>
      </trkpt>
      <trkpt lat="47.47232" lon="6.69001">
        <ele>310.102</ele>
        <time>2015-10-02T08:42:30Z</time>
      </trkpt>
      <trkpt lat="47.47229" lon="6.68995">
        <ele>310.109</ele>
        <time>2015-10-02T08:42:31Z</time>
      </trkpt>
      <trkpt lat="47.47227" lon="6.6899">
        <ele>310.163</ele>
        <time>2015-10-02T08:42:32Z</time>
      </trkpt>
      <trkpt lat="47.47224" lon="6.68985">
        <ele>310.339</ele>
        <time>2015-10-02T08:42:33Z</time>
      </trkpt>
      <trkpt lat="47.47221" lon="6.6898">
        <ele>309.977</ele>
        <time>2015-10-02T08:42:34Z</time>
      </trkpt>
      <trkpt lat="47.47218" lon="6.68975">
        <ele>310.061</ele>
        <time>2015-10-02T08:42:35Z</time>
      </trkpt>
      <trkpt lat="47.47215" lon="6.68969">
        <ele>310.33</ele>
        <time>2015-10-02T08:42:36Z</time>
      </trkpt>
      <trkpt lat="47.47213" lon="6.68964">
        <ele>310.919</ele>
        <time>2015-10-02T08:42:37Z</time>
      </trkpt>
      <trkpt lat="47.4721" lon="6.68958">
        <ele>311.312</ele>
        <time>2015-10-02T08:42:38Z</time>
      </trkpt>
      <trkpt lat="47.47207" lon="6.68953">
        <ele>312.247</ele>
        <time>2015-10-02T08:42:39Z</time>
      </trkpt>
      <trkpt lat="47.47204" lon="6.68947">
        <ele>312.318</ele>
        <time>2015-10-02T08:42:40Z</time>
      </trkpt>
      <trkpt lat="47.472" lon="6.68942">
        <ele>311.928</ele>
        <time>2015-10-02T08:42:41Z</time>
      </trkpt>
      <trkpt lat="47.47197" lon="6.68937">
        <ele>311.292</ele>
        <time>2015-10-02T08:42:42Z</time>
      </trkpt>
      <trkpt lat="47.47194" lon="6.68932">
        <ele>311.32</ele>
        <time>2015-10-02T08:42:43Z</time>
      </trkpt>
      <trkpt lat="47.47191" lon="6.68926">
        <ele>311.298</ele>
        <time>2015-10-02T08:42:44Z</time>
      </trkpt>
      <trkpt lat="47.47188" lon="6.6892">
        <ele>311.332</ele>
        <time>2015-10-02T08:42:45Z</time>
      </trkpt>
      <trkpt lat="47.47186" lon="6.68915">
        <ele>311</ele>
        <time>2015-10-02T08:42:46Z</time>
      </trkpt>
      <trkpt lat="47.47183" lon="6.68911">
        <ele>311.226</ele>
        <time>2015-10-02T08:42:47Z</time>
      </trkpt>
      <trkpt lat="47.4718" lon="6.68907">
        <ele>312.156</ele>
        <time>2015-10-02T08:42:48Z</time>
      </trkpt>
      <trkpt lat="47.47177" lon="6.68903">
        <ele>313.03</ele>
        <time>2015-10-02T08:42:49Z</time>
      </trkpt>
      <trkpt lat="47.47174" lon="6.68899">
        <ele>312.542</ele>
        <time>2015-10-02T08:42:50Z</time>
      </trkpt>
      <trkpt lat="47.47171" lon="6.68894">
        <ele>315.715</ele>
        <time>2015-10-02T08:42:51Z</time>
      </trkpt>
      <trkpt lat="47.47168" lon="6.68889">
        <ele>316.316</ele>
        <time>2015-10-02T08:42:52Z</time>
      </trkpt>
      <trkpt lat="47.47164" lon="6.68884">
        <ele>317.102</ele>
        <time>2015-10-02T08:42:53Z</time>
      </trkpt>
      <trkpt lat="47.47161" lon="6.68879">
        <ele>316.68</ele>
        <time>2015-10-02T08:42:54Z</time>
      </trkpt>
      <trkpt lat="47.47157" lon="6.68874">
        <ele>316.124</ele>
        <time>2015-10-02T08:42:55Z</time>
      </trkpt>
      <trkpt lat="47.47154" lon="6.68869">
        <ele>315.355</ele>
        <time>2015-10-02T08:42:56Z</time>
      </trkpt>
      <trkpt lat="47.4715" lon="6.68865">
        <ele>314.853</ele>
        <time>2015-10-02T08:42:57Z</time>
      </trkpt>
      <trkpt lat="47.47145" lon="6.68861">
        <ele>315.052</ele>
        <time>2015-10-02T08:42:58Z</time>
      </trkpt>
      <trkpt lat="47.47141" lon="6.68857">
        <ele>314.751</ele>
        <time>2015-10-02T08:42:59Z</time>
      </trkpt>
      <trkpt lat="47.47137" lon="6.68854">
        <ele>313.924</ele>
        <time>2015-10-02T08:43:00Z</time>
      </trkpt>
      <trkpt lat="47.47133" lon="6.68849">
        <ele>314.371</ele>
        <time>2015-10-02T08:43:01Z</time>
      </trkpt>
      <trkpt lat="47.47129" lon="6.68845">
        <ele>314.817</ele>
        <time>2015-10-02T08:43:02Z</time>
      </trkpt>
      <trkpt lat="47.47125" lon="6.68842">
        <ele>315.437</ele>
        <time>2015-10-02T08:43:03Z</time>
      </trkpt>
      <trkpt lat="47.47122" lon="6.68838">
        <ele>315.206</ele>
        <time>2015-10-02T08:43:04Z</time>
      </trkpt>
      <trkpt lat="47.47118" lon="6.68834">
        <ele>315.457</ele>
        <time>2015-10-02T08:43:05Z</time>
      </trkpt>
      <trkpt lat="47.47115" lon="6.68829">
        <ele>315.28</ele>
        <time>2015-10-02T08:43:06Z</time>
      </trkpt>
      <trkpt lat="47.47111" lon="6.68824">
        <ele>314.794</ele>
        <time>2015-10-02T08:43:07Z</time>
      </trkpt>
      <trkpt lat="47.47108" lon="6.68819">
        <ele>314.21</ele>
        <time>2015-10-02T08:43:08Z</time>
      </trkpt>
      <trkpt lat="47.47104" lon="6.68815">
        <ele>313.459</ele>
        <time>2015-10-02T08:43:09Z</time>
      </trkpt>
      <trkpt lat="47.47102" lon="6.6881">
        <ele>312.996</ele>
        <time>2015-10-02T08:43:10Z</time>
      </trkpt>
      <trkpt lat="47.47099" lon="6.68806">
        <ele>313.931</ele>
        <time>2015-10-02T08:43:11Z</time>
      </trkpt>
      <trkpt lat="47.47096" lon="6.68802">
        <ele>314.346</ele>
        <time>2015-10-02T08:43:12Z</time>
      </trkpt>
      <trkpt lat="47.47094" lon="6.68798">
        <ele>315.213</ele>
        <time>2015-10-02T08:43:13Z</time>
      </trkpt>
      <trkpt lat="47.47091" lon="6.68793">
        <ele>315.353</ele>
        <time>2015-10-02T08:43:14Z</time>
      </trkpt>
      <trkpt lat="47.47088" lon="6.68789">
        <ele>315.462</ele>
        <time>2015-10-02T08:43:15Z</time>
      </trkpt>
      <trkpt lat="47.47085" lon="6.68784">
        <ele>315.489</ele>
        <time>2015-10-02T08:43:16Z</time>
      </trkpt>
      <trkpt lat="47.47082" lon="6.6878">
        <ele>315.51</ele>
        <time>2015-10-02T08:43:17Z</time>
      </trkpt>
      <trkpt lat="47.47079" lon="6.68775">
        <ele>315.814</ele>
        <time>2015-10-02T08:43:18Z</time>
      </trkpt>
      <trkpt lat="47.47076" lon="6.6877">
        <ele>315.236</ele>
        <time>2015-10-02T08:43:19Z</time>
      </trkpt>
      <trkpt lat="47.47072" lon="6.68765">
        <ele>314.465</ele>
        <time>2015-10-02T08:43:20Z</time>
      </trkpt>
      <trkpt lat="47.47069" lon="6.68761">
        <ele>314.039</ele>
        <time>2015-10-02T08:43:21Z</time>
      </trkpt>
      <trkpt lat="47.47067" lon="6.68756">
        <ele>314.187</ele>
        <time>2015-10-02T08:43:22Z</time>
      </trkpt>
      <trkpt lat="47.47064" lon="6.6875">
        <ele>313.16</ele>
        <time>2015-10-02T08:43:23Z</time>
      </trkpt>
      <trkpt lat="47.47062" lon="6.68745">
        <ele>313.51</ele>
        <time>2015-10-02T08:43:24Z</time>
      </trkpt>
      <trkpt lat="47.47058" lon="6.6874">
        <ele>313.266</ele>
        <time>2015-10-02T08:43:25Z</time>
      </trkpt>
      <trkpt lat="47.47054" lon="6.68735">
        <ele>312.708</ele>
        <time>2015-10-02T08:43:26Z</time>
      </trkpt>
      <trkpt lat="47.47051" lon="6.6873">
        <ele>312.516</ele>
        <time>2015-10-02T08:43:27Z</time>
      </trkpt>
      <trkpt lat="47.47047" lon="6.68725">
        <ele>312.194</ele>
        <time>2015-10-02T08:43:28Z</time>
      </trkpt>
      <trkpt lat="47.47043" lon="6.6872">
        <ele>312.399</ele>
        <time>2015-10-02T08:43:29Z</time>
      </trkpt>
      <trkpt lat="47.47039" lon="6.68715">
        <ele>312.88</ele>
        <time>2015-10-02T08:43:30Z</time>
      </trkpt>
      <trkpt lat="47.47034" lon="6.68711">
        <ele>312.66</ele>
        <time>2015-10-02T08:43:31Z</time>
      </trkpt>
      <trkpt lat="47.4703" lon="6.68706">
        <ele>313.377</ele>
        <time>2015-10-02T08:43:32Z</time>
      </trkpt>
      <trkpt lat="47.47026" lon="6.68701">
        <ele>313.799</ele>
        <time>2015-10-02T08:43:33Z</time>
      </trkpt>
      <trkpt lat="47.47021" lon="6.68697">
        <ele>313.48</ele>
        <time>2015-10-02T08:43:34Z</time>
      </trkpt>
      <trkpt lat="47.47017" lon="6.68691">
        <ele>312.181</ele>
        <time>2015-10-02T08:43:35Z</time>
      </trkpt>
      <trkpt lat="47.47013" lon="6.68686">
        <ele>311.693</ele>
        <time>2015-10-02T08:43:36Z</time>
      </trkpt>
      <trkpt lat="47.4701" lon="6.68682">
        <ele>311.917</ele>
        <time>2015-10-02T08:43:37Z</time>
      </trkpt>
      <trkpt lat="47.47006" lon="6.68676">
        <ele>312.279</ele>
        <time>2015-10-02T08:43:38Z</time>
      </trkpt>
      <trkpt lat="47.47003" lon="6.68669">
        <ele>312.496</ele>
        <time>2015-10-02T08:43:39Z</time>
      </trkpt>
      <trkpt lat="47.46999" lon="6.68664">
        <ele>311.843</ele>
        <time>2015-10-02T08:43:40Z</time>
      </trkpt>
      <trkpt lat="47.46996" lon="6.68658">
        <ele>311.439</ele>
        <time>2015-10-02T08:43:41Z</time>
      </trkpt>
      <trkpt lat="47.46993" lon="6.68652">
        <ele>311.238</ele>
        <time>2015-10-02T08:43:42Z</time>
      </trkpt>
      <trkpt lat="47.4699" lon="6.68647">
        <ele>311.5</ele>
        <time>2015-10-02T08:43:43Z</time>
      </trkpt>
      <trkpt lat="47.46987" lon="6.68642">
        <ele>311.174</ele>
        <time>2015-10-02T08:43:44Z</time>
      </trkpt>
      <trkpt lat="47.46984" lon="6.68637">
        <ele>310.559</ele>
        <time>2015-10-02T08:43:45Z</time>
      </trkpt>
      <trkpt lat="47.46981" lon="6.6863">
        <ele>310.074</ele>
        <time>2015-10-02T08:43:46Z</time>
      </trkpt>
      <trkpt lat="47.46978" lon="6.68625">
        <ele>310.404</ele>
        <time>2015-10-02T08:43:47Z</time>
      </trkpt>
      <trkpt lat="47.46974" lon="6.6862">
        <ele>310.138</ele>
        <time>2015-10-02T08:43:48Z</time>
      </trkpt>
      <trkpt lat="47.46971" lon="6.68615">
        <ele>310.278</ele>
        <time>2015-10-02T08:43:49Z</time>
      </trkpt>
      <trkpt lat="47.46969" lon="6.68609">
        <ele>309.041</ele>
        <time>2015-10-02T08:43:50Z</time>
      </trkpt>
      <trkpt lat="47.46967" lon="6.68604">
        <ele>308.947</ele>
        <time>2015-10-02T08:43:51Z</time>
      </trkpt>
      <trkpt lat="47.46963" lon="6.68601">
        <ele>311.51</ele>
        <time>2015-10-02T08:43:52Z</time>
      </trkpt>
      <trkpt lat="47.4696" lon="6.68596">
        <ele>312.213</ele>
        <time>2015-10-02T08:43:53Z</time>
      </trkpt>
      <trkpt lat="47.46957" lon="6.68588">
        <ele>310.385</ele>
        <time>2015-10-02T08:43:54Z</time>
      </trkpt>
      <trkpt lat="47.46954" lon="6.68582">
        <ele>309.854</ele>
        <time>2015-10-02T08:43:55Z</time>
      </trkpt>
      <trkpt lat="47.4695" lon="6.68578">
        <ele>311.177</ele>
        <time>2015-10-02T08:43:56Z</time>
      </trkpt>
      <trkpt lat="47.46946" lon="6.68574">
        <ele>310.249</ele>
        <time>2015-10-02T08:43:57Z</time>
      </trkpt>
      <trkpt lat="47.46942" lon="6.68571">
        <ele>310.755</ele>
        <time>2015-10-02T08:43:58Z</time>
      </trkpt>
      <trkpt lat="47.46937" lon="6.68566">
        <ele>311.446</ele>
        <time>2015-10-02T08:43:59Z</time>
      </trkpt>
      <trkpt lat="47.46933" lon="6.68562">
        <ele>312.15</ele>
        <time>2015-10-02T08:44:00Z</time>
      </trkpt>
      <trkpt lat="47.46929" lon="6.68557">
        <ele>311.956</ele>
        <time>2015-10-02T08:44:01Z</time>
      </trkpt>
      <trkpt lat="47.46926" lon="6.68553">
        <ele>312.001</ele>
        <time>2015-10-02T08:44:02Z</time>
      </trkpt>
      <trkpt lat="47.46923" lon="6.68548">
        <ele>312.617</ele>
        <time>2015-10-02T08:44:03Z</time>
      </trkpt>
      <trkpt lat="47.46919" lon="6.68544">
        <ele>313.595</ele>
        <time>2015-10-02T08:44:04Z</time>
      </trkpt>
      <trkpt lat="47.46915" lon="6.68541">
        <ele>313.74</ele>
        <time>2015-10-02T08:44:05Z</time>
      </trkpt>
      <trkpt lat="47.4691" lon="6.68539">
        <ele>313.58</ele>
        <time>2015-10-02T08:44:06Z</time>
      </trkpt>
      <trkpt lat="47.46904" lon="6.68533">
        <ele>312.903</ele>
        <time>2015-10-02T08:44:07Z</time>
      </trkpt>
      <trkpt lat="47.46898" lon="6.68528">
        <ele>311.982</ele>
        <time>2015-10-02T08:44:08Z</time>
      </trkpt>
      <trkpt lat="47.46893" lon="6.68524">
        <ele>311.721</ele>
        <time>2015-10-02T08:44:09Z</time>
      </trkpt>
      <trkpt lat="47.46889" lon="6.6852">
        <ele>312.078</ele>
        <time>2015-10-02T08:44:10Z</time>
      </trkpt>
      <trkpt lat="47.46885" lon="6.68517">
        <ele>312.815</ele>
        <time>2015-10-02T08:44:11Z</time>
      </trkpt>
      <trkpt lat="47.46881" lon="6.68512">
        <ele>312.542</ele>
        <time>2015-10-02T08:44:12Z</time>
      </trkpt>
      <trkpt lat="47.46877" lon="6.68507">
        <ele>312.174</ele>
        <time>2015-10-02T08:44:13Z</time>
      </trkpt>
      <trkpt lat="47.46872" lon="6.68503">
        <ele>312.019</ele>
        <time>2015-10-02T08:44:14Z</time>
      </trkpt>
      <trkpt lat="47.46867" lon="6.68498">
        <ele>311.91</ele>
        <time>2015-10-02T08:44:15Z</time>
      </trkpt>
      <trkpt lat="47.46863" lon="6.68494">
        <ele>312.135</ele>
        <time>2015-10-02T08:44:16Z</time>
      </trkpt>
      <trkpt lat="47.46858" lon="6.6849">
        <ele>312.148</ele>
        <time>2015-10-02T08:44:17Z</time>
      </trkpt>
      <trkpt lat="47.46853" lon="6.68485">
        <ele>312.511</ele>
        <time>2015-10-02T08:44:18Z</time>
      </trkpt>
      <trkpt lat="47.46849" lon="6.68481">
        <ele>312.451</ele>
        <time>2015-10-02T08:44:19Z</time>
      </trkpt>
      <trkpt lat="47.46845" lon="6.68476">
        <ele>312.514</ele>
        <time>2015-10-02T08:44:20Z</time>
      </trkpt>
      <trkpt lat="47.46841" lon="6.68471">
        <ele>312.623</ele>
        <time>2015-10-02T08:44:21Z</time>
      </trkpt>
      <trkpt lat="47.46836" lon="6.68467">
        <ele>312.503</ele>
        <time>2015-10-02T08:44:22Z</time>
      </trkpt>
      <trkpt lat="47.46832" lon="6.68463">
        <ele>313.13</ele>
        <time>2015-10-02T08:44:23Z</time>
      </trkpt>
      <trkpt lat="47.46828" lon="6.68458">
        <ele>312.532</ele>
        <time>2015-10-02T08:44:24Z</time>
      </trkpt>
      <trkpt lat="47.46823" lon="6.68454">
        <ele>312.529</ele>
        <time>2015-10-02T08:44:25Z</time>
      </trkpt>
      <trkpt lat="47.4682" lon="6.68448">
        <ele>312.643</ele>
        <time>2015-10-02T08:44:26Z</time>
      </trkpt>
      <trkpt lat="47.46816" lon="6.68443">
        <ele>312.767</ele>
        <time>2015-10-02T08:44:27Z</time>
      </trkpt>
      <trkpt lat="47.46812" lon="6.68439">
        <ele>312.92</ele>
        <time>2015-10-02T08:44:28Z</time>
      </trkpt>
      <trkpt lat="47.46808" lon="6.68434">
        <ele>313.016</ele>
        <time>2015-10-02T08:44:29Z</time>
      </trkpt>
      <trkpt lat="47.46803" lon="6.6843">
        <ele>311.919</ele>
        <time>2015-10-02T08:44:30Z</time>
      </trkpt>
      <trkpt lat="47.46799" lon="6.68425">
        <ele>311.816</ele>
        <time>2015-10-02T08:44:31Z</time>
      </trkpt>
      <trkpt lat="47.46796" lon="6.68421">
        <ele>312.54</ele>
        <time>2015-10-02T08:44:32Z</time>
      </trkpt>
      <trkpt lat="47.46792" lon="6.68417">
        <ele>312.415</ele>
        <time>2015-10-02T08:44:33Z</time>
      </trkpt>
      <trkpt lat="47.46789" lon="6.68413">
        <ele>313.795</ele>
        <time>2015-10-02T08:44:34Z</time>
      </trkpt>
      <trkpt lat="47.46785" lon="6.68408">
        <ele>313.347</ele>
        <time>2015-10-02T08:44:35Z</time>
      </trkpt>
      <trkpt lat="47.46781" lon="6.68404">
        <ele>314.078</ele>
        <time>2015-10-02T08:44:36Z</time>
      </trkpt>
      <trkpt lat="47.46777" lon="6.68399">
        <ele>313.48</ele>
        <time>2015-10-02T08:44:37Z</time>
      </trkpt>
      <trkpt lat="47.46773" lon="6.68395">
        <ele>313.107</ele>
        <time>2015-10-02T08:44:38Z</time>
      </trkpt>
      <trkpt lat="47.46769" lon="6.6839">
        <ele>313.449</ele>
        <time>2015-10-02T08:44:39Z</time>
      </trkpt>
      <trkpt lat="47.46766" lon="6.68385">
        <ele>313.862</ele>
        <time>2015-10-02T08:44:40Z</time>
      </trkpt>
      <trkpt lat="47.46762" lon="6.68381">
        <ele>313.395</ele>
        <time>2015-10-02T08:44:41Z</time>
      </trkpt>
      <trkpt lat="47.46758" lon="6.68377">
        <ele>313.364</ele>
        <time>2015-10-02T08:44:42Z</time>
      </trkpt>
      <trkpt lat="47.46755" lon="6.68373">
        <ele>313.627</ele>
        <time>2015-10-02T08:44:43Z</time>
      </trkpt>
      <trkpt lat="47.46751" lon="6.68369">
        <ele>313.498</ele>
        <time>2015-10-02T08:44:44Z</time>
      </trkpt>
      <trkpt lat="47.46747" lon="6.68367">
        <ele>313.482</ele>
        <time>2015-10-02T08:44:45Z</time>
      </trkpt>
      <trkpt lat="47.46745" lon="6.68365">
        <ele>312.742</ele>
        <time>2015-10-02T08:44:46Z</time>
      </trkpt>
      <trkpt lat="47.46742" lon="6.68361">
        <ele>312.618</ele>
        <time>2015-10-02T08:44:47Z</time>
      </trkpt>
      <trkpt lat="47.46738" lon="6.68359">
        <ele>311.982</ele>
        <time>2015-10-02T08:44:48Z</time>
      </trkpt>
      <trkpt lat="47.46735" lon="6.68356">
        <ele>311.595</ele>
        <time>2015-10-02T08:44:49Z</time>
      </trkpt>
      <trkpt lat="47.46732" lon="6.68352">
        <ele>312.126</ele>
        <time>2015-10-02T08:44:50Z</time>
      </trkpt>
      <trkpt lat="47.46729" lon="6.68349">
        <ele>311.603</ele>
        <time>2015-10-02T08:44:51Z</time>
      </trkpt>
      <trkpt lat="47.46726" lon="6.68346">
        <ele>311.747</ele>
        <time>2015-10-02T08:44:52Z</time>
      </trkpt>
      <trkpt lat="47.46723" lon="6.68342">
        <ele>311.409</ele>
        <time>2015-10-02T08:44:53Z</time>
      </trkpt>
      <trkpt lat="47.4672" lon="6.68339">
        <ele>312.176</ele>
        <time>2015-10-02T08:44:54Z</time>
      </trkpt>
      <trkpt lat="47.46718" lon="6.68336">
        <ele>312.431</ele>
        <time>2015-10-02T08:44:55Z</time>
      </trkpt>
      <trkpt lat="47.46715" lon="6.68333">
        <ele>311.423</ele>
        <time>2015-10-02T08:44:56Z</time>
      </trkpt>
      <trkpt lat="47.46714" lon="6.6833">
        <ele>311.092</ele>
        <time>2015-10-02T08:44:57Z</time>
      </trkpt>
      <trkpt lat="47.46711" lon="6.68327">
        <ele>311.029</ele>
        <time>2015-10-02T08:44:58Z</time>
      </trkpt>
      <trkpt lat="47.46709" lon="6.68324">
        <ele>309.82</ele>
        <time>2015-10-02T08:44:59Z</time>
      </trkpt>
      <trkpt lat="47.46706" lon="6.68321">
        <ele>309.327</ele>
        <time>2015-10-02T08:45:00Z</time>
      </trkpt>
      <trkpt lat="47.46702" lon="6.68318">
        <ele>310.505</ele>
        <time>2015-10-02T08:45:01Z</time>
      </trkpt>
      <trkpt lat="47.46699" lon="6.68315">
        <ele>309.526</ele>
        <time>2015-10-02T08:45:02Z</time>
      </trkpt>
      <trkpt lat="47.46695" lon="6.68312">
        <ele>309.282</ele>
        <time>2015-10-02T08:45:03Z</time>
      </trkpt>
      <trkpt lat="47.46692" lon="6.68308">
        <ele>310.391</ele>
        <time>2015-10-02T08:45:04Z</time>
      </trkpt>
      <trkpt lat="47.46689" lon="6.68305">
        <ele>311.871</ele>
        <time>2015-10-02T08:45:05Z</time>
      </trkpt>
      <trkpt lat="47.46685" lon="6.68302">
        <ele>313.399</ele>
        <time>2015-10-02T08:45:06Z</time>
      </trkpt>
      <trkpt lat="47.46682" lon="6.68298">
        <ele>312.996</ele>
        <time>2015-10-02T08:45:07Z</time>
      </trkpt>
      <trkpt lat="47.46679" lon="6.68295">
        <ele>311.849</ele>
        <time>2015-10-02T08:45:08Z</time>
      </trkpt>
      <trkpt lat="47.46676" lon="6.68291">
        <ele>311.853</ele>
        <time>2015-10-02T08:45:09Z</time>
      </trkpt>
      <trkpt lat="47.46673" lon="6.68288">
        <ele>313.676</ele>
        <time>2015-10-02T08:45:10Z</time>
      </trkpt>
      <trkpt lat="47.4667" lon="6.68285">
        <ele>311.898</ele>
        <time>2015-10-02T08:45:11Z</time>
      </trkpt>
      <trkpt lat="47.46666" lon="6.68281">
        <ele>310.263</ele>
        <time>2015-10-02T08:45:12Z</time>
      </trkpt>
      <trkpt lat="47.46663" lon="6.68278">
        <ele>311.86</ele>
        <time>2015-10-02T08:45:13Z</time>
      </trkpt>
      <trkpt lat="47.46659" lon="6.68274">
        <ele>311.964</ele>
        <time>2015-10-02T08:45:14Z</time>
      </trkpt>
      <trkpt lat="47.46656" lon="6.68271">
        <ele>311.834</ele>
        <time>2015-10-02T08:45:15Z</time>
      </trkpt>
      <trkpt lat="47.46652" lon="6.68268">
        <ele>311.269</ele>
        <time>2015-10-02T08:45:16Z</time>
      </trkpt>
      <trkpt lat="47.46649" lon="6.68264">
        <ele>311.209</ele>
        <time>2015-10-02T08:45:17Z</time>
      </trkpt>
      <trkpt lat="47.46645" lon="6.68261">
        <ele>311.437</ele>
        <time>2015-10-02T08:45:18Z</time>
      </trkpt>
      <trkpt lat="47.46641" lon="6.68258">
        <ele>312.122</ele>
        <time>2015-10-02T08:45:19Z</time>
      </trkpt>
      <trkpt lat="47.46637" lon="6.68255">
        <ele>312.378</ele>
        <time>2015-10-02T08:45:20Z</time>
      </trkpt>
      <trkpt lat="47.46633" lon="6.68253">
        <ele>312.045</ele>
        <time>2015-10-02T08:45:21Z</time>
      </trkpt>
      <trkpt lat="47.46629" lon="6.6825">
        <ele>311.921</ele>
        <time>2015-10-02T08:45:22Z</time>
      </trkpt>
      <trkpt lat="47.46625" lon="6.68247">
        <ele>313.576</ele>
        <time>2015-10-02T08:45:23Z</time>
      </trkpt>
      <trkpt lat="47.46622" lon="6.68245">
        <ele>313.681</ele>
        <time>2015-10-02T08:45:24Z</time>
      </trkpt>
      <trkpt lat="47.46618" lon="6.68242">
        <ele>313.008</ele>
        <time>2015-10-02T08:45:25Z</time>
      </trkpt>
      <trkpt lat="47.46615" lon="6.6824">
        <ele>314.125</ele>
        <time>2015-10-02T08:45:26Z</time>
      </trkpt>
      <trkpt lat="47.46612" lon="6.68238">
        <ele>314.358</ele>
        <time>2015-10-02T08:45:27Z</time>
      </trkpt>
      <trkpt lat="47.46609" lon="6.68235">
        <ele>314.587</ele>
        <time>2015-10-02T08:45:28Z</time>
      </trkpt>
      <trkpt lat="47.46606" lon="6.68233">
        <ele>315.079</ele>
        <time>2015-10-02T08:45:29Z</time>
      </trkpt>
      <trkpt lat="47.46603" lon="6.6823">
        <ele>315.325</ele>
        <time>2015-10-02T08:45:30Z</time>
      </trkpt>
      <trkpt lat="47.46599" lon="6.68228">
        <ele>315.303</ele>
        <time>2015-10-02T08:45:31Z</time>
      </trkpt>
      <trkpt lat="47.46596" lon="6.68227">
        <ele>315.184</ele>
        <time>2015-10-02T08:45:32Z</time>
      </trkpt>
      <trkpt lat="47.46593" lon="6.68225">
        <ele>315.268</ele>
        <time>2015-10-02T08:45:33Z</time>
      </trkpt>
      <trkpt lat="47.46589" lon="6.68223">
        <ele>315.912</ele>
        <time>2015-10-02T08:45:34Z</time>
      </trkpt>
      <trkpt lat="47.46586" lon="6.68221">
        <ele>315.949</ele>
        <time>2015-10-02T08:45:35Z</time>
      </trkpt>
      <trkpt lat="47.46582" lon="6.68218">
        <ele>315.684</ele>
        <time>2015-10-02T08:45:36Z</time>
      </trkpt>
      <trkpt lat="47.46579" lon="6.68216">
        <ele>315.814</ele>
        <time>2015-10-02T08:45:37Z</time>
      </trkpt>
      <trkpt lat="47.46576" lon="6.68214">
        <ele>317.53</ele>
        <time>2015-10-02T08:45:38Z</time>
      </trkpt>
      <trkpt lat="47.46572" lon="6.68211">
        <ele>318.385</ele>
        <time>2015-10-02T08:45:39Z</time>
      </trkpt>
      <trkpt lat="47.46569" lon="6.68208">
        <ele>318.653</ele>
        <time>2015-10-02T08:45:40Z</time>
      </trkpt>
      <trkpt lat="47.46566" lon="6.68206">
        <ele>319.587</ele>
        <time>2015-10-02T08:45:41Z</time>
      </trkpt>
      <trkpt lat="47.46563" lon="6.68204">
        <ele>320.098</ele>
        <time>2015-10-02T08:45:42Z</time>
      </trkpt>
      <trkpt lat="47.46561" lon="6.68202">
        <ele>321.79</ele>
        <time>2015-10-02T08:45:43Z</time>
      </trkpt>
      <trkpt lat="47.46558" lon="6.682">
        <ele>322.374</ele>
        <time>2015-10-02T08:45:44Z</time>
      </trkpt>
      <trkpt lat="47.46554" lon="6.68198">
        <ele>322.545</ele>
        <time>2015-10-02T08:45:45Z</time>
      </trkpt>
      <trkpt lat="47.46551" lon="6.68196">
        <ele>322.028</ele>
        <time>2015-10-02T08:45:46Z</time>
      </trkpt>
      <trkpt lat="47.46548" lon="6.68194">
        <ele>322.04</ele>
        <time>2015-10-02T08:45:47Z</time>
      </trkpt>
      <trkpt lat="47.46545" lon="6.68192">
        <ele>322.444</ele>
        <time>2015-10-02T08:45:48Z</time>
      </trkpt>
      <trkpt lat="47.46542" lon="6.68191">
        <ele>322.527</ele>
        <time>2015-10-02T08:45:49Z</time>
      </trkpt>
      <trkpt lat="47.46539" lon="6.68189">
        <ele>322.495</ele>
        <time>2015-10-02T08:45:50Z</time>
      </trkpt>
      <trkpt lat="47.46536" lon="6.68188">
        <ele>322.798</ele>
        <time>2015-10-02T08:45:51Z</time>
      </trkpt>
      <trkpt lat="47.46533" lon="6.68186">
        <ele>323.338</ele>
        <time>2015-10-02T08:45:52Z</time>
      </trkpt>
      <trkpt lat="47.46531" lon="6.68185">
        <ele>325.479</ele>
        <time>2015-10-02T08:45:53Z</time>
      </trkpt>
      <trkpt lat="47.4653" lon="6.68184">
        <ele>325.923</ele>
        <time>2015-10-02T08:45:54Z</time>
      </trkpt>
      <trkpt lat="47.46528" lon="6.68182">
        <ele>327.119</ele>
        <time>2015-10-02T08:45:55Z</time>
      </trkpt>
      <trkpt lat="47.46525" lon="6.6818">
        <ele>327.506</ele>
        <time>2015-10-02T08:45:56Z</time>
      </trkpt>
      <trkpt lat="47.46523" lon="6.68179">
        <ele>326.662</ele>
        <time>2015-10-02T08:45:57Z</time>
      </trkpt>
      <trkpt lat="47.4652" lon="6.68177">
        <ele>325.093</ele>
        <time>2015-10-02T08:45:58Z</time>
      </trkpt>
      <trkpt lat="47.46516" lon="6.68176">
        <ele>324.033</ele>
        <time>2015-10-02T08:45:59Z</time>
      </trkpt>
      <trkpt lat="47.46512" lon="6.68174">
        <ele>323.15</ele>
        <time>2015-10-02T08:46:00Z</time>
      </trkpt>
      <trkpt lat="47.46507" lon="6.68173">
        <ele>322.832</ele>
        <time>2015-10-02T08:46:01Z</time>
      </trkpt>
      <trkpt lat="47.46502" lon="6.68172">
        <ele>322.73</ele>
        <time>2015-10-02T08:46:02Z</time>
      </trkpt>
      <trkpt lat="47.4649" lon="6.68169">
        <ele>322.147</ele>
        <time>2015-10-02T08:46:03Z</time>
      </trkpt>
      <trkpt lat="47.46485" lon="6.68169">
        <ele>322.698</ele>
        <time>2015-10-02T08:46:04Z</time>
      </trkpt>
      <trkpt lat="47.4648" lon="6.68168">
        <ele>323.149</ele>
        <time>2015-10-02T08:46:05Z</time>
      </trkpt>
      <trkpt lat="47.46473" lon="6.68166">
        <ele>321.761</ele>
        <time>2015-10-02T08:46:06Z</time>
      </trkpt>
      <trkpt lat="47.46467" lon="6.68165">
        <ele>321.827</ele>
        <time>2015-10-02T08:46:07Z</time>
      </trkpt>
      <trkpt lat="47.46462" lon="6.68162">
        <ele>322.322</ele>
        <time>2015-10-02T08:46:08Z</time>
      </trkpt>
      <trkpt lat="47.46456" lon="6.68161">
        <ele>322.737</ele>
        <time>2015-10-02T08:46:09Z</time>
      </trkpt>
      <trkpt lat="47.4645" lon="6.68159">
        <ele>323.107</ele>
        <time>2015-10-02T08:46:10Z</time>
      </trkpt>
      <trkpt lat="47.46444" lon="6.68158">
        <ele>323.266</ele>
        <time>2015-10-02T08:46:11Z</time>
      </trkpt>
      <trkpt lat="47.46439" lon="6.68156">
        <ele>323.521</ele>
        <time>2015-10-02T08:46:12Z</time>
      </trkpt>
      <trkpt lat="47.46431" lon="6.68153">
        <ele>323.381</ele>
        <time>2015-10-02T08:46:13Z</time>
      </trkpt>
      <trkpt lat="47.46425" lon="6.68151">
        <ele>323.471</ele>
        <time>2015-10-02T08:46:14Z</time>
      </trkpt>
      <trkpt lat="47.46417" lon="6.68149">
        <ele>323.052</ele>
        <time>2015-10-02T08:46:15Z</time>
      </trkpt>
      <trkpt lat="47.46412" lon="6.68148">
        <ele>323.008</ele>
        <time>2015-10-02T08:46:16Z</time>
      </trkpt>
      <trkpt lat="47.46405" lon="6.68147">
        <ele>323.371</ele>
        <time>2015-10-02T08:46:17Z</time>
      </trkpt>
      <trkpt lat="47.46396" lon="6.68145">
        <ele>323.215</ele>
        <time>2015-10-02T08:46:18Z</time>
      </trkpt>
      <trkpt lat="47.46386" lon="6.68141">
        <ele>320.148</ele>
        <time>2015-10-02T08:46:19Z</time>
      </trkpt>
      <trkpt lat="47.4638" lon="6.68138">
        <ele>322.728</ele>
        <time>2015-10-02T08:46:20Z</time>
      </trkpt>
      <trkpt lat="47.46373" lon="6.68139">
        <ele>324.106</ele>
        <time>2015-10-02T08:46:21Z</time>
      </trkpt>
      <trkpt lat="47.46362" lon="6.68141">
        <ele>321.252</ele>
        <time>2015-10-02T08:46:22Z</time>
      </trkpt>
      <trkpt lat="47.46352" lon="6.68143">
        <ele>321.154</ele>
        <time>2015-10-02T08:46:23Z</time>
      </trkpt>
      <trkpt lat="47.46341" lon="6.68145">
        <ele>321.22</ele>
        <time>2015-10-02T08:46:24Z</time>
      </trkpt>
      <trkpt lat="47.46333" lon="6.68149">
        <ele>321.509</ele>
        <time>2015-10-02T08:46:25Z</time>
      </trkpt>
      <trkpt lat="47.46323" lon="6.68154">
        <ele>321.037</ele>
        <time>2015-10-02T08:46:26Z</time>
      </trkpt>
      <trkpt lat="47.46314" lon="6.68157">
        <ele>320.471</ele>
        <time>2015-10-02T08:46:27Z</time>
      </trkpt>
      <trkpt lat="47.46304" lon="6.68161">
        <ele>319.592</ele>
        <time>2015-10-02T08:46:28Z</time>
      </trkpt>
      <trkpt lat="47.46295" lon="6.68165">
        <ele>319.502</ele>
        <time>2015-10-02T08:46:29Z</time>
      </trkpt>
      <trkpt lat="47.46285" lon="6.68168">
        <ele>319.121</ele>
        <time>2015-10-02T08:46:30Z</time>
      </trkpt>
      <trkpt lat="47.46278" lon="6.68173">
        <ele>318.349</ele>
        <time>2015-10-02T08:46:31Z</time>
      </trkpt>
      <trkpt lat="47.4627" lon="6.68179">
        <ele>316.146</ele>
        <time>2015-10-02T08:46:32Z</time>
      </trkpt>
      <trkpt lat="47.46262" lon="6.6818">
        <ele>315.79</ele>
        <time>2015-10-02T08:46:33Z</time>
      </trkpt>
      <trkpt lat="47.46253" lon="6.68177">
        <ele>316.74</ele>
        <time>2015-10-02T08:46:34Z</time>
      </trkpt>
      <trkpt lat="47.46245" lon="6.68175">
        <ele>316.495</ele>
        <time>2015-10-02T08:46:35Z</time>
      </trkpt>
      <trkpt lat="47.46238" lon="6.68176">
        <ele>316.023</ele>
        <time>2015-10-02T08:46:36Z</time>
      </trkpt>
      <trkpt lat="47.4623" lon="6.68175">
        <ele>315.947</ele>
        <time>2015-10-02T08:46:37Z</time>
      </trkpt>
      <trkpt lat="47.46222" lon="6.68173">
        <ele>315.724</ele>
        <time>2015-10-02T08:46:38Z</time>
      </trkpt>
      <trkpt lat="47.46214" lon="6.68171">
        <ele>315.791</ele>
        <time>2015-10-02T08:46:39Z</time>
      </trkpt>
      <trkpt lat="47.46206" lon="6.6817">
        <ele>315.465</ele>
        <time>2015-10-02T08:46:40Z</time>
      </trkpt>
      <trkpt lat="47.46197" lon="6.68167">
        <ele>314.892</ele>
        <time>2015-10-02T08:46:41Z</time>
      </trkpt>
      <trkpt lat="47.46189" lon="6.68168">
        <ele>314.96</ele>
        <time>2015-10-02T08:46:42Z</time>
      </trkpt>
      <trkpt lat="47.46182" lon="6.68169">
        <ele>314.078</ele>
        <time>2015-10-02T08:46:43Z</time>
      </trkpt>
      <trkpt lat="47.46179" lon="6.6817">
        <ele>315.442</ele>
        <time>2015-10-02T08:46:44Z</time>
      </trkpt>
      <trkpt lat="47.4617" lon="6.68171">
        <ele>313.534</ele>
        <time>2015-10-02T08:46:45Z</time>
      </trkpt>
      <trkpt lat="47.46167" lon="6.68171">
        <ele>314.046</ele>
        <time>2015-10-02T08:46:46Z</time>
      </trkpt>
      <trkpt lat="47.46158" lon="6.68171">
        <ele>312.029</ele>
        <time>2015-10-02T08:46:47Z</time>
      </trkpt>
      <trkpt lat="47.46149" lon="6.6817">
        <ele>308.693</ele>
        <time>2015-10-02T08:46:48Z</time>
      </trkpt>
      <trkpt lat="47.46142" lon="6.6817">
        <ele>307.465</ele>
        <time>2015-10-02T08:46:49Z</time>
      </trkpt>
      <trkpt lat="47.46136" lon="6.68172">
        <ele>307.74</ele>
        <time>2015-10-02T08:46:50Z</time>
      </trkpt>
      <trkpt lat="47.4613" lon="6.68172">
        <ele>307.997</ele>
        <time>2015-10-02T08:46:51Z</time>
      </trkpt>
      <trkpt lat="47.46124" lon="6.68172">
        <ele>307.429</ele>
        <time>2015-10-02T08:46:52Z</time>
      </trkpt>
      <trkpt lat="47.46118" lon="6.68175">
        <ele>307.917</ele>
        <time>2015-10-02T08:46:53Z</time>
      </trkpt>
      <trkpt lat="47.46112" lon="6.68176">
        <ele>308.727</ele>
        <time>2015-10-02T08:46:54Z</time>
      </trkpt>
      <trkpt lat="47.46108" lon="6.68176">
        <ele>307.604</ele>
        <time>2015-10-02T08:46:55Z</time>
      </trkpt>
      <trkpt lat="47.46102" lon="6.68175">
        <ele>306.535</ele>
        <time>2015-10-02T08:46:56Z</time>
      </trkpt>
      <trkpt lat="47.46097" lon="6.68175">
        <ele>305.743</ele>
        <time>2015-10-02T08:46:57Z</time>
      </trkpt>
      <trkpt lat="47.46091" lon="6.68176">
        <ele>304.86</ele>
        <time>2015-10-02T08:46:58Z</time>
      </trkpt>
      <trkpt lat="47.46085" lon="6.68177">
        <ele>304.875</ele>
        <time>2015-10-02T08:46:59Z</time>
      </trkpt>
      <trkpt lat="47.46082" lon="6.68177">
        <ele>306.142</ele>
        <time>2015-10-02T08:47:00Z</time>
      </trkpt>
      <trkpt lat="47.46077" lon="6.68176">
        <ele>307.53</ele>
        <time>2015-10-02T08:47:01Z</time>
      </trkpt>
      <trkpt lat="47.46075" lon="6.68178">
        <ele>309.528</ele>
        <time>2015-10-02T08:47:02Z</time>
      </trkpt>
      <trkpt lat="47.46072" lon="6.68179">
        <ele>310.57</ele>
        <time>2015-10-02T08:47:03Z</time>
      </trkpt>
      <trkpt lat="47.46067" lon="6.6818">
        <ele>309.923</ele>
        <time>2015-10-02T08:47:04Z</time>
      </trkpt>
      <trkpt lat="47.46063" lon="6.6818">
        <ele>310.613</ele>
        <time>2015-10-02T08:47:05Z</time>
      </trkpt>
      <trkpt lat="47.46056" lon="6.68181">
        <ele>310.366</ele>
        <time>2015-10-02T08:47:06Z</time>
      </trkpt>
      <trkpt lat="47.46051" lon="6.68184">
        <ele>310.316</ele>
        <time>2015-10-02T08:47:07Z</time>
      </trkpt>
      <trkpt lat="47.46045" lon="6.68182">
        <ele>308.45</ele>
        <time>2015-10-02T08:47:08Z</time>
      </trkpt>
      <trkpt lat="47.4604" lon="6.68183">
        <ele>308.986</ele>
        <time>2015-10-02T08:47:09Z</time>
      </trkpt>
      <trkpt lat="47.46035" lon="6.68183">
        <ele>310.095</ele>
        <time>2015-10-02T08:47:10Z</time>
      </trkpt>
      <trkpt lat="47.46028" lon="6.68183">
        <ele>311.165</ele>
        <time>2015-10-02T08:47:11Z</time>
      </trkpt>
      <trkpt lat="47.46023" lon="6.68184">
        <ele>311.72</ele>
        <time>2015-10-02T08:47:12Z</time>
      </trkpt>
      <trkpt lat="47.46016" lon="6.68185">
        <ele>312.039</ele>
        <time>2015-10-02T08:47:13Z</time>
      </trkpt>
      <trkpt lat="47.46011" lon="6.68185">
        <ele>312.159</ele>
        <time>2015-10-02T08:47:14Z</time>
      </trkpt>
      <trkpt lat="47.46005" lon="6.68186">
        <ele>311.762</ele>
        <time>2015-10-02T08:47:15Z</time>
      </trkpt>
      <trkpt lat="47.45999" lon="6.68187">
        <ele>311.533</ele>
        <time>2015-10-02T08:47:16Z</time>
      </trkpt>
      <trkpt lat="47.45993" lon="6.68188">
        <ele>311.674</ele>
        <time>2015-10-02T08:47:17Z</time>
      </trkpt>
      <trkpt lat="47.45986" lon="6.68188">
        <ele>311.701</ele>
        <time>2015-10-02T08:47:18Z</time>
      </trkpt>
      <trkpt lat="47.4598" lon="6.68189">
        <ele>311.277</ele>
        <time>2015-10-02T08:47:19Z</time>
      </trkpt>
      <trkpt lat="47.45965" lon="6.68187">
        <ele>306.554</ele>
        <time>2015-10-02T08:47:20Z</time>
      </trkpt>
      <trkpt lat="47.4596" lon="6.6819">
        <ele>307.745</ele>
        <time>2015-10-02T08:47:21Z</time>
      </trkpt>
      <trkpt lat="47.45954" lon="6.6819">
        <ele>307.056</ele>
        <time>2015-10-02T08:47:22Z</time>
      </trkpt>
      <trkpt lat="47.45949" lon="6.68191">
        <ele>306.649</ele>
        <time>2015-10-02T08:47:23Z</time>
      </trkpt>
      <trkpt lat="47.45941" lon="6.68194">
        <ele>306.168</ele>
        <time>2015-10-02T08:47:24Z</time>
      </trkpt>
      <trkpt lat="47.45935" lon="6.68195">
        <ele>308.146</ele>
        <time>2015-10-02T08:47:25Z</time>
      </trkpt>
      <trkpt lat="47.45927" lon="6.68196">
        <ele>306.087</ele>
        <time>2015-10-02T08:47:26Z</time>
      </trkpt>
      <trkpt lat="47.45923" lon="6.68196">
        <ele>306.8</ele>
        <time>2015-10-02T08:47:27Z</time>
      </trkpt>
      <trkpt lat="47.45916" lon="6.68198">
        <ele>306.631</ele>
        <time>2015-10-02T08:47:28Z</time>
      </trkpt>
      <trkpt lat="47.45913" lon="6.68202">
        <ele>307.496</ele>
        <time>2015-10-02T08:47:29Z</time>
      </trkpt>
      <trkpt lat="47.45908" lon="6.68203">
        <ele>308.605</ele>
        <time>2015-10-02T08:47:30Z</time>
      </trkpt>
      <trkpt lat="47.45902" lon="6.68206">
        <ele>306.855</ele>
        <time>2015-10-02T08:47:31Z</time>
      </trkpt>
      <trkpt lat="47.45896" lon="6.68209">
        <ele>307.23</ele>
        <time>2015-10-02T08:47:32Z</time>
      </trkpt>
      <trkpt lat="47.45892" lon="6.68211">
        <ele>308.13</ele>
        <time>2015-10-02T08:47:33Z</time>
      </trkpt>
      <trkpt lat="47.45886" lon="6.68214">
        <ele>308.645</ele>
        <time>2015-10-02T08:47:34Z</time>
      </trkpt>
      <trkpt lat="47.45881" lon="6.68216">
        <ele>308.408</ele>
        <time>2015-10-02T08:47:35Z</time>
      </trkpt>
      <trkpt lat="47.45874" lon="6.68219">
        <ele>308.436</ele>
        <time>2015-10-02T08:47:36Z</time>
      </trkpt>
      <trkpt lat="47.45867" lon="6.68221">
        <ele>307.127</ele>
        <time>2015-10-02T08:47:37Z</time>
      </trkpt>
      <trkpt lat="47.45863" lon="6.68222">
        <ele>307.337</ele>
        <time>2015-10-02T08:47:38Z</time>
      </trkpt>
      <trkpt lat="47.45858" lon="6.68222">
        <ele>306.495</ele>
        <time>2015-10-02T08:47:39Z</time>
      </trkpt>
      <trkpt lat="47.45852" lon="6.68225">
        <ele>304.879</ele>
        <time>2015-10-02T08:47:40Z</time>
      </trkpt>
      <trkpt lat="47.45847" lon="6.68226">
        <ele>303.445</ele>
        <time>2015-10-02T08:47:41Z</time>
      </trkpt>
      <trkpt lat="47.45843" lon="6.68227">
        <ele>302.35</ele>
        <time>2015-10-02T08:47:42Z</time>
      </trkpt>
      <trkpt lat="47.45839" lon="6.68229">
        <ele>302.125</ele>
        <time>2015-10-02T08:47:43Z</time>
      </trkpt>
      <trkpt lat="47.45833" lon="6.68231">
        <ele>304.019</ele>
        <time>2015-10-02T08:47:44Z</time>
      </trkpt>
      <trkpt lat="47.4583" lon="6.68232">
        <ele>306.264</ele>
        <time>2015-10-02T08:47:45Z</time>
      </trkpt>
      <trkpt lat="47.45828" lon="6.68232">
        <ele>306.577</ele>
        <time>2015-10-02T08:47:46Z</time>
      </trkpt>
      <trkpt lat="47.45824" lon="6.68233">
        <ele>307.706</ele>
        <time>2015-10-02T08:47:47Z</time>
      </trkpt>
      <trkpt lat="47.45822" lon="6.68235">
        <ele>306.835</ele>
        <time>2015-10-02T08:47:48Z</time>
      </trkpt>
      <trkpt lat="47.45816" lon="6.68236">
        <ele>305.026</ele>
        <time>2015-10-02T08:47:49Z</time>
      </trkpt>
      <trkpt lat="47.45811" lon="6.68236">
        <ele>306.217</ele>
        <time>2015-10-02T08:47:50Z</time>
      </trkpt>
      <trkpt lat="47.45808" lon="6.68234">
        <ele>307.151</ele>
        <time>2015-10-02T08:47:51Z</time>
      </trkpt>
      <trkpt lat="47.45804" lon="6.68233">
        <ele>307.262</ele>
        <time>2015-10-02T08:47:52Z</time>
      </trkpt>
      <trkpt lat="47.45803" lon="6.68233">
        <ele>309.45</ele>
        <time>2015-10-02T08:47:53Z</time>
      </trkpt>
      <trkpt lat="47.45798" lon="6.68232">
        <ele>309.49</ele>
        <time>2015-10-02T08:47:54Z</time>
      </trkpt>
      <trkpt lat="47.45794" lon="6.68232">
        <ele>308.982</ele>
        <time>2015-10-02T08:47:55Z</time>
      </trkpt>
      <trkpt lat="47.4579" lon="6.68232">
        <ele>310.193</ele>
        <time>2015-10-02T08:47:56Z</time>
      </trkpt>
      <trkpt lat="47.45787" lon="6.68232">
        <ele>308.546</ele>
        <time>2015-10-02T08:47:57Z</time>
      </trkpt>
      <trkpt lat="47.45784" lon="6.68233">
        <ele>310.752</ele>
        <time>2015-10-02T08:47:58Z</time>
      </trkpt>
      <trkpt lat="47.45779" lon="6.68233">
        <ele>309.381</ele>
        <time>2015-10-02T08:47:59Z</time>
      </trkpt>
      <trkpt lat="47.45767" lon="6.68234">
        <ele>310.012</ele>
        <time>2015-10-02T08:48:00Z</time>
      </trkpt>
      <trkpt lat="47.45757" lon="6.68232">
        <ele>309.413</ele>
        <time>2015-10-02T08:48:01Z</time>
      </trkpt>
      <trkpt lat="47.45751" lon="6.68231">
        <ele>308.786</ele>
        <time>2015-10-02T08:48:02Z</time>
      </trkpt>
      <trkpt lat="47.45746" lon="6.68229">
        <ele>309.448</ele>
        <time>2015-10-02T08:48:03Z</time>
      </trkpt>
      <trkpt lat="47.45741" lon="6.68229">
        <ele>309.391</ele>
        <time>2015-10-02T08:48:04Z</time>
      </trkpt>
      <trkpt lat="47.45737" lon="6.68228">
        <ele>309.427</ele>
        <time>2015-10-02T08:48:05Z</time>
      </trkpt>
      <trkpt lat="47.45732" lon="6.68226">
        <ele>309.589</ele>
        <time>2015-10-02T08:48:06Z</time>
      </trkpt>
      <trkpt lat="47.45727" lon="6.68223">
        <ele>308.666</ele>
        <time>2015-10-02T08:48:07Z</time>
      </trkpt>
      <trkpt lat="47.45721" lon="6.68219">
        <ele>307.121</ele>
        <time>2015-10-02T08:48:08Z</time>
      </trkpt>
      <trkpt lat="47.45717" lon="6.68216">
        <ele>306.534</ele>
        <time>2015-10-02T08:48:09Z</time>
      </trkpt>
      <trkpt lat="47.45713" lon="6.68214">
        <ele>306.094</ele>
        <time>2015-10-02T08:48:10Z</time>
      </trkpt>
      <trkpt lat="47.45708" lon="6.68212">
        <ele>306.365</ele>
        <time>2015-10-02T08:48:11Z</time>
      </trkpt>
      <trkpt lat="47.45703" lon="6.68208">
        <ele>305.937</ele>
        <time>2015-10-02T08:48:12Z</time>
      </trkpt>
      <trkpt lat="47.45698" lon="6.68205">
        <ele>306.321</ele>
        <time>2015-10-02T08:48:13Z</time>
      </trkpt>
      <trkpt lat="47.45694" lon="6.68201">
        <ele>305.508</ele>
        <time>2015-10-02T08:48:14Z</time>
      </trkpt>
      <trkpt lat="47.45689" lon="6.68197">
        <ele>305.084</ele>
        <time>2015-10-02T08:48:15Z</time>
      </trkpt>
      <trkpt lat="47.45684" lon="6.68193">
        <ele>304.676</ele>
        <time>2015-10-02T08:48:16Z</time>
      </trkpt>
      <trkpt lat="47.45679" lon="6.6819">
        <ele>304.63</ele>
        <time>2015-10-02T08:48:17Z</time>
      </trkpt>
      <trkpt lat="47.45674" lon="6.68186">
        <ele>304.61</ele>
        <time>2015-10-02T08:48:18Z</time>
      </trkpt>
      <trkpt lat="47.45669" lon="6.68182">
        <ele>304.56</ele>
        <time>2015-10-02T08:48:19Z</time>
      </trkpt>
      <trkpt lat="47.45663" lon="6.68177">
        <ele>303.346</ele>
        <time>2015-10-02T08:48:20Z</time>
      </trkpt>
      <trkpt lat="47.45658" lon="6.68174">
        <ele>303.421</ele>
        <time>2015-10-02T08:48:21Z</time>
      </trkpt>
      <trkpt lat="47.45654" lon="6.6817">
        <ele>303.729</ele>
        <time>2015-10-02T08:48:22Z</time>
      </trkpt>
      <trkpt lat="47.45647" lon="6.68167">
        <ele>303.69</ele>
        <time>2015-10-02T08:48:23Z</time>
      </trkpt>
      <trkpt lat="47.45643" lon="6.68164">
        <ele>303.742</ele>
        <time>2015-10-02T08:48:24Z</time>
      </trkpt>
      <trkpt lat="47.45639" lon="6.6816">
        <ele>303.86</ele>
        <time>2015-10-02T08:48:25Z</time>
      </trkpt>
      <trkpt lat="47.45636" lon="6.68157">
        <ele>304.287</ele>
        <time>2015-10-02T08:48:26Z</time>
      </trkpt>
      <trkpt lat="47.45632" lon="6.68154">
        <ele>304.399</ele>
        <time>2015-10-02T08:48:27Z</time>
      </trkpt>
      <trkpt lat="47.45628" lon="6.68152">
        <ele>304.546</ele>
        <time>2015-10-02T08:48:28Z</time>
      </trkpt>
      <trkpt lat="47.45624" lon="6.68149">
        <ele>304.911</ele>
        <time>2015-10-02T08:48:29Z</time>
      </trkpt>
      <trkpt lat="47.45621" lon="6.68146">
        <ele>304.845</ele>
        <time>2015-10-02T08:48:30Z</time>
      </trkpt>
      <trkpt lat="47.45617" lon="6.68143">
        <ele>304.683</ele>
        <time>2015-10-02T08:48:31Z</time>
      </trkpt>
      <trkpt lat="47.45614" lon="6.6814">
        <ele>304.865</ele>
        <time>2015-10-02T08:48:32Z</time>
      </trkpt>
      <trkpt lat="47.4561" lon="6.68138">
        <ele>304.684</ele>
        <time>2015-10-02T08:48:33Z</time>
      </trkpt>
      <trkpt lat="47.45607" lon="6.68136">
        <ele>304.448</ele>
        <time>2015-10-02T08:48:34Z</time>
      </trkpt>
      <trkpt lat="47.45604" lon="6.68133">
        <ele>304.547</ele>
        <time>2015-10-02T08:48:35Z</time>
      </trkpt>
      <trkpt lat="47.45601" lon="6.68131">
        <ele>304.69</ele>
        <time>2015-10-02T08:48:36Z</time>
      </trkpt>
      <trkpt lat="47.45598" lon="6.68129">
        <ele>304.521</ele>
        <time>2015-10-02T08:48:37Z</time>
      </trkpt>
      <trkpt lat="47.45595" lon="6.68127">
        <ele>304.191</ele>
        <time>2015-10-02T08:48:38Z</time>
      </trkpt>
      <trkpt lat="47.45591" lon="6.68124">
        <ele>304.362</ele>
        <time>2015-10-02T08:48:39Z</time>
      </trkpt>
      <trkpt lat="47.45588" lon="6.68122">
        <ele>304.638</ele>
        <time>2015-10-02T08:48:40Z</time>
      </trkpt>
      <trkpt lat="47.45584" lon="6.6812">
        <ele>304.945</ele>
        <time>2015-10-02T08:48:41Z</time>
      </trkpt>
      <trkpt lat="47.4558" lon="6.68117">
        <ele>305.481</ele>
        <time>2015-10-02T08:48:42Z</time>
      </trkpt>
      <trkpt lat="47.45577" lon="6.68114">
        <ele>305.268</ele>
        <time>2015-10-02T08:48:43Z</time>
      </trkpt>
      <trkpt lat="47.45573" lon="6.68111">
        <ele>305.42</ele>
        <time>2015-10-02T08:48:44Z</time>
      </trkpt>
      <trkpt lat="47.4557" lon="6.68105">
        <ele>305.811</ele>
        <time>2015-10-02T08:48:45Z</time>
      </trkpt>
      <trkpt lat="47.45567" lon="6.681">
        <ele>306.003</ele>
        <time>2015-10-02T08:48:46Z</time>
      </trkpt>
      <trkpt lat="47.45564" lon="6.68096">
        <ele>306.366</ele>
        <time>2015-10-02T08:48:47Z</time>
      </trkpt>
      <trkpt lat="47.45562" lon="6.68091">
        <ele>307.28</ele>
        <time>2015-10-02T08:48:48Z</time>
      </trkpt>
      <trkpt lat="47.45558" lon="6.68086">
        <ele>307.237</ele>
        <time>2015-10-02T08:48:49Z</time>
      </trkpt>
      <trkpt lat="47.45556" lon="6.68081">
        <ele>307.353</ele>
        <time>2015-10-02T08:48:50Z</time>
      </trkpt>
      <trkpt lat="47.45553" lon="6.68076">
        <ele>307.377</ele>
        <time>2015-10-02T08:48:51Z</time>
      </trkpt>
      <trkpt lat="47.45552" lon="6.68071">
        <ele>307.014</ele>
        <time>2015-10-02T08:48:52Z</time>
      </trkpt>
      <trkpt lat="47.4555" lon="6.68066">
        <ele>306.925</ele>
        <time>2015-10-02T08:48:53Z</time>
      </trkpt>
      <trkpt lat="47.45547" lon="6.6806">
        <ele>307.323</ele>
        <time>2015-10-02T08:48:54Z</time>
      </trkpt>
      <trkpt lat="47.45545" lon="6.68056">
        <ele>307.605</ele>
        <time>2015-10-02T08:48:55Z</time>
      </trkpt>
      <trkpt lat="47.45542" lon="6.68051">
        <ele>307.645</ele>
        <time>2015-10-02T08:48:56Z</time>
      </trkpt>
      <trkpt lat="47.45538" lon="6.6805">
        <ele>307.393</ele>
        <time>2015-10-02T08:48:57Z</time>
      </trkpt>
      <trkpt lat="47.45535" lon="6.68049">
        <ele>307.633</ele>
        <time>2015-10-02T08:48:58Z</time>
      </trkpt>
      <trkpt lat="47.45533" lon="6.68049">
        <ele>307.985</ele>
        <time>2015-10-02T08:48:59Z</time>
      </trkpt>
      <trkpt lat="47.45532" lon="6.68049">
        <ele>307.954</ele>
        <time>2015-10-02T08:49:00Z</time>
      </trkpt>
      <trkpt lat="47.4553" lon="6.68051">
        <ele>309.779</ele>
        <time>2015-10-02T08:49:30Z</time>
      </trkpt>
      <trkpt lat="47.45529" lon="6.68052">
        <ele>310.166</ele>
        <time>2015-10-02T08:49:31Z</time>
      </trkpt>
      <trkpt lat="47.45528" lon="6.68053">
        <ele>309.077</ele>
        <time>2015-10-02T08:49:32Z</time>
      </trkpt>
      <trkpt lat="47.45527" lon="6.68055">
        <ele>308.541</ele>
        <time>2015-10-02T08:49:33Z</time>
      </trkpt>
      <trkpt lat="47.45526" lon="6.68058">
        <ele>307.94</ele>
        <time>2015-10-02T08:49:34Z</time>
      </trkpt>
      <trkpt lat="47.45525" lon="6.68062">
        <ele>307.929</ele>
        <time>2015-10-02T08:49:35Z</time>
      </trkpt>
      <trkpt lat="47.45525" lon="6.68066">
        <ele>307.299</ele>
        <time>2015-10-02T08:49:36Z</time>
      </trkpt>
      <trkpt lat="47.45524" lon="6.68071">
        <ele>306.688</ele>
        <time>2015-10-02T08:49:37Z</time>
      </trkpt>
      <trkpt lat="47.45524" lon="6.68076">
        <ele>306.297</ele>
        <time>2015-10-02T08:49:38Z</time>
      </trkpt>
      <trkpt lat="47.45523" lon="6.68081">
        <ele>306.21</ele>
        <time>2015-10-02T08:49:39Z</time>
      </trkpt>
      <trkpt lat="47.45523" lon="6.68087">
        <ele>305.919</ele>
        <time>2015-10-02T08:49:40Z</time>
      </trkpt>
      <trkpt lat="47.45522" lon="6.68093">
        <ele>305.785</ele>
        <time>2015-10-02T08:49:41Z</time>
      </trkpt>
      <trkpt lat="47.45522" lon="6.68098">
        <ele>305.468</ele>
        <time>2015-10-02T08:49:42Z</time>
      </trkpt>
      <trkpt lat="47.4552" lon="6.68103">
        <ele>306.014</ele>
        <time>2015-10-02T08:49:43Z</time>
      </trkpt>
      <trkpt lat="47.45519" lon="6.68109">
        <ele>306.377</ele>
        <time>2015-10-02T08:49:44Z</time>
      </trkpt>
      <trkpt lat="47.45517" lon="6.68114">
        <ele>306.821</ele>
        <time>2015-10-02T08:49:45Z</time>
      </trkpt>
      <trkpt lat="47.45516" lon="6.68119">
        <ele>306.732</ele>
        <time>2015-10-02T08:49:46Z</time>
      </trkpt>
      <trkpt lat="47.45514" lon="6.68125">
        <ele>306.835</ele>
        <time>2015-10-02T08:49:47Z</time>
      </trkpt>
      <trkpt lat="47.45512" lon="6.6813">
        <ele>306.951</ele>
        <time>2015-10-02T08:49:48Z</time>
      </trkpt>
      <trkpt lat="47.4551" lon="6.68135">
        <ele>306.616</ele>
        <time>2015-10-02T08:49:49Z</time>
      </trkpt>
      <trkpt lat="47.45508" lon="6.6814">
        <ele>306.226</ele>
        <time>2015-10-02T08:49:50Z</time>
      </trkpt>
      <trkpt lat="47.45505" lon="6.68145">
        <ele>306.956</ele>
        <time>2015-10-02T08:49:51Z</time>
      </trkpt>
      <trkpt lat="47.45503" lon="6.68149">
        <ele>306.932</ele>
        <time>2015-10-02T08:49:52Z</time>
      </trkpt>
      <trkpt lat="47.455" lon="6.68153">
        <ele>306.735</ele>
        <time>2015-10-02T08:49:53Z</time>
      </trkpt>
      <trkpt lat="47.45497" lon="6.68157">
        <ele>306.966</ele>
        <time>2015-10-02T08:49:54Z</time>
      </trkpt>
      <trkpt lat="47.45493" lon="6.68161">
        <ele>306.834</ele>
        <time>2015-10-02T08:49:55Z</time>
      </trkpt>
      <trkpt lat="47.4549" lon="6.68165">
        <ele>306.612</ele>
        <time>2015-10-02T08:49:56Z</time>
      </trkpt>
      <trkpt lat="47.45487" lon="6.68168">
        <ele>306.392</ele>
        <time>2015-10-02T08:49:57Z</time>
      </trkpt>
      <trkpt lat="47.45483" lon="6.68172">
        <ele>306.638</ele>
        <time>2015-10-02T08:49:58Z</time>
      </trkpt>
      <trkpt lat="47.4548" lon="6.68175">
        <ele>306.789</ele>
        <time>2015-10-02T08:49:59Z</time>
      </trkpt>
      <trkpt lat="47.45476" lon="6.68178">
        <ele>306.663</ele>
        <time>2015-10-02T08:50:00Z</time>
      </trkpt>
      <trkpt lat="47.45472" lon="6.68181">
        <ele>306.757</ele>
        <time>2015-10-02T08:50:01Z</time>
      </trkpt>
      <trkpt lat="47.45469" lon="6.68185">
        <ele>306.747</ele>
        <time>2015-10-02T08:50:02Z</time>
      </trkpt>
      <trkpt lat="47.45466" lon="6.68188">
        <ele>306.845</ele>
        <time>2015-10-02T08:50:03Z</time>
      </trkpt>
      <trkpt lat="47.45462" lon="6.68191">
        <ele>306.839</ele>
        <time>2015-10-02T08:50:04Z</time>
      </trkpt>
      <trkpt lat="47.45459" lon="6.68194">
        <ele>307.072</ele>
        <time>2015-10-02T08:50:05Z</time>
      </trkpt>
      <trkpt lat="47.45455" lon="6.68197">
        <ele>307.022</ele>
        <time>2015-10-02T08:50:06Z</time>
      </trkpt>
      <trkpt lat="47.45452" lon="6.682">
        <ele>306.913</ele>
        <time>2015-10-02T08:50:07Z</time>
      </trkpt>
      <trkpt lat="47.45449" lon="6.68203">
        <ele>307.335</ele>
        <time>2015-10-02T08:50:08Z</time>
      </trkpt>
      <trkpt lat="47.45445" lon="6.68207">
        <ele>306.94</ele>
        <time>2015-10-02T08:50:09Z</time>
      </trkpt>
      <trkpt lat="47.45442" lon="6.6821">
        <ele>306.757</ele>
        <time>2015-10-02T08:50:10Z</time>
      </trkpt>
      <trkpt lat="47.45439" lon="6.68214">
        <ele>306.529</ele>
        <time>2015-10-02T08:50:11Z</time>
      </trkpt>
      <trkpt lat="47.45435" lon="6.68217">
        <ele>306.59</ele>
        <time>2015-10-02T08:50:12Z</time>
      </trkpt>
      <trkpt lat="47.45431" lon="6.6822">
        <ele>306.594</ele>
        <time>2015-10-02T08:50:13Z</time>
      </trkpt>
      <trkpt lat="47.45427" lon="6.68224">
        <ele>306.885</ele>
        <time>2015-10-02T08:50:14Z</time>
      </trkpt>
      <trkpt lat="47.45423" lon="6.68226">
        <ele>307.059</ele>
        <time>2015-10-02T08:50:15Z</time>
      </trkpt>
      <trkpt lat="47.45419" lon="6.68229">
        <ele>306.947</ele>
        <time>2015-10-02T08:50:16Z</time>
      </trkpt>
      <trkpt lat="47.45415" lon="6.68232">
        <ele>306.803</ele>
        <time>2015-10-02T08:50:17Z</time>
      </trkpt>
      <trkpt lat="47.45412" lon="6.68237">
        <ele>306.957</ele>
        <time>2015-10-02T08:50:18Z</time>
      </trkpt>
      <trkpt lat="47.45408" lon="6.6824">
        <ele>306.631</ele>
        <time>2015-10-02T08:50:19Z</time>
      </trkpt>
      <trkpt lat="47.45404" lon="6.68243">
        <ele>307.148</ele>
        <time>2015-10-02T08:50:20Z</time>
      </trkpt>
      <trkpt lat="47.45399" lon="6.68246">
        <ele>307.564</ele>
        <time>2015-10-02T08:50:21Z</time>
      </trkpt>
      <trkpt lat="47.45395" lon="6.6825">
        <ele>307.641</ele>
        <time>2015-10-02T08:50:22Z</time>
      </trkpt>
      <trkpt lat="47.45391" lon="6.68253">
        <ele>307.553</ele>
        <time>2015-10-02T08:50:23Z</time>
      </trkpt>
      <trkpt lat="47.45387" lon="6.68256">
        <ele>307.116</ele>
        <time>2015-10-02T08:50:24Z</time>
      </trkpt>
      <trkpt lat="47.45384" lon="6.6826">
        <ele>306.725</ele>
        <time>2015-10-02T08:50:25Z</time>
      </trkpt>
      <trkpt lat="47.4538" lon="6.68264">
        <ele>306.433</ele>
        <time>2015-10-02T08:50:26Z</time>
      </trkpt>
      <trkpt lat="47.45377" lon="6.68268">
        <ele>306.577</ele>
        <time>2015-10-02T08:50:27Z</time>
      </trkpt>
      <trkpt lat="47.45373" lon="6.68272">
        <ele>306.255</ele>
        <time>2015-10-02T08:50:28Z</time>
      </trkpt>
      <trkpt lat="47.45368" lon="6.68276">
        <ele>306.14</ele>
        <time>2015-10-02T08:50:29Z</time>
      </trkpt>
      <trkpt lat="47.45365" lon="6.68279">
        <ele>306.496</ele>
        <time>2015-10-02T08:50:30Z</time>
      </trkpt>
      <trkpt lat="47.45362" lon="6.68284">
        <ele>306.851</ele>
        <time>2015-10-02T08:50:31Z</time>
      </trkpt>
      <trkpt lat="47.45359" lon="6.6829">
        <ele>307.098</ele>
        <time>2015-10-02T08:50:32Z</time>
      </trkpt>
      <trkpt lat="47.45357" lon="6.68296">
        <ele>307.229</ele>
        <time>2015-10-02T08:50:33Z</time>
      </trkpt>
      <trkpt lat="47.45356" lon="6.68304">
        <ele>306.874</ele>
        <time>2015-10-02T08:50:34Z</time>
      </trkpt>
      <trkpt lat="47.45354" lon="6.6831">
        <ele>307.232</ele>
        <time>2015-10-02T08:50:35Z</time>
      </trkpt>
      <trkpt lat="47.45355" lon="6.68318">
        <ele>305.713</ele>
        <time>2015-10-02T08:50:36Z</time>
      </trkpt>
      <trkpt lat="47.45355" lon="6.68326">
        <ele>305.672</ele>
        <time>2015-10-02T08:50:37Z</time>
      </trkpt>
      <trkpt lat="47.45356" lon="6.6833">
        <ele>306.023</ele>
        <time>2015-10-02T08:50:38Z</time>
      </trkpt>
      <trkpt lat="47.45357" lon="6.68336">
        <ele>307.316</ele>
        <time>2015-10-02T08:50:39Z</time>
      </trkpt>
      <trkpt lat="47.45359" lon="6.68341">
        <ele>308.396</ele>
        <time>2015-10-02T08:50:40Z</time>
      </trkpt>
      <trkpt lat="47.45363" lon="6.68348">
        <ele>306.687</ele>
        <time>2015-10-02T08:50:41Z</time>
      </trkpt>
      <trkpt lat="47.45367" lon="6.68354">
        <ele>307.545</ele>
        <time>2015-10-02T08:50:42Z</time>
      </trkpt>
      <trkpt lat="47.45371" lon="6.68361">
        <ele>306.12</ele>
        <time>2015-10-02T08:50:43Z</time>
      </trkpt>
      <trkpt lat="47.45374" lon="6.68365">
        <ele>305.768</ele>
        <time>2015-10-02T08:50:44Z</time>
      </trkpt>
      <trkpt lat="47.45378" lon="6.68371">
        <ele>304.771</ele>
        <time>2015-10-02T08:50:45Z</time>
      </trkpt>
      <trkpt lat="47.45381" lon="6.68377">
        <ele>304.216</ele>
        <time>2015-10-02T08:50:46Z</time>
      </trkpt>
      <trkpt lat="47.45385" lon="6.68382">
        <ele>303.582</ele>
        <time>2015-10-02T08:50:47Z</time>
      </trkpt>
      <trkpt lat="47.45389" lon="6.68388">
        <ele>303.963</ele>
        <time>2015-10-02T08:50:48Z</time>
      </trkpt>
      <trkpt lat="47.45393" lon="6.68393">
        <ele>303.887</ele>
        <time>2015-10-02T08:50:49Z</time>
      </trkpt>
      <trkpt lat="47.45397" lon="6.68399">
        <ele>303.647</ele>
        <time>2015-10-02T08:50:50Z</time>
      </trkpt>
      <trkpt lat="47.45401" lon="6.68405">
        <ele>303.574</ele>
        <time>2015-10-02T08:50:51Z</time>
      </trkpt>
      <trkpt lat="47.45405" lon="6.68411">
        <ele>304.203</ele>
        <time>2015-10-02T08:50:52Z</time>
      </trkpt>
      <trkpt lat="47.45409" lon="6.68417">
        <ele>304.129</ele>
        <time>2015-10-02T08:50:53Z</time>
      </trkpt>
      <trkpt lat="47.45413" lon="6.68422">
        <ele>304.167</ele>
        <time>2015-10-02T08:50:54Z</time>
      </trkpt>
      <trkpt lat="47.45417" lon="6.68428">
        <ele>304.362</ele>
        <time>2015-10-02T08:50:55Z</time>
      </trkpt>
      <trkpt lat="47.45421" lon="6.68434">
        <ele>303.925</ele>
        <time>2015-10-02T08:50:56Z</time>
      </trkpt>
      <trkpt lat="47.45425" lon="6.68439">
        <ele>303.833</ele>
        <time>2015-10-02T08:50:57Z</time>
      </trkpt>
      <trkpt lat="47.45428" lon="6.68445">
        <ele>304.251</ele>
        <time>2015-10-02T08:50:58Z</time>
      </trkpt>
      <trkpt lat="47.45432" lon="6.68451">
        <ele>304.68</ele>
        <time>2015-10-02T08:50:59Z</time>
      </trkpt>
      <trkpt lat="47.45436" lon="6.68457">
        <ele>304.069</ele>
        <time>2015-10-02T08:51:00Z</time>
      </trkpt>
      <trkpt lat="47.45439" lon="6.68463">
        <ele>303.966</ele>
        <time>2015-10-02T08:51:01Z</time>
      </trkpt>
      <trkpt lat="47.45443" lon="6.68469">
        <ele>304.229</ele>
        <time>2015-10-02T08:51:02Z</time>
      </trkpt>
      <trkpt lat="47.45446" lon="6.68475">
        <ele>303.807</ele>
        <time>2015-10-02T08:51:03Z</time>
      </trkpt>
      <trkpt lat="47.4545" lon="6.68481">
        <ele>303.762</ele>
        <time>2015-10-02T08:51:04Z</time>
      </trkpt>
      <trkpt lat="47.45453" lon="6.68487">
        <ele>303.637</ele>
        <time>2015-10-02T08:51:05Z</time>
      </trkpt>
      <trkpt lat="47.45456" lon="6.68493">
        <ele>303.646</ele>
        <time>2015-10-02T08:51:06Z</time>
      </trkpt>
      <trkpt lat="47.4546" lon="6.68498">
        <ele>303.324</ele>
        <time>2015-10-02T08:51:07Z</time>
      </trkpt>
      <trkpt lat="47.45463" lon="6.68504">
        <ele>302.891</ele>
        <time>2015-10-02T08:51:08Z</time>
      </trkpt>
      <trkpt lat="47.45467" lon="6.6851">
        <ele>302.68</ele>
        <time>2015-10-02T08:51:09Z</time>
      </trkpt>
      <trkpt lat="47.4547" lon="6.68515">
        <ele>302.546</ele>
        <time>2015-10-02T08:51:10Z</time>
      </trkpt>
      <trkpt lat="47.45472" lon="6.68521">
        <ele>303.072</ele>
        <time>2015-10-02T08:51:11Z</time>
      </trkpt>
      <trkpt lat="47.45476" lon="6.68527">
        <ele>303.041</ele>
        <time>2015-10-02T08:51:12Z</time>
      </trkpt>
      <trkpt lat="47.45479" lon="6.68534">
        <ele>303.813</ele>
        <time>2015-10-02T08:51:13Z</time>
      </trkpt>
      <trkpt lat="47.45482" lon="6.68539">
        <ele>303.785</ele>
        <time>2015-10-02T08:51:14Z</time>
      </trkpt>
      <trkpt lat="47.45486" lon="6.68544">
        <ele>303.166</ele>
        <time>2015-10-02T08:51:15Z</time>
      </trkpt>
      <trkpt lat="47.45489" lon="6.6855">
        <ele>303.195</ele>
        <time>2015-10-02T08:51:16Z</time>
      </trkpt>
      <trkpt lat="47.45492" lon="6.68556">
        <ele>303.726</ele>
        <time>2015-10-02T08:51:17Z</time>
      </trkpt>
      <trkpt lat="47.45495" lon="6.68562">
        <ele>303.741</ele>
        <time>2015-10-02T08:51:18Z</time>
      </trkpt>
      <trkpt lat="47.45499" lon="6.68567">
        <ele>303.211</ele>
        <time>2015-10-02T08:51:19Z</time>
      </trkpt>
      <trkpt lat="47.45502" lon="6.68573">
        <ele>303.122</ele>
        <time>2015-10-02T08:51:20Z</time>
      </trkpt>
      <trkpt lat="47.45505" lon="6.68578">
        <ele>303.609</ele>
        <time>2015-10-02T08:51:21Z</time>
      </trkpt>
      <trkpt lat="47.45508" lon="6.68584">
        <ele>304.117</ele>
        <time>2015-10-02T08:51:22Z</time>
      </trkpt>
      <trkpt lat="47.45511" lon="6.68589">
        <ele>303.983</ele>
        <time>2015-10-02T08:51:23Z</time>
      </trkpt>
      <trkpt lat="47.45513" lon="6.68595">
        <ele>305.196</ele>
        <time>2015-10-02T08:51:24Z</time>
      </trkpt>
      <trkpt lat="47.45515" lon="6.686">
        <ele>305.788</ele>
        <time>2015-10-02T08:51:25Z</time>
      </trkpt>
      <trkpt lat="47.45517" lon="6.68605">
        <ele>306.492</ele>
        <time>2015-10-02T08:51:26Z</time>
      </trkpt>
      <trkpt lat="47.45521" lon="6.68609">
        <ele>307.799</ele>
        <time>2015-10-02T08:51:27Z</time>
      </trkpt>
      <trkpt lat="47.45523" lon="6.68614">
        <ele>307.752</ele>
        <time>2015-10-02T08:51:28Z</time>
      </trkpt>
      <trkpt lat="47.45527" lon="6.68621">
        <ele>307.062</ele>
        <time>2015-10-02T08:51:29Z</time>
      </trkpt>
      <trkpt lat="47.45529" lon="6.68624">
        <ele>309.288</ele>
        <time>2015-10-02T08:51:30Z</time>
      </trkpt>
      <trkpt lat="47.45533" lon="6.68628">
        <ele>308.322</ele>
        <time>2015-10-02T08:51:31Z</time>
      </trkpt>
      <trkpt lat="47.45534" lon="6.68634">
        <ele>308.233</ele>
        <time>2015-10-02T08:51:32Z</time>
      </trkpt>
      <trkpt lat="47.45537" lon="6.6864">
        <ele>307.638</ele>
        <time>2015-10-02T08:51:33Z</time>
      </trkpt>
      <trkpt lat="47.45538" lon="6.68646">
        <ele>307.583</ele>
        <time>2015-10-02T08:51:34Z</time>
      </trkpt>
      <trkpt lat="47.4554" lon="6.68652">
        <ele>307.554</ele>
        <time>2015-10-02T08:51:35Z</time>
      </trkpt>
      <trkpt lat="47.45545" lon="6.68659">
        <ele>307.467</ele>
        <time>2015-10-02T08:51:36Z</time>
      </trkpt>
      <trkpt lat="47.45553" lon="6.68664">
        <ele>304.85</ele>
        <time>2015-10-02T08:51:37Z</time>
      </trkpt>
      <trkpt lat="47.45556" lon="6.68669">
        <ele>304.827</ele>
        <time>2015-10-02T08:51:38Z</time>
      </trkpt>
      <trkpt lat="47.45559" lon="6.68675">
        <ele>305.194</ele>
        <time>2015-10-02T08:51:39Z</time>
      </trkpt>
      <trkpt lat="47.45563" lon="6.68679">
        <ele>304.158</ele>
        <time>2015-10-02T08:51:40Z</time>
      </trkpt>
      <trkpt lat="47.45567" lon="6.68684">
        <ele>304.803</ele>
        <time>2015-10-02T08:51:41Z</time>
      </trkpt>
      <trkpt lat="47.45571" lon="6.68688">
        <ele>305.61</ele>
        <time>2015-10-02T08:51:42Z</time>
      </trkpt>
      <trkpt lat="47.45576" lon="6.68693">
        <ele>305.906</ele>
        <time>2015-10-02T08:51:43Z</time>
      </trkpt>
      <trkpt lat="47.45579" lon="6.68699">
        <ele>306.313</ele>
        <time>2015-10-02T08:51:44Z</time>
      </trkpt>
      <trkpt lat="47.45582" lon="6.68704">
        <ele>306.033</ele>
        <time>2015-10-02T08:51:45Z</time>
      </trkpt>
      <trkpt lat="47.45585" lon="6.6871">
        <ele>306.425</ele>
        <time>2015-10-02T08:51:46Z</time>
      </trkpt>
      <trkpt lat="47.45589" lon="6.68716">
        <ele>305.674</ele>
        <time>2015-10-02T08:51:47Z</time>
      </trkpt>
      <trkpt lat="47.45592" lon="6.68721">
        <ele>305.88</ele>
        <time>2015-10-02T08:51:48Z</time>
      </trkpt>
      <trkpt lat="47.45595" lon="6.68726">
        <ele>306.52</ele>
        <time>2015-10-02T08:51:49Z</time>
      </trkpt>
      <trkpt lat="47.45598" lon="6.68731">
        <ele>306.805</ele>
        <time>2015-10-02T08:51:50Z</time>
      </trkpt>
      <trkpt lat="47.45602" lon="6.68736">
        <ele>306.801</ele>
        <time>2015-10-02T08:51:51Z</time>
      </trkpt>
      <trkpt lat="47.45605" lon="6.68741">
        <ele>306.716</ele>
        <time>2015-10-02T08:51:52Z</time>
      </trkpt>
      <trkpt lat="47.45607" lon="6.68745">
        <ele>305.038</ele>
        <time>2015-10-02T08:51:53Z</time>
      </trkpt>
      <trkpt lat="47.45608" lon="6.68752">
        <ele>304.078</ele>
        <time>2015-10-02T08:51:54Z</time>
      </trkpt>
      <trkpt lat="47.45607" lon="6.68759">
        <ele>304.147</ele>
        <time>2015-10-02T08:51:55Z</time>
      </trkpt>
      <trkpt lat="47.45606" lon="6.68765">
        <ele>304.054</ele>
        <time>2015-10-02T08:51:56Z</time>
      </trkpt>
      <trkpt lat="47.45603" lon="6.6877">
        <ele>303.922</ele>
        <time>2015-10-02T08:51:57Z</time>
      </trkpt>
      <trkpt lat="47.456" lon="6.68774">
        <ele>304.094</ele>
        <time>2015-10-02T08:51:58Z</time>
      </trkpt>
      <trkpt lat="47.45596" lon="6.68777">
        <ele>303.974</ele>
        <time>2015-10-02T08:51:59Z</time>
      </trkpt>
      <trkpt lat="47.45593" lon="6.6878">
        <ele>303.968</ele>
        <time>2015-10-02T08:52:00Z</time>
      </trkpt>
      <trkpt lat="47.45589" lon="6.68784">
        <ele>303.849</ele>
        <time>2015-10-02T08:52:01Z</time>
      </trkpt>
      <trkpt lat="47.45585" lon="6.68787">
        <ele>304.282</ele>
        <time>2015-10-02T08:52:02Z</time>
      </trkpt>
      <trkpt lat="47.45581" lon="6.6879">
        <ele>304.395</ele>
        <time>2015-10-02T08:52:03Z</time>
      </trkpt>
      <trkpt lat="47.45577" lon="6.68792">
        <ele>305.049</ele>
        <time>2015-10-02T08:52:04Z</time>
      </trkpt>
      <trkpt lat="47.45572" lon="6.68796">
        <ele>304.945</ele>
        <time>2015-10-02T08:52:05Z</time>
      </trkpt>
      <trkpt lat="47.45569" lon="6.68798">
        <ele>306.076</ele>
        <time>2015-10-02T08:52:06Z</time>
      </trkpt>
      <trkpt lat="47.45566" lon="6.68802">
        <ele>305.724</ele>
        <time>2015-10-02T08:52:07Z</time>
      </trkpt>
      <trkpt lat="47.45562" lon="6.68806">
        <ele>306.09</ele>
        <time>2015-10-02T08:52:08Z</time>
      </trkpt>
      <trkpt lat="47.45558" lon="6.68809">
        <ele>305.597</ele>
        <time>2015-10-02T08:52:09Z</time>
      </trkpt>
      <trkpt lat="47.45553" lon="6.68809">
        <ele>306.834</ele>
        <time>2015-10-02T08:52:10Z</time>
      </trkpt>
      <trkpt lat="47.45549" lon="6.68813">
        <ele>306.212</ele>
        <time>2015-10-02T08:52:11Z</time>
      </trkpt>
      <trkpt lat="47.45545" lon="6.68814">
        <ele>306.499</ele>
        <time>2015-10-02T08:52:12Z</time>
      </trkpt>
      <trkpt lat="47.45541" lon="6.68816">
        <ele>306.326</ele>
        <time>2015-10-02T08:52:13Z</time>
      </trkpt>
      <trkpt lat="47.45538" lon="6.68819">
        <ele>306.332</ele>
        <time>2015-10-02T08:52:14Z</time>
      </trkpt>
      <trkpt lat="47.45535" lon="6.68823">
        <ele>305.893</ele>
        <time>2015-10-02T08:52:15Z</time>
      </trkpt>
      <trkpt lat="47.45533" lon="6.68825">
        <ele>307.21</ele>
        <time>2015-10-02T08:52:16Z</time>
      </trkpt>
      <trkpt lat="47.4553" lon="6.68827">
        <ele>307.389</ele>
        <time>2015-10-02T08:52:17Z</time>
      </trkpt>
      <trkpt lat="47.45527" lon="6.6883">
        <ele>307.917</ele>
        <time>2015-10-02T08:52:18Z</time>
      </trkpt>
      <trkpt lat="47.45526" lon="6.68832">
        <ele>308.339</ele>
        <time>2015-10-02T08:52:19Z</time>
      </trkpt>
      <trkpt lat="47.45525" lon="6.68836">
        <ele>308.014</ele>
        <time>2015-10-02T08:52:20Z</time>
      </trkpt>
      <trkpt lat="47.45523" lon="6.68839">
        <ele>308.116</ele>
        <time>2015-10-02T08:52:21Z</time>
      </trkpt>
      <trkpt lat="47.45522" lon="6.68842">
        <ele>307.877</ele>
        <time>2015-10-02T08:52:22Z</time>
      </trkpt>
      <trkpt lat="47.4552" lon="6.68845">
        <ele>307.902</ele>
        <time>2015-10-02T08:52:23Z</time>
      </trkpt>
      <trkpt lat="47.45518" lon="6.68847">
        <ele>307.731</ele>
        <time>2015-10-02T08:52:24Z</time>
      </trkpt>
      <trkpt lat="47.45515" lon="6.68848">
        <ele>308.088</ele>
        <time>2015-10-02T08:52:25Z</time>
      </trkpt>
      <trkpt lat="47.45512" lon="6.68847">
        <ele>308.516</ele>
        <time>2015-10-02T08:52:26Z</time>
      </trkpt>
      <trkpt lat="47.4551" lon="6.68845">
        <ele>308.655</ele>
        <time>2015-10-02T08:52:27Z</time>
      </trkpt>
      <trkpt lat="47.45507" lon="6.68842">
        <ele>308.874</ele>
        <time>2015-10-02T08:52:28Z</time>
      </trkpt>
      <trkpt lat="47.45505" lon="6.68839">
        <ele>309.126</ele>
        <time>2015-10-02T08:52:29Z</time>
      </trkpt>
      <trkpt lat="47.45503" lon="6.68836">
        <ele>309.182</ele>
        <time>2015-10-02T08:52:30Z</time>
      </trkpt>
      <trkpt lat="47.45501" lon="6.68833">
        <ele>309.306</ele>
        <time>2015-10-02T08:52:31Z</time>
      </trkpt>
      <trkpt lat="47.455" lon="6.68832">
        <ele>309.338</ele>
        <time>2015-10-02T08:52:32Z</time>
      </trkpt>
      <trkpt lat="47.45502" lon="6.68835">
        <ele>308.301</ele>
        <time>2015-10-02T08:52:52Z</time>
      </trkpt>
      <trkpt lat="47.455" lon="6.68834">
        <ele>307.762</ele>
        <time>2015-10-02T08:52:54Z</time>
      </trkpt>
      <trkpt lat="47.45499" lon="6.68832">
        <ele>307.906</ele>
        <time>2015-10-02T08:52:55Z</time>
      </trkpt>
      <trkpt lat="47.45497" lon="6.68831">
        <ele>307.622</ele>
        <time>2015-10-02T08:52:56Z</time>
      </trkpt>
      <trkpt lat="47.45496" lon="6.68829">
        <ele>307.077</ele>
        <time>2015-10-02T08:52:57Z</time>
      </trkpt>
      <trkpt lat="47.45494" lon="6.68827">
        <ele>306.846</ele>
        <time>2015-10-02T08:52:58Z</time>
      </trkpt>
      <trkpt lat="47.45492" lon="6.68825">
        <ele>306.881</ele>
        <time>2015-10-02T08:52:59Z</time>
      </trkpt>
      <trkpt lat="47.4549" lon="6.68823">
        <ele>306.687</ele>
        <time>2015-10-02T08:53:00Z</time>
      </trkpt>
      <trkpt lat="47.45489" lon="6.68821">
        <ele>306.57</ele>
        <time>2015-10-02T08:53:01Z</time>
      </trkpt>
      <trkpt lat="47.45486" lon="6.68818">
        <ele>306.6</ele>
        <time>2015-10-02T08:53:02Z</time>
      </trkpt>
      <trkpt lat="47.45484" lon="6.68815">
        <ele>306.24</ele>
        <time>2015-10-02T08:53:03Z</time>
      </trkpt>
      <trkpt lat="47.45482" lon="6.68812">
        <ele>306.245</ele>
        <time>2015-10-02T08:53:04Z</time>
      </trkpt>
      <trkpt lat="47.45479" lon="6.68809">
        <ele>306.5</ele>
        <time>2015-10-02T08:53:05Z</time>
      </trkpt>
      <trkpt lat="47.45476" lon="6.68806">
        <ele>306.347</ele>
        <time>2015-10-02T08:53:06Z</time>
      </trkpt>
      <trkpt lat="47.45474" lon="6.68804">
        <ele>306.131</ele>
        <time>2015-10-02T08:53:07Z</time>
      </trkpt>
      <trkpt lat="47.45471" lon="6.68801">
        <ele>306.333</ele>
        <time>2015-10-02T08:53:08Z</time>
      </trkpt>
      <trkpt lat="47.45468" lon="6.68797">
        <ele>306.394</ele>
        <time>2015-10-02T08:53:09Z</time>
      </trkpt>
      <trkpt lat="47.45466" lon="6.68794">
        <ele>306.453</ele>
        <time>2015-10-02T08:53:10Z</time>
      </trkpt>
      <trkpt lat="47.45463" lon="6.68791">
        <ele>306.512</ele>
        <time>2015-10-02T08:53:11Z</time>
      </trkpt>
      <trkpt lat="47.4546" lon="6.68788">
        <ele>306.61</ele>
        <time>2015-10-02T08:53:12Z</time>
      </trkpt>
      <trkpt lat="47.45457" lon="6.68785">
        <ele>306.589</ele>
        <time>2015-10-02T08:53:13Z</time>
      </trkpt>
      <trkpt lat="47.45454" lon="6.68782">
        <ele>306.614</ele>
        <time>2015-10-02T08:53:14Z</time>
      </trkpt>
      <trkpt lat="47.45451" lon="6.68778">
        <ele>306.881</ele>
        <time>2015-10-02T08:53:15Z</time>
      </trkpt>
      <trkpt lat="47.45448" lon="6.68775">
        <ele>306.881</ele>
        <time>2015-10-02T08:53:16Z</time>
      </trkpt>
      <trkpt lat="47.45445" lon="6.68772">
        <ele>306.889</ele>
        <time>2015-10-02T08:53:17Z</time>
      </trkpt>
      <trkpt lat="47.45441" lon="6.68768">
        <ele>307.088</ele>
        <time>2015-10-02T08:53:18Z</time>
      </trkpt>
      <trkpt lat="47.45438" lon="6.68765">
        <ele>307.153</ele>
        <time>2015-10-02T08:53:19Z</time>
      </trkpt>
      <trkpt lat="47.45435" lon="6.68761">
        <ele>307.355</ele>
        <time>2015-10-02T08:53:20Z</time>
      </trkpt>
      <trkpt lat="47.45432" lon="6.68757">
        <ele>306.684</ele>
        <time>2015-10-02T08:53:21Z</time>
      </trkpt>
      <trkpt lat="47.45429" lon="6.68754">
        <ele>306.619</ele>
        <time>2015-10-02T08:53:22Z</time>
      </trkpt>
      <trkpt lat="47.45426" lon="6.6875">
        <ele>306.415</ele>
        <time>2015-10-02T08:53:23Z</time>
      </trkpt>
      <trkpt lat="47.45422" lon="6.68746">
        <ele>306.201</ele>
        <time>2015-10-02T08:53:24Z</time>
      </trkpt>
      <trkpt lat="47.45419" lon="6.68742">
        <ele>306.167</ele>
        <time>2015-10-02T08:53:25Z</time>
      </trkpt>
      <trkpt lat="47.45416" lon="6.68738">
        <ele>305.863</ele>
        <time>2015-10-02T08:53:26Z</time>
      </trkpt>
      <trkpt lat="47.45412" lon="6.68734">
        <ele>306.722</ele>
        <time>2015-10-02T08:53:27Z</time>
      </trkpt>
      <trkpt lat="47.45409" lon="6.6873">
        <ele>306.707</ele>
        <time>2015-10-02T08:53:28Z</time>
      </trkpt>
      <trkpt lat="47.45406" lon="6.68726">
        <ele>306.06</ele>
        <time>2015-10-02T08:53:29Z</time>
      </trkpt>
      <trkpt lat="47.45402" lon="6.68722">
        <ele>305.83</ele>
        <time>2015-10-02T08:53:30Z</time>
      </trkpt>
      <trkpt lat="47.45399" lon="6.68718">
        <ele>305.779</ele>
        <time>2015-10-02T08:53:31Z</time>
      </trkpt>
      <trkpt lat="47.45395" lon="6.68714">
        <ele>305.94</ele>
        <time>2015-10-02T08:53:32Z</time>
      </trkpt>
      <trkpt lat="47.45392" lon="6.6871">
        <ele>306.029</ele>
        <time>2015-10-02T08:53:33Z</time>
      </trkpt>
      <trkpt lat="47.45388" lon="6.68706">
        <ele>305.737</ele>
        <time>2015-10-02T08:53:34Z</time>
      </trkpt>
      <trkpt lat="47.45384" lon="6.68702">
        <ele>305.759</ele>
        <time>2015-10-02T08:53:35Z</time>
      </trkpt>
      <trkpt lat="47.45381" lon="6.68698">
        <ele>305.697</ele>
        <time>2015-10-02T08:53:36Z</time>
      </trkpt>
      <trkpt lat="47.45377" lon="6.68694">
        <ele>305.384</ele>
        <time>2015-10-02T08:53:37Z</time>
      </trkpt>
      <trkpt lat="47.45373" lon="6.68691">
        <ele>305.123</ele>
        <time>2015-10-02T08:53:38Z</time>
      </trkpt>
      <trkpt lat="47.45369" lon="6.68688">
        <ele>304.898</ele>
        <time>2015-10-02T08:53:39Z</time>
      </trkpt>
      <trkpt lat="47.45365" lon="6.68683">
        <ele>304.981</ele>
        <time>2015-10-02T08:53:40Z</time>
      </trkpt>
      <trkpt lat="47.45362" lon="6.68679">
        <ele>304.96</ele>
        <time>2015-10-02T08:53:41Z</time>
      </trkpt>
      <trkpt lat="47.45358" lon="6.68675">
        <ele>305.216</ele>
        <time>2015-10-02T08:53:42Z</time>
      </trkpt>
      <trkpt lat="47.45355" lon="6.68671">
        <ele>305.202</ele>
        <time>2015-10-02T08:53:43Z</time>
      </trkpt>
      <trkpt lat="47.45351" lon="6.68666">
        <ele>305</ele>
        <time>2015-10-02T08:53:44Z</time>
      </trkpt>
      <trkpt lat="47.45347" lon="6.68662">
        <ele>305.171</ele>
        <time>2015-10-02T08:53:45Z</time>
      </trkpt>
      <trkpt lat="47.45343" lon="6.68659">
        <ele>305.039</ele>
        <time>2015-10-02T08:53:46Z</time>
      </trkpt>
      <trkpt lat="47.4534" lon="6.68655">
        <ele>304.483</ele>
        <time>2015-10-02T08:53:47Z</time>
      </trkpt>
      <trkpt lat="47.45336" lon="6.68651">
        <ele>304.459</ele>
        <time>2015-10-02T08:53:48Z</time>
      </trkpt>
      <trkpt lat="47.45333" lon="6.68648">
        <ele>304.354</ele>
        <time>2015-10-02T08:53:49Z</time>
      </trkpt>
      <trkpt lat="47.45329" lon="6.68644">
        <ele>304.4</ele>
        <time>2015-10-02T08:53:50Z</time>
      </trkpt>
      <trkpt lat="47.45326" lon="6.6864">
        <ele>304.631</ele>
        <time>2015-10-02T08:53:51Z</time>
      </trkpt>
      <trkpt lat="47.45323" lon="6.68636">
        <ele>304.548</ele>
        <time>2015-10-02T08:53:52Z</time>
      </trkpt>
      <trkpt lat="47.45319" lon="6.68632">
        <ele>304.508</ele>
        <time>2015-10-02T08:53:53Z</time>
      </trkpt>
      <trkpt lat="47.45315" lon="6.68628">
        <ele>304.681</ele>
        <time>2015-10-02T08:53:54Z</time>
      </trkpt>
      <trkpt lat="47.45312" lon="6.68624">
        <ele>304.619</ele>
        <time>2015-10-02T08:53:55Z</time>
      </trkpt>
      <trkpt lat="47.45308" lon="6.6862">
        <ele>304.525</ele>
        <time>2015-10-02T08:53:56Z</time>
      </trkpt>
      <trkpt lat="47.45305" lon="6.68616">
        <ele>304.818</ele>
        <time>2015-10-02T08:53:57Z</time>
      </trkpt>
      <trkpt lat="47.45302" lon="6.68612">
        <ele>304.787</ele>
        <time>2015-10-02T08:53:58Z</time>
      </trkpt>
      <trkpt lat="47.45298" lon="6.68608">
        <ele>304.975</ele>
        <time>2015-10-02T08:53:59Z</time>
      </trkpt>
      <trkpt lat="47.45295" lon="6.68604">
        <ele>304.947</ele>
        <time>2015-10-02T08:54:00Z</time>
      </trkpt>
      <trkpt lat="47.45292" lon="6.686">
        <ele>305.194</ele>
        <time>2015-10-02T08:54:01Z</time>
      </trkpt>
      <trkpt lat="47.45288" lon="6.68596">
        <ele>305.582</ele>
        <time>2015-10-02T08:54:02Z</time>
      </trkpt>
      <trkpt lat="47.45284" lon="6.68592">
        <ele>305.949</ele>
        <time>2015-10-02T08:54:03Z</time>
      </trkpt>
      <trkpt lat="47.45281" lon="6.68588">
        <ele>306.242</ele>
        <time>2015-10-02T08:54:04Z</time>
      </trkpt>
      <trkpt lat="47.45278" lon="6.68584">
        <ele>306.082</ele>
        <time>2015-10-02T08:54:05Z</time>
      </trkpt>
      <trkpt lat="47.45274" lon="6.68579">
        <ele>305.788</ele>
        <time>2015-10-02T08:54:06Z</time>
      </trkpt>
      <trkpt lat="47.45271" lon="6.68575">
        <ele>306.096</ele>
        <time>2015-10-02T08:54:07Z</time>
      </trkpt>
      <trkpt lat="47.45267" lon="6.68571">
        <ele>306.038</ele>
        <time>2015-10-02T08:54:08Z</time>
      </trkpt>
      <trkpt lat="47.45264" lon="6.68566">
        <ele>305.692</ele>
        <time>2015-10-02T08:54:09Z</time>
      </trkpt>
      <trkpt lat="47.45261" lon="6.68562">
        <ele>305.917</ele>
        <time>2015-10-02T08:54:10Z</time>
      </trkpt>
      <trkpt lat="47.45257" lon="6.68558">
        <ele>306.187</ele>
        <time>2015-10-02T08:54:11Z</time>
      </trkpt>
      <trkpt lat="47.45254" lon="6.68554">
        <ele>306.411</ele>
        <time>2015-10-02T08:54:12Z</time>
      </trkpt>
      <trkpt lat="47.45252" lon="6.68549">
        <ele>306.849</ele>
        <time>2015-10-02T08:54:13Z</time>
      </trkpt>
      <trkpt lat="47.45249" lon="6.68545">
        <ele>306.997</ele>
        <time>2015-10-02T08:54:14Z</time>
      </trkpt>
      <trkpt lat="47.45246" lon="6.6854">
        <ele>306.998</ele>
        <time>2015-10-02T08:54:15Z</time>
      </trkpt>
      <trkpt lat="47.45242" lon="6.68536">
        <ele>306.89</ele>
        <time>2015-10-02T08:54:16Z</time>
      </trkpt>
      <trkpt lat="47.45239" lon="6.68532">
        <ele>306.883</ele>
        <time>2015-10-02T08:54:17Z</time>
      </trkpt>
      <trkpt lat="47.45236" lon="6.68527">
        <ele>306.894</ele>
        <time>2015-10-02T08:54:18Z</time>
      </trkpt>
      <trkpt lat="47.45233" lon="6.68522">
        <ele>306.716</ele>
        <time>2015-10-02T08:54:19Z</time>
      </trkpt>
      <trkpt lat="47.4523" lon="6.68517">
        <ele>306.839</ele>
        <time>2015-10-02T08:54:20Z</time>
      </trkpt>
      <trkpt lat="47.45228" lon="6.68512">
        <ele>307.242</ele>
        <time>2015-10-02T08:54:21Z</time>
      </trkpt>
      <trkpt lat="47.45225" lon="6.68507">
        <ele>307.44</ele>
        <time>2015-10-02T08:54:22Z</time>
      </trkpt>
      <trkpt lat="47.45222" lon="6.68503">
        <ele>307.642</ele>
        <time>2015-10-02T08:54:23Z</time>
      </trkpt>
      <trkpt lat="47.45219" lon="6.68498">
        <ele>307.704</ele>
        <time>2015-10-02T08:54:24Z</time>
      </trkpt>
      <trkpt lat="47.45216" lon="6.68493">
        <ele>307.631</ele>
        <time>2015-10-02T08:54:25Z</time>
      </trkpt>
      <trkpt lat="47.45213" lon="6.68488">
        <ele>307.515</ele>
        <time>2015-10-02T08:54:26Z</time>
      </trkpt>
      <trkpt lat="47.4521" lon="6.68483">
        <ele>307.538</ele>
        <time>2015-10-02T08:54:27Z</time>
      </trkpt>
      <trkpt lat="47.45208" lon="6.68478">
        <ele>307.38</ele>
        <time>2015-10-02T08:54:28Z</time>
      </trkpt>
      <trkpt lat="47.45205" lon="6.68473">
        <ele>307.821</ele>
        <time>2015-10-02T08:54:29Z</time>
      </trkpt>
      <trkpt lat="47.45202" lon="6.68468">
        <ele>307.992</ele>
        <time>2015-10-02T08:54:30Z</time>
      </trkpt>
      <trkpt lat="47.452" lon="6.68463">
        <ele>308.152</ele>
        <time>2015-10-02T08:54:31Z</time>
      </trkpt>
      <trkpt lat="47.45197" lon="6.68459">
        <ele>307.492</ele>
        <time>2015-10-02T08:54:32Z</time>
      </trkpt>
      <trkpt lat="47.45195" lon="6.68454">
        <ele>307.48</ele>
        <time>2015-10-02T08:54:33Z</time>
      </trkpt>
      <trkpt lat="47.45192" lon="6.68449">
        <ele>307.416</ele>
        <time>2015-10-02T08:54:34Z</time>
      </trkpt>
      <trkpt lat="47.45189" lon="6.68444">
        <ele>307.254</ele>
        <time>2015-10-02T08:54:35Z</time>
      </trkpt>
      <trkpt lat="47.45187" lon="6.68438">
        <ele>307.305</ele>
        <time>2015-10-02T08:54:36Z</time>
      </trkpt>
      <trkpt lat="47.45184" lon="6.68433">
        <ele>307.542</ele>
        <time>2015-10-02T08:54:37Z</time>
      </trkpt>
      <trkpt lat="47.45182" lon="6.68427">
        <ele>307.975</ele>
        <time>2015-10-02T08:54:38Z</time>
      </trkpt>
      <trkpt lat="47.4518" lon="6.68422">
        <ele>308.114</ele>
        <time>2015-10-02T08:54:39Z</time>
      </trkpt>
      <trkpt lat="47.45177" lon="6.68417">
        <ele>307.833</ele>
        <time>2015-10-02T08:54:40Z</time>
      </trkpt>
      <trkpt lat="47.45174" lon="6.68411">
        <ele>307.856</ele>
        <time>2015-10-02T08:54:41Z</time>
      </trkpt>
      <trkpt lat="47.45171" lon="6.68405">
        <ele>307.638</ele>
        <time>2015-10-02T08:54:42Z</time>
      </trkpt>
      <trkpt lat="47.45168" lon="6.684">
        <ele>307.761</ele>
        <time>2015-10-02T08:54:43Z</time>
      </trkpt>
      <trkpt lat="47.45165" lon="6.68394">
        <ele>308.06</ele>
        <time>2015-10-02T08:54:44Z</time>
      </trkpt>
      <trkpt lat="47.45162" lon="6.68389">
        <ele>308.051</ele>
        <time>2015-10-02T08:54:45Z</time>
      </trkpt>
      <trkpt lat="47.45159" lon="6.68384">
        <ele>308.27</ele>
        <time>2015-10-02T08:54:46Z</time>
      </trkpt>
      <trkpt lat="47.45157" lon="6.68378">
        <ele>307.333</ele>
        <time>2015-10-02T08:54:47Z</time>
      </trkpt>
      <trkpt lat="47.45154" lon="6.68373">
        <ele>307.186</ele>
        <time>2015-10-02T08:54:48Z</time>
      </trkpt>
      <trkpt lat="47.45152" lon="6.68367">
        <ele>307.118</ele>
        <time>2015-10-02T08:54:49Z</time>
      </trkpt>
      <trkpt lat="47.4515" lon="6.68361">
        <ele>307.09</ele>
        <time>2015-10-02T08:54:50Z</time>
      </trkpt>
      <trkpt lat="47.45147" lon="6.68355">
        <ele>306.944</ele>
        <time>2015-10-02T08:54:51Z</time>
      </trkpt>
      <trkpt lat="47.45144" lon="6.6835">
        <ele>307.612</ele>
        <time>2015-10-02T08:54:52Z</time>
      </trkpt>
      <trkpt lat="47.45141" lon="6.68343">
        <ele>308.349</ele>
        <time>2015-10-02T08:54:53Z</time>
      </trkpt>
      <trkpt lat="47.45139" lon="6.68338">
        <ele>308.093</ele>
        <time>2015-10-02T08:54:54Z</time>
      </trkpt>
      <trkpt lat="47.45137" lon="6.68332">
        <ele>308.395</ele>
        <time>2015-10-02T08:54:55Z</time>
      </trkpt>
      <trkpt lat="47.45134" lon="6.68327">
        <ele>307.94</ele>
        <time>2015-10-02T08:54:56Z</time>
      </trkpt>
      <trkpt lat="47.45133" lon="6.68323">
        <ele>307.244</ele>
        <time>2015-10-02T08:54:57Z</time>
      </trkpt>
      <trkpt lat="47.4513" lon="6.68317">
        <ele>308.283</ele>
        <time>2015-10-02T08:54:58Z</time>
      </trkpt>
      <trkpt lat="47.45128" lon="6.68312">
        <ele>308.321</ele>
        <time>2015-10-02T08:54:59Z</time>
      </trkpt>
      <trkpt lat="47.45126" lon="6.68306">
        <ele>307.786</ele>
        <time>2015-10-02T08:55:00Z</time>
      </trkpt>
      <trkpt lat="47.45124" lon="6.68301">
        <ele>308.344</ele>
        <time>2015-10-02T08:55:01Z</time>
      </trkpt>
      <trkpt lat="47.45121" lon="6.68296">
        <ele>308.364</ele>
        <time>2015-10-02T08:55:02Z</time>
      </trkpt>
      <trkpt lat="47.45119" lon="6.68291">
        <ele>308.155</ele>
        <time>2015-10-02T08:55:03Z</time>
      </trkpt>
      <trkpt lat="47.45118" lon="6.68286">
        <ele>307.216</ele>
        <time>2015-10-02T08:55:04Z</time>
      </trkpt>
      <trkpt lat="47.45116" lon="6.68281">
        <ele>305.557</ele>
        <time>2015-10-02T08:55:05Z</time>
      </trkpt>
      <trkpt lat="47.45114" lon="6.68276">
        <ele>304.886</ele>
        <time>2015-10-02T08:55:06Z</time>
      </trkpt>
      <trkpt lat="47.45112" lon="6.68271">
        <ele>304.371</ele>
        <time>2015-10-02T08:55:07Z</time>
      </trkpt>
      <trkpt lat="47.4511" lon="6.68265">
        <ele>304.173</ele>
        <time>2015-10-02T08:55:08Z</time>
      </trkpt>
      <trkpt lat="47.45108" lon="6.6826">
        <ele>303.862</ele>
        <time>2015-10-02T08:55:09Z</time>
      </trkpt>
      <trkpt lat="47.45106" lon="6.68255">
        <ele>303.568</ele>
        <time>2015-10-02T08:55:10Z</time>
      </trkpt>
      <trkpt lat="47.45104" lon="6.68249">
        <ele>303.373</ele>
        <time>2015-10-02T08:55:11Z</time>
      </trkpt>
      <trkpt lat="47.45102" lon="6.68244">
        <ele>303.635</ele>
        <time>2015-10-02T08:55:12Z</time>
      </trkpt>
      <trkpt lat="47.451" lon="6.68238">
        <ele>304.303</ele>
        <time>2015-10-02T08:55:13Z</time>
      </trkpt>
      <trkpt lat="47.45098" lon="6.68232">
        <ele>304.283</ele>
        <time>2015-10-02T08:55:14Z</time>
      </trkpt>
      <trkpt lat="47.45096" lon="6.68226">
        <ele>304.08</ele>
        <time>2015-10-02T08:55:15Z</time>
      </trkpt>
      <trkpt lat="47.45094" lon="6.6822">
        <ele>304.562</ele>
        <time>2015-10-02T08:55:16Z</time>
      </trkpt>
      <trkpt lat="47.45091" lon="6.68214">
        <ele>304.598</ele>
        <time>2015-10-02T08:55:17Z</time>
      </trkpt>
      <trkpt lat="47.45089" lon="6.68209">
        <ele>304.429</ele>
        <time>2015-10-02T08:55:18Z</time>
      </trkpt>
      <trkpt lat="47.45087" lon="6.68203">
        <ele>305.205</ele>
        <time>2015-10-02T08:55:19Z</time>
      </trkpt>
      <trkpt lat="47.45085" lon="6.68197">
        <ele>305.215</ele>
        <time>2015-10-02T08:55:20Z</time>
      </trkpt>
      <trkpt lat="47.45084" lon="6.68191">
        <ele>305.593</ele>
        <time>2015-10-02T08:55:21Z</time>
      </trkpt>
      <trkpt lat="47.45082" lon="6.68185">
        <ele>305.832</ele>
        <time>2015-10-02T08:55:22Z</time>
      </trkpt>
      <trkpt lat="47.4508" lon="6.68179">
        <ele>306.282</ele>
        <time>2015-10-02T08:55:23Z</time>
      </trkpt>
      <trkpt lat="47.45078" lon="6.68173">
        <ele>306.34</ele>
        <time>2015-10-02T08:55:24Z</time>
      </trkpt>
      <trkpt lat="47.45075" lon="6.68167">
        <ele>306.178</ele>
        <time>2015-10-02T08:55:25Z</time>
      </trkpt>
      <trkpt lat="47.45073" lon="6.68161">
        <ele>305.51</ele>
        <time>2015-10-02T08:55:26Z</time>
      </trkpt>
      <trkpt lat="47.45072" lon="6.68154">
        <ele>306.127</ele>
        <time>2015-10-02T08:55:27Z</time>
      </trkpt>
      <trkpt lat="47.4507" lon="6.68148">
        <ele>305.662</ele>
        <time>2015-10-02T08:55:28Z</time>
      </trkpt>
      <trkpt lat="47.45068" lon="6.68143">
        <ele>306.012</ele>
        <time>2015-10-02T08:55:29Z</time>
      </trkpt>
      <trkpt lat="47.45066" lon="6.68137">
        <ele>305.66</ele>
        <time>2015-10-02T08:55:30Z</time>
      </trkpt>
      <trkpt lat="47.45064" lon="6.68131">
        <ele>306.326</ele>
        <time>2015-10-02T08:55:31Z</time>
      </trkpt>
      <trkpt lat="47.45062" lon="6.68124">
        <ele>306.34</ele>
        <time>2015-10-02T08:55:32Z</time>
      </trkpt>
      <trkpt lat="47.4506" lon="6.68117">
        <ele>306.083</ele>
        <time>2015-10-02T08:55:33Z</time>
      </trkpt>
      <trkpt lat="47.45058" lon="6.68111">
        <ele>305.934</ele>
        <time>2015-10-02T08:55:34Z</time>
      </trkpt>
      <trkpt lat="47.45057" lon="6.68105">
        <ele>305.891</ele>
        <time>2015-10-02T08:55:35Z</time>
      </trkpt>
      <trkpt lat="47.45055" lon="6.68099">
        <ele>306.488</ele>
        <time>2015-10-02T08:55:36Z</time>
      </trkpt>
      <trkpt lat="47.45053" lon="6.68093">
        <ele>306.873</ele>
        <time>2015-10-02T08:55:37Z</time>
      </trkpt>
      <trkpt lat="47.45051" lon="6.68086">
        <ele>307.167</ele>
        <time>2015-10-02T08:55:38Z</time>
      </trkpt>
      <trkpt lat="47.4505" lon="6.6808">
        <ele>307.173</ele>
        <time>2015-10-02T08:55:39Z</time>
      </trkpt>
      <trkpt lat="47.45048" lon="6.68074">
        <ele>307.367</ele>
        <time>2015-10-02T08:55:40Z</time>
      </trkpt>
      <trkpt lat="47.45046" lon="6.68067">
        <ele>307.92</ele>
        <time>2015-10-02T08:55:41Z</time>
      </trkpt>
      <trkpt lat="47.45044" lon="6.68061">
        <ele>307.96</ele>
        <time>2015-10-02T08:55:42Z</time>
      </trkpt>
      <trkpt lat="47.45043" lon="6.68054">
        <ele>307.535</ele>
        <time>2015-10-02T08:55:43Z</time>
      </trkpt>
      <trkpt lat="47.45042" lon="6.68047">
        <ele>308.187</ele>
        <time>2015-10-02T08:55:44Z</time>
      </trkpt>
      <trkpt lat="47.45041" lon="6.68041">
        <ele>309.497</ele>
        <time>2015-10-02T08:55:45Z</time>
      </trkpt>
      <trkpt lat="47.45039" lon="6.68034">
        <ele>309.546</ele>
        <time>2015-10-02T08:55:46Z</time>
      </trkpt>
      <trkpt lat="47.45038" lon="6.68028">
        <ele>309.853</ele>
        <time>2015-10-02T08:55:47Z</time>
      </trkpt>
      <trkpt lat="47.45036" lon="6.68022">
        <ele>310.207</ele>
        <time>2015-10-02T08:55:48Z</time>
      </trkpt>
      <trkpt lat="47.45035" lon="6.68015">
        <ele>309.931</ele>
        <time>2015-10-02T08:55:49Z</time>
      </trkpt>
      <trkpt lat="47.45034" lon="6.68008">
        <ele>310.018</ele>
        <time>2015-10-02T08:55:50Z</time>
      </trkpt>
      <trkpt lat="47.45033" lon="6.68001">
        <ele>309.778</ele>
        <time>2015-10-02T08:55:51Z</time>
      </trkpt>
      <trkpt lat="47.45031" lon="6.67995">
        <ele>309.939</ele>
        <time>2015-10-02T08:55:52Z</time>
      </trkpt>
      <trkpt lat="47.45031" lon="6.67989">
        <ele>309.432</ele>
        <time>2015-10-02T08:55:53Z</time>
      </trkpt>
      <trkpt lat="47.4503" lon="6.67984">
        <ele>310.255</ele>
        <time>2015-10-02T08:55:54Z</time>
      </trkpt>
      <trkpt lat="47.45029" lon="6.67978">
        <ele>310.431</ele>
        <time>2015-10-02T08:55:55Z</time>
      </trkpt>
      <trkpt lat="47.45028" lon="6.67971">
        <ele>309.743</ele>
        <time>2015-10-02T08:55:56Z</time>
      </trkpt>
      <trkpt lat="47.45026" lon="6.67965">
        <ele>310.646</ele>
        <time>2015-10-02T08:55:57Z</time>
      </trkpt>
      <trkpt lat="47.45025" lon="6.67958">
        <ele>310.752</ele>
        <time>2015-10-02T08:55:58Z</time>
      </trkpt>
      <trkpt lat="47.45024" lon="6.67952">
        <ele>310.734</ele>
        <time>2015-10-02T08:55:59Z</time>
      </trkpt>
      <trkpt lat="47.45023" lon="6.67946">
        <ele>310.691</ele>
        <time>2015-10-02T08:56:00Z</time>
      </trkpt>
      <trkpt lat="47.45023" lon="6.67939">
        <ele>311.28</ele>
        <time>2015-10-02T08:56:01Z</time>
      </trkpt>
      <trkpt lat="47.45022" lon="6.67933">
        <ele>311.116</ele>
        <time>2015-10-02T08:56:02Z</time>
      </trkpt>
      <trkpt lat="47.45021" lon="6.67927">
        <ele>310.494</ele>
        <time>2015-10-02T08:56:03Z</time>
      </trkpt>
      <trkpt lat="47.4502" lon="6.6792">
        <ele>310.754</ele>
        <time>2015-10-02T08:56:04Z</time>
      </trkpt>
      <trkpt lat="47.45019" lon="6.67914">
        <ele>310.827</ele>
        <time>2015-10-02T08:56:05Z</time>
      </trkpt>
      <trkpt lat="47.45018" lon="6.67907">
        <ele>309.333</ele>
        <time>2015-10-02T08:56:06Z</time>
      </trkpt>
      <trkpt lat="47.45017" lon="6.67901">
        <ele>308.988</ele>
        <time>2015-10-02T08:56:07Z</time>
      </trkpt>
      <trkpt lat="47.45016" lon="6.67894">
        <ele>308.843</ele>
        <time>2015-10-02T08:56:08Z</time>
      </trkpt>
      <trkpt lat="47.45015" lon="6.67888">
        <ele>309.26</ele>
        <time>2015-10-02T08:56:09Z</time>
      </trkpt>
      <trkpt lat="47.45014" lon="6.67881">
        <ele>308.948</ele>
        <time>2015-10-02T08:56:10Z</time>
      </trkpt>
      <trkpt lat="47.45013" lon="6.67875">
        <ele>308.61</ele>
        <time>2015-10-02T08:56:11Z</time>
      </trkpt>
      <trkpt lat="47.45012" lon="6.67869">
        <ele>308.389</ele>
        <time>2015-10-02T08:56:12Z</time>
      </trkpt>
      <trkpt lat="47.45011" lon="6.67862">
        <ele>307.807</ele>
        <time>2015-10-02T08:56:13Z</time>
      </trkpt>
      <trkpt lat="47.4501" lon="6.67856">
        <ele>307.61</ele>
        <time>2015-10-02T08:56:14Z</time>
      </trkpt>
      <trkpt lat="47.4501" lon="6.67849">
        <ele>308.032</ele>
        <time>2015-10-02T08:56:15Z</time>
      </trkpt>
      <trkpt lat="47.45009" lon="6.67843">
        <ele>308.628</ele>
        <time>2015-10-02T08:56:16Z</time>
      </trkpt>
      <trkpt lat="47.45009" lon="6.67837">
        <ele>308.815</ele>
        <time>2015-10-02T08:56:17Z</time>
      </trkpt>
      <trkpt lat="47.45008" lon="6.6783">
        <ele>308.731</ele>
        <time>2015-10-02T08:56:18Z</time>
      </trkpt>
      <trkpt lat="47.45008" lon="6.67823">
        <ele>308.985</ele>
        <time>2015-10-02T08:56:19Z</time>
      </trkpt>
      <trkpt lat="47.45007" lon="6.67817">
        <ele>308.62</ele>
        <time>2015-10-02T08:56:20Z</time>
      </trkpt>
      <trkpt lat="47.45006" lon="6.6781">
        <ele>308.806</ele>
        <time>2015-10-02T08:56:21Z</time>
      </trkpt>
      <trkpt lat="47.45006" lon="6.67803">
        <ele>308.825</ele>
        <time>2015-10-02T08:56:22Z</time>
      </trkpt>
      <trkpt lat="47.45005" lon="6.67796">
        <ele>309.049</ele>
        <time>2015-10-02T08:56:23Z</time>
      </trkpt>
      <trkpt lat="47.45005" lon="6.6779">
        <ele>309.458</ele>
        <time>2015-10-02T08:56:24Z</time>
      </trkpt>
      <trkpt lat="47.45004" lon="6.67784">
        <ele>310.14</ele>
        <time>2015-10-02T08:56:25Z</time>
      </trkpt>
      <trkpt lat="47.45004" lon="6.67777">
        <ele>309.544</ele>
        <time>2015-10-02T08:56:26Z</time>
      </trkpt>
      <trkpt lat="47.45003" lon="6.67771">
        <ele>309.333</ele>
        <time>2015-10-02T08:56:27Z</time>
      </trkpt>
      <trkpt lat="47.45003" lon="6.67765">
        <ele>309.655</ele>
        <time>2015-10-02T08:56:28Z</time>
      </trkpt>
      <trkpt lat="47.45002" lon="6.67758">
        <ele>309.062</ele>
        <time>2015-10-02T08:56:29Z</time>
      </trkpt>
      <trkpt lat="47.45001" lon="6.67752">
        <ele>310.067</ele>
        <time>2015-10-02T08:56:30Z</time>
      </trkpt>
      <trkpt lat="47.45001" lon="6.67746">
        <ele>310.114</ele>
        <time>2015-10-02T08:56:31Z</time>
      </trkpt>
      <trkpt lat="47.45" lon="6.6774">
        <ele>309.848</ele>
        <time>2015-10-02T08:56:32Z</time>
      </trkpt>
      <trkpt lat="47.45" lon="6.67733">
        <ele>310.538</ele>
        <time>2015-10-02T08:56:33Z</time>
      </trkpt>
      <trkpt lat="47.44999" lon="6.67727">
        <ele>310.515</ele>
        <time>2015-10-02T08:56:34Z</time>
      </trkpt>
      <trkpt lat="47.44999" lon="6.67721">
        <ele>310.722</ele>
        <time>2015-10-02T08:56:35Z</time>
      </trkpt>
      <trkpt lat="47.44998" lon="6.67715">
        <ele>311.9</ele>
        <time>2015-10-02T08:56:36Z</time>
      </trkpt>
      <trkpt lat="47.44998" lon="6.67709">
        <ele>311.864</ele>
        <time>2015-10-02T08:56:37Z</time>
      </trkpt>
      <trkpt lat="47.44997" lon="6.67703">
        <ele>311.633</ele>
        <time>2015-10-02T08:56:38Z</time>
      </trkpt>
      <trkpt lat="47.44997" lon="6.67697">
        <ele>311.117</ele>
        <time>2015-10-02T08:56:39Z</time>
      </trkpt>
      <trkpt lat="47.44996" lon="6.67691">
        <ele>310.456</ele>
        <time>2015-10-02T08:56:40Z</time>
      </trkpt>
      <trkpt lat="47.44996" lon="6.67685">
        <ele>309.854</ele>
        <time>2015-10-02T08:56:41Z</time>
      </trkpt>
      <trkpt lat="47.44996" lon="6.67679">
        <ele>309.942</ele>
        <time>2015-10-02T08:56:42Z</time>
      </trkpt>
      <trkpt lat="47.44995" lon="6.67673">
        <ele>309.344</ele>
        <time>2015-10-02T08:56:43Z</time>
      </trkpt>
      <trkpt lat="47.44995" lon="6.67667">
        <ele>309.554</ele>
        <time>2015-10-02T08:56:44Z</time>
      </trkpt>
      <trkpt lat="47.44994" lon="6.6766">
        <ele>309.291</ele>
        <time>2015-10-02T08:56:45Z</time>
      </trkpt>
      <trkpt lat="47.44994" lon="6.67654">
        <ele>308.911</ele>
        <time>2015-10-02T08:56:46Z</time>
      </trkpt>
      <trkpt lat="47.44994" lon="6.67648">
        <ele>308.151</ele>
        <time>2015-10-02T08:56:47Z</time>
      </trkpt>
      <trkpt lat="47.44993" lon="6.67641">
        <ele>307.656</ele>
        <time>2015-10-02T08:56:48Z</time>
      </trkpt>
      <trkpt lat="47.44993" lon="6.67635">
        <ele>307.709</ele>
        <time>2015-10-02T08:56:49Z</time>
      </trkpt>
      <trkpt lat="47.44992" lon="6.67627">
        <ele>307.496</ele>
        <time>2015-10-02T08:56:50Z</time>
      </trkpt>
      <trkpt lat="47.44992" lon="6.67619">
        <ele>306.814</ele>
        <time>2015-10-02T08:56:51Z</time>
      </trkpt>
      <trkpt lat="47.44991" lon="6.67611">
        <ele>306.509</ele>
        <time>2015-10-02T08:56:52Z</time>
      </trkpt>
      <trkpt lat="47.44991" lon="6.67603">
        <ele>307.397</ele>
        <time>2015-10-02T08:56:53Z</time>
      </trkpt>
      <trkpt lat="47.4499" lon="6.67595">
        <ele>307.693</ele>
        <time>2015-10-02T08:56:54Z</time>
      </trkpt>
      <trkpt lat="47.44991" lon="6.67586">
        <ele>305.722</ele>
        <time>2015-10-02T08:56:55Z</time>
      </trkpt>
      <trkpt lat="47.44992" lon="6.67578">
        <ele>305.223</ele>
        <time>2015-10-02T08:56:56Z</time>
      </trkpt>
      <trkpt lat="47.44991" lon="6.6757">
        <ele>305.883</ele>
        <time>2015-10-02T08:56:57Z</time>
      </trkpt>
      <trkpt lat="47.44992" lon="6.67562">
        <ele>304.61</ele>
        <time>2015-10-02T08:56:58Z</time>
      </trkpt>
      <trkpt lat="47.44991" lon="6.67555">
        <ele>304.437</ele>
        <time>2015-10-02T08:56:59Z</time>
      </trkpt>
      <trkpt lat="47.44991" lon="6.67547">
        <ele>304.635</ele>
        <time>2015-10-02T08:57:00Z</time>
      </trkpt>
      <trkpt lat="47.44993" lon="6.67541">
        <ele>304.315</ele>
        <time>2015-10-02T08:57:01Z</time>
      </trkpt>
      <trkpt lat="47.44995" lon="6.67534">
        <ele>303.904</ele>
        <time>2015-10-02T08:57:02Z</time>
      </trkpt>
      <trkpt lat="47.44994" lon="6.67527">
        <ele>303.882</ele>
        <time>2015-10-02T08:57:03Z</time>
      </trkpt>
      <trkpt lat="47.44992" lon="6.67521">
        <ele>303.795</ele>
        <time>2015-10-02T08:57:04Z</time>
      </trkpt>
      <trkpt lat="47.44991" lon="6.67514">
        <ele>303.925</ele>
        <time>2015-10-02T08:57:05Z</time>
      </trkpt>
      <trkpt lat="47.4499" lon="6.67505">
        <ele>303.273</ele>
        <time>2015-10-02T08:57:06Z</time>
      </trkpt>
      <trkpt lat="47.44989" lon="6.67496">
        <ele>301.673</ele>
        <time>2015-10-02T08:57:07Z</time>
      </trkpt>
      <trkpt lat="47.44989" lon="6.67487">
        <ele>302.231</ele>
        <time>2015-10-02T08:57:08Z</time>
      </trkpt>
      <trkpt lat="47.44988" lon="6.67478">
        <ele>302.774</ele>
        <time>2015-10-02T08:57:09Z</time>
      </trkpt>
      <trkpt lat="47.44987" lon="6.67466">
        <ele>302.26</ele>
        <time>2015-10-02T08:57:10Z</time>
      </trkpt>
      <trkpt lat="47.44987" lon="6.67456">
        <ele>302.607</ele>
        <time>2015-10-02T08:57:11Z</time>
      </trkpt>
      <trkpt lat="47.44986" lon="6.67447">
        <ele>302.421</ele>
        <time>2015-10-02T08:57:12Z</time>
      </trkpt>
      <trkpt lat="47.44984" lon="6.67437">
        <ele>302.012</ele>
        <time>2015-10-02T08:57:13Z</time>
      </trkpt>
      <trkpt lat="47.44983" lon="6.67427">
        <ele>301.859</ele>
        <time>2015-10-02T08:57:14Z</time>
      </trkpt>
      <trkpt lat="47.44983" lon="6.67418">
        <ele>302.148</ele>
        <time>2015-10-02T08:57:15Z</time>
      </trkpt>
      <trkpt lat="47.44983" lon="6.67409">
        <ele>302.5</ele>
        <time>2015-10-02T08:57:16Z</time>
      </trkpt>
      <trkpt lat="47.44982" lon="6.674">
        <ele>302.459</ele>
        <time>2015-10-02T08:57:17Z</time>
      </trkpt>
      <trkpt lat="47.44983" lon="6.67392">
        <ele>302.195</ele>
        <time>2015-10-02T08:57:18Z</time>
      </trkpt>
      <trkpt lat="47.44984" lon="6.67382">
        <ele>300.662</ele>
        <time>2015-10-02T08:57:19Z</time>
      </trkpt>
      <trkpt lat="47.44983" lon="6.67374">
        <ele>300.627</ele>
        <time>2015-10-02T08:57:20Z</time>
      </trkpt>
      <trkpt lat="47.44982" lon="6.67366">
        <ele>300.751</ele>
        <time>2015-10-02T08:57:21Z</time>
      </trkpt>
      <trkpt lat="47.4498" lon="6.67357">
        <ele>300.9</ele>
        <time>2015-10-02T08:57:22Z</time>
      </trkpt>
      <trkpt lat="47.44979" lon="6.67349">
        <ele>301.201</ele>
        <time>2015-10-02T08:57:23Z</time>
      </trkpt>
      <trkpt lat="47.44978" lon="6.67341">
        <ele>301.152</ele>
        <time>2015-10-02T08:57:24Z</time>
      </trkpt>
      <trkpt lat="47.44978" lon="6.67333">
        <ele>301.751</ele>
        <time>2015-10-02T08:57:25Z</time>
      </trkpt>
      <trkpt lat="47.44975" lon="6.67325">
        <ele>303.967</ele>
        <time>2015-10-02T08:57:26Z</time>
      </trkpt>
      <trkpt lat="47.44974" lon="6.67317">
        <ele>304.491</ele>
        <time>2015-10-02T08:57:27Z</time>
      </trkpt>
      <trkpt lat="47.44973" lon="6.6731">
        <ele>304.509</ele>
        <time>2015-10-02T08:57:28Z</time>
      </trkpt>
      <trkpt lat="47.44972" lon="6.67302">
        <ele>304.396</ele>
        <time>2015-10-02T08:57:29Z</time>
      </trkpt>
      <trkpt lat="47.44971" lon="6.67294">
        <ele>303.936</ele>
        <time>2015-10-02T08:57:30Z</time>
      </trkpt>
      <trkpt lat="47.4497" lon="6.67288">
        <ele>303.375</ele>
        <time>2015-10-02T08:57:31Z</time>
      </trkpt>
      <trkpt lat="47.4497" lon="6.6728">
        <ele>303.608</ele>
        <time>2015-10-02T08:57:32Z</time>
      </trkpt>
      <trkpt lat="47.44971" lon="6.67273">
        <ele>304.256</ele>
        <time>2015-10-02T08:57:33Z</time>
      </trkpt>
      <trkpt lat="47.4497" lon="6.67266">
        <ele>304.403</ele>
        <time>2015-10-02T08:57:34Z</time>
      </trkpt>
      <trkpt lat="47.44969" lon="6.67259">
        <ele>304.317</ele>
        <time>2015-10-02T08:57:35Z</time>
      </trkpt>
      <trkpt lat="47.44965" lon="6.67252">
        <ele>302.792</ele>
        <time>2015-10-02T08:57:36Z</time>
      </trkpt>
      <trkpt lat="47.44965" lon="6.67245">
        <ele>302.547</ele>
        <time>2015-10-02T08:57:37Z</time>
      </trkpt>
      <trkpt lat="47.44965" lon="6.67238">
        <ele>302.821</ele>
        <time>2015-10-02T08:57:38Z</time>
      </trkpt>
      <trkpt lat="47.44966" lon="6.67231">
        <ele>303.522</ele>
        <time>2015-10-02T08:57:39Z</time>
      </trkpt>
      <trkpt lat="47.44966" lon="6.67224">
        <ele>304.011</ele>
        <time>2015-10-02T08:57:40Z</time>
      </trkpt>
      <trkpt lat="47.44965" lon="6.67218">
        <ele>304.182</ele>
        <time>2015-10-02T08:57:41Z</time>
      </trkpt>
      <trkpt lat="47.44965" lon="6.6721">
        <ele>304.251</ele>
        <time>2015-10-02T08:57:42Z</time>
      </trkpt>
      <trkpt lat="47.44963" lon="6.67203">
        <ele>303.281</ele>
        <time>2015-10-02T08:57:43Z</time>
      </trkpt>
      <trkpt lat="47.44964" lon="6.67196">
        <ele>303.657</ele>
        <time>2015-10-02T08:57:44Z</time>
      </trkpt>
      <trkpt lat="47.44963" lon="6.67189">
        <ele>303.039</ele>
        <time>2015-10-02T08:57:45Z</time>
      </trkpt>
      <trkpt lat="47.44963" lon="6.67182">
        <ele>302.989</ele>
        <time>2015-10-02T08:57:46Z</time>
      </trkpt>
      <trkpt lat="47.44963" lon="6.67176">
        <ele>303.941</ele>
        <time>2015-10-02T08:57:47Z</time>
      </trkpt>
      <trkpt lat="47.44962" lon="6.67168">
        <ele>302.734</ele>
        <time>2015-10-02T08:57:48Z</time>
      </trkpt>
      <trkpt lat="47.44962" lon="6.67161">
        <ele>302.876</ele>
        <time>2015-10-02T08:57:49Z</time>
      </trkpt>
      <trkpt lat="47.44962" lon="6.67154">
        <ele>303.402</ele>
        <time>2015-10-02T08:57:50Z</time>
      </trkpt>
      <trkpt lat="47.44959" lon="6.67147">
        <ele>302.319</ele>
        <time>2015-10-02T08:57:51Z</time>
      </trkpt>
      <trkpt lat="47.44958" lon="6.6714">
        <ele>301.767</ele>
        <time>2015-10-02T08:57:52Z</time>
      </trkpt>
      <trkpt lat="47.44958" lon="6.67133">
        <ele>301.972</ele>
        <time>2015-10-02T08:57:53Z</time>
      </trkpt>
      <trkpt lat="47.44959" lon="6.67127">
        <ele>301.903</ele>
        <time>2015-10-02T08:57:54Z</time>
      </trkpt>
      <trkpt lat="47.44957" lon="6.6712">
        <ele>302.258</ele>
        <time>2015-10-02T08:57:55Z</time>
      </trkpt>
      <trkpt lat="47.44956" lon="6.67113">
        <ele>300.993</ele>
        <time>2015-10-02T08:57:56Z</time>
      </trkpt>
      <trkpt lat="47.44956" lon="6.67105">
        <ele>301.017</ele>
        <time>2015-10-02T08:57:57Z</time>
      </trkpt>
      <trkpt lat="47.44955" lon="6.67099">
        <ele>301.323</ele>
        <time>2015-10-02T08:57:58Z</time>
      </trkpt>
      <trkpt lat="47.44955" lon="6.67091">
        <ele>301.498</ele>
        <time>2015-10-02T08:57:59Z</time>
      </trkpt>
      <trkpt lat="47.44956" lon="6.67085">
        <ele>300.46</ele>
        <time>2015-10-02T08:58:00Z</time>
      </trkpt>
      <trkpt lat="47.44955" lon="6.67078">
        <ele>300.116</ele>
        <time>2015-10-02T08:58:01Z</time>
      </trkpt>
      <trkpt lat="47.44954" lon="6.6707">
        <ele>300.393</ele>
        <time>2015-10-02T08:58:02Z</time>
      </trkpt>
      <trkpt lat="47.44954" lon="6.67064">
        <ele>300.468</ele>
        <time>2015-10-02T08:58:03Z</time>
      </trkpt>
      <trkpt lat="47.44954" lon="6.67057">
        <ele>299.786</ele>
        <time>2015-10-02T08:58:04Z</time>
      </trkpt>
      <trkpt lat="47.44952" lon="6.6705">
        <ele>298.836</ele>
        <time>2015-10-02T08:58:05Z</time>
      </trkpt>
      <trkpt lat="47.44951" lon="6.67043">
        <ele>298.534</ele>
        <time>2015-10-02T08:58:06Z</time>
      </trkpt>
      <trkpt lat="47.44952" lon="6.67036">
        <ele>298.731</ele>
        <time>2015-10-02T08:58:07Z</time>
      </trkpt>
      <trkpt lat="47.44949" lon="6.67028">
        <ele>296.999</ele>
        <time>2015-10-02T08:58:08Z</time>
      </trkpt>
      <trkpt lat="47.44948" lon="6.67022">
        <ele>297.358</ele>
        <time>2015-10-02T08:58:09Z</time>
      </trkpt>
      <trkpt lat="47.44948" lon="6.67015">
        <ele>297.921</ele>
        <time>2015-10-02T08:58:10Z</time>
      </trkpt>
      <trkpt lat="47.44948" lon="6.67009">
        <ele>298.647</ele>
        <time>2015-10-02T08:58:11Z</time>
      </trkpt>
      <trkpt lat="47.44947" lon="6.67002">
        <ele>298.335</ele>
        <time>2015-10-02T08:58:12Z</time>
      </trkpt>
      <trkpt lat="47.44947" lon="6.66995">
        <ele>298.849</ele>
        <time>2015-10-02T08:58:13Z</time>
      </trkpt>
      <trkpt lat="47.44946" lon="6.66988">
        <ele>298.98</ele>
        <time>2015-10-02T08:58:14Z</time>
      </trkpt>
      <trkpt lat="47.44946" lon="6.6698">
        <ele>299.411</ele>
        <time>2015-10-02T08:58:15Z</time>
      </trkpt>
      <trkpt lat="47.44946" lon="6.66973">
        <ele>300.134</ele>
        <time>2015-10-02T08:58:16Z</time>
      </trkpt>
      <trkpt lat="47.44943" lon="6.66965">
        <ele>298.625</ele>
        <time>2015-10-02T08:58:17Z</time>
      </trkpt>
      <trkpt lat="47.44941" lon="6.66958">
        <ele>298.633</ele>
        <time>2015-10-02T08:58:18Z</time>
      </trkpt>
      <trkpt lat="47.44941" lon="6.66952">
        <ele>299.032</ele>
        <time>2015-10-02T08:58:19Z</time>
      </trkpt>
      <trkpt lat="47.44941" lon="6.66945">
        <ele>299.403</ele>
        <time>2015-10-02T08:58:20Z</time>
      </trkpt>
      <trkpt lat="47.4494" lon="6.66939">
        <ele>299.302</ele>
        <time>2015-10-02T08:58:21Z</time>
      </trkpt>
      <trkpt lat="47.4494" lon="6.66933">
        <ele>299.606</ele>
        <time>2015-10-02T08:58:22Z</time>
      </trkpt>
      <trkpt lat="47.44937" lon="6.66926">
        <ele>301.931</ele>
        <time>2015-10-02T08:58:23Z</time>
      </trkpt>
      <trkpt lat="47.44936" lon="6.66919">
        <ele>302.819</ele>
        <time>2015-10-02T08:58:24Z</time>
      </trkpt>
      <trkpt lat="47.44936" lon="6.66912">
        <ele>303.278</ele>
        <time>2015-10-02T08:58:25Z</time>
      </trkpt>
      <trkpt lat="47.44935" lon="6.66904">
        <ele>303.36</ele>
        <time>2015-10-02T08:58:26Z</time>
      </trkpt>
      <trkpt lat="47.44937" lon="6.66897">
        <ele>303.376</ele>
        <time>2015-10-02T08:58:27Z</time>
      </trkpt>
      <trkpt lat="47.44938" lon="6.66889">
        <ele>302.681</ele>
        <time>2015-10-02T08:58:28Z</time>
      </trkpt>
      <trkpt lat="47.44937" lon="6.66882">
        <ele>302.797</ele>
        <time>2015-10-02T08:58:29Z</time>
      </trkpt>
      <trkpt lat="47.44937" lon="6.66875">
        <ele>303.233</ele>
        <time>2015-10-02T08:58:30Z</time>
      </trkpt>
      <trkpt lat="47.44937" lon="6.66868">
        <ele>303.785</ele>
        <time>2015-10-02T08:58:31Z</time>
      </trkpt>
      <trkpt lat="47.44936" lon="6.66861">
        <ele>304.159</ele>
        <time>2015-10-02T08:58:32Z</time>
      </trkpt>
      <trkpt lat="47.44935" lon="6.66855">
        <ele>305.266</ele>
        <time>2015-10-02T08:58:33Z</time>
      </trkpt>
      <trkpt lat="47.44935" lon="6.66848">
        <ele>305.597</ele>
        <time>2015-10-02T08:58:34Z</time>
      </trkpt>
      <trkpt lat="47.44934" lon="6.66841">
        <ele>305.62</ele>
        <time>2015-10-02T08:58:35Z</time>
      </trkpt>
      <trkpt lat="47.44934" lon="6.66834">
        <ele>305.864</ele>
        <time>2015-10-02T08:58:36Z</time>
      </trkpt>
      <trkpt lat="47.44932" lon="6.66826">
        <ele>304.756</ele>
        <time>2015-10-02T08:58:37Z</time>
      </trkpt>
      <trkpt lat="47.44931" lon="6.6682">
        <ele>304.816</ele>
        <time>2015-10-02T08:58:38Z</time>
      </trkpt>
      <trkpt lat="47.4493" lon="6.66813">
        <ele>304.764</ele>
        <time>2015-10-02T08:58:39Z</time>
      </trkpt>
      <trkpt lat="47.44931" lon="6.66806">
        <ele>305.107</ele>
        <time>2015-10-02T08:58:40Z</time>
      </trkpt>
      <trkpt lat="47.44931" lon="6.668">
        <ele>305.457</ele>
        <time>2015-10-02T08:58:41Z</time>
      </trkpt>
      <trkpt lat="47.44932" lon="6.66793">
        <ele>305.737</ele>
        <time>2015-10-02T08:58:42Z</time>
      </trkpt>
      <trkpt lat="47.44932" lon="6.66784">
        <ele>306.027</ele>
        <time>2015-10-02T08:58:43Z</time>
      </trkpt>
      <trkpt lat="47.44927" lon="6.66776">
        <ele>305.759</ele>
        <time>2015-10-02T08:58:44Z</time>
      </trkpt>
      <trkpt lat="47.44926" lon="6.6677">
        <ele>305.86</ele>
        <time>2015-10-02T08:58:45Z</time>
      </trkpt>
      <trkpt lat="47.44925" lon="6.66763">
        <ele>305.357</ele>
        <time>2015-10-02T08:58:46Z</time>
      </trkpt>
      <trkpt lat="47.44925" lon="6.66757">
        <ele>305.396</ele>
        <time>2015-10-02T08:58:47Z</time>
      </trkpt>
      <trkpt lat="47.44925" lon="6.66752">
        <ele>307.953</ele>
        <time>2015-10-02T08:58:48Z</time>
      </trkpt>
      <trkpt lat="47.44926" lon="6.66744">
        <ele>307.072</ele>
        <time>2015-10-02T08:58:49Z</time>
      </trkpt>
      <trkpt lat="47.44925" lon="6.66737">
        <ele>305.406</ele>
        <time>2015-10-02T08:58:50Z</time>
      </trkpt>
      <trkpt lat="47.44924" lon="6.6673">
        <ele>306.422</ele>
        <time>2015-10-02T08:58:51Z</time>
      </trkpt>
      <trkpt lat="47.44924" lon="6.66723">
        <ele>306.825</ele>
        <time>2015-10-02T08:58:52Z</time>
      </trkpt>
      <trkpt lat="47.44923" lon="6.66717">
        <ele>307</ele>
        <time>2015-10-02T08:58:53Z</time>
      </trkpt>
      <trkpt lat="47.44922" lon="6.66711">
        <ele>306.875</ele>
        <time>2015-10-02T08:58:54Z</time>
      </trkpt>
      <trkpt lat="47.44921" lon="6.66703">
        <ele>306.396</ele>
        <time>2015-10-02T08:58:55Z</time>
      </trkpt>
      <trkpt lat="47.44922" lon="6.66696">
        <ele>305.619</ele>
        <time>2015-10-02T08:58:56Z</time>
      </trkpt>
      <trkpt lat="47.4492" lon="6.6669">
        <ele>307.763</ele>
        <time>2015-10-02T08:58:57Z</time>
      </trkpt>
      <trkpt lat="47.44918" lon="6.66682">
        <ele>306.641</ele>
        <time>2015-10-02T08:58:58Z</time>
      </trkpt>
      <trkpt lat="47.44918" lon="6.66676">
        <ele>306.777</ele>
        <time>2015-10-02T08:58:59Z</time>
      </trkpt>
      <trkpt lat="47.44918" lon="6.66668">
        <ele>307.1</ele>
        <time>2015-10-02T08:59:00Z</time>
      </trkpt>
      <trkpt lat="47.44918" lon="6.66662">
        <ele>306.675</ele>
        <time>2015-10-02T08:59:01Z</time>
      </trkpt>
      <trkpt lat="47.44917" lon="6.66655">
        <ele>307.501</ele>
        <time>2015-10-02T08:59:02Z</time>
      </trkpt>
      <trkpt lat="47.44917" lon="6.66648">
        <ele>307.44</ele>
        <time>2015-10-02T08:59:03Z</time>
      </trkpt>
      <trkpt lat="47.44916" lon="6.66642">
        <ele>307.768</ele>
        <time>2015-10-02T08:59:04Z</time>
      </trkpt>
      <trkpt lat="47.44915" lon="6.66636">
        <ele>308.864</ele>
        <time>2015-10-02T08:59:05Z</time>
      </trkpt>
      <trkpt lat="47.44915" lon="6.66629">
        <ele>309.385</ele>
        <time>2015-10-02T08:59:06Z</time>
      </trkpt>
      <trkpt lat="47.44915" lon="6.66621">
        <ele>309.064</ele>
        <time>2015-10-02T08:59:07Z</time>
      </trkpt>
      <trkpt lat="47.44914" lon="6.66614">
        <ele>309.382</ele>
        <time>2015-10-02T08:59:08Z</time>
      </trkpt>
      <trkpt lat="47.44914" lon="6.66608">
        <ele>309.524</ele>
        <time>2015-10-02T08:59:09Z</time>
      </trkpt>
      <trkpt lat="47.44914" lon="6.66601">
        <ele>309.557</ele>
        <time>2015-10-02T08:59:10Z</time>
      </trkpt>
      <trkpt lat="47.44914" lon="6.66595">
        <ele>309.567</ele>
        <time>2015-10-02T08:59:11Z</time>
      </trkpt>
      <trkpt lat="47.44914" lon="6.66588">
        <ele>309.591</ele>
        <time>2015-10-02T08:59:12Z</time>
      </trkpt>
      <trkpt lat="47.44914" lon="6.66581">
        <ele>309.403</ele>
        <time>2015-10-02T08:59:13Z</time>
      </trkpt>
      <trkpt lat="47.44914" lon="6.66574">
        <ele>308.997</ele>
        <time>2015-10-02T08:59:14Z</time>
      </trkpt>
      <trkpt lat="47.44913" lon="6.66568">
        <ele>308.926</ele>
        <time>2015-10-02T08:59:15Z</time>
      </trkpt>
      <trkpt lat="47.44913" lon="6.66561">
        <ele>308.838</ele>
        <time>2015-10-02T08:59:16Z</time>
      </trkpt>
      <trkpt lat="47.44913" lon="6.66555">
        <ele>310.133</ele>
        <time>2015-10-02T08:59:17Z</time>
      </trkpt>
      <trkpt lat="47.44913" lon="6.66548">
        <ele>310.417</ele>
        <time>2015-10-02T08:59:18Z</time>
      </trkpt>
      <trkpt lat="47.44912" lon="6.66542">
        <ele>310.515</ele>
        <time>2015-10-02T08:59:19Z</time>
      </trkpt>
      <trkpt lat="47.44913" lon="6.66535">
        <ele>310.751</ele>
        <time>2015-10-02T08:59:20Z</time>
      </trkpt>
      <trkpt lat="47.44912" lon="6.66528">
        <ele>311.169</ele>
        <time>2015-10-02T08:59:21Z</time>
      </trkpt>
      <trkpt lat="47.44912" lon="6.66521">
        <ele>311.497</ele>
        <time>2015-10-02T08:59:22Z</time>
      </trkpt>
      <trkpt lat="47.44911" lon="6.66515">
        <ele>311.279</ele>
        <time>2015-10-02T08:59:23Z</time>
      </trkpt>
      <trkpt lat="47.44911" lon="6.66508">
        <ele>311.744</ele>
        <time>2015-10-02T08:59:24Z</time>
      </trkpt>
      <trkpt lat="47.44911" lon="6.66501">
        <ele>310.714</ele>
        <time>2015-10-02T08:59:25Z</time>
      </trkpt>
      <trkpt lat="47.4491" lon="6.66495">
        <ele>309.937</ele>
        <time>2015-10-02T08:59:26Z</time>
      </trkpt>
      <trkpt lat="47.4491" lon="6.66488">
        <ele>310.242</ele>
        <time>2015-10-02T08:59:27Z</time>
      </trkpt>
      <trkpt lat="47.44909" lon="6.66481">
        <ele>311.084</ele>
        <time>2015-10-02T08:59:28Z</time>
      </trkpt>
      <trkpt lat="47.44907" lon="6.66475">
        <ele>310.714</ele>
        <time>2015-10-02T08:59:29Z</time>
      </trkpt>
      <trkpt lat="47.44902" lon="6.66467">
        <ele>307.836</ele>
        <time>2015-10-02T08:59:30Z</time>
      </trkpt>
      <trkpt lat="47.44902" lon="6.6646">
        <ele>307.809</ele>
        <time>2015-10-02T08:59:31Z</time>
      </trkpt>
      <trkpt lat="47.44902" lon="6.66454">
        <ele>308.362</ele>
        <time>2015-10-02T08:59:32Z</time>
      </trkpt>
      <trkpt lat="47.44901" lon="6.66447">
        <ele>307.516</ele>
        <time>2015-10-02T08:59:33Z</time>
      </trkpt>
      <trkpt lat="47.449" lon="6.6644">
        <ele>307.388</ele>
        <time>2015-10-02T08:59:34Z</time>
      </trkpt>
      <trkpt lat="47.449" lon="6.66433">
        <ele>307.318</ele>
        <time>2015-10-02T08:59:35Z</time>
      </trkpt>
      <trkpt lat="47.44899" lon="6.66426">
        <ele>307.642</ele>
        <time>2015-10-02T08:59:36Z</time>
      </trkpt>
      <trkpt lat="47.44898" lon="6.6642">
        <ele>308.216</ele>
        <time>2015-10-02T08:59:37Z</time>
      </trkpt>
      <trkpt lat="47.44897" lon="6.66413">
        <ele>307.617</ele>
        <time>2015-10-02T08:59:38Z</time>
      </trkpt>
      <trkpt lat="47.44897" lon="6.66406">
        <ele>308.146</ele>
        <time>2015-10-02T08:59:39Z</time>
      </trkpt>
      <trkpt lat="47.44897" lon="6.664">
        <ele>308.04</ele>
        <time>2015-10-02T08:59:40Z</time>
      </trkpt>
      <trkpt lat="47.44896" lon="6.66393">
        <ele>307.741</ele>
        <time>2015-10-02T08:59:41Z</time>
      </trkpt>
      <trkpt lat="47.44895" lon="6.66386">
        <ele>307.562</ele>
        <time>2015-10-02T08:59:42Z</time>
      </trkpt>
      <trkpt lat="47.44895" lon="6.66379">
        <ele>307.516</ele>
        <time>2015-10-02T08:59:43Z</time>
      </trkpt>
      <trkpt lat="47.44896" lon="6.66373">
        <ele>307.672</ele>
        <time>2015-10-02T08:59:44Z</time>
      </trkpt>
      <trkpt lat="47.44895" lon="6.66366">
        <ele>307.853</ele>
        <time>2015-10-02T08:59:45Z</time>
      </trkpt>
      <trkpt lat="47.44894" lon="6.6636">
        <ele>308.442</ele>
        <time>2015-10-02T08:59:46Z</time>
      </trkpt>
      <trkpt lat="47.44894" lon="6.66353">
        <ele>308.819</ele>
        <time>2015-10-02T08:59:47Z</time>
      </trkpt>
      <trkpt lat="47.44893" lon="6.66345">
        <ele>309.023</ele>
        <time>2015-10-02T08:59:48Z</time>
      </trkpt>
      <trkpt lat="47.44893" lon="6.66338">
        <ele>309.56</ele>
        <time>2015-10-02T08:59:49Z</time>
      </trkpt>
      <trkpt lat="47.44893" lon="6.66331">
        <ele>309.965</ele>
        <time>2015-10-02T08:59:50Z</time>
      </trkpt>
      <trkpt lat="47.44892" lon="6.66325">
        <ele>311.015</ele>
        <time>2015-10-02T08:59:51Z</time>
      </trkpt>
      <trkpt lat="47.44891" lon="6.66318">
        <ele>311.192</ele>
        <time>2015-10-02T08:59:52Z</time>
      </trkpt>
      <trkpt lat="47.44891" lon="6.66312">
        <ele>311.972</ele>
        <time>2015-10-02T08:59:53Z</time>
      </trkpt>
      <trkpt lat="47.44889" lon="6.66306">
        <ele>311.46</ele>
        <time>2015-10-02T08:59:54Z</time>
      </trkpt>
      <trkpt lat="47.44889" lon="6.66299">
        <ele>311.417</ele>
        <time>2015-10-02T08:59:55Z</time>
      </trkpt>
      <trkpt lat="47.44889" lon="6.66293">
        <ele>311.628</ele>
        <time>2015-10-02T08:59:56Z</time>
      </trkpt>
      <trkpt lat="47.44889" lon="6.66287">
        <ele>312.548</ele>
        <time>2015-10-02T08:59:57Z</time>
      </trkpt>
      <trkpt lat="47.44889" lon="6.6628">
        <ele>312.912</ele>
        <time>2015-10-02T08:59:58Z</time>
      </trkpt>
      <trkpt lat="47.44889" lon="6.66273">
        <ele>313.251</ele>
        <time>2015-10-02T08:59:59Z</time>
      </trkpt>
      <trkpt lat="47.44888" lon="6.66266">
        <ele>313.048</ele>
        <time>2015-10-02T09:00:00Z</time>
      </trkpt>
      <trkpt lat="47.44887" lon="6.66259">
        <ele>312.85</ele>
        <time>2015-10-02T09:00:01Z</time>
      </trkpt>
      <trkpt lat="47.44888" lon="6.66253">
        <ele>312.572</ele>
        <time>2015-10-02T09:00:02Z</time>
      </trkpt>
      <trkpt lat="47.44888" lon="6.66247">
        <ele>312.611</ele>
        <time>2015-10-02T09:00:03Z</time>
      </trkpt>
      <trkpt lat="47.44888" lon="6.66241">
        <ele>313.094</ele>
        <time>2015-10-02T09:00:04Z</time>
      </trkpt>
      <trkpt lat="47.44887" lon="6.66234">
        <ele>314.06</ele>
        <time>2015-10-02T09:00:05Z</time>
      </trkpt>
      <trkpt lat="47.44887" lon="6.66228">
        <ele>314.126</ele>
        <time>2015-10-02T09:00:06Z</time>
      </trkpt>
      <trkpt lat="47.44887" lon="6.66222">
        <ele>313.721</ele>
        <time>2015-10-02T09:00:07Z</time>
      </trkpt>
      <trkpt lat="47.44887" lon="6.66214">
        <ele>313.82</ele>
        <time>2015-10-02T09:00:08Z</time>
      </trkpt>
      <trkpt lat="47.44887" lon="6.66208">
        <ele>314.423</ele>
        <time>2015-10-02T09:00:09Z</time>
      </trkpt>
      <trkpt lat="47.44887" lon="6.66202">
        <ele>314.737</ele>
        <time>2015-10-02T09:00:10Z</time>
      </trkpt>
      <trkpt lat="47.44886" lon="6.66196">
        <ele>315.015</ele>
        <time>2015-10-02T09:00:11Z</time>
      </trkpt>
      <trkpt lat="47.44886" lon="6.66189">
        <ele>315.1</ele>
        <time>2015-10-02T09:00:12Z</time>
      </trkpt>
      <trkpt lat="47.44885" lon="6.66182">
        <ele>315.234</ele>
        <time>2015-10-02T09:00:13Z</time>
      </trkpt>
      <trkpt lat="47.44884" lon="6.66176">
        <ele>315.014</ele>
        <time>2015-10-02T09:00:14Z</time>
      </trkpt>
      <trkpt lat="47.44884" lon="6.66169">
        <ele>314.887</ele>
        <time>2015-10-02T09:00:15Z</time>
      </trkpt>
      <trkpt lat="47.44884" lon="6.66163">
        <ele>315.517</ele>
        <time>2015-10-02T09:00:16Z</time>
      </trkpt>
      <trkpt lat="47.44884" lon="6.66156">
        <ele>315.997</ele>
        <time>2015-10-02T09:00:17Z</time>
      </trkpt>
      <trkpt lat="47.44884" lon="6.66149">
        <ele>315.854</ele>
        <time>2015-10-02T09:00:18Z</time>
      </trkpt>
      <trkpt lat="47.44883" lon="6.66142">
        <ele>316.327</ele>
        <time>2015-10-02T09:00:19Z</time>
      </trkpt>
      <trkpt lat="47.44882" lon="6.66136">
        <ele>315.829</ele>
        <time>2015-10-02T09:00:20Z</time>
      </trkpt>
      <trkpt lat="47.44881" lon="6.66129">
        <ele>315.387</ele>
        <time>2015-10-02T09:00:21Z</time>
      </trkpt>
      <trkpt lat="47.4488" lon="6.66123">
        <ele>315.409</ele>
        <time>2015-10-02T09:00:22Z</time>
      </trkpt>
      <trkpt lat="47.4488" lon="6.66117">
        <ele>315.755</ele>
        <time>2015-10-02T09:00:23Z</time>
      </trkpt>
      <trkpt lat="47.44879" lon="6.6611">
        <ele>314.494</ele>
        <time>2015-10-02T09:00:24Z</time>
      </trkpt>
      <trkpt lat="47.44878" lon="6.66103">
        <ele>314.215</ele>
        <time>2015-10-02T09:00:25Z</time>
      </trkpt>
      <trkpt lat="47.44879" lon="6.66097">
        <ele>314.97</ele>
        <time>2015-10-02T09:00:26Z</time>
      </trkpt>
      <trkpt lat="47.44879" lon="6.66091">
        <ele>315.806</ele>
        <time>2015-10-02T09:00:27Z</time>
      </trkpt>
      <trkpt lat="47.44878" lon="6.66084">
        <ele>315.629</ele>
        <time>2015-10-02T09:00:28Z</time>
      </trkpt>
      <trkpt lat="47.44878" lon="6.66077">
        <ele>315.622</ele>
        <time>2015-10-02T09:00:29Z</time>
      </trkpt>
      <trkpt lat="47.44877" lon="6.66071">
        <ele>315.487</ele>
        <time>2015-10-02T09:00:30Z</time>
      </trkpt>
      <trkpt lat="47.44876" lon="6.66065">
        <ele>314.818</ele>
        <time>2015-10-02T09:00:31Z</time>
      </trkpt>
      <trkpt lat="47.44877" lon="6.66058">
        <ele>315.839</ele>
        <time>2015-10-02T09:00:32Z</time>
      </trkpt>
      <trkpt lat="47.44876" lon="6.66051">
        <ele>315.557</ele>
        <time>2015-10-02T09:00:33Z</time>
      </trkpt>
      <trkpt lat="47.44876" lon="6.66044">
        <ele>315.931</ele>
        <time>2015-10-02T09:00:34Z</time>
      </trkpt>
      <trkpt lat="47.44876" lon="6.66038">
        <ele>316.297</ele>
        <time>2015-10-02T09:00:35Z</time>
      </trkpt>
      <trkpt lat="47.44875" lon="6.66029">
        <ele>316.659</ele>
        <time>2015-10-02T09:00:36Z</time>
      </trkpt>
      <trkpt lat="47.44875" lon="6.66023">
        <ele>317.14</ele>
        <time>2015-10-02T09:00:37Z</time>
      </trkpt>
      <trkpt lat="47.44874" lon="6.66016">
        <ele>316.662</ele>
        <time>2015-10-02T09:00:38Z</time>
      </trkpt>
      <trkpt lat="47.44873" lon="6.6601">
        <ele>316.31</ele>
        <time>2015-10-02T09:00:39Z</time>
      </trkpt>
      <trkpt lat="47.44872" lon="6.66003">
        <ele>315.801</ele>
        <time>2015-10-02T09:00:40Z</time>
      </trkpt>
      <trkpt lat="47.44871" lon="6.65996">
        <ele>316.401</ele>
        <time>2015-10-02T09:00:41Z</time>
      </trkpt>
      <trkpt lat="47.4487" lon="6.65989">
        <ele>315.691</ele>
        <time>2015-10-02T09:00:42Z</time>
      </trkpt>
      <trkpt lat="47.44867" lon="6.65979">
        <ele>312.508</ele>
        <time>2015-10-02T09:00:43Z</time>
      </trkpt>
      <trkpt lat="47.44865" lon="6.65972">
        <ele>311.277</ele>
        <time>2015-10-02T09:00:44Z</time>
      </trkpt>
      <trkpt lat="47.44864" lon="6.65964">
        <ele>310.419</ele>
        <time>2015-10-02T09:00:45Z</time>
      </trkpt>
      <trkpt lat="47.44863" lon="6.65956">
        <ele>310.069</ele>
        <time>2015-10-02T09:00:46Z</time>
      </trkpt>
      <trkpt lat="47.44862" lon="6.65951">
        <ele>310.264</ele>
        <time>2015-10-02T09:00:47Z</time>
      </trkpt>
      <trkpt lat="47.44862" lon="6.65944">
        <ele>310.212</ele>
        <time>2015-10-02T09:00:48Z</time>
      </trkpt>
      <trkpt lat="47.44861" lon="6.65938">
        <ele>309.452</ele>
        <time>2015-10-02T09:00:49Z</time>
      </trkpt>
      <trkpt lat="47.44861" lon="6.65932">
        <ele>309.976</ele>
        <time>2015-10-02T09:00:50Z</time>
      </trkpt>
      <trkpt lat="47.44861" lon="6.65926">
        <ele>310.219</ele>
        <time>2015-10-02T09:00:51Z</time>
      </trkpt>
      <trkpt lat="47.44861" lon="6.65919">
        <ele>309.847</ele>
        <time>2015-10-02T09:00:52Z</time>
      </trkpt>
      <trkpt lat="47.4486" lon="6.65912">
        <ele>309.97</ele>
        <time>2015-10-02T09:00:53Z</time>
      </trkpt>
      <trkpt lat="47.4486" lon="6.65905">
        <ele>310.547</ele>
        <time>2015-10-02T09:00:54Z</time>
      </trkpt>
      <trkpt lat="47.4486" lon="6.65899">
        <ele>310.444</ele>
        <time>2015-10-02T09:00:55Z</time>
      </trkpt>
      <trkpt lat="47.44859" lon="6.65893">
        <ele>310.781</ele>
        <time>2015-10-02T09:00:56Z</time>
      </trkpt>
      <trkpt lat="47.44859" lon="6.65886">
        <ele>310.716</ele>
        <time>2015-10-02T09:00:57Z</time>
      </trkpt>
      <trkpt lat="47.44859" lon="6.65879">
        <ele>310.302</ele>
        <time>2015-10-02T09:00:58Z</time>
      </trkpt>
      <trkpt lat="47.44858" lon="6.65872">
        <ele>311.148</ele>
        <time>2015-10-02T09:00:59Z</time>
      </trkpt>
      <trkpt lat="47.44858" lon="6.65867">
        <ele>310.846</ele>
        <time>2015-10-02T09:01:00Z</time>
      </trkpt>
      <trkpt lat="47.44857" lon="6.65861">
        <ele>311.337</ele>
        <time>2015-10-02T09:01:01Z</time>
      </trkpt>
      <trkpt lat="47.44858" lon="6.65854">
        <ele>312.027</ele>
        <time>2015-10-02T09:01:02Z</time>
      </trkpt>
      <trkpt lat="47.44857" lon="6.65847">
        <ele>312.707</ele>
        <time>2015-10-02T09:01:03Z</time>
      </trkpt>
      <trkpt lat="47.44856" lon="6.65839">
        <ele>312.849</ele>
        <time>2015-10-02T09:01:04Z</time>
      </trkpt>
      <trkpt lat="47.44855" lon="6.65833">
        <ele>312.077</ele>
        <time>2015-10-02T09:01:05Z</time>
      </trkpt>
      <trkpt lat="47.44855" lon="6.65826">
        <ele>312.749</ele>
        <time>2015-10-02T09:01:06Z</time>
      </trkpt>
      <trkpt lat="47.44854" lon="6.65819">
        <ele>313.198</ele>
        <time>2015-10-02T09:01:07Z</time>
      </trkpt>
      <trkpt lat="47.44854" lon="6.65814">
        <ele>313.629</ele>
        <time>2015-10-02T09:01:08Z</time>
      </trkpt>
      <trkpt lat="47.44854" lon="6.65807">
        <ele>314.052</ele>
        <time>2015-10-02T09:01:09Z</time>
      </trkpt>
      <trkpt lat="47.44854" lon="6.658">
        <ele>314.478</ele>
        <time>2015-10-02T09:01:10Z</time>
      </trkpt>
      <trkpt lat="47.44852" lon="6.65794">
        <ele>314.651</ele>
        <time>2015-10-02T09:01:11Z</time>
      </trkpt>
      <trkpt lat="47.44852" lon="6.65787">
        <ele>315.095</ele>
        <time>2015-10-02T09:01:12Z</time>
      </trkpt>
      <trkpt lat="47.44851" lon="6.6578">
        <ele>313.76</ele>
        <time>2015-10-02T09:01:13Z</time>
      </trkpt>
      <trkpt lat="47.44851" lon="6.65774">
        <ele>314.276</ele>
        <time>2015-10-02T09:01:14Z</time>
      </trkpt>
      <trkpt lat="47.44851" lon="6.65768">
        <ele>314.448</ele>
        <time>2015-10-02T09:01:15Z</time>
      </trkpt>
      <trkpt lat="47.4485" lon="6.65761">
        <ele>315.335</ele>
        <time>2015-10-02T09:01:16Z</time>
      </trkpt>
      <trkpt lat="47.44848" lon="6.65756">
        <ele>316.052</ele>
        <time>2015-10-02T09:01:17Z</time>
      </trkpt>
      <trkpt lat="47.44848" lon="6.65749">
        <ele>316.674</ele>
        <time>2015-10-02T09:01:18Z</time>
      </trkpt>
      <trkpt lat="47.44848" lon="6.65742">
        <ele>316.971</ele>
        <time>2015-10-02T09:01:19Z</time>
      </trkpt>
      <trkpt lat="47.44846" lon="6.65735">
        <ele>316.078</ele>
        <time>2015-10-02T09:01:20Z</time>
      </trkpt>
      <trkpt lat="47.44847" lon="6.65731">
        <ele>316.431</ele>
        <time>2015-10-02T09:01:21Z</time>
      </trkpt>
      <trkpt lat="47.44847" lon="6.65724">
        <ele>316.854</ele>
        <time>2015-10-02T09:01:22Z</time>
      </trkpt>
      <trkpt lat="47.44847" lon="6.65718">
        <ele>317.48</ele>
        <time>2015-10-02T09:01:23Z</time>
      </trkpt>
      <trkpt lat="47.44847" lon="6.65711">
        <ele>317.582</ele>
        <time>2015-10-02T09:01:24Z</time>
      </trkpt>
      <trkpt lat="47.44847" lon="6.65706">
        <ele>317.811</ele>
        <time>2015-10-02T09:01:25Z</time>
      </trkpt>
      <trkpt lat="47.44848" lon="6.657">
        <ele>318.301</ele>
        <time>2015-10-02T09:01:26Z</time>
      </trkpt>
      <trkpt lat="47.44848" lon="6.65694">
        <ele>318.796</ele>
        <time>2015-10-02T09:01:27Z</time>
      </trkpt>
      <trkpt lat="47.44847" lon="6.65687">
        <ele>319.147</ele>
        <time>2015-10-02T09:01:28Z</time>
      </trkpt>
      <trkpt lat="47.44847" lon="6.65681">
        <ele>319.706</ele>
        <time>2015-10-02T09:01:29Z</time>
      </trkpt>
      <trkpt lat="47.44846" lon="6.65673">
        <ele>319.326</ele>
        <time>2015-10-02T09:01:30Z</time>
      </trkpt>
      <trkpt lat="47.44846" lon="6.65667">
        <ele>319.739</ele>
        <time>2015-10-02T09:01:31Z</time>
      </trkpt>
      <trkpt lat="47.44845" lon="6.6566">
        <ele>319.54</ele>
        <time>2015-10-02T09:01:32Z</time>
      </trkpt>
      <trkpt lat="47.44845" lon="6.65656">
        <ele>320.068</ele>
        <time>2015-10-02T09:01:33Z</time>
      </trkpt>
      <trkpt lat="47.44844" lon="6.6565">
        <ele>319.514</ele>
        <time>2015-10-02T09:01:34Z</time>
      </trkpt>
      <trkpt lat="47.44843" lon="6.65643">
        <ele>319.241</ele>
        <time>2015-10-02T09:01:35Z</time>
      </trkpt>
      <trkpt lat="47.44842" lon="6.65636">
        <ele>319.042</ele>
        <time>2015-10-02T09:01:36Z</time>
      </trkpt>
      <trkpt lat="47.44842" lon="6.65629">
        <ele>319.609</ele>
        <time>2015-10-02T09:01:37Z</time>
      </trkpt>
      <trkpt lat="47.44841" lon="6.65622">
        <ele>319.41</ele>
        <time>2015-10-02T09:01:38Z</time>
      </trkpt>
      <trkpt lat="47.4484" lon="6.65616">
        <ele>319.722</ele>
        <time>2015-10-02T09:01:39Z</time>
      </trkpt>
      <trkpt lat="47.44841" lon="6.65609">
        <ele>320.654</ele>
        <time>2015-10-02T09:01:40Z</time>
      </trkpt>
      <trkpt lat="47.44841" lon="6.65603">
        <ele>320.484</ele>
        <time>2015-10-02T09:01:41Z</time>
      </trkpt>
      <trkpt lat="47.44841" lon="6.65596">
        <ele>320.324</ele>
        <time>2015-10-02T09:01:42Z</time>
      </trkpt>
      <trkpt lat="47.44838" lon="6.65586">
        <ele>317.449</ele>
        <time>2015-10-02T09:01:43Z</time>
      </trkpt>
      <trkpt lat="47.44837" lon="6.65578">
        <ele>316.931</ele>
        <time>2015-10-02T09:01:44Z</time>
      </trkpt>
      <trkpt lat="47.44837" lon="6.65572">
        <ele>316.8</ele>
        <time>2015-10-02T09:01:45Z</time>
      </trkpt>
      <trkpt lat="47.44837" lon="6.65564">
        <ele>316.56</ele>
        <time>2015-10-02T09:01:46Z</time>
      </trkpt>
      <trkpt lat="47.44836" lon="6.65559">
        <ele>316.606</ele>
        <time>2015-10-02T09:01:47Z</time>
      </trkpt>
      <trkpt lat="47.44835" lon="6.65553">
        <ele>317.279</ele>
        <time>2015-10-02T09:01:48Z</time>
      </trkpt>
      <trkpt lat="47.44835" lon="6.65546">
        <ele>316.63</ele>
        <time>2015-10-02T09:01:49Z</time>
      </trkpt>
      <trkpt lat="47.44836" lon="6.65539">
        <ele>316.939</ele>
        <time>2015-10-02T09:01:50Z</time>
      </trkpt>
      <trkpt lat="47.44835" lon="6.65532">
        <ele>316.916</ele>
        <time>2015-10-02T09:01:51Z</time>
      </trkpt>
      <trkpt lat="47.44834" lon="6.65526">
        <ele>317.067</ele>
        <time>2015-10-02T09:01:52Z</time>
      </trkpt>
      <trkpt lat="47.44834" lon="6.6552">
        <ele>317.049</ele>
        <time>2015-10-02T09:01:53Z</time>
      </trkpt>
      <trkpt lat="47.44834" lon="6.65513">
        <ele>317.808</ele>
        <time>2015-10-02T09:01:54Z</time>
      </trkpt>
      <trkpt lat="47.44833" lon="6.65507">
        <ele>318.234</ele>
        <time>2015-10-02T09:01:55Z</time>
      </trkpt>
      <trkpt lat="47.44833" lon="6.65501">
        <ele>318.404</ele>
        <time>2015-10-02T09:01:56Z</time>
      </trkpt>
      <trkpt lat="47.44832" lon="6.65494">
        <ele>318.049</ele>
        <time>2015-10-02T09:01:57Z</time>
      </trkpt>
      <trkpt lat="47.44832" lon="6.65487">
        <ele>317.25</ele>
        <time>2015-10-02T09:01:58Z</time>
      </trkpt>
      <trkpt lat="47.44832" lon="6.65481">
        <ele>317.308</ele>
        <time>2015-10-02T09:01:59Z</time>
      </trkpt>
      <trkpt lat="47.44831" lon="6.65473">
        <ele>316.763</ele>
        <time>2015-10-02T09:02:00Z</time>
      </trkpt>
      <trkpt lat="47.4483" lon="6.65467">
        <ele>316.872</ele>
        <time>2015-10-02T09:02:01Z</time>
      </trkpt>
      <trkpt lat="47.4483" lon="6.6546">
        <ele>316.694</ele>
        <time>2015-10-02T09:02:02Z</time>
      </trkpt>
      <trkpt lat="47.44829" lon="6.65454">
        <ele>316.534</ele>
        <time>2015-10-02T09:02:03Z</time>
      </trkpt>
      <trkpt lat="47.44829" lon="6.65447">
        <ele>316.92</ele>
        <time>2015-10-02T09:02:04Z</time>
      </trkpt>
      <trkpt lat="47.44828" lon="6.65441">
        <ele>317.193</ele>
        <time>2015-10-02T09:02:05Z</time>
      </trkpt>
      <trkpt lat="47.44828" lon="6.65436">
        <ele>317.145</ele>
        <time>2015-10-02T09:02:06Z</time>
      </trkpt>
      <trkpt lat="47.44827" lon="6.65429">
        <ele>316.426</ele>
        <time>2015-10-02T09:02:07Z</time>
      </trkpt>
      <trkpt lat="47.44828" lon="6.65425">
        <ele>317.014</ele>
        <time>2015-10-02T09:02:08Z</time>
      </trkpt>
      <trkpt lat="47.44829" lon="6.65418">
        <ele>317.036</ele>
        <time>2015-10-02T09:02:09Z</time>
      </trkpt>
      <trkpt lat="47.44828" lon="6.65413">
        <ele>317.885</ele>
        <time>2015-10-02T09:02:10Z</time>
      </trkpt>
      <trkpt lat="47.44829" lon="6.65405">
        <ele>317.749</ele>
        <time>2015-10-02T09:02:11Z</time>
      </trkpt>
      <trkpt lat="47.44824" lon="6.65389">
        <ele>312.34</ele>
        <time>2015-10-02T09:02:12Z</time>
      </trkpt>
      <trkpt lat="47.44824" lon="6.65382">
        <ele>313.176</ele>
        <time>2015-10-02T09:02:13Z</time>
      </trkpt>
      <trkpt lat="47.44824" lon="6.65376">
        <ele>313.291</ele>
        <time>2015-10-02T09:02:14Z</time>
      </trkpt>
      <trkpt lat="47.44823" lon="6.65369">
        <ele>311.996</ele>
        <time>2015-10-02T09:02:15Z</time>
      </trkpt>
      <trkpt lat="47.44822" lon="6.65363">
        <ele>312.17</ele>
        <time>2015-10-02T09:02:16Z</time>
      </trkpt>
      <trkpt lat="47.44822" lon="6.65356">
        <ele>312.957</ele>
        <time>2015-10-02T09:02:17Z</time>
      </trkpt>
      <trkpt lat="47.44821" lon="6.6535">
        <ele>313.376</ele>
        <time>2015-10-02T09:02:18Z</time>
      </trkpt>
      <trkpt lat="47.44819" lon="6.65343">
        <ele>313.198</ele>
        <time>2015-10-02T09:02:19Z</time>
      </trkpt>
      <trkpt lat="47.44818" lon="6.65336">
        <ele>312.955</ele>
        <time>2015-10-02T09:02:20Z</time>
      </trkpt>
      <trkpt lat="47.4482" lon="6.65328">
        <ele>312.759</ele>
        <time>2015-10-02T09:02:21Z</time>
      </trkpt>
      <trkpt lat="47.44819" lon="6.65321">
        <ele>311.586</ele>
        <time>2015-10-02T09:02:22Z</time>
      </trkpt>
      <trkpt lat="47.44819" lon="6.65314">
        <ele>310.948</ele>
        <time>2015-10-02T09:02:23Z</time>
      </trkpt>
      <trkpt lat="47.44818" lon="6.65307">
        <ele>310.412</ele>
        <time>2015-10-02T09:02:24Z</time>
      </trkpt>
      <trkpt lat="47.44818" lon="6.65301">
        <ele>310.036</ele>
        <time>2015-10-02T09:02:25Z</time>
      </trkpt>
      <trkpt lat="47.44817" lon="6.65294">
        <ele>309.958</ele>
        <time>2015-10-02T09:02:26Z</time>
      </trkpt>
      <trkpt lat="47.44816" lon="6.65287">
        <ele>309.875</ele>
        <time>2015-10-02T09:02:27Z</time>
      </trkpt>
      <trkpt lat="47.44816" lon="6.6528">
        <ele>309.502</ele>
        <time>2015-10-02T09:02:28Z</time>
      </trkpt>
      <trkpt lat="47.44815" lon="6.65274">
        <ele>308.646</ele>
        <time>2015-10-02T09:02:29Z</time>
      </trkpt>
      <trkpt lat="47.44814" lon="6.65266">
        <ele>308.815</ele>
        <time>2015-10-02T09:02:30Z</time>
      </trkpt>
      <trkpt lat="47.44813" lon="6.6526">
        <ele>308.23</ele>
        <time>2015-10-02T09:02:31Z</time>
      </trkpt>
      <trkpt lat="47.44813" lon="6.65252">
        <ele>307.848</ele>
        <time>2015-10-02T09:02:32Z</time>
      </trkpt>
      <trkpt lat="47.44813" lon="6.65245">
        <ele>308.112</ele>
        <time>2015-10-02T09:02:33Z</time>
      </trkpt>
      <trkpt lat="47.44813" lon="6.65238">
        <ele>307.871</ele>
        <time>2015-10-02T09:02:34Z</time>
      </trkpt>
      <trkpt lat="47.44812" lon="6.65231">
        <ele>307.284</ele>
        <time>2015-10-02T09:02:35Z</time>
      </trkpt>
      <trkpt lat="47.44811" lon="6.65224">
        <ele>307.119</ele>
        <time>2015-10-02T09:02:36Z</time>
      </trkpt>
      <trkpt lat="47.4481" lon="6.65218">
        <ele>306.902</ele>
        <time>2015-10-02T09:02:37Z</time>
      </trkpt>
      <trkpt lat="47.4481" lon="6.65212">
        <ele>306.212</ele>
        <time>2015-10-02T09:02:38Z</time>
      </trkpt>
      <trkpt lat="47.44809" lon="6.65206">
        <ele>306.066</ele>
        <time>2015-10-02T09:02:39Z</time>
      </trkpt>
      <trkpt lat="47.4481" lon="6.65198">
        <ele>303.756</ele>
        <time>2015-10-02T09:02:40Z</time>
      </trkpt>
      <trkpt lat="47.4481" lon="6.65191">
        <ele>303.38</ele>
        <time>2015-10-02T09:02:41Z</time>
      </trkpt>
      <trkpt lat="47.4481" lon="6.65185">
        <ele>303.308</ele>
        <time>2015-10-02T09:02:42Z</time>
      </trkpt>
      <trkpt lat="47.4481" lon="6.65179">
        <ele>303.009</ele>
        <time>2015-10-02T09:02:43Z</time>
      </trkpt>
      <trkpt lat="47.4481" lon="6.65173">
        <ele>302.886</ele>
        <time>2015-10-02T09:02:44Z</time>
      </trkpt>
      <trkpt lat="47.4481" lon="6.65167">
        <ele>302.445</ele>
        <time>2015-10-02T09:02:45Z</time>
      </trkpt>
      <trkpt lat="47.44809" lon="6.65162">
        <ele>301.109</ele>
        <time>2015-10-02T09:02:46Z</time>
      </trkpt>
      <trkpt lat="47.44809" lon="6.65157">
        <ele>300.754</ele>
        <time>2015-10-02T09:02:47Z</time>
      </trkpt>
      <trkpt lat="47.44808" lon="6.65152">
        <ele>300.533</ele>
        <time>2015-10-02T09:02:48Z</time>
      </trkpt>
      <trkpt lat="47.44807" lon="6.65147">
        <ele>300.787</ele>
        <time>2015-10-02T09:02:49Z</time>
      </trkpt>
      <trkpt lat="47.44807" lon="6.65141">
        <ele>300.945</ele>
        <time>2015-10-02T09:02:50Z</time>
      </trkpt>
      <trkpt lat="47.44806" lon="6.65136">
        <ele>301.45</ele>
        <time>2015-10-02T09:02:51Z</time>
      </trkpt>
      <trkpt lat="47.44805" lon="6.65131">
        <ele>301.514</ele>
        <time>2015-10-02T09:02:52Z</time>
      </trkpt>
      <trkpt lat="47.44805" lon="6.65125">
        <ele>301.025</ele>
        <time>2015-10-02T09:02:53Z</time>
      </trkpt>
      <trkpt lat="47.44804" lon="6.6512">
        <ele>302.148</ele>
        <time>2015-10-02T09:02:54Z</time>
      </trkpt>
      <trkpt lat="47.44803" lon="6.65115">
        <ele>300.941</ele>
        <time>2015-10-02T09:02:55Z</time>
      </trkpt>
      <trkpt lat="47.44803" lon="6.65109">
        <ele>300.922</ele>
        <time>2015-10-02T09:02:56Z</time>
      </trkpt>
      <trkpt lat="47.44803" lon="6.65102">
        <ele>301.409</ele>
        <time>2015-10-02T09:02:57Z</time>
      </trkpt>
      <trkpt lat="47.44802" lon="6.65096">
        <ele>301.166</ele>
        <time>2015-10-02T09:02:58Z</time>
      </trkpt>
      <trkpt lat="47.44802" lon="6.65091">
        <ele>301.231</ele>
        <time>2015-10-02T09:02:59Z</time>
      </trkpt>
      <trkpt lat="47.44801" lon="6.65085">
        <ele>301.901</ele>
        <time>2015-10-02T09:03:00Z</time>
      </trkpt>
      <trkpt lat="47.44801" lon="6.65079">
        <ele>303.168</ele>
        <time>2015-10-02T09:03:01Z</time>
      </trkpt>
      <trkpt lat="47.448" lon="6.65074">
        <ele>303.524</ele>
        <time>2015-10-02T09:03:02Z</time>
      </trkpt>
      <trkpt lat="47.44799" lon="6.65069">
        <ele>303.193</ele>
        <time>2015-10-02T09:03:03Z</time>
      </trkpt>
      <trkpt lat="47.44799" lon="6.65063">
        <ele>302.68</ele>
        <time>2015-10-02T09:03:04Z</time>
      </trkpt>
      <trkpt lat="47.44799" lon="6.65057">
        <ele>302.075</ele>
        <time>2015-10-02T09:03:05Z</time>
      </trkpt>
      <trkpt lat="47.44798" lon="6.65051">
        <ele>302.13</ele>
        <time>2015-10-02T09:03:06Z</time>
      </trkpt>
      <trkpt lat="47.44798" lon="6.65045">
        <ele>301.598</ele>
        <time>2015-10-02T09:03:07Z</time>
      </trkpt>
      <trkpt lat="47.44798" lon="6.65039">
        <ele>300.579</ele>
        <time>2015-10-02T09:03:08Z</time>
      </trkpt>
      <trkpt lat="47.44798" lon="6.65033">
        <ele>300.914</ele>
        <time>2015-10-02T09:03:09Z</time>
      </trkpt>
      <trkpt lat="47.44797" lon="6.65027">
        <ele>302.031</ele>
        <time>2015-10-02T09:03:10Z</time>
      </trkpt>
      <trkpt lat="47.44797" lon="6.65018">
        <ele>301.711</ele>
        <time>2015-10-02T09:03:11Z</time>
      </trkpt>
      <trkpt lat="47.44798" lon="6.6501">
        <ele>301.017</ele>
        <time>2015-10-02T09:03:12Z</time>
      </trkpt>
      <trkpt lat="47.44797" lon="6.65003">
        <ele>300.602</ele>
        <time>2015-10-02T09:03:13Z</time>
      </trkpt>
      <trkpt lat="47.44796" lon="6.64997">
        <ele>301.139</ele>
        <time>2015-10-02T09:03:14Z</time>
      </trkpt>
      <trkpt lat="47.44796" lon="6.6499">
        <ele>301.897</ele>
        <time>2015-10-02T09:03:15Z</time>
      </trkpt>
      <trkpt lat="47.44795" lon="6.64984">
        <ele>301.824</ele>
        <time>2015-10-02T09:03:16Z</time>
      </trkpt>
      <trkpt lat="47.44795" lon="6.64977">
        <ele>301.672</ele>
        <time>2015-10-02T09:03:17Z</time>
      </trkpt>
      <trkpt lat="47.44795" lon="6.64972">
        <ele>302.045</ele>
        <time>2015-10-02T09:03:18Z</time>
      </trkpt>
      <trkpt lat="47.44793" lon="6.64968">
        <ele>302.046</ele>
        <time>2015-10-02T09:03:19Z</time>
      </trkpt>
      <trkpt lat="47.44794" lon="6.64964">
        <ele>303.075</ele>
        <time>2015-10-02T09:03:20Z</time>
      </trkpt>
      <trkpt lat="47.44792" lon="6.64962">
        <ele>303.665</ele>
        <time>2015-10-02T09:03:21Z</time>
      </trkpt>
      <trkpt lat="47.4479" lon="6.64959">
        <ele>303.707</ele>
        <time>2015-10-02T09:03:22Z</time>
      </trkpt>
      <trkpt lat="47.44789" lon="6.64955">
        <ele>303.898</ele>
        <time>2015-10-02T09:03:23Z</time>
      </trkpt>
      <trkpt lat="47.44788" lon="6.6495">
        <ele>304.145</ele>
        <time>2015-10-02T09:03:24Z</time>
      </trkpt>
      <trkpt lat="47.44787" lon="6.64945">
        <ele>304.928</ele>
        <time>2015-10-02T09:03:25Z</time>
      </trkpt>
      <trkpt lat="47.44786" lon="6.64939">
        <ele>305.19</ele>
        <time>2015-10-02T09:03:26Z</time>
      </trkpt>
      <trkpt lat="47.44785" lon="6.64932">
        <ele>304.388</ele>
        <time>2015-10-02T09:03:27Z</time>
      </trkpt>
      <trkpt lat="47.44784" lon="6.64925">
        <ele>303.187</ele>
        <time>2015-10-02T09:03:28Z</time>
      </trkpt>
      <trkpt lat="47.44785" lon="6.64917">
        <ele>303.925</ele>
        <time>2015-10-02T09:03:29Z</time>
      </trkpt>
      <trkpt lat="47.44785" lon="6.64908">
        <ele>303.121</ele>
        <time>2015-10-02T09:03:30Z</time>
      </trkpt>
      <trkpt lat="47.44785" lon="6.64899">
        <ele>303.116</ele>
        <time>2015-10-02T09:03:31Z</time>
      </trkpt>
      <trkpt lat="47.44784" lon="6.6489">
        <ele>303.216</ele>
        <time>2015-10-02T09:03:32Z</time>
      </trkpt>
      <trkpt lat="47.44784" lon="6.64881">
        <ele>303.019</ele>
        <time>2015-10-02T09:03:33Z</time>
      </trkpt>
      <trkpt lat="47.44783" lon="6.64873">
        <ele>302.575</ele>
        <time>2015-10-02T09:03:34Z</time>
      </trkpt>
      <trkpt lat="47.44783" lon="6.64865">
        <ele>302.994</ele>
        <time>2015-10-02T09:03:35Z</time>
      </trkpt>
      <trkpt lat="47.44781" lon="6.64856">
        <ele>303.181</ele>
        <time>2015-10-02T09:03:36Z</time>
      </trkpt>
      <trkpt lat="47.4478" lon="6.64848">
        <ele>303.898</ele>
        <time>2015-10-02T09:03:37Z</time>
      </trkpt>
      <trkpt lat="47.4478" lon="6.64841">
        <ele>304.348</ele>
        <time>2015-10-02T09:03:38Z</time>
      </trkpt>
      <trkpt lat="47.4478" lon="6.64833">
        <ele>304.577</ele>
        <time>2015-10-02T09:03:39Z</time>
      </trkpt>
      <trkpt lat="47.4478" lon="6.64826">
        <ele>305.4</ele>
        <time>2015-10-02T09:03:40Z</time>
      </trkpt>
      <trkpt lat="47.44779" lon="6.64819">
        <ele>305.981</ele>
        <time>2015-10-02T09:03:41Z</time>
      </trkpt>
      <trkpt lat="47.44777" lon="6.64812">
        <ele>305.156</ele>
        <time>2015-10-02T09:03:42Z</time>
      </trkpt>
      <trkpt lat="47.44776" lon="6.64804">
        <ele>306.737</ele>
        <time>2015-10-02T09:03:43Z</time>
      </trkpt>
      <trkpt lat="47.44775" lon="6.64797">
        <ele>305.533</ele>
        <time>2015-10-02T09:03:44Z</time>
      </trkpt>
      <trkpt lat="47.44773" lon="6.6479">
        <ele>304.513</ele>
        <time>2015-10-02T09:03:45Z</time>
      </trkpt>
      <trkpt lat="47.44772" lon="6.64783">
        <ele>304.425</ele>
        <time>2015-10-02T09:03:46Z</time>
      </trkpt>
      <trkpt lat="47.44771" lon="6.64778">
        <ele>304.163</ele>
        <time>2015-10-02T09:03:47Z</time>
      </trkpt>
      <trkpt lat="47.4477" lon="6.64771">
        <ele>304.488</ele>
        <time>2015-10-02T09:03:48Z</time>
      </trkpt>
      <trkpt lat="47.4477" lon="6.64765">
        <ele>304.456</ele>
        <time>2015-10-02T09:03:49Z</time>
      </trkpt>
      <trkpt lat="47.44769" lon="6.64758">
        <ele>304.82</ele>
        <time>2015-10-02T09:03:50Z</time>
      </trkpt>
      <trkpt lat="47.44768" lon="6.64752">
        <ele>304.885</ele>
        <time>2015-10-02T09:03:51Z</time>
      </trkpt>
      <trkpt lat="47.44768" lon="6.64745">
        <ele>305.134</ele>
        <time>2015-10-02T09:03:52Z</time>
      </trkpt>
      <trkpt lat="47.44767" lon="6.64738">
        <ele>304.934</ele>
        <time>2015-10-02T09:03:53Z</time>
      </trkpt>
      <trkpt lat="47.44767" lon="6.64731">
        <ele>305.191</ele>
        <time>2015-10-02T09:03:54Z</time>
      </trkpt>
      <trkpt lat="47.44766" lon="6.64725">
        <ele>305.216</ele>
        <time>2015-10-02T09:03:55Z</time>
      </trkpt>
      <trkpt lat="47.44767" lon="6.64718">
        <ele>304.796</ele>
        <time>2015-10-02T09:03:56Z</time>
      </trkpt>
      <trkpt lat="47.44767" lon="6.64711">
        <ele>305.031</ele>
        <time>2015-10-02T09:03:57Z</time>
      </trkpt>
      <trkpt lat="47.44766" lon="6.64705">
        <ele>305.056</ele>
        <time>2015-10-02T09:03:58Z</time>
      </trkpt>
      <trkpt lat="47.44765" lon="6.64698">
        <ele>304.822</ele>
        <time>2015-10-02T09:03:59Z</time>
      </trkpt>
      <trkpt lat="47.44765" lon="6.64691">
        <ele>305.197</ele>
        <time>2015-10-02T09:04:00Z</time>
      </trkpt>
      <trkpt lat="47.44764" lon="6.64685">
        <ele>305.245</ele>
        <time>2015-10-02T09:04:01Z</time>
      </trkpt>
      <trkpt lat="47.44763" lon="6.64678">
        <ele>305.286</ele>
        <time>2015-10-02T09:04:02Z</time>
      </trkpt>
      <trkpt lat="47.44762" lon="6.64671">
        <ele>305.637</ele>
        <time>2015-10-02T09:04:03Z</time>
      </trkpt>
      <trkpt lat="47.44762" lon="6.64664">
        <ele>306.299</ele>
        <time>2015-10-02T09:04:04Z</time>
      </trkpt>
      <trkpt lat="47.44762" lon="6.64657">
        <ele>306.485</ele>
        <time>2015-10-02T09:04:05Z</time>
      </trkpt>
      <trkpt lat="47.44761" lon="6.6465">
        <ele>306.243</ele>
        <time>2015-10-02T09:04:06Z</time>
      </trkpt>
      <trkpt lat="47.44761" lon="6.64644">
        <ele>306.231</ele>
        <time>2015-10-02T09:04:07Z</time>
      </trkpt>
      <trkpt lat="47.4476" lon="6.64637">
        <ele>306.337</ele>
        <time>2015-10-02T09:04:08Z</time>
      </trkpt>
      <trkpt lat="47.4476" lon="6.6463">
        <ele>306.355</ele>
        <time>2015-10-02T09:04:09Z</time>
      </trkpt>
      <trkpt lat="47.44759" lon="6.64624">
        <ele>306.488</ele>
        <time>2015-10-02T09:04:10Z</time>
      </trkpt>
      <trkpt lat="47.44759" lon="6.64617">
        <ele>307.073</ele>
        <time>2015-10-02T09:04:11Z</time>
      </trkpt>
      <trkpt lat="47.44758" lon="6.6461">
        <ele>307.428</ele>
        <time>2015-10-02T09:04:12Z</time>
      </trkpt>
      <trkpt lat="47.44757" lon="6.64604">
        <ele>307.512</ele>
        <time>2015-10-02T09:04:13Z</time>
      </trkpt>
      <trkpt lat="47.44757" lon="6.64598">
        <ele>306.967</ele>
        <time>2015-10-02T09:04:14Z</time>
      </trkpt>
      <trkpt lat="47.44756" lon="6.64591">
        <ele>307.179</ele>
        <time>2015-10-02T09:04:15Z</time>
      </trkpt>
      <trkpt lat="47.44756" lon="6.64585">
        <ele>306.869</ele>
        <time>2015-10-02T09:04:16Z</time>
      </trkpt>
      <trkpt lat="47.44756" lon="6.64578">
        <ele>307.25</ele>
        <time>2015-10-02T09:04:17Z</time>
      </trkpt>
      <trkpt lat="47.44756" lon="6.64571">
        <ele>307.618</ele>
        <time>2015-10-02T09:04:18Z</time>
      </trkpt>
      <trkpt lat="47.44755" lon="6.64563">
        <ele>307.664</ele>
        <time>2015-10-02T09:04:19Z</time>
      </trkpt>
      <trkpt lat="47.44755" lon="6.64556">
        <ele>308.314</ele>
        <time>2015-10-02T09:04:20Z</time>
      </trkpt>
      <trkpt lat="47.44754" lon="6.6455">
        <ele>308.203</ele>
        <time>2015-10-02T09:04:21Z</time>
      </trkpt>
      <trkpt lat="47.44753" lon="6.64543">
        <ele>308.305</ele>
        <time>2015-10-02T09:04:22Z</time>
      </trkpt>
      <trkpt lat="47.44753" lon="6.64537">
        <ele>308.748</ele>
        <time>2015-10-02T09:04:23Z</time>
      </trkpt>
      <trkpt lat="47.44753" lon="6.64531">
        <ele>308.903</ele>
        <time>2015-10-02T09:04:24Z</time>
      </trkpt>
      <trkpt lat="47.44752" lon="6.64524">
        <ele>309.315</ele>
        <time>2015-10-02T09:04:25Z</time>
      </trkpt>
      <trkpt lat="47.44751" lon="6.64518">
        <ele>309.349</ele>
        <time>2015-10-02T09:04:26Z</time>
      </trkpt>
      <trkpt lat="47.44751" lon="6.64512">
        <ele>308.793</ele>
        <time>2015-10-02T09:04:27Z</time>
      </trkpt>
      <trkpt lat="47.44751" lon="6.64506">
        <ele>309.135</ele>
        <time>2015-10-02T09:04:28Z</time>
      </trkpt>
      <trkpt lat="47.44751" lon="6.64499">
        <ele>309.136</ele>
        <time>2015-10-02T09:04:29Z</time>
      </trkpt>
      <trkpt lat="47.4475" lon="6.64493">
        <ele>309.174</ele>
        <time>2015-10-02T09:04:30Z</time>
      </trkpt>
      <trkpt lat="47.4475" lon="6.64487">
        <ele>309.279</ele>
        <time>2015-10-02T09:04:31Z</time>
      </trkpt>
      <trkpt lat="47.4475" lon="6.64481">
        <ele>309.505</ele>
        <time>2015-10-02T09:04:32Z</time>
      </trkpt>
      <trkpt lat="47.44749" lon="6.64474">
        <ele>310.026</ele>
        <time>2015-10-02T09:04:33Z</time>
      </trkpt>
      <trkpt lat="47.44749" lon="6.64467">
        <ele>310.311</ele>
        <time>2015-10-02T09:04:34Z</time>
      </trkpt>
      <trkpt lat="47.44748" lon="6.64461">
        <ele>309.427</ele>
        <time>2015-10-02T09:04:35Z</time>
      </trkpt>
      <trkpt lat="47.44748" lon="6.64454">
        <ele>309.461</ele>
        <time>2015-10-02T09:04:36Z</time>
      </trkpt>
      <trkpt lat="47.44747" lon="6.64448">
        <ele>309.654</ele>
        <time>2015-10-02T09:04:37Z</time>
      </trkpt>
      <trkpt lat="47.44747" lon="6.64442">
        <ele>309.718</ele>
        <time>2015-10-02T09:04:38Z</time>
      </trkpt>
      <trkpt lat="47.44746" lon="6.64435">
        <ele>309.519</ele>
        <time>2015-10-02T09:04:39Z</time>
      </trkpt>
      <trkpt lat="47.44746" lon="6.64429">
        <ele>309.675</ele>
        <time>2015-10-02T09:04:40Z</time>
      </trkpt>
      <trkpt lat="47.44745" lon="6.64422">
        <ele>310.189</ele>
        <time>2015-10-02T09:04:41Z</time>
      </trkpt>
      <trkpt lat="47.44744" lon="6.64416">
        <ele>310.151</ele>
        <time>2015-10-02T09:04:42Z</time>
      </trkpt>
      <trkpt lat="47.44744" lon="6.64409">
        <ele>309.837</ele>
        <time>2015-10-02T09:04:43Z</time>
      </trkpt>
      <trkpt lat="47.44743" lon="6.64402">
        <ele>309.969</ele>
        <time>2015-10-02T09:04:44Z</time>
      </trkpt>
      <trkpt lat="47.44742" lon="6.64395">
        <ele>310.081</ele>
        <time>2015-10-02T09:04:45Z</time>
      </trkpt>
      <trkpt lat="47.44742" lon="6.64389">
        <ele>310.255</ele>
        <time>2015-10-02T09:04:46Z</time>
      </trkpt>
      <trkpt lat="47.44742" lon="6.64382">
        <ele>310.557</ele>
        <time>2015-10-02T09:04:47Z</time>
      </trkpt>
      <trkpt lat="47.44741" lon="6.64376">
        <ele>310.726</ele>
        <time>2015-10-02T09:04:48Z</time>
      </trkpt>
      <trkpt lat="47.44741" lon="6.64369">
        <ele>310.885</ele>
        <time>2015-10-02T09:04:49Z</time>
      </trkpt>
      <trkpt lat="47.4474" lon="6.64363">
        <ele>310.552</ele>
        <time>2015-10-02T09:04:50Z</time>
      </trkpt>
      <trkpt lat="47.4474" lon="6.64356">
        <ele>310.859</ele>
        <time>2015-10-02T09:04:51Z</time>
      </trkpt>
      <trkpt lat="47.44739" lon="6.6435">
        <ele>311.091</ele>
        <time>2015-10-02T09:04:52Z</time>
      </trkpt>
      <trkpt lat="47.44738" lon="6.64344">
        <ele>311.25</ele>
        <time>2015-10-02T09:04:53Z</time>
      </trkpt>
      <trkpt lat="47.44738" lon="6.64338">
        <ele>310.971</ele>
        <time>2015-10-02T09:04:54Z</time>
      </trkpt>
      <trkpt lat="47.44738" lon="6.64331">
        <ele>311.172</ele>
        <time>2015-10-02T09:04:55Z</time>
      </trkpt>
      <trkpt lat="47.44738" lon="6.64325">
        <ele>311.633</ele>
        <time>2015-10-02T09:04:56Z</time>
      </trkpt>
      <trkpt lat="47.44737" lon="6.64319">
        <ele>311.865</ele>
        <time>2015-10-02T09:04:57Z</time>
      </trkpt>
      <trkpt lat="47.44737" lon="6.64313">
        <ele>312.096</ele>
        <time>2015-10-02T09:04:58Z</time>
      </trkpt>
      <trkpt lat="47.44737" lon="6.64306">
        <ele>312.766</ele>
        <time>2015-10-02T09:04:59Z</time>
      </trkpt>
      <trkpt lat="47.44737" lon="6.643">
        <ele>313.191</ele>
        <time>2015-10-02T09:05:00Z</time>
      </trkpt>
      <trkpt lat="47.44736" lon="6.64293">
        <ele>313.346</ele>
        <time>2015-10-02T09:05:01Z</time>
      </trkpt>
      <trkpt lat="47.44736" lon="6.64287">
        <ele>313.842</ele>
        <time>2015-10-02T09:05:02Z</time>
      </trkpt>
      <trkpt lat="47.44736" lon="6.6428">
        <ele>313.711</ele>
        <time>2015-10-02T09:05:03Z</time>
      </trkpt>
      <trkpt lat="47.44734" lon="6.64273">
        <ele>312.153</ele>
        <time>2015-10-02T09:05:04Z</time>
      </trkpt>
      <trkpt lat="47.44734" lon="6.64266">
        <ele>311.791</ele>
        <time>2015-10-02T09:05:05Z</time>
      </trkpt>
      <trkpt lat="47.44734" lon="6.64259">
        <ele>312.383</ele>
        <time>2015-10-02T09:05:06Z</time>
      </trkpt>
      <trkpt lat="47.44734" lon="6.64253">
        <ele>312.54</ele>
        <time>2015-10-02T09:05:07Z</time>
      </trkpt>
      <trkpt lat="47.44734" lon="6.64246">
        <ele>313.095</ele>
        <time>2015-10-02T09:05:08Z</time>
      </trkpt>
      <trkpt lat="47.44734" lon="6.6424">
        <ele>313.009</ele>
        <time>2015-10-02T09:05:09Z</time>
      </trkpt>
      <trkpt lat="47.44733" lon="6.64233">
        <ele>312.512</ele>
        <time>2015-10-02T09:05:10Z</time>
      </trkpt>
      <trkpt lat="47.44732" lon="6.64227">
        <ele>312.727</ele>
        <time>2015-10-02T09:05:11Z</time>
      </trkpt>
      <trkpt lat="47.44732" lon="6.6422">
        <ele>312.968</ele>
        <time>2015-10-02T09:05:12Z</time>
      </trkpt>
      <trkpt lat="47.44731" lon="6.64214">
        <ele>312.451</ele>
        <time>2015-10-02T09:05:13Z</time>
      </trkpt>
      <trkpt lat="47.4473" lon="6.64208">
        <ele>313.057</ele>
        <time>2015-10-02T09:05:14Z</time>
      </trkpt>
      <trkpt lat="47.4473" lon="6.64202">
        <ele>313.417</ele>
        <time>2015-10-02T09:05:15Z</time>
      </trkpt>
      <trkpt lat="47.4473" lon="6.64195">
        <ele>312.153</ele>
        <time>2015-10-02T09:05:16Z</time>
      </trkpt>
      <trkpt lat="47.4473" lon="6.64189">
        <ele>312.141</ele>
        <time>2015-10-02T09:05:17Z</time>
      </trkpt>
      <trkpt lat="47.44728" lon="6.64183">
        <ele>311.58</ele>
        <time>2015-10-02T09:05:18Z</time>
      </trkpt>
      <trkpt lat="47.44728" lon="6.64176">
        <ele>312.312</ele>
        <time>2015-10-02T09:05:19Z</time>
      </trkpt>
      <trkpt lat="47.44728" lon="6.64171">
        <ele>312.194</ele>
        <time>2015-10-02T09:05:20Z</time>
      </trkpt>
      <trkpt lat="47.44728" lon="6.64164">
        <ele>312.304</ele>
        <time>2015-10-02T09:05:21Z</time>
      </trkpt>
      <trkpt lat="47.44727" lon="6.64158">
        <ele>311.721</ele>
        <time>2015-10-02T09:05:22Z</time>
      </trkpt>
      <trkpt lat="47.44726" lon="6.64151">
        <ele>311.805</ele>
        <time>2015-10-02T09:05:23Z</time>
      </trkpt>
      <trkpt lat="47.44727" lon="6.64145">
        <ele>312.219</ele>
        <time>2015-10-02T09:05:24Z</time>
      </trkpt>
      <trkpt lat="47.44727" lon="6.64139">
        <ele>312.792</ele>
        <time>2015-10-02T09:05:25Z</time>
      </trkpt>
      <trkpt lat="47.44727" lon="6.64133">
        <ele>312.929</ele>
        <time>2015-10-02T09:05:26Z</time>
      </trkpt>
      <trkpt lat="47.44725" lon="6.64125">
        <ele>313.067</ele>
        <time>2015-10-02T09:05:27Z</time>
      </trkpt>
      <trkpt lat="47.44725" lon="6.64118">
        <ele>313.354</ele>
        <time>2015-10-02T09:05:28Z</time>
      </trkpt>
      <trkpt lat="47.44724" lon="6.64112">
        <ele>314.066</ele>
        <time>2015-10-02T09:05:29Z</time>
      </trkpt>
      <trkpt lat="47.44722" lon="6.64107">
        <ele>313.174</ele>
        <time>2015-10-02T09:05:30Z</time>
      </trkpt>
      <trkpt lat="47.44722" lon="6.641">
        <ele>313.307</ele>
        <time>2015-10-02T09:05:31Z</time>
      </trkpt>
      <trkpt lat="47.44722" lon="6.64094">
        <ele>313.438</ele>
        <time>2015-10-02T09:05:32Z</time>
      </trkpt>
      <trkpt lat="47.44722" lon="6.64087">
        <ele>313.346</ele>
        <time>2015-10-02T09:05:33Z</time>
      </trkpt>
      <trkpt lat="47.44722" lon="6.6408">
        <ele>313.543</ele>
        <time>2015-10-02T09:05:34Z</time>
      </trkpt>
      <trkpt lat="47.44721" lon="6.64073">
        <ele>314.101</ele>
        <time>2015-10-02T09:05:35Z</time>
      </trkpt>
      <trkpt lat="47.4472" lon="6.64066">
        <ele>313.56</ele>
        <time>2015-10-02T09:05:36Z</time>
      </trkpt>
      <trkpt lat="47.44719" lon="6.64059">
        <ele>312.551</ele>
        <time>2015-10-02T09:05:37Z</time>
      </trkpt>
      <trkpt lat="47.44719" lon="6.64052">
        <ele>312.755</ele>
        <time>2015-10-02T09:05:38Z</time>
      </trkpt>
      <trkpt lat="47.44719" lon="6.64046">
        <ele>312.908</ele>
        <time>2015-10-02T09:05:39Z</time>
      </trkpt>
      <trkpt lat="47.44718" lon="6.6404">
        <ele>313.223</ele>
        <time>2015-10-02T09:05:40Z</time>
      </trkpt>
      <trkpt lat="47.44718" lon="6.64033">
        <ele>313.602</ele>
        <time>2015-10-02T09:05:41Z</time>
      </trkpt>
      <trkpt lat="47.44717" lon="6.64026">
        <ele>313.799</ele>
        <time>2015-10-02T09:05:42Z</time>
      </trkpt>
      <trkpt lat="47.44717" lon="6.64019">
        <ele>313.999</ele>
        <time>2015-10-02T09:05:43Z</time>
      </trkpt>
      <trkpt lat="47.44716" lon="6.64013">
        <ele>314.046</ele>
        <time>2015-10-02T09:05:44Z</time>
      </trkpt>
      <trkpt lat="47.44716" lon="6.64007">
        <ele>314.49</ele>
        <time>2015-10-02T09:05:45Z</time>
      </trkpt>
      <trkpt lat="47.44716" lon="6.64001">
        <ele>314.956</ele>
        <time>2015-10-02T09:05:46Z</time>
      </trkpt>
      <trkpt lat="47.44716" lon="6.63994">
        <ele>315.44</ele>
        <time>2015-10-02T09:05:47Z</time>
      </trkpt>
      <trkpt lat="47.44716" lon="6.63989">
        <ele>315.918</ele>
        <time>2015-10-02T09:05:48Z</time>
      </trkpt>
      <trkpt lat="47.44716" lon="6.63983">
        <ele>316.075</ele>
        <time>2015-10-02T09:05:49Z</time>
      </trkpt>
      <trkpt lat="47.44715" lon="6.63976">
        <ele>315.952</ele>
        <time>2015-10-02T09:05:50Z</time>
      </trkpt>
      <trkpt lat="47.44714" lon="6.63968">
        <ele>315.567</ele>
        <time>2015-10-02T09:05:51Z</time>
      </trkpt>
      <trkpt lat="47.44713" lon="6.63961">
        <ele>315.432</ele>
        <time>2015-10-02T09:05:52Z</time>
      </trkpt>
      <trkpt lat="47.44711" lon="6.63954">
        <ele>314.436</ele>
        <time>2015-10-02T09:05:53Z</time>
      </trkpt>
      <trkpt lat="47.44709" lon="6.63948">
        <ele>314.327</ele>
        <time>2015-10-02T09:05:54Z</time>
      </trkpt>
      <trkpt lat="47.44708" lon="6.63942">
        <ele>313.677</ele>
        <time>2015-10-02T09:05:55Z</time>
      </trkpt>
      <trkpt lat="47.44709" lon="6.63935">
        <ele>313.731</ele>
        <time>2015-10-02T09:05:56Z</time>
      </trkpt>
      <trkpt lat="47.44707" lon="6.63925">
        <ele>312.683</ele>
        <time>2015-10-02T09:05:57Z</time>
      </trkpt>
      <trkpt lat="47.44707" lon="6.63917">
        <ele>312.652</ele>
        <time>2015-10-02T09:05:58Z</time>
      </trkpt>
      <trkpt lat="47.44707" lon="6.6391">
        <ele>312.914</ele>
        <time>2015-10-02T09:05:59Z</time>
      </trkpt>
      <trkpt lat="47.44706" lon="6.63903">
        <ele>313.034</ele>
        <time>2015-10-02T09:06:00Z</time>
      </trkpt>
      <trkpt lat="47.44702" lon="6.63893">
        <ele>308.376</ele>
        <time>2015-10-02T09:06:01Z</time>
      </trkpt>
      <trkpt lat="47.44702" lon="6.63886">
        <ele>308.692</ele>
        <time>2015-10-02T09:06:02Z</time>
      </trkpt>
      <trkpt lat="47.44701" lon="6.63879">
        <ele>308.265</ele>
        <time>2015-10-02T09:06:03Z</time>
      </trkpt>
      <trkpt lat="47.44701" lon="6.63872">
        <ele>308.724</ele>
        <time>2015-10-02T09:06:04Z</time>
      </trkpt>
      <trkpt lat="47.447" lon="6.63864">
        <ele>308.91</ele>
        <time>2015-10-02T09:06:05Z</time>
      </trkpt>
      <trkpt lat="47.447" lon="6.63857">
        <ele>309.483</ele>
        <time>2015-10-02T09:06:06Z</time>
      </trkpt>
      <trkpt lat="47.447" lon="6.6385">
        <ele>309.298</ele>
        <time>2015-10-02T09:06:07Z</time>
      </trkpt>
      <trkpt lat="47.44699" lon="6.63843">
        <ele>309.329</ele>
        <time>2015-10-02T09:06:08Z</time>
      </trkpt>
      <trkpt lat="47.44699" lon="6.63836">
        <ele>309.597</ele>
        <time>2015-10-02T09:06:09Z</time>
      </trkpt>
      <trkpt lat="47.44698" lon="6.63829">
        <ele>309.839</ele>
        <time>2015-10-02T09:06:10Z</time>
      </trkpt>
      <trkpt lat="47.44696" lon="6.63822">
        <ele>309.648</ele>
        <time>2015-10-02T09:06:11Z</time>
      </trkpt>
      <trkpt lat="47.44697" lon="6.63815">
        <ele>309.545</ele>
        <time>2015-10-02T09:06:12Z</time>
      </trkpt>
      <trkpt lat="47.44699" lon="6.63808">
        <ele>309.332</ele>
        <time>2015-10-02T09:06:13Z</time>
      </trkpt>
      <trkpt lat="47.44698" lon="6.63801">
        <ele>309.198</ele>
        <time>2015-10-02T09:06:14Z</time>
      </trkpt>
      <trkpt lat="47.44698" lon="6.63795">
        <ele>309.364</ele>
        <time>2015-10-02T09:06:15Z</time>
      </trkpt>
      <trkpt lat="47.44698" lon="6.63788">
        <ele>309.587</ele>
        <time>2015-10-02T09:06:16Z</time>
      </trkpt>
      <trkpt lat="47.44697" lon="6.63782">
        <ele>309.739</ele>
        <time>2015-10-02T09:06:17Z</time>
      </trkpt>
      <trkpt lat="47.44697" lon="6.63775">
        <ele>311.092</ele>
        <time>2015-10-02T09:06:18Z</time>
      </trkpt>
      <trkpt lat="47.44692" lon="6.63766">
        <ele>306.961</ele>
        <time>2015-10-02T09:06:19Z</time>
      </trkpt>
      <trkpt lat="47.44691" lon="6.63759">
        <ele>306.417</ele>
        <time>2015-10-02T09:06:20Z</time>
      </trkpt>
      <trkpt lat="47.44692" lon="6.63753">
        <ele>305.913</ele>
        <time>2015-10-02T09:06:21Z</time>
      </trkpt>
      <trkpt lat="47.44692" lon="6.63746">
        <ele>306.257</ele>
        <time>2015-10-02T09:06:22Z</time>
      </trkpt>
      <trkpt lat="47.44692" lon="6.6374">
        <ele>307.027</ele>
        <time>2015-10-02T09:06:23Z</time>
      </trkpt>
      <trkpt lat="47.44692" lon="6.63732">
        <ele>308.082</ele>
        <time>2015-10-02T09:06:24Z</time>
      </trkpt>
      <trkpt lat="47.44691" lon="6.63724">
        <ele>308.344</ele>
        <time>2015-10-02T09:06:25Z</time>
      </trkpt>
      <trkpt lat="47.44691" lon="6.63718">
        <ele>308.58</ele>
        <time>2015-10-02T09:06:26Z</time>
      </trkpt>
      <trkpt lat="47.4469" lon="6.63712">
        <ele>308.193</ele>
        <time>2015-10-02T09:06:27Z</time>
      </trkpt>
      <trkpt lat="47.44689" lon="6.63706">
        <ele>308.452</ele>
        <time>2015-10-02T09:06:28Z</time>
      </trkpt>
      <trkpt lat="47.44689" lon="6.637">
        <ele>308.479</ele>
        <time>2015-10-02T09:06:29Z</time>
      </trkpt>
      <trkpt lat="47.44688" lon="6.63694">
        <ele>308.356</ele>
        <time>2015-10-02T09:06:30Z</time>
      </trkpt>
      <trkpt lat="47.44687" lon="6.63687">
        <ele>306.986</ele>
        <time>2015-10-02T09:06:31Z</time>
      </trkpt>
      <trkpt lat="47.44686" lon="6.63681">
        <ele>306.433</ele>
        <time>2015-10-02T09:06:32Z</time>
      </trkpt>
      <trkpt lat="47.44685" lon="6.63675">
        <ele>306.031</ele>
        <time>2015-10-02T09:06:33Z</time>
      </trkpt>
      <trkpt lat="47.44684" lon="6.63669">
        <ele>306.044</ele>
        <time>2015-10-02T09:06:34Z</time>
      </trkpt>
      <trkpt lat="47.44684" lon="6.63663">
        <ele>306.078</ele>
        <time>2015-10-02T09:06:35Z</time>
      </trkpt>
      <trkpt lat="47.44683" lon="6.63658">
        <ele>305.886</ele>
        <time>2015-10-02T09:06:36Z</time>
      </trkpt>
      <trkpt lat="47.44682" lon="6.63651">
        <ele>305.018</ele>
        <time>2015-10-02T09:06:37Z</time>
      </trkpt>
      <trkpt lat="47.44681" lon="6.63645">
        <ele>305.445</ele>
        <time>2015-10-02T09:06:38Z</time>
      </trkpt>
      <trkpt lat="47.4468" lon="6.63639">
        <ele>304.923</ele>
        <time>2015-10-02T09:06:39Z</time>
      </trkpt>
      <trkpt lat="47.4468" lon="6.63632">
        <ele>305.189</ele>
        <time>2015-10-02T09:06:40Z</time>
      </trkpt>
      <trkpt lat="47.44679" lon="6.63626">
        <ele>305.547</ele>
        <time>2015-10-02T09:06:41Z</time>
      </trkpt>
      <trkpt lat="47.44679" lon="6.6362">
        <ele>305.537</ele>
        <time>2015-10-02T09:06:42Z</time>
      </trkpt>
      <trkpt lat="47.44679" lon="6.63613">
        <ele>305.63</ele>
        <time>2015-10-02T09:06:43Z</time>
      </trkpt>
      <trkpt lat="47.44679" lon="6.63606">
        <ele>305.778</ele>
        <time>2015-10-02T09:06:44Z</time>
      </trkpt>
      <trkpt lat="47.44678" lon="6.636">
        <ele>305.75</ele>
        <time>2015-10-02T09:06:45Z</time>
      </trkpt>
      <trkpt lat="47.44678" lon="6.63593">
        <ele>305.595</ele>
        <time>2015-10-02T09:06:46Z</time>
      </trkpt>
      <trkpt lat="47.44678" lon="6.63586">
        <ele>305.643</ele>
        <time>2015-10-02T09:06:47Z</time>
      </trkpt>
      <trkpt lat="47.44677" lon="6.63579">
        <ele>306.001</ele>
        <time>2015-10-02T09:06:48Z</time>
      </trkpt>
      <trkpt lat="47.44677" lon="6.63573">
        <ele>306.45</ele>
        <time>2015-10-02T09:06:49Z</time>
      </trkpt>
      <trkpt lat="47.44675" lon="6.63566">
        <ele>306.021</ele>
        <time>2015-10-02T09:06:50Z</time>
      </trkpt>
      <trkpt lat="47.44675" lon="6.63559">
        <ele>306.449</ele>
        <time>2015-10-02T09:06:51Z</time>
      </trkpt>
      <trkpt lat="47.44674" lon="6.63552">
        <ele>306.441</ele>
        <time>2015-10-02T09:06:52Z</time>
      </trkpt>
      <trkpt lat="47.44674" lon="6.63546">
        <ele>307.173</ele>
        <time>2015-10-02T09:06:53Z</time>
      </trkpt>
      <trkpt lat="47.44674" lon="6.63539">
        <ele>307.253</ele>
        <time>2015-10-02T09:06:54Z</time>
      </trkpt>
      <trkpt lat="47.44673" lon="6.63533">
        <ele>307.505</ele>
        <time>2015-10-02T09:06:55Z</time>
      </trkpt>
      <trkpt lat="47.44673" lon="6.63526">
        <ele>307.661</ele>
        <time>2015-10-02T09:06:56Z</time>
      </trkpt>
      <trkpt lat="47.44672" lon="6.63519">
        <ele>307.24</ele>
        <time>2015-10-02T09:06:57Z</time>
      </trkpt>
      <trkpt lat="47.44671" lon="6.63513">
        <ele>307.083</ele>
        <time>2015-10-02T09:06:58Z</time>
      </trkpt>
      <trkpt lat="47.44671" lon="6.63506">
        <ele>307.128</ele>
        <time>2015-10-02T09:06:59Z</time>
      </trkpt>
      <trkpt lat="47.4467" lon="6.63499">
        <ele>307.362</ele>
        <time>2015-10-02T09:07:00Z</time>
      </trkpt>
      <trkpt lat="47.4467" lon="6.63493">
        <ele>307.191</ele>
        <time>2015-10-02T09:07:01Z</time>
      </trkpt>
      <trkpt lat="47.44669" lon="6.63487">
        <ele>307.237</ele>
        <time>2015-10-02T09:07:02Z</time>
      </trkpt>
      <trkpt lat="47.44669" lon="6.6348">
        <ele>307.29</ele>
        <time>2015-10-02T09:07:03Z</time>
      </trkpt>
      <trkpt lat="47.44669" lon="6.63474">
        <ele>307.328</ele>
        <time>2015-10-02T09:07:04Z</time>
      </trkpt>
      <trkpt lat="47.44668" lon="6.63467">
        <ele>307.273</ele>
        <time>2015-10-02T09:07:05Z</time>
      </trkpt>
      <trkpt lat="47.44668" lon="6.6346">
        <ele>307.357</ele>
        <time>2015-10-02T09:07:06Z</time>
      </trkpt>
      <trkpt lat="47.44667" lon="6.63454">
        <ele>307.224</ele>
        <time>2015-10-02T09:07:07Z</time>
      </trkpt>
      <trkpt lat="47.44667" lon="6.63447">
        <ele>307.122</ele>
        <time>2015-10-02T09:07:08Z</time>
      </trkpt>
      <trkpt lat="47.44667" lon="6.63441">
        <ele>307.087</ele>
        <time>2015-10-02T09:07:09Z</time>
      </trkpt>
      <trkpt lat="47.44667" lon="6.63434">
        <ele>307.232</ele>
        <time>2015-10-02T09:07:10Z</time>
      </trkpt>
      <trkpt lat="47.44666" lon="6.63427">
        <ele>306.884</ele>
        <time>2015-10-02T09:07:11Z</time>
      </trkpt>
      <trkpt lat="47.44666" lon="6.6342">
        <ele>306.723</ele>
        <time>2015-10-02T09:07:12Z</time>
      </trkpt>
      <trkpt lat="47.44666" lon="6.63414">
        <ele>306.451</ele>
        <time>2015-10-02T09:07:13Z</time>
      </trkpt>
      <trkpt lat="47.44667" lon="6.63407">
        <ele>306.648</ele>
        <time>2015-10-02T09:07:14Z</time>
      </trkpt>
      <trkpt lat="47.44666" lon="6.63401">
        <ele>306.73</ele>
        <time>2015-10-02T09:07:15Z</time>
      </trkpt>
      <trkpt lat="47.44665" lon="6.63394">
        <ele>306.596</ele>
        <time>2015-10-02T09:07:16Z</time>
      </trkpt>
      <trkpt lat="47.44664" lon="6.63388">
        <ele>306.857</ele>
        <time>2015-10-02T09:07:17Z</time>
      </trkpt>
      <trkpt lat="47.44663" lon="6.63381">
        <ele>305.923</ele>
        <time>2015-10-02T09:07:18Z</time>
      </trkpt>
      <trkpt lat="47.44663" lon="6.63375">
        <ele>306.092</ele>
        <time>2015-10-02T09:07:19Z</time>
      </trkpt>
      <trkpt lat="47.44663" lon="6.63368">
        <ele>306.548</ele>
        <time>2015-10-02T09:07:20Z</time>
      </trkpt>
      <trkpt lat="47.44664" lon="6.63362">
        <ele>307.046</ele>
        <time>2015-10-02T09:07:21Z</time>
      </trkpt>
      <trkpt lat="47.44663" lon="6.63356">
        <ele>307.011</ele>
        <time>2015-10-02T09:07:22Z</time>
      </trkpt>
      <trkpt lat="47.44663" lon="6.63349">
        <ele>306.746</ele>
        <time>2015-10-02T09:07:23Z</time>
      </trkpt>
      <trkpt lat="47.44662" lon="6.63343">
        <ele>306.647</ele>
        <time>2015-10-02T09:07:24Z</time>
      </trkpt>
      <trkpt lat="47.44661" lon="6.63336">
        <ele>306.377</ele>
        <time>2015-10-02T09:07:25Z</time>
      </trkpt>
      <trkpt lat="47.44661" lon="6.6333">
        <ele>306.184</ele>
        <time>2015-10-02T09:07:26Z</time>
      </trkpt>
      <trkpt lat="47.44662" lon="6.63324">
        <ele>306.24</ele>
        <time>2015-10-02T09:07:27Z</time>
      </trkpt>
      <trkpt lat="47.44661" lon="6.63317">
        <ele>306.494</ele>
        <time>2015-10-02T09:07:28Z</time>
      </trkpt>
      <trkpt lat="47.44661" lon="6.63311">
        <ele>306.926</ele>
        <time>2015-10-02T09:07:29Z</time>
      </trkpt>
      <trkpt lat="47.44661" lon="6.63305">
        <ele>307.23</ele>
        <time>2015-10-02T09:07:30Z</time>
      </trkpt>
      <trkpt lat="47.4466" lon="6.63299">
        <ele>307.112</ele>
        <time>2015-10-02T09:07:31Z</time>
      </trkpt>
      <trkpt lat="47.4466" lon="6.63292">
        <ele>307.56</ele>
        <time>2015-10-02T09:07:32Z</time>
      </trkpt>
      <trkpt lat="47.4466" lon="6.63286">
        <ele>307.98</ele>
        <time>2015-10-02T09:07:33Z</time>
      </trkpt>
      <trkpt lat="47.44661" lon="6.6328">
        <ele>307.733</ele>
        <time>2015-10-02T09:07:34Z</time>
      </trkpt>
      <trkpt lat="47.4466" lon="6.63273">
        <ele>307.839</ele>
        <time>2015-10-02T09:07:35Z</time>
      </trkpt>
      <trkpt lat="47.4466" lon="6.63266">
        <ele>308.331</ele>
        <time>2015-10-02T09:07:36Z</time>
      </trkpt>
      <trkpt lat="47.44659" lon="6.63259">
        <ele>307.758</ele>
        <time>2015-10-02T09:07:37Z</time>
      </trkpt>
      <trkpt lat="47.44659" lon="6.63252">
        <ele>307.289</ele>
        <time>2015-10-02T09:07:38Z</time>
      </trkpt>
      <trkpt lat="47.44659" lon="6.63246">
        <ele>307.139</ele>
        <time>2015-10-02T09:07:39Z</time>
      </trkpt>
      <trkpt lat="47.44659" lon="6.63239">
        <ele>307.298</ele>
        <time>2015-10-02T09:07:40Z</time>
      </trkpt>
      <trkpt lat="47.44658" lon="6.63232">
        <ele>306.179</ele>
        <time>2015-10-02T09:07:41Z</time>
      </trkpt>
      <trkpt lat="47.44658" lon="6.63226">
        <ele>306.866</ele>
        <time>2015-10-02T09:07:42Z</time>
      </trkpt>
      <trkpt lat="47.44657" lon="6.63219">
        <ele>306.388</ele>
        <time>2015-10-02T09:07:43Z</time>
      </trkpt>
      <trkpt lat="47.44657" lon="6.63213">
        <ele>306.667</ele>
        <time>2015-10-02T09:07:44Z</time>
      </trkpt>
      <trkpt lat="47.44657" lon="6.63206">
        <ele>307.037</ele>
        <time>2015-10-02T09:07:45Z</time>
      </trkpt>
      <trkpt lat="47.44656" lon="6.63199">
        <ele>307.15</ele>
        <time>2015-10-02T09:07:46Z</time>
      </trkpt>
      <trkpt lat="47.44656" lon="6.63192">
        <ele>307.62</ele>
        <time>2015-10-02T09:07:47Z</time>
      </trkpt>
      <trkpt lat="47.44655" lon="6.63185">
        <ele>307.451</ele>
        <time>2015-10-02T09:07:48Z</time>
      </trkpt>
      <trkpt lat="47.44655" lon="6.63178">
        <ele>306.865</ele>
        <time>2015-10-02T09:07:49Z</time>
      </trkpt>
      <trkpt lat="47.44654" lon="6.63172">
        <ele>307.226</ele>
        <time>2015-10-02T09:07:50Z</time>
      </trkpt>
      <trkpt lat="47.44654" lon="6.63165">
        <ele>307.249</ele>
        <time>2015-10-02T09:07:51Z</time>
      </trkpt>
      <trkpt lat="47.44652" lon="6.63159">
        <ele>306.8</ele>
        <time>2015-10-02T09:07:52Z</time>
      </trkpt>
      <trkpt lat="47.4465" lon="6.63152">
        <ele>306.166</ele>
        <time>2015-10-02T09:07:53Z</time>
      </trkpt>
      <trkpt lat="47.44645" lon="6.63145">
        <ele>306.643</ele>
        <time>2015-10-02T09:07:54Z</time>
      </trkpt>
      <trkpt lat="47.44643" lon="6.63139">
        <ele>307.06</ele>
        <time>2015-10-02T09:07:55Z</time>
      </trkpt>
      <trkpt lat="47.44642" lon="6.63131">
        <ele>304.771</ele>
        <time>2015-10-02T09:07:56Z</time>
      </trkpt>
      <trkpt lat="47.44641" lon="6.63126">
        <ele>305.664</ele>
        <time>2015-10-02T09:07:57Z</time>
      </trkpt>
      <trkpt lat="47.44638" lon="6.6312">
        <ele>305.423</ele>
        <time>2015-10-02T09:07:58Z</time>
      </trkpt>
      <trkpt lat="47.44635" lon="6.63115">
        <ele>304.07</ele>
        <time>2015-10-02T09:07:59Z</time>
      </trkpt>
      <trkpt lat="47.44631" lon="6.6311">
        <ele>303.377</ele>
        <time>2015-10-02T09:08:00Z</time>
      </trkpt>
      <trkpt lat="47.44628" lon="6.63104">
        <ele>302.979</ele>
        <time>2015-10-02T09:08:01Z</time>
      </trkpt>
      <trkpt lat="47.44623" lon="6.63099">
        <ele>300.887</ele>
        <time>2015-10-02T09:08:02Z</time>
      </trkpt>
      <trkpt lat="47.44619" lon="6.63093">
        <ele>299.967</ele>
        <time>2015-10-02T09:08:03Z</time>
      </trkpt>
      <trkpt lat="47.44616" lon="6.63089">
        <ele>299.74</ele>
        <time>2015-10-02T09:08:04Z</time>
      </trkpt>
      <trkpt lat="47.44612" lon="6.63085">
        <ele>298.571</ele>
        <time>2015-10-02T09:08:05Z</time>
      </trkpt>
      <trkpt lat="47.44607" lon="6.6308">
        <ele>297.725</ele>
        <time>2015-10-02T09:08:06Z</time>
      </trkpt>
      <trkpt lat="47.44603" lon="6.63076">
        <ele>297.952</ele>
        <time>2015-10-02T09:08:07Z</time>
      </trkpt>
      <trkpt lat="47.44598" lon="6.63072">
        <ele>297.521</ele>
        <time>2015-10-02T09:08:08Z</time>
      </trkpt>
      <trkpt lat="47.44595" lon="6.63067">
        <ele>297.073</ele>
        <time>2015-10-02T09:08:09Z</time>
      </trkpt>
      <trkpt lat="47.44591" lon="6.63063">
        <ele>297.464</ele>
        <time>2015-10-02T09:08:10Z</time>
      </trkpt>
      <trkpt lat="47.44587" lon="6.63059">
        <ele>297.309</ele>
        <time>2015-10-02T09:08:11Z</time>
      </trkpt>
      <trkpt lat="47.44586" lon="6.63057">
        <ele>297.76</ele>
        <time>2015-10-02T09:08:12Z</time>
      </trkpt>
      <trkpt lat="47.44585" lon="6.63053">
        <ele>296.718</ele>
        <time>2015-10-02T09:08:13Z</time>
      </trkpt>
      <trkpt lat="47.4458" lon="6.63054">
        <ele>297.107</ele>
        <time>2015-10-02T09:08:14Z</time>
      </trkpt>
      <trkpt lat="47.44577" lon="6.63053">
        <ele>298.05</ele>
        <time>2015-10-02T09:08:15Z</time>
      </trkpt>
      <trkpt lat="47.44571" lon="6.63052">
        <ele>298.449</ele>
        <time>2015-10-02T09:08:16Z</time>
      </trkpt>
      <trkpt lat="47.44566" lon="6.6305">
        <ele>299.081</ele>
        <time>2015-10-02T09:08:17Z</time>
      </trkpt>
      <trkpt lat="47.44561" lon="6.63049">
        <ele>300.725</ele>
        <time>2015-10-02T09:08:18Z</time>
      </trkpt>
      <trkpt lat="47.44557" lon="6.63049">
        <ele>298.662</ele>
        <time>2015-10-02T09:08:19Z</time>
      </trkpt>
      <trkpt lat="47.44553" lon="6.63046">
        <ele>298.953</ele>
        <time>2015-10-02T09:08:20Z</time>
      </trkpt>
      <trkpt lat="47.44549" lon="6.63044">
        <ele>299.296</ele>
        <time>2015-10-02T09:08:21Z</time>
      </trkpt>
      <trkpt lat="47.44544" lon="6.63041">
        <ele>298.967</ele>
        <time>2015-10-02T09:08:22Z</time>
      </trkpt>
      <trkpt lat="47.44539" lon="6.63038">
        <ele>300.137</ele>
        <time>2015-10-02T09:08:23Z</time>
      </trkpt>
      <trkpt lat="47.44535" lon="6.63035">
        <ele>300.124</ele>
        <time>2015-10-02T09:08:24Z</time>
      </trkpt>
      <trkpt lat="47.44531" lon="6.63034">
        <ele>299.792</ele>
        <time>2015-10-02T09:08:25Z</time>
      </trkpt>
      <trkpt lat="47.44527" lon="6.63032">
        <ele>300.332</ele>
        <time>2015-10-02T09:08:26Z</time>
      </trkpt>
      <trkpt lat="47.44522" lon="6.63029">
        <ele>300.208</ele>
        <time>2015-10-02T09:08:27Z</time>
      </trkpt>
      <trkpt lat="47.44517" lon="6.63027">
        <ele>299.107</ele>
        <time>2015-10-02T09:08:28Z</time>
      </trkpt>
      <trkpt lat="47.44513" lon="6.63024">
        <ele>298.927</ele>
        <time>2015-10-02T09:08:29Z</time>
      </trkpt>
      <trkpt lat="47.44507" lon="6.63021">
        <ele>299.968</ele>
        <time>2015-10-02T09:08:30Z</time>
      </trkpt>
      <trkpt lat="47.44503" lon="6.63019">
        <ele>300.958</ele>
        <time>2015-10-02T09:08:31Z</time>
      </trkpt>
      <trkpt lat="47.44499" lon="6.63015">
        <ele>301.112</ele>
        <time>2015-10-02T09:08:32Z</time>
      </trkpt>
      <trkpt lat="47.44495" lon="6.63014">
        <ele>300.382</ele>
        <time>2015-10-02T09:08:33Z</time>
      </trkpt>
      <trkpt lat="47.4449" lon="6.63012">
        <ele>300.617</ele>
        <time>2015-10-02T09:08:34Z</time>
      </trkpt>
      <trkpt lat="47.44487" lon="6.63011">
        <ele>299.976</ele>
        <time>2015-10-02T09:08:35Z</time>
      </trkpt>
      <trkpt lat="47.44482" lon="6.63009">
        <ele>299.858</ele>
        <time>2015-10-02T09:08:36Z</time>
      </trkpt>
      <trkpt lat="47.44478" lon="6.63008">
        <ele>298.96</ele>
        <time>2015-10-02T09:08:37Z</time>
      </trkpt>
      <trkpt lat="47.44474" lon="6.63006">
        <ele>299.497</ele>
        <time>2015-10-02T09:08:38Z</time>
      </trkpt>
      <trkpt lat="47.4447" lon="6.63003">
        <ele>300.834</ele>
        <time>2015-10-02T09:08:39Z</time>
      </trkpt>
      <trkpt lat="47.44465" lon="6.63002">
        <ele>301.619</ele>
        <time>2015-10-02T09:08:40Z</time>
      </trkpt>
      <trkpt lat="47.4446" lon="6.62999">
        <ele>300.946</ele>
        <time>2015-10-02T09:08:41Z</time>
      </trkpt>
      <trkpt lat="47.44456" lon="6.62998">
        <ele>300.311</ele>
        <time>2015-10-02T09:08:42Z</time>
      </trkpt>
      <trkpt lat="47.44451" lon="6.62996">
        <ele>300.921</ele>
        <time>2015-10-02T09:08:43Z</time>
      </trkpt>
      <trkpt lat="47.44447" lon="6.62994">
        <ele>301.617</ele>
        <time>2015-10-02T09:08:44Z</time>
      </trkpt>
      <trkpt lat="47.44442" lon="6.62991">
        <ele>302.701</ele>
        <time>2015-10-02T09:08:45Z</time>
      </trkpt>
      <trkpt lat="47.44437" lon="6.62988">
        <ele>302.728</ele>
        <time>2015-10-02T09:08:46Z</time>
      </trkpt>
      <trkpt lat="47.44432" lon="6.62986">
        <ele>302.956</ele>
        <time>2015-10-02T09:08:47Z</time>
      </trkpt>
      <trkpt lat="47.44428" lon="6.62984">
        <ele>303.162</ele>
        <time>2015-10-02T09:08:48Z</time>
      </trkpt>
      <trkpt lat="47.44424" lon="6.6298">
        <ele>303.425</ele>
        <time>2015-10-02T09:08:49Z</time>
      </trkpt>
      <trkpt lat="47.4442" lon="6.62978">
        <ele>302.53</ele>
        <time>2015-10-02T09:08:50Z</time>
      </trkpt>
      <trkpt lat="47.44415" lon="6.62976">
        <ele>302.031</ele>
        <time>2015-10-02T09:08:51Z</time>
      </trkpt>
      <trkpt lat="47.44411" lon="6.62974">
        <ele>302.092</ele>
        <time>2015-10-02T09:08:52Z</time>
      </trkpt>
      <trkpt lat="47.44407" lon="6.62972">
        <ele>302.228</ele>
        <time>2015-10-02T09:08:53Z</time>
      </trkpt>
      <trkpt lat="47.44403" lon="6.6297">
        <ele>302.422</ele>
        <time>2015-10-02T09:08:54Z</time>
      </trkpt>
      <trkpt lat="47.44398" lon="6.62967">
        <ele>302.534</ele>
        <time>2015-10-02T09:08:55Z</time>
      </trkpt>
      <trkpt lat="47.44393" lon="6.62964">
        <ele>302.73</ele>
        <time>2015-10-02T09:08:56Z</time>
      </trkpt>
      <trkpt lat="47.44389" lon="6.62962">
        <ele>302.268</ele>
        <time>2015-10-02T09:08:57Z</time>
      </trkpt>
      <trkpt lat="47.44385" lon="6.6296">
        <ele>302.319</ele>
        <time>2015-10-02T09:08:58Z</time>
      </trkpt>
      <trkpt lat="47.44381" lon="6.62957">
        <ele>303.752</ele>
        <time>2015-10-02T09:08:59Z</time>
      </trkpt>
      <trkpt lat="47.44377" lon="6.62955">
        <ele>303.888</ele>
        <time>2015-10-02T09:09:00Z</time>
      </trkpt>
      <trkpt lat="47.44373" lon="6.62953">
        <ele>303.827</ele>
        <time>2015-10-02T09:09:01Z</time>
      </trkpt>
      <trkpt lat="47.44368" lon="6.6295">
        <ele>304.631</ele>
        <time>2015-10-02T09:09:02Z</time>
      </trkpt>
      <trkpt lat="47.44363" lon="6.62947">
        <ele>305.14</ele>
        <time>2015-10-02T09:09:03Z</time>
      </trkpt>
      <trkpt lat="47.44359" lon="6.62945">
        <ele>305.269</ele>
        <time>2015-10-02T09:09:04Z</time>
      </trkpt>
      <trkpt lat="47.44355" lon="6.62944">
        <ele>305.482</ele>
        <time>2015-10-02T09:09:05Z</time>
      </trkpt>
      <trkpt lat="47.44351" lon="6.62941">
        <ele>305.168</ele>
        <time>2015-10-02T09:09:06Z</time>
      </trkpt>
      <trkpt lat="47.44346" lon="6.62939">
        <ele>305.043</ele>
        <time>2015-10-02T09:09:07Z</time>
      </trkpt>
      <trkpt lat="47.44342" lon="6.62937">
        <ele>305.061</ele>
        <time>2015-10-02T09:09:08Z</time>
      </trkpt>
      <trkpt lat="47.44337" lon="6.62934">
        <ele>304.875</ele>
        <time>2015-10-02T09:09:09Z</time>
      </trkpt>
      <trkpt lat="47.44334" lon="6.62934">
        <ele>303.933</ele>
        <time>2015-10-02T09:09:10Z</time>
      </trkpt>
      <trkpt lat="47.44331" lon="6.6293">
        <ele>305.236</ele>
        <time>2015-10-02T09:09:11Z</time>
      </trkpt>
      <trkpt lat="47.44327" lon="6.62927">
        <ele>305.285</ele>
        <time>2015-10-02T09:09:12Z</time>
      </trkpt>
      <trkpt lat="47.44324" lon="6.62924">
        <ele>306.259</ele>
        <time>2015-10-02T09:09:13Z</time>
      </trkpt>
      <trkpt lat="47.4432" lon="6.62922">
        <ele>306.7</ele>
        <time>2015-10-02T09:09:14Z</time>
      </trkpt>
      <trkpt lat="47.44315" lon="6.62919">
        <ele>306.967</ele>
        <time>2015-10-02T09:09:15Z</time>
      </trkpt>
      <trkpt lat="47.44312" lon="6.62918">
        <ele>306.545</ele>
        <time>2015-10-02T09:09:16Z</time>
      </trkpt>
      <trkpt lat="47.44308" lon="6.62917">
        <ele>305.062</ele>
        <time>2015-10-02T09:09:17Z</time>
      </trkpt>
      <trkpt lat="47.44303" lon="6.62916">
        <ele>303.896</ele>
        <time>2015-10-02T09:09:18Z</time>
      </trkpt>
      <trkpt lat="47.44299" lon="6.62915">
        <ele>303.003</ele>
        <time>2015-10-02T09:09:19Z</time>
      </trkpt>
      <trkpt lat="47.44294" lon="6.62913">
        <ele>302.251</ele>
        <time>2015-10-02T09:09:20Z</time>
      </trkpt>
      <trkpt lat="47.44289" lon="6.62912">
        <ele>302.434</ele>
        <time>2015-10-02T09:09:21Z</time>
      </trkpt>
      <trkpt lat="47.44285" lon="6.6291">
        <ele>302.403</ele>
        <time>2015-10-02T09:09:22Z</time>
      </trkpt>
      <trkpt lat="47.44281" lon="6.62909">
        <ele>302.312</ele>
        <time>2015-10-02T09:09:23Z</time>
      </trkpt>
      <trkpt lat="47.44276" lon="6.62908">
        <ele>302.706</ele>
        <time>2015-10-02T09:09:24Z</time>
      </trkpt>
      <trkpt lat="47.44271" lon="6.62905">
        <ele>303.511</ele>
        <time>2015-10-02T09:09:25Z</time>
      </trkpt>
      <trkpt lat="47.44267" lon="6.62904">
        <ele>305.864</ele>
        <time>2015-10-02T09:09:26Z</time>
      </trkpt>
      <trkpt lat="47.44262" lon="6.62904">
        <ele>306.751</ele>
        <time>2015-10-02T09:09:27Z</time>
      </trkpt>
      <trkpt lat="47.44259" lon="6.62902">
        <ele>306.873</ele>
        <time>2015-10-02T09:09:28Z</time>
      </trkpt>
      <trkpt lat="47.44256" lon="6.62905">
        <ele>306.31</ele>
        <time>2015-10-02T09:09:29Z</time>
      </trkpt>
      <trkpt lat="47.44252" lon="6.62904">
        <ele>305.865</ele>
        <time>2015-10-02T09:09:30Z</time>
      </trkpt>
      <trkpt lat="47.44247" lon="6.62902">
        <ele>305.321</ele>
        <time>2015-10-02T09:09:31Z</time>
      </trkpt>
      <trkpt lat="47.44243" lon="6.629">
        <ele>304.958</ele>
        <time>2015-10-02T09:09:32Z</time>
      </trkpt>
      <trkpt lat="47.44239" lon="6.62899">
        <ele>304.798</ele>
        <time>2015-10-02T09:09:33Z</time>
      </trkpt>
      <trkpt lat="47.44235" lon="6.62899">
        <ele>304.479</ele>
        <time>2015-10-02T09:09:34Z</time>
      </trkpt>
      <trkpt lat="47.4423" lon="6.62897">
        <ele>304.062</ele>
        <time>2015-10-02T09:09:35Z</time>
      </trkpt>
      <trkpt lat="47.44225" lon="6.62895">
        <ele>303.658</ele>
        <time>2015-10-02T09:09:36Z</time>
      </trkpt>
      <trkpt lat="47.44221" lon="6.62894">
        <ele>303.987</ele>
        <time>2015-10-02T09:09:37Z</time>
      </trkpt>
      <trkpt lat="47.44217" lon="6.62892">
        <ele>303.328</ele>
        <time>2015-10-02T09:09:38Z</time>
      </trkpt>
      <trkpt lat="47.44212" lon="6.6289">
        <ele>303.046</ele>
        <time>2015-10-02T09:09:39Z</time>
      </trkpt>
      <trkpt lat="47.44208" lon="6.62888">
        <ele>303.079</ele>
        <time>2015-10-02T09:09:40Z</time>
      </trkpt>
      <trkpt lat="47.44203" lon="6.62887">
        <ele>302.818</ele>
        <time>2015-10-02T09:09:41Z</time>
      </trkpt>
      <trkpt lat="47.44199" lon="6.62889">
        <ele>302.579</ele>
        <time>2015-10-02T09:09:42Z</time>
      </trkpt>
      <trkpt lat="47.44193" lon="6.62889">
        <ele>302.105</ele>
        <time>2015-10-02T09:09:43Z</time>
      </trkpt>
      <trkpt lat="47.44189" lon="6.62889">
        <ele>302.641</ele>
        <time>2015-10-02T09:09:44Z</time>
      </trkpt>
      <trkpt lat="47.44184" lon="6.62889">
        <ele>302.655</ele>
        <time>2015-10-02T09:09:45Z</time>
      </trkpt>
      <trkpt lat="47.4418" lon="6.6289">
        <ele>302.567</ele>
        <time>2015-10-02T09:09:46Z</time>
      </trkpt>
      <trkpt lat="47.44176" lon="6.62891">
        <ele>301.956</ele>
        <time>2015-10-02T09:09:47Z</time>
      </trkpt>
      <trkpt lat="47.44171" lon="6.62892">
        <ele>301.649</ele>
        <time>2015-10-02T09:09:48Z</time>
      </trkpt>
      <trkpt lat="47.44167" lon="6.62891">
        <ele>301.867</ele>
        <time>2015-10-02T09:09:49Z</time>
      </trkpt>
      <trkpt lat="47.44164" lon="6.62894">
        <ele>300.672</ele>
        <time>2015-10-02T09:09:50Z</time>
      </trkpt>
      <trkpt lat="47.44159" lon="6.6289">
        <ele>302.001</ele>
        <time>2015-10-02T09:09:51Z</time>
      </trkpt>
      <trkpt lat="47.44155" lon="6.62888">
        <ele>302.382</ele>
        <time>2015-10-02T09:09:52Z</time>
      </trkpt>
      <trkpt lat="47.44151" lon="6.62886">
        <ele>302.076</ele>
        <time>2015-10-02T09:09:53Z</time>
      </trkpt>
      <trkpt lat="47.44147" lon="6.62885">
        <ele>301.49</ele>
        <time>2015-10-02T09:09:54Z</time>
      </trkpt>
      <trkpt lat="47.44143" lon="6.62884">
        <ele>301.125</ele>
        <time>2015-10-02T09:09:55Z</time>
      </trkpt>
      <trkpt lat="47.44139" lon="6.62883">
        <ele>301.429</ele>
        <time>2015-10-02T09:09:56Z</time>
      </trkpt>
      <trkpt lat="47.44135" lon="6.62881">
        <ele>301.413</ele>
        <time>2015-10-02T09:09:57Z</time>
      </trkpt>
      <trkpt lat="47.44131" lon="6.6288">
        <ele>300.805</ele>
        <time>2015-10-02T09:09:58Z</time>
      </trkpt>
      <trkpt lat="47.44127" lon="6.62879">
        <ele>300.124</ele>
        <time>2015-10-02T09:09:59Z</time>
      </trkpt>
      <trkpt lat="47.44122" lon="6.62878">
        <ele>299.653</ele>
        <time>2015-10-02T09:10:00Z</time>
      </trkpt>
      <trkpt lat="47.44118" lon="6.62876">
        <ele>300.363</ele>
        <time>2015-10-02T09:10:01Z</time>
      </trkpt>
      <trkpt lat="47.44114" lon="6.62875">
        <ele>298.676</ele>
        <time>2015-10-02T09:10:02Z</time>
      </trkpt>
      <trkpt lat="47.44109" lon="6.62874">
        <ele>298.774</ele>
        <time>2015-10-02T09:10:03Z</time>
      </trkpt>
      <trkpt lat="47.44103" lon="6.62873">
        <ele>299.159</ele>
        <time>2015-10-02T09:10:04Z</time>
      </trkpt>
      <trkpt lat="47.44099" lon="6.62872">
        <ele>299.362</ele>
        <time>2015-10-02T09:10:05Z</time>
      </trkpt>
      <trkpt lat="47.44095" lon="6.62869">
        <ele>299.739</ele>
        <time>2015-10-02T09:10:06Z</time>
      </trkpt>
      <trkpt lat="47.4409" lon="6.62867">
        <ele>300.672</ele>
        <time>2015-10-02T09:10:07Z</time>
      </trkpt>
      <trkpt lat="47.44087" lon="6.62864">
        <ele>300.201</ele>
        <time>2015-10-02T09:10:08Z</time>
      </trkpt>
      <trkpt lat="47.44083" lon="6.6286">
        <ele>300.671</ele>
        <time>2015-10-02T09:10:09Z</time>
      </trkpt>
      <trkpt lat="47.4408" lon="6.62856">
        <ele>300.847</ele>
        <time>2015-10-02T09:10:10Z</time>
      </trkpt>
      <trkpt lat="47.44076" lon="6.62852">
        <ele>301.167</ele>
        <time>2015-10-02T09:10:11Z</time>
      </trkpt>
      <trkpt lat="47.44071" lon="6.62849">
        <ele>301.234</ele>
        <time>2015-10-02T09:10:12Z</time>
      </trkpt>
      <trkpt lat="47.44068" lon="6.62846">
        <ele>301.284</ele>
        <time>2015-10-02T09:10:13Z</time>
      </trkpt>
      <trkpt lat="47.44063" lon="6.62844">
        <ele>300.841</ele>
        <time>2015-10-02T09:10:14Z</time>
      </trkpt>
      <trkpt lat="47.44059" lon="6.62843">
        <ele>301.08</ele>
        <time>2015-10-02T09:10:15Z</time>
      </trkpt>
      <trkpt lat="47.44055" lon="6.62841">
        <ele>301.103</ele>
        <time>2015-10-02T09:10:16Z</time>
      </trkpt>
      <trkpt lat="47.44051" lon="6.6284">
        <ele>300.998</ele>
        <time>2015-10-02T09:10:17Z</time>
      </trkpt>
      <trkpt lat="47.44046" lon="6.62838">
        <ele>300.763</ele>
        <time>2015-10-02T09:10:18Z</time>
      </trkpt>
      <trkpt lat="47.44042" lon="6.62837">
        <ele>301.274</ele>
        <time>2015-10-02T09:10:19Z</time>
      </trkpt>
      <trkpt lat="47.44037" lon="6.62835">
        <ele>301.274</ele>
        <time>2015-10-02T09:10:20Z</time>
      </trkpt>
      <trkpt lat="47.44033" lon="6.62834">
        <ele>300.808</ele>
        <time>2015-10-02T09:10:21Z</time>
      </trkpt>
      <trkpt lat="47.44026" lon="6.62833">
        <ele>300.838</ele>
        <time>2015-10-02T09:10:22Z</time>
      </trkpt>
      <trkpt lat="47.44021" lon="6.62832">
        <ele>300.892</ele>
        <time>2015-10-02T09:10:23Z</time>
      </trkpt>
      <trkpt lat="47.44018" lon="6.62831">
        <ele>299.842</ele>
        <time>2015-10-02T09:10:24Z</time>
      </trkpt>
      <trkpt lat="47.44013" lon="6.62829">
        <ele>299.505</ele>
        <time>2015-10-02T09:10:25Z</time>
      </trkpt>
      <trkpt lat="47.44008" lon="6.62827">
        <ele>299.05</ele>
        <time>2015-10-02T09:10:26Z</time>
      </trkpt>
      <trkpt lat="47.44003" lon="6.62826">
        <ele>298.971</ele>
        <time>2015-10-02T09:10:27Z</time>
      </trkpt>
      <trkpt lat="47.43999" lon="6.62824">
        <ele>297.895</ele>
        <time>2015-10-02T09:10:28Z</time>
      </trkpt>
      <trkpt lat="47.43995" lon="6.62823">
        <ele>298.97</ele>
        <time>2015-10-02T09:10:29Z</time>
      </trkpt>
      <trkpt lat="47.43992" lon="6.62822">
        <ele>298.648</ele>
        <time>2015-10-02T09:10:30Z</time>
      </trkpt>
      <trkpt lat="47.43987" lon="6.6282">
        <ele>298.694</ele>
        <time>2015-10-02T09:10:31Z</time>
      </trkpt>
      <trkpt lat="47.43983" lon="6.62819">
        <ele>299.157</ele>
        <time>2015-10-02T09:10:32Z</time>
      </trkpt>
      <trkpt lat="47.43979" lon="6.62817">
        <ele>299.503</ele>
        <time>2015-10-02T09:10:33Z</time>
      </trkpt>
      <trkpt lat="47.43976" lon="6.62816">
        <ele>298.995</ele>
        <time>2015-10-02T09:10:34Z</time>
      </trkpt>
      <trkpt lat="47.4397" lon="6.62815">
        <ele>298.548</ele>
        <time>2015-10-02T09:10:35Z</time>
      </trkpt>
      <trkpt lat="47.43966" lon="6.62814">
        <ele>298.516</ele>
        <time>2015-10-02T09:10:36Z</time>
      </trkpt>
      <trkpt lat="47.43961" lon="6.62812">
        <ele>298.531</ele>
        <time>2015-10-02T09:10:37Z</time>
      </trkpt>
      <trkpt lat="47.43955" lon="6.62813">
        <ele>297.484</ele>
        <time>2015-10-02T09:10:38Z</time>
      </trkpt>
      <trkpt lat="47.4395" lon="6.62812">
        <ele>297.396</ele>
        <time>2015-10-02T09:10:39Z</time>
      </trkpt>
      <trkpt lat="47.43946" lon="6.62811">
        <ele>297.933</ele>
        <time>2015-10-02T09:10:40Z</time>
      </trkpt>
      <trkpt lat="47.43941" lon="6.6281">
        <ele>297.657</ele>
        <time>2015-10-02T09:10:41Z</time>
      </trkpt>
      <trkpt lat="47.43935" lon="6.62809">
        <ele>297.703</ele>
        <time>2015-10-02T09:10:42Z</time>
      </trkpt>
      <trkpt lat="47.43931" lon="6.6281">
        <ele>297.561</ele>
        <time>2015-10-02T09:10:43Z</time>
      </trkpt>
      <trkpt lat="47.43927" lon="6.62811">
        <ele>297.776</ele>
        <time>2015-10-02T09:10:44Z</time>
      </trkpt>
      <trkpt lat="47.43923" lon="6.62813">
        <ele>297.667</ele>
        <time>2015-10-02T09:10:45Z</time>
      </trkpt>
      <trkpt lat="47.43919" lon="6.62814">
        <ele>297.428</ele>
        <time>2015-10-02T09:10:46Z</time>
      </trkpt>
      <trkpt lat="47.43915" lon="6.62817">
        <ele>297.223</ele>
        <time>2015-10-02T09:10:47Z</time>
      </trkpt>
      <trkpt lat="47.4391" lon="6.62819">
        <ele>296.876</ele>
        <time>2015-10-02T09:10:48Z</time>
      </trkpt>
      <trkpt lat="47.43905" lon="6.62821">
        <ele>296.98</ele>
        <time>2015-10-02T09:10:49Z</time>
      </trkpt>
      <trkpt lat="47.439" lon="6.62824">
        <ele>296.873</ele>
        <time>2015-10-02T09:10:50Z</time>
      </trkpt>
      <trkpt lat="47.43897" lon="6.62826">
        <ele>297.228</ele>
        <time>2015-10-02T09:10:51Z</time>
      </trkpt>
      <trkpt lat="47.43892" lon="6.62828">
        <ele>297.79</ele>
        <time>2015-10-02T09:10:52Z</time>
      </trkpt>
      <trkpt lat="47.43889" lon="6.6283">
        <ele>298.566</ele>
        <time>2015-10-02T09:10:53Z</time>
      </trkpt>
      <trkpt lat="47.43884" lon="6.62833">
        <ele>298.535</ele>
        <time>2015-10-02T09:10:54Z</time>
      </trkpt>
      <trkpt lat="47.43879" lon="6.62836">
        <ele>298.607</ele>
        <time>2015-10-02T09:10:55Z</time>
      </trkpt>
      <trkpt lat="47.43875" lon="6.62837">
        <ele>299.342</ele>
        <time>2015-10-02T09:10:56Z</time>
      </trkpt>
      <trkpt lat="47.43871" lon="6.6284">
        <ele>299.17</ele>
        <time>2015-10-02T09:10:57Z</time>
      </trkpt>
      <trkpt lat="47.43866" lon="6.62841">
        <ele>299.578</ele>
        <time>2015-10-02T09:10:58Z</time>
      </trkpt>
      <trkpt lat="47.43862" lon="6.62843">
        <ele>299.822</ele>
        <time>2015-10-02T09:10:59Z</time>
      </trkpt>
      <trkpt lat="47.43858" lon="6.62844">
        <ele>300.774</ele>
        <time>2015-10-02T09:11:00Z</time>
      </trkpt>
      <trkpt lat="47.43853" lon="6.62848">
        <ele>300.272</ele>
        <time>2015-10-02T09:11:01Z</time>
      </trkpt>
      <trkpt lat="47.43849" lon="6.62849">
        <ele>299.975</ele>
        <time>2015-10-02T09:11:02Z</time>
      </trkpt>
      <trkpt lat="47.43844" lon="6.62852">
        <ele>300.097</ele>
        <time>2015-10-02T09:11:03Z</time>
      </trkpt>
      <trkpt lat="47.43839" lon="6.62855">
        <ele>300.695</ele>
        <time>2015-10-02T09:11:04Z</time>
      </trkpt>
      <trkpt lat="47.43835" lon="6.62858">
        <ele>301.218</ele>
        <time>2015-10-02T09:11:05Z</time>
      </trkpt>
      <trkpt lat="47.4383" lon="6.62863">
        <ele>301.845</ele>
        <time>2015-10-02T09:11:06Z</time>
      </trkpt>
      <trkpt lat="47.43826" lon="6.62868">
        <ele>301.913</ele>
        <time>2015-10-02T09:11:07Z</time>
      </trkpt>
      <trkpt lat="47.43822" lon="6.62873">
        <ele>301.905</ele>
        <time>2015-10-02T09:11:08Z</time>
      </trkpt>
      <trkpt lat="47.43818" lon="6.62877">
        <ele>301.026</ele>
        <time>2015-10-02T09:11:09Z</time>
      </trkpt>
      <trkpt lat="47.43815" lon="6.62881">
        <ele>300.282</ele>
        <time>2015-10-02T09:11:10Z</time>
      </trkpt>
      <trkpt lat="47.43812" lon="6.62884">
        <ele>299.484</ele>
        <time>2015-10-02T09:11:11Z</time>
      </trkpt>
      <trkpt lat="47.43808" lon="6.62888">
        <ele>299.376</ele>
        <time>2015-10-02T09:11:12Z</time>
      </trkpt>
      <trkpt lat="47.43804" lon="6.6289">
        <ele>298.303</ele>
        <time>2015-10-02T09:11:13Z</time>
      </trkpt>
      <trkpt lat="47.43798" lon="6.62893">
        <ele>297.673</ele>
        <time>2015-10-02T09:11:14Z</time>
      </trkpt>
      <trkpt lat="47.43792" lon="6.62895">
        <ele>297.945</ele>
        <time>2015-10-02T09:11:15Z</time>
      </trkpt>
      <trkpt lat="47.43786" lon="6.62898">
        <ele>298.243</ele>
        <time>2015-10-02T09:11:16Z</time>
      </trkpt>
      <trkpt lat="47.4378" lon="6.62902">
        <ele>298.399</ele>
        <time>2015-10-02T09:11:17Z</time>
      </trkpt>
      <trkpt lat="47.43774" lon="6.62906">
        <ele>298.564</ele>
        <time>2015-10-02T09:11:18Z</time>
      </trkpt>
      <trkpt lat="47.43769" lon="6.62908">
        <ele>298.19</ele>
        <time>2015-10-02T09:11:19Z</time>
      </trkpt>
      <trkpt lat="47.43764" lon="6.62912">
        <ele>298.309</ele>
        <time>2015-10-02T09:11:20Z</time>
      </trkpt>
      <trkpt lat="47.43759" lon="6.62915">
        <ele>298.042</ele>
        <time>2015-10-02T09:11:21Z</time>
      </trkpt>
      <trkpt lat="47.43753" lon="6.62919">
        <ele>298.322</ele>
        <time>2015-10-02T09:11:22Z</time>
      </trkpt>
      <trkpt lat="47.43748" lon="6.62922">
        <ele>299.16</ele>
        <time>2015-10-02T09:11:23Z</time>
      </trkpt>
      <trkpt lat="47.43743" lon="6.62924">
        <ele>299.62</ele>
        <time>2015-10-02T09:11:24Z</time>
      </trkpt>
      <trkpt lat="47.43738" lon="6.62926">
        <ele>300.915</ele>
        <time>2015-10-02T09:11:25Z</time>
      </trkpt>
      <trkpt lat="47.43733" lon="6.62928">
        <ele>301.486</ele>
        <time>2015-10-02T09:11:26Z</time>
      </trkpt>
      <trkpt lat="47.43728" lon="6.62931">
        <ele>301.361</ele>
        <time>2015-10-02T09:11:27Z</time>
      </trkpt>
      <trkpt lat="47.43723" lon="6.62933">
        <ele>301.717</ele>
        <time>2015-10-02T09:11:28Z</time>
      </trkpt>
      <trkpt lat="47.43719" lon="6.62936">
        <ele>302.389</ele>
        <time>2015-10-02T09:11:29Z</time>
      </trkpt>
      <trkpt lat="47.43714" lon="6.62938">
        <ele>302.362</ele>
        <time>2015-10-02T09:11:30Z</time>
      </trkpt>
      <trkpt lat="47.43711" lon="6.62942">
        <ele>302.027</ele>
        <time>2015-10-02T09:11:31Z</time>
      </trkpt>
      <trkpt lat="47.43706" lon="6.62944">
        <ele>303.456</ele>
        <time>2015-10-02T09:11:32Z</time>
      </trkpt>
      <trkpt lat="47.43701" lon="6.62946">
        <ele>303.016</ele>
        <time>2015-10-02T09:11:33Z</time>
      </trkpt>
      <trkpt lat="47.43696" lon="6.62949">
        <ele>302.47</ele>
        <time>2015-10-02T09:11:34Z</time>
      </trkpt>
      <trkpt lat="47.43692" lon="6.62951">
        <ele>302.069</ele>
        <time>2015-10-02T09:11:35Z</time>
      </trkpt>
      <trkpt lat="47.43688" lon="6.62953">
        <ele>301.815</ele>
        <time>2015-10-02T09:11:36Z</time>
      </trkpt>
      <trkpt lat="47.43683" lon="6.62956">
        <ele>302.622</ele>
        <time>2015-10-02T09:11:37Z</time>
      </trkpt>
      <trkpt lat="47.4368" lon="6.62958">
        <ele>303.129</ele>
        <time>2015-10-02T09:11:38Z</time>
      </trkpt>
      <trkpt lat="47.43675" lon="6.62961">
        <ele>302.536</ele>
        <time>2015-10-02T09:11:39Z</time>
      </trkpt>
      <trkpt lat="47.43671" lon="6.62963">
        <ele>302.719</ele>
        <time>2015-10-02T09:11:40Z</time>
      </trkpt>
      <trkpt lat="47.43668" lon="6.62966">
        <ele>302.84</ele>
        <time>2015-10-02T09:11:41Z</time>
      </trkpt>
      <trkpt lat="47.43663" lon="6.62968">
        <ele>302.785</ele>
        <time>2015-10-02T09:11:42Z</time>
      </trkpt>
      <trkpt lat="47.43659" lon="6.62971">
        <ele>302.123</ele>
        <time>2015-10-02T09:11:43Z</time>
      </trkpt>
      <trkpt lat="47.43656" lon="6.62974">
        <ele>301.992</ele>
        <time>2015-10-02T09:11:44Z</time>
      </trkpt>
      <trkpt lat="47.43652" lon="6.62977">
        <ele>302.502</ele>
        <time>2015-10-02T09:11:45Z</time>
      </trkpt>
      <trkpt lat="47.43648" lon="6.62979">
        <ele>302.136</ele>
        <time>2015-10-02T09:11:46Z</time>
      </trkpt>
      <trkpt lat="47.43644" lon="6.62981">
        <ele>302.694</ele>
        <time>2015-10-02T09:11:47Z</time>
      </trkpt>
      <trkpt lat="47.43641" lon="6.62984">
        <ele>302.137</ele>
        <time>2015-10-02T09:11:48Z</time>
      </trkpt>
      <trkpt lat="47.43637" lon="6.62986">
        <ele>302.575</ele>
        <time>2015-10-02T09:11:49Z</time>
      </trkpt>
      <trkpt lat="47.43632" lon="6.62989">
        <ele>302.84</ele>
        <time>2015-10-02T09:11:50Z</time>
      </trkpt>
      <trkpt lat="47.4363" lon="6.62997">
        <ele>299.115</ele>
        <time>2015-10-02T09:11:51Z</time>
      </trkpt>
      <trkpt lat="47.43626" lon="6.62999">
        <ele>299.106</ele>
        <time>2015-10-02T09:11:52Z</time>
      </trkpt>
      <trkpt lat="47.43622" lon="6.63003">
        <ele>298.385</ele>
        <time>2015-10-02T09:11:53Z</time>
      </trkpt>
      <trkpt lat="47.43617" lon="6.63006">
        <ele>298.33</ele>
        <time>2015-10-02T09:11:54Z</time>
      </trkpt>
      <trkpt lat="47.43613" lon="6.63009">
        <ele>298.257</ele>
        <time>2015-10-02T09:11:55Z</time>
      </trkpt>
      <trkpt lat="47.43609" lon="6.63012">
        <ele>298.273</ele>
        <time>2015-10-02T09:11:56Z</time>
      </trkpt>
      <trkpt lat="47.43605" lon="6.63015">
        <ele>297.943</ele>
        <time>2015-10-02T09:11:57Z</time>
      </trkpt>
      <trkpt lat="47.43602" lon="6.63018">
        <ele>297.27</ele>
        <time>2015-10-02T09:11:58Z</time>
      </trkpt>
      <trkpt lat="47.43598" lon="6.6302">
        <ele>297.201</ele>
        <time>2015-10-02T09:11:59Z</time>
      </trkpt>
      <trkpt lat="47.43594" lon="6.63023">
        <ele>297.304</ele>
        <time>2015-10-02T09:12:00Z</time>
      </trkpt>
      <trkpt lat="47.4359" lon="6.63026">
        <ele>297.293</ele>
        <time>2015-10-02T09:12:01Z</time>
      </trkpt>
      <trkpt lat="47.43586" lon="6.63028">
        <ele>297.505</ele>
        <time>2015-10-02T09:12:02Z</time>
      </trkpt>
      <trkpt lat="47.43582" lon="6.63031">
        <ele>297.544</ele>
        <time>2015-10-02T09:12:03Z</time>
      </trkpt>
      <trkpt lat="47.43578" lon="6.63035">
        <ele>297.042</ele>
        <time>2015-10-02T09:12:04Z</time>
      </trkpt>
      <trkpt lat="47.43574" lon="6.63037">
        <ele>297.143</ele>
        <time>2015-10-02T09:12:05Z</time>
      </trkpt>
      <trkpt lat="47.4357" lon="6.6304">
        <ele>297.142</ele>
        <time>2015-10-02T09:12:06Z</time>
      </trkpt>
      <trkpt lat="47.43566" lon="6.63042">
        <ele>297.095</ele>
        <time>2015-10-02T09:12:07Z</time>
      </trkpt>
      <trkpt lat="47.43562" lon="6.63045">
        <ele>297.74</ele>
        <time>2015-10-02T09:12:08Z</time>
      </trkpt>
      <trkpt lat="47.43557" lon="6.63047">
        <ele>297.852</ele>
        <time>2015-10-02T09:12:09Z</time>
      </trkpt>
      <trkpt lat="47.43553" lon="6.6305">
        <ele>297.109</ele>
        <time>2015-10-02T09:12:10Z</time>
      </trkpt>
      <trkpt lat="47.43549" lon="6.63052">
        <ele>297.479</ele>
        <time>2015-10-02T09:12:11Z</time>
      </trkpt>
      <trkpt lat="47.43544" lon="6.63054">
        <ele>297.833</ele>
        <time>2015-10-02T09:12:12Z</time>
      </trkpt>
      <trkpt lat="47.4354" lon="6.63056">
        <ele>297.678</ele>
        <time>2015-10-02T09:12:13Z</time>
      </trkpt>
      <trkpt lat="47.43536" lon="6.63059">
        <ele>297.963</ele>
        <time>2015-10-02T09:12:14Z</time>
      </trkpt>
      <trkpt lat="47.43532" lon="6.63062">
        <ele>298.089</ele>
        <time>2015-10-02T09:12:15Z</time>
      </trkpt>
      <trkpt lat="47.43528" lon="6.63064">
        <ele>298.403</ele>
        <time>2015-10-02T09:12:16Z</time>
      </trkpt>
      <trkpt lat="47.43524" lon="6.63067">
        <ele>297.105</ele>
        <time>2015-10-02T09:12:17Z</time>
      </trkpt>
      <trkpt lat="47.4352" lon="6.6307">
        <ele>297.339</ele>
        <time>2015-10-02T09:12:18Z</time>
      </trkpt>
      <trkpt lat="47.43515" lon="6.63072">
        <ele>297.544</ele>
        <time>2015-10-02T09:12:19Z</time>
      </trkpt>
      <trkpt lat="47.43511" lon="6.63075">
        <ele>297.494</ele>
        <time>2015-10-02T09:12:20Z</time>
      </trkpt>
      <trkpt lat="47.43508" lon="6.63078">
        <ele>297.385</ele>
        <time>2015-10-02T09:12:21Z</time>
      </trkpt>
      <trkpt lat="47.43503" lon="6.6308">
        <ele>297.315</ele>
        <time>2015-10-02T09:12:22Z</time>
      </trkpt>
      <trkpt lat="47.43499" lon="6.63083">
        <ele>296.991</ele>
        <time>2015-10-02T09:12:23Z</time>
      </trkpt>
      <trkpt lat="47.43495" lon="6.63085">
        <ele>297.181</ele>
        <time>2015-10-02T09:12:24Z</time>
      </trkpt>
      <trkpt lat="47.43491" lon="6.63087">
        <ele>296.819</ele>
        <time>2015-10-02T09:12:25Z</time>
      </trkpt>
      <trkpt lat="47.43486" lon="6.63089">
        <ele>296.984</ele>
        <time>2015-10-02T09:12:26Z</time>
      </trkpt>
      <trkpt lat="47.43482" lon="6.63091">
        <ele>296.685</ele>
        <time>2015-10-02T09:12:27Z</time>
      </trkpt>
      <trkpt lat="47.43478" lon="6.63093">
        <ele>296.415</ele>
        <time>2015-10-02T09:12:28Z</time>
      </trkpt>
      <trkpt lat="47.43474" lon="6.63096">
        <ele>295.46</ele>
        <time>2015-10-02T09:12:29Z</time>
      </trkpt>
      <trkpt lat="47.4347" lon="6.63099">
        <ele>295.122</ele>
        <time>2015-10-02T09:12:30Z</time>
      </trkpt>
      <trkpt lat="47.43466" lon="6.63101">
        <ele>295.129</ele>
        <time>2015-10-02T09:12:31Z</time>
      </trkpt>
      <trkpt lat="47.43461" lon="6.63103">
        <ele>295.431</ele>
        <time>2015-10-02T09:12:32Z</time>
      </trkpt>
      <trkpt lat="47.43457" lon="6.63105">
        <ele>295.108</ele>
        <time>2015-10-02T09:12:33Z</time>
      </trkpt>
      <trkpt lat="47.43451" lon="6.63107">
        <ele>295.568</ele>
        <time>2015-10-02T09:12:34Z</time>
      </trkpt>
      <trkpt lat="47.43447" lon="6.63109">
        <ele>295.319</ele>
        <time>2015-10-02T09:12:35Z</time>
      </trkpt>
      <trkpt lat="47.43443" lon="6.63111">
        <ele>295.453</ele>
        <time>2015-10-02T09:12:36Z</time>
      </trkpt>
      <trkpt lat="47.43439" lon="6.63113">
        <ele>295.324</ele>
        <time>2015-10-02T09:12:37Z</time>
      </trkpt>
      <trkpt lat="47.43436" lon="6.63115">
        <ele>295.734</ele>
        <time>2015-10-02T09:12:38Z</time>
      </trkpt>
      <trkpt lat="47.43431" lon="6.63117">
        <ele>295.849</ele>
        <time>2015-10-02T09:12:39Z</time>
      </trkpt>
      <trkpt lat="47.43428" lon="6.63119">
        <ele>296.691</ele>
        <time>2015-10-02T09:12:40Z</time>
      </trkpt>
      <trkpt lat="47.43423" lon="6.63121">
        <ele>296.456</ele>
        <time>2015-10-02T09:12:41Z</time>
      </trkpt>
      <trkpt lat="47.4342" lon="6.63123">
        <ele>296.276</ele>
        <time>2015-10-02T09:12:42Z</time>
      </trkpt>
      <trkpt lat="47.43416" lon="6.63124">
        <ele>296.701</ele>
        <time>2015-10-02T09:12:43Z</time>
      </trkpt>
      <trkpt lat="47.43412" lon="6.63127">
        <ele>297.118</ele>
        <time>2015-10-02T09:12:44Z</time>
      </trkpt>
      <trkpt lat="47.43407" lon="6.63128">
        <ele>297.776</ele>
        <time>2015-10-02T09:12:45Z</time>
      </trkpt>
      <trkpt lat="47.43402" lon="6.6313">
        <ele>298.183</ele>
        <time>2015-10-02T09:12:46Z</time>
      </trkpt>
      <trkpt lat="47.43397" lon="6.63132">
        <ele>298.709</ele>
        <time>2015-10-02T09:12:47Z</time>
      </trkpt>
      <trkpt lat="47.43394" lon="6.63134">
        <ele>297.46</ele>
        <time>2015-10-02T09:12:48Z</time>
      </trkpt>
      <trkpt lat="47.43389" lon="6.63136">
        <ele>297.251</ele>
        <time>2015-10-02T09:12:49Z</time>
      </trkpt>
      <trkpt lat="47.43385" lon="6.63137">
        <ele>297.393</ele>
        <time>2015-10-02T09:12:50Z</time>
      </trkpt>
      <trkpt lat="47.43381" lon="6.6314">
        <ele>296.846</ele>
        <time>2015-10-02T09:12:51Z</time>
      </trkpt>
      <trkpt lat="47.43376" lon="6.63141">
        <ele>297.185</ele>
        <time>2015-10-02T09:12:52Z</time>
      </trkpt>
      <trkpt lat="47.43372" lon="6.63143">
        <ele>296.472</ele>
        <time>2015-10-02T09:12:53Z</time>
      </trkpt>
      <trkpt lat="47.43369" lon="6.63145">
        <ele>296.105</ele>
        <time>2015-10-02T09:12:54Z</time>
      </trkpt>
      <trkpt lat="47.43365" lon="6.63146">
        <ele>296.391</ele>
        <time>2015-10-02T09:12:55Z</time>
      </trkpt>
      <trkpt lat="47.4336" lon="6.63148">
        <ele>296.195</ele>
        <time>2015-10-02T09:12:56Z</time>
      </trkpt>
      <trkpt lat="47.43356" lon="6.63149">
        <ele>296.398</ele>
        <time>2015-10-02T09:12:57Z</time>
      </trkpt>
      <trkpt lat="47.43352" lon="6.6315">
        <ele>296.097</ele>
        <time>2015-10-02T09:12:58Z</time>
      </trkpt>
      <trkpt lat="47.43347" lon="6.63152">
        <ele>295.609</ele>
        <time>2015-10-02T09:12:59Z</time>
      </trkpt>
      <trkpt lat="47.43343" lon="6.63153">
        <ele>295.403</ele>
        <time>2015-10-02T09:13:00Z</time>
      </trkpt>
      <trkpt lat="47.43338" lon="6.63154">
        <ele>295.098</ele>
        <time>2015-10-02T09:13:01Z</time>
      </trkpt>
      <trkpt lat="47.43335" lon="6.63156">
        <ele>294.127</ele>
        <time>2015-10-02T09:13:02Z</time>
      </trkpt>
      <trkpt lat="47.4333" lon="6.63156">
        <ele>294.031</ele>
        <time>2015-10-02T09:13:03Z</time>
      </trkpt>
      <trkpt lat="47.43326" lon="6.63157">
        <ele>293.847</ele>
        <time>2015-10-02T09:13:04Z</time>
      </trkpt>
      <trkpt lat="47.43322" lon="6.63158">
        <ele>293.212</ele>
        <time>2015-10-02T09:13:05Z</time>
      </trkpt>
      <trkpt lat="47.43317" lon="6.63159">
        <ele>292.601</ele>
        <time>2015-10-02T09:13:06Z</time>
      </trkpt>
      <trkpt lat="47.43313" lon="6.6316">
        <ele>292.745</ele>
        <time>2015-10-02T09:13:07Z</time>
      </trkpt>
      <trkpt lat="47.43309" lon="6.6316">
        <ele>292.427</ele>
        <time>2015-10-02T09:13:08Z</time>
      </trkpt>
      <trkpt lat="47.43304" lon="6.63161">
        <ele>293.032</ele>
        <time>2015-10-02T09:13:09Z</time>
      </trkpt>
      <trkpt lat="47.43299" lon="6.63162">
        <ele>292.939</ele>
        <time>2015-10-02T09:13:10Z</time>
      </trkpt>
      <trkpt lat="47.43295" lon="6.63163">
        <ele>293.179</ele>
        <time>2015-10-02T09:13:11Z</time>
      </trkpt>
      <trkpt lat="47.43289" lon="6.63164">
        <ele>293.495</ele>
        <time>2015-10-02T09:13:12Z</time>
      </trkpt>
      <trkpt lat="47.43285" lon="6.63165">
        <ele>294.425</ele>
        <time>2015-10-02T09:13:13Z</time>
      </trkpt>
      <trkpt lat="47.4328" lon="6.63166">
        <ele>293.603</ele>
        <time>2015-10-02T09:13:14Z</time>
      </trkpt>
      <trkpt lat="47.43276" lon="6.63167">
        <ele>293.489</ele>
        <time>2015-10-02T09:13:15Z</time>
      </trkpt>
      <trkpt lat="47.43271" lon="6.63167">
        <ele>293.761</ele>
        <time>2015-10-02T09:13:16Z</time>
      </trkpt>
      <trkpt lat="47.43267" lon="6.63167">
        <ele>294.206</ele>
        <time>2015-10-02T09:13:17Z</time>
      </trkpt>
      <trkpt lat="47.43262" lon="6.63168">
        <ele>294.09</ele>
        <time>2015-10-02T09:13:18Z</time>
      </trkpt>
      <trkpt lat="47.43258" lon="6.63168">
        <ele>294.013</ele>
        <time>2015-10-02T09:13:19Z</time>
      </trkpt>
      <trkpt lat="47.43253" lon="6.63169">
        <ele>294.047</ele>
        <time>2015-10-02T09:13:20Z</time>
      </trkpt>
      <trkpt lat="47.43248" lon="6.63169">
        <ele>293.944</ele>
        <time>2015-10-02T09:13:21Z</time>
      </trkpt>
      <trkpt lat="47.43243" lon="6.63169">
        <ele>293.567</ele>
        <time>2015-10-02T09:13:22Z</time>
      </trkpt>
      <trkpt lat="47.43239" lon="6.6317">
        <ele>294.515</ele>
        <time>2015-10-02T09:13:23Z</time>
      </trkpt>
      <trkpt lat="47.43235" lon="6.63169">
        <ele>294.729</ele>
        <time>2015-10-02T09:13:24Z</time>
      </trkpt>
      <trkpt lat="47.4323" lon="6.63169">
        <ele>295.131</ele>
        <time>2015-10-02T09:13:25Z</time>
      </trkpt>
      <trkpt lat="47.43226" lon="6.63169">
        <ele>295.067</ele>
        <time>2015-10-02T09:13:26Z</time>
      </trkpt>
      <trkpt lat="47.43222" lon="6.63169">
        <ele>295.313</ele>
        <time>2015-10-02T09:13:27Z</time>
      </trkpt>
      <trkpt lat="47.43218" lon="6.6317">
        <ele>295.804</ele>
        <time>2015-10-02T09:13:28Z</time>
      </trkpt>
      <trkpt lat="47.43215" lon="6.63169">
        <ele>295.453</ele>
        <time>2015-10-02T09:13:29Z</time>
      </trkpt>
      <trkpt lat="47.43209" lon="6.63169">
        <ele>294.939</ele>
        <time>2015-10-02T09:13:30Z</time>
      </trkpt>
      <trkpt lat="47.43205" lon="6.63169">
        <ele>294.285</ele>
        <time>2015-10-02T09:13:31Z</time>
      </trkpt>
      <trkpt lat="47.43201" lon="6.63169">
        <ele>295.028</ele>
        <time>2015-10-02T09:13:32Z</time>
      </trkpt>
      <trkpt lat="47.43196" lon="6.63168">
        <ele>294.371</ele>
        <time>2015-10-02T09:13:33Z</time>
      </trkpt>
      <trkpt lat="47.43192" lon="6.63168">
        <ele>293.953</ele>
        <time>2015-10-02T09:13:34Z</time>
      </trkpt>
      <trkpt lat="47.43187" lon="6.63168">
        <ele>294.543</ele>
        <time>2015-10-02T09:13:35Z</time>
      </trkpt>
      <trkpt lat="47.43183" lon="6.63167">
        <ele>294.709</ele>
        <time>2015-10-02T09:13:36Z</time>
      </trkpt>
      <trkpt lat="47.43178" lon="6.63167">
        <ele>294.445</ele>
        <time>2015-10-02T09:13:37Z</time>
      </trkpt>
      <trkpt lat="47.43174" lon="6.63167">
        <ele>294.498</ele>
        <time>2015-10-02T09:13:38Z</time>
      </trkpt>
      <trkpt lat="47.43169" lon="6.63166">
        <ele>294.126</ele>
        <time>2015-10-02T09:13:39Z</time>
      </trkpt>
      <trkpt lat="47.43165" lon="6.63165">
        <ele>294.544</ele>
        <time>2015-10-02T09:13:40Z</time>
      </trkpt>
      <trkpt lat="47.4315" lon="6.63166">
        <ele>295.684</ele>
        <time>2015-10-02T09:13:41Z</time>
      </trkpt>
      <trkpt lat="47.43146" lon="6.63165">
        <ele>296.207</ele>
        <time>2015-10-02T09:13:42Z</time>
      </trkpt>
      <trkpt lat="47.4314" lon="6.63164">
        <ele>295.801</ele>
        <time>2015-10-02T09:13:43Z</time>
      </trkpt>
      <trkpt lat="47.43132" lon="6.63164">
        <ele>295.322</ele>
        <time>2015-10-02T09:13:44Z</time>
      </trkpt>
      <trkpt lat="47.43128" lon="6.63163">
        <ele>295.414</ele>
        <time>2015-10-02T09:13:45Z</time>
      </trkpt>
      <trkpt lat="47.43123" lon="6.63161">
        <ele>294.988</ele>
        <time>2015-10-02T09:13:46Z</time>
      </trkpt>
      <trkpt lat="47.43119" lon="6.63159">
        <ele>294.798</ele>
        <time>2015-10-02T09:13:47Z</time>
      </trkpt>
      <trkpt lat="47.43115" lon="6.63158">
        <ele>294.755</ele>
        <time>2015-10-02T09:13:48Z</time>
      </trkpt>
      <trkpt lat="47.43111" lon="6.63156">
        <ele>295.26</ele>
        <time>2015-10-02T09:13:49Z</time>
      </trkpt>
      <trkpt lat="47.43107" lon="6.63155">
        <ele>294.415</ele>
        <time>2015-10-02T09:13:50Z</time>
      </trkpt>
      <trkpt lat="47.43103" lon="6.63154">
        <ele>294.569</ele>
        <time>2015-10-02T09:13:51Z</time>
      </trkpt>
      <trkpt lat="47.43098" lon="6.63152">
        <ele>294.179</ele>
        <time>2015-10-02T09:13:52Z</time>
      </trkpt>
      <trkpt lat="47.43097" lon="6.6315">
        <ele>291.861</ele>
        <time>2015-10-02T09:13:53Z</time>
      </trkpt>
      <trkpt lat="47.43094" lon="6.63148">
        <ele>291.703</ele>
        <time>2015-10-02T09:13:54Z</time>
      </trkpt>
      <trkpt lat="47.4309" lon="6.63146">
        <ele>292.038</ele>
        <time>2015-10-02T09:13:55Z</time>
      </trkpt>
      <trkpt lat="47.43086" lon="6.63145">
        <ele>292.543</ele>
        <time>2015-10-02T09:13:56Z</time>
      </trkpt>
      <trkpt lat="47.43082" lon="6.63144">
        <ele>292.59</ele>
        <time>2015-10-02T09:13:57Z</time>
      </trkpt>
      <trkpt lat="47.43078" lon="6.63143">
        <ele>293.238</ele>
        <time>2015-10-02T09:13:58Z</time>
      </trkpt>
      <trkpt lat="47.43073" lon="6.63141">
        <ele>293.953</ele>
        <time>2015-10-02T09:13:59Z</time>
      </trkpt>
      <trkpt lat="47.43069" lon="6.63139">
        <ele>294.021</ele>
        <time>2015-10-02T09:14:00Z</time>
      </trkpt>
      <trkpt lat="47.43064" lon="6.63138">
        <ele>294.141</ele>
        <time>2015-10-02T09:14:01Z</time>
      </trkpt>
      <trkpt lat="47.43062" lon="6.63136">
        <ele>294.334</ele>
        <time>2015-10-02T09:14:02Z</time>
      </trkpt>
      <trkpt lat="47.4306" lon="6.63134">
        <ele>294.543</ele>
        <time>2015-10-02T09:14:03Z</time>
      </trkpt>
      <trkpt lat="47.43054" lon="6.63131">
        <ele>295.199</ele>
        <time>2015-10-02T09:14:04Z</time>
      </trkpt>
      <trkpt lat="47.43049" lon="6.63128">
        <ele>295.31</ele>
        <time>2015-10-02T09:14:05Z</time>
      </trkpt>
      <trkpt lat="47.43043" lon="6.63128">
        <ele>295.661</ele>
        <time>2015-10-02T09:14:06Z</time>
      </trkpt>
      <trkpt lat="47.43039" lon="6.63126">
        <ele>295.699</ele>
        <time>2015-10-02T09:14:07Z</time>
      </trkpt>
      <trkpt lat="47.43035" lon="6.63124">
        <ele>295.626</ele>
        <time>2015-10-02T09:14:08Z</time>
      </trkpt>
      <trkpt lat="47.4303" lon="6.63123">
        <ele>295.835</ele>
        <time>2015-10-02T09:14:09Z</time>
      </trkpt>
      <trkpt lat="47.43027" lon="6.63121">
        <ele>293.641</ele>
        <time>2015-10-02T09:14:10Z</time>
      </trkpt>
      <trkpt lat="47.43023" lon="6.63119">
        <ele>293.528</ele>
        <time>2015-10-02T09:14:11Z</time>
      </trkpt>
      <trkpt lat="47.43019" lon="6.63118">
        <ele>293.347</ele>
        <time>2015-10-02T09:14:12Z</time>
      </trkpt>
      <trkpt lat="47.43014" lon="6.63115">
        <ele>293.554</ele>
        <time>2015-10-02T09:14:13Z</time>
      </trkpt>
      <trkpt lat="47.4301" lon="6.63113">
        <ele>293.535</ele>
        <time>2015-10-02T09:14:14Z</time>
      </trkpt>
      <trkpt lat="47.43007" lon="6.63111">
        <ele>293.498</ele>
        <time>2015-10-02T09:14:15Z</time>
      </trkpt>
      <trkpt lat="47.43003" lon="6.63108">
        <ele>292.806</ele>
        <time>2015-10-02T09:14:16Z</time>
      </trkpt>
      <trkpt lat="47.42998" lon="6.63105">
        <ele>294.524</ele>
        <time>2015-10-02T09:14:17Z</time>
      </trkpt>
      <trkpt lat="47.42993" lon="6.63102">
        <ele>295.687</ele>
        <time>2015-10-02T09:14:18Z</time>
      </trkpt>
      <trkpt lat="47.42988" lon="6.63098">
        <ele>296.14</ele>
        <time>2015-10-02T09:14:19Z</time>
      </trkpt>
      <trkpt lat="47.42984" lon="6.63095">
        <ele>295.421</ele>
        <time>2015-10-02T09:14:20Z</time>
      </trkpt>
      <trkpt lat="47.42979" lon="6.63092">
        <ele>295.109</ele>
        <time>2015-10-02T09:14:21Z</time>
      </trkpt>
      <trkpt lat="47.42972" lon="6.63088">
        <ele>294.539</ele>
        <time>2015-10-02T09:14:22Z</time>
      </trkpt>
      <trkpt lat="47.42967" lon="6.63085">
        <ele>294.346</ele>
        <time>2015-10-02T09:14:23Z</time>
      </trkpt>
      <trkpt lat="47.42962" lon="6.63082">
        <ele>294.675</ele>
        <time>2015-10-02T09:14:24Z</time>
      </trkpt>
      <trkpt lat="47.42958" lon="6.63079">
        <ele>294.476</ele>
        <time>2015-10-02T09:14:25Z</time>
      </trkpt>
      <trkpt lat="47.42953" lon="6.63076">
        <ele>294.688</ele>
        <time>2015-10-02T09:14:26Z</time>
      </trkpt>
      <trkpt lat="47.42949" lon="6.63073">
        <ele>293.998</ele>
        <time>2015-10-02T09:14:27Z</time>
      </trkpt>
      <trkpt lat="47.42945" lon="6.6307">
        <ele>294.225</ele>
        <time>2015-10-02T09:14:28Z</time>
      </trkpt>
      <trkpt lat="47.42941" lon="6.63067">
        <ele>294.292</ele>
        <time>2015-10-02T09:14:29Z</time>
      </trkpt>
      <trkpt lat="47.42937" lon="6.63063">
        <ele>294.516</ele>
        <time>2015-10-02T09:14:30Z</time>
      </trkpt>
      <trkpt lat="47.42933" lon="6.6306">
        <ele>294.241</ele>
        <time>2015-10-02T09:14:31Z</time>
      </trkpt>
      <trkpt lat="47.42929" lon="6.63059">
        <ele>294.12</ele>
        <time>2015-10-02T09:14:32Z</time>
      </trkpt>
      <trkpt lat="47.42924" lon="6.63056">
        <ele>293.642</ele>
        <time>2015-10-02T09:14:33Z</time>
      </trkpt>
      <trkpt lat="47.42921" lon="6.63052">
        <ele>293.622</ele>
        <time>2015-10-02T09:14:34Z</time>
      </trkpt>
      <trkpt lat="47.42917" lon="6.63048">
        <ele>293.475</ele>
        <time>2015-10-02T09:14:35Z</time>
      </trkpt>
      <trkpt lat="47.42913" lon="6.63045">
        <ele>293.737</ele>
        <time>2015-10-02T09:14:36Z</time>
      </trkpt>
      <trkpt lat="47.42908" lon="6.63041">
        <ele>293.161</ele>
        <time>2015-10-02T09:14:37Z</time>
      </trkpt>
      <trkpt lat="47.42904" lon="6.63038">
        <ele>293.126</ele>
        <time>2015-10-02T09:14:38Z</time>
      </trkpt>
      <trkpt lat="47.42899" lon="6.63034">
        <ele>293.381</ele>
        <time>2015-10-02T09:14:39Z</time>
      </trkpt>
      <trkpt lat="47.42895" lon="6.6303">
        <ele>292.975</ele>
        <time>2015-10-02T09:14:40Z</time>
      </trkpt>
      <trkpt lat="47.42891" lon="6.63027">
        <ele>293.521</ele>
        <time>2015-10-02T09:14:41Z</time>
      </trkpt>
      <trkpt lat="47.42887" lon="6.63023">
        <ele>293.193</ele>
        <time>2015-10-02T09:14:42Z</time>
      </trkpt>
      <trkpt lat="47.42883" lon="6.63019">
        <ele>292.952</ele>
        <time>2015-10-02T09:14:43Z</time>
      </trkpt>
      <trkpt lat="47.42879" lon="6.63015">
        <ele>292.531</ele>
        <time>2015-10-02T09:14:44Z</time>
      </trkpt>
      <trkpt lat="47.42875" lon="6.63012">
        <ele>292.68</ele>
        <time>2015-10-02T09:14:45Z</time>
      </trkpt>
      <trkpt lat="47.42871" lon="6.63009">
        <ele>292.886</ele>
        <time>2015-10-02T09:14:46Z</time>
      </trkpt>
      <trkpt lat="47.42867" lon="6.63004">
        <ele>293.221</ele>
        <time>2015-10-02T09:14:47Z</time>
      </trkpt>
      <trkpt lat="47.42864" lon="6.63">
        <ele>293.181</ele>
        <time>2015-10-02T09:14:48Z</time>
      </trkpt>
      <trkpt lat="47.4286" lon="6.62996">
        <ele>293.398</ele>
        <time>2015-10-02T09:14:49Z</time>
      </trkpt>
      <trkpt lat="47.42856" lon="6.62992">
        <ele>293.558</ele>
        <time>2015-10-02T09:14:50Z</time>
      </trkpt>
      <trkpt lat="47.42852" lon="6.62988">
        <ele>293.284</ele>
        <time>2015-10-02T09:14:51Z</time>
      </trkpt>
      <trkpt lat="47.42848" lon="6.62984">
        <ele>293.402</ele>
        <time>2015-10-02T09:14:52Z</time>
      </trkpt>
      <trkpt lat="47.42844" lon="6.62979">
        <ele>293.259</ele>
        <time>2015-10-02T09:14:53Z</time>
      </trkpt>
      <trkpt lat="47.42842" lon="6.62975">
        <ele>293.442</ele>
        <time>2015-10-02T09:14:54Z</time>
      </trkpt>
      <trkpt lat="47.42838" lon="6.62971">
        <ele>293.25</ele>
        <time>2015-10-02T09:14:55Z</time>
      </trkpt>
      <trkpt lat="47.42835" lon="6.62967">
        <ele>292.703</ele>
        <time>2015-10-02T09:14:56Z</time>
      </trkpt>
      <trkpt lat="47.42832" lon="6.62963">
        <ele>293.288</ele>
        <time>2015-10-02T09:14:57Z</time>
      </trkpt>
      <trkpt lat="47.42829" lon="6.62959">
        <ele>293.178</ele>
        <time>2015-10-02T09:14:58Z</time>
      </trkpt>
      <trkpt lat="47.42826" lon="6.62955">
        <ele>292.847</ele>
        <time>2015-10-02T09:14:59Z</time>
      </trkpt>
      <trkpt lat="47.42822" lon="6.62951">
        <ele>292.821</ele>
        <time>2015-10-02T09:15:00Z</time>
      </trkpt>
      <trkpt lat="47.42819" lon="6.62946">
        <ele>292.464</ele>
        <time>2015-10-02T09:15:01Z</time>
      </trkpt>
      <trkpt lat="47.42816" lon="6.62942">
        <ele>292.247</ele>
        <time>2015-10-02T09:15:02Z</time>
      </trkpt>
      <trkpt lat="47.42814" lon="6.62938">
        <ele>291.423</ele>
        <time>2015-10-02T09:15:03Z</time>
      </trkpt>
      <trkpt lat="47.4281" lon="6.62934">
        <ele>291.68</ele>
        <time>2015-10-02T09:15:04Z</time>
      </trkpt>
      <trkpt lat="47.42806" lon="6.62929">
        <ele>291.406</ele>
        <time>2015-10-02T09:15:05Z</time>
      </trkpt>
      <trkpt lat="47.42803" lon="6.62924">
        <ele>291.642</ele>
        <time>2015-10-02T09:15:06Z</time>
      </trkpt>
      <trkpt lat="47.428" lon="6.6292">
        <ele>292.001</ele>
        <time>2015-10-02T09:15:07Z</time>
      </trkpt>
      <trkpt lat="47.42797" lon="6.62915">
        <ele>291.673</ele>
        <time>2015-10-02T09:15:08Z</time>
      </trkpt>
      <trkpt lat="47.42793" lon="6.6291">
        <ele>291.551</ele>
        <time>2015-10-02T09:15:09Z</time>
      </trkpt>
      <trkpt lat="47.4279" lon="6.62905">
        <ele>291.975</ele>
        <time>2015-10-02T09:15:10Z</time>
      </trkpt>
      <trkpt lat="47.42787" lon="6.62899">
        <ele>291.903</ele>
        <time>2015-10-02T09:15:11Z</time>
      </trkpt>
      <trkpt lat="47.42785" lon="6.62893">
        <ele>292.29</ele>
        <time>2015-10-02T09:15:12Z</time>
      </trkpt>
      <trkpt lat="47.42781" lon="6.62888">
        <ele>292.154</ele>
        <time>2015-10-02T09:15:13Z</time>
      </trkpt>
      <trkpt lat="47.42778" lon="6.62883">
        <ele>292.134</ele>
        <time>2015-10-02T09:15:14Z</time>
      </trkpt>
      <trkpt lat="47.42775" lon="6.62878">
        <ele>292</ele>
        <time>2015-10-02T09:15:15Z</time>
      </trkpt>
      <trkpt lat="47.42772" lon="6.62873">
        <ele>292.39</ele>
        <time>2015-10-02T09:15:16Z</time>
      </trkpt>
      <trkpt lat="47.4277" lon="6.62867">
        <ele>292.112</ele>
        <time>2015-10-02T09:15:17Z</time>
      </trkpt>
      <trkpt lat="47.42767" lon="6.62862">
        <ele>292.242</ele>
        <time>2015-10-02T09:15:18Z</time>
      </trkpt>
      <trkpt lat="47.42764" lon="6.62857">
        <ele>292.052</ele>
        <time>2015-10-02T09:15:19Z</time>
      </trkpt>
      <trkpt lat="47.42761" lon="6.62851">
        <ele>292.089</ele>
        <time>2015-10-02T09:15:20Z</time>
      </trkpt>
      <trkpt lat="47.42758" lon="6.62846">
        <ele>292.115</ele>
        <time>2015-10-02T09:15:21Z</time>
      </trkpt>
      <trkpt lat="47.42755" lon="6.6284">
        <ele>292.167</ele>
        <time>2015-10-02T09:15:22Z</time>
      </trkpt>
      <trkpt lat="47.42753" lon="6.62834">
        <ele>291.843</ele>
        <time>2015-10-02T09:15:23Z</time>
      </trkpt>
      <trkpt lat="47.4275" lon="6.62829">
        <ele>292.262</ele>
        <time>2015-10-02T09:15:24Z</time>
      </trkpt>
      <trkpt lat="47.42747" lon="6.62823">
        <ele>292.295</ele>
        <time>2015-10-02T09:15:25Z</time>
      </trkpt>
      <trkpt lat="47.42745" lon="6.62817">
        <ele>291.886</ele>
        <time>2015-10-02T09:15:26Z</time>
      </trkpt>
      <trkpt lat="47.42743" lon="6.62812">
        <ele>292.108</ele>
        <time>2015-10-02T09:15:27Z</time>
      </trkpt>
      <trkpt lat="47.4274" lon="6.62805">
        <ele>292.21</ele>
        <time>2015-10-02T09:15:28Z</time>
      </trkpt>
      <trkpt lat="47.42737" lon="6.62799">
        <ele>292.184</ele>
        <time>2015-10-02T09:15:29Z</time>
      </trkpt>
      <trkpt lat="47.42735" lon="6.62793">
        <ele>292.193</ele>
        <time>2015-10-02T09:15:30Z</time>
      </trkpt>
      <trkpt lat="47.42733" lon="6.62787">
        <ele>292.566</ele>
        <time>2015-10-02T09:15:31Z</time>
      </trkpt>
      <trkpt lat="47.4273" lon="6.62782">
        <ele>291.755</ele>
        <time>2015-10-02T09:15:32Z</time>
      </trkpt>
      <trkpt lat="47.42728" lon="6.62775">
        <ele>291.803</ele>
        <time>2015-10-02T09:15:33Z</time>
      </trkpt>
      <trkpt lat="47.42726" lon="6.62769">
        <ele>291.484</ele>
        <time>2015-10-02T09:15:34Z</time>
      </trkpt>
      <trkpt lat="47.42724" lon="6.62763">
        <ele>291.776</ele>
        <time>2015-10-02T09:15:35Z</time>
      </trkpt>
      <trkpt lat="47.42722" lon="6.62757">
        <ele>291.99</ele>
        <time>2015-10-02T09:15:36Z</time>
      </trkpt>
      <trkpt lat="47.4272" lon="6.62751">
        <ele>291.963</ele>
        <time>2015-10-02T09:15:37Z</time>
      </trkpt>
      <trkpt lat="47.42718" lon="6.62745">
        <ele>292.123</ele>
        <time>2015-10-02T09:15:38Z</time>
      </trkpt>
      <trkpt lat="47.42717" lon="6.62738">
        <ele>292.537</ele>
        <time>2015-10-02T09:15:39Z</time>
      </trkpt>
      <trkpt lat="47.42715" lon="6.62733">
        <ele>292.519</ele>
        <time>2015-10-02T09:15:40Z</time>
      </trkpt>
      <trkpt lat="47.42713" lon="6.62727">
        <ele>292.352</ele>
        <time>2015-10-02T09:15:41Z</time>
      </trkpt>
      <trkpt lat="47.42711" lon="6.62721">
        <ele>292.477</ele>
        <time>2015-10-02T09:15:42Z</time>
      </trkpt>
      <trkpt lat="47.4271" lon="6.62715">
        <ele>292.372</ele>
        <time>2015-10-02T09:15:43Z</time>
      </trkpt>
      <trkpt lat="47.42709" lon="6.62709">
        <ele>292.166</ele>
        <time>2015-10-02T09:15:44Z</time>
      </trkpt>
      <trkpt lat="47.42707" lon="6.62703">
        <ele>292.398</ele>
        <time>2015-10-02T09:15:45Z</time>
      </trkpt>
      <trkpt lat="47.42705" lon="6.62697">
        <ele>292.542</ele>
        <time>2015-10-02T09:15:46Z</time>
      </trkpt>
      <trkpt lat="47.42704" lon="6.62691">
        <ele>292.626</ele>
        <time>2015-10-02T09:15:47Z</time>
      </trkpt>
      <trkpt lat="47.42702" lon="6.62686">
        <ele>293.11</ele>
        <time>2015-10-02T09:15:48Z</time>
      </trkpt>
      <trkpt lat="47.42701" lon="6.6268">
        <ele>293.295</ele>
        <time>2015-10-02T09:15:49Z</time>
      </trkpt>
      <trkpt lat="47.427" lon="6.62674">
        <ele>293.456</ele>
        <time>2015-10-02T09:15:50Z</time>
      </trkpt>
      <trkpt lat="47.42699" lon="6.62668">
        <ele>294.472</ele>
        <time>2015-10-02T09:15:51Z</time>
      </trkpt>
      <trkpt lat="47.42697" lon="6.62662">
        <ele>294.938</ele>
        <time>2015-10-02T09:15:52Z</time>
      </trkpt>
      <trkpt lat="47.42695" lon="6.62656">
        <ele>295.06</ele>
        <time>2015-10-02T09:15:53Z</time>
      </trkpt>
      <trkpt lat="47.42694" lon="6.62651">
        <ele>295.023</ele>
        <time>2015-10-02T09:15:54Z</time>
      </trkpt>
      <trkpt lat="47.42692" lon="6.62644">
        <ele>295.143</ele>
        <time>2015-10-02T09:15:55Z</time>
      </trkpt>
      <trkpt lat="47.42691" lon="6.62638">
        <ele>294.834</ele>
        <time>2015-10-02T09:15:56Z</time>
      </trkpt>
      <trkpt lat="47.4269" lon="6.62632">
        <ele>294.91</ele>
        <time>2015-10-02T09:15:57Z</time>
      </trkpt>
      <trkpt lat="47.42688" lon="6.62626">
        <ele>294.167</ele>
        <time>2015-10-02T09:15:58Z</time>
      </trkpt>
      <trkpt lat="47.42687" lon="6.62619">
        <ele>294.171</ele>
        <time>2015-10-02T09:15:59Z</time>
      </trkpt>
      <trkpt lat="47.42686" lon="6.62613">
        <ele>294.411</ele>
        <time>2015-10-02T09:16:00Z</time>
      </trkpt>
      <trkpt lat="47.42685" lon="6.62606">
        <ele>294.496</ele>
        <time>2015-10-02T09:16:01Z</time>
      </trkpt>
      <trkpt lat="47.42684" lon="6.626">
        <ele>294.951</ele>
        <time>2015-10-02T09:16:02Z</time>
      </trkpt>
      <trkpt lat="47.42683" lon="6.62594">
        <ele>295.103</ele>
        <time>2015-10-02T09:16:03Z</time>
      </trkpt>
      <trkpt lat="47.42681" lon="6.62588">
        <ele>294.83</ele>
        <time>2015-10-02T09:16:04Z</time>
      </trkpt>
      <trkpt lat="47.4268" lon="6.62581">
        <ele>294.932</ele>
        <time>2015-10-02T09:16:05Z</time>
      </trkpt>
      <trkpt lat="47.42678" lon="6.62575">
        <ele>294.668</ele>
        <time>2015-10-02T09:16:06Z</time>
      </trkpt>
      <trkpt lat="47.42677" lon="6.62569">
        <ele>293.984</ele>
        <time>2015-10-02T09:16:07Z</time>
      </trkpt>
      <trkpt lat="47.42676" lon="6.62563">
        <ele>294.669</ele>
        <time>2015-10-02T09:16:08Z</time>
      </trkpt>
      <trkpt lat="47.42674" lon="6.62556">
        <ele>294.114</ele>
        <time>2015-10-02T09:16:09Z</time>
      </trkpt>
      <trkpt lat="47.42673" lon="6.6255">
        <ele>293.835</ele>
        <time>2015-10-02T09:16:10Z</time>
      </trkpt>
      <trkpt lat="47.42672" lon="6.62543">
        <ele>293.817</ele>
        <time>2015-10-02T09:16:11Z</time>
      </trkpt>
      <trkpt lat="47.42671" lon="6.62537">
        <ele>293.578</ele>
        <time>2015-10-02T09:16:12Z</time>
      </trkpt>
      <trkpt lat="47.4267" lon="6.62531">
        <ele>293.612</ele>
        <time>2015-10-02T09:16:13Z</time>
      </trkpt>
      <trkpt lat="47.42669" lon="6.62525">
        <ele>293.588</ele>
        <time>2015-10-02T09:16:14Z</time>
      </trkpt>
      <trkpt lat="47.42668" lon="6.62519">
        <ele>293.472</ele>
        <time>2015-10-02T09:16:15Z</time>
      </trkpt>
      <trkpt lat="47.42667" lon="6.62513">
        <ele>293.953</ele>
        <time>2015-10-02T09:16:16Z</time>
      </trkpt>
      <trkpt lat="47.42666" lon="6.62506">
        <ele>294.37</ele>
        <time>2015-10-02T09:16:17Z</time>
      </trkpt>
      <trkpt lat="47.42665" lon="6.625">
        <ele>294.578</ele>
        <time>2015-10-02T09:16:18Z</time>
      </trkpt>
      <trkpt lat="47.42664" lon="6.62494">
        <ele>294.601</ele>
        <time>2015-10-02T09:16:19Z</time>
      </trkpt>
      <trkpt lat="47.42662" lon="6.62488">
        <ele>294.788</ele>
        <time>2015-10-02T09:16:20Z</time>
      </trkpt>
      <trkpt lat="47.42661" lon="6.62481">
        <ele>294.802</ele>
        <time>2015-10-02T09:16:21Z</time>
      </trkpt>
      <trkpt lat="47.4266" lon="6.62474">
        <ele>294.861</ele>
        <time>2015-10-02T09:16:22Z</time>
      </trkpt>
      <trkpt lat="47.42659" lon="6.62468">
        <ele>294.913</ele>
        <time>2015-10-02T09:16:23Z</time>
      </trkpt>
      <trkpt lat="47.42658" lon="6.62462">
        <ele>295.274</ele>
        <time>2015-10-02T09:16:24Z</time>
      </trkpt>
      <trkpt lat="47.42656" lon="6.62455">
        <ele>294.966</ele>
        <time>2015-10-02T09:16:25Z</time>
      </trkpt>
      <trkpt lat="47.42655" lon="6.62448">
        <ele>295.066</ele>
        <time>2015-10-02T09:16:26Z</time>
      </trkpt>
      <trkpt lat="47.42654" lon="6.62442">
        <ele>295.15</ele>
        <time>2015-10-02T09:16:27Z</time>
      </trkpt>
      <trkpt lat="47.42653" lon="6.62436">
        <ele>295.229</ele>
        <time>2015-10-02T09:16:28Z</time>
      </trkpt>
      <trkpt lat="47.42652" lon="6.62429">
        <ele>294.767</ele>
        <time>2015-10-02T09:16:29Z</time>
      </trkpt>
      <trkpt lat="47.42651" lon="6.62424">
        <ele>294.64</ele>
        <time>2015-10-02T09:16:30Z</time>
      </trkpt>
      <trkpt lat="47.4265" lon="6.62417">
        <ele>294.699</ele>
        <time>2015-10-02T09:16:31Z</time>
      </trkpt>
      <trkpt lat="47.42649" lon="6.62411">
        <ele>294.809</ele>
        <time>2015-10-02T09:16:32Z</time>
      </trkpt>
      <trkpt lat="47.42649" lon="6.62404">
        <ele>294.941</ele>
        <time>2015-10-02T09:16:33Z</time>
      </trkpt>
      <trkpt lat="47.42648" lon="6.62398">
        <ele>294.977</ele>
        <time>2015-10-02T09:16:34Z</time>
      </trkpt>
      <trkpt lat="47.42647" lon="6.62392">
        <ele>294.947</ele>
        <time>2015-10-02T09:16:35Z</time>
      </trkpt>
      <trkpt lat="47.42646" lon="6.62385">
        <ele>294.934</ele>
        <time>2015-10-02T09:16:36Z</time>
      </trkpt>
      <trkpt lat="47.42645" lon="6.62379">
        <ele>294.801</ele>
        <time>2015-10-02T09:16:37Z</time>
      </trkpt>
      <trkpt lat="47.42644" lon="6.62372">
        <ele>294.748</ele>
        <time>2015-10-02T09:16:38Z</time>
      </trkpt>
      <trkpt lat="47.42643" lon="6.62366">
        <ele>294.635</ele>
        <time>2015-10-02T09:16:39Z</time>
      </trkpt>
      <trkpt lat="47.42643" lon="6.6236">
        <ele>294.743</ele>
        <time>2015-10-02T09:16:40Z</time>
      </trkpt>
      <trkpt lat="47.42642" lon="6.62353">
        <ele>294.372</ele>
        <time>2015-10-02T09:16:41Z</time>
      </trkpt>
      <trkpt lat="47.42641" lon="6.62347">
        <ele>294.547</ele>
        <time>2015-10-02T09:16:42Z</time>
      </trkpt>
      <trkpt lat="47.4264" lon="6.62341">
        <ele>294.712</ele>
        <time>2015-10-02T09:16:43Z</time>
      </trkpt>
      <trkpt lat="47.4264" lon="6.62335">
        <ele>294.941</ele>
        <time>2015-10-02T09:16:44Z</time>
      </trkpt>
      <trkpt lat="47.42639" lon="6.62328">
        <ele>295.067</ele>
        <time>2015-10-02T09:16:45Z</time>
      </trkpt>
      <trkpt lat="47.42639" lon="6.62322">
        <ele>294.853</ele>
        <time>2015-10-02T09:16:46Z</time>
      </trkpt>
      <trkpt lat="47.42638" lon="6.62315">
        <ele>294.911</ele>
        <time>2015-10-02T09:16:47Z</time>
      </trkpt>
      <trkpt lat="47.42638" lon="6.62309">
        <ele>294.733</ele>
        <time>2015-10-02T09:16:48Z</time>
      </trkpt>
      <trkpt lat="47.42637" lon="6.62303">
        <ele>294.697</ele>
        <time>2015-10-02T09:16:49Z</time>
      </trkpt>
      <trkpt lat="47.42636" lon="6.62297">
        <ele>294.769</ele>
        <time>2015-10-02T09:16:50Z</time>
      </trkpt>
      <trkpt lat="47.42636" lon="6.6229">
        <ele>295.111</ele>
        <time>2015-10-02T09:16:51Z</time>
      </trkpt>
      <trkpt lat="47.42635" lon="6.62284">
        <ele>294.997</ele>
        <time>2015-10-02T09:16:52Z</time>
      </trkpt>
      <trkpt lat="47.42635" lon="6.62277">
        <ele>295.065</ele>
        <time>2015-10-02T09:16:53Z</time>
      </trkpt>
      <trkpt lat="47.42634" lon="6.6227">
        <ele>294.868</ele>
        <time>2015-10-02T09:16:54Z</time>
      </trkpt>
      <trkpt lat="47.42634" lon="6.62263">
        <ele>294.97</ele>
        <time>2015-10-02T09:16:55Z</time>
      </trkpt>
      <trkpt lat="47.42633" lon="6.62257">
        <ele>295.393</ele>
        <time>2015-10-02T09:16:56Z</time>
      </trkpt>
      <trkpt lat="47.42632" lon="6.6225">
        <ele>295.329</ele>
        <time>2015-10-02T09:16:57Z</time>
      </trkpt>
      <trkpt lat="47.42632" lon="6.62243">
        <ele>295.387</ele>
        <time>2015-10-02T09:16:58Z</time>
      </trkpt>
      <trkpt lat="47.42631" lon="6.62236">
        <ele>294.789</ele>
        <time>2015-10-02T09:16:59Z</time>
      </trkpt>
      <trkpt lat="47.42631" lon="6.6223">
        <ele>294.873</ele>
        <time>2015-10-02T09:17:00Z</time>
      </trkpt>
      <trkpt lat="47.42631" lon="6.62224">
        <ele>294.615</ele>
        <time>2015-10-02T09:17:01Z</time>
      </trkpt>
      <trkpt lat="47.4263" lon="6.62217">
        <ele>294.959</ele>
        <time>2015-10-02T09:17:02Z</time>
      </trkpt>
      <trkpt lat="47.42629" lon="6.6221">
        <ele>295.37</ele>
        <time>2015-10-02T09:17:03Z</time>
      </trkpt>
      <trkpt lat="47.42629" lon="6.62204">
        <ele>295.458</ele>
        <time>2015-10-02T09:17:04Z</time>
      </trkpt>
      <trkpt lat="47.42629" lon="6.62197">
        <ele>295.243</ele>
        <time>2015-10-02T09:17:05Z</time>
      </trkpt>
      <trkpt lat="47.42628" lon="6.6219">
        <ele>295.007</ele>
        <time>2015-10-02T09:17:06Z</time>
      </trkpt>
      <trkpt lat="47.42628" lon="6.62183">
        <ele>294.871</ele>
        <time>2015-10-02T09:17:07Z</time>
      </trkpt>
      <trkpt lat="47.42627" lon="6.62177">
        <ele>295.281</ele>
        <time>2015-10-02T09:17:08Z</time>
      </trkpt>
      <trkpt lat="47.42626" lon="6.62171">
        <ele>295.725</ele>
        <time>2015-10-02T09:17:09Z</time>
      </trkpt>
      <trkpt lat="47.42625" lon="6.62164">
        <ele>296.169</ele>
        <time>2015-10-02T09:17:10Z</time>
      </trkpt>
      <trkpt lat="47.42625" lon="6.62158">
        <ele>296.05</ele>
        <time>2015-10-02T09:17:11Z</time>
      </trkpt>
      <trkpt lat="47.42624" lon="6.6215">
        <ele>296.555</ele>
        <time>2015-10-02T09:17:12Z</time>
      </trkpt>
      <trkpt lat="47.42624" lon="6.62144">
        <ele>296.932</ele>
        <time>2015-10-02T09:17:13Z</time>
      </trkpt>
      <trkpt lat="47.42624" lon="6.62137">
        <ele>297.09</ele>
        <time>2015-10-02T09:17:14Z</time>
      </trkpt>
      <trkpt lat="47.42623" lon="6.6213">
        <ele>297.273</ele>
        <time>2015-10-02T09:17:15Z</time>
      </trkpt>
      <trkpt lat="47.42624" lon="6.62123">
        <ele>297.477</ele>
        <time>2015-10-02T09:17:16Z</time>
      </trkpt>
      <trkpt lat="47.42623" lon="6.62116">
        <ele>297.807</ele>
        <time>2015-10-02T09:17:17Z</time>
      </trkpt>
      <trkpt lat="47.42624" lon="6.6211">
        <ele>297.19</ele>
        <time>2015-10-02T09:17:18Z</time>
      </trkpt>
      <trkpt lat="47.42624" lon="6.62103">
        <ele>297.333</ele>
        <time>2015-10-02T09:17:19Z</time>
      </trkpt>
      <trkpt lat="47.42624" lon="6.62096">
        <ele>297.612</ele>
        <time>2015-10-02T09:17:20Z</time>
      </trkpt>
      <trkpt lat="47.42623" lon="6.6209">
        <ele>297.644</ele>
        <time>2015-10-02T09:17:21Z</time>
      </trkpt>
      <trkpt lat="47.42624" lon="6.62084">
        <ele>298.816</ele>
        <time>2015-10-02T09:17:22Z</time>
      </trkpt>
      <trkpt lat="47.42623" lon="6.62077">
        <ele>298.458</ele>
        <time>2015-10-02T09:17:23Z</time>
      </trkpt>
      <trkpt lat="47.42624" lon="6.6207">
        <ele>298.059</ele>
        <time>2015-10-02T09:17:24Z</time>
      </trkpt>
      <trkpt lat="47.42624" lon="6.62063">
        <ele>298.233</ele>
        <time>2015-10-02T09:17:25Z</time>
      </trkpt>
      <trkpt lat="47.42624" lon="6.62056">
        <ele>298.614</ele>
        <time>2015-10-02T09:17:26Z</time>
      </trkpt>
      <trkpt lat="47.42624" lon="6.6205">
        <ele>298.62</ele>
        <time>2015-10-02T09:17:27Z</time>
      </trkpt>
      <trkpt lat="47.42624" lon="6.62043">
        <ele>298.274</ele>
        <time>2015-10-02T09:17:28Z</time>
      </trkpt>
      <trkpt lat="47.42624" lon="6.62037">
        <ele>297.975</ele>
        <time>2015-10-02T09:17:29Z</time>
      </trkpt>
      <trkpt lat="47.42624" lon="6.6203">
        <ele>298.495</ele>
        <time>2015-10-02T09:17:30Z</time>
      </trkpt>
      <trkpt lat="47.42624" lon="6.62023">
        <ele>298.443</ele>
        <time>2015-10-02T09:17:31Z</time>
      </trkpt>
      <trkpt lat="47.42624" lon="6.62016">
        <ele>298.733</ele>
        <time>2015-10-02T09:17:32Z</time>
      </trkpt>
      <trkpt lat="47.42624" lon="6.6201">
        <ele>299.328</ele>
        <time>2015-10-02T09:17:33Z</time>
      </trkpt>
      <trkpt lat="47.42625" lon="6.62003">
        <ele>298.247</ele>
        <time>2015-10-02T09:17:34Z</time>
      </trkpt>
      <trkpt lat="47.42625" lon="6.61997">
        <ele>298.116</ele>
        <time>2015-10-02T09:17:35Z</time>
      </trkpt>
      <trkpt lat="47.42625" lon="6.6199">
        <ele>298.153</ele>
        <time>2015-10-02T09:17:36Z</time>
      </trkpt>
      <trkpt lat="47.42625" lon="6.61984">
        <ele>298.246</ele>
        <time>2015-10-02T09:17:37Z</time>
      </trkpt>
      <trkpt lat="47.42626" lon="6.61978">
        <ele>298.04</ele>
        <time>2015-10-02T09:17:38Z</time>
      </trkpt>
      <trkpt lat="47.42626" lon="6.6197">
        <ele>298.858</ele>
        <time>2015-10-02T09:17:39Z</time>
      </trkpt>
      <trkpt lat="47.42627" lon="6.61964">
        <ele>299.057</ele>
        <time>2015-10-02T09:17:40Z</time>
      </trkpt>
      <trkpt lat="47.42627" lon="6.61957">
        <ele>298.726</ele>
        <time>2015-10-02T09:17:41Z</time>
      </trkpt>
      <trkpt lat="47.42628" lon="6.6195">
        <ele>298.874</ele>
        <time>2015-10-02T09:17:42Z</time>
      </trkpt>
      <trkpt lat="47.42629" lon="6.61944">
        <ele>298.461</ele>
        <time>2015-10-02T09:17:43Z</time>
      </trkpt>
      <trkpt lat="47.42629" lon="6.61938">
        <ele>298.449</ele>
        <time>2015-10-02T09:17:44Z</time>
      </trkpt>
      <trkpt lat="47.4263" lon="6.61932">
        <ele>298.898</ele>
        <time>2015-10-02T09:17:45Z</time>
      </trkpt>
      <trkpt lat="47.4263" lon="6.61925">
        <ele>298.82</ele>
        <time>2015-10-02T09:17:46Z</time>
      </trkpt>
      <trkpt lat="47.42631" lon="6.61919">
        <ele>298.792</ele>
        <time>2015-10-02T09:17:47Z</time>
      </trkpt>
      <trkpt lat="47.42632" lon="6.61913">
        <ele>298.241</ele>
        <time>2015-10-02T09:17:48Z</time>
      </trkpt>
      <trkpt lat="47.42632" lon="6.61907">
        <ele>298.365</ele>
        <time>2015-10-02T09:17:49Z</time>
      </trkpt>
      <trkpt lat="47.42633" lon="6.619">
        <ele>298.502</ele>
        <time>2015-10-02T09:17:50Z</time>
      </trkpt>
      <trkpt lat="47.42634" lon="6.61894">
        <ele>298.58</ele>
        <time>2015-10-02T09:17:51Z</time>
      </trkpt>
      <trkpt lat="47.42635" lon="6.61887">
        <ele>298.628</ele>
        <time>2015-10-02T09:17:52Z</time>
      </trkpt>
      <trkpt lat="47.42636" lon="6.61881">
        <ele>298.381</ele>
        <time>2015-10-02T09:17:53Z</time>
      </trkpt>
      <trkpt lat="47.42637" lon="6.61875">
        <ele>297.993</ele>
        <time>2015-10-02T09:17:54Z</time>
      </trkpt>
      <trkpt lat="47.42638" lon="6.61868">
        <ele>297.788</ele>
        <time>2015-10-02T09:17:55Z</time>
      </trkpt>
      <trkpt lat="47.42639" lon="6.61861">
        <ele>297.932</ele>
        <time>2015-10-02T09:17:56Z</time>
      </trkpt>
      <trkpt lat="47.4264" lon="6.61855">
        <ele>297.891</ele>
        <time>2015-10-02T09:17:57Z</time>
      </trkpt>
      <trkpt lat="47.42641" lon="6.61848">
        <ele>298.032</ele>
        <time>2015-10-02T09:17:58Z</time>
      </trkpt>
      <trkpt lat="47.42642" lon="6.61842">
        <ele>298.171</ele>
        <time>2015-10-02T09:17:59Z</time>
      </trkpt>
      <trkpt lat="47.42643" lon="6.61835">
        <ele>297.882</ele>
        <time>2015-10-02T09:18:00Z</time>
      </trkpt>
      <trkpt lat="47.42644" lon="6.61829">
        <ele>298.401</ele>
        <time>2015-10-02T09:18:01Z</time>
      </trkpt>
      <trkpt lat="47.42645" lon="6.61822">
        <ele>298.063</ele>
        <time>2015-10-02T09:18:02Z</time>
      </trkpt>
      <trkpt lat="47.42646" lon="6.61816">
        <ele>298.219</ele>
        <time>2015-10-02T09:18:03Z</time>
      </trkpt>
      <trkpt lat="47.42647" lon="6.6181">
        <ele>298.244</ele>
        <time>2015-10-02T09:18:04Z</time>
      </trkpt>
      <trkpt lat="47.42649" lon="6.61803">
        <ele>298.245</ele>
        <time>2015-10-02T09:18:05Z</time>
      </trkpt>
      <trkpt lat="47.4265" lon="6.61797">
        <ele>298.256</ele>
        <time>2015-10-02T09:18:06Z</time>
      </trkpt>
      <trkpt lat="47.4265" lon="6.61791">
        <ele>298.921</ele>
        <time>2015-10-02T09:18:07Z</time>
      </trkpt>
      <trkpt lat="47.42652" lon="6.61785">
        <ele>298.899</ele>
        <time>2015-10-02T09:18:08Z</time>
      </trkpt>
      <trkpt lat="47.42653" lon="6.61778">
        <ele>298.428</ele>
        <time>2015-10-02T09:18:09Z</time>
      </trkpt>
      <trkpt lat="47.42655" lon="6.61772">
        <ele>298.38</ele>
        <time>2015-10-02T09:18:10Z</time>
      </trkpt>
      <trkpt lat="47.42656" lon="6.61766">
        <ele>298.443</ele>
        <time>2015-10-02T09:18:11Z</time>
      </trkpt>
      <trkpt lat="47.42657" lon="6.6176">
        <ele>298.359</ele>
        <time>2015-10-02T09:18:12Z</time>
      </trkpt>
      <trkpt lat="47.42659" lon="6.61753">
        <ele>298.69</ele>
        <time>2015-10-02T09:18:13Z</time>
      </trkpt>
      <trkpt lat="47.4266" lon="6.61747">
        <ele>298.802</ele>
        <time>2015-10-02T09:18:14Z</time>
      </trkpt>
      <trkpt lat="47.42662" lon="6.61741">
        <ele>298.783</ele>
        <time>2015-10-02T09:18:15Z</time>
      </trkpt>
      <trkpt lat="47.42663" lon="6.61735">
        <ele>298.921</ele>
        <time>2015-10-02T09:18:16Z</time>
      </trkpt>
      <trkpt lat="47.42665" lon="6.61729">
        <ele>299.013</ele>
        <time>2015-10-02T09:18:17Z</time>
      </trkpt>
      <trkpt lat="47.42666" lon="6.61723">
        <ele>299.199</ele>
        <time>2015-10-02T09:18:18Z</time>
      </trkpt>
      <trkpt lat="47.42667" lon="6.61716">
        <ele>298.78</ele>
        <time>2015-10-02T09:18:19Z</time>
      </trkpt>
      <trkpt lat="47.42668" lon="6.6171">
        <ele>299.153</ele>
        <time>2015-10-02T09:18:20Z</time>
      </trkpt>
      <trkpt lat="47.4267" lon="6.61704">
        <ele>299.347</ele>
        <time>2015-10-02T09:18:21Z</time>
      </trkpt>
      <trkpt lat="47.42672" lon="6.61697">
        <ele>299.242</ele>
        <time>2015-10-02T09:18:22Z</time>
      </trkpt>
      <trkpt lat="47.42673" lon="6.61691">
        <ele>299.415</ele>
        <time>2015-10-02T09:18:23Z</time>
      </trkpt>
      <trkpt lat="47.42674" lon="6.61685">
        <ele>299.758</ele>
        <time>2015-10-02T09:18:24Z</time>
      </trkpt>
      <trkpt lat="47.42675" lon="6.61679">
        <ele>299.486</ele>
        <time>2015-10-02T09:18:25Z</time>
      </trkpt>
      <trkpt lat="47.42678" lon="6.61672">
        <ele>298.841</ele>
        <time>2015-10-02T09:18:26Z</time>
      </trkpt>
      <trkpt lat="47.42679" lon="6.61666">
        <ele>298.815</ele>
        <time>2015-10-02T09:18:27Z</time>
      </trkpt>
      <trkpt lat="47.4268" lon="6.6166">
        <ele>298.486</ele>
        <time>2015-10-02T09:18:28Z</time>
      </trkpt>
      <trkpt lat="47.42682" lon="6.61654">
        <ele>298.415</ele>
        <time>2015-10-02T09:18:29Z</time>
      </trkpt>
      <trkpt lat="47.42683" lon="6.61647">
        <ele>297.851</ele>
        <time>2015-10-02T09:18:30Z</time>
      </trkpt>
      <trkpt lat="47.42685" lon="6.6164">
        <ele>297.739</ele>
        <time>2015-10-02T09:18:31Z</time>
      </trkpt>
      <trkpt lat="47.42686" lon="6.61634">
        <ele>297.783</ele>
        <time>2015-10-02T09:18:32Z</time>
      </trkpt>
      <trkpt lat="47.42687" lon="6.61627">
        <ele>297.517</ele>
        <time>2015-10-02T09:18:33Z</time>
      </trkpt>
      <trkpt lat="47.42689" lon="6.61621">
        <ele>297.935</ele>
        <time>2015-10-02T09:18:34Z</time>
      </trkpt>
      <trkpt lat="47.42691" lon="6.61614">
        <ele>298.416</ele>
        <time>2015-10-02T09:18:35Z</time>
      </trkpt>
      <trkpt lat="47.42692" lon="6.61609">
        <ele>298.274</ele>
        <time>2015-10-02T09:18:36Z</time>
      </trkpt>
      <trkpt lat="47.42694" lon="6.61602">
        <ele>298.071</ele>
        <time>2015-10-02T09:18:37Z</time>
      </trkpt>
      <trkpt lat="47.42695" lon="6.61596">
        <ele>297.889</ele>
        <time>2015-10-02T09:18:38Z</time>
      </trkpt>
      <trkpt lat="47.42697" lon="6.61589">
        <ele>297.833</ele>
        <time>2015-10-02T09:18:39Z</time>
      </trkpt>
      <trkpt lat="47.42699" lon="6.61583">
        <ele>297.716</ele>
        <time>2015-10-02T09:18:40Z</time>
      </trkpt>
      <trkpt lat="47.42701" lon="6.61576">
        <ele>297.564</ele>
        <time>2015-10-02T09:18:41Z</time>
      </trkpt>
      <trkpt lat="47.42703" lon="6.6157">
        <ele>297.355</ele>
        <time>2015-10-02T09:18:42Z</time>
      </trkpt>
      <trkpt lat="47.42704" lon="6.61564">
        <ele>297.314</ele>
        <time>2015-10-02T09:18:43Z</time>
      </trkpt>
      <trkpt lat="47.42706" lon="6.61557">
        <ele>297.512</ele>
        <time>2015-10-02T09:18:44Z</time>
      </trkpt>
      <trkpt lat="47.42707" lon="6.61551">
        <ele>297.506</ele>
        <time>2015-10-02T09:18:45Z</time>
      </trkpt>
      <trkpt lat="47.42709" lon="6.61545">
        <ele>297.45</ele>
        <time>2015-10-02T09:18:46Z</time>
      </trkpt>
      <trkpt lat="47.42711" lon="6.61539">
        <ele>297.349</ele>
        <time>2015-10-02T09:18:47Z</time>
      </trkpt>
      <trkpt lat="47.42713" lon="6.61533">
        <ele>297.404</ele>
        <time>2015-10-02T09:18:48Z</time>
      </trkpt>
      <trkpt lat="47.42715" lon="6.61527">
        <ele>297.77</ele>
        <time>2015-10-02T09:18:49Z</time>
      </trkpt>
      <trkpt lat="47.42716" lon="6.61521">
        <ele>297.612</ele>
        <time>2015-10-02T09:18:50Z</time>
      </trkpt>
      <trkpt lat="47.42718" lon="6.61517">
        <ele>298.605</ele>
        <time>2015-10-02T09:18:51Z</time>
      </trkpt>
      <trkpt lat="47.4272" lon="6.61511">
        <ele>298.74</ele>
        <time>2015-10-02T09:18:52Z</time>
      </trkpt>
      <trkpt lat="47.42721" lon="6.61504">
        <ele>298.447</ele>
        <time>2015-10-02T09:18:53Z</time>
      </trkpt>
      <trkpt lat="47.42723" lon="6.61498">
        <ele>298.264</ele>
        <time>2015-10-02T09:18:54Z</time>
      </trkpt>
      <trkpt lat="47.42725" lon="6.61491">
        <ele>298.048</ele>
        <time>2015-10-02T09:18:55Z</time>
      </trkpt>
      <trkpt lat="47.42727" lon="6.61486">
        <ele>298.027</ele>
        <time>2015-10-02T09:18:56Z</time>
      </trkpt>
      <trkpt lat="47.42729" lon="6.61479">
        <ele>298.217</ele>
        <time>2015-10-02T09:18:57Z</time>
      </trkpt>
      <trkpt lat="47.42731" lon="6.61473">
        <ele>298.328</ele>
        <time>2015-10-02T09:18:58Z</time>
      </trkpt>
      <trkpt lat="47.42733" lon="6.61467">
        <ele>298.155</ele>
        <time>2015-10-02T09:18:59Z</time>
      </trkpt>
      <trkpt lat="47.42734" lon="6.61462">
        <ele>298.183</ele>
        <time>2015-10-02T09:19:00Z</time>
      </trkpt>
      <trkpt lat="47.42736" lon="6.61456">
        <ele>299.007</ele>
        <time>2015-10-02T09:19:01Z</time>
      </trkpt>
      <trkpt lat="47.42738" lon="6.6145">
        <ele>298.733</ele>
        <time>2015-10-02T09:19:02Z</time>
      </trkpt>
      <trkpt lat="47.4274" lon="6.61444">
        <ele>298.845</ele>
        <time>2015-10-02T09:19:03Z</time>
      </trkpt>
      <trkpt lat="47.42742" lon="6.61439">
        <ele>299.138</ele>
        <time>2015-10-02T09:19:04Z</time>
      </trkpt>
      <trkpt lat="47.42744" lon="6.61433">
        <ele>298.871</ele>
        <time>2015-10-02T09:19:05Z</time>
      </trkpt>
      <trkpt lat="47.42745" lon="6.61427">
        <ele>299.077</ele>
        <time>2015-10-02T09:19:06Z</time>
      </trkpt>
      <trkpt lat="47.42747" lon="6.61422">
        <ele>299.179</ele>
        <time>2015-10-02T09:19:07Z</time>
      </trkpt>
      <trkpt lat="47.42749" lon="6.61416">
        <ele>299.248</ele>
        <time>2015-10-02T09:19:08Z</time>
      </trkpt>
      <trkpt lat="47.42751" lon="6.6141">
        <ele>299.241</ele>
        <time>2015-10-02T09:19:09Z</time>
      </trkpt>
      <trkpt lat="47.42753" lon="6.61405">
        <ele>299.034</ele>
        <time>2015-10-02T09:19:10Z</time>
      </trkpt>
      <trkpt lat="47.42755" lon="6.61399">
        <ele>298.699</ele>
        <time>2015-10-02T09:19:11Z</time>
      </trkpt>
      <trkpt lat="47.42757" lon="6.61393">
        <ele>298.709</ele>
        <time>2015-10-02T09:19:12Z</time>
      </trkpt>
      <trkpt lat="47.42759" lon="6.61388">
        <ele>298.878</ele>
        <time>2015-10-02T09:19:13Z</time>
      </trkpt>
      <trkpt lat="47.42761" lon="6.61383">
        <ele>299.668</ele>
        <time>2015-10-02T09:19:14Z</time>
      </trkpt>
      <trkpt lat="47.42763" lon="6.61377">
        <ele>299.988</ele>
        <time>2015-10-02T09:19:15Z</time>
      </trkpt>
      <trkpt lat="47.42765" lon="6.61371">
        <ele>299.858</ele>
        <time>2015-10-02T09:19:16Z</time>
      </trkpt>
      <trkpt lat="47.42767" lon="6.61366">
        <ele>299.934</ele>
        <time>2015-10-02T09:19:17Z</time>
      </trkpt>
      <trkpt lat="47.42769" lon="6.6136">
        <ele>299.339</ele>
        <time>2015-10-02T09:19:18Z</time>
      </trkpt>
      <trkpt lat="47.42772" lon="6.61353">
        <ele>298.639</ele>
        <time>2015-10-02T09:19:19Z</time>
      </trkpt>
      <trkpt lat="47.42774" lon="6.61347">
        <ele>297.495</ele>
        <time>2015-10-02T09:19:20Z</time>
      </trkpt>
      <trkpt lat="47.42776" lon="6.6134">
        <ele>297.217</ele>
        <time>2015-10-02T09:19:21Z</time>
      </trkpt>
      <trkpt lat="47.42778" lon="6.61333">
        <ele>296.777</ele>
        <time>2015-10-02T09:19:22Z</time>
      </trkpt>
      <trkpt lat="47.42781" lon="6.61327">
        <ele>296.475</ele>
        <time>2015-10-02T09:19:23Z</time>
      </trkpt>
      <trkpt lat="47.42784" lon="6.61316">
        <ele>293.466</ele>
        <time>2015-10-02T09:19:24Z</time>
      </trkpt>
      <trkpt lat="47.42786" lon="6.6131">
        <ele>293.102</ele>
        <time>2015-10-02T09:19:25Z</time>
      </trkpt>
      <trkpt lat="47.42788" lon="6.61303">
        <ele>293.638</ele>
        <time>2015-10-02T09:19:26Z</time>
      </trkpt>
      <trkpt lat="47.42789" lon="6.61298">
        <ele>293.939</ele>
        <time>2015-10-02T09:19:27Z</time>
      </trkpt>
      <trkpt lat="47.4279" lon="6.61293">
        <ele>293.714</ele>
        <time>2015-10-02T09:19:28Z</time>
      </trkpt>
      <trkpt lat="47.42791" lon="6.61289">
        <ele>294.092</ele>
        <time>2015-10-02T09:19:29Z</time>
      </trkpt>
      <trkpt lat="47.42792" lon="6.61285">
        <ele>293.887</ele>
        <time>2015-10-02T09:19:30Z</time>
      </trkpt>
      <trkpt lat="47.42793" lon="6.61281">
        <ele>293.284</ele>
        <time>2015-10-02T09:19:31Z</time>
      </trkpt>
      <trkpt lat="47.42793" lon="6.61278">
        <ele>293.354</ele>
        <time>2015-10-02T09:19:32Z</time>
      </trkpt>
      <trkpt lat="47.42794" lon="6.61277">
        <ele>293.68</ele>
        <time>2015-10-02T09:19:33Z</time>
      </trkpt>
      <trkpt lat="47.42794" lon="6.61275">
        <ele>290.694</ele>
        <time>2015-10-02T09:20:02Z</time>
      </trkpt>
      <trkpt lat="47.42795" lon="6.61274">
        <ele>291.182</ele>
        <time>2015-10-02T09:20:04Z</time>
      </trkpt>
      <trkpt lat="47.42798" lon="6.61274">
        <ele>293.921</ele>
        <time>2015-10-02T09:20:38Z</time>
      </trkpt>
      <trkpt lat="47.42795" lon="6.61277">
        <ele>294.234</ele>
        <time>2015-10-02T09:23:40Z</time>
      </trkpt>
      <trkpt lat="47.42796" lon="6.61275">
        <ele>288.31</ele>
        <time>2015-10-02T09:24:56Z</time>
      </trkpt>
      <trkpt lat="47.42797" lon="6.61275">
        <ele>289.393</ele>
        <time>2015-10-02T09:25:44Z</time>
      </trkpt>
      <trkpt lat="47.42796" lon="6.61273">
        <ele>290.534</ele>
        <time>2015-10-02T09:26:41Z</time>
      </trkpt>
      <trkpt lat="47.42796" lon="6.61271">
        <ele>291.156</ele>
        <time>2015-10-02T09:26:43Z</time>
      </trkpt>
      <trkpt lat="47.42796" lon="6.61268">
        <ele>291.826</ele>
        <time>2015-10-02T09:26:45Z</time>
      </trkpt>
      <trkpt lat="47.42796" lon="6.61267">
        <ele>292.019</ele>
        <time>2015-10-02T09:26:46Z</time>
      </trkpt>
      <trkpt lat="47.42797" lon="6.61266">
        <ele>291.503</ele>
        <time>2015-10-02T09:26:47Z</time>
      </trkpt>
      <trkpt lat="47.42797" lon="6.61263">
        <ele>291.096</ele>
        <time>2015-10-02T09:26:49Z</time>
      </trkpt>
      <trkpt lat="47.42798" lon="6.61261">
        <ele>291.508</ele>
        <time>2015-10-02T09:26:51Z</time>
      </trkpt>
      <trkpt lat="47.42796" lon="6.61262">
        <ele>292.584</ele>
        <time>2015-10-02T09:27:56Z</time>
      </trkpt>
      <trkpt lat="47.42797" lon="6.6126">
        <ele>292.323</ele>
        <time>2015-10-02T09:27:59Z</time>
      </trkpt>
      <trkpt lat="47.42798" lon="6.61259">
        <ele>291.236</ele>
        <time>2015-10-02T09:28:59Z</time>
      </trkpt>
      <trkpt lat="47.42798" lon="6.61258">
        <ele>290.672</ele>
        <time>2015-10-02T09:29:53Z</time>
      </trkpt>
      <trkpt lat="47.42798" lon="6.61256">
        <ele>290.783</ele>
        <time>2015-10-02T09:29:55Z</time>
      </trkpt>
      <trkpt lat="47.42799" lon="6.61255">
        <ele>291.178</ele>
        <time>2015-10-02T09:30:07Z</time>
      </trkpt>
      <trkpt lat="47.42799" lon="6.61254">
        <ele>290.971</ele>
        <time>2015-10-02T09:30:14Z</time>
      </trkpt>
      <trkpt lat="47.428" lon="6.61252">
        <ele>291.324</ele>
        <time>2015-10-02T09:30:43Z</time>
      </trkpt>
      <trkpt lat="47.42801" lon="6.61249">
        <ele>291.417</ele>
        <time>2015-10-02T09:30:48Z</time>
      </trkpt>
      <trkpt lat="47.42802" lon="6.61247">
        <ele>291.595</ele>
        <time>2015-10-02T09:30:49Z</time>
      </trkpt>
      <trkpt lat="47.42802" lon="6.61244">
        <ele>291.797</ele>
        <time>2015-10-02T09:30:50Z</time>
      </trkpt>
      <trkpt lat="47.42804" lon="6.61242">
        <ele>292.032</ele>
        <time>2015-10-02T09:30:51Z</time>
      </trkpt>
      <trkpt lat="47.42805" lon="6.61239">
        <ele>291.862</ele>
        <time>2015-10-02T09:30:52Z</time>
      </trkpt>
      <trkpt lat="47.42805" lon="6.61236">
        <ele>292.159</ele>
        <time>2015-10-02T09:30:53Z</time>
      </trkpt>
      <trkpt lat="47.42806" lon="6.61233">
        <ele>292.497</ele>
        <time>2015-10-02T09:30:54Z</time>
      </trkpt>
      <trkpt lat="47.42807" lon="6.6123">
        <ele>292.657</ele>
        <time>2015-10-02T09:30:55Z</time>
      </trkpt>
      <trkpt lat="47.42808" lon="6.61226">
        <ele>292.76</ele>
        <time>2015-10-02T09:30:56Z</time>
      </trkpt>
      <trkpt lat="47.42809" lon="6.61222">
        <ele>293.128</ele>
        <time>2015-10-02T09:30:57Z</time>
      </trkpt>
      <trkpt lat="47.4281" lon="6.61218">
        <ele>293.034</ele>
        <time>2015-10-02T09:30:58Z</time>
      </trkpt>
      <trkpt lat="47.42811" lon="6.61213">
        <ele>293.27</ele>
        <time>2015-10-02T09:30:59Z</time>
      </trkpt>
      <trkpt lat="47.42813" lon="6.61209">
        <ele>293.594</ele>
        <time>2015-10-02T09:31:00Z</time>
      </trkpt>
      <trkpt lat="47.42815" lon="6.61205">
        <ele>293.698</ele>
        <time>2015-10-02T09:31:01Z</time>
      </trkpt>
      <trkpt lat="47.42817" lon="6.612">
        <ele>293.932</ele>
        <time>2015-10-02T09:31:02Z</time>
      </trkpt>
      <trkpt lat="47.42818" lon="6.61195">
        <ele>293.517</ele>
        <time>2015-10-02T09:31:03Z</time>
      </trkpt>
      <trkpt lat="47.4282" lon="6.6119">
        <ele>293.406</ele>
        <time>2015-10-02T09:31:04Z</time>
      </trkpt>
      <trkpt lat="47.42822" lon="6.61185">
        <ele>293.05</ele>
        <time>2015-10-02T09:31:05Z</time>
      </trkpt>
      <trkpt lat="47.42823" lon="6.6118">
        <ele>293.177</ele>
        <time>2015-10-02T09:31:06Z</time>
      </trkpt>
      <trkpt lat="47.42825" lon="6.61174">
        <ele>293.118</ele>
        <time>2015-10-02T09:31:07Z</time>
      </trkpt>
      <trkpt lat="47.42826" lon="6.61168">
        <ele>293.354</ele>
        <time>2015-10-02T09:31:08Z</time>
      </trkpt>
      <trkpt lat="47.42827" lon="6.61158">
        <ele>292.125</ele>
        <time>2015-10-02T09:31:09Z</time>
      </trkpt>
      <trkpt lat="47.42827" lon="6.6115">
        <ele>291.896</ele>
        <time>2015-10-02T09:31:10Z</time>
      </trkpt>
      <trkpt lat="47.42828" lon="6.61144">
        <ele>291.368</ele>
        <time>2015-10-02T09:31:11Z</time>
      </trkpt>
      <trkpt lat="47.4283" lon="6.61139">
        <ele>291.407</ele>
        <time>2015-10-02T09:31:12Z</time>
      </trkpt>
      <trkpt lat="47.42832" lon="6.61133">
        <ele>291.583</ele>
        <time>2015-10-02T09:31:13Z</time>
      </trkpt>
      <trkpt lat="47.42834" lon="6.61127">
        <ele>291.331</ele>
        <time>2015-10-02T09:31:14Z</time>
      </trkpt>
      <trkpt lat="47.42836" lon="6.61121">
        <ele>290.891</ele>
        <time>2015-10-02T09:31:15Z</time>
      </trkpt>
      <trkpt lat="47.42837" lon="6.61114">
        <ele>290.777</ele>
        <time>2015-10-02T09:31:16Z</time>
      </trkpt>
      <trkpt lat="47.42838" lon="6.61108">
        <ele>291.013</ele>
        <time>2015-10-02T09:31:17Z</time>
      </trkpt>
      <trkpt lat="47.42839" lon="6.61101">
        <ele>291.262</ele>
        <time>2015-10-02T09:31:18Z</time>
      </trkpt>
      <trkpt lat="47.4284" lon="6.61095">
        <ele>291.709</ele>
        <time>2015-10-02T09:31:19Z</time>
      </trkpt>
      <trkpt lat="47.42841" lon="6.61089">
        <ele>292.322</ele>
        <time>2015-10-02T09:31:20Z</time>
      </trkpt>
      <trkpt lat="47.42841" lon="6.61081">
        <ele>292.046</ele>
        <time>2015-10-02T09:31:21Z</time>
      </trkpt>
      <trkpt lat="47.42842" lon="6.61075">
        <ele>292.012</ele>
        <time>2015-10-02T09:31:22Z</time>
      </trkpt>
      <trkpt lat="47.42843" lon="6.61068">
        <ele>291.923</ele>
        <time>2015-10-02T09:31:23Z</time>
      </trkpt>
      <trkpt lat="47.42843" lon="6.61061">
        <ele>291.893</ele>
        <time>2015-10-02T09:31:24Z</time>
      </trkpt>
      <trkpt lat="47.42844" lon="6.61054">
        <ele>291.623</ele>
        <time>2015-10-02T09:31:25Z</time>
      </trkpt>
      <trkpt lat="47.42845" lon="6.61048">
        <ele>291.828</ele>
        <time>2015-10-02T09:31:26Z</time>
      </trkpt>
      <trkpt lat="47.42846" lon="6.61042">
        <ele>292.233</ele>
        <time>2015-10-02T09:31:27Z</time>
      </trkpt>
      <trkpt lat="47.42846" lon="6.61035">
        <ele>292.339</ele>
        <time>2015-10-02T09:31:28Z</time>
      </trkpt>
      <trkpt lat="47.42847" lon="6.61029">
        <ele>291.976</ele>
        <time>2015-10-02T09:31:29Z</time>
      </trkpt>
      <trkpt lat="47.42848" lon="6.61023">
        <ele>292.154</ele>
        <time>2015-10-02T09:31:30Z</time>
      </trkpt>
      <trkpt lat="47.42849" lon="6.61016">
        <ele>291.624</ele>
        <time>2015-10-02T09:31:31Z</time>
      </trkpt>
      <trkpt lat="47.42851" lon="6.61011">
        <ele>291.568</ele>
        <time>2015-10-02T09:31:32Z</time>
      </trkpt>
      <trkpt lat="47.42851" lon="6.61005">
        <ele>291.635</ele>
        <time>2015-10-02T09:31:33Z</time>
      </trkpt>
      <trkpt lat="47.42851" lon="6.60997">
        <ele>291.949</ele>
        <time>2015-10-02T09:31:34Z</time>
      </trkpt>
      <trkpt lat="47.42852" lon="6.60991">
        <ele>292.111</ele>
        <time>2015-10-02T09:31:35Z</time>
      </trkpt>
      <trkpt lat="47.42853" lon="6.60985">
        <ele>292.518</ele>
        <time>2015-10-02T09:31:36Z</time>
      </trkpt>
      <trkpt lat="47.42854" lon="6.60978">
        <ele>293.051</ele>
        <time>2015-10-02T09:31:37Z</time>
      </trkpt>
      <trkpt lat="47.42855" lon="6.60972">
        <ele>293.064</ele>
        <time>2015-10-02T09:31:38Z</time>
      </trkpt>
      <trkpt lat="47.42856" lon="6.60965">
        <ele>292.854</ele>
        <time>2015-10-02T09:31:39Z</time>
      </trkpt>
      <trkpt lat="47.42856" lon="6.60958">
        <ele>292.433</ele>
        <time>2015-10-02T09:31:40Z</time>
      </trkpt>
      <trkpt lat="47.42858" lon="6.60952">
        <ele>292.641</ele>
        <time>2015-10-02T09:31:41Z</time>
      </trkpt>
      <trkpt lat="47.42859" lon="6.60945">
        <ele>292.65</ele>
        <time>2015-10-02T09:31:42Z</time>
      </trkpt>
      <trkpt lat="47.4286" lon="6.60938">
        <ele>293.19</ele>
        <time>2015-10-02T09:31:43Z</time>
      </trkpt>
      <trkpt lat="47.42861" lon="6.60932">
        <ele>292.84</ele>
        <time>2015-10-02T09:31:44Z</time>
      </trkpt>
      <trkpt lat="47.42862" lon="6.60924">
        <ele>293.151</ele>
        <time>2015-10-02T09:31:45Z</time>
      </trkpt>
      <trkpt lat="47.42862" lon="6.60918">
        <ele>293.197</ele>
        <time>2015-10-02T09:31:46Z</time>
      </trkpt>
      <trkpt lat="47.42863" lon="6.60911">
        <ele>293.195</ele>
        <time>2015-10-02T09:31:47Z</time>
      </trkpt>
      <trkpt lat="47.42864" lon="6.60904">
        <ele>292.223</ele>
        <time>2015-10-02T09:31:48Z</time>
      </trkpt>
      <trkpt lat="47.42864" lon="6.60898">
        <ele>292.36</ele>
        <time>2015-10-02T09:31:49Z</time>
      </trkpt>
      <trkpt lat="47.42865" lon="6.60892">
        <ele>292.491</ele>
        <time>2015-10-02T09:31:50Z</time>
      </trkpt>
      <trkpt lat="47.42867" lon="6.60885">
        <ele>292.275</ele>
        <time>2015-10-02T09:31:51Z</time>
      </trkpt>
      <trkpt lat="47.42868" lon="6.6088">
        <ele>292.3</ele>
        <time>2015-10-02T09:31:52Z</time>
      </trkpt>
      <trkpt lat="47.42869" lon="6.60873">
        <ele>292.612</ele>
        <time>2015-10-02T09:31:53Z</time>
      </trkpt>
      <trkpt lat="47.42869" lon="6.60867">
        <ele>292.81</ele>
        <time>2015-10-02T09:31:54Z</time>
      </trkpt>
      <trkpt lat="47.4287" lon="6.6086">
        <ele>293.352</ele>
        <time>2015-10-02T09:31:55Z</time>
      </trkpt>
      <trkpt lat="47.42871" lon="6.60853">
        <ele>293.541</ele>
        <time>2015-10-02T09:31:56Z</time>
      </trkpt>
      <trkpt lat="47.42872" lon="6.60847">
        <ele>293.3</ele>
        <time>2015-10-02T09:31:57Z</time>
      </trkpt>
      <trkpt lat="47.42872" lon="6.60841">
        <ele>292.867</ele>
        <time>2015-10-02T09:31:58Z</time>
      </trkpt>
      <trkpt lat="47.42872" lon="6.60834">
        <ele>292.28</ele>
        <time>2015-10-02T09:31:59Z</time>
      </trkpt>
      <trkpt lat="47.42874" lon="6.60827">
        <ele>291.463</ele>
        <time>2015-10-02T09:32:00Z</time>
      </trkpt>
      <trkpt lat="47.42874" lon="6.60821">
        <ele>291.481</ele>
        <time>2015-10-02T09:32:01Z</time>
      </trkpt>
      <trkpt lat="47.42876" lon="6.60814">
        <ele>291.648</ele>
        <time>2015-10-02T09:32:02Z</time>
      </trkpt>
      <trkpt lat="47.42877" lon="6.60807">
        <ele>291.427</ele>
        <time>2015-10-02T09:32:03Z</time>
      </trkpt>
      <trkpt lat="47.42878" lon="6.60802">
        <ele>291.959</ele>
        <time>2015-10-02T09:32:04Z</time>
      </trkpt>
      <trkpt lat="47.42879" lon="6.60795">
        <ele>291.46</ele>
        <time>2015-10-02T09:32:05Z</time>
      </trkpt>
      <trkpt lat="47.42879" lon="6.6079">
        <ele>292.78</ele>
        <time>2015-10-02T09:32:06Z</time>
      </trkpt>
      <trkpt lat="47.4288" lon="6.60785">
        <ele>292.073</ele>
        <time>2015-10-02T09:32:07Z</time>
      </trkpt>
      <trkpt lat="47.4288" lon="6.60779">
        <ele>292.711</ele>
        <time>2015-10-02T09:32:08Z</time>
      </trkpt>
      <trkpt lat="47.4288" lon="6.60773">
        <ele>293.121</ele>
        <time>2015-10-02T09:32:09Z</time>
      </trkpt>
      <trkpt lat="47.42879" lon="6.60767">
        <ele>292.693</ele>
        <time>2015-10-02T09:32:10Z</time>
      </trkpt>
      <trkpt lat="47.42878" lon="6.60762">
        <ele>292.611</ele>
        <time>2015-10-02T09:32:11Z</time>
      </trkpt>
      <trkpt lat="47.42877" lon="6.60756">
        <ele>292.766</ele>
        <time>2015-10-02T09:32:12Z</time>
      </trkpt>
      <trkpt lat="47.42876" lon="6.60751">
        <ele>292.139</ele>
        <time>2015-10-02T09:32:13Z</time>
      </trkpt>
      <trkpt lat="47.42875" lon="6.60745">
        <ele>292.217</ele>
        <time>2015-10-02T09:32:14Z</time>
      </trkpt>
      <trkpt lat="47.42874" lon="6.6074">
        <ele>291.574</ele>
        <time>2015-10-02T09:32:15Z</time>
      </trkpt>
      <trkpt lat="47.42872" lon="6.60734">
        <ele>291.606</ele>
        <time>2015-10-02T09:32:16Z</time>
      </trkpt>
      <trkpt lat="47.4287" lon="6.60728">
        <ele>292.651</ele>
        <time>2015-10-02T09:32:17Z</time>
      </trkpt>
      <trkpt lat="47.42868" lon="6.60723">
        <ele>292.764</ele>
        <time>2015-10-02T09:32:18Z</time>
      </trkpt>
      <trkpt lat="47.42866" lon="6.60718">
        <ele>293.226</ele>
        <time>2015-10-02T09:32:19Z</time>
      </trkpt>
      <trkpt lat="47.42864" lon="6.60713">
        <ele>292.173</ele>
        <time>2015-10-02T09:32:20Z</time>
      </trkpt>
      <trkpt lat="47.42862" lon="6.60708">
        <ele>292.082</ele>
        <time>2015-10-02T09:32:21Z</time>
      </trkpt>
      <trkpt lat="47.42861" lon="6.60703">
        <ele>292.179</ele>
        <time>2015-10-02T09:32:22Z</time>
      </trkpt>
      <trkpt lat="47.4286" lon="6.60699">
        <ele>292.12</ele>
        <time>2015-10-02T09:32:23Z</time>
      </trkpt>
      <trkpt lat="47.4286" lon="6.60695">
        <ele>292.972</ele>
        <time>2015-10-02T09:32:24Z</time>
      </trkpt>
      <trkpt lat="47.42859" lon="6.60691">
        <ele>292.619</ele>
        <time>2015-10-02T09:32:25Z</time>
      </trkpt>
      <trkpt lat="47.42858" lon="6.60687">
        <ele>292.381</ele>
        <time>2015-10-02T09:32:26Z</time>
      </trkpt>
      <trkpt lat="47.42858" lon="6.60684">
        <ele>292.344</ele>
        <time>2015-10-02T09:32:27Z</time>
      </trkpt>
      <trkpt lat="47.42857" lon="6.60681">
        <ele>292.812</ele>
        <time>2015-10-02T09:32:28Z</time>
      </trkpt>
      <trkpt lat="47.42856" lon="6.60678">
        <ele>293.28</ele>
        <time>2015-10-02T09:32:29Z</time>
      </trkpt>
      <trkpt lat="47.42854" lon="6.60676">
        <ele>293.856</ele>
        <time>2015-10-02T09:32:30Z</time>
      </trkpt>
      <trkpt lat="47.42852" lon="6.60676">
        <ele>294.33</ele>
        <time>2015-10-02T09:32:31Z</time>
      </trkpt>
      <trkpt lat="47.4285" lon="6.60676">
        <ele>294.371</ele>
        <time>2015-10-02T09:32:32Z</time>
      </trkpt>
      <trkpt lat="47.42847" lon="6.60678">
        <ele>294.678</ele>
        <time>2015-10-02T09:32:33Z</time>
      </trkpt>
      <trkpt lat="47.42845" lon="6.60681">
        <ele>294.363</ele>
        <time>2015-10-02T09:32:34Z</time>
      </trkpt>
      <trkpt lat="47.42842" lon="6.60684">
        <ele>294.691</ele>
        <time>2015-10-02T09:32:35Z</time>
      </trkpt>
      <trkpt lat="47.4284" lon="6.60687">
        <ele>294.666</ele>
        <time>2015-10-02T09:32:36Z</time>
      </trkpt>
      <trkpt lat="47.42837" lon="6.60689">
        <ele>294.655</ele>
        <time>2015-10-02T09:32:37Z</time>
      </trkpt>
      <trkpt lat="47.42835" lon="6.60692">
        <ele>294.862</ele>
        <time>2015-10-02T09:32:38Z</time>
      </trkpt>
      <trkpt lat="47.42833" lon="6.60695">
        <ele>294.969</ele>
        <time>2015-10-02T09:32:39Z</time>
      </trkpt>
      <trkpt lat="47.42831" lon="6.60698">
        <ele>294.835</ele>
        <time>2015-10-02T09:32:40Z</time>
      </trkpt>
      <trkpt lat="47.42829" lon="6.60701">
        <ele>295.285</ele>
        <time>2015-10-02T09:32:41Z</time>
      </trkpt>
      <trkpt lat="47.42828" lon="6.60703">
        <ele>295.982</ele>
        <time>2015-10-02T09:32:42Z</time>
      </trkpt>
      <trkpt lat="47.42826" lon="6.60706">
        <ele>296.497</ele>
        <time>2015-10-02T09:32:43Z</time>
      </trkpt>
      <trkpt lat="47.42825" lon="6.6071">
        <ele>297.271</ele>
        <time>2015-10-02T09:32:44Z</time>
      </trkpt>
      <trkpt lat="47.42823" lon="6.60713">
        <ele>297.551</ele>
        <time>2015-10-02T09:32:45Z</time>
      </trkpt>
      <trkpt lat="47.42822" lon="6.60716">
        <ele>297.967</ele>
        <time>2015-10-02T09:32:46Z</time>
      </trkpt>
      <trkpt lat="47.42821" lon="6.6072">
        <ele>298.534</ele>
        <time>2015-10-02T09:32:47Z</time>
      </trkpt>
      <trkpt lat="47.42819" lon="6.60723">
        <ele>298.611</ele>
        <time>2015-10-02T09:32:48Z</time>
      </trkpt>
      <trkpt lat="47.42818" lon="6.60727">
        <ele>299.124</ele>
        <time>2015-10-02T09:32:49Z</time>
      </trkpt>
      <trkpt lat="47.42817" lon="6.6073">
        <ele>299.025</ele>
        <time>2015-10-02T09:32:50Z</time>
      </trkpt>
      <trkpt lat="47.42815" lon="6.60733">
        <ele>299.247</ele>
        <time>2015-10-02T09:32:51Z</time>
      </trkpt>
      <trkpt lat="47.42813" lon="6.60735">
        <ele>299.819</ele>
        <time>2015-10-02T09:32:52Z</time>
      </trkpt>
      <trkpt lat="47.42811" lon="6.60738">
        <ele>300.024</ele>
        <time>2015-10-02T09:32:53Z</time>
      </trkpt>
      <trkpt lat="47.42809" lon="6.60739">
        <ele>300.009</ele>
        <time>2015-10-02T09:32:54Z</time>
      </trkpt>
      <trkpt lat="47.42807" lon="6.60741">
        <ele>300.044</ele>
        <time>2015-10-02T09:32:55Z</time>
      </trkpt>
      <trkpt lat="47.42805" lon="6.60742">
        <ele>299.712</ele>
        <time>2015-10-02T09:32:56Z</time>
      </trkpt>
      <trkpt lat="47.42803" lon="6.60743">
        <ele>299.837</ele>
        <time>2015-10-02T09:32:57Z</time>
      </trkpt>
      <trkpt lat="47.428" lon="6.60744">
        <ele>299.44</ele>
        <time>2015-10-02T09:32:58Z</time>
      </trkpt>
      <trkpt lat="47.42798" lon="6.60745">
        <ele>299.612</ele>
        <time>2015-10-02T09:32:59Z</time>
      </trkpt>
      <trkpt lat="47.42796" lon="6.60745">
        <ele>300.631</ele>
        <time>2015-10-02T09:33:00Z</time>
      </trkpt>
      <trkpt lat="47.42793" lon="6.60745">
        <ele>301.911</ele>
        <time>2015-10-02T09:33:01Z</time>
      </trkpt>
      <trkpt lat="47.4279" lon="6.60745">
        <ele>302.454</ele>
        <time>2015-10-02T09:33:02Z</time>
      </trkpt>
      <trkpt lat="47.42787" lon="6.60745">
        <ele>302.734</ele>
        <time>2015-10-02T09:33:03Z</time>
      </trkpt>
      <trkpt lat="47.42784" lon="6.60745">
        <ele>302.876</ele>
        <time>2015-10-02T09:33:04Z</time>
      </trkpt>
      <trkpt lat="47.42782" lon="6.60745">
        <ele>303</ele>
        <time>2015-10-02T09:33:05Z</time>
      </trkpt>
      <trkpt lat="47.42779" lon="6.60746">
        <ele>303.362</ele>
        <time>2015-10-02T09:33:06Z</time>
      </trkpt>
      <trkpt lat="47.42777" lon="6.60747">
        <ele>303.62</ele>
        <time>2015-10-02T09:33:07Z</time>
      </trkpt>
      <trkpt lat="47.42775" lon="6.60748">
        <ele>303.686</ele>
        <time>2015-10-02T09:33:08Z</time>
      </trkpt>
      <trkpt lat="47.42772" lon="6.60749">
        <ele>303.512</ele>
        <time>2015-10-02T09:33:09Z</time>
      </trkpt>
      <trkpt lat="47.4277" lon="6.6075">
        <ele>303.926</ele>
        <time>2015-10-02T09:33:10Z</time>
      </trkpt>
      <trkpt lat="47.42768" lon="6.60751">
        <ele>304.051</ele>
        <time>2015-10-02T09:33:11Z</time>
      </trkpt>
      <trkpt lat="47.42766" lon="6.60752">
        <ele>304.091</ele>
        <time>2015-10-02T09:33:12Z</time>
      </trkpt>
      <trkpt lat="47.42763" lon="6.60752">
        <ele>303.778</ele>
        <time>2015-10-02T09:33:13Z</time>
      </trkpt>
      <trkpt lat="47.42761" lon="6.60753">
        <ele>304.063</ele>
        <time>2015-10-02T09:33:14Z</time>
      </trkpt>
      <trkpt lat="47.42758" lon="6.60754">
        <ele>304.315</ele>
        <time>2015-10-02T09:33:15Z</time>
      </trkpt>
      <trkpt lat="47.42756" lon="6.60755">
        <ele>304.493</ele>
        <time>2015-10-02T09:33:16Z</time>
      </trkpt>
      <trkpt lat="47.42754" lon="6.60756">
        <ele>304.933</ele>
        <time>2015-10-02T09:33:17Z</time>
      </trkpt>
      <trkpt lat="47.42751" lon="6.60757">
        <ele>304.97</ele>
        <time>2015-10-02T09:33:18Z</time>
      </trkpt>
      <trkpt lat="47.42749" lon="6.60758">
        <ele>305.167</ele>
        <time>2015-10-02T09:33:19Z</time>
      </trkpt>
      <trkpt lat="47.42746" lon="6.60759">
        <ele>305.28</ele>
        <time>2015-10-02T09:33:20Z</time>
      </trkpt>
      <trkpt lat="47.42744" lon="6.60759">
        <ele>305.426</ele>
        <time>2015-10-02T09:33:21Z</time>
      </trkpt>
      <trkpt lat="47.42741" lon="6.6076">
        <ele>304.97</ele>
        <time>2015-10-02T09:33:22Z</time>
      </trkpt>
      <trkpt lat="47.42739" lon="6.60761">
        <ele>305.075</ele>
        <time>2015-10-02T09:33:23Z</time>
      </trkpt>
      <trkpt lat="47.42737" lon="6.60761">
        <ele>304.87</ele>
        <time>2015-10-02T09:33:24Z</time>
      </trkpt>
      <trkpt lat="47.42734" lon="6.60761">
        <ele>305.137</ele>
        <time>2015-10-02T09:33:25Z</time>
      </trkpt>
      <trkpt lat="47.42732" lon="6.60762">
        <ele>304.212</ele>
        <time>2015-10-02T09:33:26Z</time>
      </trkpt>
      <trkpt lat="47.42729" lon="6.60762">
        <ele>304.537</ele>
        <time>2015-10-02T09:33:27Z</time>
      </trkpt>
      <trkpt lat="47.42726" lon="6.60762">
        <ele>304.786</ele>
        <time>2015-10-02T09:33:28Z</time>
      </trkpt>
      <trkpt lat="47.42723" lon="6.60762">
        <ele>305.41</ele>
        <time>2015-10-02T09:33:29Z</time>
      </trkpt>
      <trkpt lat="47.42721" lon="6.60762">
        <ele>306.192</ele>
        <time>2015-10-02T09:33:30Z</time>
      </trkpt>
      <trkpt lat="47.42719" lon="6.60762">
        <ele>306.697</ele>
        <time>2015-10-02T09:33:31Z</time>
      </trkpt>
      <trkpt lat="47.42716" lon="6.60762">
        <ele>306.656</ele>
        <time>2015-10-02T09:33:32Z</time>
      </trkpt>
      <trkpt lat="47.42714" lon="6.60762">
        <ele>306.788</ele>
        <time>2015-10-02T09:33:33Z</time>
      </trkpt>
      <trkpt lat="47.42711" lon="6.60762">
        <ele>306.388</ele>
        <time>2015-10-02T09:33:34Z</time>
      </trkpt>
      <trkpt lat="47.42709" lon="6.60762">
        <ele>306.875</ele>
        <time>2015-10-02T09:33:35Z</time>
      </trkpt>
      <trkpt lat="47.42707" lon="6.60763">
        <ele>306.798</ele>
        <time>2015-10-02T09:33:36Z</time>
      </trkpt>
      <trkpt lat="47.42704" lon="6.60763">
        <ele>306.973</ele>
        <time>2015-10-02T09:33:37Z</time>
      </trkpt>
      <trkpt lat="47.42702" lon="6.60763">
        <ele>307.272</ele>
        <time>2015-10-02T09:33:38Z</time>
      </trkpt>
      <trkpt lat="47.42699" lon="6.60764">
        <ele>307.971</ele>
        <time>2015-10-02T09:33:39Z</time>
      </trkpt>
      <trkpt lat="47.42697" lon="6.60764">
        <ele>308.18</ele>
        <time>2015-10-02T09:33:40Z</time>
      </trkpt>
      <trkpt lat="47.42694" lon="6.60764">
        <ele>308.458</ele>
        <time>2015-10-02T09:33:41Z</time>
      </trkpt>
      <trkpt lat="47.42691" lon="6.60763">
        <ele>308.925</ele>
        <time>2015-10-02T09:33:42Z</time>
      </trkpt>
      <trkpt lat="47.42689" lon="6.60763">
        <ele>309.672</ele>
        <time>2015-10-02T09:33:43Z</time>
      </trkpt>
      <trkpt lat="47.42686" lon="6.60763">
        <ele>309.56</ele>
        <time>2015-10-02T09:33:44Z</time>
      </trkpt>
      <trkpt lat="47.42684" lon="6.60763">
        <ele>309.595</ele>
        <time>2015-10-02T09:33:45Z</time>
      </trkpt>
      <trkpt lat="47.42681" lon="6.60763">
        <ele>310.02</ele>
        <time>2015-10-02T09:33:46Z</time>
      </trkpt>
      <trkpt lat="47.42678" lon="6.60763">
        <ele>310.068</ele>
        <time>2015-10-02T09:33:47Z</time>
      </trkpt>
      <trkpt lat="47.42676" lon="6.60763">
        <ele>310.278</ele>
        <time>2015-10-02T09:33:48Z</time>
      </trkpt>
      <trkpt lat="47.42674" lon="6.60763">
        <ele>310.1</ele>
        <time>2015-10-02T09:33:49Z</time>
      </trkpt>
      <trkpt lat="47.42671" lon="6.60764">
        <ele>310.423</ele>
        <time>2015-10-02T09:33:50Z</time>
      </trkpt>
      <trkpt lat="47.42669" lon="6.60764">
        <ele>311.06</ele>
        <time>2015-10-02T09:33:51Z</time>
      </trkpt>
      <trkpt lat="47.42666" lon="6.60765">
        <ele>311.45</ele>
        <time>2015-10-02T09:33:52Z</time>
      </trkpt>
      <trkpt lat="47.42664" lon="6.60765">
        <ele>311.495</ele>
        <time>2015-10-02T09:33:53Z</time>
      </trkpt>
      <trkpt lat="47.42662" lon="6.60766">
        <ele>310.986</ele>
        <time>2015-10-02T09:33:54Z</time>
      </trkpt>
      <trkpt lat="47.4266" lon="6.60767">
        <ele>311.025</ele>
        <time>2015-10-02T09:33:55Z</time>
      </trkpt>
      <trkpt lat="47.42657" lon="6.60768">
        <ele>311.057</ele>
        <time>2015-10-02T09:33:56Z</time>
      </trkpt>
      <trkpt lat="47.42654" lon="6.60769">
        <ele>311.175</ele>
        <time>2015-10-02T09:33:57Z</time>
      </trkpt>
      <trkpt lat="47.42651" lon="6.6077">
        <ele>312.109</ele>
        <time>2015-10-02T09:33:58Z</time>
      </trkpt>
      <trkpt lat="47.42648" lon="6.60771">
        <ele>311.885</ele>
        <time>2015-10-02T09:33:59Z</time>
      </trkpt>
      <trkpt lat="47.42645" lon="6.60772">
        <ele>311.655</ele>
        <time>2015-10-02T09:34:00Z</time>
      </trkpt>
      <trkpt lat="47.42642" lon="6.60773">
        <ele>311.714</ele>
        <time>2015-10-02T09:34:01Z</time>
      </trkpt>
      <trkpt lat="47.42639" lon="6.60774">
        <ele>311.836</ele>
        <time>2015-10-02T09:34:02Z</time>
      </trkpt>
      <trkpt lat="47.42636" lon="6.60774">
        <ele>311.647</ele>
        <time>2015-10-02T09:34:03Z</time>
      </trkpt>
      <trkpt lat="47.42634" lon="6.60775">
        <ele>311.446</ele>
        <time>2015-10-02T09:34:04Z</time>
      </trkpt>
      <trkpt lat="47.42631" lon="6.60776">
        <ele>311.23</ele>
        <time>2015-10-02T09:34:05Z</time>
      </trkpt>
      <trkpt lat="47.42628" lon="6.60777">
        <ele>311.159</ele>
        <time>2015-10-02T09:34:06Z</time>
      </trkpt>
      <trkpt lat="47.42624" lon="6.60778">
        <ele>311.329</ele>
        <time>2015-10-02T09:34:07Z</time>
      </trkpt>
      <trkpt lat="47.42621" lon="6.60779">
        <ele>310.72</ele>
        <time>2015-10-02T09:34:08Z</time>
      </trkpt>
      <trkpt lat="47.42618" lon="6.6078">
        <ele>310.109</ele>
        <time>2015-10-02T09:34:09Z</time>
      </trkpt>
      <trkpt lat="47.42615" lon="6.60781">
        <ele>309.936</ele>
        <time>2015-10-02T09:34:10Z</time>
      </trkpt>
      <trkpt lat="47.42612" lon="6.60781">
        <ele>310.451</ele>
        <time>2015-10-02T09:34:11Z</time>
      </trkpt>
      <trkpt lat="47.42609" lon="6.60783">
        <ele>310.602</ele>
        <time>2015-10-02T09:34:12Z</time>
      </trkpt>
      <trkpt lat="47.42606" lon="6.60784">
        <ele>310.143</ele>
        <time>2015-10-02T09:34:13Z</time>
      </trkpt>
      <trkpt lat="47.42603" lon="6.60785">
        <ele>310.123</ele>
        <time>2015-10-02T09:34:14Z</time>
      </trkpt>
      <trkpt lat="47.426" lon="6.60786">
        <ele>309.624</ele>
        <time>2015-10-02T09:34:15Z</time>
      </trkpt>
      <trkpt lat="47.42597" lon="6.60787">
        <ele>310.635</ele>
        <time>2015-10-02T09:34:16Z</time>
      </trkpt>
      <trkpt lat="47.42594" lon="6.60788">
        <ele>310.471</ele>
        <time>2015-10-02T09:34:17Z</time>
      </trkpt>
      <trkpt lat="47.42592" lon="6.60789">
        <ele>309.696</ele>
        <time>2015-10-02T09:34:18Z</time>
      </trkpt>
      <trkpt lat="47.42589" lon="6.60791">
        <ele>310.037</ele>
        <time>2015-10-02T09:34:19Z</time>
      </trkpt>
      <trkpt lat="47.42586" lon="6.60792">
        <ele>309.371</ele>
        <time>2015-10-02T09:34:20Z</time>
      </trkpt>
      <trkpt lat="47.42583" lon="6.60793">
        <ele>308.914</ele>
        <time>2015-10-02T09:34:21Z</time>
      </trkpt>
      <trkpt lat="47.42579" lon="6.60794">
        <ele>308.212</ele>
        <time>2015-10-02T09:34:22Z</time>
      </trkpt>
      <trkpt lat="47.42576" lon="6.60795">
        <ele>307.999</ele>
        <time>2015-10-02T09:34:23Z</time>
      </trkpt>
      <trkpt lat="47.42573" lon="6.60795">
        <ele>307.964</ele>
        <time>2015-10-02T09:34:24Z</time>
      </trkpt>
      <trkpt lat="47.42569" lon="6.60796">
        <ele>308.161</ele>
        <time>2015-10-02T09:34:25Z</time>
      </trkpt>
      <trkpt lat="47.42566" lon="6.60796">
        <ele>307.322</ele>
        <time>2015-10-02T09:34:26Z</time>
      </trkpt>
      <trkpt lat="47.42562" lon="6.60796">
        <ele>307.428</ele>
        <time>2015-10-02T09:34:27Z</time>
      </trkpt>
      <trkpt lat="47.42559" lon="6.60797">
        <ele>308.084</ele>
        <time>2015-10-02T09:34:28Z</time>
      </trkpt>
      <trkpt lat="47.42555" lon="6.60797">
        <ele>308.287</ele>
        <time>2015-10-02T09:34:29Z</time>
      </trkpt>
      <trkpt lat="47.42552" lon="6.60798">
        <ele>307.507</ele>
        <time>2015-10-02T09:34:30Z</time>
      </trkpt>
      <trkpt lat="47.42549" lon="6.60799">
        <ele>308.008</ele>
        <time>2015-10-02T09:34:31Z</time>
      </trkpt>
      <trkpt lat="47.42546" lon="6.608">
        <ele>308.202</ele>
        <time>2015-10-02T09:34:32Z</time>
      </trkpt>
      <trkpt lat="47.42543" lon="6.60801">
        <ele>308.387</ele>
        <time>2015-10-02T09:34:33Z</time>
      </trkpt>
      <trkpt lat="47.4254" lon="6.60802">
        <ele>308.118</ele>
        <time>2015-10-02T09:34:34Z</time>
      </trkpt>
      <trkpt lat="47.42537" lon="6.60803">
        <ele>308.082</ele>
        <time>2015-10-02T09:34:35Z</time>
      </trkpt>
      <trkpt lat="47.42534" lon="6.60805">
        <ele>308.308</ele>
        <time>2015-10-02T09:34:36Z</time>
      </trkpt>
      <trkpt lat="47.42531" lon="6.60806">
        <ele>308.59</ele>
        <time>2015-10-02T09:34:37Z</time>
      </trkpt>
      <trkpt lat="47.42529" lon="6.60808">
        <ele>308.855</ele>
        <time>2015-10-02T09:34:38Z</time>
      </trkpt>
      <trkpt lat="47.42526" lon="6.60809">
        <ele>309.714</ele>
        <time>2015-10-02T09:34:39Z</time>
      </trkpt>
      <trkpt lat="47.42523" lon="6.60811">
        <ele>308.625</ele>
        <time>2015-10-02T09:34:40Z</time>
      </trkpt>
      <trkpt lat="47.4252" lon="6.60812">
        <ele>309.235</ele>
        <time>2015-10-02T09:34:41Z</time>
      </trkpt>
      <trkpt lat="47.42517" lon="6.60814">
        <ele>308.914</ele>
        <time>2015-10-02T09:34:42Z</time>
      </trkpt>
      <trkpt lat="47.42514" lon="6.60815">
        <ele>308.802</ele>
        <time>2015-10-02T09:34:43Z</time>
      </trkpt>
      <trkpt lat="47.42511" lon="6.60817">
        <ele>309.253</ele>
        <time>2015-10-02T09:34:44Z</time>
      </trkpt>
      <trkpt lat="47.42508" lon="6.60818">
        <ele>309.689</ele>
        <time>2015-10-02T09:34:45Z</time>
      </trkpt>
      <trkpt lat="47.42505" lon="6.6082">
        <ele>309.368</ele>
        <time>2015-10-02T09:34:46Z</time>
      </trkpt>
      <trkpt lat="47.42503" lon="6.60822">
        <ele>308.94</ele>
        <time>2015-10-02T09:34:47Z</time>
      </trkpt>
      <trkpt lat="47.425" lon="6.60824">
        <ele>308.873</ele>
        <time>2015-10-02T09:34:48Z</time>
      </trkpt>
      <trkpt lat="47.42497" lon="6.60826">
        <ele>308.929</ele>
        <time>2015-10-02T09:34:49Z</time>
      </trkpt>
      <trkpt lat="47.42495" lon="6.60828">
        <ele>308.775</ele>
        <time>2015-10-02T09:34:50Z</time>
      </trkpt>
      <trkpt lat="47.42492" lon="6.60831">
        <ele>308.379</ele>
        <time>2015-10-02T09:34:51Z</time>
      </trkpt>
      <trkpt lat="47.4249" lon="6.60833">
        <ele>308.444</ele>
        <time>2015-10-02T09:34:52Z</time>
      </trkpt>
      <trkpt lat="47.42487" lon="6.60835">
        <ele>308.057</ele>
        <time>2015-10-02T09:34:53Z</time>
      </trkpt>
      <trkpt lat="47.42485" lon="6.60838">
        <ele>308.531</ele>
        <time>2015-10-02T09:34:54Z</time>
      </trkpt>
      <trkpt lat="47.42483" lon="6.6084">
        <ele>308.636</ele>
        <time>2015-10-02T09:34:55Z</time>
      </trkpt>
      <trkpt lat="47.4248" lon="6.60843">
        <ele>308.897</ele>
        <time>2015-10-02T09:34:56Z</time>
      </trkpt>
      <trkpt lat="47.42478" lon="6.60845">
        <ele>308.893</ele>
        <time>2015-10-02T09:34:57Z</time>
      </trkpt>
      <trkpt lat="47.42475" lon="6.60848">
        <ele>309.277</ele>
        <time>2015-10-02T09:34:58Z</time>
      </trkpt>
      <trkpt lat="47.42473" lon="6.6085">
        <ele>309.297</ele>
        <time>2015-10-02T09:34:59Z</time>
      </trkpt>
      <trkpt lat="47.42471" lon="6.60852">
        <ele>309.401</ele>
        <time>2015-10-02T09:35:00Z</time>
      </trkpt>
      <trkpt lat="47.42468" lon="6.60855">
        <ele>309.642</ele>
        <time>2015-10-02T09:35:01Z</time>
      </trkpt>
      <trkpt lat="47.42466" lon="6.60857">
        <ele>309.827</ele>
        <time>2015-10-02T09:35:02Z</time>
      </trkpt>
      <trkpt lat="47.42463" lon="6.60859">
        <ele>310.224</ele>
        <time>2015-10-02T09:35:03Z</time>
      </trkpt>
      <trkpt lat="47.42461" lon="6.60862">
        <ele>310.49</ele>
        <time>2015-10-02T09:35:04Z</time>
      </trkpt>
      <trkpt lat="47.42459" lon="6.60864">
        <ele>310.791</ele>
        <time>2015-10-02T09:35:05Z</time>
      </trkpt>
      <trkpt lat="47.42456" lon="6.60866">
        <ele>311.447</ele>
        <time>2015-10-02T09:35:06Z</time>
      </trkpt>
      <trkpt lat="47.42453" lon="6.60868">
        <ele>311.917</ele>
        <time>2015-10-02T09:35:07Z</time>
      </trkpt>
      <trkpt lat="47.42451" lon="6.6087">
        <ele>312.242</ele>
        <time>2015-10-02T09:35:08Z</time>
      </trkpt>
      <trkpt lat="47.42448" lon="6.60871">
        <ele>312.301</ele>
        <time>2015-10-02T09:35:09Z</time>
      </trkpt>
      <trkpt lat="47.42446" lon="6.60873">
        <ele>312.45</ele>
        <time>2015-10-02T09:35:10Z</time>
      </trkpt>
      <trkpt lat="47.42444" lon="6.60875">
        <ele>312.397</ele>
        <time>2015-10-02T09:35:11Z</time>
      </trkpt>
      <trkpt lat="47.42441" lon="6.60877">
        <ele>312.579</ele>
        <time>2015-10-02T09:35:12Z</time>
      </trkpt>
      <trkpt lat="47.42439" lon="6.60879">
        <ele>312.835</ele>
        <time>2015-10-02T09:35:13Z</time>
      </trkpt>
      <trkpt lat="47.42436" lon="6.60881">
        <ele>312.845</ele>
        <time>2015-10-02T09:35:14Z</time>
      </trkpt>
      <trkpt lat="47.42434" lon="6.60882">
        <ele>312.946</ele>
        <time>2015-10-02T09:35:15Z</time>
      </trkpt>
      <trkpt lat="47.42431" lon="6.60884">
        <ele>312.994</ele>
        <time>2015-10-02T09:35:16Z</time>
      </trkpt>
      <trkpt lat="47.42429" lon="6.60886">
        <ele>313.195</ele>
        <time>2015-10-02T09:35:17Z</time>
      </trkpt>
      <trkpt lat="47.42426" lon="6.60887">
        <ele>313.199</ele>
        <time>2015-10-02T09:35:18Z</time>
      </trkpt>
      <trkpt lat="47.42423" lon="6.60889">
        <ele>313.327</ele>
        <time>2015-10-02T09:35:19Z</time>
      </trkpt>
      <trkpt lat="47.42421" lon="6.60891">
        <ele>313.664</ele>
        <time>2015-10-02T09:35:20Z</time>
      </trkpt>
      <trkpt lat="47.42418" lon="6.60892">
        <ele>313.51</ele>
        <time>2015-10-02T09:35:21Z</time>
      </trkpt>
      <trkpt lat="47.42416" lon="6.60894">
        <ele>313.736</ele>
        <time>2015-10-02T09:35:22Z</time>
      </trkpt>
      <trkpt lat="47.42413" lon="6.60896">
        <ele>313.458</ele>
        <time>2015-10-02T09:35:23Z</time>
      </trkpt>
      <trkpt lat="47.42411" lon="6.60898">
        <ele>313.917</ele>
        <time>2015-10-02T09:35:24Z</time>
      </trkpt>
      <trkpt lat="47.42409" lon="6.609">
        <ele>313.817</ele>
        <time>2015-10-02T09:35:25Z</time>
      </trkpt>
      <trkpt lat="47.42406" lon="6.60902">
        <ele>314.285</ele>
        <time>2015-10-02T09:35:26Z</time>
      </trkpt>
      <trkpt lat="47.42404" lon="6.60904">
        <ele>314.148</ele>
        <time>2015-10-02T09:35:27Z</time>
      </trkpt>
      <trkpt lat="47.42402" lon="6.60906">
        <ele>314.115</ele>
        <time>2015-10-02T09:35:28Z</time>
      </trkpt>
      <trkpt lat="47.42399" lon="6.60907">
        <ele>314.11</ele>
        <time>2015-10-02T09:35:29Z</time>
      </trkpt>
      <trkpt lat="47.42397" lon="6.60909">
        <ele>314.003</ele>
        <time>2015-10-02T09:35:30Z</time>
      </trkpt>
      <trkpt lat="47.42395" lon="6.60911">
        <ele>314.536</ele>
        <time>2015-10-02T09:35:31Z</time>
      </trkpt>
      <trkpt lat="47.42393" lon="6.60913">
        <ele>314.388</ele>
        <time>2015-10-02T09:35:32Z</time>
      </trkpt>
      <trkpt lat="47.4239" lon="6.60914">
        <ele>314.704</ele>
        <time>2015-10-02T09:35:33Z</time>
      </trkpt>
      <trkpt lat="47.42388" lon="6.60916">
        <ele>314.496</ele>
        <time>2015-10-02T09:35:34Z</time>
      </trkpt>
      <trkpt lat="47.42386" lon="6.60918">
        <ele>314.644</ele>
        <time>2015-10-02T09:35:35Z</time>
      </trkpt>
      <trkpt lat="47.42383" lon="6.60919">
        <ele>314.897</ele>
        <time>2015-10-02T09:35:36Z</time>
      </trkpt>
      <trkpt lat="47.42381" lon="6.6092">
        <ele>314.517</ele>
        <time>2015-10-02T09:35:37Z</time>
      </trkpt>
      <trkpt lat="47.42379" lon="6.60922">
        <ele>314.704</ele>
        <time>2015-10-02T09:35:38Z</time>
      </trkpt>
      <trkpt lat="47.42376" lon="6.60923">
        <ele>314.912</ele>
        <time>2015-10-02T09:35:39Z</time>
      </trkpt>
      <trkpt lat="47.42374" lon="6.60925">
        <ele>314.453</ele>
        <time>2015-10-02T09:35:40Z</time>
      </trkpt>
      <trkpt lat="47.42372" lon="6.60926">
        <ele>314.637</ele>
        <time>2015-10-02T09:35:41Z</time>
      </trkpt>
      <trkpt lat="47.42369" lon="6.60928">
        <ele>314.963</ele>
        <time>2015-10-02T09:35:42Z</time>
      </trkpt>
      <trkpt lat="47.42367" lon="6.60929">
        <ele>315.416</ele>
        <time>2015-10-02T09:35:43Z</time>
      </trkpt>
      <trkpt lat="47.42364" lon="6.6093">
        <ele>314.972</ele>
        <time>2015-10-02T09:35:44Z</time>
      </trkpt>
      <trkpt lat="47.42362" lon="6.60931">
        <ele>314.646</ele>
        <time>2015-10-02T09:35:45Z</time>
      </trkpt>
      <trkpt lat="47.42359" lon="6.60932">
        <ele>314.606</ele>
        <time>2015-10-02T09:35:46Z</time>
      </trkpt>
      <trkpt lat="47.42356" lon="6.60933">
        <ele>314.766</ele>
        <time>2015-10-02T09:35:47Z</time>
      </trkpt>
      <trkpt lat="47.42354" lon="6.60934">
        <ele>315.015</ele>
        <time>2015-10-02T09:35:48Z</time>
      </trkpt>
      <trkpt lat="47.42351" lon="6.60935">
        <ele>314.992</ele>
        <time>2015-10-02T09:35:49Z</time>
      </trkpt>
      <trkpt lat="47.42348" lon="6.60936">
        <ele>315.816</ele>
        <time>2015-10-02T09:35:50Z</time>
      </trkpt>
      <trkpt lat="47.42345" lon="6.60936">
        <ele>316.093</ele>
        <time>2015-10-02T09:35:51Z</time>
      </trkpt>
      <trkpt lat="47.42343" lon="6.60937">
        <ele>316.429</ele>
        <time>2015-10-02T09:35:52Z</time>
      </trkpt>
      <trkpt lat="47.4234" lon="6.60937">
        <ele>316.305</ele>
        <time>2015-10-02T09:35:53Z</time>
      </trkpt>
      <trkpt lat="47.42337" lon="6.60937">
        <ele>316.559</ele>
        <time>2015-10-02T09:35:54Z</time>
      </trkpt>
      <trkpt lat="47.42335" lon="6.60937">
        <ele>316.554</ele>
        <time>2015-10-02T09:35:55Z</time>
      </trkpt>
      <trkpt lat="47.42332" lon="6.60938">
        <ele>316.812</ele>
        <time>2015-10-02T09:35:56Z</time>
      </trkpt>
      <trkpt lat="47.4233" lon="6.60938">
        <ele>317.299</ele>
        <time>2015-10-02T09:35:57Z</time>
      </trkpt>
      <trkpt lat="47.42327" lon="6.60939">
        <ele>317.449</ele>
        <time>2015-10-02T09:35:58Z</time>
      </trkpt>
      <trkpt lat="47.42324" lon="6.60939">
        <ele>318.132</ele>
        <time>2015-10-02T09:35:59Z</time>
      </trkpt>
      <trkpt lat="47.42321" lon="6.60939">
        <ele>318.573</ele>
        <time>2015-10-02T09:36:00Z</time>
      </trkpt>
      <trkpt lat="47.42319" lon="6.6094">
        <ele>319.165</ele>
        <time>2015-10-02T09:36:01Z</time>
      </trkpt>
      <trkpt lat="47.42316" lon="6.6094">
        <ele>319.752</ele>
        <time>2015-10-02T09:36:02Z</time>
      </trkpt>
      <trkpt lat="47.42313" lon="6.6094">
        <ele>320.093</ele>
        <time>2015-10-02T09:36:03Z</time>
      </trkpt>
      <trkpt lat="47.4231" lon="6.60941">
        <ele>320.503</ele>
        <time>2015-10-02T09:36:04Z</time>
      </trkpt>
      <trkpt lat="47.42308" lon="6.60941">
        <ele>320.39</ele>
        <time>2015-10-02T09:36:05Z</time>
      </trkpt>
      <trkpt lat="47.42305" lon="6.60942">
        <ele>320.427</ele>
        <time>2015-10-02T09:36:06Z</time>
      </trkpt>
      <trkpt lat="47.42302" lon="6.60942">
        <ele>320.937</ele>
        <time>2015-10-02T09:36:07Z</time>
      </trkpt>
      <trkpt lat="47.42299" lon="6.60943">
        <ele>320.55</ele>
        <time>2015-10-02T09:36:08Z</time>
      </trkpt>
      <trkpt lat="47.42297" lon="6.60943">
        <ele>320.831</ele>
        <time>2015-10-02T09:36:09Z</time>
      </trkpt>
      <trkpt lat="47.42294" lon="6.60943">
        <ele>321.217</ele>
        <time>2015-10-02T09:36:10Z</time>
      </trkpt>
      <trkpt lat="47.42291" lon="6.60944">
        <ele>320.883</ele>
        <time>2015-10-02T09:36:11Z</time>
      </trkpt>
      <trkpt lat="47.42289" lon="6.60945">
        <ele>321.153</ele>
        <time>2015-10-02T09:36:12Z</time>
      </trkpt>
      <trkpt lat="47.42286" lon="6.60946">
        <ele>322.291</ele>
        <time>2015-10-02T09:36:13Z</time>
      </trkpt>
      <trkpt lat="47.42283" lon="6.60946">
        <ele>322.699</ele>
        <time>2015-10-02T09:36:14Z</time>
      </trkpt>
      <trkpt lat="47.4228" lon="6.60947">
        <ele>322.959</ele>
        <time>2015-10-02T09:36:15Z</time>
      </trkpt>
      <trkpt lat="47.42277" lon="6.60947">
        <ele>323.701</ele>
        <time>2015-10-02T09:36:16Z</time>
      </trkpt>
      <trkpt lat="47.42274" lon="6.60947">
        <ele>324.272</ele>
        <time>2015-10-02T09:36:17Z</time>
      </trkpt>
      <trkpt lat="47.42272" lon="6.60948">
        <ele>324.74</ele>
        <time>2015-10-02T09:36:18Z</time>
      </trkpt>
      <trkpt lat="47.42269" lon="6.60949">
        <ele>323.898</ele>
        <time>2015-10-02T09:36:19Z</time>
      </trkpt>
      <trkpt lat="47.42266" lon="6.6095">
        <ele>325.299</ele>
        <time>2015-10-02T09:36:20Z</time>
      </trkpt>
      <trkpt lat="47.42264" lon="6.60951">
        <ele>326.248</ele>
        <time>2015-10-02T09:36:21Z</time>
      </trkpt>
      <trkpt lat="47.42261" lon="6.60951">
        <ele>326.507</ele>
        <time>2015-10-02T09:36:22Z</time>
      </trkpt>
      <trkpt lat="47.42258" lon="6.60952">
        <ele>326.334</ele>
        <time>2015-10-02T09:36:23Z</time>
      </trkpt>
      <trkpt lat="47.42256" lon="6.60952">
        <ele>325.642</ele>
        <time>2015-10-02T09:36:24Z</time>
      </trkpt>
      <trkpt lat="47.42253" lon="6.60954">
        <ele>325.518</ele>
        <time>2015-10-02T09:36:25Z</time>
      </trkpt>
      <trkpt lat="47.42251" lon="6.60954">
        <ele>325.632</ele>
        <time>2015-10-02T09:36:26Z</time>
      </trkpt>
      <trkpt lat="47.42248" lon="6.60955">
        <ele>325.598</ele>
        <time>2015-10-02T09:36:27Z</time>
      </trkpt>
      <trkpt lat="47.42246" lon="6.60956">
        <ele>326.531</ele>
        <time>2015-10-02T09:36:28Z</time>
      </trkpt>
      <trkpt lat="47.42243" lon="6.60956">
        <ele>326.869</ele>
        <time>2015-10-02T09:36:29Z</time>
      </trkpt>
      <trkpt lat="47.42241" lon="6.60957">
        <ele>326.27</ele>
        <time>2015-10-02T09:36:30Z</time>
      </trkpt>
      <trkpt lat="47.42238" lon="6.60958">
        <ele>326.803</ele>
        <time>2015-10-02T09:36:31Z</time>
      </trkpt>
      <trkpt lat="47.42236" lon="6.60959">
        <ele>326.646</ele>
        <time>2015-10-02T09:36:32Z</time>
      </trkpt>
      <trkpt lat="47.42233" lon="6.6096">
        <ele>326.259</ele>
        <time>2015-10-02T09:36:33Z</time>
      </trkpt>
      <trkpt lat="47.42231" lon="6.60962">
        <ele>326.024</ele>
        <time>2015-10-02T09:36:34Z</time>
      </trkpt>
      <trkpt lat="47.42228" lon="6.60963">
        <ele>325.825</ele>
        <time>2015-10-02T09:36:35Z</time>
      </trkpt>
      <trkpt lat="47.42226" lon="6.60964">
        <ele>326.333</ele>
        <time>2015-10-02T09:36:36Z</time>
      </trkpt>
      <trkpt lat="47.42224" lon="6.60966">
        <ele>326.472</ele>
        <time>2015-10-02T09:36:37Z</time>
      </trkpt>
      <trkpt lat="47.42221" lon="6.60968">
        <ele>326.963</ele>
        <time>2015-10-02T09:36:38Z</time>
      </trkpt>
      <trkpt lat="47.42219" lon="6.6097">
        <ele>326.703</ele>
        <time>2015-10-02T09:36:39Z</time>
      </trkpt>
      <trkpt lat="47.42217" lon="6.60973">
        <ele>326.722</ele>
        <time>2015-10-02T09:36:40Z</time>
      </trkpt>
      <trkpt lat="47.42215" lon="6.60975">
        <ele>326.362</ele>
        <time>2015-10-02T09:36:41Z</time>
      </trkpt>
      <trkpt lat="47.42212" lon="6.60978">
        <ele>326.972</ele>
        <time>2015-10-02T09:36:42Z</time>
      </trkpt>
      <trkpt lat="47.4221" lon="6.60981">
        <ele>327.843</ele>
        <time>2015-10-02T09:36:43Z</time>
      </trkpt>
      <trkpt lat="47.42208" lon="6.60983">
        <ele>327.742</ele>
        <time>2015-10-02T09:36:44Z</time>
      </trkpt>
      <trkpt lat="47.42206" lon="6.60986">
        <ele>327.839</ele>
        <time>2015-10-02T09:36:45Z</time>
      </trkpt>
      <trkpt lat="47.42204" lon="6.60989">
        <ele>328.135</ele>
        <time>2015-10-02T09:36:46Z</time>
      </trkpt>
      <trkpt lat="47.42202" lon="6.60992">
        <ele>329.148</ele>
        <time>2015-10-02T09:36:47Z</time>
      </trkpt>
      <trkpt lat="47.422" lon="6.60995">
        <ele>329.797</ele>
        <time>2015-10-02T09:36:48Z</time>
      </trkpt>
      <trkpt lat="47.42198" lon="6.60998">
        <ele>330.054</ele>
        <time>2015-10-02T09:36:49Z</time>
      </trkpt>
      <trkpt lat="47.42196" lon="6.61001">
        <ele>329.428</ele>
        <time>2015-10-02T09:36:50Z</time>
      </trkpt>
      <trkpt lat="47.42194" lon="6.61005">
        <ele>329.716</ele>
        <time>2015-10-02T09:36:51Z</time>
      </trkpt>
      <trkpt lat="47.42193" lon="6.61008">
        <ele>330.082</ele>
        <time>2015-10-02T09:36:52Z</time>
      </trkpt>
      <trkpt lat="47.42191" lon="6.61011">
        <ele>330.114</ele>
        <time>2015-10-02T09:36:53Z</time>
      </trkpt>
      <trkpt lat="47.42189" lon="6.61014">
        <ele>330.057</ele>
        <time>2015-10-02T09:36:54Z</time>
      </trkpt>
      <trkpt lat="47.42187" lon="6.61018">
        <ele>329.979</ele>
        <time>2015-10-02T09:36:55Z</time>
      </trkpt>
      <trkpt lat="47.42186" lon="6.61021">
        <ele>329.918</ele>
        <time>2015-10-02T09:36:56Z</time>
      </trkpt>
      <trkpt lat="47.42184" lon="6.61024">
        <ele>329.691</ele>
        <time>2015-10-02T09:36:57Z</time>
      </trkpt>
      <trkpt lat="47.42182" lon="6.61027">
        <ele>330.214</ele>
        <time>2015-10-02T09:36:58Z</time>
      </trkpt>
      <trkpt lat="47.4218" lon="6.6103">
        <ele>329.983</ele>
        <time>2015-10-02T09:36:59Z</time>
      </trkpt>
      <trkpt lat="47.42179" lon="6.61034">
        <ele>330.126</ele>
        <time>2015-10-02T09:37:00Z</time>
      </trkpt>
      <trkpt lat="47.42177" lon="6.61037">
        <ele>330.192</ele>
        <time>2015-10-02T09:37:01Z</time>
      </trkpt>
      <trkpt lat="47.42175" lon="6.6104">
        <ele>330.477</ele>
        <time>2015-10-02T09:37:02Z</time>
      </trkpt>
      <trkpt lat="47.42173" lon="6.61043">
        <ele>330.844</ele>
        <time>2015-10-02T09:37:03Z</time>
      </trkpt>
      <trkpt lat="47.42171" lon="6.61046">
        <ele>330.923</ele>
        <time>2015-10-02T09:37:04Z</time>
      </trkpt>
      <trkpt lat="47.42169" lon="6.61049">
        <ele>330.852</ele>
        <time>2015-10-02T09:37:05Z</time>
      </trkpt>
      <trkpt lat="47.42167" lon="6.61051">
        <ele>330.771</ele>
        <time>2015-10-02T09:37:06Z</time>
      </trkpt>
      <trkpt lat="47.42165" lon="6.61054">
        <ele>330.621</ele>
        <time>2015-10-02T09:37:07Z</time>
      </trkpt>
      <trkpt lat="47.42162" lon="6.61056">
        <ele>330.877</ele>
        <time>2015-10-02T09:37:08Z</time>
      </trkpt>
      <trkpt lat="47.4216" lon="6.61058">
        <ele>331.242</ele>
        <time>2015-10-02T09:37:09Z</time>
      </trkpt>
      <trkpt lat="47.42158" lon="6.61061">
        <ele>331.358</ele>
        <time>2015-10-02T09:37:10Z</time>
      </trkpt>
      <trkpt lat="47.42156" lon="6.61063">
        <ele>331.333</ele>
        <time>2015-10-02T09:37:11Z</time>
      </trkpt>
      <trkpt lat="47.42154" lon="6.61065">
        <ele>331.583</ele>
        <time>2015-10-02T09:37:12Z</time>
      </trkpt>
      <trkpt lat="47.42152" lon="6.61067">
        <ele>331.578</ele>
        <time>2015-10-02T09:37:13Z</time>
      </trkpt>
      <trkpt lat="47.42149" lon="6.61068">
        <ele>331.901</ele>
        <time>2015-10-02T09:37:14Z</time>
      </trkpt>
      <trkpt lat="47.42147" lon="6.61069">
        <ele>331.747</ele>
        <time>2015-10-02T09:37:15Z</time>
      </trkpt>
      <trkpt lat="47.42144" lon="6.61071">
        <ele>331.976</ele>
        <time>2015-10-02T09:37:16Z</time>
      </trkpt>
      <trkpt lat="47.42142" lon="6.61072">
        <ele>332.235</ele>
        <time>2015-10-02T09:37:17Z</time>
      </trkpt>
      <trkpt lat="47.4214" lon="6.61074">
        <ele>332.505</ele>
        <time>2015-10-02T09:37:18Z</time>
      </trkpt>
      <trkpt lat="47.42139" lon="6.61075">
        <ele>332.397</ele>
        <time>2015-10-02T09:37:19Z</time>
      </trkpt>
      <trkpt lat="47.42137" lon="6.61076">
        <ele>332.264</ele>
        <time>2015-10-02T09:37:20Z</time>
      </trkpt>
      <trkpt lat="47.42135" lon="6.61078">
        <ele>332.487</ele>
        <time>2015-10-02T09:37:21Z</time>
      </trkpt>
      <trkpt lat="47.42133" lon="6.61079">
        <ele>332.188</ele>
        <time>2015-10-02T09:37:22Z</time>
      </trkpt>
      <trkpt lat="47.42131" lon="6.6108">
        <ele>332.563</ele>
        <time>2015-10-02T09:37:23Z</time>
      </trkpt>
      <trkpt lat="47.42129" lon="6.61081">
        <ele>332.381</ele>
        <time>2015-10-02T09:37:24Z</time>
      </trkpt>
      <trkpt lat="47.42126" lon="6.61082">
        <ele>331.94</ele>
        <time>2015-10-02T09:37:25Z</time>
      </trkpt>
      <trkpt lat="47.42124" lon="6.61083">
        <ele>332.245</ele>
        <time>2015-10-02T09:37:26Z</time>
      </trkpt>
      <trkpt lat="47.42122" lon="6.61084">
        <ele>332.59</ele>
        <time>2015-10-02T09:37:27Z</time>
      </trkpt>
      <trkpt lat="47.42119" lon="6.61085">
        <ele>332.644</ele>
        <time>2015-10-02T09:37:28Z</time>
      </trkpt>
      <trkpt lat="47.42117" lon="6.61086">
        <ele>332.745</ele>
        <time>2015-10-02T09:37:29Z</time>
      </trkpt>
      <trkpt lat="47.42115" lon="6.61088">
        <ele>332.786</ele>
        <time>2015-10-02T09:37:30Z</time>
      </trkpt>
      <trkpt lat="47.42113" lon="6.61089">
        <ele>332.748</ele>
        <time>2015-10-02T09:37:31Z</time>
      </trkpt>
      <trkpt lat="47.42111" lon="6.61091">
        <ele>333.059</ele>
        <time>2015-10-02T09:37:32Z</time>
      </trkpt>
      <trkpt lat="47.42109" lon="6.61092">
        <ele>333.145</ele>
        <time>2015-10-02T09:37:33Z</time>
      </trkpt>
      <trkpt lat="47.42107" lon="6.61094">
        <ele>333.004</ele>
        <time>2015-10-02T09:37:34Z</time>
      </trkpt>
      <trkpt lat="47.42105" lon="6.61096">
        <ele>333.312</ele>
        <time>2015-10-02T09:37:35Z</time>
      </trkpt>
      <trkpt lat="47.42103" lon="6.61097">
        <ele>333.752</ele>
        <time>2015-10-02T09:37:36Z</time>
      </trkpt>
      <trkpt lat="47.42101" lon="6.61099">
        <ele>333.705</ele>
        <time>2015-10-02T09:37:37Z</time>
      </trkpt>
      <trkpt lat="47.42099" lon="6.61101">
        <ele>333.365</ele>
        <time>2015-10-02T09:37:38Z</time>
      </trkpt>
      <trkpt lat="47.42097" lon="6.61102">
        <ele>333.499</ele>
        <time>2015-10-02T09:37:39Z</time>
      </trkpt>
      <trkpt lat="47.42095" lon="6.61104">
        <ele>333.615</ele>
        <time>2015-10-02T09:37:40Z</time>
      </trkpt>
      <trkpt lat="47.42093" lon="6.61106">
        <ele>333.872</ele>
        <time>2015-10-02T09:37:41Z</time>
      </trkpt>
      <trkpt lat="47.42091" lon="6.61108">
        <ele>334.316</ele>
        <time>2015-10-02T09:37:42Z</time>
      </trkpt>
      <trkpt lat="47.4209" lon="6.61111">
        <ele>333.832</ele>
        <time>2015-10-02T09:37:43Z</time>
      </trkpt>
      <trkpt lat="47.42088" lon="6.61113">
        <ele>333.728</ele>
        <time>2015-10-02T09:37:44Z</time>
      </trkpt>
      <trkpt lat="47.42086" lon="6.61115">
        <ele>334.008</ele>
        <time>2015-10-02T09:37:45Z</time>
      </trkpt>
      <trkpt lat="47.42084" lon="6.61117">
        <ele>334.192</ele>
        <time>2015-10-02T09:37:46Z</time>
      </trkpt>
      <trkpt lat="47.42082" lon="6.61119">
        <ele>334.204</ele>
        <time>2015-10-02T09:37:47Z</time>
      </trkpt>
      <trkpt lat="47.4208" lon="6.61122">
        <ele>334.63</ele>
        <time>2015-10-02T09:37:48Z</time>
      </trkpt>
      <trkpt lat="47.42078" lon="6.61124">
        <ele>334.597</ele>
        <time>2015-10-02T09:37:49Z</time>
      </trkpt>
      <trkpt lat="47.42076" lon="6.61126">
        <ele>334.868</ele>
        <time>2015-10-02T09:37:50Z</time>
      </trkpt>
      <trkpt lat="47.42074" lon="6.61128">
        <ele>334.476</ele>
        <time>2015-10-02T09:37:51Z</time>
      </trkpt>
      <trkpt lat="47.42072" lon="6.6113">
        <ele>334.462</ele>
        <time>2015-10-02T09:37:52Z</time>
      </trkpt>
      <trkpt lat="47.42071" lon="6.61132">
        <ele>334.477</ele>
        <time>2015-10-02T09:37:53Z</time>
      </trkpt>
      <trkpt lat="47.42069" lon="6.61134">
        <ele>334.621</ele>
        <time>2015-10-02T09:37:54Z</time>
      </trkpt>
      <trkpt lat="47.42068" lon="6.61137">
        <ele>334.762</ele>
        <time>2015-10-02T09:37:55Z</time>
      </trkpt>
      <trkpt lat="47.42066" lon="6.61139">
        <ele>334.77</ele>
        <time>2015-10-02T09:37:56Z</time>
      </trkpt>
      <trkpt lat="47.42065" lon="6.61141">
        <ele>334.964</ele>
        <time>2015-10-02T09:37:57Z</time>
      </trkpt>
      <trkpt lat="47.42063" lon="6.61144">
        <ele>335.104</ele>
        <time>2015-10-02T09:37:58Z</time>
      </trkpt>
      <trkpt lat="47.42062" lon="6.61146">
        <ele>335.067</ele>
        <time>2015-10-02T09:37:59Z</time>
      </trkpt>
      <trkpt lat="47.4206" lon="6.61147">
        <ele>334.845</ele>
        <time>2015-10-02T09:38:00Z</time>
      </trkpt>
      <trkpt lat="47.42058" lon="6.61149">
        <ele>335.106</ele>
        <time>2015-10-02T09:38:01Z</time>
      </trkpt>
      <trkpt lat="47.42056" lon="6.61151">
        <ele>335.292</ele>
        <time>2015-10-02T09:38:02Z</time>
      </trkpt>
      <trkpt lat="47.42055" lon="6.61152">
        <ele>335.229</ele>
        <time>2015-10-02T09:38:03Z</time>
      </trkpt>
      <trkpt lat="47.42053" lon="6.61154">
        <ele>335.967</ele>
        <time>2015-10-02T09:38:04Z</time>
      </trkpt>
      <trkpt lat="47.42052" lon="6.61156">
        <ele>335.684</ele>
        <time>2015-10-02T09:38:05Z</time>
      </trkpt>
      <trkpt lat="47.42051" lon="6.61157">
        <ele>335.524</ele>
        <time>2015-10-02T09:38:06Z</time>
      </trkpt>
      <trkpt lat="47.4205" lon="6.61159">
        <ele>335.82</ele>
        <time>2015-10-02T09:38:07Z</time>
      </trkpt>
      <trkpt lat="47.42049" lon="6.6116">
        <ele>335.913</ele>
        <time>2015-10-02T09:38:08Z</time>
      </trkpt>
      <trkpt lat="47.42048" lon="6.61161">
        <ele>335.943</ele>
        <time>2015-10-02T09:38:09Z</time>
      </trkpt>
      <trkpt lat="47.42046" lon="6.61163">
        <ele>335.735</ele>
        <time>2015-10-02T09:38:10Z</time>
      </trkpt>
      <trkpt lat="47.42045" lon="6.61164">
        <ele>335.635</ele>
        <time>2015-10-02T09:38:11Z</time>
      </trkpt>
      <trkpt lat="47.42043" lon="6.61165">
        <ele>335.431</ele>
        <time>2015-10-02T09:38:12Z</time>
      </trkpt>
      <trkpt lat="47.42042" lon="6.61167">
        <ele>335.328</ele>
        <time>2015-10-02T09:38:13Z</time>
      </trkpt>
      <trkpt lat="47.42041" lon="6.61168">
        <ele>335.345</ele>
        <time>2015-10-02T09:38:14Z</time>
      </trkpt>
      <trkpt lat="47.4204" lon="6.6117">
        <ele>335.292</ele>
        <time>2015-10-02T09:38:15Z</time>
      </trkpt>
      <trkpt lat="47.42041" lon="6.61172">
        <ele>335.673</ele>
        <time>2015-10-02T09:38:17Z</time>
      </trkpt>
      <trkpt lat="47.42042" lon="6.61173">
        <ele>336.836</ele>
        <time>2015-10-02T09:38:19Z</time>
      </trkpt>
      <trkpt lat="47.42043" lon="6.61173">
        <ele>337.418</ele>
        <time>2015-10-02T09:38:20Z</time>
      </trkpt>
      <trkpt lat="47.42045" lon="6.61171">
        <ele>337.55</ele>
        <time>2015-10-02T09:38:21Z</time>
      </trkpt>
      <trkpt lat="47.42046" lon="6.61169">
        <ele>337.633</ele>
        <time>2015-10-02T09:38:22Z</time>
      </trkpt>
      <trkpt lat="47.42048" lon="6.61166">
        <ele>337.053</ele>
        <time>2015-10-02T09:38:23Z</time>
      </trkpt>
      <trkpt lat="47.4205" lon="6.61163">
        <ele>336.895</ele>
        <time>2015-10-02T09:38:24Z</time>
      </trkpt>
      <trkpt lat="47.42052" lon="6.6116">
        <ele>336.808</ele>
        <time>2015-10-02T09:38:25Z</time>
      </trkpt>
      <trkpt lat="47.42055" lon="6.61157">
        <ele>336.814</ele>
        <time>2015-10-02T09:38:26Z</time>
      </trkpt>
      <trkpt lat="47.42057" lon="6.61154">
        <ele>336.403</ele>
        <time>2015-10-02T09:38:27Z</time>
      </trkpt>
      <trkpt lat="47.4206" lon="6.61151">
        <ele>337.117</ele>
        <time>2015-10-02T09:38:28Z</time>
      </trkpt>
      <trkpt lat="47.42063" lon="6.61148">
        <ele>337.421</ele>
        <time>2015-10-02T09:38:29Z</time>
      </trkpt>
      <trkpt lat="47.42066" lon="6.61145">
        <ele>337.149</ele>
        <time>2015-10-02T09:38:30Z</time>
      </trkpt>
      <trkpt lat="47.42069" lon="6.61142">
        <ele>337.772</ele>
        <time>2015-10-02T09:38:31Z</time>
      </trkpt>
      <trkpt lat="47.42072" lon="6.61139">
        <ele>337.798</ele>
        <time>2015-10-02T09:38:32Z</time>
      </trkpt>
      <trkpt lat="47.42075" lon="6.61136">
        <ele>337.528</ele>
        <time>2015-10-02T09:38:33Z</time>
      </trkpt>
      <trkpt lat="47.42077" lon="6.61133">
        <ele>336.16</ele>
        <time>2015-10-02T09:38:34Z</time>
      </trkpt>
      <trkpt lat="47.4208" lon="6.61129">
        <ele>336.165</ele>
        <time>2015-10-02T09:38:35Z</time>
      </trkpt>
      <trkpt lat="47.42083" lon="6.61126">
        <ele>335.646</ele>
        <time>2015-10-02T09:38:36Z</time>
      </trkpt>
      <trkpt lat="47.42086" lon="6.61123">
        <ele>335.422</ele>
        <time>2015-10-02T09:38:37Z</time>
      </trkpt>
      <trkpt lat="47.42089" lon="6.6112">
        <ele>335.201</ele>
        <time>2015-10-02T09:38:38Z</time>
      </trkpt>
      <trkpt lat="47.42092" lon="6.61117">
        <ele>334.845</ele>
        <time>2015-10-02T09:38:39Z</time>
      </trkpt>
      <trkpt lat="47.42094" lon="6.61114">
        <ele>334.914</ele>
        <time>2015-10-02T09:38:40Z</time>
      </trkpt>
      <trkpt lat="47.42097" lon="6.61111">
        <ele>334.882</ele>
        <time>2015-10-02T09:38:41Z</time>
      </trkpt>
      <trkpt lat="47.42099" lon="6.61109">
        <ele>334.924</ele>
        <time>2015-10-02T09:38:42Z</time>
      </trkpt>
      <trkpt lat="47.42102" lon="6.61107">
        <ele>334.694</ele>
        <time>2015-10-02T09:38:43Z</time>
      </trkpt>
      <trkpt lat="47.42104" lon="6.61104">
        <ele>334.724</ele>
        <time>2015-10-02T09:38:44Z</time>
      </trkpt>
      <trkpt lat="47.42107" lon="6.61102">
        <ele>334.554</ele>
        <time>2015-10-02T09:38:45Z</time>
      </trkpt>
      <trkpt lat="47.42109" lon="6.611">
        <ele>334.67</ele>
        <time>2015-10-02T09:38:46Z</time>
      </trkpt>
      <trkpt lat="47.42111" lon="6.61098">
        <ele>334.635</ele>
        <time>2015-10-02T09:38:47Z</time>
      </trkpt>
      <trkpt lat="47.42112" lon="6.61098">
        <ele>335.062</ele>
        <time>2015-10-02T09:38:48Z</time>
      </trkpt>
      <trkpt lat="47.42113" lon="6.61096">
        <ele>335.168</ele>
        <time>2015-10-02T09:38:50Z</time>
      </trkpt>
      <trkpt lat="47.42112" lon="6.61094">
        <ele>335.109</ele>
        <time>2015-10-02T09:38:52Z</time>
      </trkpt>
      <trkpt lat="47.42111" lon="6.61093">
        <ele>335.142</ele>
        <time>2015-10-02T09:38:53Z</time>
      </trkpt>
      <trkpt lat="47.42109" lon="6.61093">
        <ele>335.345</ele>
        <time>2015-10-02T09:38:54Z</time>
      </trkpt>
      <trkpt lat="47.42108" lon="6.61094">
        <ele>335.608</ele>
        <time>2015-10-02T09:38:55Z</time>
      </trkpt>
      <trkpt lat="47.42106" lon="6.61095">
        <ele>335.505</ele>
        <time>2015-10-02T09:38:56Z</time>
      </trkpt>
      <trkpt lat="47.42104" lon="6.61097">
        <ele>335.362</ele>
        <time>2015-10-02T09:38:57Z</time>
      </trkpt>
      <trkpt lat="47.42102" lon="6.61099">
        <ele>335.515</ele>
        <time>2015-10-02T09:38:58Z</time>
      </trkpt>
      <trkpt lat="47.421" lon="6.61101">
        <ele>335.626</ele>
        <time>2015-10-02T09:38:59Z</time>
      </trkpt>
      <trkpt lat="47.42098" lon="6.61103">
        <ele>335.607</ele>
        <time>2015-10-02T09:39:00Z</time>
      </trkpt>
      <trkpt lat="47.42096" lon="6.61105">
        <ele>335.629</ele>
        <time>2015-10-02T09:39:01Z</time>
      </trkpt>
      <trkpt lat="47.42094" lon="6.61108">
        <ele>335.379</ele>
        <time>2015-10-02T09:39:02Z</time>
      </trkpt>
      <trkpt lat="47.42092" lon="6.61109">
        <ele>335.518</ele>
        <time>2015-10-02T09:39:03Z</time>
      </trkpt>
      <trkpt lat="47.4209" lon="6.61111">
        <ele>335.898</ele>
        <time>2015-10-02T09:39:04Z</time>
      </trkpt>
      <trkpt lat="47.42089" lon="6.61113">
        <ele>336.197</ele>
        <time>2015-10-02T09:39:05Z</time>
      </trkpt>
      <trkpt lat="47.42087" lon="6.61114">
        <ele>336.622</ele>
        <time>2015-10-02T09:39:06Z</time>
      </trkpt>
      <trkpt lat="47.42085" lon="6.61116">
        <ele>336.483</ele>
        <time>2015-10-02T09:39:07Z</time>
      </trkpt>
      <trkpt lat="47.42084" lon="6.61118">
        <ele>337.127</ele>
        <time>2015-10-02T09:39:08Z</time>
      </trkpt>
      <trkpt lat="47.42082" lon="6.6112">
        <ele>336.927</ele>
        <time>2015-10-02T09:39:09Z</time>
      </trkpt>
      <trkpt lat="47.4208" lon="6.61121">
        <ele>336.951</ele>
        <time>2015-10-02T09:39:10Z</time>
      </trkpt>
      <trkpt lat="47.42078" lon="6.61123">
        <ele>336.805</ele>
        <time>2015-10-02T09:39:11Z</time>
      </trkpt>
      <trkpt lat="47.42076" lon="6.61125">
        <ele>336.911</ele>
        <time>2015-10-02T09:39:12Z</time>
      </trkpt>
      <trkpt lat="47.42074" lon="6.61127">
        <ele>336.646</ele>
        <time>2015-10-02T09:39:13Z</time>
      </trkpt>
      <trkpt lat="47.42072" lon="6.6113">
        <ele>336.806</ele>
        <time>2015-10-02T09:39:14Z</time>
      </trkpt>
      <trkpt lat="47.4207" lon="6.61132">
        <ele>337.116</ele>
        <time>2015-10-02T09:39:15Z</time>
      </trkpt>
      <trkpt lat="47.42069" lon="6.61134">
        <ele>337.283</ele>
        <time>2015-10-02T09:39:16Z</time>
      </trkpt>
      <trkpt lat="47.42067" lon="6.61137">
        <ele>337.312</ele>
        <time>2015-10-02T09:39:17Z</time>
      </trkpt>
      <trkpt lat="47.42065" lon="6.61139">
        <ele>337.39</ele>
        <time>2015-10-02T09:39:18Z</time>
      </trkpt>
      <trkpt lat="47.42063" lon="6.61141">
        <ele>337.457</ele>
        <time>2015-10-02T09:39:19Z</time>
      </trkpt>
      <trkpt lat="47.42061" lon="6.61144">
        <ele>337.144</ele>
        <time>2015-10-02T09:39:20Z</time>
      </trkpt>
      <trkpt lat="47.42059" lon="6.61147">
        <ele>337.707</ele>
        <time>2015-10-02T09:39:21Z</time>
      </trkpt>
      <trkpt lat="47.42057" lon="6.6115">
        <ele>337.459</ele>
        <time>2015-10-02T09:39:22Z</time>
      </trkpt>
      <trkpt lat="47.42056" lon="6.61152">
        <ele>337.241</ele>
        <time>2015-10-02T09:39:23Z</time>
      </trkpt>
      <trkpt lat="47.42054" lon="6.61155">
        <ele>337.294</ele>
        <time>2015-10-02T09:39:24Z</time>
      </trkpt>
      <trkpt lat="47.42052" lon="6.61157">
        <ele>337.35</ele>
        <time>2015-10-02T09:39:25Z</time>
      </trkpt>
      <trkpt lat="47.4205" lon="6.61159">
        <ele>337.562</ele>
        <time>2015-10-02T09:39:26Z</time>
      </trkpt>
      <trkpt lat="47.42049" lon="6.61162">
        <ele>337.64</ele>
        <time>2015-10-02T09:39:27Z</time>
      </trkpt>
      <trkpt lat="47.42047" lon="6.61164">
        <ele>337.83</ele>
        <time>2015-10-02T09:39:28Z</time>
      </trkpt>
      <trkpt lat="47.42045" lon="6.61166">
        <ele>337.922</ele>
        <time>2015-10-02T09:39:29Z</time>
      </trkpt>
      <trkpt lat="47.42043" lon="6.61168">
        <ele>337.835</ele>
        <time>2015-10-02T09:39:30Z</time>
      </trkpt>
      <trkpt lat="47.42042" lon="6.6117">
        <ele>337.563</ele>
        <time>2015-10-02T09:39:31Z</time>
      </trkpt>
      <trkpt lat="47.4204" lon="6.61171">
        <ele>337.116</ele>
        <time>2015-10-02T09:39:32Z</time>
      </trkpt>
      <trkpt lat="47.42039" lon="6.61173">
        <ele>336.996</ele>
        <time>2015-10-02T09:39:33Z</time>
      </trkpt>
      <trkpt lat="47.42037" lon="6.61175">
        <ele>337.71</ele>
        <time>2015-10-02T09:39:34Z</time>
      </trkpt>
      <trkpt lat="47.42035" lon="6.61176">
        <ele>337.52</ele>
        <time>2015-10-02T09:39:35Z</time>
      </trkpt>
      <trkpt lat="47.42034" lon="6.61178">
        <ele>337.461</ele>
        <time>2015-10-02T09:39:36Z</time>
      </trkpt>
      <trkpt lat="47.42032" lon="6.61179">
        <ele>337.737</ele>
        <time>2015-10-02T09:39:37Z</time>
      </trkpt>
      <trkpt lat="47.4203" lon="6.6118">
        <ele>339.607</ele>
        <time>2015-10-02T09:39:38Z</time>
      </trkpt>
      <trkpt lat="47.42028" lon="6.61181">
        <ele>340.12</ele>
        <time>2015-10-02T09:39:39Z</time>
      </trkpt>
      <trkpt lat="47.42027" lon="6.61183">
        <ele>340.539</ele>
        <time>2015-10-02T09:39:40Z</time>
      </trkpt>
      <trkpt lat="47.42025" lon="6.61185">
        <ele>340.66</ele>
        <time>2015-10-02T09:39:41Z</time>
      </trkpt>
      <trkpt lat="47.42023" lon="6.61188">
        <ele>341.107</ele>
        <time>2015-10-02T09:39:42Z</time>
      </trkpt>
      <trkpt lat="47.42022" lon="6.61191">
        <ele>340.801</ele>
        <time>2015-10-02T09:39:43Z</time>
      </trkpt>
      <trkpt lat="47.4202" lon="6.61194">
        <ele>340.211</ele>
        <time>2015-10-02T09:39:44Z</time>
      </trkpt>
      <trkpt lat="47.42019" lon="6.61197">
        <ele>340.012</ele>
        <time>2015-10-02T09:39:45Z</time>
      </trkpt>
      <trkpt lat="47.42017" lon="6.612">
        <ele>339.106</ele>
        <time>2015-10-02T09:39:46Z</time>
      </trkpt>
      <trkpt lat="47.42016" lon="6.61202">
        <ele>338.791</ele>
        <time>2015-10-02T09:39:47Z</time>
      </trkpt>
      <trkpt lat="47.42014" lon="6.61205">
        <ele>338.938</ele>
        <time>2015-10-02T09:39:48Z</time>
      </trkpt>
      <trkpt lat="47.42013" lon="6.61208">
        <ele>339.102</ele>
        <time>2015-10-02T09:39:49Z</time>
      </trkpt>
      <trkpt lat="47.42012" lon="6.61211">
        <ele>338.845</ele>
        <time>2015-10-02T09:39:50Z</time>
      </trkpt>
      <trkpt lat="47.4201" lon="6.61214">
        <ele>338.309</ele>
        <time>2015-10-02T09:39:51Z</time>
      </trkpt>
      <trkpt lat="47.42009" lon="6.61218">
        <ele>338.652</ele>
        <time>2015-10-02T09:39:52Z</time>
      </trkpt>
      <trkpt lat="47.42007" lon="6.61221">
        <ele>339.089</ele>
        <time>2015-10-02T09:39:53Z</time>
      </trkpt>
      <trkpt lat="47.42006" lon="6.61224">
        <ele>339.333</ele>
        <time>2015-10-02T09:39:54Z</time>
      </trkpt>
      <trkpt lat="47.42005" lon="6.61226">
        <ele>339.043</ele>
        <time>2015-10-02T09:39:55Z</time>
      </trkpt>
      <trkpt lat="47.42003" lon="6.61229">
        <ele>339.159</ele>
        <time>2015-10-02T09:39:56Z</time>
      </trkpt>
      <trkpt lat="47.42002" lon="6.61232">
        <ele>339.008</ele>
        <time>2015-10-02T09:39:57Z</time>
      </trkpt>
      <trkpt lat="47.42" lon="6.61234">
        <ele>338.622</ele>
        <time>2015-10-02T09:39:58Z</time>
      </trkpt>
      <trkpt lat="47.41999" lon="6.61237">
        <ele>340.094</ele>
        <time>2015-10-02T09:39:59Z</time>
      </trkpt>
      <trkpt lat="47.41997" lon="6.6124">
        <ele>340.624</ele>
        <time>2015-10-02T09:40:00Z</time>
      </trkpt>
      <trkpt lat="47.41996" lon="6.61243">
        <ele>340.873</ele>
        <time>2015-10-02T09:40:01Z</time>
      </trkpt>
      <trkpt lat="47.41994" lon="6.61245">
        <ele>341.643</ele>
        <time>2015-10-02T09:40:02Z</time>
      </trkpt>
      <trkpt lat="47.41993" lon="6.61248">
        <ele>342.032</ele>
        <time>2015-10-02T09:40:03Z</time>
      </trkpt>
      <trkpt lat="47.41992" lon="6.6125">
        <ele>342.209</ele>
        <time>2015-10-02T09:40:04Z</time>
      </trkpt>
      <trkpt lat="47.41991" lon="6.61252">
        <ele>341.7</ele>
        <time>2015-10-02T09:40:05Z</time>
      </trkpt>
      <trkpt lat="47.4199" lon="6.61254">
        <ele>342.167</ele>
        <time>2015-10-02T09:40:06Z</time>
      </trkpt>
      <trkpt lat="47.41989" lon="6.61256">
        <ele>341.797</ele>
        <time>2015-10-02T09:40:07Z</time>
      </trkpt>
      <trkpt lat="47.41988" lon="6.61259">
        <ele>343.59</ele>
        <time>2015-10-02T09:40:08Z</time>
      </trkpt>
      <trkpt lat="47.41987" lon="6.61261">
        <ele>344.032</ele>
        <time>2015-10-02T09:40:09Z</time>
      </trkpt>
      <trkpt lat="47.41986" lon="6.61264">
        <ele>342.396</ele>
        <time>2015-10-02T09:40:10Z</time>
      </trkpt>
      <trkpt lat="47.41984" lon="6.61266">
        <ele>342.518</ele>
        <time>2015-10-02T09:40:11Z</time>
      </trkpt>
      <trkpt lat="47.41983" lon="6.61269">
        <ele>343.079</ele>
        <time>2015-10-02T09:40:12Z</time>
      </trkpt>
      <trkpt lat="47.41982" lon="6.61271">
        <ele>344.579</ele>
        <time>2015-10-02T09:40:13Z</time>
      </trkpt>
      <trkpt lat="47.4198" lon="6.61274">
        <ele>345.095</ele>
        <time>2015-10-02T09:40:14Z</time>
      </trkpt>
      <trkpt lat="47.41978" lon="6.61275">
        <ele>344.487</ele>
        <time>2015-10-02T09:40:15Z</time>
      </trkpt>
      <trkpt lat="47.41977" lon="6.61276">
        <ele>344.809</ele>
        <time>2015-10-02T09:40:16Z</time>
      </trkpt>
      <trkpt lat="47.41975" lon="6.61278">
        <ele>344.23</ele>
        <time>2015-10-02T09:40:17Z</time>
      </trkpt>
      <trkpt lat="47.41973" lon="6.61279">
        <ele>343.915</ele>
        <time>2015-10-02T09:40:18Z</time>
      </trkpt>
      <trkpt lat="47.41971" lon="6.61282">
        <ele>344.626</ele>
        <time>2015-10-02T09:40:19Z</time>
      </trkpt>
      <trkpt lat="47.4197" lon="6.61284">
        <ele>344.86</ele>
        <time>2015-10-02T09:40:20Z</time>
      </trkpt>
      <trkpt lat="47.41968" lon="6.61286">
        <ele>344.643</ele>
        <time>2015-10-02T09:40:21Z</time>
      </trkpt>
      <trkpt lat="47.41967" lon="6.61288">
        <ele>344.602</ele>
        <time>2015-10-02T09:40:22Z</time>
      </trkpt>
      <trkpt lat="47.41965" lon="6.6129">
        <ele>344.359</ele>
        <time>2015-10-02T09:40:23Z</time>
      </trkpt>
      <trkpt lat="47.41963" lon="6.61292">
        <ele>344.207</ele>
        <time>2015-10-02T09:40:24Z</time>
      </trkpt>
      <trkpt lat="47.41961" lon="6.61294">
        <ele>344.046</ele>
        <time>2015-10-02T09:40:25Z</time>
      </trkpt>
      <trkpt lat="47.41959" lon="6.61295">
        <ele>343.987</ele>
        <time>2015-10-02T09:40:26Z</time>
      </trkpt>
      <trkpt lat="47.41956" lon="6.61296">
        <ele>344.234</ele>
        <time>2015-10-02T09:40:27Z</time>
      </trkpt>
      <trkpt lat="47.41954" lon="6.61297">
        <ele>345.408</ele>
        <time>2015-10-02T09:40:28Z</time>
      </trkpt>
      <trkpt lat="47.41951" lon="6.613">
        <ele>345.684</ele>
        <time>2015-10-02T09:40:29Z</time>
      </trkpt>
      <trkpt lat="47.4195" lon="6.61303">
        <ele>344.961</ele>
        <time>2015-10-02T09:40:30Z</time>
      </trkpt>
      <trkpt lat="47.41948" lon="6.61307">
        <ele>344.37</ele>
        <time>2015-10-02T09:40:31Z</time>
      </trkpt>
      <trkpt lat="47.41946" lon="6.6131">
        <ele>344.414</ele>
        <time>2015-10-02T09:40:32Z</time>
      </trkpt>
      <trkpt lat="47.41944" lon="6.61313">
        <ele>344.545</ele>
        <time>2015-10-02T09:40:33Z</time>
      </trkpt>
      <trkpt lat="47.41942" lon="6.61315">
        <ele>344.958</ele>
        <time>2015-10-02T09:40:34Z</time>
      </trkpt>
      <trkpt lat="47.4194" lon="6.61318">
        <ele>344.601</ele>
        <time>2015-10-02T09:40:35Z</time>
      </trkpt>
      <trkpt lat="47.41938" lon="6.61322">
        <ele>343.76</ele>
        <time>2015-10-02T09:40:36Z</time>
      </trkpt>
      <trkpt lat="47.41936" lon="6.61325">
        <ele>344.573</ele>
        <time>2015-10-02T09:40:37Z</time>
      </trkpt>
      <trkpt lat="47.41934" lon="6.61328">
        <ele>345.219</ele>
        <time>2015-10-02T09:40:38Z</time>
      </trkpt>
      <trkpt lat="47.41932" lon="6.61331">
        <ele>345.698</ele>
        <time>2015-10-02T09:40:39Z</time>
      </trkpt>
      <trkpt lat="47.41929" lon="6.61333">
        <ele>345.434</ele>
        <time>2015-10-02T09:40:40Z</time>
      </trkpt>
      <trkpt lat="47.41927" lon="6.61336">
        <ele>344.687</ele>
        <time>2015-10-02T09:40:41Z</time>
      </trkpt>
      <trkpt lat="47.41925" lon="6.61338">
        <ele>345.6</ele>
        <time>2015-10-02T09:40:42Z</time>
      </trkpt>
      <trkpt lat="47.41923" lon="6.61341">
        <ele>345.672</ele>
        <time>2015-10-02T09:40:43Z</time>
      </trkpt>
      <trkpt lat="47.41921" lon="6.61343">
        <ele>346.241</ele>
        <time>2015-10-02T09:40:44Z</time>
      </trkpt>
      <trkpt lat="47.41919" lon="6.61346">
        <ele>346.915</ele>
        <time>2015-10-02T09:40:45Z</time>
      </trkpt>
      <trkpt lat="47.41917" lon="6.61349">
        <ele>346.452</ele>
        <time>2015-10-02T09:40:46Z</time>
      </trkpt>
      <trkpt lat="47.41915" lon="6.61351">
        <ele>346.661</ele>
        <time>2015-10-02T09:40:47Z</time>
      </trkpt>
      <trkpt lat="47.41913" lon="6.61355">
        <ele>347.567</ele>
        <time>2015-10-02T09:40:48Z</time>
      </trkpt>
      <trkpt lat="47.41911" lon="6.61358">
        <ele>347.694</ele>
        <time>2015-10-02T09:40:49Z</time>
      </trkpt>
      <trkpt lat="47.41909" lon="6.61361">
        <ele>347.361</ele>
        <time>2015-10-02T09:40:50Z</time>
      </trkpt>
      <trkpt lat="47.41908" lon="6.61363">
        <ele>348.707</ele>
        <time>2015-10-02T09:40:51Z</time>
      </trkpt>
      <trkpt lat="47.41906" lon="6.61365">
        <ele>348.923</ele>
        <time>2015-10-02T09:40:52Z</time>
      </trkpt>
      <trkpt lat="47.41904" lon="6.61367">
        <ele>350.493</ele>
        <time>2015-10-02T09:40:53Z</time>
      </trkpt>
      <trkpt lat="47.41903" lon="6.61369">
        <ele>350.435</ele>
        <time>2015-10-02T09:40:54Z</time>
      </trkpt>
      <trkpt lat="47.41901" lon="6.61371">
        <ele>351.506</ele>
        <time>2015-10-02T09:40:55Z</time>
      </trkpt>
      <trkpt lat="47.41898" lon="6.61373">
        <ele>351.87</ele>
        <time>2015-10-02T09:40:56Z</time>
      </trkpt>
      <trkpt lat="47.41896" lon="6.61375">
        <ele>351.31</ele>
        <time>2015-10-02T09:40:57Z</time>
      </trkpt>
      <trkpt lat="47.41895" lon="6.61377">
        <ele>351.982</ele>
        <time>2015-10-02T09:40:58Z</time>
      </trkpt>
      <trkpt lat="47.41893" lon="6.61379">
        <ele>352.016</ele>
        <time>2015-10-02T09:40:59Z</time>
      </trkpt>
      <trkpt lat="47.41891" lon="6.61382">
        <ele>351.954</ele>
        <time>2015-10-02T09:41:00Z</time>
      </trkpt>
      <trkpt lat="47.41889" lon="6.61385">
        <ele>351.989</ele>
        <time>2015-10-02T09:41:01Z</time>
      </trkpt>
      <trkpt lat="47.41887" lon="6.61387">
        <ele>352.159</ele>
        <time>2015-10-02T09:41:02Z</time>
      </trkpt>
      <trkpt lat="47.41885" lon="6.61389">
        <ele>352.918</ele>
        <time>2015-10-02T09:41:03Z</time>
      </trkpt>
      <trkpt lat="47.41883" lon="6.61391">
        <ele>353.443</ele>
        <time>2015-10-02T09:41:04Z</time>
      </trkpt>
      <trkpt lat="47.4188" lon="6.61394">
        <ele>352.952</ele>
        <time>2015-10-02T09:41:05Z</time>
      </trkpt>
      <trkpt lat="47.41878" lon="6.61396">
        <ele>351.626</ele>
        <time>2015-10-02T09:41:06Z</time>
      </trkpt>
      <trkpt lat="47.41876" lon="6.61399">
        <ele>351.422</ele>
        <time>2015-10-02T09:41:07Z</time>
      </trkpt>
      <trkpt lat="47.41874" lon="6.61401">
        <ele>351.665</ele>
        <time>2015-10-02T09:41:08Z</time>
      </trkpt>
      <trkpt lat="47.41872" lon="6.61404">
        <ele>352.124</ele>
        <time>2015-10-02T09:41:09Z</time>
      </trkpt>
      <trkpt lat="47.4187" lon="6.61407">
        <ele>350.783</ele>
        <time>2015-10-02T09:41:10Z</time>
      </trkpt>
      <trkpt lat="47.41868" lon="6.61409">
        <ele>351.249</ele>
        <time>2015-10-02T09:41:11Z</time>
      </trkpt>
      <trkpt lat="47.41865" lon="6.61411">
        <ele>351.471</ele>
        <time>2015-10-02T09:41:12Z</time>
      </trkpt>
      <trkpt lat="47.41863" lon="6.61413">
        <ele>351.854</ele>
        <time>2015-10-02T09:41:13Z</time>
      </trkpt>
      <trkpt lat="47.41861" lon="6.61416">
        <ele>352.035</ele>
        <time>2015-10-02T09:41:14Z</time>
      </trkpt>
      <trkpt lat="47.4186" lon="6.61419">
        <ele>351.17</ele>
        <time>2015-10-02T09:41:15Z</time>
      </trkpt>
      <trkpt lat="47.41858" lon="6.61422">
        <ele>350.871</ele>
        <time>2015-10-02T09:41:16Z</time>
      </trkpt>
      <trkpt lat="47.41856" lon="6.61425">
        <ele>351.389</ele>
        <time>2015-10-02T09:41:17Z</time>
      </trkpt>
      <trkpt lat="47.41854" lon="6.61428">
        <ele>351.737</ele>
        <time>2015-10-02T09:41:18Z</time>
      </trkpt>
      <trkpt lat="47.41851" lon="6.61431">
        <ele>351.809</ele>
        <time>2015-10-02T09:41:19Z</time>
      </trkpt>
      <trkpt lat="47.41848" lon="6.61434">
        <ele>352.261</ele>
        <time>2015-10-02T09:41:20Z</time>
      </trkpt>
      <trkpt lat="47.41846" lon="6.61437">
        <ele>352.754</ele>
        <time>2015-10-02T09:41:21Z</time>
      </trkpt>
      <trkpt lat="47.41843" lon="6.6144">
        <ele>352.863</ele>
        <time>2015-10-02T09:41:22Z</time>
      </trkpt>
      <trkpt lat="47.4184" lon="6.61443">
        <ele>352.351</ele>
        <time>2015-10-02T09:41:23Z</time>
      </trkpt>
      <trkpt lat="47.41838" lon="6.61447">
        <ele>352.503</ele>
        <time>2015-10-02T09:41:24Z</time>
      </trkpt>
      <trkpt lat="47.41835" lon="6.61451">
        <ele>353.108</ele>
        <time>2015-10-02T09:41:25Z</time>
      </trkpt>
      <trkpt lat="47.41833" lon="6.61455">
        <ele>353.077</ele>
        <time>2015-10-02T09:41:26Z</time>
      </trkpt>
      <trkpt lat="47.41831" lon="6.61459">
        <ele>352.251</ele>
        <time>2015-10-02T09:41:27Z</time>
      </trkpt>
      <trkpt lat="47.41829" lon="6.61464">
        <ele>351.739</ele>
        <time>2015-10-02T09:41:28Z</time>
      </trkpt>
      <trkpt lat="47.41826" lon="6.61469">
        <ele>352.304</ele>
        <time>2015-10-02T09:41:29Z</time>
      </trkpt>
      <trkpt lat="47.41824" lon="6.61473">
        <ele>353.367</ele>
        <time>2015-10-02T09:41:30Z</time>
      </trkpt>
      <trkpt lat="47.41821" lon="6.61477">
        <ele>354.101</ele>
        <time>2015-10-02T09:41:31Z</time>
      </trkpt>
      <trkpt lat="47.41819" lon="6.61481">
        <ele>353.859</ele>
        <time>2015-10-02T09:41:32Z</time>
      </trkpt>
      <trkpt lat="47.41817" lon="6.61485">
        <ele>353.281</ele>
        <time>2015-10-02T09:41:33Z</time>
      </trkpt>
      <trkpt lat="47.41815" lon="6.61489">
        <ele>353.22</ele>
        <time>2015-10-02T09:41:34Z</time>
      </trkpt>
      <trkpt lat="47.41813" lon="6.61493">
        <ele>352.15</ele>
        <time>2015-10-02T09:41:35Z</time>
      </trkpt>
      <trkpt lat="47.41812" lon="6.61498">
        <ele>352.127</ele>
        <time>2015-10-02T09:41:36Z</time>
      </trkpt>
      <trkpt lat="47.41812" lon="6.61502">
        <ele>352.192</ele>
        <time>2015-10-02T09:41:37Z</time>
      </trkpt>
      <trkpt lat="47.4181" lon="6.61506">
        <ele>351.893</ele>
        <time>2015-10-02T09:41:38Z</time>
      </trkpt>
      <trkpt lat="47.41808" lon="6.61511">
        <ele>352.736</ele>
        <time>2015-10-02T09:41:39Z</time>
      </trkpt>
      <trkpt lat="47.41807" lon="6.61515">
        <ele>353.065</ele>
        <time>2015-10-02T09:41:40Z</time>
      </trkpt>
      <trkpt lat="47.41806" lon="6.61518">
        <ele>353.36</ele>
        <time>2015-10-02T09:41:41Z</time>
      </trkpt>
      <trkpt lat="47.41804" lon="6.61522">
        <ele>353.217</ele>
        <time>2015-10-02T09:41:42Z</time>
      </trkpt>
      <trkpt lat="47.41803" lon="6.61526">
        <ele>353.506</ele>
        <time>2015-10-02T09:41:43Z</time>
      </trkpt>
      <trkpt lat="47.41802" lon="6.6153">
        <ele>353.711</ele>
        <time>2015-10-02T09:41:44Z</time>
      </trkpt>
      <trkpt lat="47.418" lon="6.61534">
        <ele>355.149</ele>
        <time>2015-10-02T09:41:45Z</time>
      </trkpt>
      <trkpt lat="47.41799" lon="6.61538">
        <ele>355.221</ele>
        <time>2015-10-02T09:41:46Z</time>
      </trkpt>
      <trkpt lat="47.41798" lon="6.61542">
        <ele>353.851</ele>
        <time>2015-10-02T09:41:47Z</time>
      </trkpt>
      <trkpt lat="47.41797" lon="6.61546">
        <ele>354.431</ele>
        <time>2015-10-02T09:41:48Z</time>
      </trkpt>
      <trkpt lat="47.41796" lon="6.6155">
        <ele>353.087</ele>
        <time>2015-10-02T09:41:49Z</time>
      </trkpt>
      <trkpt lat="47.41794" lon="6.61554">
        <ele>352.721</ele>
        <time>2015-10-02T09:41:50Z</time>
      </trkpt>
      <trkpt lat="47.41793" lon="6.61559">
        <ele>352.926</ele>
        <time>2015-10-02T09:41:51Z</time>
      </trkpt>
      <trkpt lat="47.41792" lon="6.61564">
        <ele>351.213</ele>
        <time>2015-10-02T09:41:52Z</time>
      </trkpt>
      <trkpt lat="47.4179" lon="6.61569">
        <ele>351.137</ele>
        <time>2015-10-02T09:41:53Z</time>
      </trkpt>
      <trkpt lat="47.41788" lon="6.61573">
        <ele>352.3</ele>
        <time>2015-10-02T09:41:54Z</time>
      </trkpt>
      <trkpt lat="47.41786" lon="6.61578">
        <ele>353.12</ele>
        <time>2015-10-02T09:41:55Z</time>
      </trkpt>
      <trkpt lat="47.41784" lon="6.61582">
        <ele>350.37</ele>
        <time>2015-10-02T09:41:56Z</time>
      </trkpt>
      <trkpt lat="47.41782" lon="6.61587">
        <ele>350.743</ele>
        <time>2015-10-02T09:41:57Z</time>
      </trkpt>
      <trkpt lat="47.41779" lon="6.61592">
        <ele>350.517</ele>
        <time>2015-10-02T09:41:58Z</time>
      </trkpt>
      <trkpt lat="47.41777" lon="6.61598">
        <ele>350.038</ele>
        <time>2015-10-02T09:41:59Z</time>
      </trkpt>
      <trkpt lat="47.41775" lon="6.61603">
        <ele>350.65</ele>
        <time>2015-10-02T09:42:00Z</time>
      </trkpt>
      <trkpt lat="47.41773" lon="6.61609">
        <ele>350.673</ele>
        <time>2015-10-02T09:42:01Z</time>
      </trkpt>
      <trkpt lat="47.41771" lon="6.61615">
        <ele>349.844</ele>
        <time>2015-10-02T09:42:02Z</time>
      </trkpt>
      <trkpt lat="47.41769" lon="6.6162">
        <ele>349.177</ele>
        <time>2015-10-02T09:42:03Z</time>
      </trkpt>
      <trkpt lat="47.41767" lon="6.61625">
        <ele>349.622</ele>
        <time>2015-10-02T09:42:04Z</time>
      </trkpt>
      <trkpt lat="47.41765" lon="6.61631">
        <ele>350.791</ele>
        <time>2015-10-02T09:42:05Z</time>
      </trkpt>
      <trkpt lat="47.41764" lon="6.61636">
        <ele>351.537</ele>
        <time>2015-10-02T09:42:06Z</time>
      </trkpt>
      <trkpt lat="47.41763" lon="6.61642">
        <ele>351.328</ele>
        <time>2015-10-02T09:42:07Z</time>
      </trkpt>
      <trkpt lat="47.41761" lon="6.61647">
        <ele>352.232</ele>
        <time>2015-10-02T09:42:08Z</time>
      </trkpt>
      <trkpt lat="47.4176" lon="6.61653">
        <ele>352.195</ele>
        <time>2015-10-02T09:42:09Z</time>
      </trkpt>
      <trkpt lat="47.41758" lon="6.61658">
        <ele>352.05</ele>
        <time>2015-10-02T09:42:10Z</time>
      </trkpt>
      <trkpt lat="47.41755" lon="6.61662">
        <ele>352.408</ele>
        <time>2015-10-02T09:42:11Z</time>
      </trkpt>
      <trkpt lat="47.41753" lon="6.61665">
        <ele>352.629</ele>
        <time>2015-10-02T09:42:12Z</time>
      </trkpt>
      <trkpt lat="47.4175" lon="6.61668">
        <ele>352.467</ele>
        <time>2015-10-02T09:42:13Z</time>
      </trkpt>
      <trkpt lat="47.41748" lon="6.61672">
        <ele>352.312</ele>
        <time>2015-10-02T09:42:14Z</time>
      </trkpt>
      <trkpt lat="47.41745" lon="6.61675">
        <ele>352.26</ele>
        <time>2015-10-02T09:42:15Z</time>
      </trkpt>
      <trkpt lat="47.41743" lon="6.61679">
        <ele>352.447</ele>
        <time>2015-10-02T09:42:16Z</time>
      </trkpt>
      <trkpt lat="47.41741" lon="6.61683">
        <ele>353.322</ele>
        <time>2015-10-02T09:42:17Z</time>
      </trkpt>
      <trkpt lat="47.41738" lon="6.61686">
        <ele>352.927</ele>
        <time>2015-10-02T09:42:18Z</time>
      </trkpt>
      <trkpt lat="47.41735" lon="6.61688">
        <ele>353.687</ele>
        <time>2015-10-02T09:42:19Z</time>
      </trkpt>
      <trkpt lat="47.41733" lon="6.61691">
        <ele>353.582</ele>
        <time>2015-10-02T09:42:20Z</time>
      </trkpt>
      <trkpt lat="47.4173" lon="6.61694">
        <ele>353.158</ele>
        <time>2015-10-02T09:42:21Z</time>
      </trkpt>
      <trkpt lat="47.41727" lon="6.61696">
        <ele>353.67</ele>
        <time>2015-10-02T09:42:22Z</time>
      </trkpt>
      <trkpt lat="47.41724" lon="6.61699">
        <ele>352.107</ele>
        <time>2015-10-02T09:42:23Z</time>
      </trkpt>
      <trkpt lat="47.41721" lon="6.61701">
        <ele>352.718</ele>
        <time>2015-10-02T09:42:24Z</time>
      </trkpt>
      <trkpt lat="47.41718" lon="6.61704">
        <ele>352.623</ele>
        <time>2015-10-02T09:42:25Z</time>
      </trkpt>
      <trkpt lat="47.41715" lon="6.61706">
        <ele>352.726</ele>
        <time>2015-10-02T09:42:26Z</time>
      </trkpt>
      <trkpt lat="47.41712" lon="6.61709">
        <ele>352.72</ele>
        <time>2015-10-02T09:42:27Z</time>
      </trkpt>
      <trkpt lat="47.41709" lon="6.61712">
        <ele>352.164</ele>
        <time>2015-10-02T09:42:28Z</time>
      </trkpt>
      <trkpt lat="47.41706" lon="6.61714">
        <ele>351.852</ele>
        <time>2015-10-02T09:42:29Z</time>
      </trkpt>
      <trkpt lat="47.41703" lon="6.61716">
        <ele>351.499</ele>
        <time>2015-10-02T09:42:30Z</time>
      </trkpt>
      <trkpt lat="47.41701" lon="6.61718">
        <ele>350.287</ele>
        <time>2015-10-02T09:42:31Z</time>
      </trkpt>
      <trkpt lat="47.41699" lon="6.61721">
        <ele>349.576</ele>
        <time>2015-10-02T09:42:32Z</time>
      </trkpt>
      <trkpt lat="47.41696" lon="6.61723">
        <ele>348.185</ele>
        <time>2015-10-02T09:42:33Z</time>
      </trkpt>
      <trkpt lat="47.41694" lon="6.61725">
        <ele>347.511</ele>
        <time>2015-10-02T09:42:34Z</time>
      </trkpt>
      <trkpt lat="47.41691" lon="6.61727">
        <ele>347.625</ele>
        <time>2015-10-02T09:42:35Z</time>
      </trkpt>
      <trkpt lat="47.41689" lon="6.6173">
        <ele>347.701</ele>
        <time>2015-10-02T09:42:36Z</time>
      </trkpt>
      <trkpt lat="47.41686" lon="6.61732">
        <ele>346.859</ele>
        <time>2015-10-02T09:42:37Z</time>
      </trkpt>
      <trkpt lat="47.41684" lon="6.61734">
        <ele>346.817</ele>
        <time>2015-10-02T09:42:38Z</time>
      </trkpt>
      <trkpt lat="47.41681" lon="6.61736">
        <ele>346.717</ele>
        <time>2015-10-02T09:42:39Z</time>
      </trkpt>
      <trkpt lat="47.41678" lon="6.61738">
        <ele>347.061</ele>
        <time>2015-10-02T09:42:40Z</time>
      </trkpt>
      <trkpt lat="47.41676" lon="6.61741">
        <ele>346.656</ele>
        <time>2015-10-02T09:42:41Z</time>
      </trkpt>
      <trkpt lat="47.41673" lon="6.61743">
        <ele>346.668</ele>
        <time>2015-10-02T09:42:42Z</time>
      </trkpt>
      <trkpt lat="47.41671" lon="6.61745">
        <ele>346.638</ele>
        <time>2015-10-02T09:42:43Z</time>
      </trkpt>
      <trkpt lat="47.41669" lon="6.61747">
        <ele>346.843</ele>
        <time>2015-10-02T09:42:44Z</time>
      </trkpt>
      <trkpt lat="47.41666" lon="6.61749">
        <ele>347.117</ele>
        <time>2015-10-02T09:42:45Z</time>
      </trkpt>
      <trkpt lat="47.41664" lon="6.61751">
        <ele>347.101</ele>
        <time>2015-10-02T09:42:46Z</time>
      </trkpt>
      <trkpt lat="47.41661" lon="6.61754">
        <ele>346.84</ele>
        <time>2015-10-02T09:42:47Z</time>
      </trkpt>
      <trkpt lat="47.41659" lon="6.61756">
        <ele>347.109</ele>
        <time>2015-10-02T09:42:48Z</time>
      </trkpt>
      <trkpt lat="47.41656" lon="6.61759">
        <ele>347.26</ele>
        <time>2015-10-02T09:42:49Z</time>
      </trkpt>
      <trkpt lat="47.41654" lon="6.61762">
        <ele>347.943</ele>
        <time>2015-10-02T09:42:50Z</time>
      </trkpt>
      <trkpt lat="47.41652" lon="6.61765">
        <ele>348.655</ele>
        <time>2015-10-02T09:42:51Z</time>
      </trkpt>
      <trkpt lat="47.4165" lon="6.61767">
        <ele>348.855</ele>
        <time>2015-10-02T09:42:52Z</time>
      </trkpt>
      <trkpt lat="47.41648" lon="6.6177">
        <ele>348.999</ele>
        <time>2015-10-02T09:42:53Z</time>
      </trkpt>
      <trkpt lat="47.41646" lon="6.61774">
        <ele>348.782</ele>
        <time>2015-10-02T09:42:54Z</time>
      </trkpt>
      <trkpt lat="47.41644" lon="6.61777">
        <ele>348.78</ele>
        <time>2015-10-02T09:42:55Z</time>
      </trkpt>
      <trkpt lat="47.41642" lon="6.61781">
        <ele>348.922</ele>
        <time>2015-10-02T09:42:56Z</time>
      </trkpt>
      <trkpt lat="47.41641" lon="6.61784">
        <ele>348.891</ele>
        <time>2015-10-02T09:42:57Z</time>
      </trkpt>
      <trkpt lat="47.41639" lon="6.61788">
        <ele>349.118</ele>
        <time>2015-10-02T09:42:58Z</time>
      </trkpt>
      <trkpt lat="47.41638" lon="6.61792">
        <ele>349.317</ele>
        <time>2015-10-02T09:42:59Z</time>
      </trkpt>
      <trkpt lat="47.41636" lon="6.61795">
        <ele>349.358</ele>
        <time>2015-10-02T09:43:00Z</time>
      </trkpt>
      <trkpt lat="47.41635" lon="6.61799">
        <ele>349.44</ele>
        <time>2015-10-02T09:43:01Z</time>
      </trkpt>
      <trkpt lat="47.41633" lon="6.61803">
        <ele>348.433</ele>
        <time>2015-10-02T09:43:02Z</time>
      </trkpt>
      <trkpt lat="47.41632" lon="6.61807">
        <ele>348.371</ele>
        <time>2015-10-02T09:43:03Z</time>
      </trkpt>
      <trkpt lat="47.4163" lon="6.6181">
        <ele>348.351</ele>
        <time>2015-10-02T09:43:04Z</time>
      </trkpt>
      <trkpt lat="47.41629" lon="6.61814">
        <ele>348.226</ele>
        <time>2015-10-02T09:43:05Z</time>
      </trkpt>
      <trkpt lat="47.41628" lon="6.61818">
        <ele>348.177</ele>
        <time>2015-10-02T09:43:06Z</time>
      </trkpt>
      <trkpt lat="47.41627" lon="6.61822">
        <ele>348.297</ele>
        <time>2015-10-02T09:43:07Z</time>
      </trkpt>
      <trkpt lat="47.41626" lon="6.61826">
        <ele>348.398</ele>
        <time>2015-10-02T09:43:08Z</time>
      </trkpt>
      <trkpt lat="47.41625" lon="6.61829">
        <ele>348.174</ele>
        <time>2015-10-02T09:43:09Z</time>
      </trkpt>
      <trkpt lat="47.41624" lon="6.61834">
        <ele>348.656</ele>
        <time>2015-10-02T09:43:10Z</time>
      </trkpt>
      <trkpt lat="47.41623" lon="6.61837">
        <ele>347.762</ele>
        <time>2015-10-02T09:43:11Z</time>
      </trkpt>
      <trkpt lat="47.41623" lon="6.61842">
        <ele>348.2</ele>
        <time>2015-10-02T09:43:12Z</time>
      </trkpt>
      <trkpt lat="47.41623" lon="6.61846">
        <ele>347.974</ele>
        <time>2015-10-02T09:43:13Z</time>
      </trkpt>
      <trkpt lat="47.41622" lon="6.6185">
        <ele>347.679</ele>
        <time>2015-10-02T09:43:14Z</time>
      </trkpt>
      <trkpt lat="47.41622" lon="6.61855">
        <ele>347.016</ele>
        <time>2015-10-02T09:43:15Z</time>
      </trkpt>
      <trkpt lat="47.41622" lon="6.61859">
        <ele>346.888</ele>
        <time>2015-10-02T09:43:16Z</time>
      </trkpt>
      <trkpt lat="47.41622" lon="6.61864">
        <ele>347.312</ele>
        <time>2015-10-02T09:43:17Z</time>
      </trkpt>
      <trkpt lat="47.41622" lon="6.61868">
        <ele>347.034</ele>
        <time>2015-10-02T09:43:18Z</time>
      </trkpt>
      <trkpt lat="47.41622" lon="6.61873">
        <ele>346.849</ele>
        <time>2015-10-02T09:43:19Z</time>
      </trkpt>
      <trkpt lat="47.41622" lon="6.61877">
        <ele>346.884</ele>
        <time>2015-10-02T09:43:20Z</time>
      </trkpt>
      <trkpt lat="47.41623" lon="6.61881">
        <ele>347.018</ele>
        <time>2015-10-02T09:43:21Z</time>
      </trkpt>
      <trkpt lat="47.41623" lon="6.61886">
        <ele>346.617</ele>
        <time>2015-10-02T09:43:22Z</time>
      </trkpt>
      <trkpt lat="47.41623" lon="6.6189">
        <ele>347.412</ele>
        <time>2015-10-02T09:43:23Z</time>
      </trkpt>
      <trkpt lat="47.41624" lon="6.61894">
        <ele>347.561</ele>
        <time>2015-10-02T09:43:24Z</time>
      </trkpt>
      <trkpt lat="47.41624" lon="6.61899">
        <ele>348.25</ele>
        <time>2015-10-02T09:43:25Z</time>
      </trkpt>
      <trkpt lat="47.41625" lon="6.61903">
        <ele>348.303</ele>
        <time>2015-10-02T09:43:26Z</time>
      </trkpt>
      <trkpt lat="47.41625" lon="6.61908">
        <ele>348.753</ele>
        <time>2015-10-02T09:43:27Z</time>
      </trkpt>
      <trkpt lat="47.41626" lon="6.61912">
        <ele>349.235</ele>
        <time>2015-10-02T09:43:28Z</time>
      </trkpt>
      <trkpt lat="47.41627" lon="6.61916">
        <ele>349.161</ele>
        <time>2015-10-02T09:43:29Z</time>
      </trkpt>
      <trkpt lat="47.41627" lon="6.6192">
        <ele>349.425</ele>
        <time>2015-10-02T09:43:30Z</time>
      </trkpt>
      <trkpt lat="47.41628" lon="6.61923">
        <ele>349.372</ele>
        <time>2015-10-02T09:43:31Z</time>
      </trkpt>
      <trkpt lat="47.41628" lon="6.61927">
        <ele>349.477</ele>
        <time>2015-10-02T09:43:32Z</time>
      </trkpt>
      <trkpt lat="47.41629" lon="6.61931">
        <ele>349.527</ele>
        <time>2015-10-02T09:43:33Z</time>
      </trkpt>
      <trkpt lat="47.41629" lon="6.61935">
        <ele>350.275</ele>
        <time>2015-10-02T09:43:34Z</time>
      </trkpt>
      <trkpt lat="47.4163" lon="6.61939">
        <ele>350.188</ele>
        <time>2015-10-02T09:43:35Z</time>
      </trkpt>
      <trkpt lat="47.4163" lon="6.61942">
        <ele>350.534</ele>
        <time>2015-10-02T09:43:36Z</time>
      </trkpt>
      <trkpt lat="47.41631" lon="6.61946">
        <ele>350.885</ele>
        <time>2015-10-02T09:43:37Z</time>
      </trkpt>
      <trkpt lat="47.41631" lon="6.6195">
        <ele>350.508</ele>
        <time>2015-10-02T09:43:38Z</time>
      </trkpt>
      <trkpt lat="47.41631" lon="6.61953">
        <ele>350.274</ele>
        <time>2015-10-02T09:43:39Z</time>
      </trkpt>
      <trkpt lat="47.41632" lon="6.61956">
        <ele>350.302</ele>
        <time>2015-10-02T09:43:40Z</time>
      </trkpt>
      <trkpt lat="47.41632" lon="6.6196">
        <ele>350.355</ele>
        <time>2015-10-02T09:43:41Z</time>
      </trkpt>
      <trkpt lat="47.41633" lon="6.61963">
        <ele>350.117</ele>
        <time>2015-10-02T09:43:42Z</time>
      </trkpt>
      <trkpt lat="47.41633" lon="6.61967">
        <ele>349.871</ele>
        <time>2015-10-02T09:43:43Z</time>
      </trkpt>
      <trkpt lat="47.41633" lon="6.6197">
        <ele>349.231</ele>
        <time>2015-10-02T09:43:44Z</time>
      </trkpt>
      <trkpt lat="47.41634" lon="6.61974">
        <ele>349.241</ele>
        <time>2015-10-02T09:43:45Z</time>
      </trkpt>
      <trkpt lat="47.41634" lon="6.61977">
        <ele>349.054</ele>
        <time>2015-10-02T09:43:46Z</time>
      </trkpt>
      <trkpt lat="47.41634" lon="6.6198">
        <ele>349.663</ele>
        <time>2015-10-02T09:43:47Z</time>
      </trkpt>
      <trkpt lat="47.41635" lon="6.61984">
        <ele>350.128</ele>
        <time>2015-10-02T09:43:48Z</time>
      </trkpt>
      <trkpt lat="47.41635" lon="6.61988">
        <ele>349.875</ele>
        <time>2015-10-02T09:43:49Z</time>
      </trkpt>
      <trkpt lat="47.41635" lon="6.61992">
        <ele>349.955</ele>
        <time>2015-10-02T09:43:50Z</time>
      </trkpt>
      <trkpt lat="47.41636" lon="6.61996">
        <ele>350.375</ele>
        <time>2015-10-02T09:43:51Z</time>
      </trkpt>
      <trkpt lat="47.41636" lon="6.61999">
        <ele>351.107</ele>
        <time>2015-10-02T09:43:52Z</time>
      </trkpt>
      <trkpt lat="47.41636" lon="6.62003">
        <ele>351.334</ele>
        <time>2015-10-02T09:43:53Z</time>
      </trkpt>
      <trkpt lat="47.41637" lon="6.62007">
        <ele>351.584</ele>
        <time>2015-10-02T09:43:54Z</time>
      </trkpt>
      <trkpt lat="47.41637" lon="6.62011">
        <ele>351.165</ele>
        <time>2015-10-02T09:43:55Z</time>
      </trkpt>
      <trkpt lat="47.41638" lon="6.62015">
        <ele>351.203</ele>
        <time>2015-10-02T09:43:56Z</time>
      </trkpt>
      <trkpt lat="47.41639" lon="6.62018">
        <ele>351.363</ele>
        <time>2015-10-02T09:43:57Z</time>
      </trkpt>
      <trkpt lat="47.41639" lon="6.62022">
        <ele>351.48</ele>
        <time>2015-10-02T09:43:58Z</time>
      </trkpt>
      <trkpt lat="47.4164" lon="6.62025">
        <ele>351.259</ele>
        <time>2015-10-02T09:43:59Z</time>
      </trkpt>
      <trkpt lat="47.4164" lon="6.62029">
        <ele>350.808</ele>
        <time>2015-10-02T09:44:00Z</time>
      </trkpt>
      <trkpt lat="47.41641" lon="6.62032">
        <ele>351.318</ele>
        <time>2015-10-02T09:44:01Z</time>
      </trkpt>
      <trkpt lat="47.41641" lon="6.62036">
        <ele>351.321</ele>
        <time>2015-10-02T09:44:02Z</time>
      </trkpt>
      <trkpt lat="47.41642" lon="6.6204">
        <ele>351.156</ele>
        <time>2015-10-02T09:44:03Z</time>
      </trkpt>
      <trkpt lat="47.41642" lon="6.62044">
        <ele>351.132</ele>
        <time>2015-10-02T09:44:04Z</time>
      </trkpt>
      <trkpt lat="47.41643" lon="6.62047">
        <ele>351.925</ele>
        <time>2015-10-02T09:44:05Z</time>
      </trkpt>
      <trkpt lat="47.41643" lon="6.62051">
        <ele>352.855</ele>
        <time>2015-10-02T09:44:06Z</time>
      </trkpt>
      <trkpt lat="47.41643" lon="6.62054">
        <ele>350.859</ele>
        <time>2015-10-02T09:44:07Z</time>
      </trkpt>
      <trkpt lat="47.41643" lon="6.62057">
        <ele>351.218</ele>
        <time>2015-10-02T09:44:08Z</time>
      </trkpt>
      <trkpt lat="47.41643" lon="6.6206">
        <ele>351.642</ele>
        <time>2015-10-02T09:44:09Z</time>
      </trkpt>
      <trkpt lat="47.41643" lon="6.62063">
        <ele>351.614</ele>
        <time>2015-10-02T09:44:10Z</time>
      </trkpt>
      <trkpt lat="47.41644" lon="6.62066">
        <ele>352.114</ele>
        <time>2015-10-02T09:44:11Z</time>
      </trkpt>
      <trkpt lat="47.41644" lon="6.6207">
        <ele>352.32</ele>
        <time>2015-10-02T09:44:12Z</time>
      </trkpt>
      <trkpt lat="47.41645" lon="6.62073">
        <ele>354.145</ele>
        <time>2015-10-02T09:44:13Z</time>
      </trkpt>
      <trkpt lat="47.41645" lon="6.62077">
        <ele>355.758</ele>
        <time>2015-10-02T09:44:14Z</time>
      </trkpt>
      <trkpt lat="47.41646" lon="6.6208">
        <ele>355.988</ele>
        <time>2015-10-02T09:44:15Z</time>
      </trkpt>
      <trkpt lat="47.41647" lon="6.62084">
        <ele>356.41</ele>
        <time>2015-10-02T09:44:16Z</time>
      </trkpt>
      <trkpt lat="47.41647" lon="6.62088">
        <ele>356.54</ele>
        <time>2015-10-02T09:44:17Z</time>
      </trkpt>
      <trkpt lat="47.41647" lon="6.62092">
        <ele>356.552</ele>
        <time>2015-10-02T09:44:18Z</time>
      </trkpt>
      <trkpt lat="47.41648" lon="6.62096">
        <ele>357.275</ele>
        <time>2015-10-02T09:44:19Z</time>
      </trkpt>
      <trkpt lat="47.41648" lon="6.621">
        <ele>358.506</ele>
        <time>2015-10-02T09:44:20Z</time>
      </trkpt>
      <trkpt lat="47.41649" lon="6.62104">
        <ele>357.89</ele>
        <time>2015-10-02T09:44:21Z</time>
      </trkpt>
      <trkpt lat="47.4165" lon="6.62109">
        <ele>357.725</ele>
        <time>2015-10-02T09:44:22Z</time>
      </trkpt>
      <trkpt lat="47.4165" lon="6.62112">
        <ele>356.104</ele>
        <time>2015-10-02T09:44:23Z</time>
      </trkpt>
      <trkpt lat="47.4165" lon="6.62116">
        <ele>357.065</ele>
        <time>2015-10-02T09:44:24Z</time>
      </trkpt>
      <trkpt lat="47.41651" lon="6.6212">
        <ele>357.242</ele>
        <time>2015-10-02T09:44:25Z</time>
      </trkpt>
      <trkpt lat="47.41651" lon="6.62125">
        <ele>357.086</ele>
        <time>2015-10-02T09:44:26Z</time>
      </trkpt>
      <trkpt lat="47.41651" lon="6.62129">
        <ele>356.976</ele>
        <time>2015-10-02T09:44:27Z</time>
      </trkpt>
      <trkpt lat="47.41652" lon="6.62134">
        <ele>356.357</ele>
        <time>2015-10-02T09:44:28Z</time>
      </trkpt>
      <trkpt lat="47.41653" lon="6.62138">
        <ele>356.758</ele>
        <time>2015-10-02T09:44:29Z</time>
      </trkpt>
      <trkpt lat="47.41653" lon="6.62142">
        <ele>357.3</ele>
        <time>2015-10-02T09:44:30Z</time>
      </trkpt>
      <trkpt lat="47.41654" lon="6.62146">
        <ele>357.073</ele>
        <time>2015-10-02T09:44:31Z</time>
      </trkpt>
      <trkpt lat="47.41654" lon="6.62151">
        <ele>356.766</ele>
        <time>2015-10-02T09:44:32Z</time>
      </trkpt>
      <trkpt lat="47.41654" lon="6.62155">
        <ele>357.062</ele>
        <time>2015-10-02T09:44:33Z</time>
      </trkpt>
      <trkpt lat="47.41654" lon="6.62159">
        <ele>356.576</ele>
        <time>2015-10-02T09:44:34Z</time>
      </trkpt>
      <trkpt lat="47.41655" lon="6.62164">
        <ele>357.207</ele>
        <time>2015-10-02T09:44:35Z</time>
      </trkpt>
      <trkpt lat="47.41655" lon="6.62168">
        <ele>356.37</ele>
        <time>2015-10-02T09:44:36Z</time>
      </trkpt>
      <trkpt lat="47.41655" lon="6.62173">
        <ele>356.264</ele>
        <time>2015-10-02T09:44:37Z</time>
      </trkpt>
      <trkpt lat="47.41655" lon="6.62177">
        <ele>356.542</ele>
        <time>2015-10-02T09:44:38Z</time>
      </trkpt>
      <trkpt lat="47.41655" lon="6.62181">
        <ele>356.244</ele>
        <time>2015-10-02T09:44:39Z</time>
      </trkpt>
      <trkpt lat="47.41656" lon="6.62185">
        <ele>357.328</ele>
        <time>2015-10-02T09:44:40Z</time>
      </trkpt>
      <trkpt lat="47.41656" lon="6.6219">
        <ele>357.932</ele>
        <time>2015-10-02T09:44:41Z</time>
      </trkpt>
      <trkpt lat="47.41657" lon="6.62194">
        <ele>357.945</ele>
        <time>2015-10-02T09:44:42Z</time>
      </trkpt>
      <trkpt lat="47.41657" lon="6.62199">
        <ele>358.332</ele>
        <time>2015-10-02T09:44:43Z</time>
      </trkpt>
      <trkpt lat="47.41657" lon="6.62203">
        <ele>359.396</ele>
        <time>2015-10-02T09:44:44Z</time>
      </trkpt>
      <trkpt lat="47.41657" lon="6.62208">
        <ele>359.686</ele>
        <time>2015-10-02T09:44:45Z</time>
      </trkpt>
      <trkpt lat="47.41656" lon="6.62212">
        <ele>360.096</ele>
        <time>2015-10-02T09:44:46Z</time>
      </trkpt>
      <trkpt lat="47.41656" lon="6.62217">
        <ele>359.662</ele>
        <time>2015-10-02T09:44:47Z</time>
      </trkpt>
      <trkpt lat="47.41655" lon="6.62221">
        <ele>359.497</ele>
        <time>2015-10-02T09:44:48Z</time>
      </trkpt>
      <trkpt lat="47.41654" lon="6.62225">
        <ele>359.152</ele>
        <time>2015-10-02T09:44:49Z</time>
      </trkpt>
      <trkpt lat="47.41653" lon="6.62229">
        <ele>359.017</ele>
        <time>2015-10-02T09:44:50Z</time>
      </trkpt>
      <trkpt lat="47.41652" lon="6.62233">
        <ele>358.679</ele>
        <time>2015-10-02T09:44:51Z</time>
      </trkpt>
      <trkpt lat="47.41651" lon="6.62237">
        <ele>358.709</ele>
        <time>2015-10-02T09:44:52Z</time>
      </trkpt>
      <trkpt lat="47.4165" lon="6.62241">
        <ele>358.783</ele>
        <time>2015-10-02T09:44:53Z</time>
      </trkpt>
      <trkpt lat="47.41649" lon="6.62245">
        <ele>359.681</ele>
        <time>2015-10-02T09:44:54Z</time>
      </trkpt>
      <trkpt lat="47.41648" lon="6.62249">
        <ele>359.833</ele>
        <time>2015-10-02T09:44:55Z</time>
      </trkpt>
      <trkpt lat="47.41646" lon="6.62253">
        <ele>360.019</ele>
        <time>2015-10-02T09:44:56Z</time>
      </trkpt>
      <trkpt lat="47.41645" lon="6.62257">
        <ele>360.242</ele>
        <time>2015-10-02T09:44:57Z</time>
      </trkpt>
      <trkpt lat="47.41644" lon="6.62261">
        <ele>360.651</ele>
        <time>2015-10-02T09:44:58Z</time>
      </trkpt>
      <trkpt lat="47.41643" lon="6.62265">
        <ele>360.361</ele>
        <time>2015-10-02T09:44:59Z</time>
      </trkpt>
      <trkpt lat="47.41643" lon="6.62267">
        <ele>360.869</ele>
        <time>2015-10-02T09:45:00Z</time>
      </trkpt>
      <trkpt lat="47.41642" lon="6.62271">
        <ele>362.033</ele>
        <time>2015-10-02T09:45:01Z</time>
      </trkpt>
      <trkpt lat="47.41642" lon="6.62275">
        <ele>361.967</ele>
        <time>2015-10-02T09:45:02Z</time>
      </trkpt>
      <trkpt lat="47.41642" lon="6.6228">
        <ele>361.468</ele>
        <time>2015-10-02T09:45:03Z</time>
      </trkpt>
      <trkpt lat="47.41641" lon="6.62284">
        <ele>361.515</ele>
        <time>2015-10-02T09:45:04Z</time>
      </trkpt>
      <trkpt lat="47.41641" lon="6.62288">
        <ele>361.923</ele>
        <time>2015-10-02T09:45:05Z</time>
      </trkpt>
      <trkpt lat="47.4164" lon="6.62292">
        <ele>362.159</ele>
        <time>2015-10-02T09:45:06Z</time>
      </trkpt>
      <trkpt lat="47.41639" lon="6.62295">
        <ele>361.254</ele>
        <time>2015-10-02T09:45:07Z</time>
      </trkpt>
      <trkpt lat="47.41637" lon="6.62299">
        <ele>361.226</ele>
        <time>2015-10-02T09:45:08Z</time>
      </trkpt>
      <trkpt lat="47.41636" lon="6.62303">
        <ele>360.499</ele>
        <time>2015-10-02T09:45:09Z</time>
      </trkpt>
      <trkpt lat="47.41635" lon="6.62307">
        <ele>359.489</ele>
        <time>2015-10-02T09:45:10Z</time>
      </trkpt>
      <trkpt lat="47.41634" lon="6.6231">
        <ele>358.835</ele>
        <time>2015-10-02T09:45:11Z</time>
      </trkpt>
      <trkpt lat="47.41633" lon="6.62315">
        <ele>357.939</ele>
        <time>2015-10-02T09:45:12Z</time>
      </trkpt>
      <trkpt lat="47.41633" lon="6.6232">
        <ele>357.977</ele>
        <time>2015-10-02T09:45:13Z</time>
      </trkpt>
      <trkpt lat="47.41632" lon="6.62323">
        <ele>357.82</ele>
        <time>2015-10-02T09:45:14Z</time>
      </trkpt>
      <trkpt lat="47.41631" lon="6.62327">
        <ele>358.334</ele>
        <time>2015-10-02T09:45:15Z</time>
      </trkpt>
      <trkpt lat="47.4163" lon="6.62331">
        <ele>357.8</ele>
        <time>2015-10-02T09:45:16Z</time>
      </trkpt>
      <trkpt lat="47.41629" lon="6.62336">
        <ele>357.37</ele>
        <time>2015-10-02T09:45:17Z</time>
      </trkpt>
      <trkpt lat="47.41627" lon="6.62341">
        <ele>356.021</ele>
        <time>2015-10-02T09:45:18Z</time>
      </trkpt>
      <trkpt lat="47.41626" lon="6.62346">
        <ele>356.266</ele>
        <time>2015-10-02T09:45:19Z</time>
      </trkpt>
      <trkpt lat="47.41625" lon="6.62352">
        <ele>356.073</ele>
        <time>2015-10-02T09:45:20Z</time>
      </trkpt>
      <trkpt lat="47.41624" lon="6.62357">
        <ele>356.224</ele>
        <time>2015-10-02T09:45:21Z</time>
      </trkpt>
      <trkpt lat="47.41623" lon="6.62363">
        <ele>356.049</ele>
        <time>2015-10-02T09:45:22Z</time>
      </trkpt>
      <trkpt lat="47.41621" lon="6.62368">
        <ele>356.412</ele>
        <time>2015-10-02T09:45:23Z</time>
      </trkpt>
      <trkpt lat="47.41619" lon="6.62373">
        <ele>356.682</ele>
        <time>2015-10-02T09:45:24Z</time>
      </trkpt>
      <trkpt lat="47.41617" lon="6.62377">
        <ele>357.128</ele>
        <time>2015-10-02T09:45:25Z</time>
      </trkpt>
      <trkpt lat="47.41615" lon="6.62382">
        <ele>357.349</ele>
        <time>2015-10-02T09:45:26Z</time>
      </trkpt>
      <trkpt lat="47.41613" lon="6.62385">
        <ele>358.668</ele>
        <time>2015-10-02T09:45:27Z</time>
      </trkpt>
      <trkpt lat="47.41612" lon="6.62388">
        <ele>358.955</ele>
        <time>2015-10-02T09:45:28Z</time>
      </trkpt>
      <trkpt lat="47.41611" lon="6.62391">
        <ele>359.734</ele>
        <time>2015-10-02T09:45:29Z</time>
      </trkpt>
      <trkpt lat="47.41609" lon="6.62393">
        <ele>359.76</ele>
        <time>2015-10-02T09:45:30Z</time>
      </trkpt>
      <trkpt lat="47.41607" lon="6.62396">
        <ele>360.773</ele>
        <time>2015-10-02T09:45:31Z</time>
      </trkpt>
      <trkpt lat="47.41605" lon="6.62398">
        <ele>361.325</ele>
        <time>2015-10-02T09:45:32Z</time>
      </trkpt>
      <trkpt lat="47.41603" lon="6.624">
        <ele>362.323</ele>
        <time>2015-10-02T09:45:33Z</time>
      </trkpt>
      <trkpt lat="47.41602" lon="6.62402">
        <ele>363.449</ele>
        <time>2015-10-02T09:45:34Z</time>
      </trkpt>
      <trkpt lat="47.416" lon="6.62405">
        <ele>363.869</ele>
        <time>2015-10-02T09:45:35Z</time>
      </trkpt>
      <trkpt lat="47.41598" lon="6.62408">
        <ele>364.046</ele>
        <time>2015-10-02T09:45:36Z</time>
      </trkpt>
      <trkpt lat="47.41596" lon="6.6241">
        <ele>364.17</ele>
        <time>2015-10-02T09:45:37Z</time>
      </trkpt>
      <trkpt lat="47.41594" lon="6.62412">
        <ele>364.504</ele>
        <time>2015-10-02T09:45:38Z</time>
      </trkpt>
      <trkpt lat="47.41591" lon="6.62414">
        <ele>365.353</ele>
        <time>2015-10-02T09:45:39Z</time>
      </trkpt>
      <trkpt lat="47.41589" lon="6.62417">
        <ele>366.412</ele>
        <time>2015-10-02T09:45:40Z</time>
      </trkpt>
      <trkpt lat="47.41586" lon="6.6242">
        <ele>366.638</ele>
        <time>2015-10-02T09:45:41Z</time>
      </trkpt>
      <trkpt lat="47.41584" lon="6.62422">
        <ele>366.696</ele>
        <time>2015-10-02T09:45:42Z</time>
      </trkpt>
      <trkpt lat="47.41581" lon="6.62425">
        <ele>366.705</ele>
        <time>2015-10-02T09:45:43Z</time>
      </trkpt>
      <trkpt lat="47.41578" lon="6.62428">
        <ele>365.727</ele>
        <time>2015-10-02T09:45:44Z</time>
      </trkpt>
      <trkpt lat="47.41575" lon="6.62431">
        <ele>365.752</ele>
        <time>2015-10-02T09:45:45Z</time>
      </trkpt>
      <trkpt lat="47.41572" lon="6.62433">
        <ele>365.384</ele>
        <time>2015-10-02T09:45:46Z</time>
      </trkpt>
      <trkpt lat="47.41568" lon="6.62436">
        <ele>364.763</ele>
        <time>2015-10-02T09:45:47Z</time>
      </trkpt>
      <trkpt lat="47.41565" lon="6.62438">
        <ele>363.91</ele>
        <time>2015-10-02T09:45:48Z</time>
      </trkpt>
      <trkpt lat="47.41562" lon="6.62439">
        <ele>363.689</ele>
        <time>2015-10-02T09:45:49Z</time>
      </trkpt>
      <trkpt lat="47.41559" lon="6.62441">
        <ele>363.621</ele>
        <time>2015-10-02T09:45:50Z</time>
      </trkpt>
      <trkpt lat="47.41556" lon="6.62441">
        <ele>363.061</ele>
        <time>2015-10-02T09:45:51Z</time>
      </trkpt>
      <trkpt lat="47.41552" lon="6.62441">
        <ele>362.07</ele>
        <time>2015-10-02T09:45:52Z</time>
      </trkpt>
      <trkpt lat="47.41549" lon="6.62441">
        <ele>361.363</ele>
        <time>2015-10-02T09:45:53Z</time>
      </trkpt>
      <trkpt lat="47.41546" lon="6.62439">
        <ele>361.191</ele>
        <time>2015-10-02T09:45:54Z</time>
      </trkpt>
      <trkpt lat="47.41543" lon="6.62438">
        <ele>361.133</ele>
        <time>2015-10-02T09:45:55Z</time>
      </trkpt>
      <trkpt lat="47.4154" lon="6.62436">
        <ele>361.519</ele>
        <time>2015-10-02T09:45:56Z</time>
      </trkpt>
      <trkpt lat="47.41538" lon="6.62433">
        <ele>361.315</ele>
        <time>2015-10-02T09:45:57Z</time>
      </trkpt>
      <trkpt lat="47.41535" lon="6.6243">
        <ele>361.382</ele>
        <time>2015-10-02T09:45:58Z</time>
      </trkpt>
      <trkpt lat="47.41533" lon="6.62427">
        <ele>362.089</ele>
        <time>2015-10-02T09:45:59Z</time>
      </trkpt>
      <trkpt lat="47.41531" lon="6.62424">
        <ele>362.666</ele>
        <time>2015-10-02T09:46:00Z</time>
      </trkpt>
      <trkpt lat="47.41529" lon="6.62421">
        <ele>362.909</ele>
        <time>2015-10-02T09:46:01Z</time>
      </trkpt>
      <trkpt lat="47.41528" lon="6.62417">
        <ele>362.982</ele>
        <time>2015-10-02T09:46:02Z</time>
      </trkpt>
      <trkpt lat="47.41527" lon="6.62414">
        <ele>363.155</ele>
        <time>2015-10-02T09:46:03Z</time>
      </trkpt>
      <trkpt lat="47.41525" lon="6.6241">
        <ele>363.121</ele>
        <time>2015-10-02T09:46:04Z</time>
      </trkpt>
      <trkpt lat="47.41524" lon="6.62406">
        <ele>363.348</ele>
        <time>2015-10-02T09:46:05Z</time>
      </trkpt>
      <trkpt lat="47.41523" lon="6.62403">
        <ele>363.376</ele>
        <time>2015-10-02T09:46:06Z</time>
      </trkpt>
      <trkpt lat="47.41522" lon="6.62399">
        <ele>363.408</ele>
        <time>2015-10-02T09:46:07Z</time>
      </trkpt>
      <trkpt lat="47.41521" lon="6.62396">
        <ele>363.548</ele>
        <time>2015-10-02T09:46:08Z</time>
      </trkpt>
      <trkpt lat="47.41519" lon="6.62392">
        <ele>363.326</ele>
        <time>2015-10-02T09:46:09Z</time>
      </trkpt>
      <trkpt lat="47.41518" lon="6.62389">
        <ele>363.178</ele>
        <time>2015-10-02T09:46:10Z</time>
      </trkpt>
      <trkpt lat="47.41516" lon="6.62385">
        <ele>363.537</ele>
        <time>2015-10-02T09:46:11Z</time>
      </trkpt>
      <trkpt lat="47.41515" lon="6.62382">
        <ele>363.865</ele>
        <time>2015-10-02T09:46:12Z</time>
      </trkpt>
      <trkpt lat="47.41514" lon="6.62378">
        <ele>363.982</ele>
        <time>2015-10-02T09:46:13Z</time>
      </trkpt>
      <trkpt lat="47.41513" lon="6.62375">
        <ele>363.755</ele>
        <time>2015-10-02T09:46:14Z</time>
      </trkpt>
      <trkpt lat="47.41511" lon="6.62371">
        <ele>363.781</ele>
        <time>2015-10-02T09:46:15Z</time>
      </trkpt>
      <trkpt lat="47.4151" lon="6.62368">
        <ele>363.916</ele>
        <time>2015-10-02T09:46:16Z</time>
      </trkpt>
      <trkpt lat="47.41508" lon="6.62364">
        <ele>363.708</ele>
        <time>2015-10-02T09:46:17Z</time>
      </trkpt>
      <trkpt lat="47.41507" lon="6.62361">
        <ele>363.715</ele>
        <time>2015-10-02T09:46:18Z</time>
      </trkpt>
      <trkpt lat="47.41505" lon="6.62358">
        <ele>363.727</ele>
        <time>2015-10-02T09:46:19Z</time>
      </trkpt>
      <trkpt lat="47.41503" lon="6.62354">
        <ele>363.87</ele>
        <time>2015-10-02T09:46:20Z</time>
      </trkpt>
      <trkpt lat="47.41502" lon="6.62351">
        <ele>363.84</ele>
        <time>2015-10-02T09:46:21Z</time>
      </trkpt>
      <trkpt lat="47.415" lon="6.62347">
        <ele>363.787</ele>
        <time>2015-10-02T09:46:22Z</time>
      </trkpt>
      <trkpt lat="47.41499" lon="6.62344">
        <ele>363.839</ele>
        <time>2015-10-02T09:46:23Z</time>
      </trkpt>
      <trkpt lat="47.41497" lon="6.6234">
        <ele>363.886</ele>
        <time>2015-10-02T09:46:24Z</time>
      </trkpt>
      <trkpt lat="47.41496" lon="6.62337">
        <ele>364.003</ele>
        <time>2015-10-02T09:46:25Z</time>
      </trkpt>
      <trkpt lat="47.41494" lon="6.62334">
        <ele>364.303</ele>
        <time>2015-10-02T09:46:26Z</time>
      </trkpt>
      <trkpt lat="47.41492" lon="6.62331">
        <ele>364.591</ele>
        <time>2015-10-02T09:46:27Z</time>
      </trkpt>
      <trkpt lat="47.4149" lon="6.62328">
        <ele>364.928</ele>
        <time>2015-10-02T09:46:28Z</time>
      </trkpt>
      <trkpt lat="47.41488" lon="6.62325">
        <ele>365.099</ele>
        <time>2015-10-02T09:46:29Z</time>
      </trkpt>
      <trkpt lat="47.41486" lon="6.62322">
        <ele>365.521</ele>
        <time>2015-10-02T09:46:30Z</time>
      </trkpt>
      <trkpt lat="47.41484" lon="6.6232">
        <ele>365.57</ele>
        <time>2015-10-02T09:46:31Z</time>
      </trkpt>
      <trkpt lat="47.41482" lon="6.62317">
        <ele>366.089</ele>
        <time>2015-10-02T09:46:32Z</time>
      </trkpt>
      <trkpt lat="47.4148" lon="6.62314">
        <ele>367.06</ele>
        <time>2015-10-02T09:46:33Z</time>
      </trkpt>
      <trkpt lat="47.41478" lon="6.62312">
        <ele>367.367</ele>
        <time>2015-10-02T09:46:34Z</time>
      </trkpt>
      <trkpt lat="47.41476" lon="6.62309">
        <ele>367.86</ele>
        <time>2015-10-02T09:46:35Z</time>
      </trkpt>
      <trkpt lat="47.41474" lon="6.62307">
        <ele>368.071</ele>
        <time>2015-10-02T09:46:36Z</time>
      </trkpt>
      <trkpt lat="47.41472" lon="6.62304">
        <ele>368.16</ele>
        <time>2015-10-02T09:46:37Z</time>
      </trkpt>
      <trkpt lat="47.4147" lon="6.62302">
        <ele>368.385</ele>
        <time>2015-10-02T09:46:38Z</time>
      </trkpt>
      <trkpt lat="47.41468" lon="6.623">
        <ele>368.574</ele>
        <time>2015-10-02T09:46:39Z</time>
      </trkpt>
      <trkpt lat="47.41466" lon="6.62297">
        <ele>369.001</ele>
        <time>2015-10-02T09:46:40Z</time>
      </trkpt>
      <trkpt lat="47.41464" lon="6.62295">
        <ele>369.612</ele>
        <time>2015-10-02T09:46:41Z</time>
      </trkpt>
      <trkpt lat="47.41462" lon="6.62292">
        <ele>369.948</ele>
        <time>2015-10-02T09:46:42Z</time>
      </trkpt>
      <trkpt lat="47.4146" lon="6.6229">
        <ele>370.314</ele>
        <time>2015-10-02T09:46:43Z</time>
      </trkpt>
      <trkpt lat="47.41458" lon="6.62288">
        <ele>370.606</ele>
        <time>2015-10-02T09:46:44Z</time>
      </trkpt>
      <trkpt lat="47.41455" lon="6.62285">
        <ele>371.38</ele>
        <time>2015-10-02T09:46:45Z</time>
      </trkpt>
      <trkpt lat="47.41454" lon="6.62283">
        <ele>371.868</ele>
        <time>2015-10-02T09:46:46Z</time>
      </trkpt>
      <trkpt lat="47.41452" lon="6.6228">
        <ele>372.074</ele>
        <time>2015-10-02T09:46:47Z</time>
      </trkpt>
      <trkpt lat="47.4145" lon="6.62277">
        <ele>372.518</ele>
        <time>2015-10-02T09:46:48Z</time>
      </trkpt>
      <trkpt lat="47.41448" lon="6.62274">
        <ele>372.62</ele>
        <time>2015-10-02T09:46:49Z</time>
      </trkpt>
      <trkpt lat="47.41445" lon="6.62272">
        <ele>372.533</ele>
        <time>2015-10-02T09:46:50Z</time>
      </trkpt>
      <trkpt lat="47.41443" lon="6.62269">
        <ele>372.73</ele>
        <time>2015-10-02T09:46:51Z</time>
      </trkpt>
      <trkpt lat="47.4144" lon="6.62267">
        <ele>372.492</ele>
        <time>2015-10-02T09:46:52Z</time>
      </trkpt>
      <trkpt lat="47.41438" lon="6.62265">
        <ele>372.511</ele>
        <time>2015-10-02T09:46:53Z</time>
      </trkpt>
      <trkpt lat="47.41436" lon="6.62263">
        <ele>372.634</ele>
        <time>2015-10-02T09:46:54Z</time>
      </trkpt>
      <trkpt lat="47.41433" lon="6.62261">
        <ele>372.982</ele>
        <time>2015-10-02T09:46:55Z</time>
      </trkpt>
      <trkpt lat="47.41431" lon="6.62259">
        <ele>372.847</ele>
        <time>2015-10-02T09:46:56Z</time>
      </trkpt>
      <trkpt lat="47.41429" lon="6.62257">
        <ele>372.732</ele>
        <time>2015-10-02T09:46:57Z</time>
      </trkpt>
      <trkpt lat="47.41427" lon="6.62254">
        <ele>373.335</ele>
        <time>2015-10-02T09:46:58Z</time>
      </trkpt>
      <trkpt lat="47.41425" lon="6.62252">
        <ele>373.315</ele>
        <time>2015-10-02T09:46:59Z</time>
      </trkpt>
      <trkpt lat="47.41423" lon="6.62249">
        <ele>373.427</ele>
        <time>2015-10-02T09:47:00Z</time>
      </trkpt>
      <trkpt lat="47.41421" lon="6.62247">
        <ele>373.173</ele>
        <time>2015-10-02T09:47:01Z</time>
      </trkpt>
      <trkpt lat="47.41418" lon="6.62245">
        <ele>373.285</ele>
        <time>2015-10-02T09:47:02Z</time>
      </trkpt>
      <trkpt lat="47.41416" lon="6.62243">
        <ele>373.585</ele>
        <time>2015-10-02T09:47:03Z</time>
      </trkpt>
      <trkpt lat="47.41414" lon="6.62241">
        <ele>373.512</ele>
        <time>2015-10-02T09:47:04Z</time>
      </trkpt>
      <trkpt lat="47.41411" lon="6.62239">
        <ele>373.627</ele>
        <time>2015-10-02T09:47:05Z</time>
      </trkpt>
      <trkpt lat="47.41409" lon="6.62238">
        <ele>373.883</ele>
        <time>2015-10-02T09:47:06Z</time>
      </trkpt>
      <trkpt lat="47.41406" lon="6.62236">
        <ele>373.352</ele>
        <time>2015-10-02T09:47:07Z</time>
      </trkpt>
      <trkpt lat="47.41404" lon="6.62235">
        <ele>373.572</ele>
        <time>2015-10-02T09:47:08Z</time>
      </trkpt>
      <trkpt lat="47.41402" lon="6.62234">
        <ele>373.698</ele>
        <time>2015-10-02T09:47:09Z</time>
      </trkpt>
      <trkpt lat="47.41399" lon="6.62233">
        <ele>373.734</ele>
        <time>2015-10-02T09:47:10Z</time>
      </trkpt>
      <trkpt lat="47.41397" lon="6.62232">
        <ele>373.616</ele>
        <time>2015-10-02T09:47:11Z</time>
      </trkpt>
      <trkpt lat="47.41395" lon="6.62231">
        <ele>373.546</ele>
        <time>2015-10-02T09:47:12Z</time>
      </trkpt>
      <trkpt lat="47.41392" lon="6.6223">
        <ele>373.439</ele>
        <time>2015-10-02T09:47:13Z</time>
      </trkpt>
      <trkpt lat="47.4139" lon="6.62229">
        <ele>373.572</ele>
        <time>2015-10-02T09:47:14Z</time>
      </trkpt>
      <trkpt lat="47.41388" lon="6.62229">
        <ele>373.553</ele>
        <time>2015-10-02T09:47:15Z</time>
      </trkpt>
      <trkpt lat="47.41386" lon="6.62228">
        <ele>373.243</ele>
        <time>2015-10-02T09:47:16Z</time>
      </trkpt>
      <trkpt lat="47.41383" lon="6.62228">
        <ele>373.261</ele>
        <time>2015-10-02T09:47:17Z</time>
      </trkpt>
      <trkpt lat="47.41381" lon="6.62227">
        <ele>373.396</ele>
        <time>2015-10-02T09:47:18Z</time>
      </trkpt>
      <trkpt lat="47.41379" lon="6.62227">
        <ele>373.652</ele>
        <time>2015-10-02T09:47:19Z</time>
      </trkpt>
      <trkpt lat="47.41377" lon="6.62226">
        <ele>373.988</ele>
        <time>2015-10-02T09:47:20Z</time>
      </trkpt>
      <trkpt lat="47.41375" lon="6.62226">
        <ele>373.851</ele>
        <time>2015-10-02T09:47:21Z</time>
      </trkpt>
      <trkpt lat="47.41373" lon="6.62225">
        <ele>373.864</ele>
        <time>2015-10-02T09:47:22Z</time>
      </trkpt>
      <trkpt lat="47.4137" lon="6.62224">
        <ele>373.953</ele>
        <time>2015-10-02T09:47:23Z</time>
      </trkpt>
      <trkpt lat="47.41368" lon="6.62223">
        <ele>374.62</ele>
        <time>2015-10-02T09:47:24Z</time>
      </trkpt>
      <trkpt lat="47.41366" lon="6.62222">
        <ele>375.171</ele>
        <time>2015-10-02T09:47:25Z</time>
      </trkpt>
      <trkpt lat="47.41363" lon="6.62222">
        <ele>375.786</ele>
        <time>2015-10-02T09:47:26Z</time>
      </trkpt>
      <trkpt lat="47.41361" lon="6.62221">
        <ele>375.901</ele>
        <time>2015-10-02T09:47:27Z</time>
      </trkpt>
      <trkpt lat="47.41359" lon="6.62221">
        <ele>375.986</ele>
        <time>2015-10-02T09:47:28Z</time>
      </trkpt>
      <trkpt lat="47.41357" lon="6.6222">
        <ele>376.476</ele>
        <time>2015-10-02T09:47:29Z</time>
      </trkpt>
      <trkpt lat="47.41355" lon="6.6222">
        <ele>377.055</ele>
        <time>2015-10-02T09:47:30Z</time>
      </trkpt>
      <trkpt lat="47.41352" lon="6.62219">
        <ele>377.565</ele>
        <time>2015-10-02T09:47:31Z</time>
      </trkpt>
      <trkpt lat="47.4135" lon="6.62219">
        <ele>377.763</ele>
        <time>2015-10-02T09:47:32Z</time>
      </trkpt>
      <trkpt lat="47.41348" lon="6.62218">
        <ele>377.671</ele>
        <time>2015-10-02T09:47:33Z</time>
      </trkpt>
      <trkpt lat="47.41345" lon="6.62218">
        <ele>377.445</ele>
        <time>2015-10-02T09:47:34Z</time>
      </trkpt>
      <trkpt lat="47.41343" lon="6.62217">
        <ele>377.815</ele>
        <time>2015-10-02T09:47:35Z</time>
      </trkpt>
      <trkpt lat="47.4134" lon="6.62217">
        <ele>377.92</ele>
        <time>2015-10-02T09:47:36Z</time>
      </trkpt>
      <trkpt lat="47.41338" lon="6.62217">
        <ele>378.016</ele>
        <time>2015-10-02T09:47:37Z</time>
      </trkpt>
      <trkpt lat="47.41336" lon="6.62217">
        <ele>378.344</ele>
        <time>2015-10-02T09:47:38Z</time>
      </trkpt>
      <trkpt lat="47.41334" lon="6.62217">
        <ele>377.9</ele>
        <time>2015-10-02T09:47:39Z</time>
      </trkpt>
      <trkpt lat="47.41332" lon="6.62217">
        <ele>378.259</ele>
        <time>2015-10-02T09:47:40Z</time>
      </trkpt>
      <trkpt lat="47.4133" lon="6.62218">
        <ele>377.955</ele>
        <time>2015-10-02T09:47:41Z</time>
      </trkpt>
      <trkpt lat="47.41329" lon="6.62218">
        <ele>377.405</ele>
        <time>2015-10-02T09:47:42Z</time>
      </trkpt>
      <trkpt lat="47.41327" lon="6.62218">
        <ele>377.348</ele>
        <time>2015-10-02T09:47:43Z</time>
      </trkpt>
      <trkpt lat="47.41325" lon="6.62217">
        <ele>377.058</ele>
        <time>2015-10-02T09:47:44Z</time>
      </trkpt>
      <trkpt lat="47.41323" lon="6.62217">
        <ele>376.956</ele>
        <time>2015-10-02T09:47:45Z</time>
      </trkpt>
      <trkpt lat="47.41321" lon="6.62216">
        <ele>377.005</ele>
        <time>2015-10-02T09:47:46Z</time>
      </trkpt>
      <trkpt lat="47.41318" lon="6.62216">
        <ele>377.066</ele>
        <time>2015-10-02T09:47:47Z</time>
      </trkpt>
      <trkpt lat="47.41317" lon="6.62216">
        <ele>376.832</ele>
        <time>2015-10-02T09:47:48Z</time>
      </trkpt>
      <trkpt lat="47.41315" lon="6.62216">
        <ele>377.267</ele>
        <time>2015-10-02T09:47:49Z</time>
      </trkpt>
      <trkpt lat="47.41313" lon="6.62215">
        <ele>377.174</ele>
        <time>2015-10-02T09:47:50Z</time>
      </trkpt>
      <trkpt lat="47.41311" lon="6.62215">
        <ele>377.949</ele>
        <time>2015-10-02T09:47:51Z</time>
      </trkpt>
      <trkpt lat="47.41309" lon="6.62215">
        <ele>378.394</ele>
        <time>2015-10-02T09:47:52Z</time>
      </trkpt>
      <trkpt lat="47.41307" lon="6.62215">
        <ele>378.76</ele>
        <time>2015-10-02T09:47:53Z</time>
      </trkpt>
      <trkpt lat="47.41305" lon="6.62215">
        <ele>379.114</ele>
        <time>2015-10-02T09:47:54Z</time>
      </trkpt>
      <trkpt lat="47.41303" lon="6.62215">
        <ele>379.845</ele>
        <time>2015-10-02T09:47:55Z</time>
      </trkpt>
      <trkpt lat="47.41301" lon="6.62215">
        <ele>379.637</ele>
        <time>2015-10-02T09:47:56Z</time>
      </trkpt>
      <trkpt lat="47.41298" lon="6.62214">
        <ele>379.487</ele>
        <time>2015-10-02T09:47:57Z</time>
      </trkpt>
      <trkpt lat="47.41296" lon="6.62214">
        <ele>379.156</ele>
        <time>2015-10-02T09:47:58Z</time>
      </trkpt>
      <trkpt lat="47.41293" lon="6.62214">
        <ele>379.748</ele>
        <time>2015-10-02T09:47:59Z</time>
      </trkpt>
      <trkpt lat="47.41291" lon="6.62214">
        <ele>380.409</ele>
        <time>2015-10-02T09:48:00Z</time>
      </trkpt>
      <trkpt lat="47.41289" lon="6.62213">
        <ele>380.005</ele>
        <time>2015-10-02T09:48:01Z</time>
      </trkpt>
      <trkpt lat="47.41287" lon="6.62213">
        <ele>379.987</ele>
        <time>2015-10-02T09:48:02Z</time>
      </trkpt>
      <trkpt lat="47.41285" lon="6.62212">
        <ele>380.649</ele>
        <time>2015-10-02T09:48:03Z</time>
      </trkpt>
      <trkpt lat="47.41283" lon="6.62212">
        <ele>381.018</ele>
        <time>2015-10-02T09:48:04Z</time>
      </trkpt>
      <trkpt lat="47.41282" lon="6.62211">
        <ele>381.152</ele>
        <time>2015-10-02T09:48:05Z</time>
      </trkpt>
      <trkpt lat="47.41279" lon="6.62211">
        <ele>380.021</ele>
        <time>2015-10-02T09:48:06Z</time>
      </trkpt>
      <trkpt lat="47.41276" lon="6.62211">
        <ele>379.283</ele>
        <time>2015-10-02T09:48:07Z</time>
      </trkpt>
      <trkpt lat="47.41274" lon="6.6221">
        <ele>378.07</ele>
        <time>2015-10-02T09:48:08Z</time>
      </trkpt>
      <trkpt lat="47.41271" lon="6.6221">
        <ele>379.569</ele>
        <time>2015-10-02T09:48:09Z</time>
      </trkpt>
      <trkpt lat="47.41269" lon="6.6221">
        <ele>380.079</ele>
        <time>2015-10-02T09:48:10Z</time>
      </trkpt>
      <trkpt lat="47.41267" lon="6.6221">
        <ele>379.079</ele>
        <time>2015-10-02T09:48:11Z</time>
      </trkpt>
      <trkpt lat="47.41264" lon="6.6221">
        <ele>379.888</ele>
        <time>2015-10-02T09:48:12Z</time>
      </trkpt>
      <trkpt lat="47.41262" lon="6.62211">
        <ele>380.137</ele>
        <time>2015-10-02T09:48:13Z</time>
      </trkpt>
      <trkpt lat="47.4126" lon="6.62211">
        <ele>380.24</ele>
        <time>2015-10-02T09:48:14Z</time>
      </trkpt>
      <trkpt lat="47.41258" lon="6.62211">
        <ele>380.587</ele>
        <time>2015-10-02T09:48:15Z</time>
      </trkpt>
      <trkpt lat="47.41255" lon="6.6221">
        <ele>379.973</ele>
        <time>2015-10-02T09:48:16Z</time>
      </trkpt>
      <trkpt lat="47.41254" lon="6.6221">
        <ele>380.229</ele>
        <time>2015-10-02T09:48:17Z</time>
      </trkpt>
      <trkpt lat="47.41252" lon="6.6221">
        <ele>379.357</ele>
        <time>2015-10-02T09:48:18Z</time>
      </trkpt>
      <trkpt lat="47.41249" lon="6.62209">
        <ele>379.15</ele>
        <time>2015-10-02T09:48:19Z</time>
      </trkpt>
      <trkpt lat="47.41247" lon="6.62209">
        <ele>379.665</ele>
        <time>2015-10-02T09:48:20Z</time>
      </trkpt>
      <trkpt lat="47.41244" lon="6.62208">
        <ele>379.755</ele>
        <time>2015-10-02T09:48:21Z</time>
      </trkpt>
      <trkpt lat="47.41242" lon="6.62208">
        <ele>379.405</ele>
        <time>2015-10-02T09:48:22Z</time>
      </trkpt>
      <trkpt lat="47.41239" lon="6.62208">
        <ele>379.363</ele>
        <time>2015-10-02T09:48:23Z</time>
      </trkpt>
      <trkpt lat="47.41237" lon="6.62208">
        <ele>379.673</ele>
        <time>2015-10-02T09:48:24Z</time>
      </trkpt>
      <trkpt lat="47.41235" lon="6.62208">
        <ele>378.898</ele>
        <time>2015-10-02T09:48:25Z</time>
      </trkpt>
      <trkpt lat="47.41232" lon="6.62209">
        <ele>377.734</ele>
        <time>2015-10-02T09:48:26Z</time>
      </trkpt>
      <trkpt lat="47.4123" lon="6.62209">
        <ele>377.281</ele>
        <time>2015-10-02T09:48:27Z</time>
      </trkpt>
      <trkpt lat="47.41227" lon="6.62209">
        <ele>378.043</ele>
        <time>2015-10-02T09:48:28Z</time>
      </trkpt>
      <trkpt lat="47.41225" lon="6.62209">
        <ele>377.769</ele>
        <time>2015-10-02T09:48:29Z</time>
      </trkpt>
      <trkpt lat="47.41223" lon="6.62209">
        <ele>377.949</ele>
        <time>2015-10-02T09:48:30Z</time>
      </trkpt>
      <trkpt lat="47.4122" lon="6.6221">
        <ele>377.932</ele>
        <time>2015-10-02T09:48:31Z</time>
      </trkpt>
      <trkpt lat="47.41218" lon="6.62211">
        <ele>377.724</ele>
        <time>2015-10-02T09:48:32Z</time>
      </trkpt>
      <trkpt lat="47.41215" lon="6.62212">
        <ele>377.503</ele>
        <time>2015-10-02T09:48:33Z</time>
      </trkpt>
      <trkpt lat="47.41213" lon="6.62213">
        <ele>376.845</ele>
        <time>2015-10-02T09:48:34Z</time>
      </trkpt>
      <trkpt lat="47.4121" lon="6.62214">
        <ele>376.542</ele>
        <time>2015-10-02T09:48:35Z</time>
      </trkpt>
      <trkpt lat="47.41207" lon="6.62215">
        <ele>376.807</ele>
        <time>2015-10-02T09:48:36Z</time>
      </trkpt>
      <trkpt lat="47.41205" lon="6.62215">
        <ele>377.144</ele>
        <time>2015-10-02T09:48:37Z</time>
      </trkpt>
      <trkpt lat="47.41203" lon="6.62217">
        <ele>377.639</ele>
        <time>2015-10-02T09:48:38Z</time>
      </trkpt>
      <trkpt lat="47.412" lon="6.62217">
        <ele>377.571</ele>
        <time>2015-10-02T09:48:39Z</time>
      </trkpt>
      <trkpt lat="47.41198" lon="6.62218">
        <ele>378.316</ele>
        <time>2015-10-02T09:48:40Z</time>
      </trkpt>
      <trkpt lat="47.41196" lon="6.62218">
        <ele>379.578</ele>
        <time>2015-10-02T09:48:41Z</time>
      </trkpt>
      <trkpt lat="47.41193" lon="6.62218">
        <ele>379.546</ele>
        <time>2015-10-02T09:48:42Z</time>
      </trkpt>
      <trkpt lat="47.41191" lon="6.62218">
        <ele>378.691</ele>
        <time>2015-10-02T09:48:43Z</time>
      </trkpt>
      <trkpt lat="47.41188" lon="6.62219">
        <ele>378.92</ele>
        <time>2015-10-02T09:48:44Z</time>
      </trkpt>
      <trkpt lat="47.41185" lon="6.62219">
        <ele>378.987</ele>
        <time>2015-10-02T09:48:45Z</time>
      </trkpt>
      <trkpt lat="47.41183" lon="6.6222">
        <ele>379.566</ele>
        <time>2015-10-02T09:48:46Z</time>
      </trkpt>
      <trkpt lat="47.4118" lon="6.62221">
        <ele>379.584</ele>
        <time>2015-10-02T09:48:47Z</time>
      </trkpt>
      <trkpt lat="47.41178" lon="6.62222">
        <ele>379.386</ele>
        <time>2015-10-02T09:48:48Z</time>
      </trkpt>
      <trkpt lat="47.41175" lon="6.62223">
        <ele>379.786</ele>
        <time>2015-10-02T09:48:49Z</time>
      </trkpt>
      <trkpt lat="47.41173" lon="6.62224">
        <ele>380.343</ele>
        <time>2015-10-02T09:48:50Z</time>
      </trkpt>
      <trkpt lat="47.4117" lon="6.62224">
        <ele>381.1</ele>
        <time>2015-10-02T09:48:51Z</time>
      </trkpt>
      <trkpt lat="47.41167" lon="6.62225">
        <ele>381.024</ele>
        <time>2015-10-02T09:48:52Z</time>
      </trkpt>
      <trkpt lat="47.41164" lon="6.62226">
        <ele>381.086</ele>
        <time>2015-10-02T09:48:53Z</time>
      </trkpt>
      <trkpt lat="47.41161" lon="6.62227">
        <ele>381.212</ele>
        <time>2015-10-02T09:48:54Z</time>
      </trkpt>
      <trkpt lat="47.41159" lon="6.62228">
        <ele>381.558</ele>
        <time>2015-10-02T09:48:55Z</time>
      </trkpt>
      <trkpt lat="47.41156" lon="6.62229">
        <ele>381.665</ele>
        <time>2015-10-02T09:48:56Z</time>
      </trkpt>
      <trkpt lat="47.41154" lon="6.62231">
        <ele>381.751</ele>
        <time>2015-10-02T09:48:57Z</time>
      </trkpt>
      <trkpt lat="47.41152" lon="6.62232">
        <ele>381.609</ele>
        <time>2015-10-02T09:48:58Z</time>
      </trkpt>
      <trkpt lat="47.4115" lon="6.62233">
        <ele>381.788</ele>
        <time>2015-10-02T09:48:59Z</time>
      </trkpt>
      <trkpt lat="47.41147" lon="6.62234">
        <ele>381.929</ele>
        <time>2015-10-02T09:49:00Z</time>
      </trkpt>
      <trkpt lat="47.41145" lon="6.62235">
        <ele>382.451</ele>
        <time>2015-10-02T09:49:01Z</time>
      </trkpt>
      <trkpt lat="47.41143" lon="6.62235">
        <ele>382.663</ele>
        <time>2015-10-02T09:49:02Z</time>
      </trkpt>
      <trkpt lat="47.4114" lon="6.62236">
        <ele>383.103</ele>
        <time>2015-10-02T09:49:03Z</time>
      </trkpt>
      <trkpt lat="47.41138" lon="6.62237">
        <ele>383.389</ele>
        <time>2015-10-02T09:49:04Z</time>
      </trkpt>
      <trkpt lat="47.41135" lon="6.62238">
        <ele>383.248</ele>
        <time>2015-10-02T09:49:05Z</time>
      </trkpt>
      <trkpt lat="47.41132" lon="6.62238">
        <ele>383.248</ele>
        <time>2015-10-02T09:49:06Z</time>
      </trkpt>
      <trkpt lat="47.4113" lon="6.62239">
        <ele>382.841</ele>
        <time>2015-10-02T09:49:07Z</time>
      </trkpt>
      <trkpt lat="47.41128" lon="6.6224">
        <ele>383.316</ele>
        <time>2015-10-02T09:49:08Z</time>
      </trkpt>
      <trkpt lat="47.41125" lon="6.62242">
        <ele>383.713</ele>
        <time>2015-10-02T09:49:09Z</time>
      </trkpt>
      <trkpt lat="47.41123" lon="6.62243">
        <ele>383.957</ele>
        <time>2015-10-02T09:49:10Z</time>
      </trkpt>
      <trkpt lat="47.41121" lon="6.62245">
        <ele>383.732</ele>
        <time>2015-10-02T09:49:11Z</time>
      </trkpt>
      <trkpt lat="47.41118" lon="6.62246">
        <ele>383.602</ele>
        <time>2015-10-02T09:49:12Z</time>
      </trkpt>
      <trkpt lat="47.41116" lon="6.62246">
        <ele>383.376</ele>
        <time>2015-10-02T09:49:13Z</time>
      </trkpt>
      <trkpt lat="47.41113" lon="6.62246">
        <ele>383.682</ele>
        <time>2015-10-02T09:49:14Z</time>
      </trkpt>
      <trkpt lat="47.41111" lon="6.62245">
        <ele>384.474</ele>
        <time>2015-10-02T09:49:15Z</time>
      </trkpt>
      <trkpt lat="47.41108" lon="6.62245">
        <ele>385.088</ele>
        <time>2015-10-02T09:49:16Z</time>
      </trkpt>
      <trkpt lat="47.41106" lon="6.62247">
        <ele>384.93</ele>
        <time>2015-10-02T09:49:17Z</time>
      </trkpt>
      <trkpt lat="47.41104" lon="6.62249">
        <ele>384.966</ele>
        <time>2015-10-02T09:49:18Z</time>
      </trkpt>
      <trkpt lat="47.41102" lon="6.6225">
        <ele>385.497</ele>
        <time>2015-10-02T09:49:19Z</time>
      </trkpt>
      <trkpt lat="47.411" lon="6.62251">
        <ele>385.605</ele>
        <time>2015-10-02T09:49:19Z</time>
      </trkpt>
      <trkpt lat="47.41097" lon="6.6225">
        <ele>385.827</ele>
        <time>2015-10-02T09:49:20Z</time>
      </trkpt>
      <trkpt lat="47.41095" lon="6.6225">
        <ele>386.255</ele>
        <time>2015-10-02T09:49:21Z</time>
      </trkpt>
      <trkpt lat="47.41092" lon="6.6225">
        <ele>386.195</ele>
        <time>2015-10-02T09:49:22Z</time>
      </trkpt>
      <trkpt lat="47.4109" lon="6.62251">
        <ele>386.022</ele>
        <time>2015-10-02T09:49:23Z</time>
      </trkpt>
      <trkpt lat="47.41087" lon="6.62252">
        <ele>386.143</ele>
        <time>2015-10-02T09:49:24Z</time>
      </trkpt>
      <trkpt lat="47.41085" lon="6.62253">
        <ele>386.256</ele>
        <time>2015-10-02T09:49:25Z</time>
      </trkpt>
      <trkpt lat="47.41083" lon="6.62254">
        <ele>386.305</ele>
        <time>2015-10-02T09:49:26Z</time>
      </trkpt>
      <trkpt lat="47.4108" lon="6.62255">
        <ele>386.282</ele>
        <time>2015-10-02T09:49:27Z</time>
      </trkpt>
      <trkpt lat="47.41078" lon="6.62256">
        <ele>386.352</ele>
        <time>2015-10-02T09:49:28Z</time>
      </trkpt>
      <trkpt lat="47.41076" lon="6.62257">
        <ele>386.888</ele>
        <time>2015-10-02T09:49:29Z</time>
      </trkpt>
      <trkpt lat="47.41073" lon="6.62257">
        <ele>387.756</ele>
        <time>2015-10-02T09:49:30Z</time>
      </trkpt>
      <trkpt lat="47.41071" lon="6.62258">
        <ele>387.852</ele>
        <time>2015-10-02T09:49:31Z</time>
      </trkpt>
      <trkpt lat="47.41069" lon="6.62258">
        <ele>388.18</ele>
        <time>2015-10-02T09:49:32Z</time>
      </trkpt>
      <trkpt lat="47.41066" lon="6.62259">
        <ele>388.033</ele>
        <time>2015-10-02T09:49:33Z</time>
      </trkpt>
      <trkpt lat="47.41064" lon="6.6226">
        <ele>388.498</ele>
        <time>2015-10-02T09:49:34Z</time>
      </trkpt>
      <trkpt lat="47.41062" lon="6.62262">
        <ele>388.365</ele>
        <time>2015-10-02T09:49:35Z</time>
      </trkpt>
      <trkpt lat="47.4106" lon="6.62264">
        <ele>388.52</ele>
        <time>2015-10-02T09:49:36Z</time>
      </trkpt>
      <trkpt lat="47.41058" lon="6.62265">
        <ele>388.552</ele>
        <time>2015-10-02T09:49:37Z</time>
      </trkpt>
      <trkpt lat="47.41056" lon="6.62267">
        <ele>388.992</ele>
        <time>2015-10-02T09:49:38Z</time>
      </trkpt>
      <trkpt lat="47.41054" lon="6.62268">
        <ele>389.18</ele>
        <time>2015-10-02T09:49:39Z</time>
      </trkpt>
      <trkpt lat="47.41051" lon="6.62269">
        <ele>389.08</ele>
        <time>2015-10-02T09:49:40Z</time>
      </trkpt>
      <trkpt lat="47.41049" lon="6.62271">
        <ele>389.021</ele>
        <time>2015-10-02T09:49:41Z</time>
      </trkpt>
      <trkpt lat="47.41047" lon="6.62272">
        <ele>389.026</ele>
        <time>2015-10-02T09:49:42Z</time>
      </trkpt>
      <trkpt lat="47.41045" lon="6.62274">
        <ele>389.23</ele>
        <time>2015-10-02T09:49:43Z</time>
      </trkpt>
      <trkpt lat="47.41043" lon="6.62276">
        <ele>389.309</ele>
        <time>2015-10-02T09:49:44Z</time>
      </trkpt>
      <trkpt lat="47.41041" lon="6.62277">
        <ele>389.71</ele>
        <time>2015-10-02T09:49:45Z</time>
      </trkpt>
      <trkpt lat="47.41039" lon="6.62279">
        <ele>389.278</ele>
        <time>2015-10-02T09:49:46Z</time>
      </trkpt>
      <trkpt lat="47.41037" lon="6.62281">
        <ele>389.195</ele>
        <time>2015-10-02T09:49:47Z</time>
      </trkpt>
      <trkpt lat="47.41036" lon="6.62283">
        <ele>389.302</ele>
        <time>2015-10-02T09:49:48Z</time>
      </trkpt>
      <trkpt lat="47.41034" lon="6.62285">
        <ele>389.215</ele>
        <time>2015-10-02T09:49:49Z</time>
      </trkpt>
      <trkpt lat="47.41032" lon="6.62287">
        <ele>389.262</ele>
        <time>2015-10-02T09:49:50Z</time>
      </trkpt>
      <trkpt lat="47.4103" lon="6.62289">
        <ele>389.464</ele>
        <time>2015-10-02T09:49:51Z</time>
      </trkpt>
      <trkpt lat="47.41028" lon="6.62291">
        <ele>389.464</ele>
        <time>2015-10-02T09:49:52Z</time>
      </trkpt>
      <trkpt lat="47.41025" lon="6.62293">
        <ele>389.679</ele>
        <time>2015-10-02T09:49:53Z</time>
      </trkpt>
      <trkpt lat="47.41023" lon="6.62295">
        <ele>389.871</ele>
        <time>2015-10-02T09:49:54Z</time>
      </trkpt>
      <trkpt lat="47.41021" lon="6.62296">
        <ele>389.959</ele>
        <time>2015-10-02T09:49:55Z</time>
      </trkpt>
      <trkpt lat="47.41019" lon="6.62298">
        <ele>389.965</ele>
        <time>2015-10-02T09:49:56Z</time>
      </trkpt>
      <trkpt lat="47.41017" lon="6.623">
        <ele>390.215</ele>
        <time>2015-10-02T09:49:57Z</time>
      </trkpt>
      <trkpt lat="47.41015" lon="6.62301">
        <ele>390.159</ele>
        <time>2015-10-02T09:49:58Z</time>
      </trkpt>
      <trkpt lat="47.41013" lon="6.62303">
        <ele>390.267</ele>
        <time>2015-10-02T09:49:59Z</time>
      </trkpt>
      <trkpt lat="47.41011" lon="6.62305">
        <ele>390.432</ele>
        <time>2015-10-02T09:50:00Z</time>
      </trkpt>
      <trkpt lat="47.41009" lon="6.62307">
        <ele>390.457</ele>
        <time>2015-10-02T09:50:01Z</time>
      </trkpt>
      <trkpt lat="47.41008" lon="6.6231">
        <ele>390.603</ele>
        <time>2015-10-02T09:50:02Z</time>
      </trkpt>
      <trkpt lat="47.41006" lon="6.62312">
        <ele>390.597</ele>
        <time>2015-10-02T09:50:03Z</time>
      </trkpt>
      <trkpt lat="47.41004" lon="6.62314">
        <ele>390.828</ele>
        <time>2015-10-02T09:50:04Z</time>
      </trkpt>
      <trkpt lat="47.41002" lon="6.62316">
        <ele>391.024</ele>
        <time>2015-10-02T09:50:05Z</time>
      </trkpt>
      <trkpt lat="47.41" lon="6.62317">
        <ele>391.012</ele>
        <time>2015-10-02T09:50:06Z</time>
      </trkpt>
      <trkpt lat="47.40998" lon="6.62318">
        <ele>391.337</ele>
        <time>2015-10-02T09:50:07Z</time>
      </trkpt>
      <trkpt lat="47.40996" lon="6.62319">
        <ele>391.4</ele>
        <time>2015-10-02T09:50:08Z</time>
      </trkpt>
      <trkpt lat="47.40994" lon="6.62321">
        <ele>391.533</ele>
        <time>2015-10-02T09:50:09Z</time>
      </trkpt>
      <trkpt lat="47.40992" lon="6.62323">
        <ele>391.569</ele>
        <time>2015-10-02T09:50:10Z</time>
      </trkpt>
      <trkpt lat="47.4099" lon="6.62326">
        <ele>391.428</ele>
        <time>2015-10-02T09:50:11Z</time>
      </trkpt>
      <trkpt lat="47.40989" lon="6.62328">
        <ele>391.645</ele>
        <time>2015-10-02T09:50:12Z</time>
      </trkpt>
      <trkpt lat="47.40987" lon="6.6233">
        <ele>391.746</ele>
        <time>2015-10-02T09:50:13Z</time>
      </trkpt>
      <trkpt lat="47.40986" lon="6.62333">
        <ele>391.809</ele>
        <time>2015-10-02T09:50:14Z</time>
      </trkpt>
      <trkpt lat="47.40984" lon="6.62335">
        <ele>391.405</ele>
        <time>2015-10-02T09:50:15Z</time>
      </trkpt>
      <trkpt lat="47.40983" lon="6.62337">
        <ele>391.549</ele>
        <time>2015-10-02T09:50:16Z</time>
      </trkpt>
      <trkpt lat="47.40982" lon="6.62339">
        <ele>391.653</ele>
        <time>2015-10-02T09:50:18Z</time>
      </trkpt>
      <trkpt lat="47.4098" lon="6.62341">
        <ele>391.935</ele>
        <time>2015-10-02T09:50:19Z</time>
      </trkpt>
      <trkpt lat="47.40979" lon="6.62343">
        <ele>392.246</ele>
        <time>2015-10-02T09:50:20Z</time>
      </trkpt>
      <trkpt lat="47.40977" lon="6.62345">
        <ele>392.437</ele>
        <time>2015-10-02T09:50:21Z</time>
      </trkpt>
      <trkpt lat="47.40975" lon="6.62347">
        <ele>392.252</ele>
        <time>2015-10-02T09:50:22Z</time>
      </trkpt>
      <trkpt lat="47.40973" lon="6.6235">
        <ele>391.815</ele>
        <time>2015-10-02T09:50:23Z</time>
      </trkpt>
      <trkpt lat="47.40972" lon="6.62352">
        <ele>392.333</ele>
        <time>2015-10-02T09:50:24Z</time>
      </trkpt>
      <trkpt lat="47.4097" lon="6.62355">
        <ele>392.452</ele>
        <time>2015-10-02T09:50:25Z</time>
      </trkpt>
      <trkpt lat="47.40968" lon="6.62357">
        <ele>392.985</ele>
        <time>2015-10-02T09:50:26Z</time>
      </trkpt>
      <trkpt lat="47.40967" lon="6.6236">
        <ele>393.404</ele>
        <time>2015-10-02T09:50:27Z</time>
      </trkpt>
      <trkpt lat="47.40965" lon="6.62362">
        <ele>393.303</ele>
        <time>2015-10-02T09:50:28Z</time>
      </trkpt>
      <trkpt lat="47.40964" lon="6.62364">
        <ele>393.273</ele>
        <time>2015-10-02T09:50:29Z</time>
      </trkpt>
      <trkpt lat="47.40963" lon="6.62366">
        <ele>393.498</ele>
        <time>2015-10-02T09:50:30Z</time>
      </trkpt>
      <trkpt lat="47.40961" lon="6.62368">
        <ele>393.428</ele>
        <time>2015-10-02T09:50:31Z</time>
      </trkpt>
      <trkpt lat="47.40959" lon="6.6237">
        <ele>393.317</ele>
        <time>2015-10-02T09:50:32Z</time>
      </trkpt>
      <trkpt lat="47.40958" lon="6.62372">
        <ele>393.345</ele>
        <time>2015-10-02T09:50:33Z</time>
      </trkpt>
      <trkpt lat="47.40956" lon="6.62374">
        <ele>393.039</ele>
        <time>2015-10-02T09:50:34Z</time>
      </trkpt>
      <trkpt lat="47.40954" lon="6.62377">
        <ele>393.256</ele>
        <time>2015-10-02T09:50:35Z</time>
      </trkpt>
      <trkpt lat="47.40953" lon="6.62379">
        <ele>393.908</ele>
        <time>2015-10-02T09:50:36Z</time>
      </trkpt>
      <trkpt lat="47.40951" lon="6.62382">
        <ele>393.563</ele>
        <time>2015-10-02T09:50:37Z</time>
      </trkpt>
      <trkpt lat="47.40949" lon="6.62384">
        <ele>393.867</ele>
        <time>2015-10-02T09:50:38Z</time>
      </trkpt>
      <trkpt lat="47.40948" lon="6.62386">
        <ele>393.989</ele>
        <time>2015-10-02T09:50:39Z</time>
      </trkpt>
      <trkpt lat="47.40946" lon="6.62389">
        <ele>394.467</ele>
        <time>2015-10-02T09:50:40Z</time>
      </trkpt>
      <trkpt lat="47.40944" lon="6.62391">
        <ele>394.949</ele>
        <time>2015-10-02T09:50:41Z</time>
      </trkpt>
      <trkpt lat="47.40943" lon="6.62394">
        <ele>394.563</ele>
        <time>2015-10-02T09:50:42Z</time>
      </trkpt>
      <trkpt lat="47.40942" lon="6.62397">
        <ele>394.763</ele>
        <time>2015-10-02T09:50:43Z</time>
      </trkpt>
      <trkpt lat="47.4094" lon="6.62401">
        <ele>394.733</ele>
        <time>2015-10-02T09:50:44Z</time>
      </trkpt>
      <trkpt lat="47.40939" lon="6.62404">
        <ele>394.714</ele>
        <time>2015-10-02T09:50:45Z</time>
      </trkpt>
      <trkpt lat="47.40938" lon="6.62407">
        <ele>395.124</ele>
        <time>2015-10-02T09:50:46Z</time>
      </trkpt>
      <trkpt lat="47.40937" lon="6.62411">
        <ele>394.997</ele>
        <time>2015-10-02T09:50:47Z</time>
      </trkpt>
      <trkpt lat="47.40936" lon="6.62414">
        <ele>395.428</ele>
        <time>2015-10-02T09:50:48Z</time>
      </trkpt>
      <trkpt lat="47.40934" lon="6.62417">
        <ele>395.641</ele>
        <time>2015-10-02T09:50:49Z</time>
      </trkpt>
      <trkpt lat="47.40933" lon="6.6242">
        <ele>395.867</ele>
        <time>2015-10-02T09:50:50Z</time>
      </trkpt>
      <trkpt lat="47.40932" lon="6.62423">
        <ele>395.673</ele>
        <time>2015-10-02T09:50:51Z</time>
      </trkpt>
      <trkpt lat="47.40931" lon="6.62426">
        <ele>395.301</ele>
        <time>2015-10-02T09:50:52Z</time>
      </trkpt>
      <trkpt lat="47.4093" lon="6.62429">
        <ele>395.851</ele>
        <time>2015-10-02T09:50:53Z</time>
      </trkpt>
      <trkpt lat="47.40929" lon="6.62432">
        <ele>395.457</ele>
        <time>2015-10-02T09:50:54Z</time>
      </trkpt>
      <trkpt lat="47.40928" lon="6.62435">
        <ele>394.704</ele>
        <time>2015-10-02T09:50:55Z</time>
      </trkpt>
      <trkpt lat="47.40927" lon="6.62439">
        <ele>394.502</ele>
        <time>2015-10-02T09:50:56Z</time>
      </trkpt>
      <trkpt lat="47.40926" lon="6.62442">
        <ele>394.531</ele>
        <time>2015-10-02T09:50:57Z</time>
      </trkpt>
      <trkpt lat="47.40926" lon="6.62446">
        <ele>394.537</ele>
        <time>2015-10-02T09:50:58Z</time>
      </trkpt>
      <trkpt lat="47.40925" lon="6.62449">
        <ele>394.179</ele>
        <time>2015-10-02T09:50:59Z</time>
      </trkpt>
      <trkpt lat="47.40924" lon="6.62452">
        <ele>394.217</ele>
        <time>2015-10-02T09:51:00Z</time>
      </trkpt>
      <trkpt lat="47.40923" lon="6.62455">
        <ele>393.894</ele>
        <time>2015-10-02T09:51:01Z</time>
      </trkpt>
      <trkpt lat="47.40922" lon="6.62458">
        <ele>393.898</ele>
        <time>2015-10-02T09:51:02Z</time>
      </trkpt>
      <trkpt lat="47.40921" lon="6.62461">
        <ele>393.316</ele>
        <time>2015-10-02T09:51:03Z</time>
      </trkpt>
      <trkpt lat="47.40919" lon="6.62465">
        <ele>394.009</ele>
        <time>2015-10-02T09:51:04Z</time>
      </trkpt>
      <trkpt lat="47.40919" lon="6.62468">
        <ele>394.075</ele>
        <time>2015-10-02T09:51:05Z</time>
      </trkpt>
      <trkpt lat="47.40918" lon="6.62471">
        <ele>394.335</ele>
        <time>2015-10-02T09:51:06Z</time>
      </trkpt>
      <trkpt lat="47.40917" lon="6.62474">
        <ele>394.376</ele>
        <time>2015-10-02T09:51:07Z</time>
      </trkpt>
      <trkpt lat="47.40917" lon="6.62477">
        <ele>394.297</ele>
        <time>2015-10-02T09:51:08Z</time>
      </trkpt>
      <trkpt lat="47.40916" lon="6.6248">
        <ele>394.381</ele>
        <time>2015-10-02T09:51:09Z</time>
      </trkpt>
      <trkpt lat="47.40915" lon="6.62483">
        <ele>394.45</ele>
        <time>2015-10-02T09:51:10Z</time>
      </trkpt>
      <trkpt lat="47.40913" lon="6.62486">
        <ele>394.435</ele>
        <time>2015-10-02T09:51:11Z</time>
      </trkpt>
      <trkpt lat="47.40912" lon="6.62489">
        <ele>394.614</ele>
        <time>2015-10-02T09:51:12Z</time>
      </trkpt>
      <trkpt lat="47.40911" lon="6.62493">
        <ele>394.819</ele>
        <time>2015-10-02T09:51:13Z</time>
      </trkpt>
      <trkpt lat="47.40911" lon="6.62496">
        <ele>394.321</ele>
        <time>2015-10-02T09:51:14Z</time>
      </trkpt>
      <trkpt lat="47.4091" lon="6.62499">
        <ele>394.551</ele>
        <time>2015-10-02T09:51:15Z</time>
      </trkpt>
      <trkpt lat="47.40909" lon="6.62503">
        <ele>394.259</ele>
        <time>2015-10-02T09:51:16Z</time>
      </trkpt>
      <trkpt lat="47.40909" lon="6.62506">
        <ele>394.321</ele>
        <time>2015-10-02T09:51:17Z</time>
      </trkpt>
      <trkpt lat="47.40908" lon="6.6251">
        <ele>394.52</ele>
        <time>2015-10-02T09:51:18Z</time>
      </trkpt>
      <trkpt lat="47.40908" lon="6.62513">
        <ele>394.281</ele>
        <time>2015-10-02T09:51:19Z</time>
      </trkpt>
      <trkpt lat="47.40907" lon="6.62516">
        <ele>394.37</ele>
        <time>2015-10-02T09:51:20Z</time>
      </trkpt>
      <trkpt lat="47.40905" lon="6.62519">
        <ele>394.049</ele>
        <time>2015-10-02T09:51:21Z</time>
      </trkpt>
      <trkpt lat="47.40904" lon="6.62521">
        <ele>394.328</ele>
        <time>2015-10-02T09:51:22Z</time>
      </trkpt>
      <trkpt lat="47.40903" lon="6.62524">
        <ele>394.539</ele>
        <time>2015-10-02T09:51:23Z</time>
      </trkpt>
      <trkpt lat="47.40903" lon="6.62528">
        <ele>394.625</ele>
        <time>2015-10-02T09:51:24Z</time>
      </trkpt>
      <trkpt lat="47.40902" lon="6.62531">
        <ele>394.632</ele>
        <time>2015-10-02T09:51:25Z</time>
      </trkpt>
      <trkpt lat="47.40902" lon="6.62535">
        <ele>394.887</ele>
        <time>2015-10-02T09:51:26Z</time>
      </trkpt>
      <trkpt lat="47.40901" lon="6.62538">
        <ele>394.617</ele>
        <time>2015-10-02T09:51:27Z</time>
      </trkpt>
      <trkpt lat="47.409" lon="6.62542">
        <ele>394.664</ele>
        <time>2015-10-02T09:51:28Z</time>
      </trkpt>
      <trkpt lat="47.409" lon="6.62545">
        <ele>394.467</ele>
        <time>2015-10-02T09:51:29Z</time>
      </trkpt>
      <trkpt lat="47.40899" lon="6.62548">
        <ele>394.439</ele>
        <time>2015-10-02T09:51:30Z</time>
      </trkpt>
      <trkpt lat="47.40899" lon="6.62552">
        <ele>394.365</ele>
        <time>2015-10-02T09:51:31Z</time>
      </trkpt>
      <trkpt lat="47.40899" lon="6.62555">
        <ele>394.62</ele>
        <time>2015-10-02T09:51:32Z</time>
      </trkpt>
      <trkpt lat="47.40898" lon="6.62558">
        <ele>394.992</ele>
        <time>2015-10-02T09:51:33Z</time>
      </trkpt>
      <trkpt lat="47.40898" lon="6.62562">
        <ele>395.167</ele>
        <time>2015-10-02T09:51:34Z</time>
      </trkpt>
      <trkpt lat="47.40897" lon="6.62565">
        <ele>395.449</ele>
        <time>2015-10-02T09:51:35Z</time>
      </trkpt>
      <trkpt lat="47.40897" lon="6.62568">
        <ele>395.498</ele>
        <time>2015-10-02T09:51:36Z</time>
      </trkpt>
      <trkpt lat="47.40896" lon="6.62571">
        <ele>395.419</ele>
        <time>2015-10-02T09:51:37Z</time>
      </trkpt>
      <trkpt lat="47.40895" lon="6.62574">
        <ele>395.356</ele>
        <time>2015-10-02T09:51:38Z</time>
      </trkpt>
      <trkpt lat="47.40895" lon="6.62577">
        <ele>395.54</ele>
        <time>2015-10-02T09:51:39Z</time>
      </trkpt>
      <trkpt lat="47.40894" lon="6.62581">
        <ele>395.683</ele>
        <time>2015-10-02T09:51:40Z</time>
      </trkpt>
      <trkpt lat="47.40893" lon="6.62584">
        <ele>395.738</ele>
        <time>2015-10-02T09:51:41Z</time>
      </trkpt>
      <trkpt lat="47.40893" lon="6.62588">
        <ele>395.76</ele>
        <time>2015-10-02T09:51:42Z</time>
      </trkpt>
      <trkpt lat="47.40892" lon="6.62591">
        <ele>395.867</ele>
        <time>2015-10-02T09:51:43Z</time>
      </trkpt>
      <trkpt lat="47.40892" lon="6.62594">
        <ele>395.538</ele>
        <time>2015-10-02T09:51:44Z</time>
      </trkpt>
      <trkpt lat="47.40892" lon="6.62598">
        <ele>395.153</ele>
        <time>2015-10-02T09:51:45Z</time>
      </trkpt>
      <trkpt lat="47.40891" lon="6.62601">
        <ele>395.199</ele>
        <time>2015-10-02T09:51:46Z</time>
      </trkpt>
      <trkpt lat="47.40891" lon="6.62605">
        <ele>395.51</ele>
        <time>2015-10-02T09:51:47Z</time>
      </trkpt>
      <trkpt lat="47.4089" lon="6.62608">
        <ele>395.542</ele>
        <time>2015-10-02T09:51:48Z</time>
      </trkpt>
      <trkpt lat="47.40889" lon="6.62611">
        <ele>396.165</ele>
        <time>2015-10-02T09:51:49Z</time>
      </trkpt>
      <trkpt lat="47.40888" lon="6.62614">
        <ele>396.435</ele>
        <time>2015-10-02T09:51:50Z</time>
      </trkpt>
      <trkpt lat="47.40887" lon="6.62618">
        <ele>396.723</ele>
        <time>2015-10-02T09:51:51Z</time>
      </trkpt>
      <trkpt lat="47.40887" lon="6.62621">
        <ele>397.154</ele>
        <time>2015-10-02T09:51:52Z</time>
      </trkpt>
      <trkpt lat="47.40886" lon="6.62624">
        <ele>397.296</ele>
        <time>2015-10-02T09:51:53Z</time>
      </trkpt>
      <trkpt lat="47.40885" lon="6.62628">
        <ele>397.382</ele>
        <time>2015-10-02T09:51:54Z</time>
      </trkpt>
      <trkpt lat="47.40884" lon="6.62631">
        <ele>397.421</ele>
        <time>2015-10-02T09:51:55Z</time>
      </trkpt>
      <trkpt lat="47.40883" lon="6.62635">
        <ele>397.439</ele>
        <time>2015-10-02T09:51:56Z</time>
      </trkpt>
      <trkpt lat="47.40883" lon="6.62638">
        <ele>397.278</ele>
        <time>2015-10-02T09:51:57Z</time>
      </trkpt>
      <trkpt lat="47.40882" lon="6.62642">
        <ele>397.224</ele>
        <time>2015-10-02T09:51:58Z</time>
      </trkpt>
      <trkpt lat="47.40882" lon="6.62645">
        <ele>397.226</ele>
        <time>2015-10-02T09:51:59Z</time>
      </trkpt>
      <trkpt lat="47.40881" lon="6.62649">
        <ele>397.403</ele>
        <time>2015-10-02T09:52:00Z</time>
      </trkpt>
      <trkpt lat="47.4088" lon="6.62652">
        <ele>397.714</ele>
        <time>2015-10-02T09:52:01Z</time>
      </trkpt>
      <trkpt lat="47.40879" lon="6.62656">
        <ele>397.899</ele>
        <time>2015-10-02T09:52:02Z</time>
      </trkpt>
      <trkpt lat="47.40877" lon="6.6266">
        <ele>398.174</ele>
        <time>2015-10-02T09:52:03Z</time>
      </trkpt>
      <trkpt lat="47.40876" lon="6.62663">
        <ele>398.289</ele>
        <time>2015-10-02T09:52:04Z</time>
      </trkpt>
      <trkpt lat="47.40876" lon="6.62667">
        <ele>398.146</ele>
        <time>2015-10-02T09:52:05Z</time>
      </trkpt>
      <trkpt lat="47.40875" lon="6.6267">
        <ele>398.239</ele>
        <time>2015-10-02T09:52:06Z</time>
      </trkpt>
      <trkpt lat="47.40874" lon="6.62674">
        <ele>398.328</ele>
        <time>2015-10-02T09:52:07Z</time>
      </trkpt>
      <trkpt lat="47.40873" lon="6.62677">
        <ele>398.322</ele>
        <time>2015-10-02T09:52:08Z</time>
      </trkpt>
      <trkpt lat="47.40871" lon="6.6268">
        <ele>398.813</ele>
        <time>2015-10-02T09:52:09Z</time>
      </trkpt>
      <trkpt lat="47.4087" lon="6.62683">
        <ele>398.771</ele>
        <time>2015-10-02T09:52:10Z</time>
      </trkpt>
      <trkpt lat="47.40869" lon="6.62686">
        <ele>398.381</ele>
        <time>2015-10-02T09:52:11Z</time>
      </trkpt>
      <trkpt lat="47.40868" lon="6.62689">
        <ele>398.101</ele>
        <time>2015-10-02T09:52:12Z</time>
      </trkpt>
      <trkpt lat="47.40867" lon="6.62692">
        <ele>398.04</ele>
        <time>2015-10-02T09:52:13Z</time>
      </trkpt>
      <trkpt lat="47.40866" lon="6.62695">
        <ele>397.726</ele>
        <time>2015-10-02T09:52:14Z</time>
      </trkpt>
      <trkpt lat="47.40865" lon="6.62698">
        <ele>397.975</ele>
        <time>2015-10-02T09:52:15Z</time>
      </trkpt>
      <trkpt lat="47.40864" lon="6.62701">
        <ele>397.708</ele>
        <time>2015-10-02T09:52:16Z</time>
      </trkpt>
      <trkpt lat="47.40863" lon="6.62704">
        <ele>397.679</ele>
        <time>2015-10-02T09:52:17Z</time>
      </trkpt>
      <trkpt lat="47.40861" lon="6.62706">
        <ele>397.768</ele>
        <time>2015-10-02T09:52:18Z</time>
      </trkpt>
      <trkpt lat="47.4086" lon="6.62708">
        <ele>397.421</ele>
        <time>2015-10-02T09:52:19Z</time>
      </trkpt>
      <trkpt lat="47.40859" lon="6.62711">
        <ele>397.127</ele>
        <time>2015-10-02T09:52:20Z</time>
      </trkpt>
      <trkpt lat="47.40857" lon="6.62713">
        <ele>396.887</ele>
        <time>2015-10-02T09:52:21Z</time>
      </trkpt>
      <trkpt lat="47.40855" lon="6.62716">
        <ele>396.596</ele>
        <time>2015-10-02T09:52:22Z</time>
      </trkpt>
      <trkpt lat="47.40854" lon="6.62718">
        <ele>396.177</ele>
        <time>2015-10-02T09:52:23Z</time>
      </trkpt>
      <trkpt lat="47.40852" lon="6.6272">
        <ele>396.004</ele>
        <time>2015-10-02T09:52:24Z</time>
      </trkpt>
      <trkpt lat="47.40851" lon="6.62723">
        <ele>397.28</ele>
        <time>2015-10-02T09:52:25Z</time>
      </trkpt>
      <trkpt lat="47.40849" lon="6.62726">
        <ele>397.523</ele>
        <time>2015-10-02T09:52:26Z</time>
      </trkpt>
      <trkpt lat="47.40848" lon="6.62728">
        <ele>397.128</ele>
        <time>2015-10-02T09:52:27Z</time>
      </trkpt>
      <trkpt lat="47.40846" lon="6.6273">
        <ele>397.507</ele>
        <time>2015-10-02T09:52:28Z</time>
      </trkpt>
      <trkpt lat="47.40844" lon="6.62733">
        <ele>398.103</ele>
        <time>2015-10-02T09:52:29Z</time>
      </trkpt>
      <trkpt lat="47.40842" lon="6.62735">
        <ele>397.984</ele>
        <time>2015-10-02T09:52:30Z</time>
      </trkpt>
      <trkpt lat="47.4084" lon="6.62737">
        <ele>398.081</ele>
        <time>2015-10-02T09:52:31Z</time>
      </trkpt>
      <trkpt lat="47.40838" lon="6.62738">
        <ele>399.095</ele>
        <time>2015-10-02T09:52:32Z</time>
      </trkpt>
      <trkpt lat="47.40836" lon="6.6274">
        <ele>400.162</ele>
        <time>2015-10-02T09:52:33Z</time>
      </trkpt>
      <trkpt lat="47.40834" lon="6.62742">
        <ele>400.196</ele>
        <time>2015-10-02T09:52:34Z</time>
      </trkpt>
      <trkpt lat="47.40832" lon="6.62744">
        <ele>400.788</ele>
        <time>2015-10-02T09:52:35Z</time>
      </trkpt>
      <trkpt lat="47.4083" lon="6.62746">
        <ele>400.987</ele>
        <time>2015-10-02T09:52:36Z</time>
      </trkpt>
      <trkpt lat="47.40828" lon="6.62748">
        <ele>401.357</ele>
        <time>2015-10-02T09:52:37Z</time>
      </trkpt>
      <trkpt lat="47.40827" lon="6.6275">
        <ele>401.122</ele>
        <time>2015-10-02T09:52:38Z</time>
      </trkpt>
      <trkpt lat="47.40825" lon="6.62752">
        <ele>401.192</ele>
        <time>2015-10-02T09:52:39Z</time>
      </trkpt>
      <trkpt lat="47.40822" lon="6.62754">
        <ele>400.774</ele>
        <time>2015-10-02T09:52:40Z</time>
      </trkpt>
      <trkpt lat="47.4082" lon="6.62755">
        <ele>401.078</ele>
        <time>2015-10-02T09:52:41Z</time>
      </trkpt>
      <trkpt lat="47.40818" lon="6.62757">
        <ele>400.906</ele>
        <time>2015-10-02T09:52:42Z</time>
      </trkpt>
      <trkpt lat="47.40816" lon="6.62759">
        <ele>400.935</ele>
        <time>2015-10-02T09:52:43Z</time>
      </trkpt>
      <trkpt lat="47.40813" lon="6.6276">
        <ele>401.615</ele>
        <time>2015-10-02T09:52:44Z</time>
      </trkpt>
      <trkpt lat="47.40811" lon="6.62762">
        <ele>401.986</ele>
        <time>2015-10-02T09:52:45Z</time>
      </trkpt>
      <trkpt lat="47.40808" lon="6.62763">
        <ele>402.235</ele>
        <time>2015-10-02T09:52:46Z</time>
      </trkpt>
      <trkpt lat="47.40806" lon="6.62765">
        <ele>402.889</ele>
        <time>2015-10-02T09:52:47Z</time>
      </trkpt>
      <trkpt lat="47.40804" lon="6.62767">
        <ele>403.405</ele>
        <time>2015-10-02T09:52:48Z</time>
      </trkpt>
      <trkpt lat="47.40801" lon="6.62768">
        <ele>403.647</ele>
        <time>2015-10-02T09:52:49Z</time>
      </trkpt>
      <trkpt lat="47.40799" lon="6.6277">
        <ele>403.833</ele>
        <time>2015-10-02T09:52:50Z</time>
      </trkpt>
      <trkpt lat="47.40796" lon="6.62771">
        <ele>403.804</ele>
        <time>2015-10-02T09:52:51Z</time>
      </trkpt>
      <trkpt lat="47.40794" lon="6.62772">
        <ele>403.868</ele>
        <time>2015-10-02T09:52:52Z</time>
      </trkpt>
      <trkpt lat="47.40792" lon="6.62774">
        <ele>403.728</ele>
        <time>2015-10-02T09:52:53Z</time>
      </trkpt>
      <trkpt lat="47.40789" lon="6.62775">
        <ele>403.498</ele>
        <time>2015-10-02T09:52:54Z</time>
      </trkpt>
      <trkpt lat="47.40787" lon="6.62777">
        <ele>403.629</ele>
        <time>2015-10-02T09:52:55Z</time>
      </trkpt>
      <trkpt lat="47.40784" lon="6.62778">
        <ele>403.706</ele>
        <time>2015-10-02T09:52:56Z</time>
      </trkpt>
      <trkpt lat="47.40782" lon="6.62779">
        <ele>403.432</ele>
        <time>2015-10-02T09:52:57Z</time>
      </trkpt>
      <trkpt lat="47.40779" lon="6.62781">
        <ele>403.461</ele>
        <time>2015-10-02T09:52:58Z</time>
      </trkpt>
      <trkpt lat="47.40776" lon="6.62783">
        <ele>403.312</ele>
        <time>2015-10-02T09:52:59Z</time>
      </trkpt>
      <trkpt lat="47.40772" lon="6.62784">
        <ele>403.548</ele>
        <time>2015-10-02T09:53:00Z</time>
      </trkpt>
      <trkpt lat="47.40769" lon="6.62785">
        <ele>403.802</ele>
        <time>2015-10-02T09:53:01Z</time>
      </trkpt>
      <trkpt lat="47.40767" lon="6.62786">
        <ele>403.789</ele>
        <time>2015-10-02T09:53:02Z</time>
      </trkpt>
      <trkpt lat="47.40764" lon="6.62787">
        <ele>404.282</ele>
        <time>2015-10-02T09:53:03Z</time>
      </trkpt>
      <trkpt lat="47.40762" lon="6.62788">
        <ele>404.164</ele>
        <time>2015-10-02T09:53:04Z</time>
      </trkpt>
      <trkpt lat="47.40761" lon="6.62789">
        <ele>404.502</ele>
        <time>2015-10-02T09:53:05Z</time>
      </trkpt>
      <trkpt lat="47.40758" lon="6.62789">
        <ele>404.379</ele>
        <time>2015-10-02T09:53:06Z</time>
      </trkpt>
      <trkpt lat="47.40756" lon="6.6279">
        <ele>404.535</ele>
        <time>2015-10-02T09:53:07Z</time>
      </trkpt>
      <trkpt lat="47.40754" lon="6.62791">
        <ele>404.562</ele>
        <time>2015-10-02T09:53:08Z</time>
      </trkpt>
      <trkpt lat="47.40752" lon="6.62791">
        <ele>404.614</ele>
        <time>2015-10-02T09:53:09Z</time>
      </trkpt>
      <trkpt lat="47.4075" lon="6.62792">
        <ele>404.778</ele>
        <time>2015-10-02T09:53:10Z</time>
      </trkpt>
      <trkpt lat="47.40748" lon="6.62792">
        <ele>404.685</ele>
        <time>2015-10-02T09:53:11Z</time>
      </trkpt>
      <trkpt lat="47.40746" lon="6.62793">
        <ele>404.659</ele>
        <time>2015-10-02T09:53:12Z</time>
      </trkpt>
      <trkpt lat="47.40744" lon="6.62793">
        <ele>404.718</ele>
        <time>2015-10-02T09:53:13Z</time>
      </trkpt>
      <trkpt lat="47.40742" lon="6.62794">
        <ele>404.861</ele>
        <time>2015-10-02T09:53:14Z</time>
      </trkpt>
      <trkpt lat="47.40741" lon="6.62794">
        <ele>404.863</ele>
        <time>2015-10-02T09:53:15Z</time>
      </trkpt>
      <trkpt lat="47.40739" lon="6.62794">
        <ele>404.639</ele>
        <time>2015-10-02T09:53:16Z</time>
      </trkpt>
      <trkpt lat="47.40737" lon="6.62794">
        <ele>405.113</ele>
        <time>2015-10-02T09:53:17Z</time>
      </trkpt>
      <trkpt lat="47.40735" lon="6.62794">
        <ele>405.128</ele>
        <time>2015-10-02T09:53:18Z</time>
      </trkpt>
      <trkpt lat="47.40733" lon="6.62794">
        <ele>405.212</ele>
        <time>2015-10-02T09:53:19Z</time>
      </trkpt>
      <trkpt lat="47.40732" lon="6.62795">
        <ele>405.127</ele>
        <time>2015-10-02T09:53:20Z</time>
      </trkpt>
      <trkpt lat="47.4073" lon="6.62795">
        <ele>405.656</ele>
        <time>2015-10-02T09:53:21Z</time>
      </trkpt>
      <trkpt lat="47.40728" lon="6.62795">
        <ele>405.88</ele>
        <time>2015-10-02T09:53:22Z</time>
      </trkpt>
      <trkpt lat="47.40726" lon="6.62795">
        <ele>406.317</ele>
        <time>2015-10-02T09:53:23Z</time>
      </trkpt>
      <trkpt lat="47.40724" lon="6.62795">
        <ele>406.133</ele>
        <time>2015-10-02T09:53:24Z</time>
      </trkpt>
      <trkpt lat="47.40722" lon="6.62795">
        <ele>406.574</ele>
        <time>2015-10-02T09:53:25Z</time>
      </trkpt>
      <trkpt lat="47.4072" lon="6.62796">
        <ele>406.784</ele>
        <time>2015-10-02T09:53:26Z</time>
      </trkpt>
      <trkpt lat="47.40719" lon="6.62796">
        <ele>406.717</ele>
        <time>2015-10-02T09:53:27Z</time>
      </trkpt>
      <trkpt lat="47.40717" lon="6.62796">
        <ele>406.699</ele>
        <time>2015-10-02T09:53:28Z</time>
      </trkpt>
      <trkpt lat="47.40715" lon="6.62797">
        <ele>407.4</ele>
        <time>2015-10-02T09:53:29Z</time>
      </trkpt>
      <trkpt lat="47.40713" lon="6.62797">
        <ele>407.431</ele>
        <time>2015-10-02T09:53:30Z</time>
      </trkpt>
      <trkpt lat="47.40711" lon="6.62797">
        <ele>406.911</ele>
        <time>2015-10-02T09:53:31Z</time>
      </trkpt>
      <trkpt lat="47.40709" lon="6.62797">
        <ele>407.466</ele>
        <time>2015-10-02T09:53:32Z</time>
      </trkpt>
      <trkpt lat="47.40707" lon="6.62798">
        <ele>407.859</ele>
        <time>2015-10-02T09:53:33Z</time>
      </trkpt>
      <trkpt lat="47.40706" lon="6.62798">
        <ele>407.877</ele>
        <time>2015-10-02T09:53:34Z</time>
      </trkpt>
      <trkpt lat="47.40704" lon="6.62799">
        <ele>408.184</ele>
        <time>2015-10-02T09:53:35Z</time>
      </trkpt>
      <trkpt lat="47.40702" lon="6.62799">
        <ele>408.538</ele>
        <time>2015-10-02T09:53:36Z</time>
      </trkpt>
      <trkpt lat="47.407" lon="6.62799">
        <ele>408.415</ele>
        <time>2015-10-02T09:53:37Z</time>
      </trkpt>
      <trkpt lat="47.40699" lon="6.62799">
        <ele>409.237</ele>
        <time>2015-10-02T09:53:38Z</time>
      </trkpt>
      <trkpt lat="47.40697" lon="6.62799">
        <ele>409.644</ele>
        <time>2015-10-02T09:53:39Z</time>
      </trkpt>
      <trkpt lat="47.40696" lon="6.62799">
        <ele>409.563</ele>
        <time>2015-10-02T09:53:40Z</time>
      </trkpt>
      <trkpt lat="47.40694" lon="6.628">
        <ele>410.061</ele>
        <time>2015-10-02T09:53:41Z</time>
      </trkpt>
      <trkpt lat="47.40693" lon="6.62801">
        <ele>409.854</ele>
        <time>2015-10-02T09:53:42Z</time>
      </trkpt>
      <trkpt lat="47.40691" lon="6.62803">
        <ele>410.606</ele>
        <time>2015-10-02T09:53:43Z</time>
      </trkpt>
      <trkpt lat="47.40689" lon="6.62804">
        <ele>410.97</ele>
        <time>2015-10-02T09:53:44Z</time>
      </trkpt>
      <trkpt lat="47.40687" lon="6.62804">
        <ele>411.547</ele>
        <time>2015-10-02T09:53:45Z</time>
      </trkpt>
      <trkpt lat="47.40684" lon="6.62804">
        <ele>411.493</ele>
        <time>2015-10-02T09:53:46Z</time>
      </trkpt>
      <trkpt lat="47.40682" lon="6.62804">
        <ele>411.456</ele>
        <time>2015-10-02T09:53:47Z</time>
      </trkpt>
      <trkpt lat="47.4068" lon="6.62804">
        <ele>411.752</ele>
        <time>2015-10-02T09:53:48Z</time>
      </trkpt>
      <trkpt lat="47.40678" lon="6.62804">
        <ele>412.111</ele>
        <time>2015-10-02T09:53:49Z</time>
      </trkpt>
      <trkpt lat="47.40676" lon="6.62805">
        <ele>411.706</ele>
        <time>2015-10-02T09:53:50Z</time>
      </trkpt>
      <trkpt lat="47.40675" lon="6.62806">
        <ele>411.454</ele>
        <time>2015-10-02T09:53:51Z</time>
      </trkpt>
      <trkpt lat="47.40674" lon="6.6281">
        <ele>410.211</ele>
        <time>2015-10-02T09:54:06Z</time>
      </trkpt>
      <trkpt lat="47.40672" lon="6.62811">
        <ele>409.819</ele>
        <time>2015-10-02T09:54:09Z</time>
      </trkpt>
      <trkpt lat="47.40671" lon="6.62812">
        <ele>409.767</ele>
        <time>2015-10-02T09:54:10Z</time>
      </trkpt>
      <trkpt lat="47.4067" lon="6.62813">
        <ele>409.811</ele>
        <time>2015-10-02T09:54:11Z</time>
      </trkpt>
      <trkpt lat="47.40669" lon="6.62815">
        <ele>409.608</ele>
        <time>2015-10-02T09:54:12Z</time>
      </trkpt>
      <trkpt lat="47.40669" lon="6.62817">
        <ele>409.633</ele>
        <time>2015-10-02T09:54:13Z</time>
      </trkpt>
      <trkpt lat="47.40668" lon="6.62818">
        <ele>409.415</ele>
        <time>2015-10-02T09:54:14Z</time>
      </trkpt>
      <trkpt lat="47.40668" lon="6.6282">
        <ele>409.391</ele>
        <time>2015-10-02T09:54:15Z</time>
      </trkpt>
      <trkpt lat="47.40668" lon="6.62822">
        <ele>408.892</ele>
        <time>2015-10-02T09:54:16Z</time>
      </trkpt>
      <trkpt lat="47.40667" lon="6.62823">
        <ele>409.098</ele>
        <time>2015-10-02T09:54:18Z</time>
      </trkpt>
      <trkpt lat="47.40668" lon="6.62822">
        <ele>410.424</ele>
        <time>2015-10-02T09:54:22Z</time>
      </trkpt>
      <trkpt lat="47.40669" lon="6.62822">
        <ele>410.277</ele>
        <time>2015-10-02T09:54:28Z</time>
      </trkpt>
      <trkpt lat="47.40671" lon="6.62822">
        <ele>410.488</ele>
        <time>2015-10-02T09:54:30Z</time>
      </trkpt>
      <trkpt lat="47.40672" lon="6.62822">
        <ele>410.081</ele>
        <time>2015-10-02T09:54:31Z</time>
      </trkpt>
      <trkpt lat="47.40673" lon="6.62821">
        <ele>410.317</ele>
        <time>2015-10-02T09:54:32Z</time>
      </trkpt>
      <trkpt lat="47.40674" lon="6.6282">
        <ele>410.94</ele>
        <time>2015-10-02T09:54:34Z</time>
      </trkpt>
      <trkpt lat="47.40674" lon="6.62817">
        <ele>412.071</ele>
        <time>2015-10-02T09:54:36Z</time>
      </trkpt>
      <trkpt lat="47.40674" lon="6.62815">
        <ele>411.312</ele>
        <time>2015-10-02T09:54:38Z</time>
      </trkpt>
      <trkpt lat="47.40675" lon="6.62814">
        <ele>410.53</ele>
        <time>2015-10-02T09:54:40Z</time>
      </trkpt>
      <trkpt lat="47.40676" lon="6.62814">
        <ele>410.844</ele>
        <time>2015-10-02T09:55:03Z</time>
      </trkpt>
      <trkpt lat="47.40677" lon="6.62816">
        <ele>410.96</ele>
        <time>2015-10-02T09:55:05Z</time>
      </trkpt>
      <trkpt lat="47.40671" lon="6.628">
        <ele>418.1</ele>
        <time>2015-10-02T10:03:03Z</time>
      </trkpt>
      <trkpt lat="47.40673" lon="6.62807">
        <ele>414.488</ele>
        <time>2015-10-02T10:03:10Z</time>
      </trkpt>
      <trkpt lat="47.40673" lon="6.62807">
        <ele>414.119</ele>
        <time>2015-10-02T10:03:28Z</time>
      </trkpt>
      <trkpt lat="47.40673" lon="6.62809">
        <ele>417.063</ele>
        <time>2015-10-02T10:04:24Z</time>
      </trkpt>
      <trkpt lat="47.40674" lon="6.62812">
        <ele>416.112</ele>
        <time>2015-10-02T10:04:33Z</time>
      </trkpt>
      <trkpt lat="47.40673" lon="6.6281">
        <ele>414.174</ele>
        <time>2015-10-02T10:04:35Z</time>
      </trkpt>
      <trkpt lat="47.40672" lon="6.62809">
        <ele>413.236</ele>
        <time>2015-10-02T10:04:37Z</time>
      </trkpt>
      <trkpt lat="47.40671" lon="6.6281">
        <ele>413.417</ele>
        <time>2015-10-02T10:05:09Z</time>
      </trkpt>
      <trkpt lat="47.4067" lon="6.62812">
        <ele>412.551</ele>
        <time>2015-10-02T10:05:11Z</time>
      </trkpt>
      <trkpt lat="47.4067" lon="6.62813">
        <ele>412.554</ele>
        <time>2015-10-02T10:05:13Z</time>
      </trkpt>
      <trkpt lat="47.4067" lon="6.62815">
        <ele>412.721</ele>
        <time>2015-10-02T10:05:15Z</time>
      </trkpt>
      <trkpt lat="47.40668" lon="6.62815">
        <ele>412.579</ele>
        <time>2015-10-02T10:05:17Z</time>
      </trkpt>
      <trkpt lat="47.40668" lon="6.62813">
        <ele>412.46</ele>
        <time>2015-10-02T10:05:21Z</time>
      </trkpt>
      <trkpt lat="47.40669" lon="6.62812">
        <ele>413.45</ele>
        <time>2015-10-02T10:05:37Z</time>
      </trkpt>
      <trkpt lat="47.40669" lon="6.6281">
        <ele>412.935</ele>
        <time>2015-10-02T10:05:38Z</time>
      </trkpt>
      <trkpt lat="47.40668" lon="6.62808">
        <ele>412.906</ele>
        <time>2015-10-02T10:05:39Z</time>
      </trkpt>
      <trkpt lat="47.40667" lon="6.62807">
        <ele>413.017</ele>
        <time>2015-10-02T10:05:40Z</time>
      </trkpt>
      <trkpt lat="47.40665" lon="6.62805">
        <ele>412.873</ele>
        <time>2015-10-02T10:05:41Z</time>
      </trkpt>
      <trkpt lat="47.40663" lon="6.62805">
        <ele>412.586</ele>
        <time>2015-10-02T10:05:42Z</time>
      </trkpt>
      <trkpt lat="47.40661" lon="6.62805">
        <ele>412.646</ele>
        <time>2015-10-02T10:05:43Z</time>
      </trkpt>
      <trkpt lat="47.40658" lon="6.62805">
        <ele>412.665</ele>
        <time>2015-10-02T10:05:44Z</time>
      </trkpt>
      <trkpt lat="47.40655" lon="6.62806">
        <ele>412.428</ele>
        <time>2015-10-02T10:05:45Z</time>
      </trkpt>
      <trkpt lat="47.40652" lon="6.62807">
        <ele>412.11</ele>
        <time>2015-10-02T10:05:46Z</time>
      </trkpt>
      <trkpt lat="47.40649" lon="6.62808">
        <ele>411.742</ele>
        <time>2015-10-02T10:05:47Z</time>
      </trkpt>
      <trkpt lat="47.40645" lon="6.62808">
        <ele>411.629</ele>
        <time>2015-10-02T10:05:48Z</time>
      </trkpt>
      <trkpt lat="47.40641" lon="6.62809">
        <ele>411.128</ele>
        <time>2015-10-02T10:05:49Z</time>
      </trkpt>
      <trkpt lat="47.40637" lon="6.6281">
        <ele>410.87</ele>
        <time>2015-10-02T10:05:50Z</time>
      </trkpt>
      <trkpt lat="47.40633" lon="6.6281">
        <ele>410.498</ele>
        <time>2015-10-02T10:05:51Z</time>
      </trkpt>
      <trkpt lat="47.40627" lon="6.62812">
        <ele>410.266</ele>
        <time>2015-10-02T10:05:52Z</time>
      </trkpt>
      <trkpt lat="47.40623" lon="6.62813">
        <ele>410.059</ele>
        <time>2015-10-02T10:05:53Z</time>
      </trkpt>
      <trkpt lat="47.40617" lon="6.62813">
        <ele>409.392</ele>
        <time>2015-10-02T10:05:54Z</time>
      </trkpt>
      <trkpt lat="47.40613" lon="6.62812">
        <ele>409.167</ele>
        <time>2015-10-02T10:05:55Z</time>
      </trkpt>
      <trkpt lat="47.40608" lon="6.62812">
        <ele>408.961</ele>
        <time>2015-10-02T10:05:56Z</time>
      </trkpt>
      <trkpt lat="47.40602" lon="6.62813">
        <ele>409.193</ele>
        <time>2015-10-02T10:05:57Z</time>
      </trkpt>
      <trkpt lat="47.40597" lon="6.62814">
        <ele>408.567</ele>
        <time>2015-10-02T10:05:58Z</time>
      </trkpt>
      <trkpt lat="47.40591" lon="6.62815">
        <ele>409.196</ele>
        <time>2015-10-02T10:05:59Z</time>
      </trkpt>
      <trkpt lat="47.40586" lon="6.62815">
        <ele>408.771</ele>
        <time>2015-10-02T10:06:00Z</time>
      </trkpt>
      <trkpt lat="47.4058" lon="6.62816">
        <ele>408.625</ele>
        <time>2015-10-02T10:06:01Z</time>
      </trkpt>
      <trkpt lat="47.40574" lon="6.62817">
        <ele>408.561</ele>
        <time>2015-10-02T10:06:02Z</time>
      </trkpt>
      <trkpt lat="47.40568" lon="6.62818">
        <ele>408.724</ele>
        <time>2015-10-02T10:06:03Z</time>
      </trkpt>
      <trkpt lat="47.40561" lon="6.6282">
        <ele>408.514</ele>
        <time>2015-10-02T10:06:04Z</time>
      </trkpt>
      <trkpt lat="47.40554" lon="6.62821">
        <ele>407.415</ele>
        <time>2015-10-02T10:06:05Z</time>
      </trkpt>
      <trkpt lat="47.40548" lon="6.62822">
        <ele>408.311</ele>
        <time>2015-10-02T10:06:06Z</time>
      </trkpt>
      <trkpt lat="47.40541" lon="6.62821">
        <ele>407.904</ele>
        <time>2015-10-02T10:06:07Z</time>
      </trkpt>
      <trkpt lat="47.40534" lon="6.62821">
        <ele>407.17</ele>
        <time>2015-10-02T10:06:08Z</time>
      </trkpt>
      <trkpt lat="47.40528" lon="6.62821">
        <ele>407.541</ele>
        <time>2015-10-02T10:06:09Z</time>
      </trkpt>
      <trkpt lat="47.4052" lon="6.62821">
        <ele>409.129</ele>
        <time>2015-10-02T10:06:10Z</time>
      </trkpt>
      <trkpt lat="47.40513" lon="6.62821">
        <ele>409.146</ele>
        <time>2015-10-02T10:06:11Z</time>
      </trkpt>
      <trkpt lat="47.40505" lon="6.62822">
        <ele>409.789</ele>
        <time>2015-10-02T10:06:12Z</time>
      </trkpt>
      <trkpt lat="47.40498" lon="6.62822">
        <ele>411.069</ele>
        <time>2015-10-02T10:06:13Z</time>
      </trkpt>
      <trkpt lat="47.40491" lon="6.62824">
        <ele>410.273</ele>
        <time>2015-10-02T10:06:14Z</time>
      </trkpt>
      <trkpt lat="47.40485" lon="6.62828">
        <ele>409.696</ele>
        <time>2015-10-02T10:06:15Z</time>
      </trkpt>
      <trkpt lat="47.40477" lon="6.6283">
        <ele>408.122</ele>
        <time>2015-10-02T10:06:16Z</time>
      </trkpt>
      <trkpt lat="47.40471" lon="6.62836">
        <ele>407.198</ele>
        <time>2015-10-02T10:06:17Z</time>
      </trkpt>
      <trkpt lat="47.40465" lon="6.62841">
        <ele>406.457</ele>
        <time>2015-10-02T10:06:18Z</time>
      </trkpt>
      <trkpt lat="47.40457" lon="6.62848">
        <ele>405.696</ele>
        <time>2015-10-02T10:06:19Z</time>
      </trkpt>
      <trkpt lat="47.40453" lon="6.62857">
        <ele>404.078</ele>
        <time>2015-10-02T10:06:20Z</time>
      </trkpt>
      <trkpt lat="47.40449" lon="6.62868">
        <ele>404.745</ele>
        <time>2015-10-02T10:06:21Z</time>
      </trkpt>
      <trkpt lat="47.40445" lon="6.62879">
        <ele>405.396</ele>
        <time>2015-10-02T10:06:22Z</time>
      </trkpt>
      <trkpt lat="47.40441" lon="6.62892">
        <ele>404.874</ele>
        <time>2015-10-02T10:06:23Z</time>
      </trkpt>
      <trkpt lat="47.40438" lon="6.62898">
        <ele>403.594</ele>
        <time>2015-10-02T10:06:24Z</time>
      </trkpt>
      <trkpt lat="47.40434" lon="6.62908">
        <ele>402.992</ele>
        <time>2015-10-02T10:06:25Z</time>
      </trkpt>
      <trkpt lat="47.40429" lon="6.62914">
        <ele>399.574</ele>
        <time>2015-10-02T10:06:26Z</time>
      </trkpt>
      <trkpt lat="47.40424" lon="6.62922">
        <ele>400.632</ele>
        <time>2015-10-02T10:06:27Z</time>
      </trkpt>
      <trkpt lat="47.40417" lon="6.62928">
        <ele>400.207</ele>
        <time>2015-10-02T10:06:28Z</time>
      </trkpt>
      <trkpt lat="47.40411" lon="6.62935">
        <ele>402.536</ele>
        <time>2015-10-02T10:06:29Z</time>
      </trkpt>
      <trkpt lat="47.40403" lon="6.6294">
        <ele>403.06</ele>
        <time>2015-10-02T10:06:30Z</time>
      </trkpt>
      <trkpt lat="47.40395" lon="6.62947">
        <ele>403.167</ele>
        <time>2015-10-02T10:06:31Z</time>
      </trkpt>
      <trkpt lat="47.40388" lon="6.62952">
        <ele>402.881</ele>
        <time>2015-10-02T10:06:32Z</time>
      </trkpt>
      <trkpt lat="47.4038" lon="6.62955">
        <ele>401.096</ele>
        <time>2015-10-02T10:06:33Z</time>
      </trkpt>
      <trkpt lat="47.40372" lon="6.62957">
        <ele>400.501</ele>
        <time>2015-10-02T10:06:34Z</time>
      </trkpt>
      <trkpt lat="47.40363" lon="6.6296">
        <ele>400.299</ele>
        <time>2015-10-02T10:06:35Z</time>
      </trkpt>
      <trkpt lat="47.40355" lon="6.62965">
        <ele>399.661</ele>
        <time>2015-10-02T10:06:36Z</time>
      </trkpt>
      <trkpt lat="47.40346" lon="6.62968">
        <ele>399.502</ele>
        <time>2015-10-02T10:06:37Z</time>
      </trkpt>
      <trkpt lat="47.40338" lon="6.62973">
        <ele>398.995</ele>
        <time>2015-10-02T10:06:38Z</time>
      </trkpt>
      <trkpt lat="47.40331" lon="6.62978">
        <ele>399.032</ele>
        <time>2015-10-02T10:06:39Z</time>
      </trkpt>
      <trkpt lat="47.40324" lon="6.62982">
        <ele>399.404</ele>
        <time>2015-10-02T10:06:40Z</time>
      </trkpt>
      <trkpt lat="47.40315" lon="6.62988">
        <ele>401.55</ele>
        <time>2015-10-02T10:06:41Z</time>
      </trkpt>
      <trkpt lat="47.40308" lon="6.62992">
        <ele>398.969</ele>
        <time>2015-10-02T10:06:42Z</time>
      </trkpt>
      <trkpt lat="47.40302" lon="6.62997">
        <ele>396.42</ele>
        <time>2015-10-02T10:06:43Z</time>
      </trkpt>
      <trkpt lat="47.40297" lon="6.63005">
        <ele>395.688</ele>
        <time>2015-10-02T10:06:44Z</time>
      </trkpt>
      <trkpt lat="47.40292" lon="6.63016">
        <ele>395.783</ele>
        <time>2015-10-02T10:06:45Z</time>
      </trkpt>
      <trkpt lat="47.40286" lon="6.63026">
        <ele>396.346</ele>
        <time>2015-10-02T10:06:46Z</time>
      </trkpt>
      <trkpt lat="47.40279" lon="6.63036">
        <ele>396.424</ele>
        <time>2015-10-02T10:06:47Z</time>
      </trkpt>
      <trkpt lat="47.40272" lon="6.63045">
        <ele>395.311</ele>
        <time>2015-10-02T10:06:48Z</time>
      </trkpt>
      <trkpt lat="47.40263" lon="6.63051">
        <ele>394.676</ele>
        <time>2015-10-02T10:06:49Z</time>
      </trkpt>
      <trkpt lat="47.40255" lon="6.63056">
        <ele>393.902</ele>
        <time>2015-10-02T10:06:50Z</time>
      </trkpt>
      <trkpt lat="47.40247" lon="6.6306">
        <ele>393.048</ele>
        <time>2015-10-02T10:06:51Z</time>
      </trkpt>
      <trkpt lat="47.4024" lon="6.63065">
        <ele>391.642</ele>
        <time>2015-10-02T10:06:52Z</time>
      </trkpt>
      <trkpt lat="47.40233" lon="6.63067">
        <ele>390.514</ele>
        <time>2015-10-02T10:06:53Z</time>
      </trkpt>
      <trkpt lat="47.40223" lon="6.63074">
        <ele>390.712</ele>
        <time>2015-10-02T10:06:54Z</time>
      </trkpt>
      <trkpt lat="47.40215" lon="6.63078">
        <ele>390.85</ele>
        <time>2015-10-02T10:06:55Z</time>
      </trkpt>
      <trkpt lat="47.40208" lon="6.63085">
        <ele>390.478</ele>
        <time>2015-10-02T10:06:56Z</time>
      </trkpt>
      <trkpt lat="47.40198" lon="6.63093">
        <ele>389.382</ele>
        <time>2015-10-02T10:06:57Z</time>
      </trkpt>
      <trkpt lat="47.4019" lon="6.63101">
        <ele>389.645</ele>
        <time>2015-10-02T10:06:58Z</time>
      </trkpt>
      <trkpt lat="47.40184" lon="6.63108">
        <ele>388.354</ele>
        <time>2015-10-02T10:06:59Z</time>
      </trkpt>
      <trkpt lat="47.40178" lon="6.63113">
        <ele>387.774</ele>
        <time>2015-10-02T10:07:00Z</time>
      </trkpt>
      <trkpt lat="47.40171" lon="6.63124">
        <ele>388.96</ele>
        <time>2015-10-02T10:07:01Z</time>
      </trkpt>
      <trkpt lat="47.40163" lon="6.63135">
        <ele>389.234</ele>
        <time>2015-10-02T10:07:02Z</time>
      </trkpt>
      <trkpt lat="47.40157" lon="6.63145">
        <ele>388.539</ele>
        <time>2015-10-02T10:07:03Z</time>
      </trkpt>
      <trkpt lat="47.40149" lon="6.63151">
        <ele>389.349</ele>
        <time>2015-10-02T10:07:04Z</time>
      </trkpt>
      <trkpt lat="47.40142" lon="6.6316">
        <ele>388.576</ele>
        <time>2015-10-02T10:07:05Z</time>
      </trkpt>
      <trkpt lat="47.40134" lon="6.63171">
        <ele>387.592</ele>
        <time>2015-10-02T10:07:06Z</time>
      </trkpt>
      <trkpt lat="47.40128" lon="6.63179">
        <ele>387.248</ele>
        <time>2015-10-02T10:07:07Z</time>
      </trkpt>
      <trkpt lat="47.40125" lon="6.63189">
        <ele>385.933</ele>
        <time>2015-10-02T10:07:08Z</time>
      </trkpt>
      <trkpt lat="47.4012" lon="6.63199">
        <ele>385.209</ele>
        <time>2015-10-02T10:07:09Z</time>
      </trkpt>
      <trkpt lat="47.40116" lon="6.63211">
        <ele>385.765</ele>
        <time>2015-10-02T10:07:10Z</time>
      </trkpt>
      <trkpt lat="47.40113" lon="6.63221">
        <ele>384.896</ele>
        <time>2015-10-02T10:07:11Z</time>
      </trkpt>
      <trkpt lat="47.4011" lon="6.63231">
        <ele>383.78</ele>
        <time>2015-10-02T10:07:12Z</time>
      </trkpt>
      <trkpt lat="47.40107" lon="6.63241">
        <ele>383.641</ele>
        <time>2015-10-02T10:07:13Z</time>
      </trkpt>
      <trkpt lat="47.40104" lon="6.6325">
        <ele>383.92</ele>
        <time>2015-10-02T10:07:14Z</time>
      </trkpt>
      <trkpt lat="47.40101" lon="6.63258">
        <ele>383.424</ele>
        <time>2015-10-02T10:07:15Z</time>
      </trkpt>
      <trkpt lat="47.40099" lon="6.63267">
        <ele>383.085</ele>
        <time>2015-10-02T10:07:16Z</time>
      </trkpt>
      <trkpt lat="47.40096" lon="6.63276">
        <ele>382.79</ele>
        <time>2015-10-02T10:07:17Z</time>
      </trkpt>
      <trkpt lat="47.40093" lon="6.63285">
        <ele>382.856</ele>
        <time>2015-10-02T10:07:18Z</time>
      </trkpt>
      <trkpt lat="47.40091" lon="6.63293">
        <ele>382.989</ele>
        <time>2015-10-02T10:07:19Z</time>
      </trkpt>
      <trkpt lat="47.40089" lon="6.633">
        <ele>382.852</ele>
        <time>2015-10-02T10:07:20Z</time>
      </trkpt>
      <trkpt lat="47.40086" lon="6.63307">
        <ele>382.599</ele>
        <time>2015-10-02T10:07:21Z</time>
      </trkpt>
      <trkpt lat="47.40084" lon="6.63314">
        <ele>382.461</ele>
        <time>2015-10-02T10:07:22Z</time>
      </trkpt>
      <trkpt lat="47.4008" lon="6.6332">
        <ele>382.296</ele>
        <time>2015-10-02T10:07:23Z</time>
      </trkpt>
      <trkpt lat="47.40077" lon="6.63325">
        <ele>381.476</ele>
        <time>2015-10-02T10:07:24Z</time>
      </trkpt>
      <trkpt lat="47.40074" lon="6.6333">
        <ele>381.436</ele>
        <time>2015-10-02T10:07:25Z</time>
      </trkpt>
      <trkpt lat="47.40071" lon="6.63336">
        <ele>381.801</ele>
        <time>2015-10-02T10:07:26Z</time>
      </trkpt>
      <trkpt lat="47.40068" lon="6.63341">
        <ele>381.615</ele>
        <time>2015-10-02T10:07:27Z</time>
      </trkpt>
      <trkpt lat="47.40064" lon="6.63345">
        <ele>381.843</ele>
        <time>2015-10-02T10:07:28Z</time>
      </trkpt>
      <trkpt lat="47.40061" lon="6.63349">
        <ele>382.043</ele>
        <time>2015-10-02T10:07:29Z</time>
      </trkpt>
      <trkpt lat="47.40058" lon="6.63353">
        <ele>383.35</ele>
        <time>2015-10-02T10:07:30Z</time>
      </trkpt>
      <trkpt lat="47.40054" lon="6.63356">
        <ele>384.189</ele>
        <time>2015-10-02T10:07:31Z</time>
      </trkpt>
      <trkpt lat="47.4005" lon="6.63358">
        <ele>383.739</ele>
        <time>2015-10-02T10:07:32Z</time>
      </trkpt>
      <trkpt lat="47.40047" lon="6.63361">
        <ele>383.982</ele>
        <time>2015-10-02T10:07:33Z</time>
      </trkpt>
      <trkpt lat="47.40043" lon="6.63365">
        <ele>384.363</ele>
        <time>2015-10-02T10:07:34Z</time>
      </trkpt>
      <trkpt lat="47.4004" lon="6.63369">
        <ele>384.751</ele>
        <time>2015-10-02T10:07:35Z</time>
      </trkpt>
      <trkpt lat="47.40037" lon="6.63372">
        <ele>385.392</ele>
        <time>2015-10-02T10:07:36Z</time>
      </trkpt>
      <trkpt lat="47.40034" lon="6.63375">
        <ele>385.407</ele>
        <time>2015-10-02T10:07:37Z</time>
      </trkpt>
      <trkpt lat="47.4003" lon="6.63378">
        <ele>385.74</ele>
        <time>2015-10-02T10:07:38Z</time>
      </trkpt>
      <trkpt lat="47.40028" lon="6.6338">
        <ele>386.17</ele>
        <time>2015-10-02T10:07:39Z</time>
      </trkpt>
      <trkpt lat="47.40025" lon="6.63383">
        <ele>386.764</ele>
        <time>2015-10-02T10:07:40Z</time>
      </trkpt>
      <trkpt lat="47.40021" lon="6.63386">
        <ele>386.807</ele>
        <time>2015-10-02T10:07:41Z</time>
      </trkpt>
      <trkpt lat="47.40018" lon="6.63389">
        <ele>386.762</ele>
        <time>2015-10-02T10:07:42Z</time>
      </trkpt>
      <trkpt lat="47.40015" lon="6.63392">
        <ele>387.156</ele>
        <time>2015-10-02T10:07:43Z</time>
      </trkpt>
      <trkpt lat="47.40012" lon="6.63394">
        <ele>387.005</ele>
        <time>2015-10-02T10:07:44Z</time>
      </trkpt>
      <trkpt lat="47.40009" lon="6.63397">
        <ele>387.423</ele>
        <time>2015-10-02T10:07:45Z</time>
      </trkpt>
      <trkpt lat="47.40006" lon="6.634">
        <ele>386.991</ele>
        <time>2015-10-02T10:07:46Z</time>
      </trkpt>
      <trkpt lat="47.40003" lon="6.63403">
        <ele>387.41</ele>
        <time>2015-10-02T10:07:47Z</time>
      </trkpt>
      <trkpt lat="47.4" lon="6.63406">
        <ele>387.86</ele>
        <time>2015-10-02T10:07:48Z</time>
      </trkpt>
      <trkpt lat="47.39997" lon="6.63409">
        <ele>388.831</ele>
        <time>2015-10-02T10:07:49Z</time>
      </trkpt>
      <trkpt lat="47.39994" lon="6.63413">
        <ele>388.676</ele>
        <time>2015-10-02T10:07:50Z</time>
      </trkpt>
      <trkpt lat="47.39991" lon="6.63416">
        <ele>388.696</ele>
        <time>2015-10-02T10:07:51Z</time>
      </trkpt>
      <trkpt lat="47.39989" lon="6.6342">
        <ele>388.875</ele>
        <time>2015-10-02T10:07:52Z</time>
      </trkpt>
      <trkpt lat="47.39986" lon="6.63424">
        <ele>388.178</ele>
        <time>2015-10-02T10:07:53Z</time>
      </trkpt>
      <trkpt lat="47.39983" lon="6.63428">
        <ele>388.342</ele>
        <time>2015-10-02T10:07:54Z</time>
      </trkpt>
      <trkpt lat="47.3998" lon="6.63432">
        <ele>388.654</ele>
        <time>2015-10-02T10:07:55Z</time>
      </trkpt>
      <trkpt lat="47.39977" lon="6.63436">
        <ele>388.414</ele>
        <time>2015-10-02T10:07:56Z</time>
      </trkpt>
      <trkpt lat="47.39974" lon="6.6344">
        <ele>388.614</ele>
        <time>2015-10-02T10:07:57Z</time>
      </trkpt>
      <trkpt lat="47.39971" lon="6.63444">
        <ele>388.736</ele>
        <time>2015-10-02T10:07:58Z</time>
      </trkpt>
      <trkpt lat="47.39968" lon="6.63449">
        <ele>388.853</ele>
        <time>2015-10-02T10:07:59Z</time>
      </trkpt>
      <trkpt lat="47.39965" lon="6.63454">
        <ele>389.258</ele>
        <time>2015-10-02T10:08:00Z</time>
      </trkpt>
      <trkpt lat="47.39962" lon="6.63459">
        <ele>389.344</ele>
        <time>2015-10-02T10:08:01Z</time>
      </trkpt>
      <trkpt lat="47.3996" lon="6.63464">
        <ele>388.94</ele>
        <time>2015-10-02T10:08:02Z</time>
      </trkpt>
      <trkpt lat="47.39958" lon="6.63469">
        <ele>388.67</ele>
        <time>2015-10-02T10:08:03Z</time>
      </trkpt>
      <trkpt lat="47.39957" lon="6.63475">
        <ele>388.761</ele>
        <time>2015-10-02T10:08:04Z</time>
      </trkpt>
      <trkpt lat="47.39955" lon="6.63481">
        <ele>386.868</ele>
        <time>2015-10-02T10:08:05Z</time>
      </trkpt>
      <trkpt lat="47.39954" lon="6.63487">
        <ele>386.785</ele>
        <time>2015-10-02T10:08:06Z</time>
      </trkpt>
      <trkpt lat="47.39952" lon="6.63493">
        <ele>386.2</ele>
        <time>2015-10-02T10:08:07Z</time>
      </trkpt>
      <trkpt lat="47.39951" lon="6.63499">
        <ele>384.578</ele>
        <time>2015-10-02T10:08:08Z</time>
      </trkpt>
      <trkpt lat="47.3995" lon="6.63505">
        <ele>384.927</ele>
        <time>2015-10-02T10:08:09Z</time>
      </trkpt>
      <trkpt lat="47.39948" lon="6.6351">
        <ele>384.688</ele>
        <time>2015-10-02T10:08:10Z</time>
      </trkpt>
      <trkpt lat="47.39946" lon="6.63515">
        <ele>384.455</ele>
        <time>2015-10-02T10:08:11Z</time>
      </trkpt>
      <trkpt lat="47.39945" lon="6.63519">
        <ele>385.367</ele>
        <time>2015-10-02T10:08:12Z</time>
      </trkpt>
      <trkpt lat="47.39943" lon="6.63525">
        <ele>385.297</ele>
        <time>2015-10-02T10:08:13Z</time>
      </trkpt>
      <trkpt lat="47.39942" lon="6.63531">
        <ele>384.443</ele>
        <time>2015-10-02T10:08:14Z</time>
      </trkpt>
      <trkpt lat="47.39941" lon="6.63537">
        <ele>386.478</ele>
        <time>2015-10-02T10:08:15Z</time>
      </trkpt>
      <trkpt lat="47.39939" lon="6.63542">
        <ele>387.298</ele>
        <time>2015-10-02T10:08:16Z</time>
      </trkpt>
      <trkpt lat="47.39938" lon="6.63546">
        <ele>388.273</ele>
        <time>2015-10-02T10:08:17Z</time>
      </trkpt>
      <trkpt lat="47.39937" lon="6.63551">
        <ele>387.896</ele>
        <time>2015-10-02T10:08:18Z</time>
      </trkpt>
      <trkpt lat="47.39935" lon="6.63555">
        <ele>387.709</ele>
        <time>2015-10-02T10:08:19Z</time>
      </trkpt>
      <trkpt lat="47.39933" lon="6.63559">
        <ele>388.446</ele>
        <time>2015-10-02T10:08:20Z</time>
      </trkpt>
      <trkpt lat="47.39931" lon="6.63562">
        <ele>387.929</ele>
        <time>2015-10-02T10:08:21Z</time>
      </trkpt>
      <trkpt lat="47.39929" lon="6.63566">
        <ele>388.427</ele>
        <time>2015-10-02T10:08:22Z</time>
      </trkpt>
      <trkpt lat="47.39927" lon="6.6357">
        <ele>388.49</ele>
        <time>2015-10-02T10:08:23Z</time>
      </trkpt>
      <trkpt lat="47.39925" lon="6.63574">
        <ele>389.753</ele>
        <time>2015-10-02T10:08:24Z</time>
      </trkpt>
      <trkpt lat="47.39922" lon="6.63578">
        <ele>390.229</ele>
        <time>2015-10-02T10:08:25Z</time>
      </trkpt>
      <trkpt lat="47.39921" lon="6.63581">
        <ele>390.606</ele>
        <time>2015-10-02T10:08:26Z</time>
      </trkpt>
      <trkpt lat="47.39919" lon="6.63585">
        <ele>391.795</ele>
        <time>2015-10-02T10:08:27Z</time>
      </trkpt>
      <trkpt lat="47.39917" lon="6.6359">
        <ele>392.513</ele>
        <time>2015-10-02T10:08:28Z</time>
      </trkpt>
      <trkpt lat="47.39915" lon="6.63594">
        <ele>393.026</ele>
        <time>2015-10-02T10:08:29Z</time>
      </trkpt>
      <trkpt lat="47.39913" lon="6.63599">
        <ele>393.163</ele>
        <time>2015-10-02T10:08:30Z</time>
      </trkpt>
      <trkpt lat="47.39911" lon="6.63603">
        <ele>393.01</ele>
        <time>2015-10-02T10:08:31Z</time>
      </trkpt>
      <trkpt lat="47.39909" lon="6.63608">
        <ele>393.539</ele>
        <time>2015-10-02T10:08:32Z</time>
      </trkpt>
      <trkpt lat="47.39908" lon="6.63613">
        <ele>393.192</ele>
        <time>2015-10-02T10:08:33Z</time>
      </trkpt>
      <trkpt lat="47.39906" lon="6.63617">
        <ele>393.456</ele>
        <time>2015-10-02T10:08:34Z</time>
      </trkpt>
      <trkpt lat="47.39904" lon="6.63622">
        <ele>393.07</ele>
        <time>2015-10-02T10:08:35Z</time>
      </trkpt>
      <trkpt lat="47.39902" lon="6.63625">
        <ele>392.992</ele>
        <time>2015-10-02T10:08:36Z</time>
      </trkpt>
      <trkpt lat="47.399" lon="6.63627">
        <ele>393.311</ele>
        <time>2015-10-02T10:08:37Z</time>
      </trkpt>
      <trkpt lat="47.39898" lon="6.63629">
        <ele>391.835</ele>
        <time>2015-10-02T10:08:38Z</time>
      </trkpt>
      <trkpt lat="47.39896" lon="6.63632">
        <ele>392.426</ele>
        <time>2015-10-02T10:08:39Z</time>
      </trkpt>
      <trkpt lat="47.39894" lon="6.63636">
        <ele>392.827</ele>
        <time>2015-10-02T10:08:40Z</time>
      </trkpt>
      <trkpt lat="47.39892" lon="6.6364">
        <ele>396.293</ele>
        <time>2015-10-02T10:08:41Z</time>
      </trkpt>
      <trkpt lat="47.3989" lon="6.63644">
        <ele>398.303</ele>
        <time>2015-10-02T10:08:42Z</time>
      </trkpt>
      <trkpt lat="47.39888" lon="6.63648">
        <ele>395.951</ele>
        <time>2015-10-02T10:08:43Z</time>
      </trkpt>
      <trkpt lat="47.39885" lon="6.63653">
        <ele>395.041</ele>
        <time>2015-10-02T10:08:44Z</time>
      </trkpt>
      <trkpt lat="47.39883" lon="6.63658">
        <ele>395.118</ele>
        <time>2015-10-02T10:08:45Z</time>
      </trkpt>
      <trkpt lat="47.39881" lon="6.63662">
        <ele>394.476</ele>
        <time>2015-10-02T10:08:46Z</time>
      </trkpt>
      <trkpt lat="47.39878" lon="6.63665">
        <ele>394.816</ele>
        <time>2015-10-02T10:08:47Z</time>
      </trkpt>
      <trkpt lat="47.39875" lon="6.63669">
        <ele>394.477</ele>
        <time>2015-10-02T10:08:48Z</time>
      </trkpt>
      <trkpt lat="47.39872" lon="6.63674">
        <ele>394.717</ele>
        <time>2015-10-02T10:08:49Z</time>
      </trkpt>
      <trkpt lat="47.3987" lon="6.63679">
        <ele>395.235</ele>
        <time>2015-10-02T10:08:50Z</time>
      </trkpt>
      <trkpt lat="47.39868" lon="6.63684">
        <ele>395.219</ele>
        <time>2015-10-02T10:08:51Z</time>
      </trkpt>
      <trkpt lat="47.39865" lon="6.63689">
        <ele>394.851</ele>
        <time>2015-10-02T10:08:52Z</time>
      </trkpt>
      <trkpt lat="47.39863" lon="6.63694">
        <ele>395.356</ele>
        <time>2015-10-02T10:08:53Z</time>
      </trkpt>
      <trkpt lat="47.3986" lon="6.63698">
        <ele>395.804</ele>
        <time>2015-10-02T10:08:54Z</time>
      </trkpt>
      <trkpt lat="47.39858" lon="6.63703">
        <ele>396.785</ele>
        <time>2015-10-02T10:08:55Z</time>
      </trkpt>
      <trkpt lat="47.39855" lon="6.63707">
        <ele>396.801</ele>
        <time>2015-10-02T10:08:56Z</time>
      </trkpt>
      <trkpt lat="47.39853" lon="6.63711">
        <ele>397.128</ele>
        <time>2015-10-02T10:08:57Z</time>
      </trkpt>
      <trkpt lat="47.3985" lon="6.63715">
        <ele>396.538</ele>
        <time>2015-10-02T10:08:58Z</time>
      </trkpt>
      <trkpt lat="47.39847" lon="6.63718">
        <ele>395.891</ele>
        <time>2015-10-02T10:08:59Z</time>
      </trkpt>
      <trkpt lat="47.39845" lon="6.63721">
        <ele>396.267</ele>
        <time>2015-10-02T10:09:00Z</time>
      </trkpt>
      <trkpt lat="47.39842" lon="6.63724">
        <ele>398.702</ele>
        <time>2015-10-02T10:09:01Z</time>
      </trkpt>
      <trkpt lat="47.3984" lon="6.63727">
        <ele>398.499</ele>
        <time>2015-10-02T10:09:02Z</time>
      </trkpt>
      <trkpt lat="47.39838" lon="6.63731">
        <ele>398.113</ele>
        <time>2015-10-02T10:09:03Z</time>
      </trkpt>
      <trkpt lat="47.39835" lon="6.63734">
        <ele>397.972</ele>
        <time>2015-10-02T10:09:04Z</time>
      </trkpt>
      <trkpt lat="47.39833" lon="6.63737">
        <ele>398.502</ele>
        <time>2015-10-02T10:09:05Z</time>
      </trkpt>
      <trkpt lat="47.3983" lon="6.63739">
        <ele>398.576</ele>
        <time>2015-10-02T10:09:06Z</time>
      </trkpt>
      <trkpt lat="47.39827" lon="6.63741">
        <ele>398.143</ele>
        <time>2015-10-02T10:09:07Z</time>
      </trkpt>
      <trkpt lat="47.39824" lon="6.63742">
        <ele>398.005</ele>
        <time>2015-10-02T10:09:08Z</time>
      </trkpt>
      <trkpt lat="47.39822" lon="6.63743">
        <ele>397.623</ele>
        <time>2015-10-02T10:09:09Z</time>
      </trkpt>
      <trkpt lat="47.39819" lon="6.63745">
        <ele>397.975</ele>
        <time>2015-10-02T10:09:10Z</time>
      </trkpt>
      <trkpt lat="47.39816" lon="6.63746">
        <ele>398.424</ele>
        <time>2015-10-02T10:09:11Z</time>
      </trkpt>
      <trkpt lat="47.39813" lon="6.63747">
        <ele>397.283</ele>
        <time>2015-10-02T10:09:12Z</time>
      </trkpt>
      <trkpt lat="47.39811" lon="6.63749">
        <ele>397.006</ele>
        <time>2015-10-02T10:09:13Z</time>
      </trkpt>
      <trkpt lat="47.39808" lon="6.6375">
        <ele>397.552</ele>
        <time>2015-10-02T10:09:14Z</time>
      </trkpt>
      <trkpt lat="47.39805" lon="6.63751">
        <ele>398.41</ele>
        <time>2015-10-02T10:09:15Z</time>
      </trkpt>
      <trkpt lat="47.39802" lon="6.63752">
        <ele>396.657</ele>
        <time>2015-10-02T10:09:16Z</time>
      </trkpt>
      <trkpt lat="47.39799" lon="6.63753">
        <ele>397.76</ele>
        <time>2015-10-02T10:09:17Z</time>
      </trkpt>
      <trkpt lat="47.39797" lon="6.63754">
        <ele>397.621</ele>
        <time>2015-10-02T10:09:18Z</time>
      </trkpt>
      <trkpt lat="47.39794" lon="6.63755">
        <ele>397.596</ele>
        <time>2015-10-02T10:09:19Z</time>
      </trkpt>
      <trkpt lat="47.39792" lon="6.63757">
        <ele>397.464</ele>
        <time>2015-10-02T10:09:20Z</time>
      </trkpt>
      <trkpt lat="47.39789" lon="6.63759">
        <ele>397.06</ele>
        <time>2015-10-02T10:09:21Z</time>
      </trkpt>
      <trkpt lat="47.39786" lon="6.6376">
        <ele>397.02</ele>
        <time>2015-10-02T10:09:22Z</time>
      </trkpt>
      <trkpt lat="47.39783" lon="6.63762">
        <ele>397.453</ele>
        <time>2015-10-02T10:09:23Z</time>
      </trkpt>
      <trkpt lat="47.3978" lon="6.63763">
        <ele>397.816</ele>
        <time>2015-10-02T10:09:24Z</time>
      </trkpt>
      <trkpt lat="47.39777" lon="6.63765">
        <ele>397.539</ele>
        <time>2015-10-02T10:09:25Z</time>
      </trkpt>
      <trkpt lat="47.39774" lon="6.63766">
        <ele>397.677</ele>
        <time>2015-10-02T10:09:26Z</time>
      </trkpt>
      <trkpt lat="47.39772" lon="6.63767">
        <ele>398.222</ele>
        <time>2015-10-02T10:09:27Z</time>
      </trkpt>
      <trkpt lat="47.39768" lon="6.63769">
        <ele>398.21</ele>
        <time>2015-10-02T10:09:28Z</time>
      </trkpt>
      <trkpt lat="47.39765" lon="6.6377">
        <ele>398.372</ele>
        <time>2015-10-02T10:09:29Z</time>
      </trkpt>
      <trkpt lat="47.39763" lon="6.63771">
        <ele>399.083</ele>
        <time>2015-10-02T10:09:30Z</time>
      </trkpt>
      <trkpt lat="47.3976" lon="6.63772">
        <ele>400.526</ele>
        <time>2015-10-02T10:09:31Z</time>
      </trkpt>
      <trkpt lat="47.39757" lon="6.63773">
        <ele>401.451</ele>
        <time>2015-10-02T10:09:32Z</time>
      </trkpt>
      <trkpt lat="47.39754" lon="6.63774">
        <ele>402.476</ele>
        <time>2015-10-02T10:09:33Z</time>
      </trkpt>
      <trkpt lat="47.39751" lon="6.63775">
        <ele>403.141</ele>
        <time>2015-10-02T10:09:34Z</time>
      </trkpt>
      <trkpt lat="47.39748" lon="6.63776">
        <ele>403.648</ele>
        <time>2015-10-02T10:09:35Z</time>
      </trkpt>
      <trkpt lat="47.39745" lon="6.63777">
        <ele>404.013</ele>
        <time>2015-10-02T10:09:36Z</time>
      </trkpt>
      <trkpt lat="47.39742" lon="6.63779">
        <ele>404.627</ele>
        <time>2015-10-02T10:09:37Z</time>
      </trkpt>
      <trkpt lat="47.3974" lon="6.6378">
        <ele>405.229</ele>
        <time>2015-10-02T10:09:38Z</time>
      </trkpt>
      <trkpt lat="47.39737" lon="6.63781">
        <ele>405.56</ele>
        <time>2015-10-02T10:09:39Z</time>
      </trkpt>
      <trkpt lat="47.39733" lon="6.63783">
        <ele>405.781</ele>
        <time>2015-10-02T10:09:40Z</time>
      </trkpt>
      <trkpt lat="47.3973" lon="6.63784">
        <ele>406.082</ele>
        <time>2015-10-02T10:09:41Z</time>
      </trkpt>
      <trkpt lat="47.39727" lon="6.63785">
        <ele>406.543</ele>
        <time>2015-10-02T10:09:42Z</time>
      </trkpt>
      <trkpt lat="47.39723" lon="6.63787">
        <ele>405.949</ele>
        <time>2015-10-02T10:09:43Z</time>
      </trkpt>
      <trkpt lat="47.39719" lon="6.63788">
        <ele>404.523</ele>
        <time>2015-10-02T10:09:44Z</time>
      </trkpt>
      <trkpt lat="47.39716" lon="6.6379">
        <ele>403.808</ele>
        <time>2015-10-02T10:09:45Z</time>
      </trkpt>
      <trkpt lat="47.39713" lon="6.63792">
        <ele>403.546</ele>
        <time>2015-10-02T10:09:46Z</time>
      </trkpt>
      <trkpt lat="47.39711" lon="6.63794">
        <ele>404.073</ele>
        <time>2015-10-02T10:09:47Z</time>
      </trkpt>
      <trkpt lat="47.39709" lon="6.63796">
        <ele>404.393</ele>
        <time>2015-10-02T10:09:48Z</time>
      </trkpt>
      <trkpt lat="47.39706" lon="6.63798">
        <ele>405</ele>
        <time>2015-10-02T10:09:49Z</time>
      </trkpt>
      <trkpt lat="47.39703" lon="6.638">
        <ele>405.19</ele>
        <time>2015-10-02T10:09:50Z</time>
      </trkpt>
      <trkpt lat="47.397" lon="6.63802">
        <ele>405.246</ele>
        <time>2015-10-02T10:09:51Z</time>
      </trkpt>
      <trkpt lat="47.39696" lon="6.63804">
        <ele>405.962</ele>
        <time>2015-10-02T10:09:52Z</time>
      </trkpt>
      <trkpt lat="47.39693" lon="6.63807">
        <ele>405.976</ele>
        <time>2015-10-02T10:09:53Z</time>
      </trkpt>
      <trkpt lat="47.3969" lon="6.63808">
        <ele>403.534</ele>
        <time>2015-10-02T10:09:54Z</time>
      </trkpt>
      <trkpt lat="47.39687" lon="6.6381">
        <ele>403.179</ele>
        <time>2015-10-02T10:09:55Z</time>
      </trkpt>
      <trkpt lat="47.39685" lon="6.63812">
        <ele>403.489</ele>
        <time>2015-10-02T10:09:56Z</time>
      </trkpt>
      <trkpt lat="47.39682" lon="6.63813">
        <ele>403.476</ele>
        <time>2015-10-02T10:09:57Z</time>
      </trkpt>
      <trkpt lat="47.39678" lon="6.63814">
        <ele>402.217</ele>
        <time>2015-10-02T10:09:58Z</time>
      </trkpt>
      <trkpt lat="47.39675" lon="6.63816">
        <ele>402.888</ele>
        <time>2015-10-02T10:09:59Z</time>
      </trkpt>
      <trkpt lat="47.39672" lon="6.63819">
        <ele>402.967</ele>
        <time>2015-10-02T10:10:00Z</time>
      </trkpt>
      <trkpt lat="47.39669" lon="6.63821">
        <ele>401.474</ele>
        <time>2015-10-02T10:10:01Z</time>
      </trkpt>
      <trkpt lat="47.39666" lon="6.63824">
        <ele>401.826</ele>
        <time>2015-10-02T10:10:02Z</time>
      </trkpt>
      <trkpt lat="47.39663" lon="6.63825">
        <ele>403.354</ele>
        <time>2015-10-02T10:10:03Z</time>
      </trkpt>
      <trkpt lat="47.3966" lon="6.63828">
        <ele>402.904</ele>
        <time>2015-10-02T10:10:04Z</time>
      </trkpt>
      <trkpt lat="47.39657" lon="6.6383">
        <ele>403.701</ele>
        <time>2015-10-02T10:10:05Z</time>
      </trkpt>
      <trkpt lat="47.39654" lon="6.63833">
        <ele>403.606</ele>
        <time>2015-10-02T10:10:06Z</time>
      </trkpt>
      <trkpt lat="47.39651" lon="6.63835">
        <ele>402.967</ele>
        <time>2015-10-02T10:10:07Z</time>
      </trkpt>
      <trkpt lat="47.39648" lon="6.63837">
        <ele>403.483</ele>
        <time>2015-10-02T10:10:08Z</time>
      </trkpt>
      <trkpt lat="47.39644" lon="6.63838">
        <ele>403.669</ele>
        <time>2015-10-02T10:10:09Z</time>
      </trkpt>
      <trkpt lat="47.39641" lon="6.63839">
        <ele>404.277</ele>
        <time>2015-10-02T10:10:10Z</time>
      </trkpt>
      <trkpt lat="47.39637" lon="6.63841">
        <ele>404.321</ele>
        <time>2015-10-02T10:10:11Z</time>
      </trkpt>
      <trkpt lat="47.39634" lon="6.63843">
        <ele>403.478</ele>
        <time>2015-10-02T10:10:12Z</time>
      </trkpt>
      <trkpt lat="47.39631" lon="6.63845">
        <ele>404.523</ele>
        <time>2015-10-02T10:10:13Z</time>
      </trkpt>
      <trkpt lat="47.39627" lon="6.63847">
        <ele>404.976</ele>
        <time>2015-10-02T10:10:14Z</time>
      </trkpt>
      <trkpt lat="47.39624" lon="6.6385">
        <ele>404.842</ele>
        <time>2015-10-02T10:10:15Z</time>
      </trkpt>
      <trkpt lat="47.3962" lon="6.63852">
        <ele>404.497</ele>
        <time>2015-10-02T10:10:16Z</time>
      </trkpt>
      <trkpt lat="47.39617" lon="6.63854">
        <ele>404.66</ele>
        <time>2015-10-02T10:10:17Z</time>
      </trkpt>
      <trkpt lat="47.39613" lon="6.63857">
        <ele>403.006</ele>
        <time>2015-10-02T10:10:18Z</time>
      </trkpt>
      <trkpt lat="47.39609" lon="6.63859">
        <ele>401.828</ele>
        <time>2015-10-02T10:10:19Z</time>
      </trkpt>
      <trkpt lat="47.39606" lon="6.63861">
        <ele>403.245</ele>
        <time>2015-10-02T10:10:20Z</time>
      </trkpt>
      <trkpt lat="47.39602" lon="6.63864">
        <ele>401.593</ele>
        <time>2015-10-02T10:10:21Z</time>
      </trkpt>
      <trkpt lat="47.39599" lon="6.63866">
        <ele>401.699</ele>
        <time>2015-10-02T10:10:22Z</time>
      </trkpt>
      <trkpt lat="47.39596" lon="6.63868">
        <ele>402.323</ele>
        <time>2015-10-02T10:10:23Z</time>
      </trkpt>
      <trkpt lat="47.39593" lon="6.63871">
        <ele>402.14</ele>
        <time>2015-10-02T10:10:24Z</time>
      </trkpt>
      <trkpt lat="47.3959" lon="6.63873">
        <ele>402.241</ele>
        <time>2015-10-02T10:10:25Z</time>
      </trkpt>
      <trkpt lat="47.39587" lon="6.63875">
        <ele>402.546</ele>
        <time>2015-10-02T10:10:26Z</time>
      </trkpt>
      <trkpt lat="47.39584" lon="6.63876">
        <ele>403.266</ele>
        <time>2015-10-02T10:10:27Z</time>
      </trkpt>
      <trkpt lat="47.39581" lon="6.63877">
        <ele>404.226</ele>
        <time>2015-10-02T10:10:28Z</time>
      </trkpt>
      <trkpt lat="47.39579" lon="6.63878">
        <ele>405.209</ele>
        <time>2015-10-02T10:10:29Z</time>
      </trkpt>
      <trkpt lat="47.39577" lon="6.6388">
        <ele>406.275</ele>
        <time>2015-10-02T10:10:30Z</time>
      </trkpt>
      <trkpt lat="47.39575" lon="6.63882">
        <ele>405.199</ele>
        <time>2015-10-02T10:10:31Z</time>
      </trkpt>
      <trkpt lat="47.39573" lon="6.63884">
        <ele>404.807</ele>
        <time>2015-10-02T10:10:32Z</time>
      </trkpt>
      <trkpt lat="47.39571" lon="6.63887">
        <ele>405.275</ele>
        <time>2015-10-02T10:10:33Z</time>
      </trkpt>
      <trkpt lat="47.39568" lon="6.63888">
        <ele>406.313</ele>
        <time>2015-10-02T10:10:34Z</time>
      </trkpt>
      <trkpt lat="47.39566" lon="6.6389">
        <ele>406.724</ele>
        <time>2015-10-02T10:10:35Z</time>
      </trkpt>
      <trkpt lat="47.39564" lon="6.63891">
        <ele>408.097</ele>
        <time>2015-10-02T10:10:36Z</time>
      </trkpt>
      <trkpt lat="47.39561" lon="6.63892">
        <ele>406.296</ele>
        <time>2015-10-02T10:10:37Z</time>
      </trkpt>
      <trkpt lat="47.39559" lon="6.63894">
        <ele>406.531</ele>
        <time>2015-10-02T10:10:38Z</time>
      </trkpt>
      <trkpt lat="47.39556" lon="6.63896">
        <ele>406.585</ele>
        <time>2015-10-02T10:10:39Z</time>
      </trkpt>
      <trkpt lat="47.39554" lon="6.63898">
        <ele>407.936</ele>
        <time>2015-10-02T10:10:40Z</time>
      </trkpt>
      <trkpt lat="47.39552" lon="6.639">
        <ele>408.73</ele>
        <time>2015-10-02T10:10:41Z</time>
      </trkpt>
      <trkpt lat="47.39549" lon="6.63902">
        <ele>409.451</ele>
        <time>2015-10-02T10:10:42Z</time>
      </trkpt>
      <trkpt lat="47.39546" lon="6.63904">
        <ele>408.981</ele>
        <time>2015-10-02T10:10:43Z</time>
      </trkpt>
      <trkpt lat="47.39543" lon="6.63906">
        <ele>410.167</ele>
        <time>2015-10-02T10:10:44Z</time>
      </trkpt>
      <trkpt lat="47.39541" lon="6.63908">
        <ele>409.56</ele>
        <time>2015-10-02T10:10:45Z</time>
      </trkpt>
      <trkpt lat="47.39538" lon="6.6391">
        <ele>410.791</ele>
        <time>2015-10-02T10:10:46Z</time>
      </trkpt>
      <trkpt lat="47.39535" lon="6.63912">
        <ele>411.001</ele>
        <time>2015-10-02T10:10:47Z</time>
      </trkpt>
      <trkpt lat="47.39533" lon="6.63914">
        <ele>410.774</ele>
        <time>2015-10-02T10:10:48Z</time>
      </trkpt>
      <trkpt lat="47.3953" lon="6.63916">
        <ele>410.009</ele>
        <time>2015-10-02T10:10:49Z</time>
      </trkpt>
      <trkpt lat="47.39528" lon="6.63919">
        <ele>409.883</ele>
        <time>2015-10-02T10:10:50Z</time>
      </trkpt>
      <trkpt lat="47.39526" lon="6.63921">
        <ele>410.31</ele>
        <time>2015-10-02T10:10:51Z</time>
      </trkpt>
      <trkpt lat="47.39523" lon="6.63923">
        <ele>409.711</ele>
        <time>2015-10-02T10:10:52Z</time>
      </trkpt>
      <trkpt lat="47.3952" lon="6.63925">
        <ele>407.969</ele>
        <time>2015-10-02T10:10:53Z</time>
      </trkpt>
      <trkpt lat="47.39517" lon="6.63926">
        <ele>407.084</ele>
        <time>2015-10-02T10:10:54Z</time>
      </trkpt>
      <trkpt lat="47.39514" lon="6.63927">
        <ele>407.687</ele>
        <time>2015-10-02T10:10:55Z</time>
      </trkpt>
      <trkpt lat="47.39512" lon="6.63927">
        <ele>407.475</ele>
        <time>2015-10-02T10:10:56Z</time>
      </trkpt>
      <trkpt lat="47.39509" lon="6.63929">
        <ele>407.464</ele>
        <time>2015-10-02T10:10:57Z</time>
      </trkpt>
      <trkpt lat="47.39506" lon="6.63931">
        <ele>408.081</ele>
        <time>2015-10-02T10:10:58Z</time>
      </trkpt>
      <trkpt lat="47.39504" lon="6.63933">
        <ele>408.853</ele>
        <time>2015-10-02T10:10:59Z</time>
      </trkpt>
      <trkpt lat="47.39501" lon="6.63935">
        <ele>409.12</ele>
        <time>2015-10-02T10:11:00Z</time>
      </trkpt>
      <trkpt lat="47.39499" lon="6.63937">
        <ele>409.648</ele>
        <time>2015-10-02T10:11:01Z</time>
      </trkpt>
      <trkpt lat="47.39496" lon="6.63938">
        <ele>410.4</ele>
        <time>2015-10-02T10:11:02Z</time>
      </trkpt>
      <trkpt lat="47.39493" lon="6.6394">
        <ele>411.351</ele>
        <time>2015-10-02T10:11:03Z</time>
      </trkpt>
      <trkpt lat="47.3949" lon="6.63942">
        <ele>410.636</ele>
        <time>2015-10-02T10:11:04Z</time>
      </trkpt>
      <trkpt lat="47.39487" lon="6.63944">
        <ele>411.652</ele>
        <time>2015-10-02T10:11:05Z</time>
      </trkpt>
      <trkpt lat="47.39484" lon="6.63946">
        <ele>410.152</ele>
        <time>2015-10-02T10:11:06Z</time>
      </trkpt>
      <trkpt lat="47.39481" lon="6.63948">
        <ele>410.611</ele>
        <time>2015-10-02T10:11:07Z</time>
      </trkpt>
      <trkpt lat="47.39478" lon="6.63951">
        <ele>410.778</ele>
        <time>2015-10-02T10:11:08Z</time>
      </trkpt>
      <trkpt lat="47.39475" lon="6.63953">
        <ele>411.001</ele>
        <time>2015-10-02T10:11:09Z</time>
      </trkpt>
      <trkpt lat="47.39472" lon="6.63957">
        <ele>410.443</ele>
        <time>2015-10-02T10:11:10Z</time>
      </trkpt>
      <trkpt lat="47.39469" lon="6.63959">
        <ele>411.362</ele>
        <time>2015-10-02T10:11:11Z</time>
      </trkpt>
      <trkpt lat="47.39466" lon="6.63962">
        <ele>412.05</ele>
        <time>2015-10-02T10:11:12Z</time>
      </trkpt>
      <trkpt lat="47.39464" lon="6.63965">
        <ele>411.934</ele>
        <time>2015-10-02T10:11:13Z</time>
      </trkpt>
      <trkpt lat="47.39461" lon="6.63968">
        <ele>413.066</ele>
        <time>2015-10-02T10:11:14Z</time>
      </trkpt>
      <trkpt lat="47.39458" lon="6.63971">
        <ele>413.384</ele>
        <time>2015-10-02T10:11:15Z</time>
      </trkpt>
      <trkpt lat="47.39455" lon="6.63973">
        <ele>413.242</ele>
        <time>2015-10-02T10:11:16Z</time>
      </trkpt>
      <trkpt lat="47.39452" lon="6.63975">
        <ele>413.747</ele>
        <time>2015-10-02T10:11:17Z</time>
      </trkpt>
      <trkpt lat="47.39449" lon="6.63977">
        <ele>412.655</ele>
        <time>2015-10-02T10:11:18Z</time>
      </trkpt>
      <trkpt lat="47.39446" lon="6.6398">
        <ele>412.06</ele>
        <time>2015-10-02T10:11:19Z</time>
      </trkpt>
      <trkpt lat="47.39443" lon="6.63983">
        <ele>411.751</ele>
        <time>2015-10-02T10:11:20Z</time>
      </trkpt>
      <trkpt lat="47.39439" lon="6.63987">
        <ele>410.827</ele>
        <time>2015-10-02T10:11:21Z</time>
      </trkpt>
      <trkpt lat="47.39436" lon="6.63991">
        <ele>409.93</ele>
        <time>2015-10-02T10:11:22Z</time>
      </trkpt>
      <trkpt lat="47.39433" lon="6.63994">
        <ele>409.502</ele>
        <time>2015-10-02T10:11:23Z</time>
      </trkpt>
      <trkpt lat="47.3943" lon="6.63998">
        <ele>409.091</ele>
        <time>2015-10-02T10:11:24Z</time>
      </trkpt>
      <trkpt lat="47.39427" lon="6.64001">
        <ele>408.452</ele>
        <time>2015-10-02T10:11:25Z</time>
      </trkpt>
      <trkpt lat="47.39424" lon="6.64004">
        <ele>408.237</ele>
        <time>2015-10-02T10:11:26Z</time>
      </trkpt>
      <trkpt lat="47.39422" lon="6.64007">
        <ele>408.573</ele>
        <time>2015-10-02T10:11:27Z</time>
      </trkpt>
      <trkpt lat="47.39419" lon="6.64011">
        <ele>408.136</ele>
        <time>2015-10-02T10:11:28Z</time>
      </trkpt>
      <trkpt lat="47.39417" lon="6.64015">
        <ele>408.575</ele>
        <time>2015-10-02T10:11:29Z</time>
      </trkpt>
      <trkpt lat="47.39414" lon="6.64019">
        <ele>408.957</ele>
        <time>2015-10-02T10:11:30Z</time>
      </trkpt>
      <trkpt lat="47.39412" lon="6.64023">
        <ele>408.101</ele>
        <time>2015-10-02T10:11:31Z</time>
      </trkpt>
      <trkpt lat="47.39409" lon="6.64027">
        <ele>408.167</ele>
        <time>2015-10-02T10:11:32Z</time>
      </trkpt>
      <trkpt lat="47.39406" lon="6.6403">
        <ele>407.835</ele>
        <time>2015-10-02T10:11:33Z</time>
      </trkpt>
      <trkpt lat="47.39403" lon="6.64033">
        <ele>406.628</ele>
        <time>2015-10-02T10:11:34Z</time>
      </trkpt>
      <trkpt lat="47.39401" lon="6.64035">
        <ele>406.138</ele>
        <time>2015-10-02T10:11:35Z</time>
      </trkpt>
      <trkpt lat="47.39398" lon="6.64038">
        <ele>405.682</ele>
        <time>2015-10-02T10:11:36Z</time>
      </trkpt>
      <trkpt lat="47.39396" lon="6.64041">
        <ele>406.322</ele>
        <time>2015-10-02T10:11:37Z</time>
      </trkpt>
      <trkpt lat="47.39393" lon="6.64045">
        <ele>406.505</ele>
        <time>2015-10-02T10:11:38Z</time>
      </trkpt>
      <trkpt lat="47.39391" lon="6.64048">
        <ele>406.134</ele>
        <time>2015-10-02T10:11:39Z</time>
      </trkpt>
      <trkpt lat="47.39388" lon="6.64051">
        <ele>406.108</ele>
        <time>2015-10-02T10:11:40Z</time>
      </trkpt>
      <trkpt lat="47.39385" lon="6.64054">
        <ele>407.149</ele>
        <time>2015-10-02T10:11:41Z</time>
      </trkpt>
      <trkpt lat="47.39382" lon="6.64057">
        <ele>407.299</ele>
        <time>2015-10-02T10:11:42Z</time>
      </trkpt>
      <trkpt lat="47.39379" lon="6.64059">
        <ele>407.281</ele>
        <time>2015-10-02T10:11:43Z</time>
      </trkpt>
      <trkpt lat="47.39376" lon="6.64062">
        <ele>406.917</ele>
        <time>2015-10-02T10:11:44Z</time>
      </trkpt>
      <trkpt lat="47.39373" lon="6.64065">
        <ele>406.321</ele>
        <time>2015-10-02T10:11:45Z</time>
      </trkpt>
      <trkpt lat="47.3937" lon="6.64068">
        <ele>406.184</ele>
        <time>2015-10-02T10:11:46Z</time>
      </trkpt>
      <trkpt lat="47.39368" lon="6.64072">
        <ele>405.755</ele>
        <time>2015-10-02T10:11:47Z</time>
      </trkpt>
      <trkpt lat="47.39365" lon="6.64075">
        <ele>405.407</ele>
        <time>2015-10-02T10:11:48Z</time>
      </trkpt>
      <trkpt lat="47.39363" lon="6.64078">
        <ele>405.246</ele>
        <time>2015-10-02T10:11:49Z</time>
      </trkpt>
      <trkpt lat="47.3936" lon="6.64082">
        <ele>405.557</ele>
        <time>2015-10-02T10:11:50Z</time>
      </trkpt>
      <trkpt lat="47.39358" lon="6.64085">
        <ele>405.426</ele>
        <time>2015-10-02T10:11:51Z</time>
      </trkpt>
      <trkpt lat="47.39355" lon="6.64088">
        <ele>405.143</ele>
        <time>2015-10-02T10:11:52Z</time>
      </trkpt>
      <trkpt lat="47.39352" lon="6.64092">
        <ele>404.681</ele>
        <time>2015-10-02T10:11:53Z</time>
      </trkpt>
      <trkpt lat="47.3935" lon="6.64095">
        <ele>404.44</ele>
        <time>2015-10-02T10:11:54Z</time>
      </trkpt>
      <trkpt lat="47.39347" lon="6.64099">
        <ele>404.08</ele>
        <time>2015-10-02T10:11:55Z</time>
      </trkpt>
      <trkpt lat="47.39345" lon="6.64102">
        <ele>403.691</ele>
        <time>2015-10-02T10:11:56Z</time>
      </trkpt>
      <trkpt lat="47.39343" lon="6.64106">
        <ele>403.481</ele>
        <time>2015-10-02T10:11:57Z</time>
      </trkpt>
      <trkpt lat="47.3934" lon="6.6411">
        <ele>402.526</ele>
        <time>2015-10-02T10:11:58Z</time>
      </trkpt>
      <trkpt lat="47.39338" lon="6.64114">
        <ele>402.592</ele>
        <time>2015-10-02T10:11:59Z</time>
      </trkpt>
      <trkpt lat="47.39335" lon="6.64118">
        <ele>402.936</ele>
        <time>2015-10-02T10:12:00Z</time>
      </trkpt>
      <trkpt lat="47.39333" lon="6.64122">
        <ele>402.85</ele>
        <time>2015-10-02T10:12:01Z</time>
      </trkpt>
      <trkpt lat="47.39331" lon="6.64125">
        <ele>403.029</ele>
        <time>2015-10-02T10:12:02Z</time>
      </trkpt>
      <trkpt lat="47.39328" lon="6.64129">
        <ele>402.827</ele>
        <time>2015-10-02T10:12:03Z</time>
      </trkpt>
      <trkpt lat="47.39326" lon="6.64133">
        <ele>403.079</ele>
        <time>2015-10-02T10:12:04Z</time>
      </trkpt>
      <trkpt lat="47.39324" lon="6.64137">
        <ele>403.289</ele>
        <time>2015-10-02T10:12:05Z</time>
      </trkpt>
      <trkpt lat="47.39321" lon="6.64141">
        <ele>403.156</ele>
        <time>2015-10-02T10:12:06Z</time>
      </trkpt>
      <trkpt lat="47.39319" lon="6.64144">
        <ele>403.232</ele>
        <time>2015-10-02T10:12:07Z</time>
      </trkpt>
      <trkpt lat="47.39316" lon="6.64148">
        <ele>402.99</ele>
        <time>2015-10-02T10:12:08Z</time>
      </trkpt>
      <trkpt lat="47.39314" lon="6.64151">
        <ele>403.126</ele>
        <time>2015-10-02T10:12:09Z</time>
      </trkpt>
      <trkpt lat="47.39311" lon="6.64155">
        <ele>403.572</ele>
        <time>2015-10-02T10:12:10Z</time>
      </trkpt>
      <trkpt lat="47.39309" lon="6.64159">
        <ele>403.968</ele>
        <time>2015-10-02T10:12:11Z</time>
      </trkpt>
      <trkpt lat="47.39307" lon="6.64163">
        <ele>404.443</ele>
        <time>2015-10-02T10:12:12Z</time>
      </trkpt>
      <trkpt lat="47.39304" lon="6.64166">
        <ele>404.259</ele>
        <time>2015-10-02T10:12:13Z</time>
      </trkpt>
      <trkpt lat="47.39302" lon="6.6417">
        <ele>405.442</ele>
        <time>2015-10-02T10:12:14Z</time>
      </trkpt>
      <trkpt lat="47.393" lon="6.64174">
        <ele>405.356</ele>
        <time>2015-10-02T10:12:15Z</time>
      </trkpt>
      <trkpt lat="47.39297" lon="6.64178">
        <ele>404.747</ele>
        <time>2015-10-02T10:12:16Z</time>
      </trkpt>
      <trkpt lat="47.39295" lon="6.64182">
        <ele>405.281</ele>
        <time>2015-10-02T10:12:17Z</time>
      </trkpt>
      <trkpt lat="47.39292" lon="6.64185">
        <ele>405.02</ele>
        <time>2015-10-02T10:12:18Z</time>
      </trkpt>
      <trkpt lat="47.3929" lon="6.64189">
        <ele>404.598</ele>
        <time>2015-10-02T10:12:19Z</time>
      </trkpt>
      <trkpt lat="47.39288" lon="6.64192">
        <ele>405.109</ele>
        <time>2015-10-02T10:12:20Z</time>
      </trkpt>
      <trkpt lat="47.39285" lon="6.64195">
        <ele>405.292</ele>
        <time>2015-10-02T10:12:21Z</time>
      </trkpt>
      <trkpt lat="47.39283" lon="6.64198">
        <ele>405.325</ele>
        <time>2015-10-02T10:12:22Z</time>
      </trkpt>
      <trkpt lat="47.3928" lon="6.64201">
        <ele>405.984</ele>
        <time>2015-10-02T10:12:23Z</time>
      </trkpt>
      <trkpt lat="47.39278" lon="6.64204">
        <ele>405.864</ele>
        <time>2015-10-02T10:12:24Z</time>
      </trkpt>
      <trkpt lat="47.39275" lon="6.64206">
        <ele>406.508</ele>
        <time>2015-10-02T10:12:25Z</time>
      </trkpt>
      <trkpt lat="47.39272" lon="6.64209">
        <ele>406.784</ele>
        <time>2015-10-02T10:12:26Z</time>
      </trkpt>
      <trkpt lat="47.39269" lon="6.64211">
        <ele>406.84</ele>
        <time>2015-10-02T10:12:27Z</time>
      </trkpt>
      <trkpt lat="47.39266" lon="6.64213">
        <ele>406.622</ele>
        <time>2015-10-02T10:12:28Z</time>
      </trkpt>
      <trkpt lat="47.39262" lon="6.64214">
        <ele>406.691</ele>
        <time>2015-10-02T10:12:29Z</time>
      </trkpt>
      <trkpt lat="47.39259" lon="6.64216">
        <ele>407.321</ele>
        <time>2015-10-02T10:12:30Z</time>
      </trkpt>
      <trkpt lat="47.39257" lon="6.64217">
        <ele>407.862</ele>
        <time>2015-10-02T10:12:31Z</time>
      </trkpt>
      <trkpt lat="47.39254" lon="6.64219">
        <ele>408.418</ele>
        <time>2015-10-02T10:12:32Z</time>
      </trkpt>
      <trkpt lat="47.39251" lon="6.6422">
        <ele>408.753</ele>
        <time>2015-10-02T10:12:33Z</time>
      </trkpt>
      <trkpt lat="47.39248" lon="6.64221">
        <ele>408.841</ele>
        <time>2015-10-02T10:12:34Z</time>
      </trkpt>
      <trkpt lat="47.39245" lon="6.64223">
        <ele>409.323</ele>
        <time>2015-10-02T10:12:35Z</time>
      </trkpt>
      <trkpt lat="47.39242" lon="6.64224">
        <ele>409.173</ele>
        <time>2015-10-02T10:12:36Z</time>
      </trkpt>
      <trkpt lat="47.39239" lon="6.64226">
        <ele>409.269</ele>
        <time>2015-10-02T10:12:37Z</time>
      </trkpt>
      <trkpt lat="47.39236" lon="6.64227">
        <ele>409.61</ele>
        <time>2015-10-02T10:12:38Z</time>
      </trkpt>
      <trkpt lat="47.39234" lon="6.64229">
        <ele>409.961</ele>
        <time>2015-10-02T10:12:39Z</time>
      </trkpt>
      <trkpt lat="47.39231" lon="6.6423">
        <ele>410.246</ele>
        <time>2015-10-02T10:12:40Z</time>
      </trkpt>
      <trkpt lat="47.39228" lon="6.64232">
        <ele>410.978</ele>
        <time>2015-10-02T10:12:41Z</time>
      </trkpt>
      <trkpt lat="47.39225" lon="6.64234">
        <ele>411.169</ele>
        <time>2015-10-02T10:12:42Z</time>
      </trkpt>
      <trkpt lat="47.39223" lon="6.64236">
        <ele>411.648</ele>
        <time>2015-10-02T10:12:43Z</time>
      </trkpt>
      <trkpt lat="47.3922" lon="6.64238">
        <ele>411.98</ele>
        <time>2015-10-02T10:12:44Z</time>
      </trkpt>
      <trkpt lat="47.39217" lon="6.6424">
        <ele>411.211</ele>
        <time>2015-10-02T10:12:45Z</time>
      </trkpt>
      <trkpt lat="47.39215" lon="6.64243">
        <ele>411.109</ele>
        <time>2015-10-02T10:12:46Z</time>
      </trkpt>
      <trkpt lat="47.39212" lon="6.64245">
        <ele>411.165</ele>
        <time>2015-10-02T10:12:47Z</time>
      </trkpt>
      <trkpt lat="47.3921" lon="6.64247">
        <ele>411.105</ele>
        <time>2015-10-02T10:12:48Z</time>
      </trkpt>
      <trkpt lat="47.39207" lon="6.6425">
        <ele>411.531</ele>
        <time>2015-10-02T10:12:49Z</time>
      </trkpt>
      <trkpt lat="47.39205" lon="6.64252">
        <ele>411.284</ele>
        <time>2015-10-02T10:12:50Z</time>
      </trkpt>
      <trkpt lat="47.39202" lon="6.64255">
        <ele>411.073</ele>
        <time>2015-10-02T10:12:51Z</time>
      </trkpt>
      <trkpt lat="47.392" lon="6.64257">
        <ele>411.057</ele>
        <time>2015-10-02T10:12:52Z</time>
      </trkpt>
      <trkpt lat="47.39198" lon="6.6426">
        <ele>411.158</ele>
        <time>2015-10-02T10:12:53Z</time>
      </trkpt>
      <trkpt lat="47.39195" lon="6.64262">
        <ele>412.023</ele>
        <time>2015-10-02T10:12:54Z</time>
      </trkpt>
      <trkpt lat="47.39193" lon="6.64265">
        <ele>411.967</ele>
        <time>2015-10-02T10:12:55Z</time>
      </trkpt>
      <trkpt lat="47.39191" lon="6.64267">
        <ele>411.979</ele>
        <time>2015-10-02T10:12:56Z</time>
      </trkpt>
      <trkpt lat="47.39188" lon="6.64269">
        <ele>411.963</ele>
        <time>2015-10-02T10:12:57Z</time>
      </trkpt>
      <trkpt lat="47.39186" lon="6.64271">
        <ele>412.036</ele>
        <time>2015-10-02T10:12:58Z</time>
      </trkpt>
      <trkpt lat="47.39183" lon="6.64273">
        <ele>412.581</ele>
        <time>2015-10-02T10:12:59Z</time>
      </trkpt>
      <trkpt lat="47.3918" lon="6.64274">
        <ele>412.459</ele>
        <time>2015-10-02T10:13:00Z</time>
      </trkpt>
      <trkpt lat="47.39178" lon="6.64276">
        <ele>412.507</ele>
        <time>2015-10-02T10:13:01Z</time>
      </trkpt>
      <trkpt lat="47.39174" lon="6.64277">
        <ele>412.661</ele>
        <time>2015-10-02T10:13:02Z</time>
      </trkpt>
      <trkpt lat="47.39171" lon="6.6428">
        <ele>412.087</ele>
        <time>2015-10-02T10:13:03Z</time>
      </trkpt>
      <trkpt lat="47.39168" lon="6.64283">
        <ele>412.338</ele>
        <time>2015-10-02T10:13:04Z</time>
      </trkpt>
      <trkpt lat="47.39165" lon="6.64287">
        <ele>412.282</ele>
        <time>2015-10-02T10:13:05Z</time>
      </trkpt>
      <trkpt lat="47.39162" lon="6.6429">
        <ele>411.934</ele>
        <time>2015-10-02T10:13:06Z</time>
      </trkpt>
      <trkpt lat="47.39159" lon="6.64294">
        <ele>411.504</ele>
        <time>2015-10-02T10:13:07Z</time>
      </trkpt>
      <trkpt lat="47.39156" lon="6.64298">
        <ele>411.363</ele>
        <time>2015-10-02T10:13:08Z</time>
      </trkpt>
      <trkpt lat="47.39153" lon="6.64302">
        <ele>411.204</ele>
        <time>2015-10-02T10:13:09Z</time>
      </trkpt>
      <trkpt lat="47.3915" lon="6.64305">
        <ele>410.268</ele>
        <time>2015-10-02T10:13:10Z</time>
      </trkpt>
      <trkpt lat="47.39147" lon="6.64309">
        <ele>410.46</ele>
        <time>2015-10-02T10:13:11Z</time>
      </trkpt>
      <trkpt lat="47.39144" lon="6.64312">
        <ele>410.685</ele>
        <time>2015-10-02T10:13:12Z</time>
      </trkpt>
      <trkpt lat="47.39142" lon="6.64315">
        <ele>411.232</ele>
        <time>2015-10-02T10:13:13Z</time>
      </trkpt>
      <trkpt lat="47.39139" lon="6.64319">
        <ele>410.385</ele>
        <time>2015-10-02T10:13:14Z</time>
      </trkpt>
      <trkpt lat="47.39137" lon="6.64322">
        <ele>410.284</ele>
        <time>2015-10-02T10:13:15Z</time>
      </trkpt>
      <trkpt lat="47.39134" lon="6.64324">
        <ele>410.592</ele>
        <time>2015-10-02T10:13:16Z</time>
      </trkpt>
      <trkpt lat="47.39131" lon="6.64327">
        <ele>410.949</ele>
        <time>2015-10-02T10:13:17Z</time>
      </trkpt>
      <trkpt lat="47.39129" lon="6.64329">
        <ele>410.869</ele>
        <time>2015-10-02T10:13:18Z</time>
      </trkpt>
      <trkpt lat="47.39127" lon="6.64332">
        <ele>411.506</ele>
        <time>2015-10-02T10:13:19Z</time>
      </trkpt>
      <trkpt lat="47.39125" lon="6.64335">
        <ele>411.649</ele>
        <time>2015-10-02T10:13:20Z</time>
      </trkpt>
      <trkpt lat="47.39123" lon="6.64338">
        <ele>411.654</ele>
        <time>2015-10-02T10:13:21Z</time>
      </trkpt>
      <trkpt lat="47.3912" lon="6.6434">
        <ele>411.901</ele>
        <time>2015-10-02T10:13:22Z</time>
      </trkpt>
      <trkpt lat="47.39118" lon="6.64343">
        <ele>411.558</ele>
        <time>2015-10-02T10:13:23Z</time>
      </trkpt>
      <trkpt lat="47.39115" lon="6.64346">
        <ele>411.785</ele>
        <time>2015-10-02T10:13:24Z</time>
      </trkpt>
      <trkpt lat="47.39112" lon="6.64349">
        <ele>412.427</ele>
        <time>2015-10-02T10:13:25Z</time>
      </trkpt>
      <trkpt lat="47.3911" lon="6.64352">
        <ele>413.183</ele>
        <time>2015-10-02T10:13:26Z</time>
      </trkpt>
      <trkpt lat="47.39107" lon="6.64355">
        <ele>413.466</ele>
        <time>2015-10-02T10:13:27Z</time>
      </trkpt>
      <trkpt lat="47.39105" lon="6.64358">
        <ele>413.544</ele>
        <time>2015-10-02T10:13:28Z</time>
      </trkpt>
      <trkpt lat="47.39102" lon="6.64361">
        <ele>413.646</ele>
        <time>2015-10-02T10:13:29Z</time>
      </trkpt>
      <trkpt lat="47.391" lon="6.64364">
        <ele>413.488</ele>
        <time>2015-10-02T10:13:30Z</time>
      </trkpt>
      <trkpt lat="47.39097" lon="6.64367">
        <ele>413.475</ele>
        <time>2015-10-02T10:13:31Z</time>
      </trkpt>
      <trkpt lat="47.39094" lon="6.6437">
        <ele>414.794</ele>
        <time>2015-10-02T10:13:32Z</time>
      </trkpt>
      <trkpt lat="47.39091" lon="6.64373">
        <ele>414.708</ele>
        <time>2015-10-02T10:13:33Z</time>
      </trkpt>
      <trkpt lat="47.39089" lon="6.64376">
        <ele>414.442</ele>
        <time>2015-10-02T10:13:34Z</time>
      </trkpt>
      <trkpt lat="47.39086" lon="6.64379">
        <ele>413.831</ele>
        <time>2015-10-02T10:13:35Z</time>
      </trkpt>
      <trkpt lat="47.39084" lon="6.64381">
        <ele>413.177</ele>
        <time>2015-10-02T10:13:36Z</time>
      </trkpt>
      <trkpt lat="47.39081" lon="6.64384">
        <ele>413.286</ele>
        <time>2015-10-02T10:13:37Z</time>
      </trkpt>
      <trkpt lat="47.39078" lon="6.64387">
        <ele>413.654</ele>
        <time>2015-10-02T10:13:38Z</time>
      </trkpt>
      <trkpt lat="47.39076" lon="6.6439">
        <ele>414.751</ele>
        <time>2015-10-02T10:13:39Z</time>
      </trkpt>
      <trkpt lat="47.39073" lon="6.64392">
        <ele>414.485</ele>
        <time>2015-10-02T10:13:40Z</time>
      </trkpt>
      <trkpt lat="47.39071" lon="6.64395">
        <ele>414.399</ele>
        <time>2015-10-02T10:13:41Z</time>
      </trkpt>
      <trkpt lat="47.39068" lon="6.64397">
        <ele>414.69</ele>
        <time>2015-10-02T10:13:42Z</time>
      </trkpt>
      <trkpt lat="47.39065" lon="6.644">
        <ele>414.702</ele>
        <time>2015-10-02T10:13:43Z</time>
      </trkpt>
      <trkpt lat="47.39062" lon="6.64402">
        <ele>414.401</ele>
        <time>2015-10-02T10:13:44Z</time>
      </trkpt>
      <trkpt lat="47.39059" lon="6.64405">
        <ele>413.655</ele>
        <time>2015-10-02T10:13:45Z</time>
      </trkpt>
      <trkpt lat="47.39057" lon="6.64408">
        <ele>413.102</ele>
        <time>2015-10-02T10:13:46Z</time>
      </trkpt>
      <trkpt lat="47.39054" lon="6.6441">
        <ele>412.958</ele>
        <time>2015-10-02T10:13:47Z</time>
      </trkpt>
      <trkpt lat="47.39051" lon="6.64413">
        <ele>413.384</ele>
        <time>2015-10-02T10:13:48Z</time>
      </trkpt>
      <trkpt lat="47.39049" lon="6.64415">
        <ele>413.313</ele>
        <time>2015-10-02T10:13:49Z</time>
      </trkpt>
      <trkpt lat="47.39046" lon="6.64418">
        <ele>414.253</ele>
        <time>2015-10-02T10:13:50Z</time>
      </trkpt>
      <trkpt lat="47.39044" lon="6.6442">
        <ele>414.919</ele>
        <time>2015-10-02T10:13:51Z</time>
      </trkpt>
      <trkpt lat="47.39041" lon="6.64423">
        <ele>414.167</ele>
        <time>2015-10-02T10:13:52Z</time>
      </trkpt>
      <trkpt lat="47.39038" lon="6.64426">
        <ele>414.079</ele>
        <time>2015-10-02T10:13:53Z</time>
      </trkpt>
      <trkpt lat="47.39036" lon="6.64429">
        <ele>413.807</ele>
        <time>2015-10-02T10:13:54Z</time>
      </trkpt>
      <trkpt lat="47.39033" lon="6.64431">
        <ele>414.485</ele>
        <time>2015-10-02T10:13:55Z</time>
      </trkpt>
      <trkpt lat="47.3903" lon="6.64434">
        <ele>414.099</ele>
        <time>2015-10-02T10:13:56Z</time>
      </trkpt>
      <trkpt lat="47.39027" lon="6.64436">
        <ele>413.836</ele>
        <time>2015-10-02T10:13:57Z</time>
      </trkpt>
      <trkpt lat="47.39025" lon="6.64438">
        <ele>414.233</ele>
        <time>2015-10-02T10:13:58Z</time>
      </trkpt>
      <trkpt lat="47.39022" lon="6.64441">
        <ele>414.281</ele>
        <time>2015-10-02T10:13:59Z</time>
      </trkpt>
      <trkpt lat="47.3902" lon="6.64444">
        <ele>414.19</ele>
        <time>2015-10-02T10:14:00Z</time>
      </trkpt>
      <trkpt lat="47.39017" lon="6.64447">
        <ele>414.435</ele>
        <time>2015-10-02T10:14:01Z</time>
      </trkpt>
      <trkpt lat="47.39015" lon="6.64449">
        <ele>414.628</ele>
        <time>2015-10-02T10:14:02Z</time>
      </trkpt>
      <trkpt lat="47.39012" lon="6.64452">
        <ele>414.589</ele>
        <time>2015-10-02T10:14:03Z</time>
      </trkpt>
      <trkpt lat="47.39009" lon="6.64455">
        <ele>414.31</ele>
        <time>2015-10-02T10:14:04Z</time>
      </trkpt>
      <trkpt lat="47.39007" lon="6.64458">
        <ele>414.181</ele>
        <time>2015-10-02T10:14:05Z</time>
      </trkpt>
      <trkpt lat="47.39004" lon="6.64461">
        <ele>414.416</ele>
        <time>2015-10-02T10:14:06Z</time>
      </trkpt>
      <trkpt lat="47.39002" lon="6.64464">
        <ele>414.302</ele>
        <time>2015-10-02T10:14:07Z</time>
      </trkpt>
      <trkpt lat="47.38999" lon="6.64467">
        <ele>414.511</ele>
        <time>2015-10-02T10:14:08Z</time>
      </trkpt>
      <trkpt lat="47.38997" lon="6.6447">
        <ele>415.359</ele>
        <time>2015-10-02T10:14:09Z</time>
      </trkpt>
      <trkpt lat="47.38995" lon="6.64473">
        <ele>414.609</ele>
        <time>2015-10-02T10:14:10Z</time>
      </trkpt>
      <trkpt lat="47.38992" lon="6.64476">
        <ele>414.576</ele>
        <time>2015-10-02T10:14:11Z</time>
      </trkpt>
      <trkpt lat="47.3899" lon="6.6448">
        <ele>414.813</ele>
        <time>2015-10-02T10:14:12Z</time>
      </trkpt>
      <trkpt lat="47.38988" lon="6.64483">
        <ele>414.724</ele>
        <time>2015-10-02T10:14:13Z</time>
      </trkpt>
      <trkpt lat="47.38985" lon="6.64487">
        <ele>415.039</ele>
        <time>2015-10-02T10:14:14Z</time>
      </trkpt>
      <trkpt lat="47.38983" lon="6.64491">
        <ele>414.754</ele>
        <time>2015-10-02T10:14:15Z</time>
      </trkpt>
      <trkpt lat="47.38981" lon="6.64495">
        <ele>414.446</ele>
        <time>2015-10-02T10:14:16Z</time>
      </trkpt>
      <trkpt lat="47.38979" lon="6.64499">
        <ele>414.424</ele>
        <time>2015-10-02T10:14:17Z</time>
      </trkpt>
      <trkpt lat="47.38977" lon="6.64503">
        <ele>413.896</ele>
        <time>2015-10-02T10:14:18Z</time>
      </trkpt>
      <trkpt lat="47.38976" lon="6.64507">
        <ele>413.584</ele>
        <time>2015-10-02T10:14:19Z</time>
      </trkpt>
      <trkpt lat="47.38974" lon="6.64512">
        <ele>413.663</ele>
        <time>2015-10-02T10:14:20Z</time>
      </trkpt>
      <trkpt lat="47.38972" lon="6.64516">
        <ele>413.937</ele>
        <time>2015-10-02T10:14:21Z</time>
      </trkpt>
      <trkpt lat="47.38971" lon="6.6452">
        <ele>414.127</ele>
        <time>2015-10-02T10:14:22Z</time>
      </trkpt>
      <trkpt lat="47.38969" lon="6.64525">
        <ele>413.994</ele>
        <time>2015-10-02T10:14:23Z</time>
      </trkpt>
      <trkpt lat="47.38968" lon="6.64529">
        <ele>413.776</ele>
        <time>2015-10-02T10:14:24Z</time>
      </trkpt>
      <trkpt lat="47.38966" lon="6.64534">
        <ele>413.615</ele>
        <time>2015-10-02T10:14:25Z</time>
      </trkpt>
      <trkpt lat="47.38965" lon="6.64538">
        <ele>413.667</ele>
        <time>2015-10-02T10:14:26Z</time>
      </trkpt>
      <trkpt lat="47.38963" lon="6.64542">
        <ele>413.772</ele>
        <time>2015-10-02T10:14:27Z</time>
      </trkpt>
      <trkpt lat="47.38962" lon="6.64547">
        <ele>413.973</ele>
        <time>2015-10-02T10:14:28Z</time>
      </trkpt>
      <trkpt lat="47.38961" lon="6.64551">
        <ele>413.899</ele>
        <time>2015-10-02T10:14:29Z</time>
      </trkpt>
      <trkpt lat="47.38959" lon="6.64555">
        <ele>413.804</ele>
        <time>2015-10-02T10:14:30Z</time>
      </trkpt>
      <trkpt lat="47.38958" lon="6.6456">
        <ele>413.863</ele>
        <time>2015-10-02T10:14:31Z</time>
      </trkpt>
      <trkpt lat="47.38957" lon="6.64564">
        <ele>413.944</ele>
        <time>2015-10-02T10:14:32Z</time>
      </trkpt>
      <trkpt lat="47.38956" lon="6.64569">
        <ele>414.178</ele>
        <time>2015-10-02T10:14:33Z</time>
      </trkpt>
      <trkpt lat="47.38954" lon="6.64573">
        <ele>414.253</ele>
        <time>2015-10-02T10:14:34Z</time>
      </trkpt>
      <trkpt lat="47.38953" lon="6.64577">
        <ele>414.191</ele>
        <time>2015-10-02T10:14:35Z</time>
      </trkpt>
      <trkpt lat="47.38951" lon="6.64581">
        <ele>414.054</ele>
        <time>2015-10-02T10:14:36Z</time>
      </trkpt>
      <trkpt lat="47.3895" lon="6.64585">
        <ele>414.427</ele>
        <time>2015-10-02T10:14:37Z</time>
      </trkpt>
      <trkpt lat="47.38949" lon="6.64589">
        <ele>414.575</ele>
        <time>2015-10-02T10:14:38Z</time>
      </trkpt>
      <trkpt lat="47.38947" lon="6.64594">
        <ele>414.462</ele>
        <time>2015-10-02T10:14:39Z</time>
      </trkpt>
      <trkpt lat="47.38946" lon="6.64598">
        <ele>414.967</ele>
        <time>2015-10-02T10:14:40Z</time>
      </trkpt>
      <trkpt lat="47.38944" lon="6.64602">
        <ele>415.117</ele>
        <time>2015-10-02T10:14:41Z</time>
      </trkpt>
      <trkpt lat="47.38943" lon="6.64607">
        <ele>415.5</ele>
        <time>2015-10-02T10:14:42Z</time>
      </trkpt>
      <trkpt lat="47.38942" lon="6.64611">
        <ele>415.715</ele>
        <time>2015-10-02T10:14:43Z</time>
      </trkpt>
      <trkpt lat="47.38941" lon="6.64615">
        <ele>415.756</ele>
        <time>2015-10-02T10:14:44Z</time>
      </trkpt>
      <trkpt lat="47.38939" lon="6.64619">
        <ele>415.826</ele>
        <time>2015-10-02T10:14:45Z</time>
      </trkpt>
      <trkpt lat="47.38938" lon="6.64624">
        <ele>416.54</ele>
        <time>2015-10-02T10:14:46Z</time>
      </trkpt>
      <trkpt lat="47.38937" lon="6.64628">
        <ele>416.613</ele>
        <time>2015-10-02T10:14:47Z</time>
      </trkpt>
      <trkpt lat="47.38936" lon="6.64633">
        <ele>416.55</ele>
        <time>2015-10-02T10:14:48Z</time>
      </trkpt>
      <trkpt lat="47.38935" lon="6.64637">
        <ele>417.383</ele>
        <time>2015-10-02T10:14:49Z</time>
      </trkpt>
      <trkpt lat="47.38934" lon="6.64641">
        <ele>417.591</ele>
        <time>2015-10-02T10:14:50Z</time>
      </trkpt>
      <trkpt lat="47.38932" lon="6.64645">
        <ele>417.597</ele>
        <time>2015-10-02T10:14:51Z</time>
      </trkpt>
      <trkpt lat="47.38931" lon="6.6465">
        <ele>417.663</ele>
        <time>2015-10-02T10:14:52Z</time>
      </trkpt>
      <trkpt lat="47.38929" lon="6.64654">
        <ele>417.156</ele>
        <time>2015-10-02T10:14:53Z</time>
      </trkpt>
      <trkpt lat="47.38928" lon="6.64659">
        <ele>417.329</ele>
        <time>2015-10-02T10:14:54Z</time>
      </trkpt>
      <trkpt lat="47.38926" lon="6.64663">
        <ele>417.644</ele>
        <time>2015-10-02T10:14:55Z</time>
      </trkpt>
      <trkpt lat="47.38925" lon="6.64668">
        <ele>417.037</ele>
        <time>2015-10-02T10:14:56Z</time>
      </trkpt>
      <trkpt lat="47.38923" lon="6.64672">
        <ele>417.802</ele>
        <time>2015-10-02T10:14:57Z</time>
      </trkpt>
      <trkpt lat="47.38922" lon="6.64676">
        <ele>417.469</ele>
        <time>2015-10-02T10:14:58Z</time>
      </trkpt>
      <trkpt lat="47.3892" lon="6.64681">
        <ele>417.828</ele>
        <time>2015-10-02T10:14:59Z</time>
      </trkpt>
      <trkpt lat="47.38919" lon="6.64685">
        <ele>418.221</ele>
        <time>2015-10-02T10:15:00Z</time>
      </trkpt>
      <trkpt lat="47.38918" lon="6.6469">
        <ele>418.6</ele>
        <time>2015-10-02T10:15:01Z</time>
      </trkpt>
      <trkpt lat="47.38917" lon="6.64694">
        <ele>418.606</ele>
        <time>2015-10-02T10:15:02Z</time>
      </trkpt>
      <trkpt lat="47.38915" lon="6.64698">
        <ele>418.516</ele>
        <time>2015-10-02T10:15:03Z</time>
      </trkpt>
      <trkpt lat="47.38914" lon="6.64702">
        <ele>418.859</ele>
        <time>2015-10-02T10:15:04Z</time>
      </trkpt>
      <trkpt lat="47.38912" lon="6.64706">
        <ele>419.017</ele>
        <time>2015-10-02T10:15:05Z</time>
      </trkpt>
      <trkpt lat="47.38911" lon="6.64711">
        <ele>419.397</ele>
        <time>2015-10-02T10:15:06Z</time>
      </trkpt>
      <trkpt lat="47.3891" lon="6.64715">
        <ele>419.708</ele>
        <time>2015-10-02T10:15:07Z</time>
      </trkpt>
      <trkpt lat="47.38909" lon="6.64719">
        <ele>419.695</ele>
        <time>2015-10-02T10:15:08Z</time>
      </trkpt>
      <trkpt lat="47.38907" lon="6.64723">
        <ele>420.171</ele>
        <time>2015-10-02T10:15:09Z</time>
      </trkpt>
      <trkpt lat="47.38906" lon="6.64728">
        <ele>419.791</ele>
        <time>2015-10-02T10:15:10Z</time>
      </trkpt>
      <trkpt lat="47.38905" lon="6.64732">
        <ele>419.489</ele>
        <time>2015-10-02T10:15:11Z</time>
      </trkpt>
      <trkpt lat="47.38904" lon="6.64735">
        <ele>419.544</ele>
        <time>2015-10-02T10:15:12Z</time>
      </trkpt>
      <trkpt lat="47.38902" lon="6.64739">
        <ele>419.312</ele>
        <time>2015-10-02T10:15:13Z</time>
      </trkpt>
      <trkpt lat="47.38901" lon="6.64743">
        <ele>419.395</ele>
        <time>2015-10-02T10:15:14Z</time>
      </trkpt>
      <trkpt lat="47.38899" lon="6.64747">
        <ele>419.555</ele>
        <time>2015-10-02T10:15:15Z</time>
      </trkpt>
      <trkpt lat="47.38898" lon="6.64751">
        <ele>419.987</ele>
        <time>2015-10-02T10:15:16Z</time>
      </trkpt>
      <trkpt lat="47.38897" lon="6.64755">
        <ele>419.937</ele>
        <time>2015-10-02T10:15:17Z</time>
      </trkpt>
      <trkpt lat="47.38896" lon="6.64759">
        <ele>420.041</ele>
        <time>2015-10-02T10:15:18Z</time>
      </trkpt>
      <trkpt lat="47.38895" lon="6.64764">
        <ele>419.975</ele>
        <time>2015-10-02T10:15:19Z</time>
      </trkpt>
      <trkpt lat="47.38894" lon="6.64768">
        <ele>420.038</ele>
        <time>2015-10-02T10:15:20Z</time>
      </trkpt>
      <trkpt lat="47.38892" lon="6.64772">
        <ele>419.979</ele>
        <time>2015-10-02T10:15:21Z</time>
      </trkpt>
      <trkpt lat="47.38891" lon="6.64777">
        <ele>420.079</ele>
        <time>2015-10-02T10:15:22Z</time>
      </trkpt>
      <trkpt lat="47.38889" lon="6.64781">
        <ele>419.964</ele>
        <time>2015-10-02T10:15:23Z</time>
      </trkpt>
      <trkpt lat="47.38888" lon="6.64786">
        <ele>419.802</ele>
        <time>2015-10-02T10:15:24Z</time>
      </trkpt>
      <trkpt lat="47.38887" lon="6.6479">
        <ele>420.002</ele>
        <time>2015-10-02T10:15:25Z</time>
      </trkpt>
      <trkpt lat="47.38885" lon="6.64794">
        <ele>420.436</ele>
        <time>2015-10-02T10:15:26Z</time>
      </trkpt>
      <trkpt lat="47.38884" lon="6.64799">
        <ele>420.665</ele>
        <time>2015-10-02T10:15:27Z</time>
      </trkpt>
      <trkpt lat="47.38883" lon="6.64803">
        <ele>420.809</ele>
        <time>2015-10-02T10:15:28Z</time>
      </trkpt>
      <trkpt lat="47.38882" lon="6.64807">
        <ele>420.847</ele>
        <time>2015-10-02T10:15:29Z</time>
      </trkpt>
      <trkpt lat="47.3888" lon="6.64811">
        <ele>420.973</ele>
        <time>2015-10-02T10:15:30Z</time>
      </trkpt>
      <trkpt lat="47.38879" lon="6.64815">
        <ele>420.935</ele>
        <time>2015-10-02T10:15:31Z</time>
      </trkpt>
      <trkpt lat="47.38877" lon="6.6482">
        <ele>420.633</ele>
        <time>2015-10-02T10:15:32Z</time>
      </trkpt>
      <trkpt lat="47.38876" lon="6.64824">
        <ele>420.952</ele>
        <time>2015-10-02T10:15:33Z</time>
      </trkpt>
      <trkpt lat="47.38874" lon="6.64828">
        <ele>421.598</ele>
        <time>2015-10-02T10:15:34Z</time>
      </trkpt>
      <trkpt lat="47.38873" lon="6.64832">
        <ele>422.117</ele>
        <time>2015-10-02T10:15:35Z</time>
      </trkpt>
      <trkpt lat="47.38872" lon="6.64837">
        <ele>422.315</ele>
        <time>2015-10-02T10:15:36Z</time>
      </trkpt>
      <trkpt lat="47.3887" lon="6.64841">
        <ele>422.215</ele>
        <time>2015-10-02T10:15:37Z</time>
      </trkpt>
      <trkpt lat="47.38869" lon="6.64845">
        <ele>422.217</ele>
        <time>2015-10-02T10:15:38Z</time>
      </trkpt>
      <trkpt lat="47.38867" lon="6.64849">
        <ele>421.773</ele>
        <time>2015-10-02T10:15:39Z</time>
      </trkpt>
      <trkpt lat="47.38865" lon="6.64853">
        <ele>421.613</ele>
        <time>2015-10-02T10:15:40Z</time>
      </trkpt>
      <trkpt lat="47.38864" lon="6.64857">
        <ele>422.388</ele>
        <time>2015-10-02T10:15:41Z</time>
      </trkpt>
      <trkpt lat="47.38862" lon="6.64861">
        <ele>422.057</ele>
        <time>2015-10-02T10:15:42Z</time>
      </trkpt>
      <trkpt lat="47.3886" lon="6.64864">
        <ele>423.116</ele>
        <time>2015-10-02T10:15:43Z</time>
      </trkpt>
      <trkpt lat="47.38859" lon="6.64868">
        <ele>423.902</ele>
        <time>2015-10-02T10:15:44Z</time>
      </trkpt>
      <trkpt lat="47.38857" lon="6.64872">
        <ele>424.421</ele>
        <time>2015-10-02T10:15:45Z</time>
      </trkpt>
      <trkpt lat="47.38856" lon="6.64876">
        <ele>426.291</ele>
        <time>2015-10-02T10:15:46Z</time>
      </trkpt>
      <trkpt lat="47.38854" lon="6.6488">
        <ele>427.149</ele>
        <time>2015-10-02T10:15:47Z</time>
      </trkpt>
      <trkpt lat="47.38852" lon="6.64885">
        <ele>427.971</ele>
        <time>2015-10-02T10:15:48Z</time>
      </trkpt>
      <trkpt lat="47.3885" lon="6.64888">
        <ele>428.749</ele>
        <time>2015-10-02T10:15:49Z</time>
      </trkpt>
      <trkpt lat="47.38849" lon="6.64892">
        <ele>429.36</ele>
        <time>2015-10-02T10:15:50Z</time>
      </trkpt>
      <trkpt lat="47.38847" lon="6.64895">
        <ele>429.492</ele>
        <time>2015-10-02T10:15:51Z</time>
      </trkpt>
      <trkpt lat="47.38845" lon="6.64898">
        <ele>429.188</ele>
        <time>2015-10-02T10:15:52Z</time>
      </trkpt>
      <trkpt lat="47.38842" lon="6.64901">
        <ele>428.764</ele>
        <time>2015-10-02T10:15:53Z</time>
      </trkpt>
      <trkpt lat="47.3884" lon="6.64905">
        <ele>428.963</ele>
        <time>2015-10-02T10:15:54Z</time>
      </trkpt>
      <trkpt lat="47.38838" lon="6.64908">
        <ele>428.3</ele>
        <time>2015-10-02T10:15:55Z</time>
      </trkpt>
      <trkpt lat="47.38836" lon="6.64911">
        <ele>428.89</ele>
        <time>2015-10-02T10:15:56Z</time>
      </trkpt>
      <trkpt lat="47.38834" lon="6.64914">
        <ele>429.1</ele>
        <time>2015-10-02T10:15:57Z</time>
      </trkpt>
      <trkpt lat="47.38833" lon="6.64918">
        <ele>429.232</ele>
        <time>2015-10-02T10:15:58Z</time>
      </trkpt>
      <trkpt lat="47.38831" lon="6.64922">
        <ele>429.216</ele>
        <time>2015-10-02T10:15:59Z</time>
      </trkpt>
      <trkpt lat="47.38829" lon="6.64926">
        <ele>428.983</ele>
        <time>2015-10-02T10:16:00Z</time>
      </trkpt>
      <trkpt lat="47.38828" lon="6.6493">
        <ele>429.469</ele>
        <time>2015-10-02T10:16:01Z</time>
      </trkpt>
      <trkpt lat="47.38826" lon="6.64934">
        <ele>428.978</ele>
        <time>2015-10-02T10:16:02Z</time>
      </trkpt>
      <trkpt lat="47.38825" lon="6.64938">
        <ele>427.727</ele>
        <time>2015-10-02T10:16:03Z</time>
      </trkpt>
      <trkpt lat="47.38823" lon="6.64942">
        <ele>427.206</ele>
        <time>2015-10-02T10:16:04Z</time>
      </trkpt>
      <trkpt lat="47.38822" lon="6.64947">
        <ele>428.078</ele>
        <time>2015-10-02T10:16:05Z</time>
      </trkpt>
      <trkpt lat="47.38821" lon="6.64951">
        <ele>427.797</ele>
        <time>2015-10-02T10:16:06Z</time>
      </trkpt>
      <trkpt lat="47.3882" lon="6.64956">
        <ele>427.569</ele>
        <time>2015-10-02T10:16:07Z</time>
      </trkpt>
      <trkpt lat="47.38819" lon="6.6496">
        <ele>426.775</ele>
        <time>2015-10-02T10:16:08Z</time>
      </trkpt>
      <trkpt lat="47.38817" lon="6.64965">
        <ele>426.28</ele>
        <time>2015-10-02T10:16:09Z</time>
      </trkpt>
      <trkpt lat="47.38816" lon="6.64969">
        <ele>425.796</ele>
        <time>2015-10-02T10:16:10Z</time>
      </trkpt>
      <trkpt lat="47.38815" lon="6.64973">
        <ele>425.598</ele>
        <time>2015-10-02T10:16:11Z</time>
      </trkpt>
      <trkpt lat="47.38814" lon="6.64978">
        <ele>424.855</ele>
        <time>2015-10-02T10:16:12Z</time>
      </trkpt>
      <trkpt lat="47.38813" lon="6.64982">
        <ele>425.483</ele>
        <time>2015-10-02T10:16:13Z</time>
      </trkpt>
      <trkpt lat="47.38812" lon="6.64987">
        <ele>425.309</ele>
        <time>2015-10-02T10:16:14Z</time>
      </trkpt>
      <trkpt lat="47.3881" lon="6.64991">
        <ele>425.678</ele>
        <time>2015-10-02T10:16:15Z</time>
      </trkpt>
      <trkpt lat="47.38809" lon="6.64995">
        <ele>425.258</ele>
        <time>2015-10-02T10:16:16Z</time>
      </trkpt>
      <trkpt lat="47.38807" lon="6.64999">
        <ele>425.023</ele>
        <time>2015-10-02T10:16:17Z</time>
      </trkpt>
      <trkpt lat="47.38806" lon="6.65003">
        <ele>425.262</ele>
        <time>2015-10-02T10:16:18Z</time>
      </trkpt>
      <trkpt lat="47.38804" lon="6.65007">
        <ele>425.653</ele>
        <time>2015-10-02T10:16:19Z</time>
      </trkpt>
      <trkpt lat="47.38802" lon="6.65011">
        <ele>428.156</ele>
        <time>2015-10-02T10:16:20Z</time>
      </trkpt>
      <trkpt lat="47.388" lon="6.65015">
        <ele>427.301</ele>
        <time>2015-10-02T10:16:21Z</time>
      </trkpt>
      <trkpt lat="47.38798" lon="6.65018">
        <ele>427.544</ele>
        <time>2015-10-02T10:16:22Z</time>
      </trkpt>
      <trkpt lat="47.38796" lon="6.65021">
        <ele>426.867</ele>
        <time>2015-10-02T10:16:23Z</time>
      </trkpt>
      <trkpt lat="47.38793" lon="6.65025">
        <ele>428.756</ele>
        <time>2015-10-02T10:16:24Z</time>
      </trkpt>
      <trkpt lat="47.38791" lon="6.65029">
        <ele>429.404</ele>
        <time>2015-10-02T10:16:25Z</time>
      </trkpt>
      <trkpt lat="47.38789" lon="6.65032">
        <ele>430.53</ele>
        <time>2015-10-02T10:16:26Z</time>
      </trkpt>
      <trkpt lat="47.38788" lon="6.65035">
        <ele>430.247</ele>
        <time>2015-10-02T10:16:27Z</time>
      </trkpt>
      <trkpt lat="47.38786" lon="6.65037">
        <ele>428.933</ele>
        <time>2015-10-02T10:16:28Z</time>
      </trkpt>
      <trkpt lat="47.38785" lon="6.65038">
        <ele>429.731</ele>
        <time>2015-10-02T10:16:29Z</time>
      </trkpt>
      <trkpt lat="47.38783" lon="6.65039">
        <ele>429.35</ele>
        <time>2015-10-02T10:16:30Z</time>
      </trkpt>
      <trkpt lat="47.38782" lon="6.6504">
        <ele>429.214</ele>
        <time>2015-10-02T10:16:31Z</time>
      </trkpt>
      <trkpt lat="47.3878" lon="6.65041">
        <ele>428.931</ele>
        <time>2015-10-02T10:16:32Z</time>
      </trkpt>
      <trkpt lat="47.38779" lon="6.65042">
        <ele>429.425</ele>
        <time>2015-10-02T10:16:33Z</time>
      </trkpt>
      <trkpt lat="47.38777" lon="6.65044">
        <ele>430.437</ele>
        <time>2015-10-02T10:16:34Z</time>
      </trkpt>
      <trkpt lat="47.38777" lon="6.65047">
        <ele>429.355</ele>
        <time>2015-10-02T10:16:35Z</time>
      </trkpt>
      <trkpt lat="47.38776" lon="6.6505">
        <ele>429.429</ele>
        <time>2015-10-02T10:16:36Z</time>
      </trkpt>
      <trkpt lat="47.38776" lon="6.65053">
        <ele>429.223</ele>
        <time>2015-10-02T10:16:37Z</time>
      </trkpt>
      <trkpt lat="47.38777" lon="6.65057">
        <ele>428.42</ele>
        <time>2015-10-02T10:16:38Z</time>
      </trkpt>
      <trkpt lat="47.38777" lon="6.65059">
        <ele>428.482</ele>
        <time>2015-10-02T10:16:39Z</time>
      </trkpt>
      <trkpt lat="47.38777" lon="6.65062">
        <ele>428.252</ele>
        <time>2015-10-02T10:16:40Z</time>
      </trkpt>
      <trkpt lat="47.38777" lon="6.65063">
        <ele>426.71</ele>
        <time>2015-10-02T10:16:41Z</time>
      </trkpt>
      <trkpt lat="47.38777" lon="6.65065">
        <ele>425.541</ele>
        <time>2015-10-02T10:16:42Z</time>
      </trkpt>
      <trkpt lat="47.38778" lon="6.65068">
        <ele>425.629</ele>
        <time>2015-10-02T10:16:43Z</time>
      </trkpt>
      <trkpt lat="47.3878" lon="6.65071">
        <ele>424.836</ele>
        <time>2015-10-02T10:16:44Z</time>
      </trkpt>
      <trkpt lat="47.38783" lon="6.65073">
        <ele>424.257</ele>
        <time>2015-10-02T10:16:45Z</time>
      </trkpt>
      <trkpt lat="47.38785" lon="6.65076">
        <ele>425.771</ele>
        <time>2015-10-02T10:16:46Z</time>
      </trkpt>
      <trkpt lat="47.38787" lon="6.65078">
        <ele>426.339</ele>
        <time>2015-10-02T10:16:47Z</time>
      </trkpt>
      <trkpt lat="47.38789" lon="6.65081">
        <ele>426.675</ele>
        <time>2015-10-02T10:16:48Z</time>
      </trkpt>
      <trkpt lat="47.38791" lon="6.65084">
        <ele>427.118</ele>
        <time>2015-10-02T10:16:49Z</time>
      </trkpt>
      <trkpt lat="47.38792" lon="6.65087">
        <ele>427.606</ele>
        <time>2015-10-02T10:16:50Z</time>
      </trkpt>
      <trkpt lat="47.38794" lon="6.6509">
        <ele>428.904</ele>
        <time>2015-10-02T10:16:51Z</time>
      </trkpt>
      <trkpt lat="47.38796" lon="6.65093">
        <ele>428.894</ele>
        <time>2015-10-02T10:16:52Z</time>
      </trkpt>
      <trkpt lat="47.38798" lon="6.65096">
        <ele>428.316</ele>
        <time>2015-10-02T10:16:53Z</time>
      </trkpt>
      <trkpt lat="47.38799" lon="6.65098">
        <ele>429.249</ele>
        <time>2015-10-02T10:16:54Z</time>
      </trkpt>
      <trkpt lat="47.38801" lon="6.65102">
        <ele>430.183</ele>
        <time>2015-10-02T10:16:55Z</time>
      </trkpt>
      <trkpt lat="47.38802" lon="6.65105">
        <ele>431.059</ele>
        <time>2015-10-02T10:16:56Z</time>
      </trkpt>
      <trkpt lat="47.38804" lon="6.65107">
        <ele>431.508</ele>
        <time>2015-10-02T10:16:57Z</time>
      </trkpt>
      <trkpt lat="47.38806" lon="6.65107">
        <ele>431.378</ele>
        <time>2015-10-02T10:16:58Z</time>
      </trkpt>
      <trkpt lat="47.38808" lon="6.65104">
        <ele>431.375</ele>
        <time>2015-10-02T10:16:59Z</time>
      </trkpt>
      <trkpt lat="47.38808" lon="6.65101">
        <ele>432.375</ele>
        <time>2015-10-02T10:17:00Z</time>
      </trkpt>
      <trkpt lat="47.38808" lon="6.65098">
        <ele>431.779</ele>
        <time>2015-10-02T10:17:01Z</time>
      </trkpt>
      <trkpt lat="47.38807" lon="6.65096">
        <ele>431.508</ele>
        <time>2015-10-02T10:17:02Z</time>
      </trkpt>
      <trkpt lat="47.38806" lon="6.65093">
        <ele>431.463</ele>
        <time>2015-10-02T10:17:03Z</time>
      </trkpt>
      <trkpt lat="47.38805" lon="6.65092">
        <ele>431.438</ele>
        <time>2015-10-02T10:17:04Z</time>
      </trkpt>
      <trkpt lat="47.38806" lon="6.6509">
        <ele>434.402</ele>
        <time>2015-10-02T10:17:10Z</time>
      </trkpt>
      <trkpt lat="47.38805" lon="6.65088">
        <ele>434.728</ele>
        <time>2015-10-02T10:17:12Z</time>
      </trkpt>
      <trkpt lat="47.38804" lon="6.65086">
        <ele>434.606</ele>
        <time>2015-10-02T10:17:13Z</time>
      </trkpt>
      <trkpt lat="47.38804" lon="6.65084">
        <ele>434.556</ele>
        <time>2015-10-02T10:17:14Z</time>
      </trkpt>
      <trkpt lat="47.38803" lon="6.65082">
        <ele>434.352</ele>
        <time>2015-10-02T10:17:15Z</time>
      </trkpt>
      <trkpt lat="47.38802" lon="6.65079">
        <ele>434.252</ele>
        <time>2015-10-02T10:17:16Z</time>
      </trkpt>
      <trkpt lat="47.38801" lon="6.65077">
        <ele>433.889</ele>
        <time>2015-10-02T10:17:17Z</time>
      </trkpt>
      <trkpt lat="47.388" lon="6.65074">
        <ele>434.379</ele>
        <time>2015-10-02T10:17:18Z</time>
      </trkpt>
      <trkpt lat="47.38798" lon="6.65072">
        <ele>435.002</ele>
        <time>2015-10-02T10:17:19Z</time>
      </trkpt>
      <trkpt lat="47.38796" lon="6.6507">
        <ele>435.546</ele>
        <time>2015-10-02T10:17:20Z</time>
      </trkpt>
      <trkpt lat="47.38795" lon="6.65067">
        <ele>435.781</ele>
        <time>2015-10-02T10:17:21Z</time>
      </trkpt>
      <trkpt lat="47.38793" lon="6.65065">
        <ele>435.659</ele>
        <time>2015-10-02T10:17:22Z</time>
      </trkpt>
      <trkpt lat="47.38793" lon="6.65062">
        <ele>435.055</ele>
        <time>2015-10-02T10:17:23Z</time>
      </trkpt>
      <trkpt lat="47.38792" lon="6.6506">
        <ele>435.231</ele>
        <time>2015-10-02T10:17:24Z</time>
      </trkpt>
      <trkpt lat="47.38792" lon="6.65058">
        <ele>435.173</ele>
        <time>2015-10-02T10:17:25Z</time>
      </trkpt>
      <trkpt lat="47.38791" lon="6.65055">
        <ele>435.126</ele>
        <time>2015-10-02T10:17:26Z</time>
      </trkpt>
      <trkpt lat="47.3879" lon="6.65053">
        <ele>435.314</ele>
        <time>2015-10-02T10:17:27Z</time>
      </trkpt>
      <trkpt lat="47.38789" lon="6.65051">
        <ele>434.898</ele>
        <time>2015-10-02T10:17:28Z</time>
      </trkpt>
      <trkpt lat="47.38788" lon="6.65048">
        <ele>435.903</ele>
        <time>2015-10-02T10:17:29Z</time>
      </trkpt>
      <trkpt lat="47.38786" lon="6.65046">
        <ele>436.023</ele>
        <time>2015-10-02T10:17:30Z</time>
      </trkpt>
      <trkpt lat="47.38785" lon="6.65045">
        <ele>435.888</ele>
        <time>2015-10-02T10:17:31Z</time>
      </trkpt>
      <trkpt lat="47.38782" lon="6.65044">
        <ele>436.177</ele>
        <time>2015-10-02T10:17:32Z</time>
      </trkpt>
      <trkpt lat="47.3878" lon="6.65042">
        <ele>436.267</ele>
        <time>2015-10-02T10:17:33Z</time>
      </trkpt>
      <trkpt lat="47.38777" lon="6.65041">
        <ele>436.465</ele>
        <time>2015-10-02T10:17:34Z</time>
      </trkpt>
      <trkpt lat="47.38775" lon="6.65039">
        <ele>436.946</ele>
        <time>2015-10-02T10:17:35Z</time>
      </trkpt>
      <trkpt lat="47.38772" lon="6.65037">
        <ele>436.615</ele>
        <time>2015-10-02T10:17:36Z</time>
      </trkpt>
      <trkpt lat="47.38769" lon="6.65036">
        <ele>436.575</ele>
        <time>2015-10-02T10:17:37Z</time>
      </trkpt>
      <trkpt lat="47.38767" lon="6.65034">
        <ele>437.756</ele>
        <time>2015-10-02T10:17:38Z</time>
      </trkpt>
      <trkpt lat="47.38765" lon="6.65032">
        <ele>439.215</ele>
        <time>2015-10-02T10:17:39Z</time>
      </trkpt>
      <trkpt lat="47.38762" lon="6.65031">
        <ele>439.541</ele>
        <time>2015-10-02T10:17:40Z</time>
      </trkpt>
      <trkpt lat="47.3876" lon="6.65029">
        <ele>439.392</ele>
        <time>2015-10-02T10:17:41Z</time>
      </trkpt>
      <trkpt lat="47.38758" lon="6.65028">
        <ele>439.938</ele>
        <time>2015-10-02T10:17:42Z</time>
      </trkpt>
      <trkpt lat="47.38756" lon="6.65027">
        <ele>440.527</ele>
        <time>2015-10-02T10:17:43Z</time>
      </trkpt>
      <trkpt lat="47.38754" lon="6.65026">
        <ele>440.62</ele>
        <time>2015-10-02T10:17:44Z</time>
      </trkpt>
      <trkpt lat="47.38752" lon="6.65026">
        <ele>443.024</ele>
        <time>2015-10-02T10:17:45Z</time>
      </trkpt>
      <trkpt lat="47.3875" lon="6.65025">
        <ele>442.661</ele>
        <time>2015-10-02T10:17:46Z</time>
      </trkpt>
      <trkpt lat="47.38748" lon="6.65024">
        <ele>442.257</ele>
        <time>2015-10-02T10:17:47Z</time>
      </trkpt>
      <trkpt lat="47.38746" lon="6.65022">
        <ele>442.482</ele>
        <time>2015-10-02T10:17:48Z</time>
      </trkpt>
      <trkpt lat="47.38743" lon="6.65021">
        <ele>443.303</ele>
        <time>2015-10-02T10:17:49Z</time>
      </trkpt>
      <trkpt lat="47.38741" lon="6.65019">
        <ele>444.565</ele>
        <time>2015-10-02T10:17:50Z</time>
      </trkpt>
      <trkpt lat="47.38739" lon="6.65018">
        <ele>444.733</ele>
        <time>2015-10-02T10:17:51Z</time>
      </trkpt>
      <trkpt lat="47.38737" lon="6.65016">
        <ele>445.128</ele>
        <time>2015-10-02T10:17:52Z</time>
      </trkpt>
      <trkpt lat="47.38734" lon="6.65014">
        <ele>444.854</ele>
        <time>2015-10-02T10:17:53Z</time>
      </trkpt>
      <trkpt lat="47.38732" lon="6.65012">
        <ele>444.954</ele>
        <time>2015-10-02T10:17:54Z</time>
      </trkpt>
      <trkpt lat="47.3873" lon="6.6501">
        <ele>444.751</ele>
        <time>2015-10-02T10:17:55Z</time>
      </trkpt>
      <trkpt lat="47.38727" lon="6.65007">
        <ele>444.682</ele>
        <time>2015-10-02T10:17:56Z</time>
      </trkpt>
      <trkpt lat="47.38726" lon="6.65004">
        <ele>444.272</ele>
        <time>2015-10-02T10:17:57Z</time>
      </trkpt>
      <trkpt lat="47.38724" lon="6.65001">
        <ele>444.336</ele>
        <time>2015-10-02T10:17:58Z</time>
      </trkpt>
      <trkpt lat="47.38723" lon="6.64997">
        <ele>444.555</ele>
        <time>2015-10-02T10:17:59Z</time>
      </trkpt>
      <trkpt lat="47.38723" lon="6.64994">
        <ele>443.947</ele>
        <time>2015-10-02T10:18:00Z</time>
      </trkpt>
      <trkpt lat="47.38722" lon="6.6499">
        <ele>443.425</ele>
        <time>2015-10-02T10:18:01Z</time>
      </trkpt>
      <trkpt lat="47.38722" lon="6.64986">
        <ele>442.561</ele>
        <time>2015-10-02T10:18:02Z</time>
      </trkpt>
      <trkpt lat="47.38722" lon="6.64982">
        <ele>441.729</ele>
        <time>2015-10-02T10:18:03Z</time>
      </trkpt>
      <trkpt lat="47.38723" lon="6.64978">
        <ele>440.711</ele>
        <time>2015-10-02T10:18:04Z</time>
      </trkpt>
      <trkpt lat="47.38724" lon="6.64974">
        <ele>441.037</ele>
        <time>2015-10-02T10:18:05Z</time>
      </trkpt>
      <trkpt lat="47.38724" lon="6.6497">
        <ele>440.14</ele>
        <time>2015-10-02T10:18:06Z</time>
      </trkpt>
      <trkpt lat="47.38724" lon="6.64966">
        <ele>438.924</ele>
        <time>2015-10-02T10:18:07Z</time>
      </trkpt>
      <trkpt lat="47.38724" lon="6.64962">
        <ele>438.251</ele>
        <time>2015-10-02T10:18:08Z</time>
      </trkpt>
      <trkpt lat="47.38723" lon="6.64958">
        <ele>436.987</ele>
        <time>2015-10-02T10:18:09Z</time>
      </trkpt>
      <trkpt lat="47.38722" lon="6.64953">
        <ele>436.986</ele>
        <time>2015-10-02T10:18:10Z</time>
      </trkpt>
      <trkpt lat="47.38722" lon="6.64949">
        <ele>437.189</ele>
        <time>2015-10-02T10:18:11Z</time>
      </trkpt>
      <trkpt lat="47.38721" lon="6.64946">
        <ele>436.741</ele>
        <time>2015-10-02T10:18:12Z</time>
      </trkpt>
      <trkpt lat="47.38721" lon="6.64942">
        <ele>437.101</ele>
        <time>2015-10-02T10:18:13Z</time>
      </trkpt>
      <trkpt lat="47.3872" lon="6.64937">
        <ele>435.516</ele>
        <time>2015-10-02T10:18:14Z</time>
      </trkpt>
      <trkpt lat="47.3872" lon="6.64933">
        <ele>437.324</ele>
        <time>2015-10-02T10:18:15Z</time>
      </trkpt>
      <trkpt lat="47.3872" lon="6.64929">
        <ele>437.675</ele>
        <time>2015-10-02T10:18:16Z</time>
      </trkpt>
      <trkpt lat="47.3872" lon="6.64924">
        <ele>437.827</ele>
        <time>2015-10-02T10:18:17Z</time>
      </trkpt>
      <trkpt lat="47.3872" lon="6.6492">
        <ele>436.772</ele>
        <time>2015-10-02T10:18:18Z</time>
      </trkpt>
      <trkpt lat="47.38719" lon="6.64916">
        <ele>435.991</ele>
        <time>2015-10-02T10:18:19Z</time>
      </trkpt>
      <trkpt lat="47.38719" lon="6.64912">
        <ele>434.909</ele>
        <time>2015-10-02T10:18:20Z</time>
      </trkpt>
      <trkpt lat="47.38718" lon="6.64908">
        <ele>434.749</ele>
        <time>2015-10-02T10:18:21Z</time>
      </trkpt>
      <trkpt lat="47.38718" lon="6.64905">
        <ele>433.946</ele>
        <time>2015-10-02T10:18:22Z</time>
      </trkpt>
      <trkpt lat="47.38717" lon="6.64901">
        <ele>434.529</ele>
        <time>2015-10-02T10:18:23Z</time>
      </trkpt>
      <trkpt lat="47.38717" lon="6.64897">
        <ele>434.058</ele>
        <time>2015-10-02T10:18:24Z</time>
      </trkpt>
      <trkpt lat="47.38716" lon="6.64894">
        <ele>434.652</ele>
        <time>2015-10-02T10:18:25Z</time>
      </trkpt>
      <trkpt lat="47.38716" lon="6.64889">
        <ele>434.792</ele>
        <time>2015-10-02T10:18:26Z</time>
      </trkpt>
      <trkpt lat="47.38716" lon="6.64885">
        <ele>436.546</ele>
        <time>2015-10-02T10:18:27Z</time>
      </trkpt>
      <trkpt lat="47.38716" lon="6.64882">
        <ele>437.016</ele>
        <time>2015-10-02T10:18:28Z</time>
      </trkpt>
      <trkpt lat="47.38715" lon="6.64878">
        <ele>437.132</ele>
        <time>2015-10-02T10:18:29Z</time>
      </trkpt>
      <trkpt lat="47.38715" lon="6.64875">
        <ele>437.15</ele>
        <time>2015-10-02T10:18:30Z</time>
      </trkpt>
      <trkpt lat="47.38715" lon="6.64871">
        <ele>437.047</ele>
        <time>2015-10-02T10:18:31Z</time>
      </trkpt>
      <trkpt lat="47.38714" lon="6.64867">
        <ele>436.444</ele>
        <time>2015-10-02T10:18:32Z</time>
      </trkpt>
      <trkpt lat="47.38714" lon="6.64863">
        <ele>435.265</ele>
        <time>2015-10-02T10:18:33Z</time>
      </trkpt>
      <trkpt lat="47.38714" lon="6.64859">
        <ele>435.266</ele>
        <time>2015-10-02T10:18:34Z</time>
      </trkpt>
      <trkpt lat="47.38714" lon="6.64854">
        <ele>434.273</ele>
        <time>2015-10-02T10:18:35Z</time>
      </trkpt>
      <trkpt lat="47.38714" lon="6.6485">
        <ele>434.464</ele>
        <time>2015-10-02T10:18:36Z</time>
      </trkpt>
      <trkpt lat="47.38715" lon="6.64845">
        <ele>434.197</ele>
        <time>2015-10-02T10:18:37Z</time>
      </trkpt>
      <trkpt lat="47.38715" lon="6.64841">
        <ele>434.075</ele>
        <time>2015-10-02T10:18:38Z</time>
      </trkpt>
      <trkpt lat="47.38715" lon="6.64837">
        <ele>435.574</ele>
        <time>2015-10-02T10:18:39Z</time>
      </trkpt>
      <trkpt lat="47.38716" lon="6.64832">
        <ele>436.23</ele>
        <time>2015-10-02T10:18:40Z</time>
      </trkpt>
      <trkpt lat="47.38716" lon="6.64829">
        <ele>437.23</ele>
        <time>2015-10-02T10:18:41Z</time>
      </trkpt>
      <trkpt lat="47.38716" lon="6.64825">
        <ele>436.716</ele>
        <time>2015-10-02T10:18:42Z</time>
      </trkpt>
      <trkpt lat="47.38716" lon="6.64822">
        <ele>436.699</ele>
        <time>2015-10-02T10:18:43Z</time>
      </trkpt>
      <trkpt lat="47.38716" lon="6.64819">
        <ele>438.005</ele>
        <time>2015-10-02T10:18:44Z</time>
      </trkpt>
      <trkpt lat="47.38716" lon="6.64815">
        <ele>438.156</ele>
        <time>2015-10-02T10:18:45Z</time>
      </trkpt>
      <trkpt lat="47.38716" lon="6.64811">
        <ele>438.029</ele>
        <time>2015-10-02T10:18:46Z</time>
      </trkpt>
      <trkpt lat="47.38715" lon="6.64807">
        <ele>438.548</ele>
        <time>2015-10-02T10:18:47Z</time>
      </trkpt>
      <trkpt lat="47.38715" lon="6.64803">
        <ele>438.583</ele>
        <time>2015-10-02T10:18:48Z</time>
      </trkpt>
      <trkpt lat="47.38715" lon="6.64799">
        <ele>439.233</ele>
        <time>2015-10-02T10:18:49Z</time>
      </trkpt>
      <trkpt lat="47.38715" lon="6.64795">
        <ele>439.018</ele>
        <time>2015-10-02T10:18:50Z</time>
      </trkpt>
      <trkpt lat="47.38714" lon="6.64792">
        <ele>438.881</ele>
        <time>2015-10-02T10:18:51Z</time>
      </trkpt>
      <trkpt lat="47.38714" lon="6.64788">
        <ele>441.9</ele>
        <time>2015-10-02T10:18:52Z</time>
      </trkpt>
      <trkpt lat="47.38714" lon="6.64785">
        <ele>441.515</ele>
        <time>2015-10-02T10:18:53Z</time>
      </trkpt>
      <trkpt lat="47.38713" lon="6.64782">
        <ele>441.813</ele>
        <time>2015-10-02T10:18:54Z</time>
      </trkpt>
      <trkpt lat="47.38712" lon="6.64778">
        <ele>441.657</ele>
        <time>2015-10-02T10:18:55Z</time>
      </trkpt>
      <trkpt lat="47.38711" lon="6.64775">
        <ele>441.387</ele>
        <time>2015-10-02T10:18:56Z</time>
      </trkpt>
      <trkpt lat="47.3871" lon="6.64772">
        <ele>441.35</ele>
        <time>2015-10-02T10:18:57Z</time>
      </trkpt>
      <trkpt lat="47.38709" lon="6.64769">
        <ele>442.034</ele>
        <time>2015-10-02T10:18:58Z</time>
      </trkpt>
      <trkpt lat="47.38708" lon="6.64765">
        <ele>443.149</ele>
        <time>2015-10-02T10:18:59Z</time>
      </trkpt>
      <trkpt lat="47.38707" lon="6.64762">
        <ele>443.334</ele>
        <time>2015-10-02T10:19:00Z</time>
      </trkpt>
      <trkpt lat="47.38705" lon="6.64759">
        <ele>443.481</ele>
        <time>2015-10-02T10:19:01Z</time>
      </trkpt>
      <trkpt lat="47.38704" lon="6.64755">
        <ele>442.68</ele>
        <time>2015-10-02T10:19:02Z</time>
      </trkpt>
      <trkpt lat="47.38703" lon="6.64752">
        <ele>442.849</ele>
        <time>2015-10-02T10:19:03Z</time>
      </trkpt>
      <trkpt lat="47.38702" lon="6.64748">
        <ele>442.536</ele>
        <time>2015-10-02T10:19:04Z</time>
      </trkpt>
      <trkpt lat="47.387" lon="6.64745">
        <ele>443.005</ele>
        <time>2015-10-02T10:19:05Z</time>
      </trkpt>
      <trkpt lat="47.38699" lon="6.64742">
        <ele>443.316</ele>
        <time>2015-10-02T10:19:06Z</time>
      </trkpt>
      <trkpt lat="47.38697" lon="6.64739">
        <ele>443.425</ele>
        <time>2015-10-02T10:19:07Z</time>
      </trkpt>
      <trkpt lat="47.38695" lon="6.64736">
        <ele>443.694</ele>
        <time>2015-10-02T10:19:08Z</time>
      </trkpt>
      <trkpt lat="47.38694" lon="6.64733">
        <ele>445.451</ele>
        <time>2015-10-02T10:19:09Z</time>
      </trkpt>
      <trkpt lat="47.38692" lon="6.64731">
        <ele>445.139</ele>
        <time>2015-10-02T10:19:10Z</time>
      </trkpt>
      <trkpt lat="47.3869" lon="6.64728">
        <ele>445.343</ele>
        <time>2015-10-02T10:19:11Z</time>
      </trkpt>
      <trkpt lat="47.38688" lon="6.64726">
        <ele>446.69</ele>
        <time>2015-10-02T10:19:12Z</time>
      </trkpt>
      <trkpt lat="47.38687" lon="6.64723">
        <ele>447.33</ele>
        <time>2015-10-02T10:19:13Z</time>
      </trkpt>
      <trkpt lat="47.38685" lon="6.6472">
        <ele>446.853</ele>
        <time>2015-10-02T10:19:14Z</time>
      </trkpt>
      <trkpt lat="47.38683" lon="6.64718">
        <ele>447.889</ele>
        <time>2015-10-02T10:19:15Z</time>
      </trkpt>
      <trkpt lat="47.38681" lon="6.64716">
        <ele>448.66</ele>
        <time>2015-10-02T10:19:16Z</time>
      </trkpt>
      <trkpt lat="47.38679" lon="6.64714">
        <ele>449.023</ele>
        <time>2015-10-02T10:19:17Z</time>
      </trkpt>
      <trkpt lat="47.38677" lon="6.64712">
        <ele>448.151</ele>
        <time>2015-10-02T10:19:18Z</time>
      </trkpt>
      <trkpt lat="47.38674" lon="6.6471">
        <ele>447.137</ele>
        <time>2015-10-02T10:19:19Z</time>
      </trkpt>
      <trkpt lat="47.38672" lon="6.64708">
        <ele>448.037</ele>
        <time>2015-10-02T10:19:20Z</time>
      </trkpt>
      <trkpt lat="47.38669" lon="6.64705">
        <ele>447.165</ele>
        <time>2015-10-02T10:19:21Z</time>
      </trkpt>
      <trkpt lat="47.38667" lon="6.64703">
        <ele>447.551</ele>
        <time>2015-10-02T10:19:22Z</time>
      </trkpt>
      <trkpt lat="47.38665" lon="6.647">
        <ele>447.388</ele>
        <time>2015-10-02T10:19:23Z</time>
      </trkpt>
      <trkpt lat="47.38662" lon="6.64698">
        <ele>448.086</ele>
        <time>2015-10-02T10:19:24Z</time>
      </trkpt>
      <trkpt lat="47.3866" lon="6.64696">
        <ele>447.726</ele>
        <time>2015-10-02T10:19:25Z</time>
      </trkpt>
      <trkpt lat="47.38657" lon="6.64695">
        <ele>448.456</ele>
        <time>2015-10-02T10:19:26Z</time>
      </trkpt>
      <trkpt lat="47.38654" lon="6.64693">
        <ele>447.93</ele>
        <time>2015-10-02T10:19:27Z</time>
      </trkpt>
      <trkpt lat="47.38652" lon="6.64691">
        <ele>447.151</ele>
        <time>2015-10-02T10:19:28Z</time>
      </trkpt>
      <trkpt lat="47.38649" lon="6.64689">
        <ele>445.383</ele>
        <time>2015-10-02T10:19:29Z</time>
      </trkpt>
      <trkpt lat="47.38647" lon="6.64687">
        <ele>444.957</ele>
        <time>2015-10-02T10:19:30Z</time>
      </trkpt>
      <trkpt lat="47.38644" lon="6.64686">
        <ele>444.794</ele>
        <time>2015-10-02T10:19:31Z</time>
      </trkpt>
      <trkpt lat="47.38641" lon="6.64684">
        <ele>444.075</ele>
        <time>2015-10-02T10:19:32Z</time>
      </trkpt>
      <trkpt lat="47.38638" lon="6.64683">
        <ele>444.53</ele>
        <time>2015-10-02T10:19:33Z</time>
      </trkpt>
      <trkpt lat="47.38636" lon="6.64683">
        <ele>445.245</ele>
        <time>2015-10-02T10:19:34Z</time>
      </trkpt>
      <trkpt lat="47.38633" lon="6.64683">
        <ele>445.999</ele>
        <time>2015-10-02T10:19:35Z</time>
      </trkpt>
      <trkpt lat="47.38629" lon="6.64682">
        <ele>446.285</ele>
        <time>2015-10-02T10:19:36Z</time>
      </trkpt>
      <trkpt lat="47.38626" lon="6.64682">
        <ele>446.18</ele>
        <time>2015-10-02T10:19:37Z</time>
      </trkpt>
      <trkpt lat="47.38622" lon="6.64681">
        <ele>445.815</ele>
        <time>2015-10-02T10:19:38Z</time>
      </trkpt>
      <trkpt lat="47.38619" lon="6.64681">
        <ele>445.427</ele>
        <time>2015-10-02T10:19:39Z</time>
      </trkpt>
      <trkpt lat="47.38615" lon="6.64681">
        <ele>445.405</ele>
        <time>2015-10-02T10:19:40Z</time>
      </trkpt>
      <trkpt lat="47.38612" lon="6.64681">
        <ele>446.234</ele>
        <time>2015-10-02T10:19:41Z</time>
      </trkpt>
      <trkpt lat="47.38608" lon="6.64681">
        <ele>446.158</ele>
        <time>2015-10-02T10:19:42Z</time>
      </trkpt>
      <trkpt lat="47.38604" lon="6.6468">
        <ele>446.157</ele>
        <time>2015-10-02T10:19:43Z</time>
      </trkpt>
      <trkpt lat="47.386" lon="6.6468">
        <ele>447.674</ele>
        <time>2015-10-02T10:19:44Z</time>
      </trkpt>
      <trkpt lat="47.38596" lon="6.6468">
        <ele>447.093</ele>
        <time>2015-10-02T10:19:45Z</time>
      </trkpt>
      <trkpt lat="47.38592" lon="6.64681">
        <ele>446.815</ele>
        <time>2015-10-02T10:19:46Z</time>
      </trkpt>
      <trkpt lat="47.38587" lon="6.64681">
        <ele>445.313</ele>
        <time>2015-10-02T10:19:47Z</time>
      </trkpt>
      <trkpt lat="47.38583" lon="6.6468">
        <ele>445.504</ele>
        <time>2015-10-02T10:19:48Z</time>
      </trkpt>
      <trkpt lat="47.38579" lon="6.6468">
        <ele>444.268</ele>
        <time>2015-10-02T10:19:49Z</time>
      </trkpt>
      <trkpt lat="47.38574" lon="6.6468">
        <ele>444.674</ele>
        <time>2015-10-02T10:19:50Z</time>
      </trkpt>
      <trkpt lat="47.3857" lon="6.6468">
        <ele>444.046</ele>
        <time>2015-10-02T10:19:51Z</time>
      </trkpt>
      <trkpt lat="47.38565" lon="6.6468">
        <ele>443.739</ele>
        <time>2015-10-02T10:19:52Z</time>
      </trkpt>
      <trkpt lat="47.38561" lon="6.6468">
        <ele>443.492</ele>
        <time>2015-10-02T10:19:53Z</time>
      </trkpt>
      <trkpt lat="47.38557" lon="6.64681">
        <ele>442.8</ele>
        <time>2015-10-02T10:19:54Z</time>
      </trkpt>
      <trkpt lat="47.38552" lon="6.64681">
        <ele>443.003</ele>
        <time>2015-10-02T10:19:55Z</time>
      </trkpt>
      <trkpt lat="47.38548" lon="6.64681">
        <ele>442.938</ele>
        <time>2015-10-02T10:19:56Z</time>
      </trkpt>
      <trkpt lat="47.38544" lon="6.64682">
        <ele>442.56</ele>
        <time>2015-10-02T10:19:57Z</time>
      </trkpt>
      <trkpt lat="47.38539" lon="6.64682">
        <ele>441.804</ele>
        <time>2015-10-02T10:19:58Z</time>
      </trkpt>
      <trkpt lat="47.38535" lon="6.64682">
        <ele>441.798</ele>
        <time>2015-10-02T10:19:59Z</time>
      </trkpt>
      <trkpt lat="47.3853" lon="6.64682">
        <ele>441.382</ele>
        <time>2015-10-02T10:20:00Z</time>
      </trkpt>
      <trkpt lat="47.38526" lon="6.64682">
        <ele>441.659</ele>
        <time>2015-10-02T10:20:01Z</time>
      </trkpt>
      <trkpt lat="47.38521" lon="6.64682">
        <ele>441.41</ele>
        <time>2015-10-02T10:20:02Z</time>
      </trkpt>
      <trkpt lat="47.38517" lon="6.64682">
        <ele>441.344</ele>
        <time>2015-10-02T10:20:03Z</time>
      </trkpt>
      <trkpt lat="47.38512" lon="6.64682">
        <ele>442.173</ele>
        <time>2015-10-02T10:20:04Z</time>
      </trkpt>
      <trkpt lat="47.38508" lon="6.64682">
        <ele>441.737</ele>
        <time>2015-10-02T10:20:05Z</time>
      </trkpt>
      <trkpt lat="47.38503" lon="6.64683">
        <ele>441.276</ele>
        <time>2015-10-02T10:20:06Z</time>
      </trkpt>
      <trkpt lat="47.38499" lon="6.64684">
        <ele>441.507</ele>
        <time>2015-10-02T10:20:07Z</time>
      </trkpt>
      <trkpt lat="47.38494" lon="6.64684">
        <ele>441.223</ele>
        <time>2015-10-02T10:20:08Z</time>
      </trkpt>
      <trkpt lat="47.3849" lon="6.64684">
        <ele>441.186</ele>
        <time>2015-10-02T10:20:09Z</time>
      </trkpt>
      <trkpt lat="47.38486" lon="6.64684">
        <ele>440.93</ele>
        <time>2015-10-02T10:20:10Z</time>
      </trkpt>
      <trkpt lat="47.38482" lon="6.64684">
        <ele>441.264</ele>
        <time>2015-10-02T10:20:11Z</time>
      </trkpt>
      <trkpt lat="47.38478" lon="6.64685">
        <ele>441.389</ele>
        <time>2015-10-02T10:20:12Z</time>
      </trkpt>
      <trkpt lat="47.38474" lon="6.64684">
        <ele>441.204</ele>
        <time>2015-10-02T10:20:13Z</time>
      </trkpt>
      <trkpt lat="47.3847" lon="6.64684">
        <ele>441.395</ele>
        <time>2015-10-02T10:20:14Z</time>
      </trkpt>
      <trkpt lat="47.38466" lon="6.64685">
        <ele>441.58</ele>
        <time>2015-10-02T10:20:15Z</time>
      </trkpt>
      <trkpt lat="47.38463" lon="6.64685">
        <ele>442.274</ele>
        <time>2015-10-02T10:20:16Z</time>
      </trkpt>
      <trkpt lat="47.38459" lon="6.64686">
        <ele>442.501</ele>
        <time>2015-10-02T10:20:17Z</time>
      </trkpt>
      <trkpt lat="47.38455" lon="6.64686">
        <ele>442.459</ele>
        <time>2015-10-02T10:20:18Z</time>
      </trkpt>
      <trkpt lat="47.38452" lon="6.64687">
        <ele>443.113</ele>
        <time>2015-10-02T10:20:19Z</time>
      </trkpt>
      <trkpt lat="47.38448" lon="6.64687">
        <ele>442.817</ele>
        <time>2015-10-02T10:20:20Z</time>
      </trkpt>
      <trkpt lat="47.38445" lon="6.64687">
        <ele>442.511</ele>
        <time>2015-10-02T10:20:21Z</time>
      </trkpt>
      <trkpt lat="47.38442" lon="6.64687">
        <ele>442.314</ele>
        <time>2015-10-02T10:20:22Z</time>
      </trkpt>
      <trkpt lat="47.38438" lon="6.64687">
        <ele>442.381</ele>
        <time>2015-10-02T10:20:23Z</time>
      </trkpt>
      <trkpt lat="47.38435" lon="6.64686">
        <ele>442.398</ele>
        <time>2015-10-02T10:20:24Z</time>
      </trkpt>
      <trkpt lat="47.38431" lon="6.64686">
        <ele>442.764</ele>
        <time>2015-10-02T10:20:25Z</time>
      </trkpt>
      <trkpt lat="47.38428" lon="6.64685">
        <ele>442.725</ele>
        <time>2015-10-02T10:20:26Z</time>
      </trkpt>
      <trkpt lat="47.38424" lon="6.64684">
        <ele>442.714</ele>
        <time>2015-10-02T10:20:27Z</time>
      </trkpt>
      <trkpt lat="47.38421" lon="6.64683">
        <ele>443.184</ele>
        <time>2015-10-02T10:20:28Z</time>
      </trkpt>
      <trkpt lat="47.38417" lon="6.64682">
        <ele>443.776</ele>
        <time>2015-10-02T10:20:29Z</time>
      </trkpt>
      <trkpt lat="47.38414" lon="6.64681">
        <ele>443.616</ele>
        <time>2015-10-02T10:20:30Z</time>
      </trkpt>
      <trkpt lat="47.3841" lon="6.6468">
        <ele>444.042</ele>
        <time>2015-10-02T10:20:31Z</time>
      </trkpt>
      <trkpt lat="47.38407" lon="6.64678">
        <ele>443.955</ele>
        <time>2015-10-02T10:20:32Z</time>
      </trkpt>
      <trkpt lat="47.38404" lon="6.64677">
        <ele>444.425</ele>
        <time>2015-10-02T10:20:33Z</time>
      </trkpt>
      <trkpt lat="47.384" lon="6.64675">
        <ele>444.495</ele>
        <time>2015-10-02T10:20:34Z</time>
      </trkpt>
      <trkpt lat="47.38397" lon="6.64673">
        <ele>444.171</ele>
        <time>2015-10-02T10:20:35Z</time>
      </trkpt>
      <trkpt lat="47.38394" lon="6.64671">
        <ele>444.613</ele>
        <time>2015-10-02T10:20:36Z</time>
      </trkpt>
      <trkpt lat="47.38391" lon="6.64668">
        <ele>444.633</ele>
        <time>2015-10-02T10:20:37Z</time>
      </trkpt>
      <trkpt lat="47.38388" lon="6.64666">
        <ele>444.626</ele>
        <time>2015-10-02T10:20:38Z</time>
      </trkpt>
      <trkpt lat="47.38385" lon="6.64664">
        <ele>444.096</ele>
        <time>2015-10-02T10:20:39Z</time>
      </trkpt>
      <trkpt lat="47.38382" lon="6.64661">
        <ele>443.985</ele>
        <time>2015-10-02T10:20:40Z</time>
      </trkpt>
      <trkpt lat="47.38379" lon="6.64658">
        <ele>444.144</ele>
        <time>2015-10-02T10:20:41Z</time>
      </trkpt>
      <trkpt lat="47.38377" lon="6.64656">
        <ele>444.488</ele>
        <time>2015-10-02T10:20:42Z</time>
      </trkpt>
      <trkpt lat="47.38374" lon="6.64653">
        <ele>444.377</ele>
        <time>2015-10-02T10:20:43Z</time>
      </trkpt>
      <trkpt lat="47.38372" lon="6.64651">
        <ele>444.081</ele>
        <time>2015-10-02T10:20:44Z</time>
      </trkpt>
      <trkpt lat="47.3837" lon="6.64649">
        <ele>444.184</ele>
        <time>2015-10-02T10:20:45Z</time>
      </trkpt>
      <trkpt lat="47.38368" lon="6.64646">
        <ele>444.424</ele>
        <time>2015-10-02T10:20:46Z</time>
      </trkpt>
      <trkpt lat="47.38365" lon="6.64645">
        <ele>444.857</ele>
        <time>2015-10-02T10:20:47Z</time>
      </trkpt>
      <trkpt lat="47.38363" lon="6.64643">
        <ele>445.563</ele>
        <time>2015-10-02T10:20:48Z</time>
      </trkpt>
      <trkpt lat="47.3836" lon="6.6464">
        <ele>445.334</ele>
        <time>2015-10-02T10:20:49Z</time>
      </trkpt>
      <trkpt lat="47.38357" lon="6.64637">
        <ele>445.407</ele>
        <time>2015-10-02T10:20:50Z</time>
      </trkpt>
      <trkpt lat="47.38355" lon="6.64634">
        <ele>445.482</ele>
        <time>2015-10-02T10:20:51Z</time>
      </trkpt>
      <trkpt lat="47.38352" lon="6.64631">
        <ele>445.57</ele>
        <time>2015-10-02T10:20:52Z</time>
      </trkpt>
      <trkpt lat="47.3835" lon="6.64628">
        <ele>445.42</ele>
        <time>2015-10-02T10:20:53Z</time>
      </trkpt>
      <trkpt lat="47.38347" lon="6.64625">
        <ele>445.474</ele>
        <time>2015-10-02T10:20:54Z</time>
      </trkpt>
      <trkpt lat="47.38344" lon="6.64622">
        <ele>445.431</ele>
        <time>2015-10-02T10:20:55Z</time>
      </trkpt>
      <trkpt lat="47.38341" lon="6.64619">
        <ele>445.289</ele>
        <time>2015-10-02T10:20:56Z</time>
      </trkpt>
      <trkpt lat="47.38338" lon="6.64617">
        <ele>445.337</ele>
        <time>2015-10-02T10:20:57Z</time>
      </trkpt>
      <trkpt lat="47.38336" lon="6.64615">
        <ele>445.111</ele>
        <time>2015-10-02T10:20:58Z</time>
      </trkpt>
      <trkpt lat="47.38332" lon="6.64612">
        <ele>445.072</ele>
        <time>2015-10-02T10:20:59Z</time>
      </trkpt>
      <trkpt lat="47.38329" lon="6.64609">
        <ele>444.954</ele>
        <time>2015-10-02T10:21:00Z</time>
      </trkpt>
      <trkpt lat="47.38326" lon="6.64607">
        <ele>445.078</ele>
        <time>2015-10-02T10:21:01Z</time>
      </trkpt>
      <trkpt lat="47.38324" lon="6.64604">
        <ele>444.472</ele>
        <time>2015-10-02T10:21:02Z</time>
      </trkpt>
      <trkpt lat="47.38321" lon="6.64601">
        <ele>444.526</ele>
        <time>2015-10-02T10:21:03Z</time>
      </trkpt>
      <trkpt lat="47.38318" lon="6.64598">
        <ele>443.787</ele>
        <time>2015-10-02T10:21:04Z</time>
      </trkpt>
      <trkpt lat="47.38315" lon="6.64595">
        <ele>443.966</ele>
        <time>2015-10-02T10:21:05Z</time>
      </trkpt>
      <trkpt lat="47.38313" lon="6.64592">
        <ele>444.013</ele>
        <time>2015-10-02T10:21:06Z</time>
      </trkpt>
      <trkpt lat="47.3831" lon="6.64589">
        <ele>444.408</ele>
        <time>2015-10-02T10:21:07Z</time>
      </trkpt>
      <trkpt lat="47.38308" lon="6.64586">
        <ele>444.081</ele>
        <time>2015-10-02T10:21:08Z</time>
      </trkpt>
      <trkpt lat="47.38305" lon="6.64584">
        <ele>443.764</ele>
        <time>2015-10-02T10:21:09Z</time>
      </trkpt>
      <trkpt lat="47.38302" lon="6.64581">
        <ele>443.533</ele>
        <time>2015-10-02T10:21:10Z</time>
      </trkpt>
      <trkpt lat="47.38299" lon="6.64578">
        <ele>443.884</ele>
        <time>2015-10-02T10:21:11Z</time>
      </trkpt>
      <trkpt lat="47.38296" lon="6.64576">
        <ele>443.339</ele>
        <time>2015-10-02T10:21:12Z</time>
      </trkpt>
      <trkpt lat="47.38293" lon="6.64574">
        <ele>444.103</ele>
        <time>2015-10-02T10:21:13Z</time>
      </trkpt>
      <trkpt lat="47.3829" lon="6.64571">
        <ele>444.495</ele>
        <time>2015-10-02T10:21:14Z</time>
      </trkpt>
      <trkpt lat="47.38287" lon="6.64569">
        <ele>444.651</ele>
        <time>2015-10-02T10:21:15Z</time>
      </trkpt>
      <trkpt lat="47.38284" lon="6.64566">
        <ele>444.828</ele>
        <time>2015-10-02T10:21:16Z</time>
      </trkpt>
      <trkpt lat="47.38281" lon="6.64564">
        <ele>445.495</ele>
        <time>2015-10-02T10:21:17Z</time>
      </trkpt>
      <trkpt lat="47.38278" lon="6.64561">
        <ele>445.415</ele>
        <time>2015-10-02T10:21:18Z</time>
      </trkpt>
      <trkpt lat="47.38275" lon="6.64558">
        <ele>445.682</ele>
        <time>2015-10-02T10:21:19Z</time>
      </trkpt>
      <trkpt lat="47.38273" lon="6.64556">
        <ele>445.959</ele>
        <time>2015-10-02T10:21:20Z</time>
      </trkpt>
      <trkpt lat="47.3827" lon="6.64554">
        <ele>446.482</ele>
        <time>2015-10-02T10:21:21Z</time>
      </trkpt>
      <trkpt lat="47.38267" lon="6.64551">
        <ele>446.938</ele>
        <time>2015-10-02T10:21:22Z</time>
      </trkpt>
      <trkpt lat="47.38264" lon="6.64549">
        <ele>447.188</ele>
        <time>2015-10-02T10:21:23Z</time>
      </trkpt>
      <trkpt lat="47.38261" lon="6.64547">
        <ele>446.955</ele>
        <time>2015-10-02T10:21:24Z</time>
      </trkpt>
      <trkpt lat="47.38258" lon="6.64544">
        <ele>447.248</ele>
        <time>2015-10-02T10:21:25Z</time>
      </trkpt>
      <trkpt lat="47.38255" lon="6.64541">
        <ele>446.88</ele>
        <time>2015-10-02T10:21:26Z</time>
      </trkpt>
      <trkpt lat="47.38252" lon="6.64538">
        <ele>446.501</ele>
        <time>2015-10-02T10:21:27Z</time>
      </trkpt>
      <trkpt lat="47.3825" lon="6.64536">
        <ele>446.839</ele>
        <time>2015-10-02T10:21:28Z</time>
      </trkpt>
      <trkpt lat="47.38247" lon="6.64533">
        <ele>447.171</ele>
        <time>2015-10-02T10:21:29Z</time>
      </trkpt>
      <trkpt lat="47.38244" lon="6.64531">
        <ele>447.461</ele>
        <time>2015-10-02T10:21:30Z</time>
      </trkpt>
      <trkpt lat="47.38242" lon="6.64529">
        <ele>446.815</ele>
        <time>2015-10-02T10:21:31Z</time>
      </trkpt>
      <trkpt lat="47.38239" lon="6.64527">
        <ele>447.531</ele>
        <time>2015-10-02T10:21:32Z</time>
      </trkpt>
      <trkpt lat="47.38236" lon="6.64525">
        <ele>447.966</ele>
        <time>2015-10-02T10:21:33Z</time>
      </trkpt>
      <trkpt lat="47.38234" lon="6.64523">
        <ele>447.831</ele>
        <time>2015-10-02T10:21:34Z</time>
      </trkpt>
      <trkpt lat="47.38231" lon="6.64521">
        <ele>447.922</ele>
        <time>2015-10-02T10:21:35Z</time>
      </trkpt>
      <trkpt lat="47.38228" lon="6.64519">
        <ele>447.67</ele>
        <time>2015-10-02T10:21:36Z</time>
      </trkpt>
      <trkpt lat="47.38225" lon="6.64518">
        <ele>447.65</ele>
        <time>2015-10-02T10:21:37Z</time>
      </trkpt>
      <trkpt lat="47.38222" lon="6.64516">
        <ele>447.32</ele>
        <time>2015-10-02T10:21:38Z</time>
      </trkpt>
      <trkpt lat="47.38218" lon="6.64513">
        <ele>447.199</ele>
        <time>2015-10-02T10:21:39Z</time>
      </trkpt>
      <trkpt lat="47.38215" lon="6.64511">
        <ele>447.862</ele>
        <time>2015-10-02T10:21:40Z</time>
      </trkpt>
      <trkpt lat="47.38211" lon="6.6451">
        <ele>447.458</ele>
        <time>2015-10-02T10:21:41Z</time>
      </trkpt>
      <trkpt lat="47.38207" lon="6.64508">
        <ele>447.758</ele>
        <time>2015-10-02T10:21:42Z</time>
      </trkpt>
      <trkpt lat="47.38203" lon="6.64506">
        <ele>447.941</ele>
        <time>2015-10-02T10:21:43Z</time>
      </trkpt>
      <trkpt lat="47.38199" lon="6.64504">
        <ele>448.077</ele>
        <time>2015-10-02T10:21:44Z</time>
      </trkpt>
      <trkpt lat="47.38194" lon="6.64501">
        <ele>448.313</ele>
        <time>2015-10-02T10:21:45Z</time>
      </trkpt>
      <trkpt lat="47.3819" lon="6.64499">
        <ele>447.665</ele>
        <time>2015-10-02T10:21:46Z</time>
      </trkpt>
      <trkpt lat="47.38184" lon="6.64495">
        <ele>447.012</ele>
        <time>2015-10-02T10:21:47Z</time>
      </trkpt>
      <trkpt lat="47.38181" lon="6.64491">
        <ele>447.084</ele>
        <time>2015-10-02T10:21:48Z</time>
      </trkpt>
      <trkpt lat="47.38177" lon="6.64487">
        <ele>447.496</ele>
        <time>2015-10-02T10:21:49Z</time>
      </trkpt>
      <trkpt lat="47.38174" lon="6.64483">
        <ele>447.46</ele>
        <time>2015-10-02T10:21:50Z</time>
      </trkpt>
      <trkpt lat="47.38171" lon="6.64479">
        <ele>448.071</ele>
        <time>2015-10-02T10:21:51Z</time>
      </trkpt>
      <trkpt lat="47.38169" lon="6.64475">
        <ele>448.289</ele>
        <time>2015-10-02T10:21:52Z</time>
      </trkpt>
      <trkpt lat="47.38167" lon="6.64471">
        <ele>448.371</ele>
        <time>2015-10-02T10:21:53Z</time>
      </trkpt>
      <trkpt lat="47.38165" lon="6.64465">
        <ele>448.234</ele>
        <time>2015-10-02T10:21:54Z</time>
      </trkpt>
      <trkpt lat="47.38164" lon="6.6446">
        <ele>449.638</ele>
        <time>2015-10-02T10:21:55Z</time>
      </trkpt>
      <trkpt lat="47.38163" lon="6.64455">
        <ele>449.345</ele>
        <time>2015-10-02T10:21:56Z</time>
      </trkpt>
      <trkpt lat="47.38161" lon="6.6445">
        <ele>448.884</ele>
        <time>2015-10-02T10:21:57Z</time>
      </trkpt>
      <trkpt lat="47.38159" lon="6.64445">
        <ele>448.444</ele>
        <time>2015-10-02T10:21:58Z</time>
      </trkpt>
      <trkpt lat="47.38158" lon="6.6444">
        <ele>448.427</ele>
        <time>2015-10-02T10:21:59Z</time>
      </trkpt>
      <trkpt lat="47.38157" lon="6.64435">
        <ele>448.226</ele>
        <time>2015-10-02T10:22:00Z</time>
      </trkpt>
      <trkpt lat="47.38155" lon="6.6443">
        <ele>448.791</ele>
        <time>2015-10-02T10:22:01Z</time>
      </trkpt>
      <trkpt lat="47.38154" lon="6.64426">
        <ele>449.454</ele>
        <time>2015-10-02T10:22:02Z</time>
      </trkpt>
      <trkpt lat="47.38153" lon="6.64421">
        <ele>449.559</ele>
        <time>2015-10-02T10:22:03Z</time>
      </trkpt>
      <trkpt lat="47.38151" lon="6.64416">
        <ele>448.896</ele>
        <time>2015-10-02T10:22:04Z</time>
      </trkpt>
      <trkpt lat="47.3815" lon="6.64411">
        <ele>449.01</ele>
        <time>2015-10-02T10:22:05Z</time>
      </trkpt>
      <trkpt lat="47.38149" lon="6.64406">
        <ele>449.844</ele>
        <time>2015-10-02T10:22:06Z</time>
      </trkpt>
      <trkpt lat="47.38147" lon="6.64402">
        <ele>451.71</ele>
        <time>2015-10-02T10:22:07Z</time>
      </trkpt>
      <trkpt lat="47.38146" lon="6.64397">
        <ele>452.662</ele>
        <time>2015-10-02T10:22:08Z</time>
      </trkpt>
      <trkpt lat="47.38145" lon="6.64392">
        <ele>452.893</ele>
        <time>2015-10-02T10:22:09Z</time>
      </trkpt>
      <trkpt lat="47.38143" lon="6.64388">
        <ele>453.079</ele>
        <time>2015-10-02T10:22:10Z</time>
      </trkpt>
      <trkpt lat="47.38142" lon="6.64384">
        <ele>452.533</ele>
        <time>2015-10-02T10:22:11Z</time>
      </trkpt>
      <trkpt lat="47.38141" lon="6.64379">
        <ele>452.291</ele>
        <time>2015-10-02T10:22:12Z</time>
      </trkpt>
      <trkpt lat="47.3814" lon="6.64375">
        <ele>452.852</ele>
        <time>2015-10-02T10:22:13Z</time>
      </trkpt>
      <trkpt lat="47.38139" lon="6.64371">
        <ele>453.958</ele>
        <time>2015-10-02T10:22:14Z</time>
      </trkpt>
      <trkpt lat="47.38138" lon="6.64367">
        <ele>453.698</ele>
        <time>2015-10-02T10:22:15Z</time>
      </trkpt>
      <trkpt lat="47.38137" lon="6.64363">
        <ele>455.976</ele>
        <time>2015-10-02T10:22:16Z</time>
      </trkpt>
      <trkpt lat="47.38136" lon="6.64359">
        <ele>456.13</ele>
        <time>2015-10-02T10:22:17Z</time>
      </trkpt>
      <trkpt lat="47.38135" lon="6.64356">
        <ele>456.219</ele>
        <time>2015-10-02T10:22:18Z</time>
      </trkpt>
      <trkpt lat="47.38134" lon="6.64351">
        <ele>456.05</ele>
        <time>2015-10-02T10:22:19Z</time>
      </trkpt>
      <trkpt lat="47.38133" lon="6.64347">
        <ele>457.863</ele>
        <time>2015-10-02T10:22:20Z</time>
      </trkpt>
      <trkpt lat="47.38132" lon="6.64343">
        <ele>458.937</ele>
        <time>2015-10-02T10:22:21Z</time>
      </trkpt>
      <trkpt lat="47.38131" lon="6.64339">
        <ele>458.873</ele>
        <time>2015-10-02T10:22:22Z</time>
      </trkpt>
      <trkpt lat="47.3813" lon="6.64336">
        <ele>458.617</ele>
        <time>2015-10-02T10:22:23Z</time>
      </trkpt>
      <trkpt lat="47.38129" lon="6.64334">
        <ele>458.79</ele>
        <time>2015-10-02T10:22:24Z</time>
      </trkpt>
      <trkpt lat="47.38128" lon="6.64332">
        <ele>458.48</ele>
        <time>2015-10-02T10:22:26Z</time>
      </trkpt>
      <trkpt lat="47.38127" lon="6.64331">
        <ele>458.165</ele>
        <time>2015-10-02T10:22:30Z</time>
      </trkpt>
      <trkpt lat="47.38127" lon="6.6433">
        <ele>458.212</ele>
        <time>2015-10-02T10:22:31Z</time>
      </trkpt>
      <trkpt lat="47.38126" lon="6.6433">
        <ele>458.396</ele>
        <time>2015-10-02T10:22:57Z</time>
      </trkpt>
      <trkpt lat="47.38126" lon="6.64332">
        <ele>459.181</ele>
        <time>2015-10-02T10:23:01Z</time>
      </trkpt>
      <trkpt lat="47.38125" lon="6.64332">
        <ele>459.686</ele>
        <time>2015-10-02T10:23:21Z</time>
      </trkpt>
      <trkpt lat="47.38124" lon="6.64331">
        <ele>460.326</ele>
        <time>2015-10-02T10:23:22Z</time>
      </trkpt>
      <trkpt lat="47.38123" lon="6.64329">
        <ele>459.74</ele>
        <time>2015-10-02T10:23:23Z</time>
      </trkpt>
      <trkpt lat="47.38122" lon="6.64327">
        <ele>459.748</ele>
        <time>2015-10-02T10:23:24Z</time>
      </trkpt>
      <trkpt lat="47.38121" lon="6.64325">
        <ele>459.439</ele>
        <time>2015-10-02T10:23:25Z</time>
      </trkpt>
      <trkpt lat="47.3812" lon="6.64322">
        <ele>459.321</ele>
        <time>2015-10-02T10:23:26Z</time>
      </trkpt>
      <trkpt lat="47.38119" lon="6.6432">
        <ele>459.53</ele>
        <time>2015-10-02T10:23:27Z</time>
      </trkpt>
      <trkpt lat="47.38117" lon="6.64316">
        <ele>459.762</ele>
        <time>2015-10-02T10:23:28Z</time>
      </trkpt>
      <trkpt lat="47.38116" lon="6.64313">
        <ele>460.308</ele>
        <time>2015-10-02T10:23:29Z</time>
      </trkpt>
      <trkpt lat="47.38114" lon="6.64309">
        <ele>460.099</ele>
        <time>2015-10-02T10:23:30Z</time>
      </trkpt>
      <trkpt lat="47.38113" lon="6.64306">
        <ele>459.713</ele>
        <time>2015-10-02T10:23:31Z</time>
      </trkpt>
      <trkpt lat="47.38111" lon="6.64302">
        <ele>459.568</ele>
        <time>2015-10-02T10:23:32Z</time>
      </trkpt>
      <trkpt lat="47.38109" lon="6.64299">
        <ele>459.505</ele>
        <time>2015-10-02T10:23:33Z</time>
      </trkpt>
      <trkpt lat="47.38108" lon="6.64296">
        <ele>459.575</ele>
        <time>2015-10-02T10:23:34Z</time>
      </trkpt>
      <trkpt lat="47.38106" lon="6.64292">
        <ele>459.423</ele>
        <time>2015-10-02T10:23:35Z</time>
      </trkpt>
      <trkpt lat="47.38104" lon="6.64288">
        <ele>459.245</ele>
        <time>2015-10-02T10:23:36Z</time>
      </trkpt>
      <trkpt lat="47.38102" lon="6.64284">
        <ele>458.335</ele>
        <time>2015-10-02T10:23:37Z</time>
      </trkpt>
      <trkpt lat="47.381" lon="6.6428">
        <ele>458.598</ele>
        <time>2015-10-02T10:23:38Z</time>
      </trkpt>
      <trkpt lat="47.38098" lon="6.64277">
        <ele>456.742</ele>
        <time>2015-10-02T10:23:39Z</time>
      </trkpt>
      <trkpt lat="47.38096" lon="6.64274">
        <ele>458.333</ele>
        <time>2015-10-02T10:23:40Z</time>
      </trkpt>
      <trkpt lat="47.38094" lon="6.64271">
        <ele>457.729</ele>
        <time>2015-10-02T10:23:41Z</time>
      </trkpt>
      <trkpt lat="47.38093" lon="6.64267">
        <ele>458.155</ele>
        <time>2015-10-02T10:23:42Z</time>
      </trkpt>
      <trkpt lat="47.38091" lon="6.64264">
        <ele>457.959</ele>
        <time>2015-10-02T10:23:43Z</time>
      </trkpt>
      <trkpt lat="47.38088" lon="6.6426">
        <ele>457.695</ele>
        <time>2015-10-02T10:23:44Z</time>
      </trkpt>
      <trkpt lat="47.38086" lon="6.64257">
        <ele>457.734</ele>
        <time>2015-10-02T10:23:45Z</time>
      </trkpt>
      <trkpt lat="47.38084" lon="6.64254">
        <ele>457.28</ele>
        <time>2015-10-02T10:23:46Z</time>
      </trkpt>
      <trkpt lat="47.38082" lon="6.64251">
        <ele>456.602</ele>
        <time>2015-10-02T10:23:47Z</time>
      </trkpt>
      <trkpt lat="47.3808" lon="6.64247">
        <ele>456.155</ele>
        <time>2015-10-02T10:23:48Z</time>
      </trkpt>
      <trkpt lat="47.38078" lon="6.64243">
        <ele>455.706</ele>
        <time>2015-10-02T10:23:49Z</time>
      </trkpt>
      <trkpt lat="47.38076" lon="6.6424">
        <ele>455.732</ele>
        <time>2015-10-02T10:23:50Z</time>
      </trkpt>
      <trkpt lat="47.38074" lon="6.64237">
        <ele>455.248</ele>
        <time>2015-10-02T10:23:51Z</time>
      </trkpt>
      <trkpt lat="47.38072" lon="6.64233">
        <ele>455.196</ele>
        <time>2015-10-02T10:23:52Z</time>
      </trkpt>
      <trkpt lat="47.3807" lon="6.6423">
        <ele>455.259</ele>
        <time>2015-10-02T10:23:53Z</time>
      </trkpt>
      <trkpt lat="47.38068" lon="6.64226">
        <ele>455.383</ele>
        <time>2015-10-02T10:23:54Z</time>
      </trkpt>
      <trkpt lat="47.38066" lon="6.64223">
        <ele>455.264</ele>
        <time>2015-10-02T10:23:55Z</time>
      </trkpt>
      <trkpt lat="47.38064" lon="6.64219">
        <ele>454.579</ele>
        <time>2015-10-02T10:23:56Z</time>
      </trkpt>
      <trkpt lat="47.38062" lon="6.64216">
        <ele>454.577</ele>
        <time>2015-10-02T10:23:57Z</time>
      </trkpt>
      <trkpt lat="47.38061" lon="6.64212">
        <ele>454.081</ele>
        <time>2015-10-02T10:23:58Z</time>
      </trkpt>
      <trkpt lat="47.38059" lon="6.64209">
        <ele>454.804</ele>
        <time>2015-10-02T10:23:59Z</time>
      </trkpt>
      <trkpt lat="47.38057" lon="6.64205">
        <ele>454.57</ele>
        <time>2015-10-02T10:24:00Z</time>
      </trkpt>
      <trkpt lat="47.38055" lon="6.64201">
        <ele>454.374</ele>
        <time>2015-10-02T10:24:01Z</time>
      </trkpt>
      <trkpt lat="47.38053" lon="6.64198">
        <ele>454.238</ele>
        <time>2015-10-02T10:24:02Z</time>
      </trkpt>
      <trkpt lat="47.38051" lon="6.64194">
        <ele>454.694</ele>
        <time>2015-10-02T10:24:03Z</time>
      </trkpt>
      <trkpt lat="47.38049" lon="6.64191">
        <ele>454.736</ele>
        <time>2015-10-02T10:24:04Z</time>
      </trkpt>
      <trkpt lat="47.38047" lon="6.64187">
        <ele>455.821</ele>
        <time>2015-10-02T10:24:05Z</time>
      </trkpt>
      <trkpt lat="47.38046" lon="6.64183">
        <ele>455.528</ele>
        <time>2015-10-02T10:24:06Z</time>
      </trkpt>
      <trkpt lat="47.38044" lon="6.6418">
        <ele>455.201</ele>
        <time>2015-10-02T10:24:07Z</time>
      </trkpt>
      <trkpt lat="47.38042" lon="6.64176">
        <ele>455.956</ele>
        <time>2015-10-02T10:24:08Z</time>
      </trkpt>
      <trkpt lat="47.3804" lon="6.64173">
        <ele>455.568</ele>
        <time>2015-10-02T10:24:09Z</time>
      </trkpt>
      <trkpt lat="47.38038" lon="6.64169">
        <ele>456.037</ele>
        <time>2015-10-02T10:24:10Z</time>
      </trkpt>
      <trkpt lat="47.38036" lon="6.64166">
        <ele>455.933</ele>
        <time>2015-10-02T10:24:11Z</time>
      </trkpt>
      <trkpt lat="47.38034" lon="6.64162">
        <ele>456.039</ele>
        <time>2015-10-02T10:24:12Z</time>
      </trkpt>
      <trkpt lat="47.38033" lon="6.64159">
        <ele>456.404</ele>
        <time>2015-10-02T10:24:13Z</time>
      </trkpt>
      <trkpt lat="47.38031" lon="6.64155">
        <ele>457.176</ele>
        <time>2015-10-02T10:24:14Z</time>
      </trkpt>
      <trkpt lat="47.3803" lon="6.64152">
        <ele>457.752</ele>
        <time>2015-10-02T10:24:15Z</time>
      </trkpt>
      <trkpt lat="47.38029" lon="6.64149">
        <ele>458.413</ele>
        <time>2015-10-02T10:24:16Z</time>
      </trkpt>
      <trkpt lat="47.38027" lon="6.64146">
        <ele>458.712</ele>
        <time>2015-10-02T10:24:17Z</time>
      </trkpt>
      <trkpt lat="47.38025" lon="6.64143">
        <ele>458.677</ele>
        <time>2015-10-02T10:24:18Z</time>
      </trkpt>
      <trkpt lat="47.38024" lon="6.6414">
        <ele>459.772</ele>
        <time>2015-10-02T10:24:19Z</time>
      </trkpt>
      <trkpt lat="47.38022" lon="6.64138">
        <ele>459.457</ele>
        <time>2015-10-02T10:24:20Z</time>
      </trkpt>
      <trkpt lat="47.38021" lon="6.64135">
        <ele>459.731</ele>
        <time>2015-10-02T10:24:21Z</time>
      </trkpt>
      <trkpt lat="47.38019" lon="6.64132">
        <ele>459.029</ele>
        <time>2015-10-02T10:24:22Z</time>
      </trkpt>
      <trkpt lat="47.38017" lon="6.64129">
        <ele>459.144</ele>
        <time>2015-10-02T10:24:23Z</time>
      </trkpt>
      <trkpt lat="47.38015" lon="6.64126">
        <ele>459.678</ele>
        <time>2015-10-02T10:24:24Z</time>
      </trkpt>
      <trkpt lat="47.38014" lon="6.64123">
        <ele>459.775</ele>
        <time>2015-10-02T10:24:25Z</time>
      </trkpt>
      <trkpt lat="47.38012" lon="6.6412">
        <ele>459.756</ele>
        <time>2015-10-02T10:24:26Z</time>
      </trkpt>
      <trkpt lat="47.38011" lon="6.64117">
        <ele>459.875</ele>
        <time>2015-10-02T10:24:27Z</time>
      </trkpt>
      <trkpt lat="47.38009" lon="6.64114">
        <ele>459.694</ele>
        <time>2015-10-02T10:24:28Z</time>
      </trkpt>
      <trkpt lat="47.38008" lon="6.64111">
        <ele>461.422</ele>
        <time>2015-10-02T10:24:29Z</time>
      </trkpt>
      <trkpt lat="47.38007" lon="6.64108">
        <ele>461.939</ele>
        <time>2015-10-02T10:24:30Z</time>
      </trkpt>
      <trkpt lat="47.38006" lon="6.64105">
        <ele>462.969</ele>
        <time>2015-10-02T10:24:31Z</time>
      </trkpt>
      <trkpt lat="47.38004" lon="6.64102">
        <ele>463.541</ele>
        <time>2015-10-02T10:24:32Z</time>
      </trkpt>
      <trkpt lat="47.38003" lon="6.64099">
        <ele>462.916</ele>
        <time>2015-10-02T10:24:33Z</time>
      </trkpt>
      <trkpt lat="47.38001" lon="6.64096">
        <ele>461.914</ele>
        <time>2015-10-02T10:24:34Z</time>
      </trkpt>
      <trkpt lat="47.38" lon="6.64093">
        <ele>461.865</ele>
        <time>2015-10-02T10:24:35Z</time>
      </trkpt>
      <trkpt lat="47.37998" lon="6.64091">
        <ele>461.288</ele>
        <time>2015-10-02T10:24:36Z</time>
      </trkpt>
      <trkpt lat="47.37997" lon="6.64088">
        <ele>460.721</ele>
        <time>2015-10-02T10:24:37Z</time>
      </trkpt>
      <trkpt lat="47.37996" lon="6.64086">
        <ele>460.253</ele>
        <time>2015-10-02T10:24:38Z</time>
      </trkpt>
      <trkpt lat="47.37995" lon="6.64084">
        <ele>461.234</ele>
        <time>2015-10-02T10:24:39Z</time>
      </trkpt>
      <trkpt lat="47.37993" lon="6.64081">
        <ele>461.12</ele>
        <time>2015-10-02T10:24:40Z</time>
      </trkpt>
      <trkpt lat="47.37992" lon="6.64079">
        <ele>460.873</ele>
        <time>2015-10-02T10:24:41Z</time>
      </trkpt>
      <trkpt lat="47.3799" lon="6.64076">
        <ele>460.377</ele>
        <time>2015-10-02T10:24:42Z</time>
      </trkpt>
      <trkpt lat="47.37988" lon="6.64074">
        <ele>460.377</ele>
        <time>2015-10-02T10:24:43Z</time>
      </trkpt>
      <trkpt lat="47.37987" lon="6.64072">
        <ele>460.964</ele>
        <time>2015-10-02T10:24:44Z</time>
      </trkpt>
      <trkpt lat="47.37986" lon="6.64069">
        <ele>461.142</ele>
        <time>2015-10-02T10:24:45Z</time>
      </trkpt>
      <trkpt lat="47.37984" lon="6.64067">
        <ele>460.979</ele>
        <time>2015-10-02T10:24:46Z</time>
      </trkpt>
      <trkpt lat="47.37983" lon="6.64065">
        <ele>460.566</ele>
        <time>2015-10-02T10:24:47Z</time>
      </trkpt>
      <trkpt lat="47.37982" lon="6.64062">
        <ele>460.251</ele>
        <time>2015-10-02T10:24:48Z</time>
      </trkpt>
      <trkpt lat="47.37981" lon="6.6406">
        <ele>460.803</ele>
        <time>2015-10-02T10:24:49Z</time>
      </trkpt>
      <trkpt lat="47.37979" lon="6.64057">
        <ele>460.845</ele>
        <time>2015-10-02T10:24:50Z</time>
      </trkpt>
      <trkpt lat="47.37978" lon="6.64054">
        <ele>462.395</ele>
        <time>2015-10-02T10:24:51Z</time>
      </trkpt>
      <trkpt lat="47.37977" lon="6.64051">
        <ele>461.916</ele>
        <time>2015-10-02T10:24:52Z</time>
      </trkpt>
      <trkpt lat="47.37975" lon="6.64049">
        <ele>462.747</ele>
        <time>2015-10-02T10:24:53Z</time>
      </trkpt>
      <trkpt lat="47.37974" lon="6.64046">
        <ele>463.663</ele>
        <time>2015-10-02T10:24:54Z</time>
      </trkpt>
      <trkpt lat="47.37972" lon="6.64043">
        <ele>463.547</ele>
        <time>2015-10-02T10:24:55Z</time>
      </trkpt>
      <trkpt lat="47.37971" lon="6.6404">
        <ele>463.361</ele>
        <time>2015-10-02T10:24:56Z</time>
      </trkpt>
      <trkpt lat="47.37969" lon="6.64037">
        <ele>463.616</ele>
        <time>2015-10-02T10:24:57Z</time>
      </trkpt>
      <trkpt lat="47.37968" lon="6.64034">
        <ele>464.144</ele>
        <time>2015-10-02T10:24:58Z</time>
      </trkpt>
      <trkpt lat="47.37966" lon="6.6403">
        <ele>463.226</ele>
        <time>2015-10-02T10:24:59Z</time>
      </trkpt>
      <trkpt lat="47.37965" lon="6.64027">
        <ele>463.802</ele>
        <time>2015-10-02T10:25:00Z</time>
      </trkpt>
      <trkpt lat="47.37964" lon="6.64023">
        <ele>463.625</ele>
        <time>2015-10-02T10:25:01Z</time>
      </trkpt>
      <trkpt lat="47.37963" lon="6.6402">
        <ele>462.844</ele>
        <time>2015-10-02T10:25:02Z</time>
      </trkpt>
      <trkpt lat="47.37962" lon="6.64016">
        <ele>462.692</ele>
        <time>2015-10-02T10:25:03Z</time>
      </trkpt>
      <trkpt lat="47.3796" lon="6.64013">
        <ele>462.392</ele>
        <time>2015-10-02T10:25:04Z</time>
      </trkpt>
      <trkpt lat="47.37958" lon="6.6401">
        <ele>462.404</ele>
        <time>2015-10-02T10:25:05Z</time>
      </trkpt>
      <trkpt lat="47.37957" lon="6.64006">
        <ele>462.706</ele>
        <time>2015-10-02T10:25:06Z</time>
      </trkpt>
      <trkpt lat="47.37955" lon="6.64003">
        <ele>462.463</ele>
        <time>2015-10-02T10:25:07Z</time>
      </trkpt>
      <trkpt lat="47.37954" lon="6.64">
        <ele>462.179</ele>
        <time>2015-10-02T10:25:08Z</time>
      </trkpt>
      <trkpt lat="47.37953" lon="6.63996">
        <ele>461.772</ele>
        <time>2015-10-02T10:25:09Z</time>
      </trkpt>
      <trkpt lat="47.37952" lon="6.63992">
        <ele>462.157</ele>
        <time>2015-10-02T10:25:10Z</time>
      </trkpt>
      <trkpt lat="47.37951" lon="6.63989">
        <ele>461.891</ele>
        <time>2015-10-02T10:25:11Z</time>
      </trkpt>
      <trkpt lat="47.37949" lon="6.63985">
        <ele>462.878</ele>
        <time>2015-10-02T10:25:12Z</time>
      </trkpt>
      <trkpt lat="47.37948" lon="6.63981">
        <ele>462.84</ele>
        <time>2015-10-02T10:25:13Z</time>
      </trkpt>
      <trkpt lat="47.37947" lon="6.63977">
        <ele>463.389</ele>
        <time>2015-10-02T10:25:14Z</time>
      </trkpt>
      <trkpt lat="47.37946" lon="6.63973">
        <ele>463.28</ele>
        <time>2015-10-02T10:25:15Z</time>
      </trkpt>
      <trkpt lat="47.37945" lon="6.63969">
        <ele>462.695</ele>
        <time>2015-10-02T10:25:16Z</time>
      </trkpt>
      <trkpt lat="47.37944" lon="6.63964">
        <ele>462.496</ele>
        <time>2015-10-02T10:25:17Z</time>
      </trkpt>
      <trkpt lat="47.37942" lon="6.63959">
        <ele>462.459</ele>
        <time>2015-10-02T10:25:18Z</time>
      </trkpt>
      <trkpt lat="47.37941" lon="6.63955">
        <ele>462.336</ele>
        <time>2015-10-02T10:25:19Z</time>
      </trkpt>
      <trkpt lat="47.37939" lon="6.63952">
        <ele>463.042</ele>
        <time>2015-10-02T10:25:20Z</time>
      </trkpt>
      <trkpt lat="47.37938" lon="6.63948">
        <ele>462.422</ele>
        <time>2015-10-02T10:25:21Z</time>
      </trkpt>
      <trkpt lat="47.37936" lon="6.63945">
        <ele>461.613</ele>
        <time>2015-10-02T10:25:22Z</time>
      </trkpt>
      <trkpt lat="47.37934" lon="6.63942">
        <ele>461.822</ele>
        <time>2015-10-02T10:25:23Z</time>
      </trkpt>
      <trkpt lat="47.37933" lon="6.63938">
        <ele>461.079</ele>
        <time>2015-10-02T10:25:24Z</time>
      </trkpt>
      <trkpt lat="47.37931" lon="6.63935">
        <ele>460.938</ele>
        <time>2015-10-02T10:25:25Z</time>
      </trkpt>
      <trkpt lat="47.3793" lon="6.63931">
        <ele>460.589</ele>
        <time>2015-10-02T10:25:26Z</time>
      </trkpt>
      <trkpt lat="47.37928" lon="6.63927">
        <ele>460.502</ele>
        <time>2015-10-02T10:25:27Z</time>
      </trkpt>
      <trkpt lat="47.37927" lon="6.63923">
        <ele>460.552</ele>
        <time>2015-10-02T10:25:28Z</time>
      </trkpt>
      <trkpt lat="47.37925" lon="6.63919">
        <ele>461.13</ele>
        <time>2015-10-02T10:25:29Z</time>
      </trkpt>
      <trkpt lat="47.37924" lon="6.63916">
        <ele>462.057</ele>
        <time>2015-10-02T10:25:30Z</time>
      </trkpt>
      <trkpt lat="47.37922" lon="6.63912">
        <ele>461.384</ele>
        <time>2015-10-02T10:25:31Z</time>
      </trkpt>
      <trkpt lat="47.37921" lon="6.63908">
        <ele>461.842</ele>
        <time>2015-10-02T10:25:32Z</time>
      </trkpt>
      <trkpt lat="47.37919" lon="6.63905">
        <ele>461.774</ele>
        <time>2015-10-02T10:25:33Z</time>
      </trkpt>
      <trkpt lat="47.37918" lon="6.63901">
        <ele>461.924</ele>
        <time>2015-10-02T10:25:34Z</time>
      </trkpt>
      <trkpt lat="47.37917" lon="6.63898">
        <ele>462.268</ele>
        <time>2015-10-02T10:25:35Z</time>
      </trkpt>
      <trkpt lat="47.37916" lon="6.63894">
        <ele>462.499</ele>
        <time>2015-10-02T10:25:36Z</time>
      </trkpt>
      <trkpt lat="47.37914" lon="6.63891">
        <ele>462.433</ele>
        <time>2015-10-02T10:25:37Z</time>
      </trkpt>
      <trkpt lat="47.37913" lon="6.63887">
        <ele>462.551</ele>
        <time>2015-10-02T10:25:38Z</time>
      </trkpt>
      <trkpt lat="47.37912" lon="6.63884">
        <ele>463.23</ele>
        <time>2015-10-02T10:25:39Z</time>
      </trkpt>
      <trkpt lat="47.37911" lon="6.63881">
        <ele>463.572</ele>
        <time>2015-10-02T10:25:40Z</time>
      </trkpt>
      <trkpt lat="47.37909" lon="6.63877">
        <ele>463.575</ele>
        <time>2015-10-02T10:25:41Z</time>
      </trkpt>
      <trkpt lat="47.37908" lon="6.63873">
        <ele>462.784</ele>
        <time>2015-10-02T10:25:42Z</time>
      </trkpt>
      <trkpt lat="47.37907" lon="6.6387">
        <ele>462.749</ele>
        <time>2015-10-02T10:25:43Z</time>
      </trkpt>
      <trkpt lat="47.37906" lon="6.63866">
        <ele>462.738</ele>
        <time>2015-10-02T10:25:44Z</time>
      </trkpt>
      <trkpt lat="47.37904" lon="6.63862">
        <ele>461.976</ele>
        <time>2015-10-02T10:25:45Z</time>
      </trkpt>
      <trkpt lat="47.37903" lon="6.63858">
        <ele>461.947</ele>
        <time>2015-10-02T10:25:46Z</time>
      </trkpt>
      <trkpt lat="47.37902" lon="6.63854">
        <ele>462.621</ele>
        <time>2015-10-02T10:25:47Z</time>
      </trkpt>
      <trkpt lat="47.37901" lon="6.63851">
        <ele>462.708</ele>
        <time>2015-10-02T10:25:48Z</time>
      </trkpt>
      <trkpt lat="47.37899" lon="6.63847">
        <ele>463.32</ele>
        <time>2015-10-02T10:25:49Z</time>
      </trkpt>
      <trkpt lat="47.37898" lon="6.63844">
        <ele>463.027</ele>
        <time>2015-10-02T10:25:50Z</time>
      </trkpt>
      <trkpt lat="47.37896" lon="6.6384">
        <ele>463.651</ele>
        <time>2015-10-02T10:25:51Z</time>
      </trkpt>
      <trkpt lat="47.37895" lon="6.63837">
        <ele>463.76</ele>
        <time>2015-10-02T10:25:52Z</time>
      </trkpt>
      <trkpt lat="47.37894" lon="6.63833">
        <ele>463.74</ele>
        <time>2015-10-02T10:25:53Z</time>
      </trkpt>
      <trkpt lat="47.37893" lon="6.6383">
        <ele>463.86</ele>
        <time>2015-10-02T10:25:54Z</time>
      </trkpt>
      <trkpt lat="47.37892" lon="6.63826">
        <ele>463.892</ele>
        <time>2015-10-02T10:25:55Z</time>
      </trkpt>
      <trkpt lat="47.37891" lon="6.63823">
        <ele>464.251</ele>
        <time>2015-10-02T10:25:56Z</time>
      </trkpt>
      <trkpt lat="47.3789" lon="6.63819">
        <ele>464.237</ele>
        <time>2015-10-02T10:25:57Z</time>
      </trkpt>
      <trkpt lat="47.37888" lon="6.63816">
        <ele>463.353</ele>
        <time>2015-10-02T10:25:58Z</time>
      </trkpt>
      <trkpt lat="47.37887" lon="6.63813">
        <ele>463.33</ele>
        <time>2015-10-02T10:25:59Z</time>
      </trkpt>
      <trkpt lat="47.37886" lon="6.6381">
        <ele>463.917</ele>
        <time>2015-10-02T10:26:00Z</time>
      </trkpt>
      <trkpt lat="47.37884" lon="6.63807">
        <ele>464.638</ele>
        <time>2015-10-02T10:26:01Z</time>
      </trkpt>
      <trkpt lat="47.37883" lon="6.63804">
        <ele>464.962</ele>
        <time>2015-10-02T10:26:02Z</time>
      </trkpt>
      <trkpt lat="47.37882" lon="6.63801">
        <ele>464.635</ele>
        <time>2015-10-02T10:26:03Z</time>
      </trkpt>
      <trkpt lat="47.3788" lon="6.63798">
        <ele>464.518</ele>
        <time>2015-10-02T10:26:04Z</time>
      </trkpt>
      <trkpt lat="47.37879" lon="6.63795">
        <ele>464.711</ele>
        <time>2015-10-02T10:26:05Z</time>
      </trkpt>
      <trkpt lat="47.37878" lon="6.63791">
        <ele>464.594</ele>
        <time>2015-10-02T10:26:06Z</time>
      </trkpt>
      <trkpt lat="47.37876" lon="6.63788">
        <ele>464.376</ele>
        <time>2015-10-02T10:26:07Z</time>
      </trkpt>
      <trkpt lat="47.37875" lon="6.63785">
        <ele>464.418</ele>
        <time>2015-10-02T10:26:08Z</time>
      </trkpt>
      <trkpt lat="47.37874" lon="6.63782">
        <ele>464.799</ele>
        <time>2015-10-02T10:26:09Z</time>
      </trkpt>
      <trkpt lat="47.37872" lon="6.63778">
        <ele>464.367</ele>
        <time>2015-10-02T10:26:10Z</time>
      </trkpt>
      <trkpt lat="47.3787" lon="6.63775">
        <ele>465.055</ele>
        <time>2015-10-02T10:26:11Z</time>
      </trkpt>
      <trkpt lat="47.37868" lon="6.63772">
        <ele>465.107</ele>
        <time>2015-10-02T10:26:12Z</time>
      </trkpt>
      <trkpt lat="47.37867" lon="6.63769">
        <ele>465.049</ele>
        <time>2015-10-02T10:26:13Z</time>
      </trkpt>
      <trkpt lat="47.37866" lon="6.63766">
        <ele>465.408</ele>
        <time>2015-10-02T10:26:14Z</time>
      </trkpt>
      <trkpt lat="47.37865" lon="6.63762">
        <ele>465.748</ele>
        <time>2015-10-02T10:26:15Z</time>
      </trkpt>
      <trkpt lat="47.37863" lon="6.63759">
        <ele>466.195</ele>
        <time>2015-10-02T10:26:16Z</time>
      </trkpt>
      <trkpt lat="47.37862" lon="6.63755">
        <ele>466.026</ele>
        <time>2015-10-02T10:26:17Z</time>
      </trkpt>
      <trkpt lat="47.3786" lon="6.63752">
        <ele>466.326</ele>
        <time>2015-10-02T10:26:18Z</time>
      </trkpt>
      <trkpt lat="47.37859" lon="6.63749">
        <ele>466.571</ele>
        <time>2015-10-02T10:26:19Z</time>
      </trkpt>
      <trkpt lat="47.37857" lon="6.63746">
        <ele>467.212</ele>
        <time>2015-10-02T10:26:20Z</time>
      </trkpt>
      <trkpt lat="47.37856" lon="6.63743">
        <ele>467.351</ele>
        <time>2015-10-02T10:26:21Z</time>
      </trkpt>
      <trkpt lat="47.37854" lon="6.6374">
        <ele>467.262</ele>
        <time>2015-10-02T10:26:22Z</time>
      </trkpt>
      <trkpt lat="47.37852" lon="6.63737">
        <ele>467.573</ele>
        <time>2015-10-02T10:26:23Z</time>
      </trkpt>
      <trkpt lat="47.3785" lon="6.63735">
        <ele>467.47</ele>
        <time>2015-10-02T10:26:24Z</time>
      </trkpt>
      <trkpt lat="47.37848" lon="6.63732">
        <ele>466.921</ele>
        <time>2015-10-02T10:26:25Z</time>
      </trkpt>
      <trkpt lat="47.37846" lon="6.63729">
        <ele>466.524</ele>
        <time>2015-10-02T10:26:26Z</time>
      </trkpt>
      <trkpt lat="47.37844" lon="6.63726">
        <ele>466.945</ele>
        <time>2015-10-02T10:26:27Z</time>
      </trkpt>
      <trkpt lat="47.37842" lon="6.63723">
        <ele>467.526</ele>
        <time>2015-10-02T10:26:28Z</time>
      </trkpt>
      <trkpt lat="47.3784" lon="6.6372">
        <ele>466.961</ele>
        <time>2015-10-02T10:26:29Z</time>
      </trkpt>
      <trkpt lat="47.37838" lon="6.63717">
        <ele>467.228</ele>
        <time>2015-10-02T10:26:30Z</time>
      </trkpt>
      <trkpt lat="47.37836" lon="6.63714">
        <ele>466.696</ele>
        <time>2015-10-02T10:26:31Z</time>
      </trkpt>
      <trkpt lat="47.37834" lon="6.63711">
        <ele>466.367</ele>
        <time>2015-10-02T10:26:32Z</time>
      </trkpt>
      <trkpt lat="47.37831" lon="6.63709">
        <ele>466.046</ele>
        <time>2015-10-02T10:26:33Z</time>
      </trkpt>
      <trkpt lat="47.37828" lon="6.63706">
        <ele>466.367</ele>
        <time>2015-10-02T10:26:34Z</time>
      </trkpt>
      <trkpt lat="47.37826" lon="6.63704">
        <ele>465.935</ele>
        <time>2015-10-02T10:26:35Z</time>
      </trkpt>
      <trkpt lat="47.37823" lon="6.63702">
        <ele>466.828</ele>
        <time>2015-10-02T10:26:36Z</time>
      </trkpt>
      <trkpt lat="47.37821" lon="6.637">
        <ele>467.091</ele>
        <time>2015-10-02T10:26:37Z</time>
      </trkpt>
      <trkpt lat="47.37818" lon="6.63698">
        <ele>466.481</ele>
        <time>2015-10-02T10:26:38Z</time>
      </trkpt>
      <trkpt lat="47.37815" lon="6.63696">
        <ele>466.165</ele>
        <time>2015-10-02T10:26:39Z</time>
      </trkpt>
      <trkpt lat="47.37813" lon="6.63694">
        <ele>466.48</ele>
        <time>2015-10-02T10:26:40Z</time>
      </trkpt>
      <trkpt lat="47.3781" lon="6.63692">
        <ele>466.331</ele>
        <time>2015-10-02T10:26:41Z</time>
      </trkpt>
      <trkpt lat="47.37807" lon="6.63689">
        <ele>467</ele>
        <time>2015-10-02T10:26:42Z</time>
      </trkpt>
      <trkpt lat="47.37805" lon="6.63687">
        <ele>467.132</ele>
        <time>2015-10-02T10:26:43Z</time>
      </trkpt>
      <trkpt lat="47.37802" lon="6.63684">
        <ele>467.613</ele>
        <time>2015-10-02T10:26:44Z</time>
      </trkpt>
      <trkpt lat="47.37799" lon="6.63682">
        <ele>466.873</ele>
        <time>2015-10-02T10:26:45Z</time>
      </trkpt>
      <trkpt lat="47.37796" lon="6.6368">
        <ele>466.663</ele>
        <time>2015-10-02T10:26:46Z</time>
      </trkpt>
      <trkpt lat="47.37793" lon="6.63677">
        <ele>466.945</ele>
        <time>2015-10-02T10:26:47Z</time>
      </trkpt>
      <trkpt lat="47.3779" lon="6.63675">
        <ele>467.779</ele>
        <time>2015-10-02T10:26:48Z</time>
      </trkpt>
      <trkpt lat="47.37787" lon="6.63673">
        <ele>468.308</ele>
        <time>2015-10-02T10:26:49Z</time>
      </trkpt>
      <trkpt lat="47.37784" lon="6.63671">
        <ele>468.333</ele>
        <time>2015-10-02T10:26:50Z</time>
      </trkpt>
      <trkpt lat="47.37781" lon="6.6367">
        <ele>468.561</ele>
        <time>2015-10-02T10:26:51Z</time>
      </trkpt>
      <trkpt lat="47.37778" lon="6.63668">
        <ele>467.988</ele>
        <time>2015-10-02T10:26:52Z</time>
      </trkpt>
      <trkpt lat="47.37774" lon="6.63666">
        <ele>467.683</ele>
        <time>2015-10-02T10:26:53Z</time>
      </trkpt>
      <trkpt lat="47.37771" lon="6.63664">
        <ele>467.13</ele>
        <time>2015-10-02T10:26:54Z</time>
      </trkpt>
      <trkpt lat="47.37768" lon="6.63661">
        <ele>467.003</ele>
        <time>2015-10-02T10:26:55Z</time>
      </trkpt>
      <trkpt lat="47.37765" lon="6.63659">
        <ele>466.78</ele>
        <time>2015-10-02T10:26:56Z</time>
      </trkpt>
      <trkpt lat="47.37761" lon="6.63656">
        <ele>466.612</ele>
        <time>2015-10-02T10:26:57Z</time>
      </trkpt>
      <trkpt lat="47.37757" lon="6.63653">
        <ele>466.538</ele>
        <time>2015-10-02T10:26:58Z</time>
      </trkpt>
      <trkpt lat="47.37754" lon="6.63651">
        <ele>466.007</ele>
        <time>2015-10-02T10:26:59Z</time>
      </trkpt>
      <trkpt lat="47.3775" lon="6.63649">
        <ele>465.31</ele>
        <time>2015-10-02T10:27:00Z</time>
      </trkpt>
      <trkpt lat="47.37745" lon="6.63647">
        <ele>464.191</ele>
        <time>2015-10-02T10:27:01Z</time>
      </trkpt>
      <trkpt lat="47.37741" lon="6.63645">
        <ele>464.465</ele>
        <time>2015-10-02T10:27:02Z</time>
      </trkpt>
      <trkpt lat="47.37737" lon="6.63643">
        <ele>464.83</ele>
        <time>2015-10-02T10:27:03Z</time>
      </trkpt>
      <trkpt lat="47.37732" lon="6.6364">
        <ele>464.26</ele>
        <time>2015-10-02T10:27:04Z</time>
      </trkpt>
      <trkpt lat="47.37727" lon="6.63638">
        <ele>463.841</ele>
        <time>2015-10-02T10:27:05Z</time>
      </trkpt>
      <trkpt lat="47.37723" lon="6.63635">
        <ele>463.889</ele>
        <time>2015-10-02T10:27:06Z</time>
      </trkpt>
      <trkpt lat="47.37718" lon="6.63633">
        <ele>463.456</ele>
        <time>2015-10-02T10:27:07Z</time>
      </trkpt>
      <trkpt lat="47.37714" lon="6.63631">
        <ele>463.688</ele>
        <time>2015-10-02T10:27:08Z</time>
      </trkpt>
      <trkpt lat="47.37709" lon="6.63629">
        <ele>464.047</ele>
        <time>2015-10-02T10:27:09Z</time>
      </trkpt>
      <trkpt lat="47.37705" lon="6.63627">
        <ele>464.943</ele>
        <time>2015-10-02T10:27:10Z</time>
      </trkpt>
      <trkpt lat="47.37701" lon="6.63625">
        <ele>464.979</ele>
        <time>2015-10-02T10:27:11Z</time>
      </trkpt>
      <trkpt lat="47.37697" lon="6.63623">
        <ele>464.935</ele>
        <time>2015-10-02T10:27:12Z</time>
      </trkpt>
      <trkpt lat="47.37693" lon="6.63621">
        <ele>465.197</ele>
        <time>2015-10-02T10:27:13Z</time>
      </trkpt>
      <trkpt lat="47.37689" lon="6.63619">
        <ele>465.487</ele>
        <time>2015-10-02T10:27:14Z</time>
      </trkpt>
      <trkpt lat="47.37685" lon="6.63617">
        <ele>465.558</ele>
        <time>2015-10-02T10:27:15Z</time>
      </trkpt>
      <trkpt lat="47.37681" lon="6.63613">
        <ele>465.067</ele>
        <time>2015-10-02T10:27:16Z</time>
      </trkpt>
      <trkpt lat="47.37678" lon="6.63611">
        <ele>465.162</ele>
        <time>2015-10-02T10:27:17Z</time>
      </trkpt>
      <trkpt lat="47.37673" lon="6.63609">
        <ele>464.403</ele>
        <time>2015-10-02T10:27:18Z</time>
      </trkpt>
      <trkpt lat="47.3767" lon="6.63607">
        <ele>464.658</ele>
        <time>2015-10-02T10:27:19Z</time>
      </trkpt>
      <trkpt lat="47.37665" lon="6.63605">
        <ele>464.967</ele>
        <time>2015-10-02T10:27:20Z</time>
      </trkpt>
      <trkpt lat="47.37662" lon="6.63602">
        <ele>465.227</ele>
        <time>2015-10-02T10:27:21Z</time>
      </trkpt>
      <trkpt lat="47.37658" lon="6.636">
        <ele>465.514</ele>
        <time>2015-10-02T10:27:22Z</time>
      </trkpt>
      <trkpt lat="47.37654" lon="6.63597">
        <ele>464.799</ele>
        <time>2015-10-02T10:27:23Z</time>
      </trkpt>
      <trkpt lat="47.3765" lon="6.63595">
        <ele>464.754</ele>
        <time>2015-10-02T10:27:24Z</time>
      </trkpt>
      <trkpt lat="47.37646" lon="6.63593">
        <ele>464.365</ele>
        <time>2015-10-02T10:27:25Z</time>
      </trkpt>
      <trkpt lat="47.37641" lon="6.6359">
        <ele>463.956</ele>
        <time>2015-10-02T10:27:26Z</time>
      </trkpt>
      <trkpt lat="47.37638" lon="6.63587">
        <ele>463.792</ele>
        <time>2015-10-02T10:27:27Z</time>
      </trkpt>
      <trkpt lat="47.37634" lon="6.63583">
        <ele>463.641</ele>
        <time>2015-10-02T10:27:28Z</time>
      </trkpt>
      <trkpt lat="47.3763" lon="6.63581">
        <ele>463.747</ele>
        <time>2015-10-02T10:27:29Z</time>
      </trkpt>
      <trkpt lat="47.37626" lon="6.63579">
        <ele>463.383</ele>
        <time>2015-10-02T10:27:30Z</time>
      </trkpt>
      <trkpt lat="47.37621" lon="6.63575">
        <ele>462.879</ele>
        <time>2015-10-02T10:27:31Z</time>
      </trkpt>
      <trkpt lat="47.37616" lon="6.63572">
        <ele>462.332</ele>
        <time>2015-10-02T10:27:32Z</time>
      </trkpt>
      <trkpt lat="47.3761" lon="6.63571">
        <ele>461.168</ele>
        <time>2015-10-02T10:27:33Z</time>
      </trkpt>
      <trkpt lat="47.37606" lon="6.63569">
        <ele>460.796</ele>
        <time>2015-10-02T10:27:34Z</time>
      </trkpt>
      <trkpt lat="47.37601" lon="6.63568">
        <ele>460.487</ele>
        <time>2015-10-02T10:27:35Z</time>
      </trkpt>
      <trkpt lat="47.37597" lon="6.63566">
        <ele>460.3</ele>
        <time>2015-10-02T10:27:36Z</time>
      </trkpt>
      <trkpt lat="47.37593" lon="6.63565">
        <ele>461.95</ele>
        <time>2015-10-02T10:27:37Z</time>
      </trkpt>
      <trkpt lat="47.37589" lon="6.63563">
        <ele>461.911</ele>
        <time>2015-10-02T10:27:38Z</time>
      </trkpt>
      <trkpt lat="47.37585" lon="6.63561">
        <ele>461.634</ele>
        <time>2015-10-02T10:27:39Z</time>
      </trkpt>
      <trkpt lat="47.3758" lon="6.63559">
        <ele>461.22</ele>
        <time>2015-10-02T10:27:40Z</time>
      </trkpt>
      <trkpt lat="47.37575" lon="6.63557">
        <ele>460.693</ele>
        <time>2015-10-02T10:27:41Z</time>
      </trkpt>
      <trkpt lat="47.37571" lon="6.63556">
        <ele>460.672</ele>
        <time>2015-10-02T10:27:42Z</time>
      </trkpt>
      <trkpt lat="47.37567" lon="6.63555">
        <ele>460.977</ele>
        <time>2015-10-02T10:27:43Z</time>
      </trkpt>
      <trkpt lat="47.37563" lon="6.63554">
        <ele>461.148</ele>
        <time>2015-10-02T10:27:44Z</time>
      </trkpt>
      <trkpt lat="47.37558" lon="6.63552">
        <ele>461.786</ele>
        <time>2015-10-02T10:27:45Z</time>
      </trkpt>
      <trkpt lat="47.37554" lon="6.63552">
        <ele>462.609</ele>
        <time>2015-10-02T10:27:46Z</time>
      </trkpt>
      <trkpt lat="47.3755" lon="6.6355">
        <ele>462.267</ele>
        <time>2015-10-02T10:27:47Z</time>
      </trkpt>
      <trkpt lat="47.37545" lon="6.63548">
        <ele>461.352</ele>
        <time>2015-10-02T10:27:48Z</time>
      </trkpt>
      <trkpt lat="47.37542" lon="6.63545">
        <ele>461.456</ele>
        <time>2015-10-02T10:27:49Z</time>
      </trkpt>
      <trkpt lat="47.37539" lon="6.63543">
        <ele>462.25</ele>
        <time>2015-10-02T10:27:50Z</time>
      </trkpt>
      <trkpt lat="47.37537" lon="6.63542">
        <ele>462.253</ele>
        <time>2015-10-02T10:27:51Z</time>
      </trkpt>
      <trkpt lat="47.37535" lon="6.63539">
        <ele>462.881</ele>
        <time>2015-10-02T10:27:52Z</time>
      </trkpt>
      <trkpt lat="47.37533" lon="6.63537">
        <ele>462.631</ele>
        <time>2015-10-02T10:27:53Z</time>
      </trkpt>
      <trkpt lat="47.37531" lon="6.63535">
        <ele>462.921</ele>
        <time>2015-10-02T10:27:54Z</time>
      </trkpt>
      <trkpt lat="47.37529" lon="6.63534">
        <ele>462.659</ele>
        <time>2015-10-02T10:27:55Z</time>
      </trkpt>
      <trkpt lat="47.37528" lon="6.63532">
        <ele>462.959</ele>
        <time>2015-10-02T10:27:56Z</time>
      </trkpt>
      <trkpt lat="47.37527" lon="6.6353">
        <ele>463.742</ele>
        <time>2015-10-02T10:27:57Z</time>
      </trkpt>
      <trkpt lat="47.37526" lon="6.63528">
        <ele>464.197</ele>
        <time>2015-10-02T10:27:59Z</time>
      </trkpt>
      <trkpt lat="47.37527" lon="6.63527">
        <ele>464.553</ele>
        <time>2015-10-02T10:28:06Z</time>
      </trkpt>
      <trkpt lat="47.37528" lon="6.63528">
        <ele>467.759</ele>
        <time>2015-10-02T10:28:11Z</time>
      </trkpt>
      <trkpt lat="47.37528" lon="6.63524">
        <ele>464.034</ele>
        <time>2015-10-02T10:28:28Z</time>
      </trkpt>
      <trkpt lat="47.37527" lon="6.63522">
        <ele>463.698</ele>
        <time>2015-10-02T10:28:36Z</time>
      </trkpt>
      <trkpt lat="47.37526" lon="6.63521">
        <ele>463.812</ele>
        <time>2015-10-02T10:28:57Z</time>
      </trkpt>
      <trkpt lat="47.37531" lon="6.63523">
        <ele>461.665</ele>
        <time>2015-10-02T10:29:18Z</time>
      </trkpt>
      <trkpt lat="47.37532" lon="6.63524">
        <ele>460.239</ele>
        <time>2015-10-02T10:29:27Z</time>
      </trkpt>
      <trkpt lat="47.37532" lon="6.63526">
        <ele>454.408</ele>
        <time>2015-10-02T10:29:36Z</time>
      </trkpt>
      <trkpt lat="47.37534" lon="6.63528">
        <ele>453.161</ele>
        <time>2015-10-02T10:29:44Z</time>
      </trkpt>
      <trkpt lat="47.3753" lon="6.63526">
        <ele>458.214</ele>
        <time>2015-10-02T10:30:23Z</time>
      </trkpt>
      <trkpt lat="47.37531" lon="6.63524">
        <ele>459.041</ele>
        <time>2015-10-02T10:30:24Z</time>
      </trkpt>
      <trkpt lat="47.37531" lon="6.63522">
        <ele>458.864</ele>
        <time>2015-10-02T10:30:25Z</time>
      </trkpt>
      <trkpt lat="47.37532" lon="6.6352">
        <ele>459.997</ele>
        <time>2015-10-02T10:30:26Z</time>
      </trkpt>
      <trkpt lat="47.37532" lon="6.63517">
        <ele>460.211</ele>
        <time>2015-10-02T10:30:27Z</time>
      </trkpt>
      <trkpt lat="47.37532" lon="6.63514">
        <ele>461.042</ele>
        <time>2015-10-02T10:30:28Z</time>
      </trkpt>
      <trkpt lat="47.37533" lon="6.63511">
        <ele>461.433</ele>
        <time>2015-10-02T10:30:29Z</time>
      </trkpt>
      <trkpt lat="47.37534" lon="6.63507">
        <ele>461.662</ele>
        <time>2015-10-02T10:30:30Z</time>
      </trkpt>
      <trkpt lat="47.37534" lon="6.63503">
        <ele>460.652</ele>
        <time>2015-10-02T10:30:31Z</time>
      </trkpt>
      <trkpt lat="47.37536" lon="6.63498">
        <ele>460.409</ele>
        <time>2015-10-02T10:30:32Z</time>
      </trkpt>
      <trkpt lat="47.37537" lon="6.63494">
        <ele>459.459</ele>
        <time>2015-10-02T10:30:33Z</time>
      </trkpt>
      <trkpt lat="47.37539" lon="6.63489">
        <ele>458.87</ele>
        <time>2015-10-02T10:30:34Z</time>
      </trkpt>
      <trkpt lat="47.3754" lon="6.63485">
        <ele>458.722</ele>
        <time>2015-10-02T10:30:35Z</time>
      </trkpt>
      <trkpt lat="47.37542" lon="6.63479">
        <ele>459.094</ele>
        <time>2015-10-02T10:30:36Z</time>
      </trkpt>
      <trkpt lat="47.37544" lon="6.63474">
        <ele>458.89</ele>
        <time>2015-10-02T10:30:37Z</time>
      </trkpt>
      <trkpt lat="47.37546" lon="6.63469">
        <ele>457.772</ele>
        <time>2015-10-02T10:30:38Z</time>
      </trkpt>
      <trkpt lat="47.37548" lon="6.63463">
        <ele>457.165</ele>
        <time>2015-10-02T10:30:39Z</time>
      </trkpt>
      <trkpt lat="47.37552" lon="6.63457">
        <ele>458.244</ele>
        <time>2015-10-02T10:30:40Z</time>
      </trkpt>
      <trkpt lat="47.37554" lon="6.63451">
        <ele>458.516</ele>
        <time>2015-10-02T10:30:41Z</time>
      </trkpt>
      <trkpt lat="47.37557" lon="6.63444">
        <ele>459.159</ele>
        <time>2015-10-02T10:30:42Z</time>
      </trkpt>
      <trkpt lat="47.37561" lon="6.63439">
        <ele>459.036</ele>
        <time>2015-10-02T10:30:43Z</time>
      </trkpt>
      <trkpt lat="47.37564" lon="6.63433">
        <ele>458.315</ele>
        <time>2015-10-02T10:30:44Z</time>
      </trkpt>
      <trkpt lat="47.37567" lon="6.63425">
        <ele>457.691</ele>
        <time>2015-10-02T10:30:45Z</time>
      </trkpt>
      <trkpt lat="47.3757" lon="6.63418">
        <ele>458.135</ele>
        <time>2015-10-02T10:30:46Z</time>
      </trkpt>
      <trkpt lat="47.37574" lon="6.63411">
        <ele>458.434</ele>
        <time>2015-10-02T10:30:47Z</time>
      </trkpt>
      <trkpt lat="47.37578" lon="6.63403">
        <ele>458.985</ele>
        <time>2015-10-02T10:30:48Z</time>
      </trkpt>
      <trkpt lat="47.37581" lon="6.63395">
        <ele>459.243</ele>
        <time>2015-10-02T10:30:49Z</time>
      </trkpt>
      <trkpt lat="47.37585" lon="6.63386">
        <ele>458.489</ele>
        <time>2015-10-02T10:30:50Z</time>
      </trkpt>
      <trkpt lat="47.37589" lon="6.63378">
        <ele>458.643</ele>
        <time>2015-10-02T10:30:51Z</time>
      </trkpt>
      <trkpt lat="47.37594" lon="6.63369">
        <ele>458.253</ele>
        <time>2015-10-02T10:30:52Z</time>
      </trkpt>
      <trkpt lat="47.37598" lon="6.63359">
        <ele>459.144</ele>
        <time>2015-10-02T10:30:53Z</time>
      </trkpt>
      <trkpt lat="47.37601" lon="6.63351">
        <ele>457.781</ele>
        <time>2015-10-02T10:30:54Z</time>
      </trkpt>
      <trkpt lat="47.37605" lon="6.63344">
        <ele>457.183</ele>
        <time>2015-10-02T10:30:55Z</time>
      </trkpt>
      <trkpt lat="47.37609" lon="6.63335">
        <ele>458.478</ele>
        <time>2015-10-02T10:30:56Z</time>
      </trkpt>
      <trkpt lat="47.37613" lon="6.63329">
        <ele>458.847</ele>
        <time>2015-10-02T10:30:57Z</time>
      </trkpt>
      <trkpt lat="47.37617" lon="6.63321">
        <ele>459.063</ele>
        <time>2015-10-02T10:30:58Z</time>
      </trkpt>
      <trkpt lat="47.3762" lon="6.63314">
        <ele>458.857</ele>
        <time>2015-10-02T10:30:59Z</time>
      </trkpt>
      <trkpt lat="47.37624" lon="6.63307">
        <ele>459.127</ele>
        <time>2015-10-02T10:31:00Z</time>
      </trkpt>
      <trkpt lat="47.37628" lon="6.633">
        <ele>458.636</ele>
        <time>2015-10-02T10:31:01Z</time>
      </trkpt>
      <trkpt lat="47.37631" lon="6.63294">
        <ele>459.301</ele>
        <time>2015-10-02T10:31:02Z</time>
      </trkpt>
      <trkpt lat="47.37634" lon="6.63287">
        <ele>459.015</ele>
        <time>2015-10-02T10:31:03Z</time>
      </trkpt>
      <trkpt lat="47.37637" lon="6.63281">
        <ele>458.472</ele>
        <time>2015-10-02T10:31:04Z</time>
      </trkpt>
      <trkpt lat="47.37639" lon="6.63274">
        <ele>456.748</ele>
        <time>2015-10-02T10:31:05Z</time>
      </trkpt>
      <trkpt lat="47.37642" lon="6.63268">
        <ele>456.225</ele>
        <time>2015-10-02T10:31:06Z</time>
      </trkpt>
      <trkpt lat="47.37644" lon="6.63262">
        <ele>457.156</ele>
        <time>2015-10-02T10:31:07Z</time>
      </trkpt>
      <trkpt lat="47.37647" lon="6.63257">
        <ele>457.352</ele>
        <time>2015-10-02T10:31:08Z</time>
      </trkpt>
      <trkpt lat="47.3765" lon="6.63251">
        <ele>457.315</ele>
        <time>2015-10-02T10:31:09Z</time>
      </trkpt>
      <trkpt lat="47.37652" lon="6.63246">
        <ele>456.893</ele>
        <time>2015-10-02T10:31:10Z</time>
      </trkpt>
      <trkpt lat="47.37655" lon="6.63242">
        <ele>457.432</ele>
        <time>2015-10-02T10:31:11Z</time>
      </trkpt>
      <trkpt lat="47.37657" lon="6.63238">
        <ele>456.881</ele>
        <time>2015-10-02T10:31:12Z</time>
      </trkpt>
      <trkpt lat="47.37658" lon="6.63232">
        <ele>455.441</ele>
        <time>2015-10-02T10:31:13Z</time>
      </trkpt>
      <trkpt lat="47.37661" lon="6.63227">
        <ele>455.201</ele>
        <time>2015-10-02T10:31:14Z</time>
      </trkpt>
      <trkpt lat="47.37664" lon="6.63221">
        <ele>456.888</ele>
        <time>2015-10-02T10:31:15Z</time>
      </trkpt>
      <trkpt lat="47.37666" lon="6.63216">
        <ele>456.401</ele>
        <time>2015-10-02T10:31:16Z</time>
      </trkpt>
      <trkpt lat="47.37669" lon="6.6321">
        <ele>457.223</ele>
        <time>2015-10-02T10:31:17Z</time>
      </trkpt>
      <trkpt lat="47.37672" lon="6.63205">
        <ele>457.152</ele>
        <time>2015-10-02T10:31:18Z</time>
      </trkpt>
      <trkpt lat="47.37675" lon="6.63199">
        <ele>457.287</ele>
        <time>2015-10-02T10:31:19Z</time>
      </trkpt>
      <trkpt lat="47.37678" lon="6.63194">
        <ele>457.014</ele>
        <time>2015-10-02T10:31:20Z</time>
      </trkpt>
      <trkpt lat="47.3768" lon="6.63188">
        <ele>457.066</ele>
        <time>2015-10-02T10:31:21Z</time>
      </trkpt>
      <trkpt lat="47.37683" lon="6.63183">
        <ele>457.155</ele>
        <time>2015-10-02T10:31:22Z</time>
      </trkpt>
      <trkpt lat="47.37686" lon="6.63178">
        <ele>457.034</ele>
        <time>2015-10-02T10:31:23Z</time>
      </trkpt>
      <trkpt lat="47.37688" lon="6.63172">
        <ele>457.435</ele>
        <time>2015-10-02T10:31:24Z</time>
      </trkpt>
      <trkpt lat="47.37691" lon="6.63167">
        <ele>457.717</ele>
        <time>2015-10-02T10:31:25Z</time>
      </trkpt>
      <trkpt lat="47.37694" lon="6.63161">
        <ele>457.664</ele>
        <time>2015-10-02T10:31:26Z</time>
      </trkpt>
      <trkpt lat="47.37697" lon="6.63155">
        <ele>457.552</ele>
        <time>2015-10-02T10:31:27Z</time>
      </trkpt>
      <trkpt lat="47.377" lon="6.63148">
        <ele>457.603</ele>
        <time>2015-10-02T10:31:28Z</time>
      </trkpt>
      <trkpt lat="47.37703" lon="6.63143">
        <ele>456.922</ele>
        <time>2015-10-02T10:31:29Z</time>
      </trkpt>
      <trkpt lat="47.37706" lon="6.63138">
        <ele>456.909</ele>
        <time>2015-10-02T10:31:30Z</time>
      </trkpt>
      <trkpt lat="47.37708" lon="6.63131">
        <ele>455.721</ele>
        <time>2015-10-02T10:31:31Z</time>
      </trkpt>
      <trkpt lat="47.37711" lon="6.63125">
        <ele>455.33</ele>
        <time>2015-10-02T10:31:32Z</time>
      </trkpt>
      <trkpt lat="47.37714" lon="6.63119">
        <ele>455.171</ele>
        <time>2015-10-02T10:31:33Z</time>
      </trkpt>
      <trkpt lat="47.37717" lon="6.63114">
        <ele>455.307</ele>
        <time>2015-10-02T10:31:34Z</time>
      </trkpt>
      <trkpt lat="47.3772" lon="6.63108">
        <ele>456.237</ele>
        <time>2015-10-02T10:31:35Z</time>
      </trkpt>
      <trkpt lat="47.37723" lon="6.63102">
        <ele>455.899</ele>
        <time>2015-10-02T10:31:36Z</time>
      </trkpt>
      <trkpt lat="47.37726" lon="6.63096">
        <ele>455.135</ele>
        <time>2015-10-02T10:31:37Z</time>
      </trkpt>
      <trkpt lat="47.3773" lon="6.6309">
        <ele>454.393</ele>
        <time>2015-10-02T10:31:38Z</time>
      </trkpt>
      <trkpt lat="47.37732" lon="6.63084">
        <ele>454.674</ele>
        <time>2015-10-02T10:31:39Z</time>
      </trkpt>
      <trkpt lat="47.37733" lon="6.63078">
        <ele>453.475</ele>
        <time>2015-10-02T10:31:40Z</time>
      </trkpt>
      <trkpt lat="47.37737" lon="6.63071">
        <ele>452.501</ele>
        <time>2015-10-02T10:31:41Z</time>
      </trkpt>
      <trkpt lat="47.3774" lon="6.63064">
        <ele>452.069</ele>
        <time>2015-10-02T10:31:42Z</time>
      </trkpt>
      <trkpt lat="47.37743" lon="6.63057">
        <ele>452.44</ele>
        <time>2015-10-02T10:31:43Z</time>
      </trkpt>
      <trkpt lat="47.37747" lon="6.63051">
        <ele>452.415</ele>
        <time>2015-10-02T10:31:44Z</time>
      </trkpt>
      <trkpt lat="47.37751" lon="6.63044">
        <ele>452.663</ele>
        <time>2015-10-02T10:31:45Z</time>
      </trkpt>
      <trkpt lat="47.37755" lon="6.63038">
        <ele>452.837</ele>
        <time>2015-10-02T10:31:46Z</time>
      </trkpt>
      <trkpt lat="47.37759" lon="6.63032">
        <ele>452.757</ele>
        <time>2015-10-02T10:31:47Z</time>
      </trkpt>
      <trkpt lat="47.37763" lon="6.63027">
        <ele>453.107</ele>
        <time>2015-10-02T10:31:48Z</time>
      </trkpt>
      <trkpt lat="47.37769" lon="6.63024">
        <ele>453.113</ele>
        <time>2015-10-02T10:31:49Z</time>
      </trkpt>
      <trkpt lat="47.37774" lon="6.6302">
        <ele>452.348</ele>
        <time>2015-10-02T10:31:50Z</time>
      </trkpt>
      <trkpt lat="47.37778" lon="6.63016">
        <ele>452.84</ele>
        <time>2015-10-02T10:31:51Z</time>
      </trkpt>
      <trkpt lat="47.37783" lon="6.63014">
        <ele>452.806</ele>
        <time>2015-10-02T10:31:52Z</time>
      </trkpt>
      <trkpt lat="47.37788" lon="6.63012">
        <ele>452.909</ele>
        <time>2015-10-02T10:31:53Z</time>
      </trkpt>
      <trkpt lat="47.37793" lon="6.63013">
        <ele>453.786</ele>
        <time>2015-10-02T10:31:54Z</time>
      </trkpt>
      <trkpt lat="47.37797" lon="6.63015">
        <ele>453.469</ele>
        <time>2015-10-02T10:31:55Z</time>
      </trkpt>
      <trkpt lat="47.37801" lon="6.63019">
        <ele>455.102</ele>
        <time>2015-10-02T10:31:56Z</time>
      </trkpt>
      <trkpt lat="47.37806" lon="6.63018">
        <ele>454.732</ele>
        <time>2015-10-02T10:31:57Z</time>
      </trkpt>
      <trkpt lat="47.37811" lon="6.6302">
        <ele>455.196</ele>
        <time>2015-10-02T10:31:58Z</time>
      </trkpt>
      <trkpt lat="47.37814" lon="6.63022">
        <ele>455.023</ele>
        <time>2015-10-02T10:31:59Z</time>
      </trkpt>
      <trkpt lat="47.37817" lon="6.63026">
        <ele>455.603</ele>
        <time>2015-10-02T10:32:00Z</time>
      </trkpt>
      <trkpt lat="47.3782" lon="6.63028">
        <ele>455.358</ele>
        <time>2015-10-02T10:32:01Z</time>
      </trkpt>
      <trkpt lat="47.37822" lon="6.63029">
        <ele>456.079</ele>
        <time>2015-10-02T10:32:02Z</time>
      </trkpt>
      <trkpt lat="47.37825" lon="6.63032">
        <ele>457.389</ele>
        <time>2015-10-02T10:32:03Z</time>
      </trkpt>
      <trkpt lat="47.37827" lon="6.63036">
        <ele>457.694</ele>
        <time>2015-10-02T10:32:04Z</time>
      </trkpt>
      <trkpt lat="47.37829" lon="6.63038">
        <ele>457.844</ele>
        <time>2015-10-02T10:32:05Z</time>
      </trkpt>
      <trkpt lat="47.37831" lon="6.6304">
        <ele>458.035</ele>
        <time>2015-10-02T10:32:06Z</time>
      </trkpt>
      <trkpt lat="47.37833" lon="6.63043">
        <ele>458.51</ele>
        <time>2015-10-02T10:32:07Z</time>
      </trkpt>
      <trkpt lat="47.37835" lon="6.63046">
        <ele>459.255</ele>
        <time>2015-10-02T10:32:08Z</time>
      </trkpt>
      <trkpt lat="47.37836" lon="6.6305">
        <ele>460.401</ele>
        <time>2015-10-02T10:32:09Z</time>
      </trkpt>
      <trkpt lat="47.37838" lon="6.63053">
        <ele>460.218</ele>
        <time>2015-10-02T10:32:10Z</time>
      </trkpt>
      <trkpt lat="47.37839" lon="6.63056">
        <ele>460.877</ele>
        <time>2015-10-02T10:32:11Z</time>
      </trkpt>
      <trkpt lat="47.37841" lon="6.63059">
        <ele>460.756</ele>
        <time>2015-10-02T10:32:12Z</time>
      </trkpt>
      <trkpt lat="47.37842" lon="6.63064">
        <ele>460.384</ele>
        <time>2015-10-02T10:32:13Z</time>
      </trkpt>
      <trkpt lat="47.37843" lon="6.63067">
        <ele>460.474</ele>
        <time>2015-10-02T10:32:14Z</time>
      </trkpt>
      <trkpt lat="47.37845" lon="6.63071">
        <ele>460.343</ele>
        <time>2015-10-02T10:32:15Z</time>
      </trkpt>
      <trkpt lat="47.37846" lon="6.63074">
        <ele>460.472</ele>
        <time>2015-10-02T10:32:16Z</time>
      </trkpt>
      <trkpt lat="47.37848" lon="6.63077">
        <ele>459.995</ele>
        <time>2015-10-02T10:32:17Z</time>
      </trkpt>
      <trkpt lat="47.3785" lon="6.63079">
        <ele>460.463</ele>
        <time>2015-10-02T10:32:18Z</time>
      </trkpt>
      <trkpt lat="47.37852" lon="6.63082">
        <ele>459.849</ele>
        <time>2015-10-02T10:32:19Z</time>
      </trkpt>
      <trkpt lat="47.37854" lon="6.63085">
        <ele>460.235</ele>
        <time>2015-10-02T10:32:20Z</time>
      </trkpt>
      <trkpt lat="47.37856" lon="6.63087">
        <ele>460.443</ele>
        <time>2015-10-02T10:32:21Z</time>
      </trkpt>
      <trkpt lat="47.37857" lon="6.63089">
        <ele>460.921</ele>
        <time>2015-10-02T10:32:22Z</time>
      </trkpt>
      <trkpt lat="47.3786" lon="6.63091">
        <ele>460.511</ele>
        <time>2015-10-02T10:32:23Z</time>
      </trkpt>
      <trkpt lat="47.37862" lon="6.63094">
        <ele>460.778</ele>
        <time>2015-10-02T10:32:24Z</time>
      </trkpt>
      <trkpt lat="47.37864" lon="6.63096">
        <ele>460.87</ele>
        <time>2015-10-02T10:32:25Z</time>
      </trkpt>
      <trkpt lat="47.37866" lon="6.63098">
        <ele>461.07</ele>
        <time>2015-10-02T10:32:26Z</time>
      </trkpt>
      <trkpt lat="47.37868" lon="6.631">
        <ele>461.439</ele>
        <time>2015-10-02T10:32:27Z</time>
      </trkpt>
      <trkpt lat="47.37871" lon="6.63103">
        <ele>461.639</ele>
        <time>2015-10-02T10:32:28Z</time>
      </trkpt>
      <trkpt lat="47.37873" lon="6.63105">
        <ele>461.463</ele>
        <time>2015-10-02T10:32:29Z</time>
      </trkpt>
      <trkpt lat="47.37875" lon="6.63107">
        <ele>461.416</ele>
        <time>2015-10-02T10:32:30Z</time>
      </trkpt>
      <trkpt lat="47.37877" lon="6.63109">
        <ele>460.517</ele>
        <time>2015-10-02T10:32:31Z</time>
      </trkpt>
      <trkpt lat="47.3788" lon="6.6311">
        <ele>461.043</ele>
        <time>2015-10-02T10:32:32Z</time>
      </trkpt>
      <trkpt lat="47.37882" lon="6.63112">
        <ele>461.06</ele>
        <time>2015-10-02T10:32:33Z</time>
      </trkpt>
      <trkpt lat="47.37884" lon="6.63113">
        <ele>461.57</ele>
        <time>2015-10-02T10:32:34Z</time>
      </trkpt>
      <trkpt lat="47.37887" lon="6.63114">
        <ele>460.679</ele>
        <time>2015-10-02T10:32:35Z</time>
      </trkpt>
      <trkpt lat="47.37889" lon="6.63116">
        <ele>461.38</ele>
        <time>2015-10-02T10:32:36Z</time>
      </trkpt>
      <trkpt lat="47.37891" lon="6.63118">
        <ele>461.378</ele>
        <time>2015-10-02T10:32:37Z</time>
      </trkpt>
      <trkpt lat="47.37893" lon="6.6312">
        <ele>462.333</ele>
        <time>2015-10-02T10:32:38Z</time>
      </trkpt>
      <trkpt lat="47.37896" lon="6.63122">
        <ele>461.633</ele>
        <time>2015-10-02T10:32:39Z</time>
      </trkpt>
      <trkpt lat="47.37898" lon="6.63124">
        <ele>462.699</ele>
        <time>2015-10-02T10:32:40Z</time>
      </trkpt>
      <trkpt lat="47.379" lon="6.63125">
        <ele>462.206</ele>
        <time>2015-10-02T10:32:41Z</time>
      </trkpt>
      <trkpt lat="47.37903" lon="6.63126">
        <ele>460.734</ele>
        <time>2015-10-02T10:32:42Z</time>
      </trkpt>
      <trkpt lat="47.37905" lon="6.63127">
        <ele>459.998</ele>
        <time>2015-10-02T10:32:43Z</time>
      </trkpt>
      <trkpt lat="47.37907" lon="6.63129">
        <ele>460.08</ele>
        <time>2015-10-02T10:32:44Z</time>
      </trkpt>
      <trkpt lat="47.3791" lon="6.6313">
        <ele>461.356</ele>
        <time>2015-10-02T10:32:45Z</time>
      </trkpt>
      <trkpt lat="47.37912" lon="6.63131">
        <ele>461.982</ele>
        <time>2015-10-02T10:32:46Z</time>
      </trkpt>
      <trkpt lat="47.37914" lon="6.63131">
        <ele>460.626</ele>
        <time>2015-10-02T10:32:47Z</time>
      </trkpt>
      <trkpt lat="47.37917" lon="6.63132">
        <ele>461.303</ele>
        <time>2015-10-02T10:32:48Z</time>
      </trkpt>
      <trkpt lat="47.37919" lon="6.63133">
        <ele>461.034</ele>
        <time>2015-10-02T10:32:49Z</time>
      </trkpt>
      <trkpt lat="47.37921" lon="6.63133">
        <ele>461.35</ele>
        <time>2015-10-02T10:32:50Z</time>
      </trkpt>
      <trkpt lat="47.37923" lon="6.63134">
        <ele>462.243</ele>
        <time>2015-10-02T10:32:51Z</time>
      </trkpt>
      <trkpt lat="47.37925" lon="6.63135">
        <ele>463.495</ele>
        <time>2015-10-02T10:32:52Z</time>
      </trkpt>
      <trkpt lat="47.37927" lon="6.63136">
        <ele>466.233</ele>
        <time>2015-10-02T10:32:53Z</time>
      </trkpt>
      <trkpt lat="47.37929" lon="6.63137">
        <ele>466.375</ele>
        <time>2015-10-02T10:32:54Z</time>
      </trkpt>
      <trkpt lat="47.37931" lon="6.63137">
        <ele>464.403</ele>
        <time>2015-10-02T10:32:55Z</time>
      </trkpt>
      <trkpt lat="47.37933" lon="6.63139">
        <ele>463.292</ele>
        <time>2015-10-02T10:32:56Z</time>
      </trkpt>
      <trkpt lat="47.37936" lon="6.6314">
        <ele>463.519</ele>
        <time>2015-10-02T10:32:57Z</time>
      </trkpt>
      <trkpt lat="47.37938" lon="6.63142">
        <ele>462.887</ele>
        <time>2015-10-02T10:32:58Z</time>
      </trkpt>
      <trkpt lat="47.3794" lon="6.63143">
        <ele>462.579</ele>
        <time>2015-10-02T10:32:59Z</time>
      </trkpt>
      <trkpt lat="47.37943" lon="6.63144">
        <ele>462.248</ele>
        <time>2015-10-02T10:33:00Z</time>
      </trkpt>
      <trkpt lat="47.37945" lon="6.63145">
        <ele>461.863</ele>
        <time>2015-10-02T10:33:01Z</time>
      </trkpt>
      <trkpt lat="47.37948" lon="6.63146">
        <ele>462.443</ele>
        <time>2015-10-02T10:33:02Z</time>
      </trkpt>
      <trkpt lat="47.3795" lon="6.63147">
        <ele>462.107</ele>
        <time>2015-10-02T10:33:03Z</time>
      </trkpt>
      <trkpt lat="47.37953" lon="6.63148">
        <ele>461.957</ele>
        <time>2015-10-02T10:33:04Z</time>
      </trkpt>
      <trkpt lat="47.37955" lon="6.63149">
        <ele>462.611</ele>
        <time>2015-10-02T10:33:05Z</time>
      </trkpt>
      <trkpt lat="47.37957" lon="6.6315">
        <ele>461.916</ele>
        <time>2015-10-02T10:33:06Z</time>
      </trkpt>
      <trkpt lat="47.37959" lon="6.6315">
        <ele>462.956</ele>
        <time>2015-10-02T10:33:07Z</time>
      </trkpt>
      <trkpt lat="47.37961" lon="6.6315">
        <ele>462.938</ele>
        <time>2015-10-02T10:33:08Z</time>
      </trkpt>
      <trkpt lat="47.37964" lon="6.6315">
        <ele>460.82</ele>
        <time>2015-10-02T10:33:09Z</time>
      </trkpt>
      <trkpt lat="47.37967" lon="6.6315">
        <ele>462.979</ele>
        <time>2015-10-02T10:33:10Z</time>
      </trkpt>
      <trkpt lat="47.37969" lon="6.63151">
        <ele>463.391</ele>
        <time>2015-10-02T10:33:11Z</time>
      </trkpt>
      <trkpt lat="47.37972" lon="6.63151">
        <ele>463.271</ele>
        <time>2015-10-02T10:33:12Z</time>
      </trkpt>
      <trkpt lat="47.37974" lon="6.63152">
        <ele>463.038</ele>
        <time>2015-10-02T10:33:13Z</time>
      </trkpt>
      <trkpt lat="47.37977" lon="6.63152">
        <ele>464.161</ele>
        <time>2015-10-02T10:33:14Z</time>
      </trkpt>
      <trkpt lat="47.3798" lon="6.63153">
        <ele>465.07</ele>
        <time>2015-10-02T10:33:15Z</time>
      </trkpt>
      <trkpt lat="47.37982" lon="6.63154">
        <ele>465.268</ele>
        <time>2015-10-02T10:33:16Z</time>
      </trkpt>
      <trkpt lat="47.37985" lon="6.63155">
        <ele>465.076</ele>
        <time>2015-10-02T10:33:17Z</time>
      </trkpt>
      <trkpt lat="47.37987" lon="6.63157">
        <ele>466.079</ele>
        <time>2015-10-02T10:33:18Z</time>
      </trkpt>
      <trkpt lat="47.3799" lon="6.63158">
        <ele>467.132</ele>
        <time>2015-10-02T10:33:19Z</time>
      </trkpt>
      <trkpt lat="47.37992" lon="6.63159">
        <ele>469.326</ele>
        <time>2015-10-02T10:33:20Z</time>
      </trkpt>
      <trkpt lat="47.37994" lon="6.6316">
        <ele>472.438</ele>
        <time>2015-10-02T10:33:21Z</time>
      </trkpt>
      <trkpt lat="47.37997" lon="6.63159">
        <ele>471.558</ele>
        <time>2015-10-02T10:33:22Z</time>
      </trkpt>
      <trkpt lat="47.38" lon="6.63159">
        <ele>471.059</ele>
        <time>2015-10-02T10:33:23Z</time>
      </trkpt>
      <trkpt lat="47.38002" lon="6.63159">
        <ele>471.024</ele>
        <time>2015-10-02T10:33:24Z</time>
      </trkpt>
      <trkpt lat="47.38005" lon="6.63159">
        <ele>471.649</ele>
        <time>2015-10-02T10:33:25Z</time>
      </trkpt>
      <trkpt lat="47.38007" lon="6.63158">
        <ele>472.352</ele>
        <time>2015-10-02T10:33:26Z</time>
      </trkpt>
      <trkpt lat="47.3801" lon="6.63158">
        <ele>473.176</ele>
        <time>2015-10-02T10:33:27Z</time>
      </trkpt>
      <trkpt lat="47.38013" lon="6.63157">
        <ele>474.75</ele>
        <time>2015-10-02T10:33:28Z</time>
      </trkpt>
      <trkpt lat="47.38015" lon="6.63157">
        <ele>475.805</ele>
        <time>2015-10-02T10:33:29Z</time>
      </trkpt>
      <trkpt lat="47.38018" lon="6.63158">
        <ele>475.742</ele>
        <time>2015-10-02T10:33:30Z</time>
      </trkpt>
      <trkpt lat="47.3802" lon="6.63158">
        <ele>476.879</ele>
        <time>2015-10-02T10:33:31Z</time>
      </trkpt>
      <trkpt lat="47.38023" lon="6.63157">
        <ele>477.178</ele>
        <time>2015-10-02T10:33:32Z</time>
      </trkpt>
      <trkpt lat="47.38026" lon="6.63157">
        <ele>478.092</ele>
        <time>2015-10-02T10:33:33Z</time>
      </trkpt>
      <trkpt lat="47.38029" lon="6.63157">
        <ele>477.737</ele>
        <time>2015-10-02T10:33:34Z</time>
      </trkpt>
      <trkpt lat="47.38031" lon="6.63156">
        <ele>478.499</ele>
        <time>2015-10-02T10:33:35Z</time>
      </trkpt>
      <trkpt lat="47.38034" lon="6.63156">
        <ele>478.584</ele>
        <time>2015-10-02T10:33:36Z</time>
      </trkpt>
      <trkpt lat="47.38036" lon="6.63155">
        <ele>475.863</ele>
        <time>2015-10-02T10:33:37Z</time>
      </trkpt>
      <trkpt lat="47.38039" lon="6.63155">
        <ele>475.616</ele>
        <time>2015-10-02T10:33:38Z</time>
      </trkpt>
      <trkpt lat="47.38042" lon="6.63156">
        <ele>475.279</ele>
        <time>2015-10-02T10:33:39Z</time>
      </trkpt>
      <trkpt lat="47.38044" lon="6.63157">
        <ele>474.33</ele>
        <time>2015-10-02T10:33:40Z</time>
      </trkpt>
      <trkpt lat="47.38047" lon="6.63158">
        <ele>475.17</ele>
        <time>2015-10-02T10:33:41Z</time>
      </trkpt>
      <trkpt lat="47.38049" lon="6.63159">
        <ele>476.26</ele>
        <time>2015-10-02T10:33:42Z</time>
      </trkpt>
      <trkpt lat="47.38052" lon="6.63159">
        <ele>476.057</ele>
        <time>2015-10-02T10:33:43Z</time>
      </trkpt>
      <trkpt lat="47.38054" lon="6.6316">
        <ele>474.833</ele>
        <time>2015-10-02T10:33:44Z</time>
      </trkpt>
      <trkpt lat="47.38056" lon="6.63159">
        <ele>475.059</ele>
        <time>2015-10-02T10:33:45Z</time>
      </trkpt>
      <trkpt lat="47.3806" lon="6.63159">
        <ele>473.158</ele>
        <time>2015-10-02T10:33:46Z</time>
      </trkpt>
      <trkpt lat="47.38063" lon="6.63159">
        <ele>472.306</ele>
        <time>2015-10-02T10:33:47Z</time>
      </trkpt>
      <trkpt lat="47.38065" lon="6.63159">
        <ele>472.586</ele>
        <time>2015-10-02T10:33:48Z</time>
      </trkpt>
      <trkpt lat="47.38067" lon="6.63159">
        <ele>472.439</ele>
        <time>2015-10-02T10:33:49Z</time>
      </trkpt>
      <trkpt lat="47.38069" lon="6.63159">
        <ele>473.17</ele>
        <time>2015-10-02T10:33:50Z</time>
      </trkpt>
      <trkpt lat="47.38071" lon="6.6316">
        <ele>472.966</ele>
        <time>2015-10-02T10:33:51Z</time>
      </trkpt>
      <trkpt lat="47.38074" lon="6.63161">
        <ele>472.405</ele>
        <time>2015-10-02T10:33:52Z</time>
      </trkpt>
      <trkpt lat="47.38076" lon="6.63162">
        <ele>472.338</ele>
        <time>2015-10-02T10:33:53Z</time>
      </trkpt>
      <trkpt lat="47.38078" lon="6.63163">
        <ele>471.888</ele>
        <time>2015-10-02T10:33:54Z</time>
      </trkpt>
      <trkpt lat="47.3808" lon="6.63164">
        <ele>471.2</ele>
        <time>2015-10-02T10:33:55Z</time>
      </trkpt>
      <trkpt lat="47.38083" lon="6.63166">
        <ele>471.038</ele>
        <time>2015-10-02T10:33:56Z</time>
      </trkpt>
      <trkpt lat="47.38085" lon="6.63167">
        <ele>471.099</ele>
        <time>2015-10-02T10:33:57Z</time>
      </trkpt>
      <trkpt lat="47.38088" lon="6.63168">
        <ele>471.975</ele>
        <time>2015-10-02T10:33:58Z</time>
      </trkpt>
      <trkpt lat="47.38091" lon="6.6317">
        <ele>472.212</ele>
        <time>2015-10-02T10:33:59Z</time>
      </trkpt>
      <trkpt lat="47.38094" lon="6.63171">
        <ele>471.302</ele>
        <time>2015-10-02T10:34:00Z</time>
      </trkpt>
      <trkpt lat="47.38097" lon="6.63172">
        <ele>471.187</ele>
        <time>2015-10-02T10:34:01Z</time>
      </trkpt>
      <trkpt lat="47.381" lon="6.63174">
        <ele>471.455</ele>
        <time>2015-10-02T10:34:02Z</time>
      </trkpt>
      <trkpt lat="47.38102" lon="6.63174">
        <ele>471.876</ele>
        <time>2015-10-02T10:34:03Z</time>
      </trkpt>
      <trkpt lat="47.38105" lon="6.63176">
        <ele>471.376</ele>
        <time>2015-10-02T10:34:04Z</time>
      </trkpt>
      <trkpt lat="47.38107" lon="6.63177">
        <ele>472.857</ele>
        <time>2015-10-02T10:34:05Z</time>
      </trkpt>
      <trkpt lat="47.3811" lon="6.63179">
        <ele>469.533</ele>
        <time>2015-10-02T10:34:06Z</time>
      </trkpt>
      <trkpt lat="47.38113" lon="6.6318">
        <ele>469.397</ele>
        <time>2015-10-02T10:34:07Z</time>
      </trkpt>
      <trkpt lat="47.38115" lon="6.63182">
        <ele>470.039</ele>
        <time>2015-10-02T10:34:08Z</time>
      </trkpt>
      <trkpt lat="47.38117" lon="6.63184">
        <ele>469.737</ele>
        <time>2015-10-02T10:34:09Z</time>
      </trkpt>
      <trkpt lat="47.38119" lon="6.63185">
        <ele>471.458</ele>
        <time>2015-10-02T10:34:10Z</time>
      </trkpt>
      <trkpt lat="47.38121" lon="6.63187">
        <ele>472.42</ele>
        <time>2015-10-02T10:34:11Z</time>
      </trkpt>
      <trkpt lat="47.38123" lon="6.63188">
        <ele>473.997</ele>
        <time>2015-10-02T10:34:12Z</time>
      </trkpt>
      <trkpt lat="47.38125" lon="6.63189">
        <ele>473.64</ele>
        <time>2015-10-02T10:34:13Z</time>
      </trkpt>
      <trkpt lat="47.38127" lon="6.6319">
        <ele>471.287</ele>
        <time>2015-10-02T10:34:14Z</time>
      </trkpt>
      <trkpt lat="47.38129" lon="6.6319">
        <ele>473.784</ele>
        <time>2015-10-02T10:34:15Z</time>
      </trkpt>
      <trkpt lat="47.38132" lon="6.63191">
        <ele>474.611</ele>
        <time>2015-10-02T10:34:16Z</time>
      </trkpt>
      <trkpt lat="47.38134" lon="6.63191">
        <ele>473.846</ele>
        <time>2015-10-02T10:34:17Z</time>
      </trkpt>
      <trkpt lat="47.38137" lon="6.63191">
        <ele>471.773</ele>
        <time>2015-10-02T10:34:18Z</time>
      </trkpt>
      <trkpt lat="47.3814" lon="6.63192">
        <ele>472.719</ele>
        <time>2015-10-02T10:34:19Z</time>
      </trkpt>
      <trkpt lat="47.38142" lon="6.63193">
        <ele>472.271</ele>
        <time>2015-10-02T10:34:20Z</time>
      </trkpt>
      <trkpt lat="47.38145" lon="6.63194">
        <ele>474.576</ele>
        <time>2015-10-02T10:34:21Z</time>
      </trkpt>
      <trkpt lat="47.38148" lon="6.63194">
        <ele>474.607</ele>
        <time>2015-10-02T10:34:22Z</time>
      </trkpt>
      <trkpt lat="47.38151" lon="6.63194">
        <ele>474.497</ele>
        <time>2015-10-02T10:34:23Z</time>
      </trkpt>
      <trkpt lat="47.38154" lon="6.63193">
        <ele>474.686</ele>
        <time>2015-10-02T10:34:24Z</time>
      </trkpt>
      <trkpt lat="47.38157" lon="6.63191">
        <ele>474.252</ele>
        <time>2015-10-02T10:34:25Z</time>
      </trkpt>
      <trkpt lat="47.3816" lon="6.6319">
        <ele>473.94</ele>
        <time>2015-10-02T10:34:26Z</time>
      </trkpt>
      <trkpt lat="47.38163" lon="6.6319">
        <ele>476.503</ele>
        <time>2015-10-02T10:34:27Z</time>
      </trkpt>
      <trkpt lat="47.38166" lon="6.6319">
        <ele>477.787</ele>
        <time>2015-10-02T10:34:28Z</time>
      </trkpt>
      <trkpt lat="47.38169" lon="6.63191">
        <ele>477.65</ele>
        <time>2015-10-02T10:34:29Z</time>
      </trkpt>
      <trkpt lat="47.38172" lon="6.63191">
        <ele>477.018</ele>
        <time>2015-10-02T10:34:30Z</time>
      </trkpt>
      <trkpt lat="47.38175" lon="6.6319">
        <ele>477.276</ele>
        <time>2015-10-02T10:34:31Z</time>
      </trkpt>
      <trkpt lat="47.38178" lon="6.63189">
        <ele>477.214</ele>
        <time>2015-10-02T10:34:32Z</time>
      </trkpt>
      <trkpt lat="47.38181" lon="6.63188">
        <ele>477.752</ele>
        <time>2015-10-02T10:34:33Z</time>
      </trkpt>
      <trkpt lat="47.38184" lon="6.63188">
        <ele>479.024</ele>
        <time>2015-10-02T10:34:34Z</time>
      </trkpt>
      <trkpt lat="47.38186" lon="6.63188">
        <ele>479.796</ele>
        <time>2015-10-02T10:34:35Z</time>
      </trkpt>
      <trkpt lat="47.38189" lon="6.63188">
        <ele>480.034</ele>
        <time>2015-10-02T10:34:36Z</time>
      </trkpt>
      <trkpt lat="47.38191" lon="6.63188">
        <ele>480.479</ele>
        <time>2015-10-02T10:34:37Z</time>
      </trkpt>
      <trkpt lat="47.38194" lon="6.63187">
        <ele>478.88</ele>
        <time>2015-10-02T10:34:38Z</time>
      </trkpt>
      <trkpt lat="47.38197" lon="6.63185">
        <ele>477.756</ele>
        <time>2015-10-02T10:34:39Z</time>
      </trkpt>
      <trkpt lat="47.382" lon="6.63185">
        <ele>478.299</ele>
        <time>2015-10-02T10:34:40Z</time>
      </trkpt>
      <trkpt lat="47.38202" lon="6.63185">
        <ele>478.471</ele>
        <time>2015-10-02T10:34:41Z</time>
      </trkpt>
      <trkpt lat="47.38205" lon="6.63186">
        <ele>478.374</ele>
        <time>2015-10-02T10:34:42Z</time>
      </trkpt>
      <trkpt lat="47.38208" lon="6.63186">
        <ele>478.371</ele>
        <time>2015-10-02T10:34:43Z</time>
      </trkpt>
      <trkpt lat="47.3821" lon="6.63186">
        <ele>478.394</ele>
        <time>2015-10-02T10:34:44Z</time>
      </trkpt>
      <trkpt lat="47.38213" lon="6.63186">
        <ele>478.231</ele>
        <time>2015-10-02T10:34:45Z</time>
      </trkpt>
      <trkpt lat="47.38216" lon="6.63187">
        <ele>479.957</ele>
        <time>2015-10-02T10:34:46Z</time>
      </trkpt>
      <trkpt lat="47.38218" lon="6.63187">
        <ele>480.087</ele>
        <time>2015-10-02T10:34:47Z</time>
      </trkpt>
      <trkpt lat="47.38221" lon="6.63188">
        <ele>479.757</ele>
        <time>2015-10-02T10:34:48Z</time>
      </trkpt>
      <trkpt lat="47.38223" lon="6.63189">
        <ele>481.091</ele>
        <time>2015-10-02T10:34:49Z</time>
      </trkpt>
      <trkpt lat="47.38225" lon="6.6319">
        <ele>480.709</ele>
        <time>2015-10-02T10:34:50Z</time>
      </trkpt>
      <trkpt lat="47.38228" lon="6.63191">
        <ele>481.783</ele>
        <time>2015-10-02T10:34:51Z</time>
      </trkpt>
      <trkpt lat="47.38231" lon="6.63191">
        <ele>481.213</ele>
        <time>2015-10-02T10:34:52Z</time>
      </trkpt>
      <trkpt lat="47.38234" lon="6.63192">
        <ele>481.016</ele>
        <time>2015-10-02T10:34:53Z</time>
      </trkpt>
      <trkpt lat="47.38237" lon="6.63194">
        <ele>481.572</ele>
        <time>2015-10-02T10:34:54Z</time>
      </trkpt>
      <trkpt lat="47.3824" lon="6.63195">
        <ele>480.746</ele>
        <time>2015-10-02T10:34:55Z</time>
      </trkpt>
      <trkpt lat="47.38243" lon="6.63195">
        <ele>481.972</ele>
        <time>2015-10-02T10:34:56Z</time>
      </trkpt>
      <trkpt lat="47.38246" lon="6.63197">
        <ele>482.867</ele>
        <time>2015-10-02T10:34:57Z</time>
      </trkpt>
      <trkpt lat="47.38249" lon="6.63198">
        <ele>481.391</ele>
        <time>2015-10-02T10:34:58Z</time>
      </trkpt>
      <trkpt lat="47.38252" lon="6.632">
        <ele>481.384</ele>
        <time>2015-10-02T10:34:59Z</time>
      </trkpt>
      <trkpt lat="47.38255" lon="6.63202">
        <ele>481.749</ele>
        <time>2015-10-02T10:35:00Z</time>
      </trkpt>
      <trkpt lat="47.38258" lon="6.63205">
        <ele>480.879</ele>
        <time>2015-10-02T10:35:01Z</time>
      </trkpt>
      <trkpt lat="47.38262" lon="6.63208">
        <ele>482.45</ele>
        <time>2015-10-02T10:35:02Z</time>
      </trkpt>
      <trkpt lat="47.38265" lon="6.6321">
        <ele>483.153</ele>
        <time>2015-10-02T10:35:03Z</time>
      </trkpt>
      <trkpt lat="47.38268" lon="6.63212">
        <ele>483.325</ele>
        <time>2015-10-02T10:35:04Z</time>
      </trkpt>
      <trkpt lat="47.38271" lon="6.63214">
        <ele>483.131</ele>
        <time>2015-10-02T10:35:05Z</time>
      </trkpt>
      <trkpt lat="47.38274" lon="6.63216">
        <ele>483.371</ele>
        <time>2015-10-02T10:35:06Z</time>
      </trkpt>
      <trkpt lat="47.38277" lon="6.63217">
        <ele>483.641</ele>
        <time>2015-10-02T10:35:07Z</time>
      </trkpt>
      <trkpt lat="47.3828" lon="6.63217">
        <ele>483.97</ele>
        <time>2015-10-02T10:35:08Z</time>
      </trkpt>
      <trkpt lat="47.38283" lon="6.63218">
        <ele>484.364</ele>
        <time>2015-10-02T10:35:09Z</time>
      </trkpt>
      <trkpt lat="47.38286" lon="6.63219">
        <ele>483.781</ele>
        <time>2015-10-02T10:35:10Z</time>
      </trkpt>
      <trkpt lat="47.3829" lon="6.6322">
        <ele>484.229</ele>
        <time>2015-10-02T10:35:11Z</time>
      </trkpt>
      <trkpt lat="47.38293" lon="6.63221">
        <ele>484.952</ele>
        <time>2015-10-02T10:35:12Z</time>
      </trkpt>
      <trkpt lat="47.38295" lon="6.63222">
        <ele>484.53</ele>
        <time>2015-10-02T10:35:13Z</time>
      </trkpt>
      <trkpt lat="47.38298" lon="6.63223">
        <ele>484.218</ele>
        <time>2015-10-02T10:35:14Z</time>
      </trkpt>
      <trkpt lat="47.38301" lon="6.63225">
        <ele>484.056</ele>
        <time>2015-10-02T10:35:15Z</time>
      </trkpt>
      <trkpt lat="47.38304" lon="6.63226">
        <ele>485.177</ele>
        <time>2015-10-02T10:35:16Z</time>
      </trkpt>
      <trkpt lat="47.38307" lon="6.63228">
        <ele>487.169</ele>
        <time>2015-10-02T10:35:17Z</time>
      </trkpt>
      <trkpt lat="47.3831" lon="6.6323">
        <ele>488.344</ele>
        <time>2015-10-02T10:35:18Z</time>
      </trkpt>
      <trkpt lat="47.38313" lon="6.63231">
        <ele>489.181</ele>
        <time>2015-10-02T10:35:19Z</time>
      </trkpt>
      <trkpt lat="47.38316" lon="6.63232">
        <ele>488.943</ele>
        <time>2015-10-02T10:35:20Z</time>
      </trkpt>
      <trkpt lat="47.3832" lon="6.63233">
        <ele>487.813</ele>
        <time>2015-10-02T10:35:21Z</time>
      </trkpt>
      <trkpt lat="47.38323" lon="6.63234">
        <ele>487.823</ele>
        <time>2015-10-02T10:35:22Z</time>
      </trkpt>
      <trkpt lat="47.38327" lon="6.63235">
        <ele>487.84</ele>
        <time>2015-10-02T10:35:23Z</time>
      </trkpt>
      <trkpt lat="47.3833" lon="6.63236">
        <ele>488.418</ele>
        <time>2015-10-02T10:35:24Z</time>
      </trkpt>
      <trkpt lat="47.38333" lon="6.63237">
        <ele>487.849</ele>
        <time>2015-10-02T10:35:25Z</time>
      </trkpt>
      <trkpt lat="47.38336" lon="6.63238">
        <ele>488.255</ele>
        <time>2015-10-02T10:35:26Z</time>
      </trkpt>
      <trkpt lat="47.38339" lon="6.63239">
        <ele>488.084</ele>
        <time>2015-10-02T10:35:27Z</time>
      </trkpt>
      <trkpt lat="47.38341" lon="6.6324">
        <ele>489.157</ele>
        <time>2015-10-02T10:35:28Z</time>
      </trkpt>
      <trkpt lat="47.38344" lon="6.63241">
        <ele>488.094</ele>
        <time>2015-10-02T10:35:29Z</time>
      </trkpt>
      <trkpt lat="47.38347" lon="6.63242">
        <ele>488.67</ele>
        <time>2015-10-02T10:35:30Z</time>
      </trkpt>
      <trkpt lat="47.38349" lon="6.63243">
        <ele>488.549</ele>
        <time>2015-10-02T10:35:31Z</time>
      </trkpt>
      <trkpt lat="47.38351" lon="6.63246">
        <ele>488.973</ele>
        <time>2015-10-02T10:35:32Z</time>
      </trkpt>
      <trkpt lat="47.38354" lon="6.63248">
        <ele>489.259</ele>
        <time>2015-10-02T10:35:33Z</time>
      </trkpt>
      <trkpt lat="47.38356" lon="6.6325">
        <ele>488.856</ele>
        <time>2015-10-02T10:35:34Z</time>
      </trkpt>
      <trkpt lat="47.38358" lon="6.63253">
        <ele>489.75</ele>
        <time>2015-10-02T10:35:35Z</time>
      </trkpt>
      <trkpt lat="47.38361" lon="6.63255">
        <ele>489.143</ele>
        <time>2015-10-02T10:35:36Z</time>
      </trkpt>
      <trkpt lat="47.38364" lon="6.63257">
        <ele>487.256</ele>
        <time>2015-10-02T10:35:37Z</time>
      </trkpt>
      <trkpt lat="47.38366" lon="6.63258">
        <ele>487.187</ele>
        <time>2015-10-02T10:35:38Z</time>
      </trkpt>
      <trkpt lat="47.38369" lon="6.6326">
        <ele>486.736</ele>
        <time>2015-10-02T10:35:39Z</time>
      </trkpt>
      <trkpt lat="47.38372" lon="6.63262">
        <ele>483.371</ele>
        <time>2015-10-02T10:35:40Z</time>
      </trkpt>
      <trkpt lat="47.38374" lon="6.63264">
        <ele>482.406</ele>
        <time>2015-10-02T10:35:41Z</time>
      </trkpt>
      <trkpt lat="47.38376" lon="6.63266">
        <ele>480.266</ele>
        <time>2015-10-02T10:35:42Z</time>
      </trkpt>
      <trkpt lat="47.38379" lon="6.63267">
        <ele>481.042</ele>
        <time>2015-10-02T10:35:43Z</time>
      </trkpt>
      <trkpt lat="47.38381" lon="6.63269">
        <ele>480.882</ele>
        <time>2015-10-02T10:35:44Z</time>
      </trkpt>
      <trkpt lat="47.38384" lon="6.63271">
        <ele>480.921</ele>
        <time>2015-10-02T10:35:45Z</time>
      </trkpt>
      <trkpt lat="47.38386" lon="6.63273">
        <ele>476.879</ele>
        <time>2015-10-02T10:35:46Z</time>
      </trkpt>
      <trkpt lat="47.38388" lon="6.63275">
        <ele>479.248</ele>
        <time>2015-10-02T10:35:47Z</time>
      </trkpt>
      <trkpt lat="47.3839" lon="6.63277">
        <ele>479.855</ele>
        <time>2015-10-02T10:35:48Z</time>
      </trkpt>
      <trkpt lat="47.38393" lon="6.63279">
        <ele>480.491</ele>
        <time>2015-10-02T10:35:49Z</time>
      </trkpt>
      <trkpt lat="47.38396" lon="6.63281">
        <ele>480.988</ele>
        <time>2015-10-02T10:35:50Z</time>
      </trkpt>
      <trkpt lat="47.38398" lon="6.63282">
        <ele>480.736</ele>
        <time>2015-10-02T10:35:51Z</time>
      </trkpt>
      <trkpt lat="47.38401" lon="6.63283">
        <ele>480.951</ele>
        <time>2015-10-02T10:35:52Z</time>
      </trkpt>
      <trkpt lat="47.38403" lon="6.63284">
        <ele>482.785</ele>
        <time>2015-10-02T10:35:53Z</time>
      </trkpt>
      <trkpt lat="47.38406" lon="6.63285">
        <ele>478.133</ele>
        <time>2015-10-02T10:35:54Z</time>
      </trkpt>
      <trkpt lat="47.38408" lon="6.63285">
        <ele>479.677</ele>
        <time>2015-10-02T10:35:55Z</time>
      </trkpt>
      <trkpt lat="47.3841" lon="6.63286">
        <ele>479.979</ele>
        <time>2015-10-02T10:35:56Z</time>
      </trkpt>
      <trkpt lat="47.38413" lon="6.63286">
        <ele>479.94</ele>
        <time>2015-10-02T10:35:57Z</time>
      </trkpt>
      <trkpt lat="47.38416" lon="6.63285">
        <ele>480.847</ele>
        <time>2015-10-02T10:35:58Z</time>
      </trkpt>
      <trkpt lat="47.38419" lon="6.63285">
        <ele>480.412</ele>
        <time>2015-10-02T10:35:59Z</time>
      </trkpt>
      <trkpt lat="47.38422" lon="6.63284">
        <ele>480.641</ele>
        <time>2015-10-02T10:36:00Z</time>
      </trkpt>
      <trkpt lat="47.38425" lon="6.63284">
        <ele>480.499</ele>
        <time>2015-10-02T10:36:01Z</time>
      </trkpt>
      <trkpt lat="47.38427" lon="6.63285">
        <ele>482.402</ele>
        <time>2015-10-02T10:36:02Z</time>
      </trkpt>
      <trkpt lat="47.3843" lon="6.63286">
        <ele>483.49</ele>
        <time>2015-10-02T10:36:03Z</time>
      </trkpt>
      <trkpt lat="47.38432" lon="6.63287">
        <ele>483.385</ele>
        <time>2015-10-02T10:36:04Z</time>
      </trkpt>
      <trkpt lat="47.38435" lon="6.63287">
        <ele>483.938</ele>
        <time>2015-10-02T10:36:05Z</time>
      </trkpt>
      <trkpt lat="47.38437" lon="6.63288">
        <ele>483.342</ele>
        <time>2015-10-02T10:36:06Z</time>
      </trkpt>
      <trkpt lat="47.38439" lon="6.63289">
        <ele>483.202</ele>
        <time>2015-10-02T10:36:07Z</time>
      </trkpt>
      <trkpt lat="47.38441" lon="6.6329">
        <ele>483.492</ele>
        <time>2015-10-02T10:36:08Z</time>
      </trkpt>
      <trkpt lat="47.38444" lon="6.63291">
        <ele>483.688</ele>
        <time>2015-10-02T10:36:09Z</time>
      </trkpt>
      <trkpt lat="47.38446" lon="6.63293">
        <ele>484.504</ele>
        <time>2015-10-02T10:36:10Z</time>
      </trkpt>
      <trkpt lat="47.38449" lon="6.63294">
        <ele>484.299</ele>
        <time>2015-10-02T10:36:11Z</time>
      </trkpt>
      <trkpt lat="47.38451" lon="6.63296">
        <ele>482.839</ele>
        <time>2015-10-02T10:36:12Z</time>
      </trkpt>
      <trkpt lat="47.38454" lon="6.63297">
        <ele>484.746</ele>
        <time>2015-10-02T10:36:13Z</time>
      </trkpt>
      <trkpt lat="47.38456" lon="6.63298">
        <ele>483.563</ele>
        <time>2015-10-02T10:36:14Z</time>
      </trkpt>
      <trkpt lat="47.38458" lon="6.63299">
        <ele>482.144</ele>
        <time>2015-10-02T10:36:15Z</time>
      </trkpt>
      <trkpt lat="47.3846" lon="6.633">
        <ele>482.113</ele>
        <time>2015-10-02T10:36:16Z</time>
      </trkpt>
      <trkpt lat="47.38462" lon="6.63301">
        <ele>480.585</ele>
        <time>2015-10-02T10:36:17Z</time>
      </trkpt>
      <trkpt lat="47.38465" lon="6.63301">
        <ele>480.618</ele>
        <time>2015-10-02T10:36:18Z</time>
      </trkpt>
      <trkpt lat="47.38467" lon="6.63301">
        <ele>480.685</ele>
        <time>2015-10-02T10:36:19Z</time>
      </trkpt>
      <trkpt lat="47.3847" lon="6.63302">
        <ele>480.102</ele>
        <time>2015-10-02T10:36:20Z</time>
      </trkpt>
      <trkpt lat="47.38473" lon="6.63302">
        <ele>475.785</ele>
        <time>2015-10-02T10:36:21Z</time>
      </trkpt>
      <trkpt lat="47.38475" lon="6.63301">
        <ele>475.92</ele>
        <time>2015-10-02T10:36:22Z</time>
      </trkpt>
      <trkpt lat="47.38478" lon="6.63301">
        <ele>478.286</ele>
        <time>2015-10-02T10:36:23Z</time>
      </trkpt>
      <trkpt lat="47.3848" lon="6.633">
        <ele>477.87</ele>
        <time>2015-10-02T10:36:24Z</time>
      </trkpt>
      <trkpt lat="47.38483" lon="6.633">
        <ele>478.696</ele>
        <time>2015-10-02T10:36:25Z</time>
      </trkpt>
      <trkpt lat="47.38485" lon="6.63299">
        <ele>480.083</ele>
        <time>2015-10-02T10:36:26Z</time>
      </trkpt>
      <trkpt lat="47.38487" lon="6.633">
        <ele>480.691</ele>
        <time>2015-10-02T10:36:27Z</time>
      </trkpt>
      <trkpt lat="47.38489" lon="6.633">
        <ele>481.074</ele>
        <time>2015-10-02T10:36:28Z</time>
      </trkpt>
      <trkpt lat="47.38491" lon="6.633">
        <ele>481.439</ele>
        <time>2015-10-02T10:36:29Z</time>
      </trkpt>
      <trkpt lat="47.38493" lon="6.633">
        <ele>482.125</ele>
        <time>2015-10-02T10:36:30Z</time>
      </trkpt>
      <trkpt lat="47.38495" lon="6.63301">
        <ele>482.556</ele>
        <time>2015-10-02T10:36:31Z</time>
      </trkpt>
      <trkpt lat="47.38496" lon="6.63301">
        <ele>483.463</ele>
        <time>2015-10-02T10:36:32Z</time>
      </trkpt>
      <trkpt lat="47.38497" lon="6.63302">
        <ele>483.37</ele>
        <time>2015-10-02T10:36:33Z</time>
      </trkpt>
      <trkpt lat="47.38499" lon="6.63303">
        <ele>483.431</ele>
        <time>2015-10-02T10:36:34Z</time>
      </trkpt>
      <trkpt lat="47.385" lon="6.63303">
        <ele>484.034</ele>
        <time>2015-10-02T10:36:35Z</time>
      </trkpt>
      <trkpt lat="47.38501" lon="6.63304">
        <ele>482.84</ele>
        <time>2015-10-02T10:36:36Z</time>
      </trkpt>
      <trkpt lat="47.38503" lon="6.63304">
        <ele>480.758</ele>
        <time>2015-10-02T10:36:37Z</time>
      </trkpt>
      <trkpt lat="47.38505" lon="6.63304">
        <ele>480.787</ele>
        <time>2015-10-02T10:36:38Z</time>
      </trkpt>
      <trkpt lat="47.38506" lon="6.63304">
        <ele>481.762</ele>
        <time>2015-10-02T10:36:39Z</time>
      </trkpt>
      <trkpt lat="47.38508" lon="6.63304">
        <ele>482.536</ele>
        <time>2015-10-02T10:36:40Z</time>
      </trkpt>
      <trkpt lat="47.3851" lon="6.63305">
        <ele>483.098</ele>
        <time>2015-10-02T10:36:41Z</time>
      </trkpt>
      <trkpt lat="47.38512" lon="6.63306">
        <ele>483.752</ele>
        <time>2015-10-02T10:36:42Z</time>
      </trkpt>
      <trkpt lat="47.38514" lon="6.63306">
        <ele>486.314</ele>
        <time>2015-10-02T10:36:43Z</time>
      </trkpt>
      <trkpt lat="47.38515" lon="6.63307">
        <ele>486.3</ele>
        <time>2015-10-02T10:36:44Z</time>
      </trkpt>
      <trkpt lat="47.38517" lon="6.63307">
        <ele>487.904</ele>
        <time>2015-10-02T10:36:45Z</time>
      </trkpt>
      <trkpt lat="47.38519" lon="6.63307">
        <ele>489.27</ele>
        <time>2015-10-02T10:36:46Z</time>
      </trkpt>
      <trkpt lat="47.38521" lon="6.63306">
        <ele>489.443</ele>
        <time>2015-10-02T10:36:47Z</time>
      </trkpt>
      <trkpt lat="47.38523" lon="6.63305">
        <ele>489.785</ele>
        <time>2015-10-02T10:36:48Z</time>
      </trkpt>
      <trkpt lat="47.38525" lon="6.63305">
        <ele>489.904</ele>
        <time>2015-10-02T10:36:49Z</time>
      </trkpt>
      <trkpt lat="47.38527" lon="6.63305">
        <ele>490.488</ele>
        <time>2015-10-02T10:36:50Z</time>
      </trkpt>
      <trkpt lat="47.38529" lon="6.63305">
        <ele>491.042</ele>
        <time>2015-10-02T10:36:51Z</time>
      </trkpt>
      <trkpt lat="47.38531" lon="6.63305">
        <ele>492.714</ele>
        <time>2015-10-02T10:36:52Z</time>
      </trkpt>
      <trkpt lat="47.38533" lon="6.63304">
        <ele>493.136</ele>
        <time>2015-10-02T10:36:53Z</time>
      </trkpt>
      <trkpt lat="47.38535" lon="6.63304">
        <ele>494.248</ele>
        <time>2015-10-02T10:36:54Z</time>
      </trkpt>
      <trkpt lat="47.38536" lon="6.63304">
        <ele>492.496</ele>
        <time>2015-10-02T10:36:55Z</time>
      </trkpt>
      <trkpt lat="47.38538" lon="6.63304">
        <ele>492.213</ele>
        <time>2015-10-02T10:36:56Z</time>
      </trkpt>
      <trkpt lat="47.38539" lon="6.63304">
        <ele>492.422</ele>
        <time>2015-10-02T10:36:57Z</time>
      </trkpt>
      <trkpt lat="47.38541" lon="6.63303">
        <ele>495.871</ele>
        <time>2015-10-02T10:36:58Z</time>
      </trkpt>
      <trkpt lat="47.38543" lon="6.63301">
        <ele>495.667</ele>
        <time>2015-10-02T10:36:59Z</time>
      </trkpt>
      <trkpt lat="47.38545" lon="6.63299">
        <ele>495.281</ele>
        <time>2015-10-02T10:37:00Z</time>
      </trkpt>
      <trkpt lat="47.38547" lon="6.63297">
        <ele>495.579</ele>
        <time>2015-10-02T10:37:01Z</time>
      </trkpt>
      <trkpt lat="47.38549" lon="6.63296">
        <ele>495.33</ele>
        <time>2015-10-02T10:37:02Z</time>
      </trkpt>
      <trkpt lat="47.38551" lon="6.63295">
        <ele>495.977</ele>
        <time>2015-10-02T10:37:03Z</time>
      </trkpt>
      <trkpt lat="47.38553" lon="6.63295">
        <ele>496.068</ele>
        <time>2015-10-02T10:37:04Z</time>
      </trkpt>
      <trkpt lat="47.38555" lon="6.63295">
        <ele>495.943</ele>
        <time>2015-10-02T10:37:05Z</time>
      </trkpt>
      <trkpt lat="47.38557" lon="6.63295">
        <ele>496.312</ele>
        <time>2015-10-02T10:37:06Z</time>
      </trkpt>
      <trkpt lat="47.3856" lon="6.63295">
        <ele>496.623</ele>
        <time>2015-10-02T10:37:07Z</time>
      </trkpt>
      <trkpt lat="47.38562" lon="6.63294">
        <ele>498.097</ele>
        <time>2015-10-02T10:37:08Z</time>
      </trkpt>
      <trkpt lat="47.38564" lon="6.63294">
        <ele>498.707</ele>
        <time>2015-10-02T10:37:09Z</time>
      </trkpt>
      <trkpt lat="47.38566" lon="6.63292">
        <ele>498.591</ele>
        <time>2015-10-02T10:37:10Z</time>
      </trkpt>
      <trkpt lat="47.38567" lon="6.63291">
        <ele>499.479</ele>
        <time>2015-10-02T10:37:11Z</time>
      </trkpt>
      <trkpt lat="47.38569" lon="6.6329">
        <ele>498.73</ele>
        <time>2015-10-02T10:37:12Z</time>
      </trkpt>
      <trkpt lat="47.38571" lon="6.63289">
        <ele>499.958</ele>
        <time>2015-10-02T10:37:13Z</time>
      </trkpt>
      <trkpt lat="47.38573" lon="6.63288">
        <ele>499.898</ele>
        <time>2015-10-02T10:37:14Z</time>
      </trkpt>
      <trkpt lat="47.38575" lon="6.63287">
        <ele>500.557</ele>
        <time>2015-10-02T10:37:15Z</time>
      </trkpt>
      <trkpt lat="47.38577" lon="6.63287">
        <ele>500.858</ele>
        <time>2015-10-02T10:37:16Z</time>
      </trkpt>
      <trkpt lat="47.38579" lon="6.63286">
        <ele>499.812</ele>
        <time>2015-10-02T10:37:17Z</time>
      </trkpt>
      <trkpt lat="47.3858" lon="6.63285">
        <ele>497.661</ele>
        <time>2015-10-02T10:37:18Z</time>
      </trkpt>
      <trkpt lat="47.38581" lon="6.63284">
        <ele>497.686</ele>
        <time>2015-10-02T10:37:19Z</time>
      </trkpt>
      <trkpt lat="47.38582" lon="6.63283">
        <ele>494.963</ele>
        <time>2015-10-02T10:37:20Z</time>
      </trkpt>
      <trkpt lat="47.38583" lon="6.6328">
        <ele>495.785</ele>
        <time>2015-10-02T10:37:21Z</time>
      </trkpt>
      <trkpt lat="47.38585" lon="6.63277">
        <ele>495.443</ele>
        <time>2015-10-02T10:37:22Z</time>
      </trkpt>
      <trkpt lat="47.38587" lon="6.63275">
        <ele>493.641</ele>
        <time>2015-10-02T10:37:23Z</time>
      </trkpt>
      <trkpt lat="47.38588" lon="6.63274">
        <ele>494.198</ele>
        <time>2015-10-02T10:37:24Z</time>
      </trkpt>
      <trkpt lat="47.3859" lon="6.63273">
        <ele>494.323</ele>
        <time>2015-10-02T10:37:25Z</time>
      </trkpt>
      <trkpt lat="47.38592" lon="6.63271">
        <ele>493.74</ele>
        <time>2015-10-02T10:37:26Z</time>
      </trkpt>
      <trkpt lat="47.38594" lon="6.63269">
        <ele>493.886</ele>
        <time>2015-10-02T10:37:27Z</time>
      </trkpt>
      <trkpt lat="47.38596" lon="6.63266">
        <ele>494.015</ele>
        <time>2015-10-02T10:37:28Z</time>
      </trkpt>
      <trkpt lat="47.38597" lon="6.63263">
        <ele>493.852</ele>
        <time>2015-10-02T10:37:29Z</time>
      </trkpt>
      <trkpt lat="47.38598" lon="6.63261">
        <ele>493.919</ele>
        <time>2015-10-02T10:37:30Z</time>
      </trkpt>
      <trkpt lat="47.38599" lon="6.63258">
        <ele>494.228</ele>
        <time>2015-10-02T10:37:31Z</time>
      </trkpt>
      <trkpt lat="47.386" lon="6.63255">
        <ele>494.29</ele>
        <time>2015-10-02T10:37:32Z</time>
      </trkpt>
      <trkpt lat="47.38602" lon="6.63251">
        <ele>491.691</ele>
        <time>2015-10-02T10:37:33Z</time>
      </trkpt>
      <trkpt lat="47.38604" lon="6.63248">
        <ele>494.418</ele>
        <time>2015-10-02T10:37:34Z</time>
      </trkpt>
      <trkpt lat="47.38606" lon="6.63245">
        <ele>497.858</ele>
        <time>2015-10-02T10:37:35Z</time>
      </trkpt>
      <trkpt lat="47.38608" lon="6.63243">
        <ele>498.897</ele>
        <time>2015-10-02T10:37:36Z</time>
      </trkpt>
      <trkpt lat="47.3861" lon="6.63239">
        <ele>499.583</ele>
        <time>2015-10-02T10:37:37Z</time>
      </trkpt>
      <trkpt lat="47.38612" lon="6.63236">
        <ele>500.305</ele>
        <time>2015-10-02T10:37:38Z</time>
      </trkpt>
      <trkpt lat="47.38615" lon="6.63234">
        <ele>500.578</ele>
        <time>2015-10-02T10:37:39Z</time>
      </trkpt>
      <trkpt lat="47.38617" lon="6.63233">
        <ele>500.458</ele>
        <time>2015-10-02T10:37:40Z</time>
      </trkpt>
      <trkpt lat="47.3862" lon="6.63231">
        <ele>499.99</ele>
        <time>2015-10-02T10:37:41Z</time>
      </trkpt>
      <trkpt lat="47.38622" lon="6.63229">
        <ele>500.391</ele>
        <time>2015-10-02T10:37:42Z</time>
      </trkpt>
      <trkpt lat="47.38624" lon="6.63226">
        <ele>501.142</ele>
        <time>2015-10-02T10:37:43Z</time>
      </trkpt>
      <trkpt lat="47.38626" lon="6.63224">
        <ele>500.621</ele>
        <time>2015-10-02T10:37:44Z</time>
      </trkpt>
      <trkpt lat="47.38628" lon="6.63221">
        <ele>500.844</ele>
        <time>2015-10-02T10:37:45Z</time>
      </trkpt>
      <trkpt lat="47.3863" lon="6.63218">
        <ele>501.442</ele>
        <time>2015-10-02T10:37:46Z</time>
      </trkpt>
      <trkpt lat="47.38632" lon="6.63215">
        <ele>502.577</ele>
        <time>2015-10-02T10:37:47Z</time>
      </trkpt>
      <trkpt lat="47.38634" lon="6.63212">
        <ele>501.755</ele>
        <time>2015-10-02T10:37:48Z</time>
      </trkpt>
      <trkpt lat="47.38635" lon="6.63209">
        <ele>501.891</ele>
        <time>2015-10-02T10:37:49Z</time>
      </trkpt>
      <trkpt lat="47.38637" lon="6.63206">
        <ele>500.654</ele>
        <time>2015-10-02T10:37:50Z</time>
      </trkpt>
      <trkpt lat="47.38638" lon="6.63203">
        <ele>498.884</ele>
        <time>2015-10-02T10:37:51Z</time>
      </trkpt>
      <trkpt lat="47.3864" lon="6.63201">
        <ele>499.066</ele>
        <time>2015-10-02T10:37:52Z</time>
      </trkpt>
      <trkpt lat="47.38641" lon="6.63199">
        <ele>499.664</ele>
        <time>2015-10-02T10:37:53Z</time>
      </trkpt>
      <trkpt lat="47.38643" lon="6.63196">
        <ele>500.521</ele>
        <time>2015-10-02T10:37:54Z</time>
      </trkpt>
      <trkpt lat="47.38645" lon="6.63194">
        <ele>500.754</ele>
        <time>2015-10-02T10:37:55Z</time>
      </trkpt>
      <trkpt lat="47.38646" lon="6.63191">
        <ele>500.289</ele>
        <time>2015-10-02T10:37:56Z</time>
      </trkpt>
      <trkpt lat="47.38648" lon="6.63189">
        <ele>499.611</ele>
        <time>2015-10-02T10:37:57Z</time>
      </trkpt>
      <trkpt lat="47.3865" lon="6.63186">
        <ele>498.914</ele>
        <time>2015-10-02T10:37:58Z</time>
      </trkpt>
      <trkpt lat="47.38651" lon="6.63184">
        <ele>499.531</ele>
        <time>2015-10-02T10:37:59Z</time>
      </trkpt>
      <trkpt lat="47.38653" lon="6.63181">
        <ele>500.134</ele>
        <time>2015-10-02T10:38:00Z</time>
      </trkpt>
      <trkpt lat="47.38654" lon="6.63179">
        <ele>500.864</ele>
        <time>2015-10-02T10:38:01Z</time>
      </trkpt>
      <trkpt lat="47.38656" lon="6.63177">
        <ele>501.338</ele>
        <time>2015-10-02T10:38:02Z</time>
      </trkpt>
      <trkpt lat="47.38657" lon="6.63174">
        <ele>501.913</ele>
        <time>2015-10-02T10:38:03Z</time>
      </trkpt>
      <trkpt lat="47.38659" lon="6.63171">
        <ele>501.418</ele>
        <time>2015-10-02T10:38:04Z</time>
      </trkpt>
      <trkpt lat="47.3866" lon="6.63169">
        <ele>501.666</ele>
        <time>2015-10-02T10:38:05Z</time>
      </trkpt>
      <trkpt lat="47.38662" lon="6.63167">
        <ele>501.174</ele>
        <time>2015-10-02T10:38:06Z</time>
      </trkpt>
      <trkpt lat="47.38664" lon="6.63164">
        <ele>501.004</ele>
        <time>2015-10-02T10:38:07Z</time>
      </trkpt>
      <trkpt lat="47.38665" lon="6.63161">
        <ele>499.715</ele>
        <time>2015-10-02T10:38:08Z</time>
      </trkpt>
      <trkpt lat="47.38667" lon="6.63158">
        <ele>500.034</ele>
        <time>2015-10-02T10:38:09Z</time>
      </trkpt>
      <trkpt lat="47.38669" lon="6.63156">
        <ele>499.407</ele>
        <time>2015-10-02T10:38:10Z</time>
      </trkpt>
      <trkpt lat="47.3867" lon="6.63153">
        <ele>499.538</ele>
        <time>2015-10-02T10:38:11Z</time>
      </trkpt>
      <trkpt lat="47.38672" lon="6.6315">
        <ele>499.788</ele>
        <time>2015-10-02T10:38:12Z</time>
      </trkpt>
      <trkpt lat="47.38673" lon="6.63147">
        <ele>502.354</ele>
        <time>2015-10-02T10:38:13Z</time>
      </trkpt>
      <trkpt lat="47.38674" lon="6.63143">
        <ele>501.887</ele>
        <time>2015-10-02T10:38:14Z</time>
      </trkpt>
      <trkpt lat="47.38676" lon="6.63139">
        <ele>501.516</ele>
        <time>2015-10-02T10:38:15Z</time>
      </trkpt>
      <trkpt lat="47.38677" lon="6.63136">
        <ele>501.326</ele>
        <time>2015-10-02T10:38:16Z</time>
      </trkpt>
      <trkpt lat="47.38678" lon="6.63132">
        <ele>502.07</ele>
        <time>2015-10-02T10:38:17Z</time>
      </trkpt>
      <trkpt lat="47.3868" lon="6.63129">
        <ele>501.763</ele>
        <time>2015-10-02T10:38:18Z</time>
      </trkpt>
      <trkpt lat="47.38681" lon="6.63126">
        <ele>501.151</ele>
        <time>2015-10-02T10:38:19Z</time>
      </trkpt>
      <trkpt lat="47.38683" lon="6.63123">
        <ele>500.867</ele>
        <time>2015-10-02T10:38:20Z</time>
      </trkpt>
      <trkpt lat="47.38684" lon="6.63119">
        <ele>501.892</ele>
        <time>2015-10-02T10:38:21Z</time>
      </trkpt>
      <trkpt lat="47.38686" lon="6.63115">
        <ele>501.855</ele>
        <time>2015-10-02T10:38:22Z</time>
      </trkpt>
      <trkpt lat="47.38687" lon="6.63111">
        <ele>502.427</ele>
        <time>2015-10-02T10:38:23Z</time>
      </trkpt>
      <trkpt lat="47.38688" lon="6.63107">
        <ele>502.726</ele>
        <time>2015-10-02T10:38:24Z</time>
      </trkpt>
      <trkpt lat="47.38689" lon="6.63104">
        <ele>503.086</ele>
        <time>2015-10-02T10:38:25Z</time>
      </trkpt>
      <trkpt lat="47.3869" lon="6.631">
        <ele>504.036</ele>
        <time>2015-10-02T10:38:26Z</time>
      </trkpt>
      <trkpt lat="47.38691" lon="6.63097">
        <ele>504.313</ele>
        <time>2015-10-02T10:38:27Z</time>
      </trkpt>
      <trkpt lat="47.38691" lon="6.63093">
        <ele>506.234</ele>
        <time>2015-10-02T10:38:28Z</time>
      </trkpt>
      <trkpt lat="47.38692" lon="6.6309">
        <ele>505.459</ele>
        <time>2015-10-02T10:38:29Z</time>
      </trkpt>
      <trkpt lat="47.38692" lon="6.63086">
        <ele>506.237</ele>
        <time>2015-10-02T10:38:30Z</time>
      </trkpt>
      <trkpt lat="47.38692" lon="6.63082">
        <ele>506.144</ele>
        <time>2015-10-02T10:38:31Z</time>
      </trkpt>
      <trkpt lat="47.38692" lon="6.63078">
        <ele>507.469</ele>
        <time>2015-10-02T10:38:32Z</time>
      </trkpt>
      <trkpt lat="47.38693" lon="6.63074">
        <ele>508.761</ele>
        <time>2015-10-02T10:38:33Z</time>
      </trkpt>
      <trkpt lat="47.38692" lon="6.6307">
        <ele>509.779</ele>
        <time>2015-10-02T10:38:34Z</time>
      </trkpt>
      <trkpt lat="47.38692" lon="6.63067">
        <ele>509.476</ele>
        <time>2015-10-02T10:38:35Z</time>
      </trkpt>
      <trkpt lat="47.38692" lon="6.63063">
        <ele>509.583</ele>
        <time>2015-10-02T10:38:36Z</time>
      </trkpt>
      <trkpt lat="47.38692" lon="6.6306">
        <ele>510.251</ele>
        <time>2015-10-02T10:38:37Z</time>
      </trkpt>
      <trkpt lat="47.38692" lon="6.63056">
        <ele>510.806</ele>
        <time>2015-10-02T10:38:38Z</time>
      </trkpt>
      <trkpt lat="47.38692" lon="6.63053">
        <ele>511.445</ele>
        <time>2015-10-02T10:38:39Z</time>
      </trkpt>
      <trkpt lat="47.38692" lon="6.6305">
        <ele>511.747</ele>
        <time>2015-10-02T10:38:40Z</time>
      </trkpt>
      <trkpt lat="47.38692" lon="6.63047">
        <ele>512.838</ele>
        <time>2015-10-02T10:38:41Z</time>
      </trkpt>
      <trkpt lat="47.38692" lon="6.63044">
        <ele>514.174</ele>
        <time>2015-10-02T10:38:42Z</time>
      </trkpt>
      <trkpt lat="47.38692" lon="6.6304">
        <ele>513.46</ele>
        <time>2015-10-02T10:38:43Z</time>
      </trkpt>
      <trkpt lat="47.38692" lon="6.63037">
        <ele>514.127</ele>
        <time>2015-10-02T10:38:44Z</time>
      </trkpt>
      <trkpt lat="47.38692" lon="6.63034">
        <ele>514.411</ele>
        <time>2015-10-02T10:38:45Z</time>
      </trkpt>
      <trkpt lat="47.38692" lon="6.63031">
        <ele>514.446</ele>
        <time>2015-10-02T10:38:46Z</time>
      </trkpt>
      <trkpt lat="47.38692" lon="6.63027">
        <ele>515.209</ele>
        <time>2015-10-02T10:38:47Z</time>
      </trkpt>
      <trkpt lat="47.38692" lon="6.63024">
        <ele>515.522</ele>
        <time>2015-10-02T10:38:48Z</time>
      </trkpt>
      <trkpt lat="47.38691" lon="6.63021">
        <ele>515.665</ele>
        <time>2015-10-02T10:38:49Z</time>
      </trkpt>
      <trkpt lat="47.38691" lon="6.63017">
        <ele>515.691</ele>
        <time>2015-10-02T10:38:50Z</time>
      </trkpt>
      <trkpt lat="47.38691" lon="6.63014">
        <ele>515.216</ele>
        <time>2015-10-02T10:38:51Z</time>
      </trkpt>
      <trkpt lat="47.38691" lon="6.63011">
        <ele>515.41</ele>
        <time>2015-10-02T10:38:52Z</time>
      </trkpt>
      <trkpt lat="47.3869" lon="6.63008">
        <ele>515.58</ele>
        <time>2015-10-02T10:38:53Z</time>
      </trkpt>
      <trkpt lat="47.3869" lon="6.63004">
        <ele>516.261</ele>
        <time>2015-10-02T10:38:54Z</time>
      </trkpt>
      <trkpt lat="47.38689" lon="6.63001">
        <ele>515.805</ele>
        <time>2015-10-02T10:38:55Z</time>
      </trkpt>
      <trkpt lat="47.38689" lon="6.62997">
        <ele>515.884</ele>
        <time>2015-10-02T10:38:56Z</time>
      </trkpt>
      <trkpt lat="47.38689" lon="6.62994">
        <ele>517.659</ele>
        <time>2015-10-02T10:38:57Z</time>
      </trkpt>
      <trkpt lat="47.38689" lon="6.62991">
        <ele>518.397</ele>
        <time>2015-10-02T10:38:58Z</time>
      </trkpt>
      <trkpt lat="47.38689" lon="6.62988">
        <ele>518.545</ele>
        <time>2015-10-02T10:38:59Z</time>
      </trkpt>
      <trkpt lat="47.38688" lon="6.62985">
        <ele>519.256</ele>
        <time>2015-10-02T10:39:00Z</time>
      </trkpt>
      <trkpt lat="47.38688" lon="6.62981">
        <ele>518.846</ele>
        <time>2015-10-02T10:39:01Z</time>
      </trkpt>
      <trkpt lat="47.38687" lon="6.62978">
        <ele>519.271</ele>
        <time>2015-10-02T10:39:02Z</time>
      </trkpt>
      <trkpt lat="47.38686" lon="6.62975">
        <ele>519.043</ele>
        <time>2015-10-02T10:39:03Z</time>
      </trkpt>
      <trkpt lat="47.38686" lon="6.62971">
        <ele>519.131</ele>
        <time>2015-10-02T10:39:04Z</time>
      </trkpt>
      <trkpt lat="47.38685" lon="6.62968">
        <ele>519.346</ele>
        <time>2015-10-02T10:39:05Z</time>
      </trkpt>
      <trkpt lat="47.38685" lon="6.62965">
        <ele>522.171</ele>
        <time>2015-10-02T10:39:06Z</time>
      </trkpt>
      <trkpt lat="47.38684" lon="6.62962">
        <ele>522.345</ele>
        <time>2015-10-02T10:39:07Z</time>
      </trkpt>
      <trkpt lat="47.38684" lon="6.62961">
        <ele>522.165</ele>
        <time>2015-10-02T10:39:08Z</time>
      </trkpt>
      <trkpt lat="47.38683" lon="6.62959">
        <ele>522.582</ele>
        <time>2015-10-02T10:39:10Z</time>
      </trkpt>
      <trkpt lat="47.38684" lon="6.62961">
        <ele>523.456</ele>
        <time>2015-10-02T10:39:13Z</time>
      </trkpt>
      <trkpt lat="47.38684" lon="6.62965">
        <ele>527.362</ele>
        <time>2015-10-02T10:39:27Z</time>
      </trkpt>
      <trkpt lat="47.38685" lon="6.62964">
        <ele>525.34</ele>
        <time>2015-10-02T10:39:34Z</time>
      </trkpt>
      <trkpt lat="47.38687" lon="6.62964">
        <ele>523.408</ele>
        <time>2015-10-02T10:39:36Z</time>
      </trkpt>
      <trkpt lat="47.38687" lon="6.62963">
        <ele>521.681</ele>
        <time>2015-10-02T10:39:38Z</time>
      </trkpt>
      <trkpt lat="47.38688" lon="6.62961">
        <ele>521.139</ele>
        <time>2015-10-02T10:39:40Z</time>
      </trkpt>
      <trkpt lat="47.38688" lon="6.62959">
        <ele>520.663</ele>
        <time>2015-10-02T10:39:42Z</time>
      </trkpt>
      <trkpt lat="47.38689" lon="6.62958">
        <ele>520.016</ele>
        <time>2015-10-02T10:39:45Z</time>
      </trkpt>
      <trkpt lat="47.38688" lon="6.62957">
        <ele>515.785</ele>
        <time>2015-10-02T10:43:05Z</time>
      </trkpt>
      <trkpt lat="47.38687" lon="6.62959">
        <ele>515.984</ele>
        <time>2015-10-02T10:43:07Z</time>
      </trkpt>
      <trkpt lat="47.38686" lon="6.62959">
        <ele>515.313</ele>
        <time>2015-10-02T10:43:38Z</time>
      </trkpt>
      <trkpt lat="47.38685" lon="6.62961">
        <ele>514.64</ele>
        <time>2015-10-02T10:43:41Z</time>
      </trkpt>
      <trkpt lat="47.38684" lon="6.62963">
        <ele>514.89</ele>
        <time>2015-10-02T10:43:43Z</time>
      </trkpt>
      <trkpt lat="47.38683" lon="6.62963">
        <ele>515.74</ele>
        <time>2015-10-02T10:43:45Z</time>
      </trkpt>
      <trkpt lat="47.38683" lon="6.6296">
        <ele>515.231</ele>
        <time>2015-10-02T10:43:53Z</time>
      </trkpt>
      <trkpt lat="47.38681" lon="6.6296">
        <ele>517.67</ele>
        <time>2015-10-02T10:43:58Z</time>
      </trkpt>
      <trkpt lat="47.38681" lon="6.62959">
        <ele>518.177</ele>
        <time>2015-10-02T10:43:59Z</time>
      </trkpt>
      <trkpt lat="47.3868" lon="6.62958">
        <ele>519.407</ele>
        <time>2015-10-02T10:44:00Z</time>
      </trkpt>
      <trkpt lat="47.38679" lon="6.62957">
        <ele>520.008</ele>
        <time>2015-10-02T10:44:01Z</time>
      </trkpt>
      <trkpt lat="47.38678" lon="6.62955">
        <ele>520.215</ele>
        <time>2015-10-02T10:44:02Z</time>
      </trkpt>
      <trkpt lat="47.38678" lon="6.62954">
        <ele>520.297</ele>
        <time>2015-10-02T10:44:03Z</time>
      </trkpt>
      <trkpt lat="47.38676" lon="6.62953">
        <ele>519.93</ele>
        <time>2015-10-02T10:44:04Z</time>
      </trkpt>
      <trkpt lat="47.38675" lon="6.62951">
        <ele>520.46</ele>
        <time>2015-10-02T10:44:05Z</time>
      </trkpt>
      <trkpt lat="47.38674" lon="6.62949">
        <ele>520.808</ele>
        <time>2015-10-02T10:44:06Z</time>
      </trkpt>
      <trkpt lat="47.38673" lon="6.62948">
        <ele>520.641</ele>
        <time>2015-10-02T10:44:07Z</time>
      </trkpt>
      <trkpt lat="47.38671" lon="6.62946">
        <ele>519.9</ele>
        <time>2015-10-02T10:44:08Z</time>
      </trkpt>
      <trkpt lat="47.3867" lon="6.62944">
        <ele>520.122</ele>
        <time>2015-10-02T10:44:09Z</time>
      </trkpt>
      <trkpt lat="47.38669" lon="6.62942">
        <ele>520.266</ele>
        <time>2015-10-02T10:44:10Z</time>
      </trkpt>
      <trkpt lat="47.38667" lon="6.62939">
        <ele>520.889</ele>
        <time>2015-10-02T10:44:11Z</time>
      </trkpt>
      <trkpt lat="47.38664" lon="6.62937">
        <ele>517.277</ele>
        <time>2015-10-02T10:44:12Z</time>
      </trkpt>
      <trkpt lat="47.38662" lon="6.62934">
        <ele>518.674</ele>
        <time>2015-10-02T10:44:13Z</time>
      </trkpt>
      <trkpt lat="47.3866" lon="6.62931">
        <ele>517.007</ele>
        <time>2015-10-02T10:44:14Z</time>
      </trkpt>
      <trkpt lat="47.38658" lon="6.62928">
        <ele>516.927</ele>
        <time>2015-10-02T10:44:15Z</time>
      </trkpt>
      <trkpt lat="47.38656" lon="6.62926">
        <ele>516.63</ele>
        <time>2015-10-02T10:44:16Z</time>
      </trkpt>
      <trkpt lat="47.38654" lon="6.62924">
        <ele>516.902</ele>
        <time>2015-10-02T10:44:17Z</time>
      </trkpt>
      <trkpt lat="47.38653" lon="6.62921">
        <ele>516.38</ele>
        <time>2015-10-02T10:44:18Z</time>
      </trkpt>
      <trkpt lat="47.38651" lon="6.62919">
        <ele>516.501</ele>
        <time>2015-10-02T10:44:19Z</time>
      </trkpt>
      <trkpt lat="47.3865" lon="6.62917">
        <ele>516.586</ele>
        <time>2015-10-02T10:44:20Z</time>
      </trkpt>
      <trkpt lat="47.38648" lon="6.62914">
        <ele>516.289</ele>
        <time>2015-10-02T10:44:21Z</time>
      </trkpt>
      <trkpt lat="47.38647" lon="6.62912">
        <ele>516.667</ele>
        <time>2015-10-02T10:44:22Z</time>
      </trkpt>
      <trkpt lat="47.38646" lon="6.6291">
        <ele>516.768</ele>
        <time>2015-10-02T10:44:23Z</time>
      </trkpt>
      <trkpt lat="47.38645" lon="6.62908">
        <ele>516.889</ele>
        <time>2015-10-02T10:44:24Z</time>
      </trkpt>
      <trkpt lat="47.38644" lon="6.62906">
        <ele>517.833</ele>
        <time>2015-10-02T10:44:25Z</time>
      </trkpt>
      <trkpt lat="47.38642" lon="6.62904">
        <ele>518.231</ele>
        <time>2015-10-02T10:44:26Z</time>
      </trkpt>
      <trkpt lat="47.38641" lon="6.62902">
        <ele>518.926</ele>
        <time>2015-10-02T10:44:27Z</time>
      </trkpt>
      <trkpt lat="47.3864" lon="6.629">
        <ele>520.538</ele>
        <time>2015-10-02T10:44:28Z</time>
      </trkpt>
      <trkpt lat="47.38639" lon="6.62898">
        <ele>521.14</ele>
        <time>2015-10-02T10:44:29Z</time>
      </trkpt>
      <trkpt lat="47.38638" lon="6.62895">
        <ele>520.832</ele>
        <time>2015-10-02T10:44:30Z</time>
      </trkpt>
      <trkpt lat="47.38637" lon="6.62894">
        <ele>521.546</ele>
        <time>2015-10-02T10:44:31Z</time>
      </trkpt>
      <trkpt lat="47.38637" lon="6.62892">
        <ele>523.207</ele>
        <time>2015-10-02T10:44:32Z</time>
      </trkpt>
      <trkpt lat="47.38636" lon="6.6289">
        <ele>524.047</ele>
        <time>2015-10-02T10:44:33Z</time>
      </trkpt>
      <trkpt lat="47.38636" lon="6.62888">
        <ele>524.01</ele>
        <time>2015-10-02T10:44:34Z</time>
      </trkpt>
      <trkpt lat="47.38635" lon="6.62886">
        <ele>523.829</ele>
        <time>2015-10-02T10:44:35Z</time>
      </trkpt>
      <trkpt lat="47.38634" lon="6.62885">
        <ele>525.921</ele>
        <time>2015-10-02T10:44:36Z</time>
      </trkpt>
      <trkpt lat="47.38634" lon="6.62884">
        <ele>527.393</ele>
        <time>2015-10-02T10:44:37Z</time>
      </trkpt>
      <trkpt lat="47.38633" lon="6.62882">
        <ele>527.811</ele>
        <time>2015-10-02T10:44:38Z</time>
      </trkpt>
      <trkpt lat="47.38633" lon="6.6288">
        <ele>527.928</ele>
        <time>2015-10-02T10:44:39Z</time>
      </trkpt>
      <trkpt lat="47.38632" lon="6.62878">
        <ele>527.319</ele>
        <time>2015-10-02T10:44:40Z</time>
      </trkpt>
      <trkpt lat="47.38631" lon="6.62876">
        <ele>528.074</ele>
        <time>2015-10-02T10:44:41Z</time>
      </trkpt>
      <trkpt lat="47.3863" lon="6.62875">
        <ele>528.541</ele>
        <time>2015-10-02T10:44:42Z</time>
      </trkpt>
      <trkpt lat="47.38629" lon="6.62873">
        <ele>529.223</ele>
        <time>2015-10-02T10:44:43Z</time>
      </trkpt>
      <trkpt lat="47.38628" lon="6.62871">
        <ele>529.603</ele>
        <time>2015-10-02T10:44:44Z</time>
      </trkpt>
      <trkpt lat="47.38627" lon="6.62869">
        <ele>529.474</ele>
        <time>2015-10-02T10:44:45Z</time>
      </trkpt>
      <trkpt lat="47.38625" lon="6.62867">
        <ele>529.518</ele>
        <time>2015-10-02T10:44:46Z</time>
      </trkpt>
      <trkpt lat="47.38623" lon="6.62866">
        <ele>527.29</ele>
        <time>2015-10-02T10:44:47Z</time>
      </trkpt>
      <trkpt lat="47.38622" lon="6.62865">
        <ele>527.188</ele>
        <time>2015-10-02T10:44:48Z</time>
      </trkpt>
      <trkpt lat="47.3862" lon="6.62863">
        <ele>527.867</ele>
        <time>2015-10-02T10:44:49Z</time>
      </trkpt>
      <trkpt lat="47.38619" lon="6.62862">
        <ele>529.127</ele>
        <time>2015-10-02T10:44:50Z</time>
      </trkpt>
      <trkpt lat="47.38617" lon="6.6286">
        <ele>529.969</ele>
        <time>2015-10-02T10:44:51Z</time>
      </trkpt>
      <trkpt lat="47.38616" lon="6.62859">
        <ele>529.477</ele>
        <time>2015-10-02T10:44:52Z</time>
      </trkpt>
      <trkpt lat="47.38615" lon="6.62858">
        <ele>529.778</ele>
        <time>2015-10-02T10:44:53Z</time>
      </trkpt>
      <trkpt lat="47.38614" lon="6.62857">
        <ele>529.573</ele>
        <time>2015-10-02T10:44:54Z</time>
      </trkpt>
      <trkpt lat="47.38613" lon="6.62854">
        <ele>527.442</ele>
        <time>2015-10-02T10:44:56Z</time>
      </trkpt>
      <trkpt lat="47.38611" lon="6.62853">
        <ele>526.369</ele>
        <time>2015-10-02T10:44:57Z</time>
      </trkpt>
      <trkpt lat="47.38609" lon="6.6285">
        <ele>521.868</ele>
        <time>2015-10-02T10:44:58Z</time>
      </trkpt>
      <trkpt lat="47.38607" lon="6.62848">
        <ele>522.395</ele>
        <time>2015-10-02T10:44:59Z</time>
      </trkpt>
      <trkpt lat="47.38605" lon="6.62846">
        <ele>522.971</ele>
        <time>2015-10-02T10:45:00Z</time>
      </trkpt>
      <trkpt lat="47.38604" lon="6.62844">
        <ele>523.837</ele>
        <time>2015-10-02T10:45:01Z</time>
      </trkpt>
      <trkpt lat="47.38602" lon="6.62842">
        <ele>523.377</ele>
        <time>2015-10-02T10:45:02Z</time>
      </trkpt>
      <trkpt lat="47.386" lon="6.6284">
        <ele>524.545</ele>
        <time>2015-10-02T10:45:03Z</time>
      </trkpt>
      <trkpt lat="47.38598" lon="6.62838">
        <ele>524.785</ele>
        <time>2015-10-02T10:45:04Z</time>
      </trkpt>
      <trkpt lat="47.38596" lon="6.62836">
        <ele>524.732</ele>
        <time>2015-10-02T10:45:05Z</time>
      </trkpt>
      <trkpt lat="47.38593" lon="6.62834">
        <ele>525.454</ele>
        <time>2015-10-02T10:45:06Z</time>
      </trkpt>
      <trkpt lat="47.38591" lon="6.62833">
        <ele>526.775</ele>
        <time>2015-10-02T10:45:07Z</time>
      </trkpt>
      <trkpt lat="47.3859" lon="6.62832">
        <ele>527.005</ele>
        <time>2015-10-02T10:45:08Z</time>
      </trkpt>
      <trkpt lat="47.38588" lon="6.62831">
        <ele>527.279</ele>
        <time>2015-10-02T10:45:09Z</time>
      </trkpt>
      <trkpt lat="47.38584" lon="6.6283">
        <ele>519.901</ele>
        <time>2015-10-02T10:45:10Z</time>
      </trkpt>
      <trkpt lat="47.3858" lon="6.62827">
        <ele>519.962</ele>
        <time>2015-10-02T10:45:11Z</time>
      </trkpt>
      <trkpt lat="47.38577" lon="6.62826">
        <ele>521.375</ele>
        <time>2015-10-02T10:45:12Z</time>
      </trkpt>
      <trkpt lat="47.38575" lon="6.62824">
        <ele>523.526</ele>
        <time>2015-10-02T10:45:13Z</time>
      </trkpt>
      <trkpt lat="47.38573" lon="6.62823">
        <ele>524.534</ele>
        <time>2015-10-02T10:45:14Z</time>
      </trkpt>
      <trkpt lat="47.38571" lon="6.62821">
        <ele>525.244</ele>
        <time>2015-10-02T10:45:15Z</time>
      </trkpt>
      <trkpt lat="47.3857" lon="6.62819">
        <ele>525.264</ele>
        <time>2015-10-02T10:45:16Z</time>
      </trkpt>
      <trkpt lat="47.38568" lon="6.62817">
        <ele>524.652</ele>
        <time>2015-10-02T10:45:17Z</time>
      </trkpt>
      <trkpt lat="47.38566" lon="6.62815">
        <ele>525.678</ele>
        <time>2015-10-02T10:45:18Z</time>
      </trkpt>
      <trkpt lat="47.38564" lon="6.62813">
        <ele>526.414</ele>
        <time>2015-10-02T10:45:19Z</time>
      </trkpt>
      <trkpt lat="47.38562" lon="6.62812">
        <ele>526.075</ele>
        <time>2015-10-02T10:45:20Z</time>
      </trkpt>
      <trkpt lat="47.3856" lon="6.62811">
        <ele>525.68</ele>
        <time>2015-10-02T10:45:21Z</time>
      </trkpt>
      <trkpt lat="47.38559" lon="6.6281">
        <ele>526.376</ele>
        <time>2015-10-02T10:45:22Z</time>
      </trkpt>
      <trkpt lat="47.38557" lon="6.62809">
        <ele>527.37</ele>
        <time>2015-10-02T10:45:23Z</time>
      </trkpt>
      <trkpt lat="47.38556" lon="6.62808">
        <ele>528.639</ele>
        <time>2015-10-02T10:45:24Z</time>
      </trkpt>
      <trkpt lat="47.38554" lon="6.62807">
        <ele>528.973</ele>
        <time>2015-10-02T10:45:25Z</time>
      </trkpt>
      <trkpt lat="47.38553" lon="6.62806">
        <ele>529.836</ele>
        <time>2015-10-02T10:45:26Z</time>
      </trkpt>
      <trkpt lat="47.38551" lon="6.62805">
        <ele>529.539</ele>
        <time>2015-10-02T10:45:27Z</time>
      </trkpt>
      <trkpt lat="47.3855" lon="6.62804">
        <ele>529.994</ele>
        <time>2015-10-02T10:45:28Z</time>
      </trkpt>
      <trkpt lat="47.38548" lon="6.62803">
        <ele>524.201</ele>
        <time>2015-10-02T10:45:29Z</time>
      </trkpt>
      <trkpt lat="47.38545" lon="6.62802">
        <ele>524.914</ele>
        <time>2015-10-02T10:45:30Z</time>
      </trkpt>
      <trkpt lat="47.38543" lon="6.62801">
        <ele>526.181</ele>
        <time>2015-10-02T10:45:31Z</time>
      </trkpt>
      <trkpt lat="47.38542" lon="6.62801">
        <ele>527.643</ele>
        <time>2015-10-02T10:45:32Z</time>
      </trkpt>
      <trkpt lat="47.3854" lon="6.628">
        <ele>527.443</ele>
        <time>2015-10-02T10:45:33Z</time>
      </trkpt>
      <trkpt lat="47.38538" lon="6.62799">
        <ele>527.517</ele>
        <time>2015-10-02T10:45:34Z</time>
      </trkpt>
      <trkpt lat="47.38537" lon="6.62797">
        <ele>527.103</ele>
        <time>2015-10-02T10:45:35Z</time>
      </trkpt>
      <trkpt lat="47.38535" lon="6.62796">
        <ele>526.715</ele>
        <time>2015-10-02T10:45:36Z</time>
      </trkpt>
      <trkpt lat="47.38533" lon="6.62795">
        <ele>526.58</ele>
        <time>2015-10-02T10:45:37Z</time>
      </trkpt>
      <trkpt lat="47.38531" lon="6.62793">
        <ele>525.081</ele>
        <time>2015-10-02T10:45:38Z</time>
      </trkpt>
      <trkpt lat="47.38529" lon="6.62792">
        <ele>525.045</ele>
        <time>2015-10-02T10:45:39Z</time>
      </trkpt>
      <trkpt lat="47.38526" lon="6.62791">
        <ele>524.453</ele>
        <time>2015-10-02T10:45:40Z</time>
      </trkpt>
      <trkpt lat="47.38524" lon="6.6279">
        <ele>523.571</ele>
        <time>2015-10-02T10:45:41Z</time>
      </trkpt>
      <trkpt lat="47.38523" lon="6.6279">
        <ele>522.884</ele>
        <time>2015-10-02T10:45:42Z</time>
      </trkpt>
      <trkpt lat="47.38521" lon="6.6279">
        <ele>522.33</ele>
        <time>2015-10-02T10:45:43Z</time>
      </trkpt>
      <trkpt lat="47.38519" lon="6.62789">
        <ele>521.65</ele>
        <time>2015-10-02T10:45:44Z</time>
      </trkpt>
      <trkpt lat="47.38517" lon="6.62789">
        <ele>520.665</ele>
        <time>2015-10-02T10:45:45Z</time>
      </trkpt>
      <trkpt lat="47.38516" lon="6.62788">
        <ele>520.993</ele>
        <time>2015-10-02T10:45:46Z</time>
      </trkpt>
      <trkpt lat="47.38514" lon="6.62787">
        <ele>521.837</ele>
        <time>2015-10-02T10:45:47Z</time>
      </trkpt>
      <trkpt lat="47.38513" lon="6.62785">
        <ele>521.272</ele>
        <time>2015-10-02T10:45:48Z</time>
      </trkpt>
      <trkpt lat="47.38512" lon="6.62784">
        <ele>520.795</ele>
        <time>2015-10-02T10:45:49Z</time>
      </trkpt>
      <trkpt lat="47.3851" lon="6.62781">
        <ele>521.396</ele>
        <time>2015-10-02T10:45:50Z</time>
      </trkpt>
      <trkpt lat="47.38509" lon="6.62779">
        <ele>521.437</ele>
        <time>2015-10-02T10:45:51Z</time>
      </trkpt>
      <trkpt lat="47.38508" lon="6.62776">
        <ele>522.402</ele>
        <time>2015-10-02T10:45:52Z</time>
      </trkpt>
      <trkpt lat="47.38508" lon="6.62773">
        <ele>522.139</ele>
        <time>2015-10-02T10:45:53Z</time>
      </trkpt>
      <trkpt lat="47.38507" lon="6.6277">
        <ele>521.843</ele>
        <time>2015-10-02T10:45:54Z</time>
      </trkpt>
      <trkpt lat="47.38507" lon="6.62767">
        <ele>521.78</ele>
        <time>2015-10-02T10:45:55Z</time>
      </trkpt>
      <trkpt lat="47.38507" lon="6.62764">
        <ele>521.376</ele>
        <time>2015-10-02T10:45:56Z</time>
      </trkpt>
      <trkpt lat="47.38507" lon="6.62761">
        <ele>520.777</ele>
        <time>2015-10-02T10:45:57Z</time>
      </trkpt>
      <trkpt lat="47.38508" lon="6.62758">
        <ele>520.878</ele>
        <time>2015-10-02T10:45:58Z</time>
      </trkpt>
      <trkpt lat="47.38509" lon="6.62755">
        <ele>520.672</ele>
        <time>2015-10-02T10:45:59Z</time>
      </trkpt>
      <trkpt lat="47.3851" lon="6.62751">
        <ele>520.994</ele>
        <time>2015-10-02T10:46:00Z</time>
      </trkpt>
      <trkpt lat="47.38511" lon="6.62749">
        <ele>519.969</ele>
        <time>2015-10-02T10:46:01Z</time>
      </trkpt>
      <trkpt lat="47.38512" lon="6.62747">
        <ele>521.066</ele>
        <time>2015-10-02T10:46:02Z</time>
      </trkpt>
      <trkpt lat="47.38514" lon="6.62744">
        <ele>520.581</ele>
        <time>2015-10-02T10:46:03Z</time>
      </trkpt>
      <trkpt lat="47.38516" lon="6.62742">
        <ele>521.179</ele>
        <time>2015-10-02T10:46:04Z</time>
      </trkpt>
      <trkpt lat="47.38517" lon="6.6274">
        <ele>521.625</ele>
        <time>2015-10-02T10:46:05Z</time>
      </trkpt>
      <trkpt lat="47.38519" lon="6.62738">
        <ele>522.268</ele>
        <time>2015-10-02T10:46:06Z</time>
      </trkpt>
      <trkpt lat="47.38521" lon="6.62736">
        <ele>523.698</ele>
        <time>2015-10-02T10:46:07Z</time>
      </trkpt>
      <trkpt lat="47.38523" lon="6.62734">
        <ele>524.499</ele>
        <time>2015-10-02T10:46:08Z</time>
      </trkpt>
      <trkpt lat="47.38525" lon="6.62731">
        <ele>524.921</ele>
        <time>2015-10-02T10:46:09Z</time>
      </trkpt>
      <trkpt lat="47.38527" lon="6.62729">
        <ele>525.08</ele>
        <time>2015-10-02T10:46:10Z</time>
      </trkpt>
      <trkpt lat="47.38528" lon="6.62727">
        <ele>524.071</ele>
        <time>2015-10-02T10:46:11Z</time>
      </trkpt>
      <trkpt lat="47.3853" lon="6.62725">
        <ele>523.805</ele>
        <time>2015-10-02T10:46:12Z</time>
      </trkpt>
      <trkpt lat="47.38532" lon="6.62724">
        <ele>524.831</ele>
        <time>2015-10-02T10:46:13Z</time>
      </trkpt>
      <trkpt lat="47.38533" lon="6.62722">
        <ele>525.885</ele>
        <time>2015-10-02T10:46:14Z</time>
      </trkpt>
      <trkpt lat="47.38535" lon="6.6272">
        <ele>526.372</ele>
        <time>2015-10-02T10:46:15Z</time>
      </trkpt>
      <trkpt lat="47.38537" lon="6.62718">
        <ele>526.51</ele>
        <time>2015-10-02T10:46:16Z</time>
      </trkpt>
      <trkpt lat="47.38538" lon="6.62716">
        <ele>525.461</ele>
        <time>2015-10-02T10:46:17Z</time>
      </trkpt>
      <trkpt lat="47.3854" lon="6.62714">
        <ele>525.311</ele>
        <time>2015-10-02T10:46:18Z</time>
      </trkpt>
      <trkpt lat="47.38541" lon="6.62712">
        <ele>524.859</ele>
        <time>2015-10-02T10:46:19Z</time>
      </trkpt>
      <trkpt lat="47.38543" lon="6.6271">
        <ele>524.093</ele>
        <time>2015-10-02T10:46:20Z</time>
      </trkpt>
      <trkpt lat="47.38544" lon="6.62708">
        <ele>524.366</ele>
        <time>2015-10-02T10:46:21Z</time>
      </trkpt>
      <trkpt lat="47.38545" lon="6.62706">
        <ele>524.626</ele>
        <time>2015-10-02T10:46:22Z</time>
      </trkpt>
      <trkpt lat="47.38547" lon="6.62704">
        <ele>525.074</ele>
        <time>2015-10-02T10:46:23Z</time>
      </trkpt>
      <trkpt lat="47.38548" lon="6.62702">
        <ele>525.123</ele>
        <time>2015-10-02T10:46:24Z</time>
      </trkpt>
      <trkpt lat="47.38549" lon="6.627">
        <ele>526.029</ele>
        <time>2015-10-02T10:46:25Z</time>
      </trkpt>
      <trkpt lat="47.38551" lon="6.62699">
        <ele>526.09</ele>
        <time>2015-10-02T10:46:26Z</time>
      </trkpt>
      <trkpt lat="47.38552" lon="6.62697">
        <ele>526.213</ele>
        <time>2015-10-02T10:46:27Z</time>
      </trkpt>
      <trkpt lat="47.38554" lon="6.62696">
        <ele>526.889</ele>
        <time>2015-10-02T10:46:28Z</time>
      </trkpt>
      <trkpt lat="47.38556" lon="6.62694">
        <ele>526.649</ele>
        <time>2015-10-02T10:46:29Z</time>
      </trkpt>
      <trkpt lat="47.38557" lon="6.62692">
        <ele>527.244</ele>
        <time>2015-10-02T10:46:30Z</time>
      </trkpt>
      <trkpt lat="47.38559" lon="6.6269">
        <ele>526.755</ele>
        <time>2015-10-02T10:46:31Z</time>
      </trkpt>
      <trkpt lat="47.3856" lon="6.62687">
        <ele>526.706</ele>
        <time>2015-10-02T10:46:32Z</time>
      </trkpt>
      <trkpt lat="47.38562" lon="6.62685">
        <ele>527.556</ele>
        <time>2015-10-02T10:46:33Z</time>
      </trkpt>
      <trkpt lat="47.38563" lon="6.62682">
        <ele>528.684</ele>
        <time>2015-10-02T10:46:34Z</time>
      </trkpt>
      <trkpt lat="47.38564" lon="6.6268">
        <ele>529.842</ele>
        <time>2015-10-02T10:46:35Z</time>
      </trkpt>
      <trkpt lat="47.38565" lon="6.62677">
        <ele>529.836</ele>
        <time>2015-10-02T10:46:36Z</time>
      </trkpt>
      <trkpt lat="47.38566" lon="6.62673">
        <ele>530.008</ele>
        <time>2015-10-02T10:46:37Z</time>
      </trkpt>
      <trkpt lat="47.38567" lon="6.6267">
        <ele>530.577</ele>
        <time>2015-10-02T10:46:38Z</time>
      </trkpt>
      <trkpt lat="47.38569" lon="6.62667">
        <ele>530.752</ele>
        <time>2015-10-02T10:46:39Z</time>
      </trkpt>
      <trkpt lat="47.3857" lon="6.62664">
        <ele>530.058</ele>
        <time>2015-10-02T10:46:40Z</time>
      </trkpt>
      <trkpt lat="47.38571" lon="6.62661">
        <ele>530.575</ele>
        <time>2015-10-02T10:46:41Z</time>
      </trkpt>
      <trkpt lat="47.38573" lon="6.62658">
        <ele>530.94</ele>
        <time>2015-10-02T10:46:42Z</time>
      </trkpt>
      <trkpt lat="47.38574" lon="6.62655">
        <ele>531.581</ele>
        <time>2015-10-02T10:46:43Z</time>
      </trkpt>
      <trkpt lat="47.38575" lon="6.62652">
        <ele>531.614</ele>
        <time>2015-10-02T10:46:44Z</time>
      </trkpt>
      <trkpt lat="47.38576" lon="6.62649">
        <ele>531.679</ele>
        <time>2015-10-02T10:46:45Z</time>
      </trkpt>
      <trkpt lat="47.38577" lon="6.62646">
        <ele>533.28</ele>
        <time>2015-10-02T10:46:46Z</time>
      </trkpt>
      <trkpt lat="47.38578" lon="6.62643">
        <ele>532.915</ele>
        <time>2015-10-02T10:46:47Z</time>
      </trkpt>
      <trkpt lat="47.38579" lon="6.6264">
        <ele>532.408</ele>
        <time>2015-10-02T10:46:48Z</time>
      </trkpt>
      <trkpt lat="47.38581" lon="6.62636">
        <ele>531.789</ele>
        <time>2015-10-02T10:46:49Z</time>
      </trkpt>
      <trkpt lat="47.38582" lon="6.62632">
        <ele>531.412</ele>
        <time>2015-10-02T10:46:50Z</time>
      </trkpt>
      <trkpt lat="47.38583" lon="6.62629">
        <ele>531.643</ele>
        <time>2015-10-02T10:46:51Z</time>
      </trkpt>
      <trkpt lat="47.38584" lon="6.62626">
        <ele>532.277</ele>
        <time>2015-10-02T10:46:52Z</time>
      </trkpt>
      <trkpt lat="47.38585" lon="6.62623">
        <ele>532.203</ele>
        <time>2015-10-02T10:46:53Z</time>
      </trkpt>
      <trkpt lat="47.38587" lon="6.62619">
        <ele>532.531</ele>
        <time>2015-10-02T10:46:54Z</time>
      </trkpt>
      <trkpt lat="47.38589" lon="6.62616">
        <ele>533.505</ele>
        <time>2015-10-02T10:46:55Z</time>
      </trkpt>
      <trkpt lat="47.3859" lon="6.62612">
        <ele>534.376</ele>
        <time>2015-10-02T10:46:56Z</time>
      </trkpt>
      <trkpt lat="47.38591" lon="6.62609">
        <ele>534.526</ele>
        <time>2015-10-02T10:46:57Z</time>
      </trkpt>
      <trkpt lat="47.38592" lon="6.62606">
        <ele>534.983</ele>
        <time>2015-10-02T10:46:58Z</time>
      </trkpt>
      <trkpt lat="47.38593" lon="6.62603">
        <ele>536.516</ele>
        <time>2015-10-02T10:46:59Z</time>
      </trkpt>
      <trkpt lat="47.38594" lon="6.626">
        <ele>536.876</ele>
        <time>2015-10-02T10:47:00Z</time>
      </trkpt>
      <trkpt lat="47.38595" lon="6.62596">
        <ele>537.32</ele>
        <time>2015-10-02T10:47:01Z</time>
      </trkpt>
      <trkpt lat="47.38596" lon="6.62593">
        <ele>538.065</ele>
        <time>2015-10-02T10:47:02Z</time>
      </trkpt>
      <trkpt lat="47.38597" lon="6.62589">
        <ele>538.653</ele>
        <time>2015-10-02T10:47:03Z</time>
      </trkpt>
      <trkpt lat="47.38597" lon="6.62585">
        <ele>539.998</ele>
        <time>2015-10-02T10:47:04Z</time>
      </trkpt>
      <trkpt lat="47.38598" lon="6.6258">
        <ele>540.353</ele>
        <time>2015-10-02T10:47:05Z</time>
      </trkpt>
      <trkpt lat="47.38598" lon="6.62575">
        <ele>540.674</ele>
        <time>2015-10-02T10:47:06Z</time>
      </trkpt>
      <trkpt lat="47.38598" lon="6.62571">
        <ele>540.804</ele>
        <time>2015-10-02T10:47:07Z</time>
      </trkpt>
      <trkpt lat="47.38598" lon="6.62567">
        <ele>541.636</ele>
        <time>2015-10-02T10:47:08Z</time>
      </trkpt>
      <trkpt lat="47.38598" lon="6.62563">
        <ele>541.391</ele>
        <time>2015-10-02T10:47:09Z</time>
      </trkpt>
      <trkpt lat="47.38598" lon="6.6256">
        <ele>541.525</ele>
        <time>2015-10-02T10:47:10Z</time>
      </trkpt>
      <trkpt lat="47.38598" lon="6.62558">
        <ele>541.536</ele>
        <time>2015-10-02T10:47:11Z</time>
      </trkpt>
      <trkpt lat="47.38597" lon="6.62555">
        <ele>541.213</ele>
        <time>2015-10-02T10:47:12Z</time>
      </trkpt>
      <trkpt lat="47.38597" lon="6.62553">
        <ele>541.324</ele>
        <time>2015-10-02T10:47:13Z</time>
      </trkpt>
      <trkpt lat="47.38596" lon="6.62554">
        <ele>542.205</ele>
        <time>2015-10-02T10:47:20Z</time>
      </trkpt>
      <trkpt lat="47.38597" lon="6.62554">
        <ele>544.259</ele>
        <time>2015-10-02T10:47:28Z</time>
      </trkpt>
      <trkpt lat="47.38596" lon="6.62552">
        <ele>544.45</ele>
        <time>2015-10-02T10:47:32Z</time>
      </trkpt>
      <trkpt lat="47.38597" lon="6.62551">
        <ele>545.24</ele>
        <time>2015-10-02T10:47:37Z</time>
      </trkpt>
      <trkpt lat="47.38596" lon="6.62549">
        <ele>541.993</ele>
        <time>2015-10-02T10:47:39Z</time>
      </trkpt>
      <trkpt lat="47.38596" lon="6.62547">
        <ele>541.666</ele>
        <time>2015-10-02T10:47:41Z</time>
      </trkpt>
      <trkpt lat="47.38597" lon="6.62546">
        <ele>544.02</ele>
        <time>2015-10-02T10:47:43Z</time>
      </trkpt>
      <trkpt lat="47.38596" lon="6.62544">
        <ele>542.496</ele>
        <time>2015-10-02T10:47:47Z</time>
      </trkpt>
      <trkpt lat="47.38596" lon="6.62543">
        <ele>542.303</ele>
        <time>2015-10-02T10:47:48Z</time>
      </trkpt>
      <trkpt lat="47.38595" lon="6.62542">
        <ele>542.153</ele>
        <time>2015-10-02T10:47:49Z</time>
      </trkpt>
      <trkpt lat="47.38594" lon="6.62541">
        <ele>539.848</ele>
        <time>2015-10-02T10:47:50Z</time>
      </trkpt>
      <trkpt lat="47.38593" lon="6.62539">
        <ele>537.473</ele>
        <time>2015-10-02T10:47:51Z</time>
      </trkpt>
      <trkpt lat="47.38592" lon="6.62538">
        <ele>536.997</ele>
        <time>2015-10-02T10:47:52Z</time>
      </trkpt>
      <trkpt lat="47.38591" lon="6.62538">
        <ele>537.944</ele>
        <time>2015-10-02T10:47:53Z</time>
      </trkpt>
      <trkpt lat="47.3859" lon="6.62537">
        <ele>539.271</ele>
        <time>2015-10-02T10:47:55Z</time>
      </trkpt>
      <trkpt lat="47.3859" lon="6.62534">
        <ele>539.375</ele>
        <time>2015-10-02T10:47:59Z</time>
      </trkpt>
      <trkpt lat="47.38591" lon="6.62535">
        <ele>540.759</ele>
        <time>2015-10-02T10:48:54Z</time>
      </trkpt>
      <trkpt lat="47.38593" lon="6.62538">
        <ele>539.551</ele>
        <time>2015-10-02T10:49:38Z</time>
      </trkpt>
      <trkpt lat="47.38595" lon="6.62538">
        <ele>540.146</ele>
        <time>2015-10-02T10:49:54Z</time>
      </trkpt>
      <trkpt lat="47.38596" lon="6.62537">
        <ele>539.394</ele>
        <time>2015-10-02T10:50:00Z</time>
      </trkpt>
      <trkpt lat="47.38597" lon="6.62536">
        <ele>540.171</ele>
        <time>2015-10-02T10:50:03Z</time>
      </trkpt>
      <trkpt lat="47.38598" lon="6.62536">
        <ele>540.443</ele>
        <time>2015-10-02T10:50:34Z</time>
      </trkpt>
      <trkpt lat="47.38594" lon="6.62533">
        <ele>538.629</ele>
        <time>2015-10-02T11:13:44Z</time>
      </trkpt>
      <trkpt lat="47.38592" lon="6.62533">
        <ele>539.049</ele>
        <time>2015-10-02T11:23:43Z</time>
      </trkpt>
      <trkpt lat="47.38592" lon="6.62535">
        <ele>541.778</ele>
        <time>2015-10-02T11:34:21Z</time>
      </trkpt>
      <trkpt lat="47.38594" lon="6.62536">
        <ele>542.194</ele>
        <time>2015-10-02T11:34:30Z</time>
      </trkpt>
      <trkpt lat="47.38594" lon="6.62535">
        <ele>542.738</ele>
        <time>2015-10-02T11:35:14Z</time>
      </trkpt>
      <trkpt lat="47.38593" lon="6.62534">
        <ele>544.72</ele>
        <time>2015-10-02T11:35:19Z</time>
      </trkpt>
      <trkpt lat="47.38592" lon="6.62531">
        <ele>546.48</ele>
        <time>2015-10-02T11:35:21Z</time>
      </trkpt>
      <trkpt lat="47.38591" lon="6.62529">
        <ele>546.563</ele>
        <time>2015-10-02T11:35:22Z</time>
      </trkpt>
      <trkpt lat="47.3859" lon="6.62527">
        <ele>547.368</ele>
        <time>2015-10-02T11:35:23Z</time>
      </trkpt>
      <trkpt lat="47.38589" lon="6.62525">
        <ele>548.002</ele>
        <time>2015-10-02T11:35:24Z</time>
      </trkpt>
      <trkpt lat="47.38587" lon="6.62523">
        <ele>547.879</ele>
        <time>2015-10-02T11:35:25Z</time>
      </trkpt>
      <trkpt lat="47.38585" lon="6.62521">
        <ele>548.211</ele>
        <time>2015-10-02T11:35:26Z</time>
      </trkpt>
      <trkpt lat="47.38584" lon="6.62519">
        <ele>548.202</ele>
        <time>2015-10-02T11:35:27Z</time>
      </trkpt>
      <trkpt lat="47.38582" lon="6.62517">
        <ele>549.159</ele>
        <time>2015-10-02T11:35:28Z</time>
      </trkpt>
      <trkpt lat="47.38581" lon="6.62514">
        <ele>548.477</ele>
        <time>2015-10-02T11:35:29Z</time>
      </trkpt>
      <trkpt lat="47.3858" lon="6.62512">
        <ele>547.14</ele>
        <time>2015-10-02T11:35:30Z</time>
      </trkpt>
      <trkpt lat="47.38578" lon="6.62509">
        <ele>546.677</ele>
        <time>2015-10-02T11:35:31Z</time>
      </trkpt>
      <trkpt lat="47.38577" lon="6.62507">
        <ele>546.401</ele>
        <time>2015-10-02T11:35:32Z</time>
      </trkpt>
      <trkpt lat="47.38576" lon="6.62504">
        <ele>546.182</ele>
        <time>2015-10-02T11:35:33Z</time>
      </trkpt>
      <trkpt lat="47.38575" lon="6.62502">
        <ele>544.87</ele>
        <time>2015-10-02T11:35:34Z</time>
      </trkpt>
      <trkpt lat="47.38574" lon="6.62499">
        <ele>544.584</ele>
        <time>2015-10-02T11:35:35Z</time>
      </trkpt>
      <trkpt lat="47.38572" lon="6.62496">
        <ele>544.668</ele>
        <time>2015-10-02T11:35:36Z</time>
      </trkpt>
      <trkpt lat="47.38571" lon="6.62493">
        <ele>542.68</ele>
        <time>2015-10-02T11:35:37Z</time>
      </trkpt>
      <trkpt lat="47.38569" lon="6.6249">
        <ele>543.281</ele>
        <time>2015-10-02T11:35:38Z</time>
      </trkpt>
      <trkpt lat="47.38567" lon="6.62488">
        <ele>542.884</ele>
        <time>2015-10-02T11:35:39Z</time>
      </trkpt>
      <trkpt lat="47.38565" lon="6.62486">
        <ele>543.123</ele>
        <time>2015-10-02T11:35:40Z</time>
      </trkpt>
      <trkpt lat="47.38563" lon="6.62483">
        <ele>542.256</ele>
        <time>2015-10-02T11:35:41Z</time>
      </trkpt>
      <trkpt lat="47.3856" lon="6.62482">
        <ele>540.293</ele>
        <time>2015-10-02T11:35:42Z</time>
      </trkpt>
      <trkpt lat="47.38558" lon="6.6248">
        <ele>542.076</ele>
        <time>2015-10-02T11:35:43Z</time>
      </trkpt>
      <trkpt lat="47.38556" lon="6.62479">
        <ele>542.693</ele>
        <time>2015-10-02T11:35:44Z</time>
      </trkpt>
      <trkpt lat="47.38554" lon="6.62477">
        <ele>541.945</ele>
        <time>2015-10-02T11:35:45Z</time>
      </trkpt>
      <trkpt lat="47.38552" lon="6.62475">
        <ele>541.188</ele>
        <time>2015-10-02T11:35:46Z</time>
      </trkpt>
      <trkpt lat="47.3855" lon="6.62474">
        <ele>542.728</ele>
        <time>2015-10-02T11:35:47Z</time>
      </trkpt>
      <trkpt lat="47.38548" lon="6.62472">
        <ele>541.933</ele>
        <time>2015-10-02T11:35:48Z</time>
      </trkpt>
      <trkpt lat="47.38546" lon="6.6247">
        <ele>542.03</ele>
        <time>2015-10-02T11:35:49Z</time>
      </trkpt>
      <trkpt lat="47.38544" lon="6.62468">
        <ele>541.661</ele>
        <time>2015-10-02T11:35:50Z</time>
      </trkpt>
      <trkpt lat="47.38542" lon="6.62467">
        <ele>540.536</ele>
        <time>2015-10-02T11:35:51Z</time>
      </trkpt>
      <trkpt lat="47.3854" lon="6.62465">
        <ele>542.737</ele>
        <time>2015-10-02T11:35:52Z</time>
      </trkpt>
      <trkpt lat="47.38538" lon="6.62463">
        <ele>541.918</ele>
        <time>2015-10-02T11:35:53Z</time>
      </trkpt>
      <trkpt lat="47.38536" lon="6.62461">
        <ele>541.293</ele>
        <time>2015-10-02T11:35:54Z</time>
      </trkpt>
      <trkpt lat="47.38534" lon="6.62458">
        <ele>542.578</ele>
        <time>2015-10-02T11:35:55Z</time>
      </trkpt>
      <trkpt lat="47.38533" lon="6.62456">
        <ele>543.542</ele>
        <time>2015-10-02T11:35:56Z</time>
      </trkpt>
      <trkpt lat="47.38531" lon="6.62453">
        <ele>542.86</ele>
        <time>2015-10-02T11:35:57Z</time>
      </trkpt>
      <trkpt lat="47.38529" lon="6.62451">
        <ele>543.079</ele>
        <time>2015-10-02T11:35:58Z</time>
      </trkpt>
      <trkpt lat="47.38528" lon="6.62448">
        <ele>544.907</ele>
        <time>2015-10-02T11:35:59Z</time>
      </trkpt>
      <trkpt lat="47.38527" lon="6.62446">
        <ele>545.383</ele>
        <time>2015-10-02T11:36:00Z</time>
      </trkpt>
      <trkpt lat="47.38525" lon="6.62444">
        <ele>545.611</ele>
        <time>2015-10-02T11:36:01Z</time>
      </trkpt>
      <trkpt lat="47.38523" lon="6.62442">
        <ele>545.457</ele>
        <time>2015-10-02T11:36:02Z</time>
      </trkpt>
      <trkpt lat="47.38521" lon="6.6244">
        <ele>543.579</ele>
        <time>2015-10-02T11:36:03Z</time>
      </trkpt>
      <trkpt lat="47.38518" lon="6.62438">
        <ele>542.423</ele>
        <time>2015-10-02T11:36:04Z</time>
      </trkpt>
      <trkpt lat="47.38516" lon="6.62437">
        <ele>542.207</ele>
        <time>2015-10-02T11:36:05Z</time>
      </trkpt>
      <trkpt lat="47.38513" lon="6.62436">
        <ele>541.979</ele>
        <time>2015-10-02T11:36:06Z</time>
      </trkpt>
      <trkpt lat="47.38511" lon="6.62435">
        <ele>543.513</ele>
        <time>2015-10-02T11:36:07Z</time>
      </trkpt>
      <trkpt lat="47.38508" lon="6.62434">
        <ele>543.602</ele>
        <time>2015-10-02T11:36:08Z</time>
      </trkpt>
      <trkpt lat="47.38506" lon="6.62433">
        <ele>544.029</ele>
        <time>2015-10-02T11:36:09Z</time>
      </trkpt>
      <trkpt lat="47.38504" lon="6.62432">
        <ele>544.229</ele>
        <time>2015-10-02T11:36:10Z</time>
      </trkpt>
      <trkpt lat="47.38502" lon="6.62431">
        <ele>544.941</ele>
        <time>2015-10-02T11:36:11Z</time>
      </trkpt>
      <trkpt lat="47.38499" lon="6.62429">
        <ele>543.261</ele>
        <time>2015-10-02T11:36:12Z</time>
      </trkpt>
      <trkpt lat="47.38497" lon="6.62428">
        <ele>543.194</ele>
        <time>2015-10-02T11:36:13Z</time>
      </trkpt>
      <trkpt lat="47.38495" lon="6.62426">
        <ele>543.34</ele>
        <time>2015-10-02T11:36:14Z</time>
      </trkpt>
      <trkpt lat="47.38492" lon="6.62425">
        <ele>542.76</ele>
        <time>2015-10-02T11:36:15Z</time>
      </trkpt>
      <trkpt lat="47.3849" lon="6.62423">
        <ele>543.953</ele>
        <time>2015-10-02T11:36:16Z</time>
      </trkpt>
      <trkpt lat="47.38488" lon="6.62422">
        <ele>544.527</ele>
        <time>2015-10-02T11:36:17Z</time>
      </trkpt>
      <trkpt lat="47.38486" lon="6.62421">
        <ele>544.662</ele>
        <time>2015-10-02T11:36:18Z</time>
      </trkpt>
      <trkpt lat="47.38484" lon="6.62421">
        <ele>543.929</ele>
        <time>2015-10-02T11:36:19Z</time>
      </trkpt>
      <trkpt lat="47.38482" lon="6.6242">
        <ele>544.232</ele>
        <time>2015-10-02T11:36:20Z</time>
      </trkpt>
      <trkpt lat="47.3848" lon="6.62419">
        <ele>544.243</ele>
        <time>2015-10-02T11:36:21Z</time>
      </trkpt>
      <trkpt lat="47.38477" lon="6.62418">
        <ele>542.939</ele>
        <time>2015-10-02T11:36:22Z</time>
      </trkpt>
      <trkpt lat="47.38475" lon="6.62417">
        <ele>542.769</ele>
        <time>2015-10-02T11:36:23Z</time>
      </trkpt>
      <trkpt lat="47.38472" lon="6.62417">
        <ele>541.625</ele>
        <time>2015-10-02T11:36:24Z</time>
      </trkpt>
      <trkpt lat="47.3847" lon="6.62417">
        <ele>541.877</ele>
        <time>2015-10-02T11:36:25Z</time>
      </trkpt>
      <trkpt lat="47.38468" lon="6.62417">
        <ele>543.03</ele>
        <time>2015-10-02T11:36:26Z</time>
      </trkpt>
      <trkpt lat="47.38466" lon="6.62418">
        <ele>543.694</ele>
        <time>2015-10-02T11:36:27Z</time>
      </trkpt>
      <trkpt lat="47.38464" lon="6.62419">
        <ele>543.698</ele>
        <time>2015-10-02T11:36:28Z</time>
      </trkpt>
      <trkpt lat="47.38462" lon="6.62419">
        <ele>537.082</ele>
        <time>2015-10-02T11:36:29Z</time>
      </trkpt>
      <trkpt lat="47.3846" lon="6.62419">
        <ele>536.942</ele>
        <time>2015-10-02T11:36:30Z</time>
      </trkpt>
      <trkpt lat="47.38458" lon="6.6242">
        <ele>537.37</ele>
        <time>2015-10-02T11:36:31Z</time>
      </trkpt>
      <trkpt lat="47.38456" lon="6.62421">
        <ele>537.254</ele>
        <time>2015-10-02T11:36:32Z</time>
      </trkpt>
      <trkpt lat="47.38454" lon="6.62424">
        <ele>540.584</ele>
        <time>2015-10-02T11:36:33Z</time>
      </trkpt>
      <trkpt lat="47.38453" lon="6.62427">
        <ele>542.321</ele>
        <time>2015-10-02T11:36:34Z</time>
      </trkpt>
      <trkpt lat="47.38452" lon="6.6243">
        <ele>542.68</ele>
        <time>2015-10-02T11:36:35Z</time>
      </trkpt>
      <trkpt lat="47.38451" lon="6.62433">
        <ele>544.172</ele>
        <time>2015-10-02T11:36:36Z</time>
      </trkpt>
      <trkpt lat="47.3845" lon="6.62437">
        <ele>543.271</ele>
        <time>2015-10-02T11:36:37Z</time>
      </trkpt>
      <trkpt lat="47.3845" lon="6.6244">
        <ele>544.362</ele>
        <time>2015-10-02T11:36:38Z</time>
      </trkpt>
      <trkpt lat="47.3845" lon="6.62443">
        <ele>545.633</ele>
        <time>2015-10-02T11:36:39Z</time>
      </trkpt>
      <trkpt lat="47.3845" lon="6.62446">
        <ele>546.072</ele>
        <time>2015-10-02T11:36:40Z</time>
      </trkpt>
      <trkpt lat="47.3845" lon="6.62449">
        <ele>546.372</ele>
        <time>2015-10-02T11:36:41Z</time>
      </trkpt>
      <trkpt lat="47.38451" lon="6.62453">
        <ele>546.372</ele>
        <time>2015-10-02T11:36:42Z</time>
      </trkpt>
      <trkpt lat="47.38452" lon="6.62457">
        <ele>546.259</ele>
        <time>2015-10-02T11:36:43Z</time>
      </trkpt>
      <trkpt lat="47.38452" lon="6.62459">
        <ele>547.349</ele>
        <time>2015-10-02T11:36:44Z</time>
      </trkpt>
      <trkpt lat="47.38452" lon="6.62462">
        <ele>549.904</ele>
        <time>2015-10-02T11:36:45Z</time>
      </trkpt>
      <trkpt lat="47.38452" lon="6.62465">
        <ele>551.031</ele>
        <time>2015-10-02T11:36:46Z</time>
      </trkpt>
      <trkpt lat="47.38451" lon="6.62469">
        <ele>550.651</ele>
        <time>2015-10-02T11:36:47Z</time>
      </trkpt>
      <trkpt lat="47.3845" lon="6.62473">
        <ele>550.789</ele>
        <time>2015-10-02T11:36:48Z</time>
      </trkpt>
      <trkpt lat="47.3845" lon="6.62476">
        <ele>551.657</ele>
        <time>2015-10-02T11:36:49Z</time>
      </trkpt>
      <trkpt lat="47.3845" lon="6.62478">
        <ele>552.169</ele>
        <time>2015-10-02T11:36:50Z</time>
      </trkpt>
      <trkpt lat="47.3845" lon="6.6248">
        <ele>553.139</ele>
        <time>2015-10-02T11:36:51Z</time>
      </trkpt>
      <trkpt lat="47.3845" lon="6.62482">
        <ele>554.765</ele>
        <time>2015-10-02T11:36:53Z</time>
      </trkpt>
      <trkpt lat="47.3845" lon="6.62484">
        <ele>553.267</ele>
        <time>2015-10-02T11:36:54Z</time>
      </trkpt>
      <trkpt lat="47.38449" lon="6.62487">
        <ele>555.088</ele>
        <time>2015-10-02T11:36:55Z</time>
      </trkpt>
      <trkpt lat="47.38449" lon="6.6249">
        <ele>555.817</ele>
        <time>2015-10-02T11:36:56Z</time>
      </trkpt>
      <trkpt lat="47.38448" lon="6.62492">
        <ele>555.469</ele>
        <time>2015-10-02T11:36:57Z</time>
      </trkpt>
      <trkpt lat="47.38447" lon="6.62495">
        <ele>555.345</ele>
        <time>2015-10-02T11:36:58Z</time>
      </trkpt>
      <trkpt lat="47.38446" lon="6.62498">
        <ele>556.574</ele>
        <time>2015-10-02T11:36:59Z</time>
      </trkpt>
      <trkpt lat="47.38445" lon="6.62501">
        <ele>557.379</ele>
        <time>2015-10-02T11:37:00Z</time>
      </trkpt>
      <trkpt lat="47.38444" lon="6.62503">
        <ele>559.039</ele>
        <time>2015-10-02T11:37:01Z</time>
      </trkpt>
      <trkpt lat="47.38443" lon="6.62505">
        <ele>559.059</ele>
        <time>2015-10-02T11:37:02Z</time>
      </trkpt>
      <trkpt lat="47.38442" lon="6.62507">
        <ele>559.766</ele>
        <time>2015-10-02T11:37:03Z</time>
      </trkpt>
      <trkpt lat="47.38441" lon="6.6251">
        <ele>560.376</ele>
        <time>2015-10-02T11:37:04Z</time>
      </trkpt>
      <trkpt lat="47.38439" lon="6.62513">
        <ele>561.546</ele>
        <time>2015-10-02T11:37:05Z</time>
      </trkpt>
      <trkpt lat="47.38437" lon="6.62515">
        <ele>562.651</ele>
        <time>2015-10-02T11:37:06Z</time>
      </trkpt>
      <trkpt lat="47.38435" lon="6.62516">
        <ele>563.19</ele>
        <time>2015-10-02T11:37:07Z</time>
      </trkpt>
      <trkpt lat="47.38433" lon="6.62516">
        <ele>563.383</ele>
        <time>2015-10-02T11:37:08Z</time>
      </trkpt>
      <trkpt lat="47.38432" lon="6.62517">
        <ele>563.533</ele>
        <time>2015-10-02T11:37:09Z</time>
      </trkpt>
      <trkpt lat="47.3843" lon="6.62518">
        <ele>563.816</ele>
        <time>2015-10-02T11:37:10Z</time>
      </trkpt>
      <trkpt lat="47.38429" lon="6.62518">
        <ele>563.761</ele>
        <time>2015-10-02T11:37:11Z</time>
      </trkpt>
      <trkpt lat="47.38427" lon="6.62517">
        <ele>563.927</ele>
        <time>2015-10-02T11:37:13Z</time>
      </trkpt>
      <trkpt lat="47.38426" lon="6.62517">
        <ele>563.57</ele>
        <time>2015-10-02T11:37:14Z</time>
      </trkpt>
      <trkpt lat="47.38425" lon="6.62516">
        <ele>563.991</ele>
        <time>2015-10-02T11:37:16Z</time>
      </trkpt>
      <trkpt lat="47.38423" lon="6.62514">
        <ele>564.522</ele>
        <time>2015-10-02T11:37:17Z</time>
      </trkpt>
      <trkpt lat="47.38422" lon="6.62512">
        <ele>565.275</ele>
        <time>2015-10-02T11:37:18Z</time>
      </trkpt>
      <trkpt lat="47.38421" lon="6.6251">
        <ele>566.106</ele>
        <time>2015-10-02T11:37:19Z</time>
      </trkpt>
      <trkpt lat="47.38419" lon="6.62508">
        <ele>564.071</ele>
        <time>2015-10-02T11:37:20Z</time>
      </trkpt>
      <trkpt lat="47.38417" lon="6.62506">
        <ele>564.014</ele>
        <time>2015-10-02T11:37:21Z</time>
      </trkpt>
      <trkpt lat="47.38416" lon="6.62504">
        <ele>564.539</ele>
        <time>2015-10-02T11:37:22Z</time>
      </trkpt>
      <trkpt lat="47.38416" lon="6.62502">
        <ele>561.773</ele>
        <time>2015-10-02T11:37:24Z</time>
      </trkpt>
      <trkpt lat="47.38416" lon="6.625">
        <ele>562.067</ele>
        <time>2015-10-02T11:37:25Z</time>
      </trkpt>
      <trkpt lat="47.38416" lon="6.62498">
        <ele>562.415</ele>
        <time>2015-10-02T11:37:26Z</time>
      </trkpt>
      <trkpt lat="47.38416" lon="6.62497">
        <ele>565.657</ele>
        <time>2015-10-02T11:37:28Z</time>
      </trkpt>
      <trkpt lat="47.38416" lon="6.62495">
        <ele>566.578</ele>
        <time>2015-10-02T11:37:30Z</time>
      </trkpt>
      <trkpt lat="47.38416" lon="6.62493">
        <ele>568.094</ele>
        <time>2015-10-02T11:37:31Z</time>
      </trkpt>
      <trkpt lat="47.38416" lon="6.62491">
        <ele>568.535</ele>
        <time>2015-10-02T11:37:32Z</time>
      </trkpt>
      <trkpt lat="47.38416" lon="6.62489">
        <ele>568.664</ele>
        <time>2015-10-02T11:37:33Z</time>
      </trkpt>
      <trkpt lat="47.38416" lon="6.62485">
        <ele>568.637</ele>
        <time>2015-10-02T11:37:34Z</time>
      </trkpt>
      <trkpt lat="47.38416" lon="6.62482">
        <ele>568.52</ele>
        <time>2015-10-02T11:37:35Z</time>
      </trkpt>
      <trkpt lat="47.38417" lon="6.62479">
        <ele>568.351</ele>
        <time>2015-10-02T11:37:36Z</time>
      </trkpt>
      <trkpt lat="47.38417" lon="6.62477">
        <ele>568.483</ele>
        <time>2015-10-02T11:37:37Z</time>
      </trkpt>
      <trkpt lat="47.38418" lon="6.62475">
        <ele>571.621</ele>
        <time>2015-10-02T11:37:38Z</time>
      </trkpt>
      <trkpt lat="47.38418" lon="6.62473">
        <ele>570.5</ele>
        <time>2015-10-02T11:37:39Z</time>
      </trkpt>
      <trkpt lat="47.38419" lon="6.62472">
        <ele>572.484</ele>
        <time>2015-10-02T11:37:40Z</time>
      </trkpt>
      <trkpt lat="47.38419" lon="6.6247">
        <ele>572.554</ele>
        <time>2015-10-02T11:37:42Z</time>
      </trkpt>
      <trkpt lat="47.38419" lon="6.62468">
        <ele>571.566</ele>
        <time>2015-10-02T11:37:43Z</time>
      </trkpt>
      <trkpt lat="47.38419" lon="6.62466">
        <ele>572.127</ele>
        <time>2015-10-02T11:37:44Z</time>
      </trkpt>
      <trkpt lat="47.38418" lon="6.62464">
        <ele>573.996</ele>
        <time>2015-10-02T11:37:45Z</time>
      </trkpt>
      <trkpt lat="47.38418" lon="6.62462">
        <ele>575.228</ele>
        <time>2015-10-02T11:37:46Z</time>
      </trkpt>
      <trkpt lat="47.38419" lon="6.6246">
        <ele>577.083</ele>
        <time>2015-10-02T11:37:47Z</time>
      </trkpt>
      <trkpt lat="47.38419" lon="6.62457">
        <ele>574.604</ele>
        <time>2015-10-02T11:37:49Z</time>
      </trkpt>
      <trkpt lat="47.38419" lon="6.62455">
        <ele>574.63</ele>
        <time>2015-10-02T11:37:50Z</time>
      </trkpt>
      <trkpt lat="47.38419" lon="6.62453">
        <ele>575.703</ele>
        <time>2015-10-02T11:37:51Z</time>
      </trkpt>
      <trkpt lat="47.38419" lon="6.62451">
        <ele>576.146</ele>
        <time>2015-10-02T11:37:52Z</time>
      </trkpt>
      <trkpt lat="47.38419" lon="6.62448">
        <ele>577.246</ele>
        <time>2015-10-02T11:37:53Z</time>
      </trkpt>
      <trkpt lat="47.38419" lon="6.62446">
        <ele>576.77</ele>
        <time>2015-10-02T11:37:54Z</time>
      </trkpt>
      <trkpt lat="47.3842" lon="6.62443">
        <ele>576.506</ele>
        <time>2015-10-02T11:37:55Z</time>
      </trkpt>
      <trkpt lat="47.3842" lon="6.6244">
        <ele>577.204</ele>
        <time>2015-10-02T11:37:56Z</time>
      </trkpt>
      <trkpt lat="47.3842" lon="6.62437">
        <ele>576.635</ele>
        <time>2015-10-02T11:37:57Z</time>
      </trkpt>
      <trkpt lat="47.38421" lon="6.62434">
        <ele>577.92</ele>
        <time>2015-10-02T11:37:58Z</time>
      </trkpt>
      <trkpt lat="47.38421" lon="6.62431">
        <ele>576.955</ele>
        <time>2015-10-02T11:37:59Z</time>
      </trkpt>
      <trkpt lat="47.38421" lon="6.62428">
        <ele>577.234</ele>
        <time>2015-10-02T11:38:00Z</time>
      </trkpt>
      <trkpt lat="47.38421" lon="6.62425">
        <ele>577.808</ele>
        <time>2015-10-02T11:38:01Z</time>
      </trkpt>
      <trkpt lat="47.38422" lon="6.62421">
        <ele>578.354</ele>
        <time>2015-10-02T11:38:02Z</time>
      </trkpt>
      <trkpt lat="47.38422" lon="6.62417">
        <ele>578.819</ele>
        <time>2015-10-02T11:38:03Z</time>
      </trkpt>
      <trkpt lat="47.38422" lon="6.62414">
        <ele>578.865</ele>
        <time>2015-10-02T11:38:04Z</time>
      </trkpt>
      <trkpt lat="47.38423" lon="6.62411">
        <ele>579.461</ele>
        <time>2015-10-02T11:38:05Z</time>
      </trkpt>
      <trkpt lat="47.38423" lon="6.62407">
        <ele>580.134</ele>
        <time>2015-10-02T11:38:06Z</time>
      </trkpt>
      <trkpt lat="47.38424" lon="6.62404">
        <ele>580.975</ele>
        <time>2015-10-02T11:38:07Z</time>
      </trkpt>
      <trkpt lat="47.38424" lon="6.62401">
        <ele>581.34</ele>
        <time>2015-10-02T11:38:08Z</time>
      </trkpt>
      <trkpt lat="47.38425" lon="6.62398">
        <ele>581.562</ele>
        <time>2015-10-02T11:38:09Z</time>
      </trkpt>
      <trkpt lat="47.38425" lon="6.62396">
        <ele>581.428</ele>
        <time>2015-10-02T11:38:10Z</time>
      </trkpt>
      <trkpt lat="47.38425" lon="6.62393">
        <ele>581.546</ele>
        <time>2015-10-02T11:38:11Z</time>
      </trkpt>
      <trkpt lat="47.38426" lon="6.6239">
        <ele>582.168</ele>
        <time>2015-10-02T11:38:12Z</time>
      </trkpt>
      <trkpt lat="47.38427" lon="6.62387">
        <ele>583.024</ele>
        <time>2015-10-02T11:38:13Z</time>
      </trkpt>
      <trkpt lat="47.38427" lon="6.62385">
        <ele>582.995</ele>
        <time>2015-10-02T11:38:14Z</time>
      </trkpt>
      <trkpt lat="47.38428" lon="6.62383">
        <ele>586.857</ele>
        <time>2015-10-02T11:38:15Z</time>
      </trkpt>
      <trkpt lat="47.38428" lon="6.6238">
        <ele>583.773</ele>
        <time>2015-10-02T11:38:16Z</time>
      </trkpt>
      <trkpt lat="47.38429" lon="6.62377">
        <ele>584.406</ele>
        <time>2015-10-02T11:38:17Z</time>
      </trkpt>
      <trkpt lat="47.38429" lon="6.62373">
        <ele>582.344</ele>
        <time>2015-10-02T11:38:18Z</time>
      </trkpt>
      <trkpt lat="47.38429" lon="6.62369">
        <ele>582.962</ele>
        <time>2015-10-02T11:38:19Z</time>
      </trkpt>
      <trkpt lat="47.38429" lon="6.62366">
        <ele>582.471</ele>
        <time>2015-10-02T11:38:20Z</time>
      </trkpt>
      <trkpt lat="47.38429" lon="6.62363">
        <ele>582.392</ele>
        <time>2015-10-02T11:38:21Z</time>
      </trkpt>
      <trkpt lat="47.3843" lon="6.62359">
        <ele>580.956</ele>
        <time>2015-10-02T11:38:22Z</time>
      </trkpt>
      <trkpt lat="47.3843" lon="6.62355">
        <ele>581.267</ele>
        <time>2015-10-02T11:38:23Z</time>
      </trkpt>
      <trkpt lat="47.3843" lon="6.62352">
        <ele>581.839</ele>
        <time>2015-10-02T11:38:24Z</time>
      </trkpt>
      <trkpt lat="47.3843" lon="6.62349">
        <ele>582.335</ele>
        <time>2015-10-02T11:38:25Z</time>
      </trkpt>
      <trkpt lat="47.3843" lon="6.62346">
        <ele>582.993</ele>
        <time>2015-10-02T11:38:26Z</time>
      </trkpt>
      <trkpt lat="47.38431" lon="6.62343">
        <ele>582.551</ele>
        <time>2015-10-02T11:38:27Z</time>
      </trkpt>
      <trkpt lat="47.38432" lon="6.62339">
        <ele>582.563</ele>
        <time>2015-10-02T11:38:28Z</time>
      </trkpt>
      <trkpt lat="47.38432" lon="6.62336">
        <ele>583.072</ele>
        <time>2015-10-02T11:38:29Z</time>
      </trkpt>
      <trkpt lat="47.38432" lon="6.62333">
        <ele>583.247</ele>
        <time>2015-10-02T11:38:30Z</time>
      </trkpt>
      <trkpt lat="47.38432" lon="6.62329">
        <ele>581.088</ele>
        <time>2015-10-02T11:38:31Z</time>
      </trkpt>
      <trkpt lat="47.38432" lon="6.62326">
        <ele>581.63</ele>
        <time>2015-10-02T11:38:32Z</time>
      </trkpt>
      <trkpt lat="47.38433" lon="6.62323">
        <ele>581.365</ele>
        <time>2015-10-02T11:38:33Z</time>
      </trkpt>
      <trkpt lat="47.38433" lon="6.6232">
        <ele>579.372</ele>
        <time>2015-10-02T11:38:34Z</time>
      </trkpt>
      <trkpt lat="47.38434" lon="6.62317">
        <ele>578.467</ele>
        <time>2015-10-02T11:38:35Z</time>
      </trkpt>
      <trkpt lat="47.38434" lon="6.62314">
        <ele>578.877</ele>
        <time>2015-10-02T11:38:36Z</time>
      </trkpt>
      <trkpt lat="47.38434" lon="6.62311">
        <ele>577.53</ele>
        <time>2015-10-02T11:38:37Z</time>
      </trkpt>
      <trkpt lat="47.38434" lon="6.62307">
        <ele>576.489</ele>
        <time>2015-10-02T11:38:38Z</time>
      </trkpt>
      <trkpt lat="47.38434" lon="6.62302">
        <ele>575.664</ele>
        <time>2015-10-02T11:38:39Z</time>
      </trkpt>
      <trkpt lat="47.38435" lon="6.62298">
        <ele>572.529</ele>
        <time>2015-10-02T11:38:40Z</time>
      </trkpt>
      <trkpt lat="47.38436" lon="6.62295">
        <ele>571.535</ele>
        <time>2015-10-02T11:38:41Z</time>
      </trkpt>
      <trkpt lat="47.38436" lon="6.62291">
        <ele>571.615</ele>
        <time>2015-10-02T11:38:42Z</time>
      </trkpt>
      <trkpt lat="47.38436" lon="6.62288">
        <ele>572.443</ele>
        <time>2015-10-02T11:38:43Z</time>
      </trkpt>
      <trkpt lat="47.38436" lon="6.62284">
        <ele>572.02</ele>
        <time>2015-10-02T11:38:44Z</time>
      </trkpt>
      <trkpt lat="47.38436" lon="6.6228">
        <ele>572.387</ele>
        <time>2015-10-02T11:38:45Z</time>
      </trkpt>
      <trkpt lat="47.38436" lon="6.62276">
        <ele>567.879</ele>
        <time>2015-10-02T11:38:46Z</time>
      </trkpt>
      <trkpt lat="47.38436" lon="6.62272">
        <ele>563.614</ele>
        <time>2015-10-02T11:38:47Z</time>
      </trkpt>
      <trkpt lat="47.38437" lon="6.62268">
        <ele>565.053</ele>
        <time>2015-10-02T11:38:48Z</time>
      </trkpt>
      <trkpt lat="47.38437" lon="6.62264">
        <ele>566.437</ele>
        <time>2015-10-02T11:38:49Z</time>
      </trkpt>
      <trkpt lat="47.38437" lon="6.6226">
        <ele>566.717</ele>
        <time>2015-10-02T11:38:50Z</time>
      </trkpt>
      <trkpt lat="47.38436" lon="6.62256">
        <ele>567.147</ele>
        <time>2015-10-02T11:38:51Z</time>
      </trkpt>
      <trkpt lat="47.38436" lon="6.62252">
        <ele>568.243</ele>
        <time>2015-10-02T11:38:52Z</time>
      </trkpt>
      <trkpt lat="47.38434" lon="6.62249">
        <ele>568.065</ele>
        <time>2015-10-02T11:38:53Z</time>
      </trkpt>
      <trkpt lat="47.38433" lon="6.62246">
        <ele>568.356</ele>
        <time>2015-10-02T11:38:54Z</time>
      </trkpt>
      <trkpt lat="47.38431" lon="6.62243">
        <ele>568.783</ele>
        <time>2015-10-02T11:38:55Z</time>
      </trkpt>
      <trkpt lat="47.38429" lon="6.6224">
        <ele>568.536</ele>
        <time>2015-10-02T11:38:56Z</time>
      </trkpt>
      <trkpt lat="47.38428" lon="6.62237">
        <ele>568.306</ele>
        <time>2015-10-02T11:38:57Z</time>
      </trkpt>
      <trkpt lat="47.38427" lon="6.62235">
        <ele>568.349</ele>
        <time>2015-10-02T11:38:58Z</time>
      </trkpt>
      <trkpt lat="47.38426" lon="6.62232">
        <ele>566.905</ele>
        <time>2015-10-02T11:38:59Z</time>
      </trkpt>
      <trkpt lat="47.38425" lon="6.62229">
        <ele>565.71</ele>
        <time>2015-10-02T11:39:00Z</time>
      </trkpt>
      <trkpt lat="47.38424" lon="6.62226">
        <ele>565.172</ele>
        <time>2015-10-02T11:39:01Z</time>
      </trkpt>
      <trkpt lat="47.38422" lon="6.62222">
        <ele>563.879</ele>
        <time>2015-10-02T11:39:02Z</time>
      </trkpt>
      <trkpt lat="47.3842" lon="6.62219">
        <ele>562.666</ele>
        <time>2015-10-02T11:39:03Z</time>
      </trkpt>
      <trkpt lat="47.38419" lon="6.62216">
        <ele>562.794</ele>
        <time>2015-10-02T11:39:04Z</time>
      </trkpt>
      <trkpt lat="47.38418" lon="6.62213">
        <ele>563.728</ele>
        <time>2015-10-02T11:39:05Z</time>
      </trkpt>
      <trkpt lat="47.38416" lon="6.62211">
        <ele>563.016</ele>
        <time>2015-10-02T11:39:06Z</time>
      </trkpt>
      <trkpt lat="47.38415" lon="6.62208">
        <ele>562.365</ele>
        <time>2015-10-02T11:39:07Z</time>
      </trkpt>
      <trkpt lat="47.38414" lon="6.62206">
        <ele>562.634</ele>
        <time>2015-10-02T11:39:08Z</time>
      </trkpt>
      <trkpt lat="47.38412" lon="6.62204">
        <ele>561.944</ele>
        <time>2015-10-02T11:39:09Z</time>
      </trkpt>
      <trkpt lat="47.3841" lon="6.62202">
        <ele>561.366</ele>
        <time>2015-10-02T11:39:10Z</time>
      </trkpt>
      <trkpt lat="47.38407" lon="6.622">
        <ele>561.589</ele>
        <time>2015-10-02T11:39:11Z</time>
      </trkpt>
      <trkpt lat="47.38405" lon="6.62197">
        <ele>563.54</ele>
        <time>2015-10-02T11:39:12Z</time>
      </trkpt>
      <trkpt lat="47.38403" lon="6.62195">
        <ele>564.027</ele>
        <time>2015-10-02T11:39:13Z</time>
      </trkpt>
      <trkpt lat="47.38401" lon="6.62193">
        <ele>566.021</ele>
        <time>2015-10-02T11:39:14Z</time>
      </trkpt>
      <trkpt lat="47.384" lon="6.62191">
        <ele>566.583</ele>
        <time>2015-10-02T11:39:15Z</time>
      </trkpt>
      <trkpt lat="47.38396" lon="6.62189">
        <ele>564.28</ele>
        <time>2015-10-02T11:39:16Z</time>
      </trkpt>
      <trkpt lat="47.38393" lon="6.62187">
        <ele>564.287</ele>
        <time>2015-10-02T11:39:17Z</time>
      </trkpt>
      <trkpt lat="47.38391" lon="6.62185">
        <ele>565.151</ele>
        <time>2015-10-02T11:39:18Z</time>
      </trkpt>
      <trkpt lat="47.38388" lon="6.62183">
        <ele>565.818</ele>
        <time>2015-10-02T11:39:19Z</time>
      </trkpt>
      <trkpt lat="47.38386" lon="6.62181">
        <ele>566.075</ele>
        <time>2015-10-02T11:39:20Z</time>
      </trkpt>
      <trkpt lat="47.38385" lon="6.62179">
        <ele>567.679</ele>
        <time>2015-10-02T11:39:21Z</time>
      </trkpt>
      <trkpt lat="47.38383" lon="6.62177">
        <ele>568.855</ele>
        <time>2015-10-02T11:39:22Z</time>
      </trkpt>
      <trkpt lat="47.38382" lon="6.62175">
        <ele>568.746</ele>
        <time>2015-10-02T11:39:23Z</time>
      </trkpt>
      <trkpt lat="47.38381" lon="6.62172">
        <ele>569.167</ele>
        <time>2015-10-02T11:39:24Z</time>
      </trkpt>
      <trkpt lat="47.38379" lon="6.62171">
        <ele>569.308</ele>
        <time>2015-10-02T11:39:25Z</time>
      </trkpt>
      <trkpt lat="47.38378" lon="6.62169">
        <ele>570.444</ele>
        <time>2015-10-02T11:39:26Z</time>
      </trkpt>
      <trkpt lat="47.38377" lon="6.62167">
        <ele>570.77</ele>
        <time>2015-10-02T11:39:27Z</time>
      </trkpt>
      <trkpt lat="47.38376" lon="6.62166">
        <ele>570.678</ele>
        <time>2015-10-02T11:39:28Z</time>
      </trkpt>
      <trkpt lat="47.38375" lon="6.62164">
        <ele>570.954</ele>
        <time>2015-10-02T11:39:29Z</time>
      </trkpt>
      <trkpt lat="47.38374" lon="6.62162">
        <ele>569.398</ele>
        <time>2015-10-02T11:39:30Z</time>
      </trkpt>
      <trkpt lat="47.38373" lon="6.62159">
        <ele>571.052</ele>
        <time>2015-10-02T11:39:31Z</time>
      </trkpt>
      <trkpt lat="47.38372" lon="6.62157">
        <ele>571.1</ele>
        <time>2015-10-02T11:39:32Z</time>
      </trkpt>
      <trkpt lat="47.38371" lon="6.62155">
        <ele>571.477</ele>
        <time>2015-10-02T11:39:33Z</time>
      </trkpt>
      <trkpt lat="47.3837" lon="6.62153">
        <ele>570.524</ele>
        <time>2015-10-02T11:39:34Z</time>
      </trkpt>
      <trkpt lat="47.38369" lon="6.62151">
        <ele>570.309</ele>
        <time>2015-10-02T11:39:35Z</time>
      </trkpt>
      <trkpt lat="47.38367" lon="6.62149">
        <ele>570.258</ele>
        <time>2015-10-02T11:39:36Z</time>
      </trkpt>
      <trkpt lat="47.38366" lon="6.62148">
        <ele>569.778</ele>
        <time>2015-10-02T11:39:37Z</time>
      </trkpt>
      <trkpt lat="47.38364" lon="6.62146">
        <ele>568.779</ele>
        <time>2015-10-02T11:39:38Z</time>
      </trkpt>
      <trkpt lat="47.38362" lon="6.62144">
        <ele>567.996</ele>
        <time>2015-10-02T11:39:39Z</time>
      </trkpt>
      <trkpt lat="47.38361" lon="6.62142">
        <ele>568.14</ele>
        <time>2015-10-02T11:39:40Z</time>
      </trkpt>
      <trkpt lat="47.38359" lon="6.6214">
        <ele>568.025</ele>
        <time>2015-10-02T11:39:41Z</time>
      </trkpt>
      <trkpt lat="47.38357" lon="6.62137">
        <ele>568.985</ele>
        <time>2015-10-02T11:39:42Z</time>
      </trkpt>
      <trkpt lat="47.38355" lon="6.62134">
        <ele>569.272</ele>
        <time>2015-10-02T11:39:43Z</time>
      </trkpt>
      <trkpt lat="47.38352" lon="6.62132">
        <ele>568.027</ele>
        <time>2015-10-02T11:39:44Z</time>
      </trkpt>
      <trkpt lat="47.38349" lon="6.6213">
        <ele>567.586</ele>
        <time>2015-10-02T11:39:45Z</time>
      </trkpt>
      <trkpt lat="47.38346" lon="6.62128">
        <ele>565.463</ele>
        <time>2015-10-02T11:39:46Z</time>
      </trkpt>
      <trkpt lat="47.38344" lon="6.62126">
        <ele>565.316</ele>
        <time>2015-10-02T11:39:47Z</time>
      </trkpt>
      <trkpt lat="47.38342" lon="6.62125">
        <ele>565.562</ele>
        <time>2015-10-02T11:39:48Z</time>
      </trkpt>
      <trkpt lat="47.3834" lon="6.62123">
        <ele>565.665</ele>
        <time>2015-10-02T11:39:49Z</time>
      </trkpt>
      <trkpt lat="47.38339" lon="6.6212">
        <ele>564.985</ele>
        <time>2015-10-02T11:39:50Z</time>
      </trkpt>
      <trkpt lat="47.38338" lon="6.62118">
        <ele>565.213</ele>
        <time>2015-10-02T11:39:51Z</time>
      </trkpt>
      <trkpt lat="47.38337" lon="6.62116">
        <ele>566.502</ele>
        <time>2015-10-02T11:39:52Z</time>
      </trkpt>
      <trkpt lat="47.38336" lon="6.62114">
        <ele>566.264</ele>
        <time>2015-10-02T11:39:53Z</time>
      </trkpt>
      <trkpt lat="47.38335" lon="6.62113">
        <ele>565.416</ele>
        <time>2015-10-02T11:39:54Z</time>
      </trkpt>
      <trkpt lat="47.38333" lon="6.62111">
        <ele>567.019</ele>
        <time>2015-10-02T11:39:56Z</time>
      </trkpt>
      <trkpt lat="47.38333" lon="6.6211">
        <ele>567.76</ele>
        <time>2015-10-02T11:39:57Z</time>
      </trkpt>
      <trkpt lat="47.38331" lon="6.62108">
        <ele>568.734</ele>
        <time>2015-10-02T11:39:58Z</time>
      </trkpt>
      <trkpt lat="47.38329" lon="6.62105">
        <ele>569.289</ele>
        <time>2015-10-02T11:39:59Z</time>
      </trkpt>
      <trkpt lat="47.38327" lon="6.62102">
        <ele>570.066</ele>
        <time>2015-10-02T11:40:00Z</time>
      </trkpt>
      <trkpt lat="47.38325" lon="6.62099">
        <ele>568.575</ele>
        <time>2015-10-02T11:40:01Z</time>
      </trkpt>
      <trkpt lat="47.38323" lon="6.62096">
        <ele>568.338</ele>
        <time>2015-10-02T11:40:02Z</time>
      </trkpt>
      <trkpt lat="47.38322" lon="6.62094">
        <ele>568.4</ele>
        <time>2015-10-02T11:40:03Z</time>
      </trkpt>
      <trkpt lat="47.38321" lon="6.62092">
        <ele>567.34</ele>
        <time>2015-10-02T11:40:04Z</time>
      </trkpt>
      <trkpt lat="47.38318" lon="6.62089">
        <ele>566.733</ele>
        <time>2015-10-02T11:40:05Z</time>
      </trkpt>
      <trkpt lat="47.38316" lon="6.62087">
        <ele>566.926</ele>
        <time>2015-10-02T11:40:06Z</time>
      </trkpt>
      <trkpt lat="47.38314" lon="6.62085">
        <ele>567.117</ele>
        <time>2015-10-02T11:40:07Z</time>
      </trkpt>
      <trkpt lat="47.38311" lon="6.62082">
        <ele>566.462</ele>
        <time>2015-10-02T11:40:08Z</time>
      </trkpt>
      <trkpt lat="47.38308" lon="6.62079">
        <ele>566.91</ele>
        <time>2015-10-02T11:40:09Z</time>
      </trkpt>
      <trkpt lat="47.38306" lon="6.62076">
        <ele>568.408</ele>
        <time>2015-10-02T11:40:10Z</time>
      </trkpt>
      <trkpt lat="47.38303" lon="6.62074">
        <ele>566.414</ele>
        <time>2015-10-02T11:40:11Z</time>
      </trkpt>
      <trkpt lat="47.38301" lon="6.62072">
        <ele>567.3</ele>
        <time>2015-10-02T11:40:12Z</time>
      </trkpt>
      <trkpt lat="47.38299" lon="6.6207">
        <ele>568.039</ele>
        <time>2015-10-02T11:40:13Z</time>
      </trkpt>
      <trkpt lat="47.38297" lon="6.62068">
        <ele>568.278</ele>
        <time>2015-10-02T11:40:14Z</time>
      </trkpt>
      <trkpt lat="47.38295" lon="6.62066">
        <ele>567.697</ele>
        <time>2015-10-02T11:40:15Z</time>
      </trkpt>
      <trkpt lat="47.38294" lon="6.62064">
        <ele>569.656</ele>
        <time>2015-10-02T11:40:16Z</time>
      </trkpt>
      <trkpt lat="47.38293" lon="6.62061">
        <ele>570.861</ele>
        <time>2015-10-02T11:40:17Z</time>
      </trkpt>
      <trkpt lat="47.38291" lon="6.62059">
        <ele>570.987</ele>
        <time>2015-10-02T11:40:18Z</time>
      </trkpt>
      <trkpt lat="47.3829" lon="6.62058">
        <ele>572.738</ele>
        <time>2015-10-02T11:40:19Z</time>
      </trkpt>
      <trkpt lat="47.38288" lon="6.62056">
        <ele>572.975</ele>
        <time>2015-10-02T11:40:20Z</time>
      </trkpt>
      <trkpt lat="47.38287" lon="6.62055">
        <ele>573.436</ele>
        <time>2015-10-02T11:40:21Z</time>
      </trkpt>
      <trkpt lat="47.38286" lon="6.62054">
        <ele>574.953</ele>
        <time>2015-10-02T11:40:22Z</time>
      </trkpt>
      <trkpt lat="47.38284" lon="6.62052">
        <ele>574.843</ele>
        <time>2015-10-02T11:40:23Z</time>
      </trkpt>
      <trkpt lat="47.38282" lon="6.62049">
        <ele>574.442</ele>
        <time>2015-10-02T11:40:24Z</time>
      </trkpt>
      <trkpt lat="47.38281" lon="6.62046">
        <ele>574.446</ele>
        <time>2015-10-02T11:40:25Z</time>
      </trkpt>
      <trkpt lat="47.38279" lon="6.62044">
        <ele>575.679</ele>
        <time>2015-10-02T11:40:26Z</time>
      </trkpt>
      <trkpt lat="47.38278" lon="6.62042">
        <ele>573.241</ele>
        <time>2015-10-02T11:40:27Z</time>
      </trkpt>
      <trkpt lat="47.38277" lon="6.6204">
        <ele>574.375</ele>
        <time>2015-10-02T11:40:28Z</time>
      </trkpt>
      <trkpt lat="47.38275" lon="6.62038">
        <ele>574.187</ele>
        <time>2015-10-02T11:40:29Z</time>
      </trkpt>
      <trkpt lat="47.38273" lon="6.62037">
        <ele>574.356</ele>
        <time>2015-10-02T11:40:30Z</time>
      </trkpt>
      <trkpt lat="47.38271" lon="6.62036">
        <ele>574.507</ele>
        <time>2015-10-02T11:40:31Z</time>
      </trkpt>
      <trkpt lat="47.3827" lon="6.62034">
        <ele>575.077</ele>
        <time>2015-10-02T11:40:32Z</time>
      </trkpt>
      <trkpt lat="47.38269" lon="6.62033">
        <ele>575.581</ele>
        <time>2015-10-02T11:40:33Z</time>
      </trkpt>
      <trkpt lat="47.38268" lon="6.62031">
        <ele>573.838</ele>
        <time>2015-10-02T11:40:34Z</time>
      </trkpt>
      <trkpt lat="47.38266" lon="6.62029">
        <ele>574.728</ele>
        <time>2015-10-02T11:40:35Z</time>
      </trkpt>
      <trkpt lat="47.38265" lon="6.62027">
        <ele>574.341</ele>
        <time>2015-10-02T11:40:36Z</time>
      </trkpt>
      <trkpt lat="47.38264" lon="6.62025">
        <ele>573.784</ele>
        <time>2015-10-02T11:40:37Z</time>
      </trkpt>
      <trkpt lat="47.38263" lon="6.62023">
        <ele>573.111</ele>
        <time>2015-10-02T11:40:38Z</time>
      </trkpt>
      <trkpt lat="47.38262" lon="6.62021">
        <ele>574.357</ele>
        <time>2015-10-02T11:40:39Z</time>
      </trkpt>
      <trkpt lat="47.38261" lon="6.62019">
        <ele>574.67</ele>
        <time>2015-10-02T11:40:40Z</time>
      </trkpt>
      <trkpt lat="47.3826" lon="6.62018">
        <ele>577.166</ele>
        <time>2015-10-02T11:40:41Z</time>
      </trkpt>
      <trkpt lat="47.38259" lon="6.62016">
        <ele>577.814</ele>
        <time>2015-10-02T11:40:42Z</time>
      </trkpt>
      <trkpt lat="47.38258" lon="6.62015">
        <ele>576.759</ele>
        <time>2015-10-02T11:40:43Z</time>
      </trkpt>
      <trkpt lat="47.38257" lon="6.62013">
        <ele>576.78</ele>
        <time>2015-10-02T11:40:44Z</time>
      </trkpt>
      <trkpt lat="47.38255" lon="6.62012">
        <ele>577.491</ele>
        <time>2015-10-02T11:40:45Z</time>
      </trkpt>
      <trkpt lat="47.38253" lon="6.62011">
        <ele>577.849</ele>
        <time>2015-10-02T11:40:46Z</time>
      </trkpt>
      <trkpt lat="47.38251" lon="6.6201">
        <ele>577.742</ele>
        <time>2015-10-02T11:40:47Z</time>
      </trkpt>
      <trkpt lat="47.38249" lon="6.62009">
        <ele>577.595</ele>
        <time>2015-10-02T11:40:48Z</time>
      </trkpt>
      <trkpt lat="47.38246" lon="6.62008">
        <ele>575.079</ele>
        <time>2015-10-02T11:40:49Z</time>
      </trkpt>
      <trkpt lat="47.38244" lon="6.62007">
        <ele>575.479</ele>
        <time>2015-10-02T11:40:50Z</time>
      </trkpt>
      <trkpt lat="47.38241" lon="6.62006">
        <ele>575.018</ele>
        <time>2015-10-02T11:40:51Z</time>
      </trkpt>
      <trkpt lat="47.38238" lon="6.62005">
        <ele>575.218</ele>
        <time>2015-10-02T11:40:52Z</time>
      </trkpt>
      <trkpt lat="47.38235" lon="6.62004">
        <ele>576.47</ele>
        <time>2015-10-02T11:40:53Z</time>
      </trkpt>
      <trkpt lat="47.38233" lon="6.62004">
        <ele>576.51</ele>
        <time>2015-10-02T11:40:54Z</time>
      </trkpt>
      <trkpt lat="47.38229" lon="6.62003">
        <ele>577.486</ele>
        <time>2015-10-02T11:40:55Z</time>
      </trkpt>
      <trkpt lat="47.38226" lon="6.62003">
        <ele>578.586</ele>
        <time>2015-10-02T11:40:56Z</time>
      </trkpt>
      <trkpt lat="47.38223" lon="6.62003">
        <ele>579.908</ele>
        <time>2015-10-02T11:40:57Z</time>
      </trkpt>
      <trkpt lat="47.38221" lon="6.62003">
        <ele>581.872</ele>
        <time>2015-10-02T11:40:58Z</time>
      </trkpt>
      <trkpt lat="47.38218" lon="6.62002">
        <ele>582.686</ele>
        <time>2015-10-02T11:40:59Z</time>
      </trkpt>
      <trkpt lat="47.38216" lon="6.62001">
        <ele>586.437</ele>
        <time>2015-10-02T11:41:00Z</time>
      </trkpt>
      <trkpt lat="47.38214" lon="6.61999">
        <ele>589.434</ele>
        <time>2015-10-02T11:41:01Z</time>
      </trkpt>
      <trkpt lat="47.38212" lon="6.61996">
        <ele>588.725</ele>
        <time>2015-10-02T11:41:02Z</time>
      </trkpt>
      <trkpt lat="47.3821" lon="6.61993">
        <ele>588.365</ele>
        <time>2015-10-02T11:41:03Z</time>
      </trkpt>
      <trkpt lat="47.38207" lon="6.61992">
        <ele>588.834</ele>
        <time>2015-10-02T11:41:04Z</time>
      </trkpt>
      <trkpt lat="47.38205" lon="6.61991">
        <ele>589.962</ele>
        <time>2015-10-02T11:41:05Z</time>
      </trkpt>
      <trkpt lat="47.38203" lon="6.6199">
        <ele>590.207</ele>
        <time>2015-10-02T11:41:06Z</time>
      </trkpt>
      <trkpt lat="47.38202" lon="6.61989">
        <ele>594.232</ele>
        <time>2015-10-02T11:41:07Z</time>
      </trkpt>
      <trkpt lat="47.38201" lon="6.61989">
        <ele>593.658</ele>
        <time>2015-10-02T11:41:08Z</time>
      </trkpt>
      <trkpt lat="47.38199" lon="6.61987">
        <ele>594.369</ele>
        <time>2015-10-02T11:41:09Z</time>
      </trkpt>
      <trkpt lat="47.38198" lon="6.61987">
        <ele>595.777</ele>
        <time>2015-10-02T11:41:10Z</time>
      </trkpt>
      <trkpt lat="47.38196" lon="6.61986">
        <ele>594.894</ele>
        <time>2015-10-02T11:41:11Z</time>
      </trkpt>
      <trkpt lat="47.38194" lon="6.61985">
        <ele>593.382</ele>
        <time>2015-10-02T11:41:12Z</time>
      </trkpt>
      <trkpt lat="47.38192" lon="6.61983">
        <ele>592.572</ele>
        <time>2015-10-02T11:41:13Z</time>
      </trkpt>
      <trkpt lat="47.3819" lon="6.61982">
        <ele>592.292</ele>
        <time>2015-10-02T11:41:14Z</time>
      </trkpt>
      <trkpt lat="47.38187" lon="6.61981">
        <ele>591.061</ele>
        <time>2015-10-02T11:41:15Z</time>
      </trkpt>
      <trkpt lat="47.38185" lon="6.6198">
        <ele>591.328</ele>
        <time>2015-10-02T11:41:16Z</time>
      </trkpt>
      <trkpt lat="47.38183" lon="6.61979">
        <ele>592.358</ele>
        <time>2015-10-02T11:41:17Z</time>
      </trkpt>
      <trkpt lat="47.3818" lon="6.61979">
        <ele>590.607</ele>
        <time>2015-10-02T11:41:18Z</time>
      </trkpt>
      <trkpt lat="47.38177" lon="6.61978">
        <ele>591.181</ele>
        <time>2015-10-02T11:41:19Z</time>
      </trkpt>
      <trkpt lat="47.38175" lon="6.61978">
        <ele>591.774</ele>
        <time>2015-10-02T11:41:20Z</time>
      </trkpt>
      <trkpt lat="47.38173" lon="6.61977">
        <ele>592.028</ele>
        <time>2015-10-02T11:41:21Z</time>
      </trkpt>
      <trkpt lat="47.38171" lon="6.61976">
        <ele>592.562</ele>
        <time>2015-10-02T11:41:22Z</time>
      </trkpt>
      <trkpt lat="47.38169" lon="6.61975">
        <ele>593.184</ele>
        <time>2015-10-02T11:41:23Z</time>
      </trkpt>
      <trkpt lat="47.38166" lon="6.61974">
        <ele>590.586</ele>
        <time>2015-10-02T11:41:24Z</time>
      </trkpt>
      <trkpt lat="47.38165" lon="6.61973">
        <ele>589.342</ele>
        <time>2015-10-02T11:41:25Z</time>
      </trkpt>
      <trkpt lat="47.38164" lon="6.61973">
        <ele>590.599</ele>
        <time>2015-10-02T11:41:26Z</time>
      </trkpt>
      <trkpt lat="47.38163" lon="6.61973">
        <ele>591.291</ele>
        <time>2015-10-02T11:41:27Z</time>
      </trkpt>
      <trkpt lat="47.38161" lon="6.61972">
        <ele>591.409</ele>
        <time>2015-10-02T11:41:28Z</time>
      </trkpt>
      <trkpt lat="47.38159" lon="6.61972">
        <ele>592.182</ele>
        <time>2015-10-02T11:41:29Z</time>
      </trkpt>
      <trkpt lat="47.38158" lon="6.61971">
        <ele>592.408</ele>
        <time>2015-10-02T11:41:30Z</time>
      </trkpt>
      <trkpt lat="47.38156" lon="6.6197">
        <ele>590.899</ele>
        <time>2015-10-02T11:41:31Z</time>
      </trkpt>
      <trkpt lat="47.38153" lon="6.6197">
        <ele>589.176</ele>
        <time>2015-10-02T11:41:32Z</time>
      </trkpt>
      <trkpt lat="47.3815" lon="6.61969">
        <ele>588.844</ele>
        <time>2015-10-02T11:41:33Z</time>
      </trkpt>
      <trkpt lat="47.38147" lon="6.61968">
        <ele>588.195</ele>
        <time>2015-10-02T11:41:34Z</time>
      </trkpt>
      <trkpt lat="47.38145" lon="6.61967">
        <ele>587.669</ele>
        <time>2015-10-02T11:41:35Z</time>
      </trkpt>
      <trkpt lat="47.38142" lon="6.61966">
        <ele>587.272</ele>
        <time>2015-10-02T11:41:36Z</time>
      </trkpt>
      <trkpt lat="47.3814" lon="6.61965">
        <ele>587.753</ele>
        <time>2015-10-02T11:41:37Z</time>
      </trkpt>
      <trkpt lat="47.38138" lon="6.61963">
        <ele>588.706</ele>
        <time>2015-10-02T11:41:38Z</time>
      </trkpt>
      <trkpt lat="47.38137" lon="6.61962">
        <ele>590.669</ele>
        <time>2015-10-02T11:41:39Z</time>
      </trkpt>
      <trkpt lat="47.38134" lon="6.61961">
        <ele>589.371</ele>
        <time>2015-10-02T11:41:40Z</time>
      </trkpt>
      <trkpt lat="47.38132" lon="6.6196">
        <ele>589.405</ele>
        <time>2015-10-02T11:41:41Z</time>
      </trkpt>
      <trkpt lat="47.38131" lon="6.61959">
        <ele>589.194</ele>
        <time>2015-10-02T11:41:42Z</time>
      </trkpt>
      <trkpt lat="47.3813" lon="6.61958">
        <ele>589.522</ele>
        <time>2015-10-02T11:41:43Z</time>
      </trkpt>
      <trkpt lat="47.38128" lon="6.61958">
        <ele>583.926</ele>
        <time>2015-10-02T11:41:44Z</time>
      </trkpt>
      <trkpt lat="47.38126" lon="6.61959">
        <ele>585.212</ele>
        <time>2015-10-02T11:41:45Z</time>
      </trkpt>
      <trkpt lat="47.38125" lon="6.6196">
        <ele>586.418</ele>
        <time>2015-10-02T11:41:46Z</time>
      </trkpt>
      <trkpt lat="47.38123" lon="6.6196">
        <ele>587.26</ele>
        <time>2015-10-02T11:41:48Z</time>
      </trkpt>
      <trkpt lat="47.38121" lon="6.6196">
        <ele>586.379</ele>
        <time>2015-10-02T11:41:49Z</time>
      </trkpt>
      <trkpt lat="47.38119" lon="6.6196">
        <ele>586.659</ele>
        <time>2015-10-02T11:41:50Z</time>
      </trkpt>
      <trkpt lat="47.38117" lon="6.61959">
        <ele>588.069</ele>
        <time>2015-10-02T11:41:51Z</time>
      </trkpt>
      <trkpt lat="47.38115" lon="6.61959">
        <ele>587.313</ele>
        <time>2015-10-02T11:41:52Z</time>
      </trkpt>
      <trkpt lat="47.38113" lon="6.61958">
        <ele>586.067</ele>
        <time>2015-10-02T11:41:53Z</time>
      </trkpt>
      <trkpt lat="47.38111" lon="6.61957">
        <ele>585.383</ele>
        <time>2015-10-02T11:41:54Z</time>
      </trkpt>
      <trkpt lat="47.38109" lon="6.61956">
        <ele>584.13</ele>
        <time>2015-10-02T11:41:55Z</time>
      </trkpt>
      <trkpt lat="47.38106" lon="6.61955">
        <ele>585.608</ele>
        <time>2015-10-02T11:41:56Z</time>
      </trkpt>
      <trkpt lat="47.38103" lon="6.61954">
        <ele>585.985</ele>
        <time>2015-10-02T11:41:57Z</time>
      </trkpt>
      <trkpt lat="47.38101" lon="6.61952">
        <ele>585.833</ele>
        <time>2015-10-02T11:41:58Z</time>
      </trkpt>
      <trkpt lat="47.38097" lon="6.61951">
        <ele>585.429</ele>
        <time>2015-10-02T11:41:59Z</time>
      </trkpt>
      <trkpt lat="47.38094" lon="6.6195">
        <ele>585.31</ele>
        <time>2015-10-02T11:42:00Z</time>
      </trkpt>
      <trkpt lat="47.3809" lon="6.61948">
        <ele>585.124</ele>
        <time>2015-10-02T11:42:01Z</time>
      </trkpt>
      <trkpt lat="47.38086" lon="6.61946">
        <ele>585.847</ele>
        <time>2015-10-02T11:42:02Z</time>
      </trkpt>
      <trkpt lat="47.38083" lon="6.61945">
        <ele>587.579</ele>
        <time>2015-10-02T11:42:03Z</time>
      </trkpt>
      <trkpt lat="47.38079" lon="6.61943">
        <ele>587.262</ele>
        <time>2015-10-02T11:42:04Z</time>
      </trkpt>
      <trkpt lat="47.38076" lon="6.61942">
        <ele>587.023</ele>
        <time>2015-10-02T11:42:05Z</time>
      </trkpt>
      <trkpt lat="47.38073" lon="6.6194">
        <ele>588.164</ele>
        <time>2015-10-02T11:42:06Z</time>
      </trkpt>
      <trkpt lat="47.3807" lon="6.61939">
        <ele>590.322</ele>
        <time>2015-10-02T11:42:07Z</time>
      </trkpt>
      <trkpt lat="47.38068" lon="6.61937">
        <ele>591.357</ele>
        <time>2015-10-02T11:42:08Z</time>
      </trkpt>
      <trkpt lat="47.38065" lon="6.61935">
        <ele>591.664</ele>
        <time>2015-10-02T11:42:09Z</time>
      </trkpt>
      <trkpt lat="47.38062" lon="6.61933">
        <ele>592.898</ele>
        <time>2015-10-02T11:42:10Z</time>
      </trkpt>
      <trkpt lat="47.38059" lon="6.61932">
        <ele>594.71</ele>
        <time>2015-10-02T11:42:11Z</time>
      </trkpt>
      <trkpt lat="47.38056" lon="6.6193">
        <ele>594.929</ele>
        <time>2015-10-02T11:42:12Z</time>
      </trkpt>
      <trkpt lat="47.38054" lon="6.61929">
        <ele>597.003</ele>
        <time>2015-10-02T11:42:13Z</time>
      </trkpt>
      <trkpt lat="47.3805" lon="6.61927">
        <ele>597.83</ele>
        <time>2015-10-02T11:42:14Z</time>
      </trkpt>
      <trkpt lat="47.38047" lon="6.61926">
        <ele>596.405</ele>
        <time>2015-10-02T11:42:15Z</time>
      </trkpt>
      <trkpt lat="47.38044" lon="6.61925">
        <ele>597.825</ele>
        <time>2015-10-02T11:42:16Z</time>
      </trkpt>
      <trkpt lat="47.38043" lon="6.61924">
        <ele>597.744</ele>
        <time>2015-10-02T11:42:17Z</time>
      </trkpt>
      <trkpt lat="47.38041" lon="6.61923">
        <ele>597.976</ele>
        <time>2015-10-02T11:42:18Z</time>
      </trkpt>
      <trkpt lat="47.38039" lon="6.61921">
        <ele>599.718</ele>
        <time>2015-10-02T11:42:19Z</time>
      </trkpt>
      <trkpt lat="47.38037" lon="6.6192">
        <ele>600.283</ele>
        <time>2015-10-02T11:42:20Z</time>
      </trkpt>
      <trkpt lat="47.38034" lon="6.61919">
        <ele>599.055</ele>
        <time>2015-10-02T11:42:21Z</time>
      </trkpt>
      <trkpt lat="47.38032" lon="6.61919">
        <ele>598.908</ele>
        <time>2015-10-02T11:42:22Z</time>
      </trkpt>
      <trkpt lat="47.38029" lon="6.61917">
        <ele>599.573</ele>
        <time>2015-10-02T11:42:23Z</time>
      </trkpt>
      <trkpt lat="47.38027" lon="6.61916">
        <ele>599.857</ele>
        <time>2015-10-02T11:42:24Z</time>
      </trkpt>
      <trkpt lat="47.38024" lon="6.61915">
        <ele>601.202</ele>
        <time>2015-10-02T11:42:25Z</time>
      </trkpt>
      <trkpt lat="47.38021" lon="6.61914">
        <ele>601.98</ele>
        <time>2015-10-02T11:42:26Z</time>
      </trkpt>
      <trkpt lat="47.38019" lon="6.61913">
        <ele>601.296</ele>
        <time>2015-10-02T11:42:27Z</time>
      </trkpt>
      <trkpt lat="47.38016" lon="6.61912">
        <ele>601.74</ele>
        <time>2015-10-02T11:42:28Z</time>
      </trkpt>
      <trkpt lat="47.38014" lon="6.61911">
        <ele>602.26</ele>
        <time>2015-10-02T11:42:29Z</time>
      </trkpt>
      <trkpt lat="47.38012" lon="6.61911">
        <ele>601.456</ele>
        <time>2015-10-02T11:42:30Z</time>
      </trkpt>
      <trkpt lat="47.38009" lon="6.6191">
        <ele>602.43</ele>
        <time>2015-10-02T11:42:31Z</time>
      </trkpt>
      <trkpt lat="47.38006" lon="6.61908">
        <ele>602.487</ele>
        <time>2015-10-02T11:42:32Z</time>
      </trkpt>
      <trkpt lat="47.38003" lon="6.61907">
        <ele>602.476</ele>
        <time>2015-10-02T11:42:33Z</time>
      </trkpt>
      <trkpt lat="47.38001" lon="6.61905">
        <ele>603.255</ele>
        <time>2015-10-02T11:42:34Z</time>
      </trkpt>
      <trkpt lat="47.37998" lon="6.61904">
        <ele>604.462</ele>
        <time>2015-10-02T11:42:35Z</time>
      </trkpt>
      <trkpt lat="47.37996" lon="6.61903">
        <ele>603.506</ele>
        <time>2015-10-02T11:42:36Z</time>
      </trkpt>
      <trkpt lat="47.37993" lon="6.61902">
        <ele>603.022</ele>
        <time>2015-10-02T11:42:37Z</time>
      </trkpt>
      <trkpt lat="47.37991" lon="6.619">
        <ele>603.569</ele>
        <time>2015-10-02T11:42:38Z</time>
      </trkpt>
      <trkpt lat="47.37988" lon="6.61899">
        <ele>604.119</ele>
        <time>2015-10-02T11:42:39Z</time>
      </trkpt>
      <trkpt lat="47.37986" lon="6.61897">
        <ele>605.369</ele>
        <time>2015-10-02T11:42:40Z</time>
      </trkpt>
      <trkpt lat="47.37984" lon="6.61895">
        <ele>605.248</ele>
        <time>2015-10-02T11:42:41Z</time>
      </trkpt>
      <trkpt lat="47.37981" lon="6.61893">
        <ele>604.434</ele>
        <time>2015-10-02T11:42:42Z</time>
      </trkpt>
      <trkpt lat="47.37979" lon="6.61891">
        <ele>604.213</ele>
        <time>2015-10-02T11:42:43Z</time>
      </trkpt>
      <trkpt lat="47.37976" lon="6.61888">
        <ele>603.433</ele>
        <time>2015-10-02T11:42:44Z</time>
      </trkpt>
      <trkpt lat="47.37974" lon="6.61886">
        <ele>604.136</ele>
        <time>2015-10-02T11:42:45Z</time>
      </trkpt>
      <trkpt lat="47.37971" lon="6.61884">
        <ele>604.149</ele>
        <time>2015-10-02T11:42:46Z</time>
      </trkpt>
      <trkpt lat="47.37969" lon="6.61883">
        <ele>603.673</ele>
        <time>2015-10-02T11:42:47Z</time>
      </trkpt>
      <trkpt lat="47.37966" lon="6.61881">
        <ele>603.486</ele>
        <time>2015-10-02T11:42:48Z</time>
      </trkpt>
      <trkpt lat="47.37964" lon="6.61879">
        <ele>604.036</ele>
        <time>2015-10-02T11:42:49Z</time>
      </trkpt>
      <trkpt lat="47.37961" lon="6.61876">
        <ele>603.398</ele>
        <time>2015-10-02T11:42:50Z</time>
      </trkpt>
      <trkpt lat="47.37958" lon="6.61872">
        <ele>602.641</ele>
        <time>2015-10-02T11:42:51Z</time>
      </trkpt>
      <trkpt lat="47.37956" lon="6.61869">
        <ele>602.992</ele>
        <time>2015-10-02T11:42:52Z</time>
      </trkpt>
      <trkpt lat="47.37953" lon="6.61866">
        <ele>602.573</ele>
        <time>2015-10-02T11:42:53Z</time>
      </trkpt>
      <trkpt lat="47.37951" lon="6.61863">
        <ele>602.38</ele>
        <time>2015-10-02T11:42:54Z</time>
      </trkpt>
      <trkpt lat="47.37949" lon="6.61861">
        <ele>602.217</ele>
        <time>2015-10-02T11:42:55Z</time>
      </trkpt>
      <trkpt lat="47.37946" lon="6.61858">
        <ele>602.716</ele>
        <time>2015-10-02T11:42:56Z</time>
      </trkpt>
      <trkpt lat="47.37944" lon="6.61856">
        <ele>604.005</ele>
        <time>2015-10-02T11:42:57Z</time>
      </trkpt>
      <trkpt lat="47.37942" lon="6.61853">
        <ele>601.589</ele>
        <time>2015-10-02T11:42:58Z</time>
      </trkpt>
      <trkpt lat="47.37939" lon="6.61849">
        <ele>599.848</ele>
        <time>2015-10-02T11:42:59Z</time>
      </trkpt>
      <trkpt lat="47.37937" lon="6.61847">
        <ele>599.848</ele>
        <time>2015-10-02T11:43:00Z</time>
      </trkpt>
      <trkpt lat="47.37934" lon="6.61844">
        <ele>599.333</ele>
        <time>2015-10-02T11:43:01Z</time>
      </trkpt>
      <trkpt lat="47.37932" lon="6.61841">
        <ele>599.766</ele>
        <time>2015-10-02T11:43:02Z</time>
      </trkpt>
      <trkpt lat="47.37929" lon="6.61838">
        <ele>599.023</ele>
        <time>2015-10-02T11:43:03Z</time>
      </trkpt>
      <trkpt lat="47.37926" lon="6.61835">
        <ele>598.777</ele>
        <time>2015-10-02T11:43:04Z</time>
      </trkpt>
      <trkpt lat="47.37923" lon="6.61832">
        <ele>598.209</ele>
        <time>2015-10-02T11:43:05Z</time>
      </trkpt>
      <trkpt lat="47.3792" lon="6.61829">
        <ele>599.442</ele>
        <time>2015-10-02T11:43:06Z</time>
      </trkpt>
      <trkpt lat="47.37918" lon="6.61826">
        <ele>597.252</ele>
        <time>2015-10-02T11:43:07Z</time>
      </trkpt>
      <trkpt lat="47.37915" lon="6.61823">
        <ele>597.599</ele>
        <time>2015-10-02T11:43:08Z</time>
      </trkpt>
      <trkpt lat="47.37913" lon="6.61821">
        <ele>598.064</ele>
        <time>2015-10-02T11:43:09Z</time>
      </trkpt>
      <trkpt lat="47.3791" lon="6.61819">
        <ele>597.703</ele>
        <time>2015-10-02T11:43:10Z</time>
      </trkpt>
      <trkpt lat="47.37908" lon="6.61816">
        <ele>598.054</ele>
        <time>2015-10-02T11:43:11Z</time>
      </trkpt>
      <trkpt lat="47.37906" lon="6.61814">
        <ele>599.243</ele>
        <time>2015-10-02T11:43:12Z</time>
      </trkpt>
      <trkpt lat="47.37904" lon="6.61811">
        <ele>599.231</ele>
        <time>2015-10-02T11:43:13Z</time>
      </trkpt>
      <trkpt lat="47.37903" lon="6.61808">
        <ele>599.815</ele>
        <time>2015-10-02T11:43:14Z</time>
      </trkpt>
      <trkpt lat="47.37901" lon="6.61805">
        <ele>599.9</ele>
        <time>2015-10-02T11:43:15Z</time>
      </trkpt>
      <trkpt lat="47.37899" lon="6.61803">
        <ele>599.752</ele>
        <time>2015-10-02T11:43:16Z</time>
      </trkpt>
      <trkpt lat="47.37898" lon="6.61801">
        <ele>599.358</ele>
        <time>2015-10-02T11:43:17Z</time>
      </trkpt>
      <trkpt lat="47.37896" lon="6.61799">
        <ele>599.103</ele>
        <time>2015-10-02T11:43:18Z</time>
      </trkpt>
      <trkpt lat="47.37894" lon="6.61797">
        <ele>597.482</ele>
        <time>2015-10-02T11:43:19Z</time>
      </trkpt>
      <trkpt lat="47.37893" lon="6.61794">
        <ele>596.817</ele>
        <time>2015-10-02T11:43:20Z</time>
      </trkpt>
      <trkpt lat="47.37891" lon="6.6179">
        <ele>594.973</ele>
        <time>2015-10-02T11:43:21Z</time>
      </trkpt>
      <trkpt lat="47.37889" lon="6.61786">
        <ele>593.988</ele>
        <time>2015-10-02T11:43:22Z</time>
      </trkpt>
      <trkpt lat="47.37887" lon="6.61784">
        <ele>594.51</ele>
        <time>2015-10-02T11:43:23Z</time>
      </trkpt>
      <trkpt lat="47.37887" lon="6.61781">
        <ele>595.161</ele>
        <time>2015-10-02T11:43:24Z</time>
      </trkpt>
      <trkpt lat="47.37886" lon="6.61779">
        <ele>595.142</ele>
        <time>2015-10-02T11:43:25Z</time>
      </trkpt>
      <trkpt lat="47.37885" lon="6.61776">
        <ele>595.343</ele>
        <time>2015-10-02T11:43:26Z</time>
      </trkpt>
      <trkpt lat="47.37883" lon="6.61773">
        <ele>596.157</ele>
        <time>2015-10-02T11:43:27Z</time>
      </trkpt>
      <trkpt lat="47.37881" lon="6.61771">
        <ele>597.04</ele>
        <time>2015-10-02T11:43:28Z</time>
      </trkpt>
      <trkpt lat="47.3788" lon="6.61769">
        <ele>597.575</ele>
        <time>2015-10-02T11:43:29Z</time>
      </trkpt>
      <trkpt lat="47.37878" lon="6.61766">
        <ele>596.883</ele>
        <time>2015-10-02T11:43:30Z</time>
      </trkpt>
      <trkpt lat="47.37876" lon="6.61764">
        <ele>598.624</ele>
        <time>2015-10-02T11:43:31Z</time>
      </trkpt>
      <trkpt lat="47.37874" lon="6.61761">
        <ele>597.943</ele>
        <time>2015-10-02T11:43:32Z</time>
      </trkpt>
      <trkpt lat="47.37871" lon="6.61758">
        <ele>597.544</ele>
        <time>2015-10-02T11:43:33Z</time>
      </trkpt>
      <trkpt lat="47.37869" lon="6.61756">
        <ele>597.703</ele>
        <time>2015-10-02T11:43:34Z</time>
      </trkpt>
      <trkpt lat="47.37867" lon="6.61754">
        <ele>597.391</ele>
        <time>2015-10-02T11:43:35Z</time>
      </trkpt>
      <trkpt lat="47.37865" lon="6.61752">
        <ele>597.342</ele>
        <time>2015-10-02T11:43:36Z</time>
      </trkpt>
      <trkpt lat="47.37863" lon="6.61749">
        <ele>597.667</ele>
        <time>2015-10-02T11:43:37Z</time>
      </trkpt>
      <trkpt lat="47.3786" lon="6.61746">
        <ele>598.258</ele>
        <time>2015-10-02T11:43:38Z</time>
      </trkpt>
      <trkpt lat="47.37858" lon="6.61742">
        <ele>598.434</ele>
        <time>2015-10-02T11:43:39Z</time>
      </trkpt>
      <trkpt lat="47.37856" lon="6.61739">
        <ele>599.097</ele>
        <time>2015-10-02T11:43:40Z</time>
      </trkpt>
      <trkpt lat="47.37854" lon="6.61736">
        <ele>598.434</ele>
        <time>2015-10-02T11:43:41Z</time>
      </trkpt>
      <trkpt lat="47.37852" lon="6.61734">
        <ele>598.449</ele>
        <time>2015-10-02T11:43:42Z</time>
      </trkpt>
      <trkpt lat="47.37851" lon="6.6173">
        <ele>598.222</ele>
        <time>2015-10-02T11:43:43Z</time>
      </trkpt>
      <trkpt lat="47.37849" lon="6.61726">
        <ele>597.916</ele>
        <time>2015-10-02T11:43:44Z</time>
      </trkpt>
      <trkpt lat="47.37847" lon="6.61722">
        <ele>599.383</ele>
        <time>2015-10-02T11:43:45Z</time>
      </trkpt>
      <trkpt lat="47.37845" lon="6.61719">
        <ele>600.845</ele>
        <time>2015-10-02T11:43:46Z</time>
      </trkpt>
      <trkpt lat="47.37844" lon="6.61716">
        <ele>602.773</ele>
        <time>2015-10-02T11:43:47Z</time>
      </trkpt>
      <trkpt lat="47.37843" lon="6.61713">
        <ele>604.648</ele>
        <time>2015-10-02T11:43:48Z</time>
      </trkpt>
      <trkpt lat="47.37842" lon="6.6171">
        <ele>605.154</ele>
        <time>2015-10-02T11:43:49Z</time>
      </trkpt>
      <trkpt lat="47.37841" lon="6.61707">
        <ele>604.919</ele>
        <time>2015-10-02T11:43:50Z</time>
      </trkpt>
      <trkpt lat="47.37839" lon="6.61704">
        <ele>605.114</ele>
        <time>2015-10-02T11:43:51Z</time>
      </trkpt>
      <trkpt lat="47.37837" lon="6.61701">
        <ele>605.666</ele>
        <time>2015-10-02T11:43:52Z</time>
      </trkpt>
      <trkpt lat="47.37835" lon="6.61698">
        <ele>606.177</ele>
        <time>2015-10-02T11:43:53Z</time>
      </trkpt>
      <trkpt lat="47.37832" lon="6.61695">
        <ele>605.079</ele>
        <time>2015-10-02T11:43:54Z</time>
      </trkpt>
      <trkpt lat="47.3783" lon="6.61692">
        <ele>605.2</ele>
        <time>2015-10-02T11:43:55Z</time>
      </trkpt>
      <trkpt lat="47.37828" lon="6.61689">
        <ele>606.714</ele>
        <time>2015-10-02T11:43:56Z</time>
      </trkpt>
      <trkpt lat="47.37824" lon="6.61685">
        <ele>601.221</ele>
        <time>2015-10-02T11:43:57Z</time>
      </trkpt>
      <trkpt lat="47.3782" lon="6.61682">
        <ele>601.435</ele>
        <time>2015-10-02T11:43:58Z</time>
      </trkpt>
      <trkpt lat="47.37818" lon="6.61679">
        <ele>604.114</ele>
        <time>2015-10-02T11:43:59Z</time>
      </trkpt>
      <trkpt lat="47.37816" lon="6.61676">
        <ele>604.49</ele>
        <time>2015-10-02T11:44:00Z</time>
      </trkpt>
      <trkpt lat="47.37814" lon="6.61673">
        <ele>603.606</ele>
        <time>2015-10-02T11:44:01Z</time>
      </trkpt>
      <trkpt lat="47.37812" lon="6.61669">
        <ele>602.06</ele>
        <time>2015-10-02T11:44:02Z</time>
      </trkpt>
      <trkpt lat="47.3781" lon="6.61665">
        <ele>601.95</ele>
        <time>2015-10-02T11:44:03Z</time>
      </trkpt>
      <trkpt lat="47.37808" lon="6.61662">
        <ele>603.189</ele>
        <time>2015-10-02T11:44:04Z</time>
      </trkpt>
      <trkpt lat="47.37806" lon="6.61659">
        <ele>604.062</ele>
        <time>2015-10-02T11:44:05Z</time>
      </trkpt>
      <trkpt lat="47.37804" lon="6.61657">
        <ele>604.464</ele>
        <time>2015-10-02T11:44:06Z</time>
      </trkpt>
      <trkpt lat="47.37803" lon="6.61654">
        <ele>603.498</ele>
        <time>2015-10-02T11:44:07Z</time>
      </trkpt>
      <trkpt lat="47.37801" lon="6.61651">
        <ele>603.423</ele>
        <time>2015-10-02T11:44:08Z</time>
      </trkpt>
      <trkpt lat="47.37799" lon="6.61647">
        <ele>604.18</ele>
        <time>2015-10-02T11:44:09Z</time>
      </trkpt>
      <trkpt lat="47.37797" lon="6.61644">
        <ele>604.308</ele>
        <time>2015-10-02T11:44:10Z</time>
      </trkpt>
      <trkpt lat="47.37795" lon="6.61641">
        <ele>602.136</ele>
        <time>2015-10-02T11:44:11Z</time>
      </trkpt>
      <trkpt lat="47.37793" lon="6.61638">
        <ele>601.995</ele>
        <time>2015-10-02T11:44:12Z</time>
      </trkpt>
      <trkpt lat="47.37792" lon="6.61634">
        <ele>602.822</ele>
        <time>2015-10-02T11:44:13Z</time>
      </trkpt>
      <trkpt lat="47.3779" lon="6.61631">
        <ele>602.813</ele>
        <time>2015-10-02T11:44:14Z</time>
      </trkpt>
      <trkpt lat="47.37788" lon="6.61627">
        <ele>602.903</ele>
        <time>2015-10-02T11:44:15Z</time>
      </trkpt>
      <trkpt lat="47.37787" lon="6.61625">
        <ele>602.694</ele>
        <time>2015-10-02T11:44:16Z</time>
      </trkpt>
      <trkpt lat="47.37786" lon="6.61622">
        <ele>602.706</ele>
        <time>2015-10-02T11:44:17Z</time>
      </trkpt>
      <trkpt lat="47.37785" lon="6.6162">
        <ele>602.653</ele>
        <time>2015-10-02T11:44:18Z</time>
      </trkpt>
      <trkpt lat="47.37783" lon="6.61617">
        <ele>602.173</ele>
        <time>2015-10-02T11:44:19Z</time>
      </trkpt>
      <trkpt lat="47.37782" lon="6.61613">
        <ele>602.602</ele>
        <time>2015-10-02T11:44:20Z</time>
      </trkpt>
      <trkpt lat="47.37781" lon="6.61609">
        <ele>603.144</ele>
        <time>2015-10-02T11:44:21Z</time>
      </trkpt>
      <trkpt lat="47.3778" lon="6.61605">
        <ele>603.146</ele>
        <time>2015-10-02T11:44:22Z</time>
      </trkpt>
      <trkpt lat="47.37778" lon="6.61602">
        <ele>603.2</ele>
        <time>2015-10-02T11:44:23Z</time>
      </trkpt>
      <trkpt lat="47.37776" lon="6.61599">
        <ele>604.41</ele>
        <time>2015-10-02T11:44:24Z</time>
      </trkpt>
      <trkpt lat="47.37775" lon="6.61595">
        <ele>604.526</ele>
        <time>2015-10-02T11:44:25Z</time>
      </trkpt>
      <trkpt lat="47.37773" lon="6.61592">
        <ele>604.556</ele>
        <time>2015-10-02T11:44:26Z</time>
      </trkpt>
      <trkpt lat="47.37771" lon="6.61589">
        <ele>605.329</ele>
        <time>2015-10-02T11:44:27Z</time>
      </trkpt>
      <trkpt lat="47.37769" lon="6.61585">
        <ele>606.414</ele>
        <time>2015-10-02T11:44:28Z</time>
      </trkpt>
      <trkpt lat="47.37767" lon="6.61582">
        <ele>607.83</ele>
        <time>2015-10-02T11:44:29Z</time>
      </trkpt>
      <trkpt lat="47.37765" lon="6.61579">
        <ele>608.924</ele>
        <time>2015-10-02T11:44:30Z</time>
      </trkpt>
      <trkpt lat="47.37763" lon="6.61577">
        <ele>608.312</ele>
        <time>2015-10-02T11:44:31Z</time>
      </trkpt>
      <trkpt lat="47.37762" lon="6.61574">
        <ele>603.443</ele>
        <time>2015-10-02T11:44:32Z</time>
      </trkpt>
      <trkpt lat="47.3776" lon="6.6157">
        <ele>603.858</ele>
        <time>2015-10-02T11:44:33Z</time>
      </trkpt>
      <trkpt lat="47.37759" lon="6.61567">
        <ele>602.135</ele>
        <time>2015-10-02T11:44:34Z</time>
      </trkpt>
      <trkpt lat="47.37757" lon="6.61563">
        <ele>603.146</ele>
        <time>2015-10-02T11:44:35Z</time>
      </trkpt>
      <trkpt lat="47.37754" lon="6.61559">
        <ele>600.662</ele>
        <time>2015-10-02T11:44:36Z</time>
      </trkpt>
      <trkpt lat="47.37752" lon="6.61556">
        <ele>600.705</ele>
        <time>2015-10-02T11:44:37Z</time>
      </trkpt>
      <trkpt lat="47.3775" lon="6.61553">
        <ele>602.554</ele>
        <time>2015-10-02T11:44:38Z</time>
      </trkpt>
      <trkpt lat="47.37749" lon="6.61551">
        <ele>604.958</ele>
        <time>2015-10-02T11:44:39Z</time>
      </trkpt>
      <trkpt lat="47.37748" lon="6.61548">
        <ele>604.146</ele>
        <time>2015-10-02T11:44:40Z</time>
      </trkpt>
      <trkpt lat="47.37747" lon="6.61545">
        <ele>604.774</ele>
        <time>2015-10-02T11:44:41Z</time>
      </trkpt>
      <trkpt lat="47.37746" lon="6.61541">
        <ele>604.062</ele>
        <time>2015-10-02T11:44:42Z</time>
      </trkpt>
      <trkpt lat="47.37745" lon="6.61538">
        <ele>604.516</ele>
        <time>2015-10-02T11:44:43Z</time>
      </trkpt>
      <trkpt lat="47.37743" lon="6.61535">
        <ele>603.977</ele>
        <time>2015-10-02T11:44:44Z</time>
      </trkpt>
      <trkpt lat="47.37742" lon="6.61531">
        <ele>604.857</ele>
        <time>2015-10-02T11:44:45Z</time>
      </trkpt>
      <trkpt lat="47.37741" lon="6.61527">
        <ele>601.239</ele>
        <time>2015-10-02T11:44:46Z</time>
      </trkpt>
      <trkpt lat="47.37739" lon="6.61523">
        <ele>600.46</ele>
        <time>2015-10-02T11:44:47Z</time>
      </trkpt>
      <trkpt lat="47.37736" lon="6.61518">
        <ele>593.901</ele>
        <time>2015-10-02T11:44:48Z</time>
      </trkpt>
      <trkpt lat="47.37734" lon="6.61515">
        <ele>594.004</ele>
        <time>2015-10-02T11:44:49Z</time>
      </trkpt>
      <trkpt lat="47.37732" lon="6.61511">
        <ele>594.798</ele>
        <time>2015-10-02T11:44:50Z</time>
      </trkpt>
      <trkpt lat="47.3773" lon="6.61507">
        <ele>595.593</ele>
        <time>2015-10-02T11:44:51Z</time>
      </trkpt>
      <trkpt lat="47.37728" lon="6.61503">
        <ele>595.473</ele>
        <time>2015-10-02T11:44:52Z</time>
      </trkpt>
      <trkpt lat="47.37726" lon="6.61499">
        <ele>594.672</ele>
        <time>2015-10-02T11:44:53Z</time>
      </trkpt>
      <trkpt lat="47.37725" lon="6.61495">
        <ele>593.724</ele>
        <time>2015-10-02T11:44:54Z</time>
      </trkpt>
      <trkpt lat="47.37723" lon="6.61492">
        <ele>592.646</ele>
        <time>2015-10-02T11:44:55Z</time>
      </trkpt>
      <trkpt lat="47.37722" lon="6.61488">
        <ele>593.026</ele>
        <time>2015-10-02T11:44:56Z</time>
      </trkpt>
      <trkpt lat="47.3772" lon="6.61485">
        <ele>593.535</ele>
        <time>2015-10-02T11:44:57Z</time>
      </trkpt>
      <trkpt lat="47.37719" lon="6.61481">
        <ele>593.197</ele>
        <time>2015-10-02T11:44:58Z</time>
      </trkpt>
      <trkpt lat="47.37718" lon="6.61478">
        <ele>594.555</ele>
        <time>2015-10-02T11:44:59Z</time>
      </trkpt>
      <trkpt lat="47.37717" lon="6.61475">
        <ele>596.786</ele>
        <time>2015-10-02T11:45:00Z</time>
      </trkpt>
      <trkpt lat="47.37716" lon="6.61472">
        <ele>598.253</ele>
        <time>2015-10-02T11:45:01Z</time>
      </trkpt>
      <trkpt lat="47.37715" lon="6.61468">
        <ele>599.249</ele>
        <time>2015-10-02T11:45:02Z</time>
      </trkpt>
      <trkpt lat="47.37714" lon="6.61465">
        <ele>599.073</ele>
        <time>2015-10-02T11:45:03Z</time>
      </trkpt>
      <trkpt lat="47.37712" lon="6.61461">
        <ele>597.294</ele>
        <time>2015-10-02T11:45:04Z</time>
      </trkpt>
      <trkpt lat="47.37711" lon="6.61457">
        <ele>596.75</ele>
        <time>2015-10-02T11:45:05Z</time>
      </trkpt>
      <trkpt lat="47.37709" lon="6.61454">
        <ele>598.016</ele>
        <time>2015-10-02T11:45:06Z</time>
      </trkpt>
      <trkpt lat="47.37708" lon="6.6145">
        <ele>597.113</ele>
        <time>2015-10-02T11:45:07Z</time>
      </trkpt>
      <trkpt lat="47.37707" lon="6.61447">
        <ele>596.797</ele>
        <time>2015-10-02T11:45:08Z</time>
      </trkpt>
      <trkpt lat="47.37706" lon="6.61444">
        <ele>597.389</ele>
        <time>2015-10-02T11:45:09Z</time>
      </trkpt>
      <trkpt lat="47.37705" lon="6.61441">
        <ele>599.1</ele>
        <time>2015-10-02T11:45:10Z</time>
      </trkpt>
      <trkpt lat="47.37704" lon="6.61438">
        <ele>602.904</ele>
        <time>2015-10-02T11:45:11Z</time>
      </trkpt>
      <trkpt lat="47.37703" lon="6.61435">
        <ele>602.688</ele>
        <time>2015-10-02T11:45:12Z</time>
      </trkpt>
      <trkpt lat="47.37702" lon="6.61432">
        <ele>605.184</ele>
        <time>2015-10-02T11:45:13Z</time>
      </trkpt>
      <trkpt lat="47.37701" lon="6.6143">
        <ele>604.306</ele>
        <time>2015-10-02T11:45:14Z</time>
      </trkpt>
      <trkpt lat="47.377" lon="6.61427">
        <ele>601.725</ele>
        <time>2015-10-02T11:45:15Z</time>
      </trkpt>
      <trkpt lat="47.37698" lon="6.61424">
        <ele>602.113</ele>
        <time>2015-10-02T11:45:16Z</time>
      </trkpt>
      <trkpt lat="47.37697" lon="6.61421">
        <ele>599.941</ele>
        <time>2015-10-02T11:45:17Z</time>
      </trkpt>
      <trkpt lat="47.37695" lon="6.61419">
        <ele>598.721</ele>
        <time>2015-10-02T11:45:18Z</time>
      </trkpt>
      <trkpt lat="47.37694" lon="6.61417">
        <ele>603.517</ele>
        <time>2015-10-02T11:45:19Z</time>
      </trkpt>
      <trkpt lat="47.37693" lon="6.61415">
        <ele>602.889</ele>
        <time>2015-10-02T11:45:20Z</time>
      </trkpt>
      <trkpt lat="47.37692" lon="6.61414">
        <ele>605.004</ele>
        <time>2015-10-02T11:45:21Z</time>
      </trkpt>
      <trkpt lat="47.37691" lon="6.61413">
        <ele>605.283</ele>
        <time>2015-10-02T11:45:22Z</time>
      </trkpt>
      <trkpt lat="47.37691" lon="6.61412">
        <ele>605.341</ele>
        <time>2015-10-02T11:45:23Z</time>
      </trkpt>
      <trkpt lat="47.37689" lon="6.6141">
        <ele>604.848</ele>
        <time>2015-10-02T11:45:24Z</time>
      </trkpt>
      <trkpt lat="47.37688" lon="6.61408">
        <ele>604.489</ele>
        <time>2015-10-02T11:45:25Z</time>
      </trkpt>
      <trkpt lat="47.37687" lon="6.61407">
        <ele>605.078</ele>
        <time>2015-10-02T11:45:26Z</time>
      </trkpt>
      <trkpt lat="47.37686" lon="6.61405">
        <ele>604.028</ele>
        <time>2015-10-02T11:45:27Z</time>
      </trkpt>
      <trkpt lat="47.37685" lon="6.61404">
        <ele>603.657</ele>
        <time>2015-10-02T11:45:29Z</time>
      </trkpt>
      <trkpt lat="47.37684" lon="6.61403">
        <ele>602.605</ele>
        <time>2015-10-02T11:45:34Z</time>
      </trkpt>
      <trkpt lat="47.37683" lon="6.61399">
        <ele>603.186</ele>
        <time>2015-10-02T11:52:23Z</time>
      </trkpt>
      <trkpt lat="47.37681" lon="6.614">
        <ele>603.167</ele>
        <time>2015-10-02T11:52:25Z</time>
      </trkpt>
      <trkpt lat="47.3768" lon="6.614">
        <ele>603.826</ele>
        <time>2015-10-02T11:52:27Z</time>
      </trkpt>
      <trkpt lat="47.37678" lon="6.61399">
        <ele>604.623</ele>
        <time>2015-10-02T11:53:23Z</time>
      </trkpt>
      <trkpt lat="47.37677" lon="6.61398">
        <ele>605.608</ele>
        <time>2015-10-02T11:53:25Z</time>
      </trkpt>
      <trkpt lat="47.37676" lon="6.61397">
        <ele>607.031</ele>
        <time>2015-10-02T11:53:26Z</time>
      </trkpt>
      <trkpt lat="47.37674" lon="6.61396">
        <ele>608.229</ele>
        <time>2015-10-02T11:53:27Z</time>
      </trkpt>
      <trkpt lat="47.37671" lon="6.61393">
        <ele>608.713</ele>
        <time>2015-10-02T11:53:28Z</time>
      </trkpt>
      <trkpt lat="47.37669" lon="6.61391">
        <ele>610.158</ele>
        <time>2015-10-02T11:53:29Z</time>
      </trkpt>
      <trkpt lat="47.37667" lon="6.61389">
        <ele>610.302</ele>
        <time>2015-10-02T11:53:30Z</time>
      </trkpt>
      <trkpt lat="47.37666" lon="6.61388">
        <ele>610.719</ele>
        <time>2015-10-02T11:53:31Z</time>
      </trkpt>
      <trkpt lat="47.37664" lon="6.61387">
        <ele>609.575</ele>
        <time>2015-10-02T11:53:32Z</time>
      </trkpt>
      <trkpt lat="47.37662" lon="6.61387">
        <ele>610.152</ele>
        <time>2015-10-02T11:53:33Z</time>
      </trkpt>
      <trkpt lat="47.37661" lon="6.61386">
        <ele>609.291</ele>
        <time>2015-10-02T11:53:34Z</time>
      </trkpt>
      <trkpt lat="47.37659" lon="6.61385">
        <ele>609.706</ele>
        <time>2015-10-02T11:53:35Z</time>
      </trkpt>
      <trkpt lat="47.37657" lon="6.61383">
        <ele>610.364</ele>
        <time>2015-10-02T11:53:36Z</time>
      </trkpt>
      <trkpt lat="47.37654" lon="6.61381">
        <ele>610.488</ele>
        <time>2015-10-02T11:53:37Z</time>
      </trkpt>
      <trkpt lat="47.37651" lon="6.61379">
        <ele>607.598</ele>
        <time>2015-10-02T11:53:38Z</time>
      </trkpt>
      <trkpt lat="47.37647" lon="6.61377">
        <ele>606.22</ele>
        <time>2015-10-02T11:53:39Z</time>
      </trkpt>
      <trkpt lat="47.37642" lon="6.61373">
        <ele>606.508</ele>
        <time>2015-10-02T11:53:40Z</time>
      </trkpt>
      <trkpt lat="47.37637" lon="6.61369">
        <ele>605.471</ele>
        <time>2015-10-02T11:53:41Z</time>
      </trkpt>
      <trkpt lat="47.37629" lon="6.61366">
        <ele>605.402</ele>
        <time>2015-10-02T11:53:42Z</time>
      </trkpt>
      <trkpt lat="47.37624" lon="6.61365">
        <ele>603.711</ele>
        <time>2015-10-02T11:53:43Z</time>
      </trkpt>
      <trkpt lat="47.37619" lon="6.61359">
        <ele>603.551</ele>
        <time>2015-10-02T11:53:44Z</time>
      </trkpt>
      <trkpt lat="47.37612" lon="6.61354">
        <ele>602.329</ele>
        <time>2015-10-02T11:53:45Z</time>
      </trkpt>
      <trkpt lat="47.37606" lon="6.61349">
        <ele>601.296</ele>
        <time>2015-10-02T11:53:46Z</time>
      </trkpt>
      <trkpt lat="47.37601" lon="6.61342">
        <ele>601.259</ele>
        <time>2015-10-02T11:53:47Z</time>
      </trkpt>
      <trkpt lat="47.37595" lon="6.61335">
        <ele>600.975</ele>
        <time>2015-10-02T11:53:48Z</time>
      </trkpt>
      <trkpt lat="47.37588" lon="6.61327">
        <ele>600.57</ele>
        <time>2015-10-02T11:53:49Z</time>
      </trkpt>
      <trkpt lat="47.37582" lon="6.61319">
        <ele>600.942</ele>
        <time>2015-10-02T11:53:50Z</time>
      </trkpt>
      <trkpt lat="47.37576" lon="6.61313">
        <ele>598.626</ele>
        <time>2015-10-02T11:53:51Z</time>
      </trkpt>
      <trkpt lat="47.3757" lon="6.61305">
        <ele>599.254</ele>
        <time>2015-10-02T11:53:52Z</time>
      </trkpt>
      <trkpt lat="47.37564" lon="6.61298">
        <ele>598.938</ele>
        <time>2015-10-02T11:53:53Z</time>
      </trkpt>
      <trkpt lat="47.37557" lon="6.61291">
        <ele>598.391</ele>
        <time>2015-10-02T11:53:54Z</time>
      </trkpt>
      <trkpt lat="47.37551" lon="6.61285">
        <ele>597.442</ele>
        <time>2015-10-02T11:53:55Z</time>
      </trkpt>
      <trkpt lat="47.37545" lon="6.61278">
        <ele>597.474</ele>
        <time>2015-10-02T11:53:56Z</time>
      </trkpt>
      <trkpt lat="47.37534" lon="6.61272">
        <ele>594.431</ele>
        <time>2015-10-02T11:53:57Z</time>
      </trkpt>
      <trkpt lat="47.37528" lon="6.61264">
        <ele>594.729</ele>
        <time>2015-10-02T11:53:58Z</time>
      </trkpt>
      <trkpt lat="47.37519" lon="6.61257">
        <ele>593.978</ele>
        <time>2015-10-02T11:53:59Z</time>
      </trkpt>
      <trkpt lat="47.3751" lon="6.61252">
        <ele>593.307</ele>
        <time>2015-10-02T11:54:00Z</time>
      </trkpt>
      <trkpt lat="47.37503" lon="6.61245">
        <ele>592.233</ele>
        <time>2015-10-02T11:54:01Z</time>
      </trkpt>
      <trkpt lat="47.37495" lon="6.61237">
        <ele>591.132</ele>
        <time>2015-10-02T11:54:02Z</time>
      </trkpt>
      <trkpt lat="47.37487" lon="6.6123">
        <ele>589.647</ele>
        <time>2015-10-02T11:54:03Z</time>
      </trkpt>
      <trkpt lat="47.37479" lon="6.61223">
        <ele>588.439</ele>
        <time>2015-10-02T11:54:04Z</time>
      </trkpt>
      <trkpt lat="47.37471" lon="6.61215">
        <ele>588.061</ele>
        <time>2015-10-02T11:54:05Z</time>
      </trkpt>
      <trkpt lat="47.37462" lon="6.61209">
        <ele>587.955</ele>
        <time>2015-10-02T11:54:06Z</time>
      </trkpt>
      <trkpt lat="47.37454" lon="6.61201">
        <ele>588.281</ele>
        <time>2015-10-02T11:54:07Z</time>
      </trkpt>
      <trkpt lat="47.37445" lon="6.61193">
        <ele>587.466</ele>
        <time>2015-10-02T11:54:08Z</time>
      </trkpt>
      <trkpt lat="47.37439" lon="6.61186">
        <ele>588.639</ele>
        <time>2015-10-02T11:54:09Z</time>
      </trkpt>
      <trkpt lat="47.3743" lon="6.61177">
        <ele>587.98</ele>
        <time>2015-10-02T11:54:10Z</time>
      </trkpt>
      <trkpt lat="47.3742" lon="6.61169">
        <ele>586.522</ele>
        <time>2015-10-02T11:54:11Z</time>
      </trkpt>
      <trkpt lat="47.37414" lon="6.61158">
        <ele>586.407</ele>
        <time>2015-10-02T11:54:12Z</time>
      </trkpt>
      <trkpt lat="47.37409" lon="6.61146">
        <ele>585.255</ele>
        <time>2015-10-02T11:54:13Z</time>
      </trkpt>
      <trkpt lat="47.37407" lon="6.61131">
        <ele>585.434</ele>
        <time>2015-10-02T11:54:14Z</time>
      </trkpt>
      <trkpt lat="47.37404" lon="6.61116">
        <ele>585.853</ele>
        <time>2015-10-02T11:54:15Z</time>
      </trkpt>
      <trkpt lat="47.37403" lon="6.61102">
        <ele>585.43</ele>
        <time>2015-10-02T11:54:16Z</time>
      </trkpt>
      <trkpt lat="47.37402" lon="6.61087">
        <ele>585.516</ele>
        <time>2015-10-02T11:54:17Z</time>
      </trkpt>
      <trkpt lat="47.37401" lon="6.61072">
        <ele>583.91</ele>
        <time>2015-10-02T11:54:18Z</time>
      </trkpt>
      <trkpt lat="47.37399" lon="6.61057">
        <ele>584.172</ele>
        <time>2015-10-02T11:54:19Z</time>
      </trkpt>
      <trkpt lat="47.37399" lon="6.61041">
        <ele>583.211</ele>
        <time>2015-10-02T11:54:20Z</time>
      </trkpt>
      <trkpt lat="47.37398" lon="6.61025">
        <ele>582.18</ele>
        <time>2015-10-02T11:54:21Z</time>
      </trkpt>
      <trkpt lat="47.37398" lon="6.61009">
        <ele>581.599</ele>
        <time>2015-10-02T11:54:22Z</time>
      </trkpt>
      <trkpt lat="47.37398" lon="6.60994">
        <ele>580.56</ele>
        <time>2015-10-02T11:54:23Z</time>
      </trkpt>
      <trkpt lat="47.37397" lon="6.60979">
        <ele>580.336</ele>
        <time>2015-10-02T11:54:24Z</time>
      </trkpt>
      <trkpt lat="47.37396" lon="6.60963">
        <ele>580.25</ele>
        <time>2015-10-02T11:54:25Z</time>
      </trkpt>
      <trkpt lat="47.37395" lon="6.60949">
        <ele>580.173</ele>
        <time>2015-10-02T11:54:26Z</time>
      </trkpt>
      <trkpt lat="47.37391" lon="6.60935">
        <ele>579.389</ele>
        <time>2015-10-02T11:54:27Z</time>
      </trkpt>
      <trkpt lat="47.37387" lon="6.60924">
        <ele>579.129</ele>
        <time>2015-10-02T11:54:28Z</time>
      </trkpt>
      <trkpt lat="47.37382" lon="6.60912">
        <ele>578.358</ele>
        <time>2015-10-02T11:54:29Z</time>
      </trkpt>
      <trkpt lat="47.37376" lon="6.60903">
        <ele>578.096</ele>
        <time>2015-10-02T11:54:30Z</time>
      </trkpt>
      <trkpt lat="47.37371" lon="6.60894">
        <ele>577.528</ele>
        <time>2015-10-02T11:54:31Z</time>
      </trkpt>
      <trkpt lat="47.37364" lon="6.60887">
        <ele>576.404</ele>
        <time>2015-10-02T11:54:32Z</time>
      </trkpt>
      <trkpt lat="47.37358" lon="6.6088">
        <ele>576.708</ele>
        <time>2015-10-02T11:54:33Z</time>
      </trkpt>
      <trkpt lat="47.37354" lon="6.60874">
        <ele>575.75</ele>
        <time>2015-10-02T11:54:34Z</time>
      </trkpt>
      <trkpt lat="47.37348" lon="6.60868">
        <ele>573.878</ele>
        <time>2015-10-02T11:54:35Z</time>
      </trkpt>
      <trkpt lat="47.37344" lon="6.60862">
        <ele>572.784</ele>
        <time>2015-10-02T11:54:36Z</time>
      </trkpt>
      <trkpt lat="47.37339" lon="6.60856">
        <ele>572.144</ele>
        <time>2015-10-02T11:54:37Z</time>
      </trkpt>
      <trkpt lat="47.37336" lon="6.6085">
        <ele>572.413</ele>
        <time>2015-10-02T11:54:38Z</time>
      </trkpt>
      <trkpt lat="47.37332" lon="6.60844">
        <ele>572.146</ele>
        <time>2015-10-02T11:54:39Z</time>
      </trkpt>
      <trkpt lat="47.37326" lon="6.60838">
        <ele>570.665</ele>
        <time>2015-10-02T11:54:40Z</time>
      </trkpt>
      <trkpt lat="47.37322" lon="6.60831">
        <ele>569.308</ele>
        <time>2015-10-02T11:54:41Z</time>
      </trkpt>
      <trkpt lat="47.3732" lon="6.60825">
        <ele>569.92</ele>
        <time>2015-10-02T11:54:42Z</time>
      </trkpt>
      <trkpt lat="47.37313" lon="6.60819">
        <ele>570.529</ele>
        <time>2015-10-02T11:54:43Z</time>
      </trkpt>
      <trkpt lat="47.37307" lon="6.60814">
        <ele>572.833</ele>
        <time>2015-10-02T11:54:44Z</time>
      </trkpt>
      <trkpt lat="47.37302" lon="6.60808">
        <ele>574.133</ele>
        <time>2015-10-02T11:54:45Z</time>
      </trkpt>
      <trkpt lat="47.37297" lon="6.60803">
        <ele>573.463</ele>
        <time>2015-10-02T11:54:46Z</time>
      </trkpt>
      <trkpt lat="47.37292" lon="6.60797">
        <ele>571.719</ele>
        <time>2015-10-02T11:54:47Z</time>
      </trkpt>
      <trkpt lat="47.37289" lon="6.60789">
        <ele>569.331</ele>
        <time>2015-10-02T11:54:48Z</time>
      </trkpt>
      <trkpt lat="47.37283" lon="6.60786">
        <ele>569.032</ele>
        <time>2015-10-02T11:54:49Z</time>
      </trkpt>
      <trkpt lat="47.37277" lon="6.60783">
        <ele>569.723</ele>
        <time>2015-10-02T11:54:50Z</time>
      </trkpt>
      <trkpt lat="47.37267" lon="6.60781">
        <ele>572.506</ele>
        <time>2015-10-02T11:54:51Z</time>
      </trkpt>
      <trkpt lat="47.37261" lon="6.60779">
        <ele>573.417</ele>
        <time>2015-10-02T11:54:52Z</time>
      </trkpt>
      <trkpt lat="47.37253" lon="6.60779">
        <ele>574.187</ele>
        <time>2015-10-02T11:54:53Z</time>
      </trkpt>
      <trkpt lat="47.37248" lon="6.60778">
        <ele>574.654</ele>
        <time>2015-10-02T11:54:54Z</time>
      </trkpt>
      <trkpt lat="47.37243" lon="6.60775">
        <ele>575.917</ele>
        <time>2015-10-02T11:54:55Z</time>
      </trkpt>
      <trkpt lat="47.37237" lon="6.60774">
        <ele>574.664</ele>
        <time>2015-10-02T11:54:56Z</time>
      </trkpt>
      <trkpt lat="47.37233" lon="6.60771">
        <ele>577.212</ele>
        <time>2015-10-02T11:54:57Z</time>
      </trkpt>
      <trkpt lat="47.37228" lon="6.60768">
        <ele>579.156</ele>
        <time>2015-10-02T11:54:58Z</time>
      </trkpt>
      <trkpt lat="47.37222" lon="6.60763">
        <ele>578.387</ele>
        <time>2015-10-02T11:54:59Z</time>
      </trkpt>
      <trkpt lat="47.37217" lon="6.60758">
        <ele>576.17</ele>
        <time>2015-10-02T11:55:00Z</time>
      </trkpt>
      <trkpt lat="47.37213" lon="6.60754">
        <ele>577.013</ele>
        <time>2015-10-02T11:55:01Z</time>
      </trkpt>
      <trkpt lat="47.3721" lon="6.60751">
        <ele>575.534</ele>
        <time>2015-10-02T11:55:02Z</time>
      </trkpt>
      <trkpt lat="47.37205" lon="6.60747">
        <ele>574.777</ele>
        <time>2015-10-02T11:55:03Z</time>
      </trkpt>
      <trkpt lat="47.37202" lon="6.60743">
        <ele>574.586</ele>
        <time>2015-10-02T11:55:04Z</time>
      </trkpt>
      <trkpt lat="47.37196" lon="6.60738">
        <ele>574.092</ele>
        <time>2015-10-02T11:55:05Z</time>
      </trkpt>
      <trkpt lat="47.37193" lon="6.60732">
        <ele>574.123</ele>
        <time>2015-10-02T11:55:06Z</time>
      </trkpt>
      <trkpt lat="47.37186" lon="6.60728">
        <ele>576.907</ele>
        <time>2015-10-02T11:55:07Z</time>
      </trkpt>
      <trkpt lat="47.37183" lon="6.60724">
        <ele>575.769</ele>
        <time>2015-10-02T11:55:08Z</time>
      </trkpt>
      <trkpt lat="47.3718" lon="6.6072">
        <ele>574.573</ele>
        <time>2015-10-02T11:55:09Z</time>
      </trkpt>
      <trkpt lat="47.37176" lon="6.60715">
        <ele>575.18</ele>
        <time>2015-10-02T11:55:10Z</time>
      </trkpt>
      <trkpt lat="47.37173" lon="6.60712">
        <ele>575.727</ele>
        <time>2015-10-02T11:55:11Z</time>
      </trkpt>
      <trkpt lat="47.3717" lon="6.60709">
        <ele>577.944</ele>
        <time>2015-10-02T11:55:12Z</time>
      </trkpt>
      <trkpt lat="47.37166" lon="6.60705">
        <ele>578.994</ele>
        <time>2015-10-02T11:55:13Z</time>
      </trkpt>
      <trkpt lat="47.37162" lon="6.607">
        <ele>578.279</ele>
        <time>2015-10-02T11:55:14Z</time>
      </trkpt>
      <trkpt lat="47.37158" lon="6.60694">
        <ele>576.864</ele>
        <time>2015-10-02T11:55:15Z</time>
      </trkpt>
      <trkpt lat="47.37153" lon="6.6069">
        <ele>576.049</ele>
        <time>2015-10-02T11:55:16Z</time>
      </trkpt>
      <trkpt lat="47.3715" lon="6.60687">
        <ele>576.064</ele>
        <time>2015-10-02T11:55:17Z</time>
      </trkpt>
      <trkpt lat="47.37146" lon="6.60684">
        <ele>576.544</ele>
        <time>2015-10-02T11:55:18Z</time>
      </trkpt>
      <trkpt lat="47.37141" lon="6.6068">
        <ele>576.338</ele>
        <time>2015-10-02T11:55:19Z</time>
      </trkpt>
      <trkpt lat="47.37138" lon="6.60676">
        <ele>576.701</ele>
        <time>2015-10-02T11:55:20Z</time>
      </trkpt>
      <trkpt lat="47.37134" lon="6.60672">
        <ele>575.765</ele>
        <time>2015-10-02T11:55:21Z</time>
      </trkpt>
      <trkpt lat="47.37131" lon="6.60668">
        <ele>577.35</ele>
        <time>2015-10-02T11:55:22Z</time>
      </trkpt>
      <trkpt lat="47.37126" lon="6.60664">
        <ele>577.854</ele>
        <time>2015-10-02T11:55:23Z</time>
      </trkpt>
      <trkpt lat="47.37121" lon="6.60659">
        <ele>577.786</ele>
        <time>2015-10-02T11:55:24Z</time>
      </trkpt>
      <trkpt lat="47.37115" lon="6.60655">
        <ele>577.59</ele>
        <time>2015-10-02T11:55:25Z</time>
      </trkpt>
      <trkpt lat="47.37112" lon="6.60651">
        <ele>577.408</ele>
        <time>2015-10-02T11:55:26Z</time>
      </trkpt>
      <trkpt lat="47.37108" lon="6.60646">
        <ele>578.539</ele>
        <time>2015-10-02T11:55:27Z</time>
      </trkpt>
      <trkpt lat="47.37106" lon="6.60642">
        <ele>579.233</ele>
        <time>2015-10-02T11:55:28Z</time>
      </trkpt>
      <trkpt lat="47.37102" lon="6.60639">
        <ele>579.173</ele>
        <time>2015-10-02T11:55:29Z</time>
      </trkpt>
      <trkpt lat="47.371" lon="6.60634">
        <ele>579.701</ele>
        <time>2015-10-02T11:55:30Z</time>
      </trkpt>
      <trkpt lat="47.37097" lon="6.60628">
        <ele>579.227</ele>
        <time>2015-10-02T11:55:31Z</time>
      </trkpt>
      <trkpt lat="47.37094" lon="6.60625">
        <ele>580.389</ele>
        <time>2015-10-02T11:55:32Z</time>
      </trkpt>
      <trkpt lat="47.37093" lon="6.6062">
        <ele>580.551</ele>
        <time>2015-10-02T11:55:33Z</time>
      </trkpt>
      <trkpt lat="47.3709" lon="6.60617">
        <ele>582.33</ele>
        <time>2015-10-02T11:55:34Z</time>
      </trkpt>
      <trkpt lat="47.37088" lon="6.60611">
        <ele>584.091</ele>
        <time>2015-10-02T11:55:35Z</time>
      </trkpt>
      <trkpt lat="47.37088" lon="6.60604">
        <ele>584.7</ele>
        <time>2015-10-02T11:55:36Z</time>
      </trkpt>
      <trkpt lat="47.37085" lon="6.60599">
        <ele>584.895</ele>
        <time>2015-10-02T11:55:37Z</time>
      </trkpt>
      <trkpt lat="47.37083" lon="6.60594">
        <ele>582.939</ele>
        <time>2015-10-02T11:55:38Z</time>
      </trkpt>
      <trkpt lat="47.37081" lon="6.6059">
        <ele>580.317</ele>
        <time>2015-10-02T11:55:39Z</time>
      </trkpt>
      <trkpt lat="47.37079" lon="6.60585">
        <ele>580.232</ele>
        <time>2015-10-02T11:55:40Z</time>
      </trkpt>
      <trkpt lat="47.37077" lon="6.6058">
        <ele>578.151</ele>
        <time>2015-10-02T11:55:41Z</time>
      </trkpt>
      <trkpt lat="47.37075" lon="6.60576">
        <ele>577.894</ele>
        <time>2015-10-02T11:55:42Z</time>
      </trkpt>
      <trkpt lat="47.37072" lon="6.60571">
        <ele>576.795</ele>
        <time>2015-10-02T11:55:43Z</time>
      </trkpt>
      <trkpt lat="47.3707" lon="6.60565">
        <ele>575.66</ele>
        <time>2015-10-02T11:55:44Z</time>
      </trkpt>
      <trkpt lat="47.37068" lon="6.6056">
        <ele>575.389</ele>
        <time>2015-10-02T11:55:45Z</time>
      </trkpt>
      <trkpt lat="47.37066" lon="6.60555">
        <ele>575.745</ele>
        <time>2015-10-02T11:55:46Z</time>
      </trkpt>
      <trkpt lat="47.37063" lon="6.6055">
        <ele>576.662</ele>
        <time>2015-10-02T11:55:47Z</time>
      </trkpt>
      <trkpt lat="47.37061" lon="6.60546">
        <ele>578.255</ele>
        <time>2015-10-02T11:55:48Z</time>
      </trkpt>
      <trkpt lat="47.37058" lon="6.6054">
        <ele>578.464</ele>
        <time>2015-10-02T11:55:49Z</time>
      </trkpt>
      <trkpt lat="47.37056" lon="6.60535">
        <ele>578.771</ele>
        <time>2015-10-02T11:55:50Z</time>
      </trkpt>
      <trkpt lat="47.37054" lon="6.60529">
        <ele>578.866</ele>
        <time>2015-10-02T11:55:51Z</time>
      </trkpt>
      <trkpt lat="47.37052" lon="6.60523">
        <ele>578.75</ele>
        <time>2015-10-02T11:55:52Z</time>
      </trkpt>
      <trkpt lat="47.37048" lon="6.60517">
        <ele>579.833</ele>
        <time>2015-10-02T11:55:53Z</time>
      </trkpt>
      <trkpt lat="47.37046" lon="6.60512">
        <ele>579.444</ele>
        <time>2015-10-02T11:55:54Z</time>
      </trkpt>
      <trkpt lat="47.37043" lon="6.60506">
        <ele>579.437</ele>
        <time>2015-10-02T11:55:55Z</time>
      </trkpt>
      <trkpt lat="47.37041" lon="6.605">
        <ele>579.25</ele>
        <time>2015-10-02T11:55:56Z</time>
      </trkpt>
      <trkpt lat="47.3704" lon="6.60496">
        <ele>579.031</ele>
        <time>2015-10-02T11:55:57Z</time>
      </trkpt>
      <trkpt lat="47.3704" lon="6.6049">
        <ele>578.504</ele>
        <time>2015-10-02T11:55:58Z</time>
      </trkpt>
      <trkpt lat="47.37039" lon="6.60486">
        <ele>579.066</ele>
        <time>2015-10-02T11:55:59Z</time>
      </trkpt>
      <trkpt lat="47.37039" lon="6.60482">
        <ele>579.652</ele>
        <time>2015-10-02T11:56:00Z</time>
      </trkpt>
      <trkpt lat="47.37037" lon="6.60478">
        <ele>579.958</ele>
        <time>2015-10-02T11:56:01Z</time>
      </trkpt>
      <trkpt lat="47.37036" lon="6.60473">
        <ele>579.591</ele>
        <time>2015-10-02T11:56:02Z</time>
      </trkpt>
      <trkpt lat="47.37035" lon="6.6047">
        <ele>578.682</ele>
        <time>2015-10-02T11:56:03Z</time>
      </trkpt>
      <trkpt lat="47.37035" lon="6.60466">
        <ele>578.73</ele>
        <time>2015-10-02T11:56:04Z</time>
      </trkpt>
      <trkpt lat="47.37033" lon="6.60462">
        <ele>576.972</ele>
        <time>2015-10-02T11:56:05Z</time>
      </trkpt>
      <trkpt lat="47.37031" lon="6.60458">
        <ele>577.21</ele>
        <time>2015-10-02T11:56:06Z</time>
      </trkpt>
      <trkpt lat="47.37029" lon="6.60452">
        <ele>576.484</ele>
        <time>2015-10-02T11:56:07Z</time>
      </trkpt>
      <trkpt lat="47.37028" lon="6.60448">
        <ele>578.26</ele>
        <time>2015-10-02T11:56:08Z</time>
      </trkpt>
      <trkpt lat="47.37026" lon="6.60443">
        <ele>578.31</ele>
        <time>2015-10-02T11:56:09Z</time>
      </trkpt>
      <trkpt lat="47.37023" lon="6.60439">
        <ele>578.966</ele>
        <time>2015-10-02T11:56:10Z</time>
      </trkpt>
      <trkpt lat="47.37021" lon="6.60435">
        <ele>579.338</ele>
        <time>2015-10-02T11:56:11Z</time>
      </trkpt>
      <trkpt lat="47.37019" lon="6.60431">
        <ele>579.671</ele>
        <time>2015-10-02T11:56:12Z</time>
      </trkpt>
      <trkpt lat="47.37017" lon="6.60426">
        <ele>579.335</ele>
        <time>2015-10-02T11:56:13Z</time>
      </trkpt>
      <trkpt lat="47.37015" lon="6.60421">
        <ele>578.422</ele>
        <time>2015-10-02T11:56:14Z</time>
      </trkpt>
      <trkpt lat="47.37013" lon="6.60416">
        <ele>576.698</ele>
        <time>2015-10-02T11:56:15Z</time>
      </trkpt>
      <trkpt lat="47.37011" lon="6.60411">
        <ele>576.526</ele>
        <time>2015-10-02T11:56:16Z</time>
      </trkpt>
      <trkpt lat="47.37009" lon="6.60407">
        <ele>577.063</ele>
        <time>2015-10-02T11:56:17Z</time>
      </trkpt>
      <trkpt lat="47.37007" lon="6.60403">
        <ele>577.498</ele>
        <time>2015-10-02T11:56:18Z</time>
      </trkpt>
      <trkpt lat="47.37005" lon="6.60399">
        <ele>578.903</ele>
        <time>2015-10-02T11:56:19Z</time>
      </trkpt>
      <trkpt lat="47.37002" lon="6.60395">
        <ele>579.523</ele>
        <time>2015-10-02T11:56:20Z</time>
      </trkpt>
      <trkpt lat="47.37" lon="6.60391">
        <ele>580.204</ele>
        <time>2015-10-02T11:56:21Z</time>
      </trkpt>
      <trkpt lat="47.36997" lon="6.60387">
        <ele>581.121</ele>
        <time>2015-10-02T11:56:22Z</time>
      </trkpt>
      <trkpt lat="47.36995" lon="6.60384">
        <ele>581.02</ele>
        <time>2015-10-02T11:56:23Z</time>
      </trkpt>
      <trkpt lat="47.36993" lon="6.6038">
        <ele>580.648</ele>
        <time>2015-10-02T11:56:24Z</time>
      </trkpt>
      <trkpt lat="47.36991" lon="6.60376">
        <ele>580.441</ele>
        <time>2015-10-02T11:56:25Z</time>
      </trkpt>
      <trkpt lat="47.36989" lon="6.60372">
        <ele>581.111</ele>
        <time>2015-10-02T11:56:26Z</time>
      </trkpt>
      <trkpt lat="47.36987" lon="6.60368">
        <ele>581.901</ele>
        <time>2015-10-02T11:56:27Z</time>
      </trkpt>
      <trkpt lat="47.36986" lon="6.60364">
        <ele>582.064</ele>
        <time>2015-10-02T11:56:28Z</time>
      </trkpt>
      <trkpt lat="47.36985" lon="6.60359">
        <ele>582.242</ele>
        <time>2015-10-02T11:56:29Z</time>
      </trkpt>
      <trkpt lat="47.36983" lon="6.60355">
        <ele>582.455</ele>
        <time>2015-10-02T11:56:30Z</time>
      </trkpt>
      <trkpt lat="47.36982" lon="6.6035">
        <ele>582.418</ele>
        <time>2015-10-02T11:56:31Z</time>
      </trkpt>
      <trkpt lat="47.36981" lon="6.60346">
        <ele>581.757</ele>
        <time>2015-10-02T11:56:32Z</time>
      </trkpt>
      <trkpt lat="47.3698" lon="6.60342">
        <ele>582.569</ele>
        <time>2015-10-02T11:56:33Z</time>
      </trkpt>
      <trkpt lat="47.36979" lon="6.60337">
        <ele>580.228</ele>
        <time>2015-10-02T11:56:34Z</time>
      </trkpt>
      <trkpt lat="47.36978" lon="6.60331">
        <ele>579.591</ele>
        <time>2015-10-02T11:56:35Z</time>
      </trkpt>
      <trkpt lat="47.36977" lon="6.60327">
        <ele>579.536</ele>
        <time>2015-10-02T11:56:36Z</time>
      </trkpt>
      <trkpt lat="47.36976" lon="6.60322">
        <ele>580.395</ele>
        <time>2015-10-02T11:56:37Z</time>
      </trkpt>
      <trkpt lat="47.36974" lon="6.60319">
        <ele>580.037</ele>
        <time>2015-10-02T11:56:38Z</time>
      </trkpt>
      <trkpt lat="47.36973" lon="6.60315">
        <ele>579.193</ele>
        <time>2015-10-02T11:56:39Z</time>
      </trkpt>
      <trkpt lat="47.36972" lon="6.60311">
        <ele>578.705</ele>
        <time>2015-10-02T11:56:40Z</time>
      </trkpt>
      <trkpt lat="47.3697" lon="6.60307">
        <ele>579.648</ele>
        <time>2015-10-02T11:56:41Z</time>
      </trkpt>
      <trkpt lat="47.36969" lon="6.60303">
        <ele>580.407</ele>
        <time>2015-10-02T11:56:42Z</time>
      </trkpt>
      <trkpt lat="47.36968" lon="6.60299">
        <ele>580.173</ele>
        <time>2015-10-02T11:56:43Z</time>
      </trkpt>
      <trkpt lat="47.36967" lon="6.60295">
        <ele>580.288</ele>
        <time>2015-10-02T11:56:44Z</time>
      </trkpt>
      <trkpt lat="47.36966" lon="6.60291">
        <ele>581.515</ele>
        <time>2015-10-02T11:56:45Z</time>
      </trkpt>
      <trkpt lat="47.36966" lon="6.60288">
        <ele>581.685</ele>
        <time>2015-10-02T11:56:46Z</time>
      </trkpt>
      <trkpt lat="47.36966" lon="6.60284">
        <ele>583.323</ele>
        <time>2015-10-02T11:56:47Z</time>
      </trkpt>
      <trkpt lat="47.36965" lon="6.60281">
        <ele>583.217</ele>
        <time>2015-10-02T11:56:48Z</time>
      </trkpt>
      <trkpt lat="47.36964" lon="6.60277">
        <ele>582.526</ele>
        <time>2015-10-02T11:56:49Z</time>
      </trkpt>
      <trkpt lat="47.36963" lon="6.60273">
        <ele>582.376</ele>
        <time>2015-10-02T11:56:50Z</time>
      </trkpt>
      <trkpt lat="47.36961" lon="6.6027">
        <ele>583.284</ele>
        <time>2015-10-02T11:56:51Z</time>
      </trkpt>
      <trkpt lat="47.36959" lon="6.60266">
        <ele>583.382</ele>
        <time>2015-10-02T11:56:52Z</time>
      </trkpt>
      <trkpt lat="47.36957" lon="6.60262">
        <ele>583.252</ele>
        <time>2015-10-02T11:56:53Z</time>
      </trkpt>
      <trkpt lat="47.36956" lon="6.60258">
        <ele>582.723</ele>
        <time>2015-10-02T11:56:54Z</time>
      </trkpt>
      <trkpt lat="47.36954" lon="6.60254">
        <ele>582.614</ele>
        <time>2015-10-02T11:56:55Z</time>
      </trkpt>
      <trkpt lat="47.36952" lon="6.6025">
        <ele>582.27</ele>
        <time>2015-10-02T11:56:56Z</time>
      </trkpt>
      <trkpt lat="47.36951" lon="6.60246">
        <ele>581.959</ele>
        <time>2015-10-02T11:56:57Z</time>
      </trkpt>
      <trkpt lat="47.36949" lon="6.60242">
        <ele>581.833</ele>
        <time>2015-10-02T11:56:58Z</time>
      </trkpt>
      <trkpt lat="47.36948" lon="6.60238">
        <ele>578.915</ele>
        <time>2015-10-02T11:56:59Z</time>
      </trkpt>
      <trkpt lat="47.36947" lon="6.60234">
        <ele>582.437</ele>
        <time>2015-10-02T11:57:00Z</time>
      </trkpt>
      <trkpt lat="47.36945" lon="6.6023">
        <ele>582.895</ele>
        <time>2015-10-02T11:57:01Z</time>
      </trkpt>
      <trkpt lat="47.36943" lon="6.60226">
        <ele>584.251</ele>
        <time>2015-10-02T11:57:02Z</time>
      </trkpt>
      <trkpt lat="47.36942" lon="6.60221">
        <ele>584.365</ele>
        <time>2015-10-02T11:57:03Z</time>
      </trkpt>
      <trkpt lat="47.3694" lon="6.60217">
        <ele>584.058</ele>
        <time>2015-10-02T11:57:04Z</time>
      </trkpt>
      <trkpt lat="47.36939" lon="6.60213">
        <ele>585.216</ele>
        <time>2015-10-02T11:57:05Z</time>
      </trkpt>
      <trkpt lat="47.36937" lon="6.60209">
        <ele>584.948</ele>
        <time>2015-10-02T11:57:06Z</time>
      </trkpt>
      <trkpt lat="47.36936" lon="6.60205">
        <ele>585.799</ele>
        <time>2015-10-02T11:57:07Z</time>
      </trkpt>
      <trkpt lat="47.36934" lon="6.60201">
        <ele>585.518</ele>
        <time>2015-10-02T11:57:08Z</time>
      </trkpt>
      <trkpt lat="47.36933" lon="6.60197">
        <ele>585.477</ele>
        <time>2015-10-02T11:57:09Z</time>
      </trkpt>
      <trkpt lat="47.36931" lon="6.60193">
        <ele>585.825</ele>
        <time>2015-10-02T11:57:10Z</time>
      </trkpt>
      <trkpt lat="47.3693" lon="6.60188">
        <ele>586.117</ele>
        <time>2015-10-02T11:57:11Z</time>
      </trkpt>
      <trkpt lat="47.36929" lon="6.60184">
        <ele>586.022</ele>
        <time>2015-10-02T11:57:12Z</time>
      </trkpt>
      <trkpt lat="47.36928" lon="6.6018">
        <ele>586.26</ele>
        <time>2015-10-02T11:57:13Z</time>
      </trkpt>
      <trkpt lat="47.36926" lon="6.60176">
        <ele>585.649</ele>
        <time>2015-10-02T11:57:14Z</time>
      </trkpt>
      <trkpt lat="47.36925" lon="6.60172">
        <ele>585.63</ele>
        <time>2015-10-02T11:57:15Z</time>
      </trkpt>
      <trkpt lat="47.36924" lon="6.60168">
        <ele>585.875</ele>
        <time>2015-10-02T11:57:16Z</time>
      </trkpt>
      <trkpt lat="47.36922" lon="6.60163">
        <ele>586.243</ele>
        <time>2015-10-02T11:57:17Z</time>
      </trkpt>
      <trkpt lat="47.36921" lon="6.60158">
        <ele>587.074</ele>
        <time>2015-10-02T11:57:18Z</time>
      </trkpt>
      <trkpt lat="47.3692" lon="6.60154">
        <ele>586.814</ele>
        <time>2015-10-02T11:57:19Z</time>
      </trkpt>
      <trkpt lat="47.36919" lon="6.60149">
        <ele>586.271</ele>
        <time>2015-10-02T11:57:20Z</time>
      </trkpt>
      <trkpt lat="47.36917" lon="6.60145">
        <ele>585.564</ele>
        <time>2015-10-02T11:57:21Z</time>
      </trkpt>
      <trkpt lat="47.36916" lon="6.60141">
        <ele>585.253</ele>
        <time>2015-10-02T11:57:22Z</time>
      </trkpt>
      <trkpt lat="47.36915" lon="6.60136">
        <ele>584.949</ele>
        <time>2015-10-02T11:57:23Z</time>
      </trkpt>
      <trkpt lat="47.36914" lon="6.60131">
        <ele>584.762</ele>
        <time>2015-10-02T11:57:24Z</time>
      </trkpt>
      <trkpt lat="47.36912" lon="6.60126">
        <ele>584.376</ele>
        <time>2015-10-02T11:57:25Z</time>
      </trkpt>
      <trkpt lat="47.36911" lon="6.60121">
        <ele>584.391</ele>
        <time>2015-10-02T11:57:26Z</time>
      </trkpt>
      <trkpt lat="47.3691" lon="6.60117">
        <ele>584.235</ele>
        <time>2015-10-02T11:57:27Z</time>
      </trkpt>
      <trkpt lat="47.3691" lon="6.60112">
        <ele>584.893</ele>
        <time>2015-10-02T11:57:28Z</time>
      </trkpt>
      <trkpt lat="47.36909" lon="6.60107">
        <ele>585.757</ele>
        <time>2015-10-02T11:57:29Z</time>
      </trkpt>
      <trkpt lat="47.36908" lon="6.60103">
        <ele>585.912</ele>
        <time>2015-10-02T11:57:30Z</time>
      </trkpt>
      <trkpt lat="47.36907" lon="6.60099">
        <ele>586.762</ele>
        <time>2015-10-02T11:57:31Z</time>
      </trkpt>
      <trkpt lat="47.36906" lon="6.60095">
        <ele>587.984</ele>
        <time>2015-10-02T11:57:32Z</time>
      </trkpt>
      <trkpt lat="47.36905" lon="6.6009">
        <ele>587.529</ele>
        <time>2015-10-02T11:57:33Z</time>
      </trkpt>
      <trkpt lat="47.36905" lon="6.60086">
        <ele>587.245</ele>
        <time>2015-10-02T11:57:34Z</time>
      </trkpt>
      <trkpt lat="47.36904" lon="6.60082">
        <ele>587.147</ele>
        <time>2015-10-02T11:57:35Z</time>
      </trkpt>
      <trkpt lat="47.36903" lon="6.60077">
        <ele>586.979</ele>
        <time>2015-10-02T11:57:36Z</time>
      </trkpt>
      <trkpt lat="47.36903" lon="6.60073">
        <ele>588.283</ele>
        <time>2015-10-02T11:57:37Z</time>
      </trkpt>
      <trkpt lat="47.36903" lon="6.60068">
        <ele>588.037</ele>
        <time>2015-10-02T11:57:38Z</time>
      </trkpt>
      <trkpt lat="47.36902" lon="6.60064">
        <ele>587.823</ele>
        <time>2015-10-02T11:57:39Z</time>
      </trkpt>
      <trkpt lat="47.36902" lon="6.6006">
        <ele>588.268</ele>
        <time>2015-10-02T11:57:40Z</time>
      </trkpt>
      <trkpt lat="47.36902" lon="6.60056">
        <ele>587.794</ele>
        <time>2015-10-02T11:57:41Z</time>
      </trkpt>
      <trkpt lat="47.36901" lon="6.60052">
        <ele>588.556</ele>
        <time>2015-10-02T11:57:42Z</time>
      </trkpt>
      <trkpt lat="47.36901" lon="6.60048">
        <ele>588.531</ele>
        <time>2015-10-02T11:57:43Z</time>
      </trkpt>
      <trkpt lat="47.369" lon="6.60044">
        <ele>589.514</ele>
        <time>2015-10-02T11:57:44Z</time>
      </trkpt>
      <trkpt lat="47.36899" lon="6.60039">
        <ele>589.302</ele>
        <time>2015-10-02T11:57:45Z</time>
      </trkpt>
      <trkpt lat="47.36899" lon="6.60035">
        <ele>589.682</ele>
        <time>2015-10-02T11:57:46Z</time>
      </trkpt>
      <trkpt lat="47.36898" lon="6.6003">
        <ele>590.08</ele>
        <time>2015-10-02T11:57:47Z</time>
      </trkpt>
      <trkpt lat="47.36898" lon="6.60026">
        <ele>590.701</ele>
        <time>2015-10-02T11:57:48Z</time>
      </trkpt>
      <trkpt lat="47.36897" lon="6.60022">
        <ele>590.598</ele>
        <time>2015-10-02T11:57:49Z</time>
      </trkpt>
      <trkpt lat="47.36897" lon="6.60018">
        <ele>590.692</ele>
        <time>2015-10-02T11:57:50Z</time>
      </trkpt>
      <trkpt lat="47.36896" lon="6.60014">
        <ele>591.397</ele>
        <time>2015-10-02T11:57:51Z</time>
      </trkpt>
      <trkpt lat="47.36896" lon="6.6001">
        <ele>591.898</ele>
        <time>2015-10-02T11:57:52Z</time>
      </trkpt>
      <trkpt lat="47.36895" lon="6.60006">
        <ele>592.429</ele>
        <time>2015-10-02T11:57:53Z</time>
      </trkpt>
      <trkpt lat="47.36895" lon="6.60002">
        <ele>592.517</ele>
        <time>2015-10-02T11:57:54Z</time>
      </trkpt>
      <trkpt lat="47.36894" lon="6.59998">
        <ele>592.488</ele>
        <time>2015-10-02T11:57:55Z</time>
      </trkpt>
      <trkpt lat="47.36894" lon="6.59994">
        <ele>592.661</ele>
        <time>2015-10-02T11:57:56Z</time>
      </trkpt>
      <trkpt lat="47.36894" lon="6.5999">
        <ele>592.761</ele>
        <time>2015-10-02T11:57:57Z</time>
      </trkpt>
      <trkpt lat="47.36895" lon="6.59986">
        <ele>593.655</ele>
        <time>2015-10-02T11:57:58Z</time>
      </trkpt>
      <trkpt lat="47.36895" lon="6.59981">
        <ele>593.763</ele>
        <time>2015-10-02T11:57:59Z</time>
      </trkpt>
      <trkpt lat="47.36895" lon="6.59977">
        <ele>593.511</ele>
        <time>2015-10-02T11:58:00Z</time>
      </trkpt>
      <trkpt lat="47.36894" lon="6.59974">
        <ele>593.83</ele>
        <time>2015-10-02T11:58:01Z</time>
      </trkpt>
      <trkpt lat="47.36893" lon="6.59971">
        <ele>594.515</ele>
        <time>2015-10-02T11:58:02Z</time>
      </trkpt>
      <trkpt lat="47.36892" lon="6.59967">
        <ele>593.817</ele>
        <time>2015-10-02T11:58:03Z</time>
      </trkpt>
      <trkpt lat="47.36891" lon="6.59962">
        <ele>594.486</ele>
        <time>2015-10-02T11:58:04Z</time>
      </trkpt>
      <trkpt lat="47.36891" lon="6.59958">
        <ele>593.875</ele>
        <time>2015-10-02T11:58:05Z</time>
      </trkpt>
      <trkpt lat="47.36889" lon="6.59954">
        <ele>590.013</ele>
        <time>2015-10-02T11:58:06Z</time>
      </trkpt>
      <trkpt lat="47.36889" lon="6.59951">
        <ele>592.531</ele>
        <time>2015-10-02T11:58:07Z</time>
      </trkpt>
      <trkpt lat="47.36889" lon="6.59947">
        <ele>593.181</ele>
        <time>2015-10-02T11:58:08Z</time>
      </trkpt>
      <trkpt lat="47.36889" lon="6.59945">
        <ele>592.35</ele>
        <time>2015-10-02T11:58:09Z</time>
      </trkpt>
      <trkpt lat="47.36889" lon="6.59943">
        <ele>594.165</ele>
        <time>2015-10-02T11:58:10Z</time>
      </trkpt>
      <trkpt lat="47.36888" lon="6.5994">
        <ele>596.68</ele>
        <time>2015-10-02T11:58:12Z</time>
      </trkpt>
      <trkpt lat="47.36888" lon="6.59937">
        <ele>597.915</ele>
        <time>2015-10-02T11:58:13Z</time>
      </trkpt>
      <trkpt lat="47.36887" lon="6.59935">
        <ele>597.651</ele>
        <time>2015-10-02T11:58:14Z</time>
      </trkpt>
      <trkpt lat="47.36887" lon="6.59931">
        <ele>598.301</ele>
        <time>2015-10-02T11:58:15Z</time>
      </trkpt>
      <trkpt lat="47.36886" lon="6.59927">
        <ele>597.385</ele>
        <time>2015-10-02T11:58:16Z</time>
      </trkpt>
      <trkpt lat="47.36885" lon="6.59924">
        <ele>595.692</ele>
        <time>2015-10-02T11:58:17Z</time>
      </trkpt>
      <trkpt lat="47.36884" lon="6.59921">
        <ele>596.57</ele>
        <time>2015-10-02T11:58:18Z</time>
      </trkpt>
      <trkpt lat="47.36884" lon="6.59918">
        <ele>596.813</ele>
        <time>2015-10-02T11:58:19Z</time>
      </trkpt>
      <trkpt lat="47.36884" lon="6.59914">
        <ele>597.86</ele>
        <time>2015-10-02T11:58:20Z</time>
      </trkpt>
      <trkpt lat="47.36885" lon="6.5991">
        <ele>598.205</ele>
        <time>2015-10-02T11:58:21Z</time>
      </trkpt>
      <trkpt lat="47.36886" lon="6.59905">
        <ele>597.975</ele>
        <time>2015-10-02T11:58:22Z</time>
      </trkpt>
      <trkpt lat="47.36886" lon="6.599">
        <ele>597.532</ele>
        <time>2015-10-02T11:58:23Z</time>
      </trkpt>
      <trkpt lat="47.36886" lon="6.59896">
        <ele>596.049</ele>
        <time>2015-10-02T11:58:24Z</time>
      </trkpt>
      <trkpt lat="47.36887" lon="6.59891">
        <ele>595.512</ele>
        <time>2015-10-02T11:58:25Z</time>
      </trkpt>
      <trkpt lat="47.36887" lon="6.59886">
        <ele>597.093</ele>
        <time>2015-10-02T11:58:26Z</time>
      </trkpt>
      <trkpt lat="47.36887" lon="6.59881">
        <ele>596.98</ele>
        <time>2015-10-02T11:58:27Z</time>
      </trkpt>
      <trkpt lat="47.36888" lon="6.59876">
        <ele>598.175</ele>
        <time>2015-10-02T11:58:28Z</time>
      </trkpt>
      <trkpt lat="47.36888" lon="6.59871">
        <ele>597.722</ele>
        <time>2015-10-02T11:58:29Z</time>
      </trkpt>
      <trkpt lat="47.36888" lon="6.59866">
        <ele>597.143</ele>
        <time>2015-10-02T11:58:30Z</time>
      </trkpt>
      <trkpt lat="47.36888" lon="6.59861">
        <ele>597.904</ele>
        <time>2015-10-02T11:58:31Z</time>
      </trkpt>
      <trkpt lat="47.36887" lon="6.59856">
        <ele>597.788</ele>
        <time>2015-10-02T11:58:32Z</time>
      </trkpt>
      <trkpt lat="47.36886" lon="6.59851">
        <ele>598.313</ele>
        <time>2015-10-02T11:58:33Z</time>
      </trkpt>
      <trkpt lat="47.36885" lon="6.59846">
        <ele>599.124</ele>
        <time>2015-10-02T11:58:34Z</time>
      </trkpt>
      <trkpt lat="47.36885" lon="6.59842">
        <ele>599.721</ele>
        <time>2015-10-02T11:58:35Z</time>
      </trkpt>
      <trkpt lat="47.36884" lon="6.59837">
        <ele>599.83</ele>
        <time>2015-10-02T11:58:36Z</time>
      </trkpt>
      <trkpt lat="47.36883" lon="6.59833">
        <ele>599.81</ele>
        <time>2015-10-02T11:58:37Z</time>
      </trkpt>
      <trkpt lat="47.36882" lon="6.59829">
        <ele>601.661</ele>
        <time>2015-10-02T11:58:38Z</time>
      </trkpt>
      <trkpt lat="47.36881" lon="6.59825">
        <ele>601.641</ele>
        <time>2015-10-02T11:58:39Z</time>
      </trkpt>
      <trkpt lat="47.3688" lon="6.59821">
        <ele>602.748</ele>
        <time>2015-10-02T11:58:40Z</time>
      </trkpt>
      <trkpt lat="47.36879" lon="6.59817">
        <ele>602.99</ele>
        <time>2015-10-02T11:58:41Z</time>
      </trkpt>
      <trkpt lat="47.36878" lon="6.59813">
        <ele>602.927</ele>
        <time>2015-10-02T11:58:42Z</time>
      </trkpt>
      <trkpt lat="47.36877" lon="6.59809">
        <ele>603.341</ele>
        <time>2015-10-02T11:58:43Z</time>
      </trkpt>
      <trkpt lat="47.36876" lon="6.59804">
        <ele>603.288</ele>
        <time>2015-10-02T11:58:44Z</time>
      </trkpt>
      <trkpt lat="47.36875" lon="6.598">
        <ele>602.458</ele>
        <time>2015-10-02T11:58:45Z</time>
      </trkpt>
      <trkpt lat="47.36874" lon="6.59795">
        <ele>602.469</ele>
        <time>2015-10-02T11:58:46Z</time>
      </trkpt>
      <trkpt lat="47.36873" lon="6.59791">
        <ele>602.635</ele>
        <time>2015-10-02T11:58:47Z</time>
      </trkpt>
      <trkpt lat="47.36872" lon="6.59787">
        <ele>602.804</ele>
        <time>2015-10-02T11:58:48Z</time>
      </trkpt>
      <trkpt lat="47.36871" lon="6.59782">
        <ele>602.47</ele>
        <time>2015-10-02T11:58:49Z</time>
      </trkpt>
      <trkpt lat="47.3687" lon="6.59778">
        <ele>603.194</ele>
        <time>2015-10-02T11:58:50Z</time>
      </trkpt>
      <trkpt lat="47.3687" lon="6.59775">
        <ele>603.724</ele>
        <time>2015-10-02T11:58:51Z</time>
      </trkpt>
      <trkpt lat="47.36869" lon="6.59771">
        <ele>603.721</ele>
        <time>2015-10-02T11:58:52Z</time>
      </trkpt>
      <trkpt lat="47.36868" lon="6.59767">
        <ele>603.692</ele>
        <time>2015-10-02T11:58:53Z</time>
      </trkpt>
      <trkpt lat="47.36867" lon="6.59763">
        <ele>603.362</ele>
        <time>2015-10-02T11:58:54Z</time>
      </trkpt>
      <trkpt lat="47.36866" lon="6.59759">
        <ele>603.827</ele>
        <time>2015-10-02T11:58:55Z</time>
      </trkpt>
      <trkpt lat="47.36865" lon="6.59755">
        <ele>603.818</ele>
        <time>2015-10-02T11:58:56Z</time>
      </trkpt>
      <trkpt lat="47.36864" lon="6.59751">
        <ele>604.239</ele>
        <time>2015-10-02T11:58:57Z</time>
      </trkpt>
      <trkpt lat="47.36863" lon="6.59748">
        <ele>604.471</ele>
        <time>2015-10-02T11:58:58Z</time>
      </trkpt>
      <trkpt lat="47.36861" lon="6.59744">
        <ele>604.755</ele>
        <time>2015-10-02T11:58:59Z</time>
      </trkpt>
      <trkpt lat="47.3686" lon="6.59741">
        <ele>604.986</ele>
        <time>2015-10-02T11:59:00Z</time>
      </trkpt>
      <trkpt lat="47.3686" lon="6.59738">
        <ele>605.187</ele>
        <time>2015-10-02T11:59:01Z</time>
      </trkpt>
      <trkpt lat="47.36859" lon="6.59734">
        <ele>604.977</ele>
        <time>2015-10-02T11:59:02Z</time>
      </trkpt>
      <trkpt lat="47.36858" lon="6.59731">
        <ele>604.97</ele>
        <time>2015-10-02T11:59:03Z</time>
      </trkpt>
      <trkpt lat="47.36857" lon="6.59728">
        <ele>604.927</ele>
        <time>2015-10-02T11:59:04Z</time>
      </trkpt>
      <trkpt lat="47.36855" lon="6.59724">
        <ele>604.679</ele>
        <time>2015-10-02T11:59:05Z</time>
      </trkpt>
      <trkpt lat="47.36854" lon="6.59721">
        <ele>605.928</ele>
        <time>2015-10-02T11:59:06Z</time>
      </trkpt>
      <trkpt lat="47.36853" lon="6.59717">
        <ele>607.053</ele>
        <time>2015-10-02T11:59:07Z</time>
      </trkpt>
      <trkpt lat="47.36853" lon="6.59714">
        <ele>607.24</ele>
        <time>2015-10-02T11:59:08Z</time>
      </trkpt>
      <trkpt lat="47.36853" lon="6.5971">
        <ele>607.675</ele>
        <time>2015-10-02T11:59:09Z</time>
      </trkpt>
      <trkpt lat="47.36852" lon="6.59706">
        <ele>607.344</ele>
        <time>2015-10-02T11:59:10Z</time>
      </trkpt>
      <trkpt lat="47.36852" lon="6.59702">
        <ele>607.783</ele>
        <time>2015-10-02T11:59:11Z</time>
      </trkpt>
      <trkpt lat="47.36852" lon="6.59698">
        <ele>607.283</ele>
        <time>2015-10-02T11:59:12Z</time>
      </trkpt>
      <trkpt lat="47.36851" lon="6.59694">
        <ele>607.343</ele>
        <time>2015-10-02T11:59:13Z</time>
      </trkpt>
      <trkpt lat="47.36851" lon="6.5969">
        <ele>607.499</ele>
        <time>2015-10-02T11:59:14Z</time>
      </trkpt>
      <trkpt lat="47.3685" lon="6.59686">
        <ele>608.12</ele>
        <time>2015-10-02T11:59:15Z</time>
      </trkpt>
      <trkpt lat="47.3685" lon="6.59682">
        <ele>608.997</ele>
        <time>2015-10-02T11:59:16Z</time>
      </trkpt>
      <trkpt lat="47.36849" lon="6.59678">
        <ele>608.788</ele>
        <time>2015-10-02T11:59:17Z</time>
      </trkpt>
      <trkpt lat="47.36849" lon="6.59674">
        <ele>609.817</ele>
        <time>2015-10-02T11:59:18Z</time>
      </trkpt>
      <trkpt lat="47.36849" lon="6.5967">
        <ele>610.081</ele>
        <time>2015-10-02T11:59:19Z</time>
      </trkpt>
      <trkpt lat="47.36848" lon="6.59666">
        <ele>609.576</ele>
        <time>2015-10-02T11:59:20Z</time>
      </trkpt>
      <trkpt lat="47.36847" lon="6.59662">
        <ele>609.5</ele>
        <time>2015-10-02T11:59:21Z</time>
      </trkpt>
      <trkpt lat="47.36847" lon="6.59658">
        <ele>609.657</ele>
        <time>2015-10-02T11:59:22Z</time>
      </trkpt>
      <trkpt lat="47.36846" lon="6.59654">
        <ele>610.105</ele>
        <time>2015-10-02T11:59:23Z</time>
      </trkpt>
      <trkpt lat="47.36845" lon="6.5965">
        <ele>609.608</ele>
        <time>2015-10-02T11:59:24Z</time>
      </trkpt>
      <trkpt lat="47.36845" lon="6.59646">
        <ele>609.847</ele>
        <time>2015-10-02T11:59:25Z</time>
      </trkpt>
      <trkpt lat="47.36844" lon="6.59642">
        <ele>610.488</ele>
        <time>2015-10-02T11:59:26Z</time>
      </trkpt>
      <trkpt lat="47.36844" lon="6.59638">
        <ele>610.781</ele>
        <time>2015-10-02T11:59:27Z</time>
      </trkpt>
      <trkpt lat="47.36843" lon="6.59634">
        <ele>611.323</ele>
        <time>2015-10-02T11:59:28Z</time>
      </trkpt>
      <trkpt lat="47.36842" lon="6.5963">
        <ele>611.537</ele>
        <time>2015-10-02T11:59:29Z</time>
      </trkpt>
      <trkpt lat="47.36842" lon="6.59626">
        <ele>610.551</ele>
        <time>2015-10-02T11:59:30Z</time>
      </trkpt>
      <trkpt lat="47.36841" lon="6.59622">
        <ele>610.089</ele>
        <time>2015-10-02T11:59:31Z</time>
      </trkpt>
      <trkpt lat="47.36841" lon="6.59618">
        <ele>611.167</ele>
        <time>2015-10-02T11:59:32Z</time>
      </trkpt>
      <trkpt lat="47.3684" lon="6.59614">
        <ele>611.175</ele>
        <time>2015-10-02T11:59:33Z</time>
      </trkpt>
      <trkpt lat="47.3684" lon="6.5961">
        <ele>612.592</ele>
        <time>2015-10-02T11:59:34Z</time>
      </trkpt>
      <trkpt lat="47.3684" lon="6.59606">
        <ele>613.13</ele>
        <time>2015-10-02T11:59:35Z</time>
      </trkpt>
      <trkpt lat="47.36839" lon="6.59602">
        <ele>614.443</ele>
        <time>2015-10-02T11:59:36Z</time>
      </trkpt>
      <trkpt lat="47.36839" lon="6.59598">
        <ele>613.55</ele>
        <time>2015-10-02T11:59:37Z</time>
      </trkpt>
      <trkpt lat="47.36839" lon="6.59594">
        <ele>613.482</ele>
        <time>2015-10-02T11:59:38Z</time>
      </trkpt>
      <trkpt lat="47.36838" lon="6.5959">
        <ele>613.233</ele>
        <time>2015-10-02T11:59:39Z</time>
      </trkpt>
      <trkpt lat="47.36838" lon="6.59586">
        <ele>613.066</ele>
        <time>2015-10-02T11:59:40Z</time>
      </trkpt>
      <trkpt lat="47.36838" lon="6.59582">
        <ele>613.261</ele>
        <time>2015-10-02T11:59:41Z</time>
      </trkpt>
      <trkpt lat="47.36838" lon="6.59578">
        <ele>613.82</ele>
        <time>2015-10-02T11:59:42Z</time>
      </trkpt>
      <trkpt lat="47.36837" lon="6.59574">
        <ele>613.608</ele>
        <time>2015-10-02T11:59:43Z</time>
      </trkpt>
      <trkpt lat="47.36837" lon="6.5957">
        <ele>613.922</ele>
        <time>2015-10-02T11:59:44Z</time>
      </trkpt>
      <trkpt lat="47.36837" lon="6.59566">
        <ele>613.686</ele>
        <time>2015-10-02T11:59:45Z</time>
      </trkpt>
      <trkpt lat="47.36837" lon="6.59562">
        <ele>614.114</ele>
        <time>2015-10-02T11:59:46Z</time>
      </trkpt>
      <trkpt lat="47.36837" lon="6.59558">
        <ele>613.896</ele>
        <time>2015-10-02T11:59:47Z</time>
      </trkpt>
      <trkpt lat="47.36837" lon="6.59553">
        <ele>613.933</ele>
        <time>2015-10-02T11:59:48Z</time>
      </trkpt>
      <trkpt lat="47.36836" lon="6.59548">
        <ele>614.114</ele>
        <time>2015-10-02T11:59:49Z</time>
      </trkpt>
      <trkpt lat="47.36836" lon="6.59543">
        <ele>614.038</ele>
        <time>2015-10-02T11:59:50Z</time>
      </trkpt>
      <trkpt lat="47.36836" lon="6.59539">
        <ele>614.267</ele>
        <time>2015-10-02T11:59:51Z</time>
      </trkpt>
      <trkpt lat="47.36835" lon="6.59535">
        <ele>614.084</ele>
        <time>2015-10-02T11:59:52Z</time>
      </trkpt>
      <trkpt lat="47.36835" lon="6.59531">
        <ele>613.791</ele>
        <time>2015-10-02T11:59:53Z</time>
      </trkpt>
      <trkpt lat="47.36834" lon="6.59527">
        <ele>613.709</ele>
        <time>2015-10-02T11:59:54Z</time>
      </trkpt>
      <trkpt lat="47.36833" lon="6.59523">
        <ele>613.981</ele>
        <time>2015-10-02T11:59:55Z</time>
      </trkpt>
      <trkpt lat="47.36833" lon="6.59519">
        <ele>614.757</ele>
        <time>2015-10-02T11:59:56Z</time>
      </trkpt>
      <trkpt lat="47.36832" lon="6.59515">
        <ele>614.808</ele>
        <time>2015-10-02T11:59:57Z</time>
      </trkpt>
      <trkpt lat="47.36832" lon="6.59511">
        <ele>614.752</ele>
        <time>2015-10-02T11:59:58Z</time>
      </trkpt>
      <trkpt lat="47.36831" lon="6.59507">
        <ele>615.01</ele>
        <time>2015-10-02T11:59:59Z</time>
      </trkpt>
      <trkpt lat="47.3683" lon="6.59503">
        <ele>614.485</ele>
        <time>2015-10-02T12:00:00Z</time>
      </trkpt>
      <trkpt lat="47.3683" lon="6.59499">
        <ele>614.588</ele>
        <time>2015-10-02T12:00:01Z</time>
      </trkpt>
      <trkpt lat="47.3683" lon="6.59495">
        <ele>615.274</ele>
        <time>2015-10-02T12:00:02Z</time>
      </trkpt>
      <trkpt lat="47.36829" lon="6.59491">
        <ele>615.605</ele>
        <time>2015-10-02T12:00:03Z</time>
      </trkpt>
      <trkpt lat="47.36829" lon="6.59487">
        <ele>615.179</ele>
        <time>2015-10-02T12:00:04Z</time>
      </trkpt>
      <trkpt lat="47.36828" lon="6.59483">
        <ele>615.1</ele>
        <time>2015-10-02T12:00:05Z</time>
      </trkpt>
      <trkpt lat="47.36827" lon="6.59478">
        <ele>615.174</ele>
        <time>2015-10-02T12:00:06Z</time>
      </trkpt>
      <trkpt lat="47.36826" lon="6.59474">
        <ele>615.461</ele>
        <time>2015-10-02T12:00:07Z</time>
      </trkpt>
      <trkpt lat="47.36825" lon="6.5947">
        <ele>616.32</ele>
        <time>2015-10-02T12:00:08Z</time>
      </trkpt>
      <trkpt lat="47.36824" lon="6.59466">
        <ele>616.284</ele>
        <time>2015-10-02T12:00:09Z</time>
      </trkpt>
      <trkpt lat="47.36824" lon="6.59461">
        <ele>616.759</ele>
        <time>2015-10-02T12:00:10Z</time>
      </trkpt>
      <trkpt lat="47.36823" lon="6.59457">
        <ele>616.51</ele>
        <time>2015-10-02T12:00:11Z</time>
      </trkpt>
      <trkpt lat="47.36822" lon="6.59452">
        <ele>616.173</ele>
        <time>2015-10-02T12:00:12Z</time>
      </trkpt>
      <trkpt lat="47.36821" lon="6.59448">
        <ele>616.039</ele>
        <time>2015-10-02T12:00:13Z</time>
      </trkpt>
      <trkpt lat="47.3682" lon="6.59444">
        <ele>616.338</ele>
        <time>2015-10-02T12:00:14Z</time>
      </trkpt>
      <trkpt lat="47.36819" lon="6.5944">
        <ele>616.728</ele>
        <time>2015-10-02T12:00:15Z</time>
      </trkpt>
      <trkpt lat="47.36819" lon="6.59436">
        <ele>616.348</ele>
        <time>2015-10-02T12:00:16Z</time>
      </trkpt>
      <trkpt lat="47.36818" lon="6.59432">
        <ele>616.337</ele>
        <time>2015-10-02T12:00:17Z</time>
      </trkpt>
      <trkpt lat="47.36817" lon="6.59428">
        <ele>617.292</ele>
        <time>2015-10-02T12:00:18Z</time>
      </trkpt>
      <trkpt lat="47.36816" lon="6.59424">
        <ele>617.774</ele>
        <time>2015-10-02T12:00:19Z</time>
      </trkpt>
      <trkpt lat="47.36815" lon="6.5942">
        <ele>617.888</ele>
        <time>2015-10-02T12:00:20Z</time>
      </trkpt>
      <trkpt lat="47.36814" lon="6.59416">
        <ele>617.635</ele>
        <time>2015-10-02T12:00:21Z</time>
      </trkpt>
      <trkpt lat="47.36812" lon="6.59412">
        <ele>618.064</ele>
        <time>2015-10-02T12:00:22Z</time>
      </trkpt>
      <trkpt lat="47.36811" lon="6.59407">
        <ele>617.602</ele>
        <time>2015-10-02T12:00:23Z</time>
      </trkpt>
      <trkpt lat="47.3681" lon="6.59403">
        <ele>617.696</ele>
        <time>2015-10-02T12:00:24Z</time>
      </trkpt>
      <trkpt lat="47.36809" lon="6.59398">
        <ele>617.185</ele>
        <time>2015-10-02T12:00:25Z</time>
      </trkpt>
      <trkpt lat="47.36807" lon="6.59394">
        <ele>617.605</ele>
        <time>2015-10-02T12:00:26Z</time>
      </trkpt>
      <trkpt lat="47.36807" lon="6.5939">
        <ele>617.3</ele>
        <time>2015-10-02T12:00:27Z</time>
      </trkpt>
      <trkpt lat="47.36805" lon="6.59385">
        <ele>617.221</ele>
        <time>2015-10-02T12:00:28Z</time>
      </trkpt>
      <trkpt lat="47.36804" lon="6.59381">
        <ele>616.479</ele>
        <time>2015-10-02T12:00:29Z</time>
      </trkpt>
      <trkpt lat="47.36803" lon="6.59376">
        <ele>616.915</ele>
        <time>2015-10-02T12:00:30Z</time>
      </trkpt>
      <trkpt lat="47.36801" lon="6.59372">
        <ele>617.241</ele>
        <time>2015-10-02T12:00:31Z</time>
      </trkpt>
      <trkpt lat="47.368" lon="6.59367">
        <ele>616.419</ele>
        <time>2015-10-02T12:00:32Z</time>
      </trkpt>
      <trkpt lat="47.36798" lon="6.59362">
        <ele>616.777</ele>
        <time>2015-10-02T12:00:33Z</time>
      </trkpt>
      <trkpt lat="47.36797" lon="6.59358">
        <ele>616.802</ele>
        <time>2015-10-02T12:00:34Z</time>
      </trkpt>
      <trkpt lat="47.36796" lon="6.59353">
        <ele>616.766</ele>
        <time>2015-10-02T12:00:35Z</time>
      </trkpt>
      <trkpt lat="47.36795" lon="6.59348">
        <ele>616.502</ele>
        <time>2015-10-02T12:00:36Z</time>
      </trkpt>
      <trkpt lat="47.36794" lon="6.59344">
        <ele>616.419</ele>
        <time>2015-10-02T12:00:37Z</time>
      </trkpt>
      <trkpt lat="47.36792" lon="6.59339">
        <ele>616.22</ele>
        <time>2015-10-02T12:00:38Z</time>
      </trkpt>
      <trkpt lat="47.36791" lon="6.59334">
        <ele>616.599</ele>
        <time>2015-10-02T12:00:39Z</time>
      </trkpt>
      <trkpt lat="47.3679" lon="6.5933">
        <ele>617.083</ele>
        <time>2015-10-02T12:00:40Z</time>
      </trkpt>
      <trkpt lat="47.36789" lon="6.59326">
        <ele>617.25</ele>
        <time>2015-10-02T12:00:41Z</time>
      </trkpt>
      <trkpt lat="47.36787" lon="6.59322">
        <ele>617.786</ele>
        <time>2015-10-02T12:00:42Z</time>
      </trkpt>
      <trkpt lat="47.36786" lon="6.59318">
        <ele>617.647</ele>
        <time>2015-10-02T12:00:43Z</time>
      </trkpt>
      <trkpt lat="47.36784" lon="6.59314">
        <ele>617.378</ele>
        <time>2015-10-02T12:00:44Z</time>
      </trkpt>
      <trkpt lat="47.36783" lon="6.5931">
        <ele>617.487</ele>
        <time>2015-10-02T12:00:45Z</time>
      </trkpt>
      <trkpt lat="47.36781" lon="6.59306">
        <ele>617.399</ele>
        <time>2015-10-02T12:00:46Z</time>
      </trkpt>
      <trkpt lat="47.3678" lon="6.59302">
        <ele>617.907</ele>
        <time>2015-10-02T12:00:47Z</time>
      </trkpt>
      <trkpt lat="47.36778" lon="6.59298">
        <ele>617.827</ele>
        <time>2015-10-02T12:00:48Z</time>
      </trkpt>
      <trkpt lat="47.36776" lon="6.59295">
        <ele>618.12</ele>
        <time>2015-10-02T12:00:49Z</time>
      </trkpt>
      <trkpt lat="47.36775" lon="6.59292">
        <ele>618.562</ele>
        <time>2015-10-02T12:00:50Z</time>
      </trkpt>
      <trkpt lat="47.36773" lon="6.59288">
        <ele>617.851</ele>
        <time>2015-10-02T12:00:51Z</time>
      </trkpt>
      <trkpt lat="47.36772" lon="6.59286">
        <ele>619.472</ele>
        <time>2015-10-02T12:00:52Z</time>
      </trkpt>
      <trkpt lat="47.3677" lon="6.59283">
        <ele>620.158</ele>
        <time>2015-10-02T12:00:53Z</time>
      </trkpt>
      <trkpt lat="47.36768" lon="6.59281">
        <ele>620.582</ele>
        <time>2015-10-02T12:00:54Z</time>
      </trkpt>
      <trkpt lat="47.36767" lon="6.59278">
        <ele>620.785</ele>
        <time>2015-10-02T12:00:55Z</time>
      </trkpt>
      <trkpt lat="47.36765" lon="6.59276">
        <ele>620.024</ele>
        <time>2015-10-02T12:00:56Z</time>
      </trkpt>
      <trkpt lat="47.36763" lon="6.59273">
        <ele>619.911</ele>
        <time>2015-10-02T12:00:57Z</time>
      </trkpt>
      <trkpt lat="47.36762" lon="6.59271">
        <ele>620.082</ele>
        <time>2015-10-02T12:00:58Z</time>
      </trkpt>
      <trkpt lat="47.3676" lon="6.59269">
        <ele>619.969</ele>
        <time>2015-10-02T12:00:59Z</time>
      </trkpt>
      <trkpt lat="47.36759" lon="6.59266">
        <ele>619.911</ele>
        <time>2015-10-02T12:01:00Z</time>
      </trkpt>
      <trkpt lat="47.36758" lon="6.59264">
        <ele>619.187</ele>
        <time>2015-10-02T12:01:01Z</time>
      </trkpt>
      <trkpt lat="47.36757" lon="6.59262">
        <ele>617.433</ele>
        <time>2015-10-02T12:01:02Z</time>
      </trkpt>
      <trkpt lat="47.36756" lon="6.5926">
        <ele>617.981</ele>
        <time>2015-10-02T12:01:03Z</time>
      </trkpt>
      <trkpt lat="47.36755" lon="6.59257">
        <ele>618.959</ele>
        <time>2015-10-02T12:01:04Z</time>
      </trkpt>
      <trkpt lat="47.36754" lon="6.59254">
        <ele>619.272</ele>
        <time>2015-10-02T12:01:05Z</time>
      </trkpt>
      <trkpt lat="47.36753" lon="6.59252">
        <ele>619.518</ele>
        <time>2015-10-02T12:01:06Z</time>
      </trkpt>
      <trkpt lat="47.36752" lon="6.59249">
        <ele>619.892</ele>
        <time>2015-10-02T12:01:07Z</time>
      </trkpt>
      <trkpt lat="47.36751" lon="6.59247">
        <ele>620.274</ele>
        <time>2015-10-02T12:01:08Z</time>
      </trkpt>
      <trkpt lat="47.36751" lon="6.59245">
        <ele>619.705</ele>
        <time>2015-10-02T12:01:09Z</time>
      </trkpt>
      <trkpt lat="47.3675" lon="6.59243">
        <ele>619.623</ele>
        <time>2015-10-02T12:01:10Z</time>
      </trkpt>
      <trkpt lat="47.36749" lon="6.59241">
        <ele>620.958</ele>
        <time>2015-10-02T12:01:11Z</time>
      </trkpt>
      <trkpt lat="47.36748" lon="6.59238">
        <ele>621.375</ele>
        <time>2015-10-02T12:01:12Z</time>
      </trkpt>
      <trkpt lat="47.36746" lon="6.59236">
        <ele>622.023</ele>
        <time>2015-10-02T12:01:13Z</time>
      </trkpt>
      <trkpt lat="47.36745" lon="6.59233">
        <ele>623.809</ele>
        <time>2015-10-02T12:01:14Z</time>
      </trkpt>
      <trkpt lat="47.36743" lon="6.59231">
        <ele>623.709</ele>
        <time>2015-10-02T12:01:15Z</time>
      </trkpt>
      <trkpt lat="47.36741" lon="6.59228">
        <ele>623.44</ele>
        <time>2015-10-02T12:01:16Z</time>
      </trkpt>
      <trkpt lat="47.36739" lon="6.59226">
        <ele>621.791</ele>
        <time>2015-10-02T12:01:17Z</time>
      </trkpt>
      <trkpt lat="47.36736" lon="6.59224">
        <ele>622.802</ele>
        <time>2015-10-02T12:01:18Z</time>
      </trkpt>
      <trkpt lat="47.36734" lon="6.59222">
        <ele>621.885</ele>
        <time>2015-10-02T12:01:19Z</time>
      </trkpt>
      <trkpt lat="47.36731" lon="6.5922">
        <ele>618.903</ele>
        <time>2015-10-02T12:01:20Z</time>
      </trkpt>
      <trkpt lat="47.36728" lon="6.59219">
        <ele>618.497</ele>
        <time>2015-10-02T12:01:21Z</time>
      </trkpt>
      <trkpt lat="47.36727" lon="6.59216">
        <ele>616.831</ele>
        <time>2015-10-02T12:01:22Z</time>
      </trkpt>
      <trkpt lat="47.36726" lon="6.59214">
        <ele>614.748</ele>
        <time>2015-10-02T12:01:23Z</time>
      </trkpt>
      <trkpt lat="47.36725" lon="6.59211">
        <ele>614.693</ele>
        <time>2015-10-02T12:01:24Z</time>
      </trkpt>
      <trkpt lat="47.36723" lon="6.59208">
        <ele>614.596</ele>
        <time>2015-10-02T12:01:25Z</time>
      </trkpt>
      <trkpt lat="47.3672" lon="6.59204">
        <ele>614.711</ele>
        <time>2015-10-02T12:01:26Z</time>
      </trkpt>
      <trkpt lat="47.36718" lon="6.59201">
        <ele>617.028</ele>
        <time>2015-10-02T12:01:27Z</time>
      </trkpt>
      <trkpt lat="47.36717" lon="6.59197">
        <ele>618.214</ele>
        <time>2015-10-02T12:01:28Z</time>
      </trkpt>
      <trkpt lat="47.36716" lon="6.59194">
        <ele>616.877</ele>
        <time>2015-10-02T12:01:29Z</time>
      </trkpt>
      <trkpt lat="47.36715" lon="6.5919">
        <ele>616.423</ele>
        <time>2015-10-02T12:01:30Z</time>
      </trkpt>
      <trkpt lat="47.36713" lon="6.59185">
        <ele>616.959</ele>
        <time>2015-10-02T12:01:31Z</time>
      </trkpt>
      <trkpt lat="47.36711" lon="6.59181">
        <ele>618.327</ele>
        <time>2015-10-02T12:01:32Z</time>
      </trkpt>
      <trkpt lat="47.3671" lon="6.59177">
        <ele>620.778</ele>
        <time>2015-10-02T12:01:33Z</time>
      </trkpt>
      <trkpt lat="47.36709" lon="6.59174">
        <ele>621.134</ele>
        <time>2015-10-02T12:01:34Z</time>
      </trkpt>
      <trkpt lat="47.36707" lon="6.59172">
        <ele>624.778</ele>
        <time>2015-10-02T12:01:35Z</time>
      </trkpt>
      <trkpt lat="47.36706" lon="6.59169">
        <ele>625.118</ele>
        <time>2015-10-02T12:01:36Z</time>
      </trkpt>
      <trkpt lat="47.36704" lon="6.59166">
        <ele>622.092</ele>
        <time>2015-10-02T12:01:37Z</time>
      </trkpt>
      <trkpt lat="47.36702" lon="6.59163">
        <ele>619.896</ele>
        <time>2015-10-02T12:01:38Z</time>
      </trkpt>
      <trkpt lat="47.36701" lon="6.59159">
        <ele>622.393</ele>
        <time>2015-10-02T12:01:39Z</time>
      </trkpt>
      <trkpt lat="47.36699" lon="6.59155">
        <ele>622.49</ele>
        <time>2015-10-02T12:01:40Z</time>
      </trkpt>
      <trkpt lat="47.36698" lon="6.59153">
        <ele>625.001</ele>
        <time>2015-10-02T12:01:41Z</time>
      </trkpt>
      <trkpt lat="47.36696" lon="6.5915">
        <ele>625.735</ele>
        <time>2015-10-02T12:01:42Z</time>
      </trkpt>
      <trkpt lat="47.36694" lon="6.59148">
        <ele>626.781</ele>
        <time>2015-10-02T12:01:43Z</time>
      </trkpt>
      <trkpt lat="47.36692" lon="6.59144">
        <ele>626.993</ele>
        <time>2015-10-02T12:01:44Z</time>
      </trkpt>
      <trkpt lat="47.3669" lon="6.59141">
        <ele>627.914</ele>
        <time>2015-10-02T12:01:45Z</time>
      </trkpt>
      <trkpt lat="47.36688" lon="6.59137">
        <ele>628.077</ele>
        <time>2015-10-02T12:01:46Z</time>
      </trkpt>
      <trkpt lat="47.36687" lon="6.59134">
        <ele>629.833</ele>
        <time>2015-10-02T12:01:47Z</time>
      </trkpt>
      <trkpt lat="47.36685" lon="6.59129">
        <ele>627.337</ele>
        <time>2015-10-02T12:01:48Z</time>
      </trkpt>
      <trkpt lat="47.36683" lon="6.59124">
        <ele>627.724</ele>
        <time>2015-10-02T12:01:49Z</time>
      </trkpt>
      <trkpt lat="47.36681" lon="6.5912">
        <ele>628.923</ele>
        <time>2015-10-02T12:01:50Z</time>
      </trkpt>
      <trkpt lat="47.3668" lon="6.59115">
        <ele>628.76</ele>
        <time>2015-10-02T12:01:51Z</time>
      </trkpt>
      <trkpt lat="47.36678" lon="6.59111">
        <ele>629.397</ele>
        <time>2015-10-02T12:01:52Z</time>
      </trkpt>
      <trkpt lat="47.36675" lon="6.59106">
        <ele>626.681</ele>
        <time>2015-10-02T12:01:53Z</time>
      </trkpt>
      <trkpt lat="47.36672" lon="6.59102">
        <ele>626.93</ele>
        <time>2015-10-02T12:01:54Z</time>
      </trkpt>
      <trkpt lat="47.3667" lon="6.59098">
        <ele>625.683</ele>
        <time>2015-10-02T12:01:55Z</time>
      </trkpt>
      <trkpt lat="47.36669" lon="6.59094">
        <ele>625.505</ele>
        <time>2015-10-02T12:01:56Z</time>
      </trkpt>
      <trkpt lat="47.36667" lon="6.5909">
        <ele>623.912</ele>
        <time>2015-10-02T12:01:57Z</time>
      </trkpt>
      <trkpt lat="47.36665" lon="6.59087">
        <ele>623.81</ele>
        <time>2015-10-02T12:01:58Z</time>
      </trkpt>
      <trkpt lat="47.36663" lon="6.59084">
        <ele>624.676</ele>
        <time>2015-10-02T12:01:59Z</time>
      </trkpt>
      <trkpt lat="47.36662" lon="6.59081">
        <ele>625.042</ele>
        <time>2015-10-02T12:02:00Z</time>
      </trkpt>
      <trkpt lat="47.36662" lon="6.59077">
        <ele>624.954</ele>
        <time>2015-10-02T12:02:01Z</time>
      </trkpt>
      <trkpt lat="47.36661" lon="6.59075">
        <ele>626.12</ele>
        <time>2015-10-02T12:02:02Z</time>
      </trkpt>
      <trkpt lat="47.3666" lon="6.59072">
        <ele>627.047</ele>
        <time>2015-10-02T12:02:03Z</time>
      </trkpt>
      <trkpt lat="47.36658" lon="6.59068">
        <ele>623.771</ele>
        <time>2015-10-02T12:02:04Z</time>
      </trkpt>
      <trkpt lat="47.36657" lon="6.59064">
        <ele>623.845</ele>
        <time>2015-10-02T12:02:05Z</time>
      </trkpt>
      <trkpt lat="47.36655" lon="6.59061">
        <ele>625.136</ele>
        <time>2015-10-02T12:02:06Z</time>
      </trkpt>
      <trkpt lat="47.36654" lon="6.59057">
        <ele>626.695</ele>
        <time>2015-10-02T12:02:07Z</time>
      </trkpt>
      <trkpt lat="47.36652" lon="6.59054">
        <ele>627.931</ele>
        <time>2015-10-02T12:02:08Z</time>
      </trkpt>
      <trkpt lat="47.36651" lon="6.5905">
        <ele>629.148</ele>
        <time>2015-10-02T12:02:09Z</time>
      </trkpt>
      <trkpt lat="47.36649" lon="6.59046">
        <ele>630.173</ele>
        <time>2015-10-02T12:02:10Z</time>
      </trkpt>
      <trkpt lat="47.36647" lon="6.59042">
        <ele>630.289</ele>
        <time>2015-10-02T12:02:11Z</time>
      </trkpt>
      <trkpt lat="47.36646" lon="6.59038">
        <ele>630.644</ele>
        <time>2015-10-02T12:02:12Z</time>
      </trkpt>
      <trkpt lat="47.36645" lon="6.59034">
        <ele>630.849</ele>
        <time>2015-10-02T12:02:13Z</time>
      </trkpt>
      <trkpt lat="47.36643" lon="6.5903">
        <ele>631.588</ele>
        <time>2015-10-02T12:02:14Z</time>
      </trkpt>
      <trkpt lat="47.36641" lon="6.59026">
        <ele>632.119</ele>
        <time>2015-10-02T12:02:15Z</time>
      </trkpt>
      <trkpt lat="47.36638" lon="6.59023">
        <ele>632.117</ele>
        <time>2015-10-02T12:02:16Z</time>
      </trkpt>
      <trkpt lat="47.36636" lon="6.59019">
        <ele>632.618</ele>
        <time>2015-10-02T12:02:17Z</time>
      </trkpt>
      <trkpt lat="47.36635" lon="6.59016">
        <ele>633.439</ele>
        <time>2015-10-02T12:02:18Z</time>
      </trkpt>
      <trkpt lat="47.36634" lon="6.59013">
        <ele>634.647</ele>
        <time>2015-10-02T12:02:19Z</time>
      </trkpt>
      <trkpt lat="47.36634" lon="6.5901">
        <ele>635.46</ele>
        <time>2015-10-02T12:02:20Z</time>
      </trkpt>
      <trkpt lat="47.36633" lon="6.59008">
        <ele>635.002</ele>
        <time>2015-10-02T12:02:21Z</time>
      </trkpt>
      <trkpt lat="47.36632" lon="6.59007">
        <ele>635.389</ele>
        <time>2015-10-02T12:02:22Z</time>
      </trkpt>
      <trkpt lat="47.36631" lon="6.59006">
        <ele>635.028</ele>
        <time>2015-10-02T12:02:23Z</time>
      </trkpt>
      <trkpt lat="47.36628" lon="6.59005">
        <ele>631.787</ele>
        <time>2015-10-02T12:02:26Z</time>
      </trkpt>
      <trkpt lat="47.36628" lon="6.59004">
        <ele>630.524</ele>
        <time>2015-10-02T12:02:27Z</time>
      </trkpt>
      <trkpt lat="47.36626" lon="6.59003">
        <ele>629.878</ele>
        <time>2015-10-02T12:02:28Z</time>
      </trkpt>
      <trkpt lat="47.36625" lon="6.59001">
        <ele>630.522</ele>
        <time>2015-10-02T12:02:29Z</time>
      </trkpt>
      <trkpt lat="47.36624" lon="6.58999">
        <ele>629.985</ele>
        <time>2015-10-02T12:02:30Z</time>
      </trkpt>
      <trkpt lat="47.36623" lon="6.58997">
        <ele>629.854</ele>
        <time>2015-10-02T12:02:31Z</time>
      </trkpt>
      <trkpt lat="47.36622" lon="6.58994">
        <ele>629.172</ele>
        <time>2015-10-02T12:02:32Z</time>
      </trkpt>
      <trkpt lat="47.3662" lon="6.5899">
        <ele>629.95</ele>
        <time>2015-10-02T12:02:33Z</time>
      </trkpt>
      <trkpt lat="47.36618" lon="6.58986">
        <ele>630.789</ele>
        <time>2015-10-02T12:02:34Z</time>
      </trkpt>
      <trkpt lat="47.36616" lon="6.58981">
        <ele>631.296</ele>
        <time>2015-10-02T12:02:35Z</time>
      </trkpt>
      <trkpt lat="47.36613" lon="6.58976">
        <ele>631.065</ele>
        <time>2015-10-02T12:02:36Z</time>
      </trkpt>
      <trkpt lat="47.36611" lon="6.58971">
        <ele>631.983</ele>
        <time>2015-10-02T12:02:37Z</time>
      </trkpt>
      <trkpt lat="47.36608" lon="6.58964">
        <ele>632.922</ele>
        <time>2015-10-02T12:02:38Z</time>
      </trkpt>
      <trkpt lat="47.36604" lon="6.58961">
        <ele>635.138</ele>
        <time>2015-10-02T12:02:39Z</time>
      </trkpt>
      <trkpt lat="47.366" lon="6.58956">
        <ele>633.295</ele>
        <time>2015-10-02T12:02:40Z</time>
      </trkpt>
      <trkpt lat="47.36597" lon="6.5895">
        <ele>633.425</ele>
        <time>2015-10-02T12:02:41Z</time>
      </trkpt>
      <trkpt lat="47.36595" lon="6.58945">
        <ele>632.365</ele>
        <time>2015-10-02T12:02:42Z</time>
      </trkpt>
      <trkpt lat="47.36593" lon="6.58941">
        <ele>632.874</ele>
        <time>2015-10-02T12:02:43Z</time>
      </trkpt>
      <trkpt lat="47.36592" lon="6.58937">
        <ele>630.936</ele>
        <time>2015-10-02T12:02:44Z</time>
      </trkpt>
      <trkpt lat="47.3659" lon="6.58934">
        <ele>631.119</ele>
        <time>2015-10-02T12:02:45Z</time>
      </trkpt>
      <trkpt lat="47.3659" lon="6.58931">
        <ele>632.134</ele>
        <time>2015-10-02T12:02:46Z</time>
      </trkpt>
      <trkpt lat="47.36589" lon="6.58929">
        <ele>633.444</ele>
        <time>2015-10-02T12:02:47Z</time>
      </trkpt>
      <trkpt lat="47.36589" lon="6.58924">
        <ele>633.772</ele>
        <time>2015-10-02T12:02:48Z</time>
      </trkpt>
      <trkpt lat="47.36589" lon="6.58923">
        <ele>634.906</ele>
        <time>2015-10-02T12:02:49Z</time>
      </trkpt>
      <trkpt lat="47.36588" lon="6.58922">
        <ele>634.565</ele>
        <time>2015-10-02T12:02:50Z</time>
      </trkpt>
      <trkpt lat="47.36587" lon="6.58922">
        <ele>635.573</ele>
        <time>2015-10-02T12:02:59Z</time>
      </trkpt>
      <trkpt lat="47.36586" lon="6.58922">
        <ele>634.717</ele>
        <time>2015-10-02T12:03:00Z</time>
      </trkpt>
      <trkpt lat="47.36584" lon="6.58922">
        <ele>634.07</ele>
        <time>2015-10-02T12:03:07Z</time>
      </trkpt>
      <trkpt lat="47.36584" lon="6.58922">
        <ele>635.576</ele>
        <time>2015-10-02T12:03:11Z</time>
      </trkpt>
      <trkpt lat="47.36587" lon="6.58922">
        <ele>639.952</ele>
        <time>2015-10-02T12:03:14Z</time>
      </trkpt>
      <trkpt lat="47.36589" lon="6.58923">
        <ele>639.391</ele>
        <time>2015-10-02T12:03:15Z</time>
      </trkpt>
      <trkpt lat="47.3659" lon="6.58925">
        <ele>631.031</ele>
        <time>2015-10-02T12:03:18Z</time>
      </trkpt>
      <trkpt lat="47.36591" lon="6.58927">
        <ele>630.865</ele>
        <time>2015-10-02T12:03:20Z</time>
      </trkpt>
      <trkpt lat="47.36592" lon="6.58925">
        <ele>639.627</ele>
        <time>2015-10-02T12:03:59Z</time>
      </trkpt>
      <trkpt lat="47.36594" lon="6.58921">
        <ele>642.722</ele>
        <time>2015-10-02T12:04:08Z</time>
      </trkpt>
      <trkpt lat="47.36593" lon="6.58921">
        <ele>642.054</ele>
        <time>2015-10-02T12:04:10Z</time>
      </trkpt>
      <trkpt lat="47.36591" lon="6.58925">
        <ele>648.89</ele>
        <time>2015-10-02T12:04:22Z</time>
      </trkpt>
      <trkpt lat="47.36589" lon="6.58926">
        <ele>650.793</ele>
        <time>2015-10-02T12:04:30Z</time>
      </trkpt>
      <trkpt lat="47.3659" lon="6.58926">
        <ele>651.4</ele>
        <time>2015-10-02T12:04:34Z</time>
      </trkpt>
      <trkpt lat="47.36591" lon="6.58925">
        <ele>649.128</ele>
        <time>2015-10-02T12:04:40Z</time>
      </trkpt>
      <trkpt lat="47.36592" lon="6.58925">
        <ele>649.098</ele>
        <time>2015-10-02T12:04:45Z</time>
      </trkpt>
      <trkpt lat="47.36595" lon="6.58927">
        <ele>647.855</ele>
        <time>2015-10-02T12:04:48Z</time>
      </trkpt>
      <trkpt lat="47.36597" lon="6.58926">
        <ele>647.535</ele>
        <time>2015-10-02T12:04:55Z</time>
      </trkpt>
      <trkpt lat="47.36598" lon="6.58927">
        <ele>644.91</ele>
        <time>2015-10-02T12:05:04Z</time>
      </trkpt>
      <trkpt lat="47.36595" lon="6.58928">
        <ele>642.506</ele>
        <time>2015-10-02T12:05:07Z</time>
      </trkpt>
      <trkpt lat="47.36596" lon="6.58932">
        <ele>641.515</ele>
        <time>2015-10-02T12:05:10Z</time>
      </trkpt>
      <trkpt lat="47.36596" lon="6.58932">
        <ele>641.798</ele>
        <time>2015-10-02T12:05:11Z</time>
      </trkpt>
      <trkpt lat="47.36597" lon="6.58933">
        <ele>642.021</ele>
        <time>2015-10-02T12:05:13Z</time>
      </trkpt>
      <trkpt lat="47.36596" lon="6.58934">
        <ele>644.759</ele>
        <time>2015-10-02T12:05:17Z</time>
      </trkpt>
      <trkpt lat="47.36595" lon="6.58934">
        <ele>644.144</ele>
        <time>2015-10-02T12:05:21Z</time>
      </trkpt>
      <trkpt lat="47.36593" lon="6.58932">
        <ele>644.249</ele>
        <time>2015-10-02T12:05:24Z</time>
      </trkpt>
      <trkpt lat="47.36592" lon="6.58928">
        <ele>643.248</ele>
        <time>2015-10-02T12:05:30Z</time>
      </trkpt>
      <trkpt lat="47.36588" lon="6.58924">
        <ele>638.808</ele>
        <time>2015-10-02T12:05:44Z</time>
      </trkpt>
      <trkpt lat="47.36587" lon="6.58923">
        <ele>641.459</ele>
        <time>2015-10-02T12:05:46Z</time>
      </trkpt>
      <trkpt lat="47.36585" lon="6.58922">
        <ele>640.207</ele>
        <time>2015-10-02T12:05:51Z</time>
      </trkpt>
      <trkpt lat="47.36585" lon="6.58923">
        <ele>634.476</ele>
        <time>2015-10-02T12:06:02Z</time>
      </trkpt>
      <trkpt lat="47.36584" lon="6.58925">
        <ele>634.624</ele>
        <time>2015-10-02T12:06:07Z</time>
      </trkpt>
      <trkpt lat="47.36582" lon="6.58925">
        <ele>629.806</ele>
        <time>2015-10-02T12:06:19Z</time>
      </trkpt>
      <trkpt lat="47.36583" lon="6.58922">
        <ele>629.942</ele>
        <time>2015-10-02T12:06:38Z</time>
      </trkpt>
      <trkpt lat="47.36583" lon="6.58924">
        <ele>639.306</ele>
        <time>2015-10-02T12:06:55Z</time>
      </trkpt>
      <trkpt lat="47.36584" lon="6.58925">
        <ele>638.391</ele>
        <time>2015-10-02T12:07:03Z</time>
      </trkpt>
      <trkpt lat="47.36584" lon="6.58924">
        <ele>637.217</ele>
        <time>2015-10-02T12:07:09Z</time>
      </trkpt>
      <trkpt lat="47.36585" lon="6.58924">
        <ele>641.844</ele>
        <time>2015-10-02T12:07:27Z</time>
      </trkpt>
      <trkpt lat="47.36585" lon="6.58923">
        <ele>643.717</ele>
        <time>2015-10-02T12:07:31Z</time>
      </trkpt>
      <trkpt lat="47.36584" lon="6.58921">
        <ele>634.615</ele>
        <time>2015-10-02T12:07:36Z</time>
      </trkpt>
      <trkpt lat="47.36581" lon="6.58919">
        <ele>633.101</ele>
        <time>2015-10-02T12:07:39Z</time>
      </trkpt>
      <trkpt lat="47.36581" lon="6.58917">
        <ele>631.082</ele>
        <time>2015-10-02T12:07:43Z</time>
      </trkpt>
      <trkpt lat="47.36584" lon="6.58917">
        <ele>630.568</ele>
        <time>2015-10-02T12:07:54Z</time>
      </trkpt>
      <trkpt lat="47.36583" lon="6.58917">
        <ele>631.088</ele>
        <time>2015-10-02T12:07:57Z</time>
      </trkpt>
      <trkpt lat="47.36581" lon="6.58917">
        <ele>632.675</ele>
        <time>2015-10-02T12:08:03Z</time>
      </trkpt>
      <trkpt lat="47.36579" lon="6.58916">
        <ele>629.473</ele>
        <time>2015-10-02T12:08:13Z</time>
      </trkpt>
      <trkpt lat="47.36581" lon="6.58915">
        <ele>636.136</ele>
        <time>2015-10-02T12:08:20Z</time>
      </trkpt>
      <trkpt lat="47.3658" lon="6.58917">
        <ele>637.259</ele>
        <time>2015-10-02T12:08:24Z</time>
      </trkpt>
      <trkpt lat="47.3658" lon="6.58918">
        <ele>636.933</ele>
        <time>2015-10-02T12:08:26Z</time>
      </trkpt>
      <trkpt lat="47.36582" lon="6.58919">
        <ele>637.882</ele>
        <time>2015-10-02T12:08:29Z</time>
      </trkpt>
      <trkpt lat="47.36584" lon="6.58918">
        <ele>636.732</ele>
        <time>2015-10-02T12:08:35Z</time>
      </trkpt>
      <trkpt lat="47.36586" lon="6.58916">
        <ele>635.472</ele>
        <time>2015-10-02T12:08:41Z</time>
      </trkpt>
      <trkpt lat="47.36585" lon="6.58918">
        <ele>639.359</ele>
        <time>2015-10-02T12:08:47Z</time>
      </trkpt>
      <trkpt lat="47.36586" lon="6.58918">
        <ele>642.482</ele>
        <time>2015-10-02T12:08:55Z</time>
      </trkpt>
      <trkpt lat="47.36584" lon="6.58919">
        <ele>637.794</ele>
        <time>2015-10-02T12:09:03Z</time>
      </trkpt>
      <trkpt lat="47.36582" lon="6.58919">
        <ele>637.652</ele>
        <time>2015-10-02T12:09:06Z</time>
      </trkpt>
      <trkpt lat="47.36583" lon="6.5892">
        <ele>634.735</ele>
        <time>2015-10-02T12:09:15Z</time>
      </trkpt>
      <trkpt lat="47.36582" lon="6.58921">
        <ele>635.706</ele>
        <time>2015-10-02T12:09:28Z</time>
      </trkpt>
      <trkpt lat="47.36581" lon="6.58923">
        <ele>634.957</ele>
        <time>2015-10-02T12:09:31Z</time>
      </trkpt>
      <trkpt lat="47.3658" lon="6.58925">
        <ele>634.542</ele>
        <time>2015-10-02T12:09:33Z</time>
      </trkpt>
      <trkpt lat="47.36581" lon="6.58926">
        <ele>632.023</ele>
        <time>2015-10-02T12:09:47Z</time>
      </trkpt>
      <trkpt lat="47.36582" lon="6.58925">
        <ele>632.56</ele>
        <time>2015-10-02T12:09:49Z</time>
      </trkpt>
      <trkpt lat="47.36586" lon="6.58928">
        <ele>635.69</ele>
        <time>2015-10-02T12:09:56Z</time>
      </trkpt>
      <trkpt lat="47.36586" lon="6.58925">
        <ele>633.653</ele>
        <time>2015-10-02T12:10:03Z</time>
      </trkpt>
      <trkpt lat="47.36585" lon="6.58925">
        <ele>632.473</ele>
        <time>2015-10-02T12:10:04Z</time>
      </trkpt>
      <trkpt lat="47.36585" lon="6.58924">
        <ele>630.849</ele>
        <time>2015-10-02T12:10:05Z</time>
      </trkpt>
      <trkpt lat="47.36583" lon="6.58923">
        <ele>628.714</ele>
        <time>2015-10-02T12:10:07Z</time>
      </trkpt>
      <trkpt lat="47.36581" lon="6.58923">
        <ele>625.436</ele>
        <time>2015-10-02T12:10:08Z</time>
      </trkpt>
      <trkpt lat="47.3658" lon="6.58922">
        <ele>625.188</ele>
        <time>2015-10-02T12:10:09Z</time>
      </trkpt>
      <trkpt lat="47.36578" lon="6.58921">
        <ele>625.136</ele>
        <time>2015-10-02T12:10:10Z</time>
      </trkpt>
      <trkpt lat="47.36576" lon="6.58919">
        <ele>626.555</ele>
        <time>2015-10-02T12:10:11Z</time>
      </trkpt>
      <trkpt lat="47.36575" lon="6.58917">
        <ele>627.592</ele>
        <time>2015-10-02T12:10:12Z</time>
      </trkpt>
      <trkpt lat="47.36573" lon="6.58915">
        <ele>628.264</ele>
        <time>2015-10-02T12:10:13Z</time>
      </trkpt>
      <trkpt lat="47.36572" lon="6.58912">
        <ele>629.106</ele>
        <time>2015-10-02T12:10:14Z</time>
      </trkpt>
      <trkpt lat="47.3657" lon="6.58909">
        <ele>629.728</ele>
        <time>2015-10-02T12:10:15Z</time>
      </trkpt>
      <trkpt lat="47.36568" lon="6.58905">
        <ele>631.359</ele>
        <time>2015-10-02T12:10:16Z</time>
      </trkpt>
      <trkpt lat="47.36567" lon="6.58901">
        <ele>629.826</ele>
        <time>2015-10-02T12:10:17Z</time>
      </trkpt>
      <trkpt lat="47.36565" lon="6.58896">
        <ele>630.402</ele>
        <time>2015-10-02T12:10:18Z</time>
      </trkpt>
      <trkpt lat="47.36563" lon="6.58892">
        <ele>627.529</ele>
        <time>2015-10-02T12:10:19Z</time>
      </trkpt>
      <trkpt lat="47.3656" lon="6.58887">
        <ele>627.51</ele>
        <time>2015-10-02T12:10:20Z</time>
      </trkpt>
      <trkpt lat="47.36557" lon="6.58882">
        <ele>627.803</ele>
        <time>2015-10-02T12:10:21Z</time>
      </trkpt>
      <trkpt lat="47.36554" lon="6.58875">
        <ele>628.067</ele>
        <time>2015-10-02T12:10:22Z</time>
      </trkpt>
      <trkpt lat="47.36552" lon="6.58868">
        <ele>627.718</ele>
        <time>2015-10-02T12:10:23Z</time>
      </trkpt>
      <trkpt lat="47.36549" lon="6.58861">
        <ele>627.782</ele>
        <time>2015-10-02T12:10:24Z</time>
      </trkpt>
      <trkpt lat="47.36545" lon="6.58856">
        <ele>628.582</ele>
        <time>2015-10-02T12:10:25Z</time>
      </trkpt>
      <trkpt lat="47.36542" lon="6.58848">
        <ele>629.023</ele>
        <time>2015-10-02T12:10:26Z</time>
      </trkpt>
      <trkpt lat="47.36538" lon="6.58841">
        <ele>628.055</ele>
        <time>2015-10-02T12:10:27Z</time>
      </trkpt>
      <trkpt lat="47.36532" lon="6.58834">
        <ele>625.565</ele>
        <time>2015-10-02T12:10:28Z</time>
      </trkpt>
      <trkpt lat="47.36526" lon="6.58826">
        <ele>623.129</ele>
        <time>2015-10-02T12:10:29Z</time>
      </trkpt>
      <trkpt lat="47.36522" lon="6.58819">
        <ele>623.712</ele>
        <time>2015-10-02T12:10:30Z</time>
      </trkpt>
      <trkpt lat="47.36519" lon="6.58811">
        <ele>623.908</ele>
        <time>2015-10-02T12:10:31Z</time>
      </trkpt>
      <trkpt lat="47.36516" lon="6.58801">
        <ele>623.576</ele>
        <time>2015-10-02T12:10:32Z</time>
      </trkpt>
      <trkpt lat="47.36514" lon="6.58793">
        <ele>623.692</ele>
        <time>2015-10-02T12:10:33Z</time>
      </trkpt>
      <trkpt lat="47.3651" lon="6.58784">
        <ele>623.615</ele>
        <time>2015-10-02T12:10:34Z</time>
      </trkpt>
      <trkpt lat="47.36506" lon="6.58776">
        <ele>623.16</ele>
        <time>2015-10-02T12:10:35Z</time>
      </trkpt>
      <trkpt lat="47.36503" lon="6.58767">
        <ele>623.164</ele>
        <time>2015-10-02T12:10:36Z</time>
      </trkpt>
      <trkpt lat="47.36497" lon="6.5876">
        <ele>621.095</ele>
        <time>2015-10-02T12:10:37Z</time>
      </trkpt>
      <trkpt lat="47.36495" lon="6.58749">
        <ele>620.867</ele>
        <time>2015-10-02T12:10:38Z</time>
      </trkpt>
      <trkpt lat="47.36491" lon="6.5874">
        <ele>620.986</ele>
        <time>2015-10-02T12:10:39Z</time>
      </trkpt>
      <trkpt lat="47.36486" lon="6.58732">
        <ele>619.706</ele>
        <time>2015-10-02T12:10:40Z</time>
      </trkpt>
      <trkpt lat="47.36483" lon="6.58721">
        <ele>618.399</ele>
        <time>2015-10-02T12:10:41Z</time>
      </trkpt>
      <trkpt lat="47.36479" lon="6.5871">
        <ele>618.321</ele>
        <time>2015-10-02T12:10:42Z</time>
      </trkpt>
      <trkpt lat="47.36475" lon="6.58699">
        <ele>617.466</ele>
        <time>2015-10-02T12:10:43Z</time>
      </trkpt>
      <trkpt lat="47.36471" lon="6.58688">
        <ele>617.01</ele>
        <time>2015-10-02T12:10:44Z</time>
      </trkpt>
      <trkpt lat="47.36467" lon="6.58678">
        <ele>617.182</ele>
        <time>2015-10-02T12:10:45Z</time>
      </trkpt>
      <trkpt lat="47.36466" lon="6.58668">
        <ele>620.79</ele>
        <time>2015-10-02T12:10:46Z</time>
      </trkpt>
      <trkpt lat="47.36462" lon="6.58659">
        <ele>620.551</ele>
        <time>2015-10-02T12:10:47Z</time>
      </trkpt>
      <trkpt lat="47.36456" lon="6.58652">
        <ele>622.05</ele>
        <time>2015-10-02T12:10:48Z</time>
      </trkpt>
      <trkpt lat="47.36451" lon="6.58641">
        <ele>621</ele>
        <time>2015-10-02T12:10:49Z</time>
      </trkpt>
      <trkpt lat="47.36446" lon="6.58632">
        <ele>620.699</ele>
        <time>2015-10-02T12:10:50Z</time>
      </trkpt>
      <trkpt lat="47.36441" lon="6.58623">
        <ele>619.824</ele>
        <time>2015-10-02T12:10:51Z</time>
      </trkpt>
      <trkpt lat="47.36437" lon="6.58612">
        <ele>619.677</ele>
        <time>2015-10-02T12:10:52Z</time>
      </trkpt>
      <trkpt lat="47.36431" lon="6.58601">
        <ele>618.788</ele>
        <time>2015-10-02T12:10:53Z</time>
      </trkpt>
      <trkpt lat="47.36426" lon="6.58591">
        <ele>618.673</ele>
        <time>2015-10-02T12:10:54Z</time>
      </trkpt>
      <trkpt lat="47.3642" lon="6.58581">
        <ele>619.133</ele>
        <time>2015-10-02T12:10:55Z</time>
      </trkpt>
      <trkpt lat="47.36414" lon="6.58571">
        <ele>618.865</ele>
        <time>2015-10-02T12:10:56Z</time>
      </trkpt>
      <trkpt lat="47.36411" lon="6.5856">
        <ele>619.998</ele>
        <time>2015-10-02T12:10:57Z</time>
      </trkpt>
      <trkpt lat="47.36404" lon="6.58551">
        <ele>615.966</ele>
        <time>2015-10-02T12:10:58Z</time>
      </trkpt>
      <trkpt lat="47.36401" lon="6.58541">
        <ele>616.866</ele>
        <time>2015-10-02T12:10:59Z</time>
      </trkpt>
      <trkpt lat="47.36398" lon="6.58527">
        <ele>617.829</ele>
        <time>2015-10-02T12:11:00Z</time>
      </trkpt>
      <trkpt lat="47.36395" lon="6.58514">
        <ele>619.105</ele>
        <time>2015-10-02T12:11:01Z</time>
      </trkpt>
      <trkpt lat="47.3639" lon="6.58503">
        <ele>620.928</ele>
        <time>2015-10-02T12:11:02Z</time>
      </trkpt>
      <trkpt lat="47.36385" lon="6.58492">
        <ele>622.403</ele>
        <time>2015-10-02T12:11:03Z</time>
      </trkpt>
      <trkpt lat="47.3638" lon="6.58481">
        <ele>622.389</ele>
        <time>2015-10-02T12:11:04Z</time>
      </trkpt>
      <trkpt lat="47.36376" lon="6.58469">
        <ele>624.019</ele>
        <time>2015-10-02T12:11:05Z</time>
      </trkpt>
      <trkpt lat="47.36373" lon="6.58458">
        <ele>625.104</ele>
        <time>2015-10-02T12:11:06Z</time>
      </trkpt>
      <trkpt lat="47.36371" lon="6.58448">
        <ele>624.598</ele>
        <time>2015-10-02T12:11:07Z</time>
      </trkpt>
      <trkpt lat="47.36366" lon="6.58436">
        <ele>623.934</ele>
        <time>2015-10-02T12:11:08Z</time>
      </trkpt>
      <trkpt lat="47.3636" lon="6.58424">
        <ele>617.916</ele>
        <time>2015-10-02T12:11:09Z</time>
      </trkpt>
      <trkpt lat="47.36357" lon="6.58412">
        <ele>617.779</ele>
        <time>2015-10-02T12:11:10Z</time>
      </trkpt>
      <trkpt lat="47.36354" lon="6.58399">
        <ele>615.811</ele>
        <time>2015-10-02T12:11:11Z</time>
      </trkpt>
      <trkpt lat="47.36349" lon="6.58388">
        <ele>615.175</ele>
        <time>2015-10-02T12:11:12Z</time>
      </trkpt>
      <trkpt lat="47.36345" lon="6.58377">
        <ele>613.2</ele>
        <time>2015-10-02T12:11:13Z</time>
      </trkpt>
      <trkpt lat="47.36343" lon="6.58364">
        <ele>613.847</ele>
        <time>2015-10-02T12:11:14Z</time>
      </trkpt>
      <trkpt lat="47.3634" lon="6.58351">
        <ele>612.471</ele>
        <time>2015-10-02T12:11:15Z</time>
      </trkpt>
      <trkpt lat="47.36339" lon="6.5834">
        <ele>616.651</ele>
        <time>2015-10-02T12:11:16Z</time>
      </trkpt>
      <trkpt lat="47.36337" lon="6.58328">
        <ele>618.455</ele>
        <time>2015-10-02T12:11:17Z</time>
      </trkpt>
      <trkpt lat="47.36334" lon="6.58315">
        <ele>618.282</ele>
        <time>2015-10-02T12:11:18Z</time>
      </trkpt>
      <trkpt lat="47.36332" lon="6.58304">
        <ele>619.147</ele>
        <time>2015-10-02T12:11:19Z</time>
      </trkpt>
      <trkpt lat="47.3633" lon="6.58294">
        <ele>619.641</ele>
        <time>2015-10-02T12:11:20Z</time>
      </trkpt>
      <trkpt lat="47.36326" lon="6.58281">
        <ele>620.757</ele>
        <time>2015-10-02T12:11:21Z</time>
      </trkpt>
      <trkpt lat="47.36323" lon="6.58267">
        <ele>618.983</ele>
        <time>2015-10-02T12:11:22Z</time>
      </trkpt>
      <trkpt lat="47.36319" lon="6.58254">
        <ele>617.934</ele>
        <time>2015-10-02T12:11:23Z</time>
      </trkpt>
      <trkpt lat="47.36316" lon="6.58241">
        <ele>619.495</ele>
        <time>2015-10-02T12:11:24Z</time>
      </trkpt>
      <trkpt lat="47.36313" lon="6.58229">
        <ele>620.128</ele>
        <time>2015-10-02T12:11:25Z</time>
      </trkpt>
      <trkpt lat="47.36308" lon="6.58218">
        <ele>620.497</ele>
        <time>2015-10-02T12:11:26Z</time>
      </trkpt>
      <trkpt lat="47.36304" lon="6.58205">
        <ele>619.099</ele>
        <time>2015-10-02T12:11:27Z</time>
      </trkpt>
      <trkpt lat="47.36299" lon="6.58193">
        <ele>618.456</ele>
        <time>2015-10-02T12:11:28Z</time>
      </trkpt>
      <trkpt lat="47.36295" lon="6.58181">
        <ele>618.625</ele>
        <time>2015-10-02T12:11:29Z</time>
      </trkpt>
      <trkpt lat="47.36291" lon="6.58169">
        <ele>618.272</ele>
        <time>2015-10-02T12:11:30Z</time>
      </trkpt>
      <trkpt lat="47.36283" lon="6.58156">
        <ele>613.989</ele>
        <time>2015-10-02T12:11:31Z</time>
      </trkpt>
      <trkpt lat="47.36282" lon="6.58143">
        <ele>615.057</ele>
        <time>2015-10-02T12:11:32Z</time>
      </trkpt>
      <trkpt lat="47.3628" lon="6.5813">
        <ele>616.453</ele>
        <time>2015-10-02T12:11:33Z</time>
      </trkpt>
      <trkpt lat="47.36279" lon="6.58118">
        <ele>618.884</ele>
        <time>2015-10-02T12:11:34Z</time>
      </trkpt>
      <trkpt lat="47.36276" lon="6.58106">
        <ele>619.298</ele>
        <time>2015-10-02T12:11:35Z</time>
      </trkpt>
      <trkpt lat="47.36271" lon="6.58093">
        <ele>615.515</ele>
        <time>2015-10-02T12:11:36Z</time>
      </trkpt>
      <trkpt lat="47.36267" lon="6.58083">
        <ele>614.182</ele>
        <time>2015-10-02T12:11:37Z</time>
      </trkpt>
      <trkpt lat="47.36265" lon="6.58072">
        <ele>613.537</ele>
        <time>2015-10-02T12:11:38Z</time>
      </trkpt>
      <trkpt lat="47.36264" lon="6.58061">
        <ele>615.501</ele>
        <time>2015-10-02T12:11:39Z</time>
      </trkpt>
      <trkpt lat="47.36261" lon="6.58047">
        <ele>611.406</ele>
        <time>2015-10-02T12:11:40Z</time>
      </trkpt>
      <trkpt lat="47.36259" lon="6.58036">
        <ele>611.877</ele>
        <time>2015-10-02T12:11:41Z</time>
      </trkpt>
      <trkpt lat="47.36258" lon="6.58026">
        <ele>610.753</ele>
        <time>2015-10-02T12:11:42Z</time>
      </trkpt>
      <trkpt lat="47.36258" lon="6.58015">
        <ele>612.313</ele>
        <time>2015-10-02T12:11:43Z</time>
      </trkpt>
      <trkpt lat="47.36258" lon="6.58006">
        <ele>612.211</ele>
        <time>2015-10-02T12:11:44Z</time>
      </trkpt>
      <trkpt lat="47.36256" lon="6.57997">
        <ele>612.321</ele>
        <time>2015-10-02T12:11:45Z</time>
      </trkpt>
      <trkpt lat="47.36256" lon="6.57986">
        <ele>611.897</ele>
        <time>2015-10-02T12:11:46Z</time>
      </trkpt>
      <trkpt lat="47.36254" lon="6.57978">
        <ele>611.913</ele>
        <time>2015-10-02T12:11:47Z</time>
      </trkpt>
      <trkpt lat="47.36253" lon="6.5797">
        <ele>610.865</ele>
        <time>2015-10-02T12:11:48Z</time>
      </trkpt>
      <trkpt lat="47.36253" lon="6.57962">
        <ele>612.705</ele>
        <time>2015-10-02T12:11:49Z</time>
      </trkpt>
      <trkpt lat="47.36252" lon="6.57955">
        <ele>612.582</ele>
        <time>2015-10-02T12:11:50Z</time>
      </trkpt>
      <trkpt lat="47.36249" lon="6.57945">
        <ele>612.222</ele>
        <time>2015-10-02T12:11:51Z</time>
      </trkpt>
      <trkpt lat="47.36247" lon="6.57937">
        <ele>611.573</ele>
        <time>2015-10-02T12:11:52Z</time>
      </trkpt>
      <trkpt lat="47.36245" lon="6.57929">
        <ele>610.52</ele>
        <time>2015-10-02T12:11:53Z</time>
      </trkpt>
      <trkpt lat="47.36245" lon="6.57921">
        <ele>610.067</ele>
        <time>2015-10-02T12:11:54Z</time>
      </trkpt>
      <trkpt lat="47.36243" lon="6.57916">
        <ele>611.422</ele>
        <time>2015-10-02T12:11:55Z</time>
      </trkpt>
      <trkpt lat="47.36243" lon="6.57907">
        <ele>611.386</ele>
        <time>2015-10-02T12:11:56Z</time>
      </trkpt>
      <trkpt lat="47.36241" lon="6.579">
        <ele>611.039</ele>
        <time>2015-10-02T12:11:57Z</time>
      </trkpt>
      <trkpt lat="47.3624" lon="6.57893">
        <ele>610.694</ele>
        <time>2015-10-02T12:11:58Z</time>
      </trkpt>
      <trkpt lat="47.36237" lon="6.57887">
        <ele>610.577</ele>
        <time>2015-10-02T12:11:59Z</time>
      </trkpt>
      <trkpt lat="47.36237" lon="6.57881">
        <ele>611.663</ele>
        <time>2015-10-02T12:12:00Z</time>
      </trkpt>
      <trkpt lat="47.36234" lon="6.57875">
        <ele>610.265</ele>
        <time>2015-10-02T12:12:01Z</time>
      </trkpt>
      <trkpt lat="47.36233" lon="6.57867">
        <ele>608.597</ele>
        <time>2015-10-02T12:12:02Z</time>
      </trkpt>
      <trkpt lat="47.36232" lon="6.5786">
        <ele>606.736</ele>
        <time>2015-10-02T12:12:03Z</time>
      </trkpt>
      <trkpt lat="47.3623" lon="6.57853">
        <ele>607.153</ele>
        <time>2015-10-02T12:12:04Z</time>
      </trkpt>
      <trkpt lat="47.36229" lon="6.57847">
        <ele>606.7</ele>
        <time>2015-10-02T12:12:05Z</time>
      </trkpt>
      <trkpt lat="47.36229" lon="6.5784">
        <ele>607.578</ele>
        <time>2015-10-02T12:12:06Z</time>
      </trkpt>
      <trkpt lat="47.36227" lon="6.57834">
        <ele>607.543</ele>
        <time>2015-10-02T12:12:07Z</time>
      </trkpt>
      <trkpt lat="47.36226" lon="6.5783">
        <ele>609.162</ele>
        <time>2015-10-02T12:12:08Z</time>
      </trkpt>
      <trkpt lat="47.36225" lon="6.57823">
        <ele>609.05</ele>
        <time>2015-10-02T12:12:09Z</time>
      </trkpt>
      <trkpt lat="47.36224" lon="6.57817">
        <ele>609.188</ele>
        <time>2015-10-02T12:12:10Z</time>
      </trkpt>
      <trkpt lat="47.36222" lon="6.5781">
        <ele>609.545</ele>
        <time>2015-10-02T12:12:11Z</time>
      </trkpt>
      <trkpt lat="47.36221" lon="6.57805">
        <ele>610.129</ele>
        <time>2015-10-02T12:12:12Z</time>
      </trkpt>
      <trkpt lat="47.3622" lon="6.57796">
        <ele>609.421</ele>
        <time>2015-10-02T12:12:13Z</time>
      </trkpt>
      <trkpt lat="47.36218" lon="6.57791">
        <ele>609.48</ele>
        <time>2015-10-02T12:12:14Z</time>
      </trkpt>
      <trkpt lat="47.36219" lon="6.57784">
        <ele>610.208</ele>
        <time>2015-10-02T12:12:15Z</time>
      </trkpt>
      <trkpt lat="47.3622" lon="6.57779">
        <ele>611.637</ele>
        <time>2015-10-02T12:12:16Z</time>
      </trkpt>
      <trkpt lat="47.36217" lon="6.57774">
        <ele>611.546</ele>
        <time>2015-10-02T12:12:17Z</time>
      </trkpt>
      <trkpt lat="47.36216" lon="6.57764">
        <ele>609.786</ele>
        <time>2015-10-02T12:12:18Z</time>
      </trkpt>
      <trkpt lat="47.36215" lon="6.57756">
        <ele>609.217</ele>
        <time>2015-10-02T12:12:19Z</time>
      </trkpt>
      <trkpt lat="47.36214" lon="6.57752">
        <ele>610.772</ele>
        <time>2015-10-02T12:12:20Z</time>
      </trkpt>
      <trkpt lat="47.36213" lon="6.57745">
        <ele>611.312</ele>
        <time>2015-10-02T12:12:21Z</time>
      </trkpt>
      <trkpt lat="47.36215" lon="6.57733">
        <ele>610.585</ele>
        <time>2015-10-02T12:12:22Z</time>
      </trkpt>
      <trkpt lat="47.36213" lon="6.57724">
        <ele>609.548</ele>
        <time>2015-10-02T12:12:23Z</time>
      </trkpt>
      <trkpt lat="47.36216" lon="6.57718">
        <ele>610.491</ele>
        <time>2015-10-02T12:12:24Z</time>
      </trkpt>
      <trkpt lat="47.36216" lon="6.57711">
        <ele>610.299</ele>
        <time>2015-10-02T12:12:25Z</time>
      </trkpt>
      <trkpt lat="47.36215" lon="6.57706">
        <ele>610.686</ele>
        <time>2015-10-02T12:12:26Z</time>
      </trkpt>
      <trkpt lat="47.36214" lon="6.57701">
        <ele>610.203</ele>
        <time>2015-10-02T12:12:27Z</time>
      </trkpt>
      <trkpt lat="47.36209" lon="6.57694">
        <ele>607.284</ele>
        <time>2015-10-02T12:12:28Z</time>
      </trkpt>
      <trkpt lat="47.36209" lon="6.57685">
        <ele>606.427</ele>
        <time>2015-10-02T12:12:29Z</time>
      </trkpt>
      <trkpt lat="47.36207" lon="6.57682">
        <ele>608.183</ele>
        <time>2015-10-02T12:12:30Z</time>
      </trkpt>
      <trkpt lat="47.36208" lon="6.57676">
        <ele>608.526</ele>
        <time>2015-10-02T12:12:31Z</time>
      </trkpt>
      <trkpt lat="47.36207" lon="6.57671">
        <ele>608.702</ele>
        <time>2015-10-02T12:12:32Z</time>
      </trkpt>
      <trkpt lat="47.36206" lon="6.57665">
        <ele>609.324</ele>
        <time>2015-10-02T12:12:33Z</time>
      </trkpt>
      <trkpt lat="47.36204" lon="6.57661">
        <ele>609.897</ele>
        <time>2015-10-02T12:12:34Z</time>
      </trkpt>
      <trkpt lat="47.36203" lon="6.57657">
        <ele>611.617</ele>
        <time>2015-10-02T12:12:35Z</time>
      </trkpt>
      <trkpt lat="47.36202" lon="6.57651">
        <ele>611.774</ele>
        <time>2015-10-02T12:12:36Z</time>
      </trkpt>
      <trkpt lat="47.36201" lon="6.57644">
        <ele>611.77</ele>
        <time>2015-10-02T12:12:37Z</time>
      </trkpt>
      <trkpt lat="47.362" lon="6.57637">
        <ele>612.015</ele>
        <time>2015-10-02T12:12:38Z</time>
      </trkpt>
      <trkpt lat="47.362" lon="6.57631">
        <ele>613.065</ele>
        <time>2015-10-02T12:12:39Z</time>
      </trkpt>
      <trkpt lat="47.36199" lon="6.57624">
        <ele>613.849</ele>
        <time>2015-10-02T12:12:40Z</time>
      </trkpt>
      <trkpt lat="47.36198" lon="6.57618">
        <ele>613.183</ele>
        <time>2015-10-02T12:12:41Z</time>
      </trkpt>
      <trkpt lat="47.36198" lon="6.57611">
        <ele>613.02</ele>
        <time>2015-10-02T12:12:42Z</time>
      </trkpt>
      <trkpt lat="47.36197" lon="6.57605">
        <ele>612.994</ele>
        <time>2015-10-02T12:12:43Z</time>
      </trkpt>
      <trkpt lat="47.36196" lon="6.57598">
        <ele>612.485</ele>
        <time>2015-10-02T12:12:44Z</time>
      </trkpt>
      <trkpt lat="47.36194" lon="6.57591">
        <ele>612.966</ele>
        <time>2015-10-02T12:12:45Z</time>
      </trkpt>
      <trkpt lat="47.36193" lon="6.57585">
        <ele>613.579</ele>
        <time>2015-10-02T12:12:46Z</time>
      </trkpt>
      <trkpt lat="47.36191" lon="6.57578">
        <ele>614.232</ele>
        <time>2015-10-02T12:12:47Z</time>
      </trkpt>
      <trkpt lat="47.3619" lon="6.57573">
        <ele>615.009</ele>
        <time>2015-10-02T12:12:48Z</time>
      </trkpt>
      <trkpt lat="47.36181" lon="6.57566">
        <ele>612.652</ele>
        <time>2015-10-02T12:12:49Z</time>
      </trkpt>
      <trkpt lat="47.36179" lon="6.57561">
        <ele>612.459</ele>
        <time>2015-10-02T12:12:50Z</time>
      </trkpt>
      <trkpt lat="47.36178" lon="6.57554">
        <ele>612.736</ele>
        <time>2015-10-02T12:12:51Z</time>
      </trkpt>
      <trkpt lat="47.36178" lon="6.57545">
        <ele>610.842</ele>
        <time>2015-10-02T12:12:52Z</time>
      </trkpt>
      <trkpt lat="47.36177" lon="6.5754">
        <ele>611.261</ele>
        <time>2015-10-02T12:12:53Z</time>
      </trkpt>
      <trkpt lat="47.36175" lon="6.57535">
        <ele>611.029</ele>
        <time>2015-10-02T12:12:54Z</time>
      </trkpt>
      <trkpt lat="47.36173" lon="6.57529">
        <ele>611.646</ele>
        <time>2015-10-02T12:12:55Z</time>
      </trkpt>
      <trkpt lat="47.36171" lon="6.57523">
        <ele>611.754</ele>
        <time>2015-10-02T12:12:56Z</time>
      </trkpt>
      <trkpt lat="47.36168" lon="6.57516">
        <ele>610.716</ele>
        <time>2015-10-02T12:12:57Z</time>
      </trkpt>
      <trkpt lat="47.36166" lon="6.57509">
        <ele>610.607</ele>
        <time>2015-10-02T12:12:58Z</time>
      </trkpt>
      <trkpt lat="47.36165" lon="6.57504">
        <ele>610.606</ele>
        <time>2015-10-02T12:12:59Z</time>
      </trkpt>
      <trkpt lat="47.36162" lon="6.57498">
        <ele>609.987</ele>
        <time>2015-10-02T12:13:00Z</time>
      </trkpt>
      <trkpt lat="47.3616" lon="6.57492">
        <ele>609.538</ele>
        <time>2015-10-02T12:13:01Z</time>
      </trkpt>
      <trkpt lat="47.36156" lon="6.57484">
        <ele>609.727</ele>
        <time>2015-10-02T12:13:02Z</time>
      </trkpt>
      <trkpt lat="47.36153" lon="6.57473">
        <ele>611.075</ele>
        <time>2015-10-02T12:13:03Z</time>
      </trkpt>
      <trkpt lat="47.36153" lon="6.57468">
        <ele>611.774</ele>
        <time>2015-10-02T12:13:04Z</time>
      </trkpt>
      <trkpt lat="47.36152" lon="6.57462">
        <ele>611.382</ele>
        <time>2015-10-02T12:13:05Z</time>
      </trkpt>
      <trkpt lat="47.36151" lon="6.57459">
        <ele>612.162</ele>
        <time>2015-10-02T12:13:06Z</time>
      </trkpt>
      <trkpt lat="47.3615" lon="6.57454">
        <ele>612.54</ele>
        <time>2015-10-02T12:13:07Z</time>
      </trkpt>
      <trkpt lat="47.36149" lon="6.57449">
        <ele>611.981</ele>
        <time>2015-10-02T12:13:08Z</time>
      </trkpt>
      <trkpt lat="47.36146" lon="6.57443">
        <ele>610.516</ele>
        <time>2015-10-02T12:13:09Z</time>
      </trkpt>
      <trkpt lat="47.36143" lon="6.57437">
        <ele>613.094</ele>
        <time>2015-10-02T12:13:10Z</time>
      </trkpt>
      <trkpt lat="47.36138" lon="6.57434">
        <ele>607.643</ele>
        <time>2015-10-02T12:13:11Z</time>
      </trkpt>
      <trkpt lat="47.36137" lon="6.57427">
        <ele>606.736</ele>
        <time>2015-10-02T12:13:12Z</time>
      </trkpt>
      <trkpt lat="47.36136" lon="6.5742">
        <ele>608.306</ele>
        <time>2015-10-02T12:13:13Z</time>
      </trkpt>
      <trkpt lat="47.36135" lon="6.57413">
        <ele>608.354</ele>
        <time>2015-10-02T12:13:14Z</time>
      </trkpt>
      <trkpt lat="47.36133" lon="6.57405">
        <ele>607.307</ele>
        <time>2015-10-02T12:13:15Z</time>
      </trkpt>
      <trkpt lat="47.36131" lon="6.57399">
        <ele>606.503</ele>
        <time>2015-10-02T12:13:16Z</time>
      </trkpt>
      <trkpt lat="47.36128" lon="6.57393">
        <ele>606.898</ele>
        <time>2015-10-02T12:13:17Z</time>
      </trkpt>
      <trkpt lat="47.36126" lon="6.57387">
        <ele>607.283</ele>
        <time>2015-10-02T12:13:18Z</time>
      </trkpt>
      <trkpt lat="47.36125" lon="6.57381">
        <ele>608.557</ele>
        <time>2015-10-02T12:13:19Z</time>
      </trkpt>
      <trkpt lat="47.36123" lon="6.57376">
        <ele>610.887</ele>
        <time>2015-10-02T12:13:20Z</time>
      </trkpt>
      <trkpt lat="47.36122" lon="6.5737">
        <ele>608.172</ele>
        <time>2015-10-02T12:13:21Z</time>
      </trkpt>
      <trkpt lat="47.36119" lon="6.57365">
        <ele>605.258</ele>
        <time>2015-10-02T12:13:22Z</time>
      </trkpt>
      <trkpt lat="47.36117" lon="6.57359">
        <ele>607.088</ele>
        <time>2015-10-02T12:13:23Z</time>
      </trkpt>
      <trkpt lat="47.36115" lon="6.57353">
        <ele>607.064</ele>
        <time>2015-10-02T12:13:24Z</time>
      </trkpt>
      <trkpt lat="47.36113" lon="6.57347">
        <ele>607.438</ele>
        <time>2015-10-02T12:13:25Z</time>
      </trkpt>
      <trkpt lat="47.3611" lon="6.57341">
        <ele>605.869</ele>
        <time>2015-10-02T12:13:26Z</time>
      </trkpt>
      <trkpt lat="47.36108" lon="6.57334">
        <ele>606.136</ele>
        <time>2015-10-02T12:13:27Z</time>
      </trkpt>
      <trkpt lat="47.36106" lon="6.57328">
        <ele>605.892</ele>
        <time>2015-10-02T12:13:28Z</time>
      </trkpt>
      <trkpt lat="47.36104" lon="6.5732">
        <ele>606.744</ele>
        <time>2015-10-02T12:13:29Z</time>
      </trkpt>
      <trkpt lat="47.36103" lon="6.57313">
        <ele>607.267</ele>
        <time>2015-10-02T12:13:30Z</time>
      </trkpt>
      <trkpt lat="47.361" lon="6.57306">
        <ele>607.31</ele>
        <time>2015-10-02T12:13:31Z</time>
      </trkpt>
      <trkpt lat="47.36098" lon="6.57298">
        <ele>607.103</ele>
        <time>2015-10-02T12:13:32Z</time>
      </trkpt>
      <trkpt lat="47.36095" lon="6.57291">
        <ele>606.752</ele>
        <time>2015-10-02T12:13:33Z</time>
      </trkpt>
      <trkpt lat="47.36092" lon="6.57286">
        <ele>607.403</ele>
        <time>2015-10-02T12:13:34Z</time>
      </trkpt>
      <trkpt lat="47.36089" lon="6.57279">
        <ele>608.024</ele>
        <time>2015-10-02T12:13:35Z</time>
      </trkpt>
      <trkpt lat="47.36084" lon="6.57273">
        <ele>607.431</ele>
        <time>2015-10-02T12:13:36Z</time>
      </trkpt>
      <trkpt lat="47.3608" lon="6.57267">
        <ele>607.382</ele>
        <time>2015-10-02T12:13:37Z</time>
      </trkpt>
      <trkpt lat="47.36076" lon="6.57261">
        <ele>607.035</ele>
        <time>2015-10-02T12:13:38Z</time>
      </trkpt>
      <trkpt lat="47.36072" lon="6.57256">
        <ele>606.577</ele>
        <time>2015-10-02T12:13:39Z</time>
      </trkpt>
      <trkpt lat="47.36068" lon="6.57251">
        <ele>606.25</ele>
        <time>2015-10-02T12:13:40Z</time>
      </trkpt>
      <trkpt lat="47.36064" lon="6.57245">
        <ele>606.603</ele>
        <time>2015-10-02T12:13:41Z</time>
      </trkpt>
      <trkpt lat="47.36061" lon="6.57239">
        <ele>605.841</ele>
        <time>2015-10-02T12:13:42Z</time>
      </trkpt>
      <trkpt lat="47.36057" lon="6.57234">
        <ele>606.045</ele>
        <time>2015-10-02T12:13:43Z</time>
      </trkpt>
      <trkpt lat="47.36052" lon="6.57229">
        <ele>605.139</ele>
        <time>2015-10-02T12:13:44Z</time>
      </trkpt>
      <trkpt lat="47.36048" lon="6.57223">
        <ele>604.993</ele>
        <time>2015-10-02T12:13:45Z</time>
      </trkpt>
      <trkpt lat="47.36044" lon="6.57219">
        <ele>605.9</ele>
        <time>2015-10-02T12:13:46Z</time>
      </trkpt>
      <trkpt lat="47.36043" lon="6.57217">
        <ele>607.007</ele>
        <time>2015-10-02T12:13:47Z</time>
      </trkpt>
      <trkpt lat="47.36041" lon="6.57214">
        <ele>607.059</ele>
        <time>2015-10-02T12:13:48Z</time>
      </trkpt>
      <trkpt lat="47.36038" lon="6.57212">
        <ele>606.844</ele>
        <time>2015-10-02T12:13:49Z</time>
      </trkpt>
      <trkpt lat="47.3603" lon="6.57209">
        <ele>598.429</ele>
        <time>2015-10-02T12:13:50Z</time>
      </trkpt>
      <trkpt lat="47.36026" lon="6.57206">
        <ele>597.592</ele>
        <time>2015-10-02T12:13:51Z</time>
      </trkpt>
      <trkpt lat="47.36024" lon="6.57204">
        <ele>596.444</ele>
        <time>2015-10-02T12:13:52Z</time>
      </trkpt>
      <trkpt lat="47.36023" lon="6.57201">
        <ele>596.494</ele>
        <time>2015-10-02T12:13:53Z</time>
      </trkpt>
      <trkpt lat="47.36023" lon="6.572">
        <ele>596.601</ele>
        <time>2015-10-02T12:13:54Z</time>
      </trkpt>
      <trkpt lat="47.36024" lon="6.57199">
        <ele>600.229</ele>
        <time>2015-10-02T12:13:57Z</time>
      </trkpt>
      <trkpt lat="47.36028" lon="6.57195">
        <ele>605.564</ele>
        <time>2015-10-02T12:14:14Z</time>
      </trkpt>
      <trkpt lat="47.36027" lon="6.57195">
        <ele>604.104</ele>
        <time>2015-10-02T12:14:18Z</time>
      </trkpt>
      <trkpt lat="47.36027" lon="6.57194">
        <ele>599.607</ele>
        <time>2015-10-02T12:14:26Z</time>
      </trkpt>
      <trkpt lat="47.36026" lon="6.57191">
        <ele>601.566</ele>
        <time>2015-10-02T12:14:27Z</time>
      </trkpt>
      <trkpt lat="47.36025" lon="6.57188">
        <ele>601.824</ele>
        <time>2015-10-02T12:14:28Z</time>
      </trkpt>
      <trkpt lat="47.36024" lon="6.57184">
        <ele>602.418</ele>
        <time>2015-10-02T12:14:29Z</time>
      </trkpt>
      <trkpt lat="47.36023" lon="6.5718">
        <ele>602.649</ele>
        <time>2015-10-02T12:14:30Z</time>
      </trkpt>
      <trkpt lat="47.36021" lon="6.57176">
        <ele>601.848</ele>
        <time>2015-10-02T12:14:31Z</time>
      </trkpt>
      <trkpt lat="47.36019" lon="6.57173">
        <ele>601.556</ele>
        <time>2015-10-02T12:14:32Z</time>
      </trkpt>
      <trkpt lat="47.36016" lon="6.57171">
        <ele>601.886</ele>
        <time>2015-10-02T12:14:33Z</time>
      </trkpt>
      <trkpt lat="47.36014" lon="6.57168">
        <ele>601.624</ele>
        <time>2015-10-02T12:14:34Z</time>
      </trkpt>
      <trkpt lat="47.36012" lon="6.57165">
        <ele>602.098</ele>
        <time>2015-10-02T12:14:35Z</time>
      </trkpt>
      <trkpt lat="47.36009" lon="6.57162">
        <ele>602.274</ele>
        <time>2015-10-02T12:14:36Z</time>
      </trkpt>
      <trkpt lat="47.36008" lon="6.57158">
        <ele>602.584</ele>
        <time>2015-10-02T12:14:37Z</time>
      </trkpt>
      <trkpt lat="47.36006" lon="6.57155">
        <ele>603.004</ele>
        <time>2015-10-02T12:14:38Z</time>
      </trkpt>
      <trkpt lat="47.36004" lon="6.57152">
        <ele>601.943</ele>
        <time>2015-10-02T12:14:39Z</time>
      </trkpt>
      <trkpt lat="47.36003" lon="6.57149">
        <ele>602.224</ele>
        <time>2015-10-02T12:14:40Z</time>
      </trkpt>
      <trkpt lat="47.36002" lon="6.57146">
        <ele>601.902</ele>
        <time>2015-10-02T12:14:41Z</time>
      </trkpt>
      <trkpt lat="47.36001" lon="6.57144">
        <ele>601.924</ele>
        <time>2015-10-02T12:14:42Z</time>
      </trkpt>
      <trkpt lat="47.35999" lon="6.57141">
        <ele>602.613</ele>
        <time>2015-10-02T12:14:43Z</time>
      </trkpt>
      <trkpt lat="47.35998" lon="6.57138">
        <ele>602.474</ele>
        <time>2015-10-02T12:14:44Z</time>
      </trkpt>
      <trkpt lat="47.35997" lon="6.57136">
        <ele>599.906</ele>
        <time>2015-10-02T12:14:45Z</time>
      </trkpt>
      <trkpt lat="47.35996" lon="6.57133">
        <ele>600.124</ele>
        <time>2015-10-02T12:14:46Z</time>
      </trkpt>
      <trkpt lat="47.35995" lon="6.57131">
        <ele>600.003</ele>
        <time>2015-10-02T12:14:47Z</time>
      </trkpt>
      <trkpt lat="47.35994" lon="6.57128">
        <ele>597.285</ele>
        <time>2015-10-02T12:14:48Z</time>
      </trkpt>
      <trkpt lat="47.35992" lon="6.57126">
        <ele>597.766</ele>
        <time>2015-10-02T12:14:49Z</time>
      </trkpt>
      <trkpt lat="47.35992" lon="6.57123">
        <ele>597.651</ele>
        <time>2015-10-02T12:14:50Z</time>
      </trkpt>
      <trkpt lat="47.35991" lon="6.5712">
        <ele>595.628</ele>
        <time>2015-10-02T12:14:51Z</time>
      </trkpt>
      <trkpt lat="47.3599" lon="6.57118">
        <ele>593.033</ele>
        <time>2015-10-02T12:14:52Z</time>
      </trkpt>
      <trkpt lat="47.35989" lon="6.57115">
        <ele>592.38</ele>
        <time>2015-10-02T12:14:53Z</time>
      </trkpt>
      <trkpt lat="47.35988" lon="6.57112">
        <ele>590.898</ele>
        <time>2015-10-02T12:14:54Z</time>
      </trkpt>
      <trkpt lat="47.35987" lon="6.57109">
        <ele>593.292</ele>
        <time>2015-10-02T12:14:55Z</time>
      </trkpt>
      <trkpt lat="47.35987" lon="6.57106">
        <ele>593.462</ele>
        <time>2015-10-02T12:14:56Z</time>
      </trkpt>
      <trkpt lat="47.35987" lon="6.57103">
        <ele>594.386</ele>
        <time>2015-10-02T12:14:57Z</time>
      </trkpt>
      <trkpt lat="47.35986" lon="6.57099">
        <ele>593.411</ele>
        <time>2015-10-02T12:14:58Z</time>
      </trkpt>
      <trkpt lat="47.35986" lon="6.57095">
        <ele>593.407</ele>
        <time>2015-10-02T12:14:59Z</time>
      </trkpt>
      <trkpt lat="47.35986" lon="6.57091">
        <ele>592.91</ele>
        <time>2015-10-02T12:15:00Z</time>
      </trkpt>
      <trkpt lat="47.35986" lon="6.57087">
        <ele>593.639</ele>
        <time>2015-10-02T12:15:01Z</time>
      </trkpt>
      <trkpt lat="47.35986" lon="6.57084">
        <ele>594.102</ele>
        <time>2015-10-02T12:15:02Z</time>
      </trkpt>
      <trkpt lat="47.35985" lon="6.57081">
        <ele>592.844</ele>
        <time>2015-10-02T12:15:03Z</time>
      </trkpt>
      <trkpt lat="47.35984" lon="6.57079">
        <ele>590.399</ele>
        <time>2015-10-02T12:15:04Z</time>
      </trkpt>
      <trkpt lat="47.35982" lon="6.57076">
        <ele>591.126</ele>
        <time>2015-10-02T12:15:05Z</time>
      </trkpt>
      <trkpt lat="47.35981" lon="6.57072">
        <ele>589.878</ele>
        <time>2015-10-02T12:15:06Z</time>
      </trkpt>
      <trkpt lat="47.35981" lon="6.57068">
        <ele>590.272</ele>
        <time>2015-10-02T12:15:07Z</time>
      </trkpt>
      <trkpt lat="47.35981" lon="6.57065">
        <ele>587.573</ele>
        <time>2015-10-02T12:15:08Z</time>
      </trkpt>
      <trkpt lat="47.3598" lon="6.57062">
        <ele>587.491</ele>
        <time>2015-10-02T12:15:09Z</time>
      </trkpt>
      <trkpt lat="47.3598" lon="6.57059">
        <ele>585.892</ele>
        <time>2015-10-02T12:15:10Z</time>
      </trkpt>
      <trkpt lat="47.3598" lon="6.57056">
        <ele>586.491</ele>
        <time>2015-10-02T12:15:11Z</time>
      </trkpt>
      <trkpt lat="47.35979" lon="6.57051">
        <ele>585.793</ele>
        <time>2015-10-02T12:15:12Z</time>
      </trkpt>
      <trkpt lat="47.3598" lon="6.57047">
        <ele>586.517</ele>
        <time>2015-10-02T12:15:13Z</time>
      </trkpt>
      <trkpt lat="47.35981" lon="6.57043">
        <ele>589.034</ele>
        <time>2015-10-02T12:15:14Z</time>
      </trkpt>
      <trkpt lat="47.35982" lon="6.57038">
        <ele>588.92</ele>
        <time>2015-10-02T12:15:15Z</time>
      </trkpt>
      <trkpt lat="47.35982" lon="6.57034">
        <ele>587.837</ele>
        <time>2015-10-02T12:15:16Z</time>
      </trkpt>
      <trkpt lat="47.35983" lon="6.57029">
        <ele>588.537</ele>
        <time>2015-10-02T12:15:17Z</time>
      </trkpt>
      <trkpt lat="47.35982" lon="6.57025">
        <ele>588.671</ele>
        <time>2015-10-02T12:15:18Z</time>
      </trkpt>
      <trkpt lat="47.35982" lon="6.57021">
        <ele>588.039</ele>
        <time>2015-10-02T12:15:19Z</time>
      </trkpt>
      <trkpt lat="47.35982" lon="6.57018">
        <ele>591.389</ele>
        <time>2015-10-02T12:15:20Z</time>
      </trkpt>
      <trkpt lat="47.35982" lon="6.57013">
        <ele>590.869</ele>
        <time>2015-10-02T12:15:21Z</time>
      </trkpt>
      <trkpt lat="47.35982" lon="6.57009">
        <ele>591.052</ele>
        <time>2015-10-02T12:15:22Z</time>
      </trkpt>
      <trkpt lat="47.35982" lon="6.57004">
        <ele>592.158</ele>
        <time>2015-10-02T12:15:23Z</time>
      </trkpt>
      <trkpt lat="47.35981" lon="6.56999">
        <ele>591.656</ele>
        <time>2015-10-02T12:15:24Z</time>
      </trkpt>
      <trkpt lat="47.35981" lon="6.56994">
        <ele>592.468</ele>
        <time>2015-10-02T12:15:25Z</time>
      </trkpt>
      <trkpt lat="47.3598" lon="6.5699">
        <ele>592.781</ele>
        <time>2015-10-02T12:15:26Z</time>
      </trkpt>
      <trkpt lat="47.3598" lon="6.56985">
        <ele>593.608</ele>
        <time>2015-10-02T12:15:27Z</time>
      </trkpt>
      <trkpt lat="47.3598" lon="6.56981">
        <ele>594.771</ele>
        <time>2015-10-02T12:15:28Z</time>
      </trkpt>
      <trkpt lat="47.35979" lon="6.56976">
        <ele>594.544</ele>
        <time>2015-10-02T12:15:29Z</time>
      </trkpt>
      <trkpt lat="47.35979" lon="6.56972">
        <ele>594.119</ele>
        <time>2015-10-02T12:15:30Z</time>
      </trkpt>
      <trkpt lat="47.35978" lon="6.56967">
        <ele>594.613</ele>
        <time>2015-10-02T12:15:31Z</time>
      </trkpt>
      <trkpt lat="47.35978" lon="6.56962">
        <ele>594.092</ele>
        <time>2015-10-02T12:15:32Z</time>
      </trkpt>
      <trkpt lat="47.35977" lon="6.56957">
        <ele>593.487</ele>
        <time>2015-10-02T12:15:33Z</time>
      </trkpt>
      <trkpt lat="47.35977" lon="6.56952">
        <ele>593.819</ele>
        <time>2015-10-02T12:15:34Z</time>
      </trkpt>
      <trkpt lat="47.35977" lon="6.56948">
        <ele>594.708</ele>
        <time>2015-10-02T12:15:35Z</time>
      </trkpt>
      <trkpt lat="47.35976" lon="6.56944">
        <ele>595.616</ele>
        <time>2015-10-02T12:15:36Z</time>
      </trkpt>
      <trkpt lat="47.35976" lon="6.5694">
        <ele>595.285</ele>
        <time>2015-10-02T12:15:37Z</time>
      </trkpt>
      <trkpt lat="47.35975" lon="6.56935">
        <ele>595.422</ele>
        <time>2015-10-02T12:15:38Z</time>
      </trkpt>
      <trkpt lat="47.35975" lon="6.56931">
        <ele>595.669</ele>
        <time>2015-10-02T12:15:39Z</time>
      </trkpt>
      <trkpt lat="47.35974" lon="6.56926">
        <ele>596.11</ele>
        <time>2015-10-02T12:15:40Z</time>
      </trkpt>
      <trkpt lat="47.35974" lon="6.56922">
        <ele>595.519</ele>
        <time>2015-10-02T12:15:41Z</time>
      </trkpt>
      <trkpt lat="47.35973" lon="6.56918">
        <ele>595.752</ele>
        <time>2015-10-02T12:15:42Z</time>
      </trkpt>
      <trkpt lat="47.35973" lon="6.56914">
        <ele>596.689</ele>
        <time>2015-10-02T12:15:43Z</time>
      </trkpt>
      <trkpt lat="47.35973" lon="6.56909">
        <ele>595.896</ele>
        <time>2015-10-02T12:15:44Z</time>
      </trkpt>
      <trkpt lat="47.35973" lon="6.56905">
        <ele>594.866</ele>
        <time>2015-10-02T12:15:45Z</time>
      </trkpt>
      <trkpt lat="47.35972" lon="6.569">
        <ele>595.323</ele>
        <time>2015-10-02T12:15:46Z</time>
      </trkpt>
      <trkpt lat="47.35972" lon="6.56896">
        <ele>595.764</ele>
        <time>2015-10-02T12:15:47Z</time>
      </trkpt>
      <trkpt lat="47.35972" lon="6.56893">
        <ele>596.697</ele>
        <time>2015-10-02T12:15:48Z</time>
      </trkpt>
      <trkpt lat="47.35971" lon="6.56889">
        <ele>595.482</ele>
        <time>2015-10-02T12:15:49Z</time>
      </trkpt>
      <trkpt lat="47.35971" lon="6.56884">
        <ele>596.303</ele>
        <time>2015-10-02T12:15:50Z</time>
      </trkpt>
      <trkpt lat="47.35971" lon="6.5688">
        <ele>596.573</ele>
        <time>2015-10-02T12:15:51Z</time>
      </trkpt>
      <trkpt lat="47.3597" lon="6.56875">
        <ele>595.881</ele>
        <time>2015-10-02T12:15:52Z</time>
      </trkpt>
      <trkpt lat="47.35969" lon="6.56871">
        <ele>594.597</ele>
        <time>2015-10-02T12:15:53Z</time>
      </trkpt>
      <trkpt lat="47.35969" lon="6.56867">
        <ele>592.292</ele>
        <time>2015-10-02T12:15:54Z</time>
      </trkpt>
      <trkpt lat="47.35968" lon="6.56863">
        <ele>592.341</ele>
        <time>2015-10-02T12:15:55Z</time>
      </trkpt>
      <trkpt lat="47.35968" lon="6.56858">
        <ele>592.98</ele>
        <time>2015-10-02T12:15:56Z</time>
      </trkpt>
      <trkpt lat="47.35967" lon="6.56854">
        <ele>593.633</ele>
        <time>2015-10-02T12:15:57Z</time>
      </trkpt>
      <trkpt lat="47.35966" lon="6.56849">
        <ele>593.485</ele>
        <time>2015-10-02T12:15:58Z</time>
      </trkpt>
      <trkpt lat="47.35965" lon="6.56844">
        <ele>593.53</ele>
        <time>2015-10-02T12:15:59Z</time>
      </trkpt>
      <trkpt lat="47.35964" lon="6.5684">
        <ele>594.804</ele>
        <time>2015-10-02T12:16:00Z</time>
      </trkpt>
      <trkpt lat="47.35962" lon="6.56835">
        <ele>596.009</ele>
        <time>2015-10-02T12:16:01Z</time>
      </trkpt>
      <trkpt lat="47.35961" lon="6.56831">
        <ele>596.689</ele>
        <time>2015-10-02T12:16:02Z</time>
      </trkpt>
      <trkpt lat="47.3596" lon="6.56827">
        <ele>597.582</ele>
        <time>2015-10-02T12:16:03Z</time>
      </trkpt>
      <trkpt lat="47.35959" lon="6.56822">
        <ele>597.684</ele>
        <time>2015-10-02T12:16:04Z</time>
      </trkpt>
      <trkpt lat="47.35957" lon="6.56818">
        <ele>598.215</ele>
        <time>2015-10-02T12:16:05Z</time>
      </trkpt>
      <trkpt lat="47.35955" lon="6.56813">
        <ele>599.31</ele>
        <time>2015-10-02T12:16:06Z</time>
      </trkpt>
      <trkpt lat="47.35954" lon="6.56809">
        <ele>600.377</ele>
        <time>2015-10-02T12:16:07Z</time>
      </trkpt>
      <trkpt lat="47.35952" lon="6.56805">
        <ele>602.13</ele>
        <time>2015-10-02T12:16:08Z</time>
      </trkpt>
      <trkpt lat="47.3595" lon="6.568">
        <ele>603.313</ele>
        <time>2015-10-02T12:16:09Z</time>
      </trkpt>
      <trkpt lat="47.35949" lon="6.56796">
        <ele>604.641</ele>
        <time>2015-10-02T12:16:10Z</time>
      </trkpt>
      <trkpt lat="47.35948" lon="6.56791">
        <ele>604.94</ele>
        <time>2015-10-02T12:16:11Z</time>
      </trkpt>
      <trkpt lat="47.35947" lon="6.56786">
        <ele>604.792</ele>
        <time>2015-10-02T12:16:12Z</time>
      </trkpt>
      <trkpt lat="47.35946" lon="6.56781">
        <ele>606.293</ele>
        <time>2015-10-02T12:16:13Z</time>
      </trkpt>
      <trkpt lat="47.35945" lon="6.56776">
        <ele>605.555</ele>
        <time>2015-10-02T12:16:14Z</time>
      </trkpt>
      <trkpt lat="47.35943" lon="6.56771">
        <ele>604.219</ele>
        <time>2015-10-02T12:16:15Z</time>
      </trkpt>
      <trkpt lat="47.35942" lon="6.56766">
        <ele>605.021</ele>
        <time>2015-10-02T12:16:16Z</time>
      </trkpt>
      <trkpt lat="47.35941" lon="6.56762">
        <ele>604.74</ele>
        <time>2015-10-02T12:16:17Z</time>
      </trkpt>
      <trkpt lat="47.3594" lon="6.56757">
        <ele>605.058</ele>
        <time>2015-10-02T12:16:18Z</time>
      </trkpt>
      <trkpt lat="47.35939" lon="6.56753">
        <ele>605.408</ele>
        <time>2015-10-02T12:16:19Z</time>
      </trkpt>
      <trkpt lat="47.35938" lon="6.56748">
        <ele>605.382</ele>
        <time>2015-10-02T12:16:20Z</time>
      </trkpt>
      <trkpt lat="47.35937" lon="6.56742">
        <ele>606.071</ele>
        <time>2015-10-02T12:16:21Z</time>
      </trkpt>
      <trkpt lat="47.35936" lon="6.56737">
        <ele>606.32</ele>
        <time>2015-10-02T12:16:22Z</time>
      </trkpt>
      <trkpt lat="47.35935" lon="6.56732">
        <ele>605.634</ele>
        <time>2015-10-02T12:16:23Z</time>
      </trkpt>
      <trkpt lat="47.35933" lon="6.56727">
        <ele>605.912</ele>
        <time>2015-10-02T12:16:24Z</time>
      </trkpt>
      <trkpt lat="47.35932" lon="6.56723">
        <ele>606.536</ele>
        <time>2015-10-02T12:16:25Z</time>
      </trkpt>
      <trkpt lat="47.3593" lon="6.56719">
        <ele>607.154</ele>
        <time>2015-10-02T12:16:26Z</time>
      </trkpt>
      <trkpt lat="47.35929" lon="6.56715">
        <ele>607.366</ele>
        <time>2015-10-02T12:16:27Z</time>
      </trkpt>
      <trkpt lat="47.35928" lon="6.56711">
        <ele>606.912</ele>
        <time>2015-10-02T12:16:28Z</time>
      </trkpt>
      <trkpt lat="47.35926" lon="6.56707">
        <ele>604.543</ele>
        <time>2015-10-02T12:16:29Z</time>
      </trkpt>
      <trkpt lat="47.35923" lon="6.56702">
        <ele>603.885</ele>
        <time>2015-10-02T12:16:30Z</time>
      </trkpt>
      <trkpt lat="47.35921" lon="6.56697">
        <ele>602.818</ele>
        <time>2015-10-02T12:16:31Z</time>
      </trkpt>
      <trkpt lat="47.35919" lon="6.56693">
        <ele>603.155</ele>
        <time>2015-10-02T12:16:32Z</time>
      </trkpt>
      <trkpt lat="47.35918" lon="6.56688">
        <ele>602.534</ele>
        <time>2015-10-02T12:16:33Z</time>
      </trkpt>
      <trkpt lat="47.35916" lon="6.56683">
        <ele>602.156</ele>
        <time>2015-10-02T12:16:34Z</time>
      </trkpt>
      <trkpt lat="47.35916" lon="6.56678">
        <ele>603.144</ele>
        <time>2015-10-02T12:16:35Z</time>
      </trkpt>
      <trkpt lat="47.35915" lon="6.56674">
        <ele>603.395</ele>
        <time>2015-10-02T12:16:36Z</time>
      </trkpt>
      <trkpt lat="47.35914" lon="6.56669">
        <ele>604.268</ele>
        <time>2015-10-02T12:16:37Z</time>
      </trkpt>
      <trkpt lat="47.35914" lon="6.56664">
        <ele>606.273</ele>
        <time>2015-10-02T12:16:38Z</time>
      </trkpt>
      <trkpt lat="47.35913" lon="6.56658">
        <ele>607.124</ele>
        <time>2015-10-02T12:16:39Z</time>
      </trkpt>
      <trkpt lat="47.35912" lon="6.56654">
        <ele>605.23</ele>
        <time>2015-10-02T12:16:40Z</time>
      </trkpt>
      <trkpt lat="47.3591" lon="6.56649">
        <ele>604.78</ele>
        <time>2015-10-02T12:16:41Z</time>
      </trkpt>
      <trkpt lat="47.35909" lon="6.56644">
        <ele>605.096</ele>
        <time>2015-10-02T12:16:42Z</time>
      </trkpt>
      <trkpt lat="47.35908" lon="6.56639">
        <ele>605.548</ele>
        <time>2015-10-02T12:16:43Z</time>
      </trkpt>
      <trkpt lat="47.35907" lon="6.56634">
        <ele>605.213</ele>
        <time>2015-10-02T12:16:44Z</time>
      </trkpt>
      <trkpt lat="47.35906" lon="6.56629">
        <ele>604.708</ele>
        <time>2015-10-02T12:16:45Z</time>
      </trkpt>
      <trkpt lat="47.35905" lon="6.56624">
        <ele>605.397</ele>
        <time>2015-10-02T12:16:46Z</time>
      </trkpt>
      <trkpt lat="47.35904" lon="6.56619">
        <ele>603.922</ele>
        <time>2015-10-02T12:16:47Z</time>
      </trkpt>
      <trkpt lat="47.35903" lon="6.56614">
        <ele>604.048</ele>
        <time>2015-10-02T12:16:48Z</time>
      </trkpt>
      <trkpt lat="47.35903" lon="6.56608">
        <ele>603.993</ele>
        <time>2015-10-02T12:16:49Z</time>
      </trkpt>
      <trkpt lat="47.35903" lon="6.56603">
        <ele>604.332</ele>
        <time>2015-10-02T12:16:50Z</time>
      </trkpt>
      <trkpt lat="47.35902" lon="6.56598">
        <ele>605.557</ele>
        <time>2015-10-02T12:16:51Z</time>
      </trkpt>
      <trkpt lat="47.35902" lon="6.56594">
        <ele>605.476</ele>
        <time>2015-10-02T12:16:52Z</time>
      </trkpt>
      <trkpt lat="47.35903" lon="6.56589">
        <ele>604.733</ele>
        <time>2015-10-02T12:16:53Z</time>
      </trkpt>
      <trkpt lat="47.35903" lon="6.56584">
        <ele>605.21</ele>
        <time>2015-10-02T12:16:54Z</time>
      </trkpt>
      <trkpt lat="47.35904" lon="6.56579">
        <ele>604.574</ele>
        <time>2015-10-02T12:16:55Z</time>
      </trkpt>
      <trkpt lat="47.35904" lon="6.56574">
        <ele>604.661</ele>
        <time>2015-10-02T12:16:56Z</time>
      </trkpt>
      <trkpt lat="47.35904" lon="6.56569">
        <ele>605.355</ele>
        <time>2015-10-02T12:16:57Z</time>
      </trkpt>
      <trkpt lat="47.35904" lon="6.56564">
        <ele>605.102</ele>
        <time>2015-10-02T12:16:58Z</time>
      </trkpt>
      <trkpt lat="47.35904" lon="6.56559">
        <ele>605.558</ele>
        <time>2015-10-02T12:16:59Z</time>
      </trkpt>
      <trkpt lat="47.35904" lon="6.56554">
        <ele>605.021</ele>
        <time>2015-10-02T12:17:00Z</time>
      </trkpt>
      <trkpt lat="47.35905" lon="6.56549">
        <ele>605.259</ele>
        <time>2015-10-02T12:17:01Z</time>
      </trkpt>
      <trkpt lat="47.35905" lon="6.56544">
        <ele>605.082</ele>
        <time>2015-10-02T12:17:02Z</time>
      </trkpt>
      <trkpt lat="47.35906" lon="6.56539">
        <ele>604.952</ele>
        <time>2015-10-02T12:17:03Z</time>
      </trkpt>
      <trkpt lat="47.35906" lon="6.56534">
        <ele>604.686</ele>
        <time>2015-10-02T12:17:04Z</time>
      </trkpt>
      <trkpt lat="47.35907" lon="6.5653">
        <ele>604.171</ele>
        <time>2015-10-02T12:17:05Z</time>
      </trkpt>
      <trkpt lat="47.35907" lon="6.56525">
        <ele>604.821</ele>
        <time>2015-10-02T12:17:06Z</time>
      </trkpt>
      <trkpt lat="47.35908" lon="6.56521">
        <ele>605.01</ele>
        <time>2015-10-02T12:17:07Z</time>
      </trkpt>
      <trkpt lat="47.35908" lon="6.56516">
        <ele>605.118</ele>
        <time>2015-10-02T12:17:08Z</time>
      </trkpt>
      <trkpt lat="47.35909" lon="6.56511">
        <ele>604.788</ele>
        <time>2015-10-02T12:17:09Z</time>
      </trkpt>
      <trkpt lat="47.35909" lon="6.56506">
        <ele>605.248</ele>
        <time>2015-10-02T12:17:10Z</time>
      </trkpt>
      <trkpt lat="47.35909" lon="6.56502">
        <ele>605.389</ele>
        <time>2015-10-02T12:17:11Z</time>
      </trkpt>
      <trkpt lat="47.35909" lon="6.56499">
        <ele>606.071</ele>
        <time>2015-10-02T12:17:12Z</time>
      </trkpt>
      <trkpt lat="47.35909" lon="6.56494">
        <ele>607.205</ele>
        <time>2015-10-02T12:17:13Z</time>
      </trkpt>
      <trkpt lat="47.35909" lon="6.5649">
        <ele>608.146</ele>
        <time>2015-10-02T12:17:14Z</time>
      </trkpt>
      <trkpt lat="47.3591" lon="6.56485">
        <ele>607.75</ele>
        <time>2015-10-02T12:17:15Z</time>
      </trkpt>
      <trkpt lat="47.3591" lon="6.5648">
        <ele>607.93</ele>
        <time>2015-10-02T12:17:16Z</time>
      </trkpt>
      <trkpt lat="47.35911" lon="6.56474">
        <ele>607.949</ele>
        <time>2015-10-02T12:17:17Z</time>
      </trkpt>
      <trkpt lat="47.35912" lon="6.56469">
        <ele>609.23</ele>
        <time>2015-10-02T12:17:18Z</time>
      </trkpt>
      <trkpt lat="47.35913" lon="6.56464">
        <ele>609.145</ele>
        <time>2015-10-02T12:17:19Z</time>
      </trkpt>
      <trkpt lat="47.35914" lon="6.5646">
        <ele>609.334</ele>
        <time>2015-10-02T12:17:20Z</time>
      </trkpt>
      <trkpt lat="47.35914" lon="6.56454">
        <ele>608.624</ele>
        <time>2015-10-02T12:17:21Z</time>
      </trkpt>
      <trkpt lat="47.35915" lon="6.56449">
        <ele>608.922</ele>
        <time>2015-10-02T12:17:22Z</time>
      </trkpt>
      <trkpt lat="47.35916" lon="6.56443">
        <ele>608.376</ele>
        <time>2015-10-02T12:17:23Z</time>
      </trkpt>
      <trkpt lat="47.35917" lon="6.56437">
        <ele>607.948</ele>
        <time>2015-10-02T12:17:24Z</time>
      </trkpt>
      <trkpt lat="47.35918" lon="6.56432">
        <ele>607.42</ele>
        <time>2015-10-02T12:17:25Z</time>
      </trkpt>
      <trkpt lat="47.35919" lon="6.56426">
        <ele>605.967</ele>
        <time>2015-10-02T12:17:26Z</time>
      </trkpt>
      <trkpt lat="47.3592" lon="6.56421">
        <ele>605.854</ele>
        <time>2015-10-02T12:17:27Z</time>
      </trkpt>
      <trkpt lat="47.35922" lon="6.56416">
        <ele>605.023</ele>
        <time>2015-10-02T12:17:28Z</time>
      </trkpt>
      <trkpt lat="47.35923" lon="6.56411">
        <ele>605.482</ele>
        <time>2015-10-02T12:17:29Z</time>
      </trkpt>
      <trkpt lat="47.35924" lon="6.56406">
        <ele>605.755</ele>
        <time>2015-10-02T12:17:30Z</time>
      </trkpt>
      <trkpt lat="47.35924" lon="6.564">
        <ele>605.053</ele>
        <time>2015-10-02T12:17:31Z</time>
      </trkpt>
      <trkpt lat="47.35925" lon="6.56394">
        <ele>604.412</ele>
        <time>2015-10-02T12:17:32Z</time>
      </trkpt>
      <trkpt lat="47.35925" lon="6.56388">
        <ele>604.185</ele>
        <time>2015-10-02T12:17:33Z</time>
      </trkpt>
      <trkpt lat="47.35925" lon="6.56383">
        <ele>606.299</ele>
        <time>2015-10-02T12:17:34Z</time>
      </trkpt>
      <trkpt lat="47.35925" lon="6.56379">
        <ele>607.981</ele>
        <time>2015-10-02T12:17:35Z</time>
      </trkpt>
      <trkpt lat="47.35925" lon="6.56375">
        <ele>608.693</ele>
        <time>2015-10-02T12:17:36Z</time>
      </trkpt>
      <trkpt lat="47.35924" lon="6.5637">
        <ele>606.285</ele>
        <time>2015-10-02T12:17:37Z</time>
      </trkpt>
      <trkpt lat="47.35923" lon="6.56367">
        <ele>606.326</ele>
        <time>2015-10-02T12:17:38Z</time>
      </trkpt>
      <trkpt lat="47.35923" lon="6.56363">
        <ele>605.943</ele>
        <time>2015-10-02T12:17:39Z</time>
      </trkpt>
      <trkpt lat="47.35923" lon="6.56359">
        <ele>606.521</ele>
        <time>2015-10-02T12:17:40Z</time>
      </trkpt>
      <trkpt lat="47.35922" lon="6.56354">
        <ele>606.543</ele>
        <time>2015-10-02T12:17:41Z</time>
      </trkpt>
      <trkpt lat="47.35922" lon="6.56349">
        <ele>606.477</ele>
        <time>2015-10-02T12:17:42Z</time>
      </trkpt>
      <trkpt lat="47.35921" lon="6.56344">
        <ele>607.054</ele>
        <time>2015-10-02T12:17:43Z</time>
      </trkpt>
      <trkpt lat="47.3592" lon="6.56338">
        <ele>607.128</ele>
        <time>2015-10-02T12:17:44Z</time>
      </trkpt>
      <trkpt lat="47.35919" lon="6.56331">
        <ele>607.05</ele>
        <time>2015-10-02T12:17:45Z</time>
      </trkpt>
      <trkpt lat="47.35919" lon="6.56325">
        <ele>606.835</ele>
        <time>2015-10-02T12:17:46Z</time>
      </trkpt>
      <trkpt lat="47.35917" lon="6.56319">
        <ele>604.124</ele>
        <time>2015-10-02T12:17:47Z</time>
      </trkpt>
      <trkpt lat="47.35915" lon="6.56313">
        <ele>602.284</ele>
        <time>2015-10-02T12:17:48Z</time>
      </trkpt>
      <trkpt lat="47.35912" lon="6.56309">
        <ele>602.386</ele>
        <time>2015-10-02T12:17:49Z</time>
      </trkpt>
      <trkpt lat="47.3591" lon="6.56303">
        <ele>601.144</ele>
        <time>2015-10-02T12:17:50Z</time>
      </trkpt>
      <trkpt lat="47.35909" lon="6.56296">
        <ele>603.877</ele>
        <time>2015-10-02T12:17:51Z</time>
      </trkpt>
      <trkpt lat="47.35908" lon="6.56289">
        <ele>604.188</ele>
        <time>2015-10-02T12:17:52Z</time>
      </trkpt>
      <trkpt lat="47.35907" lon="6.56282">
        <ele>604.301</ele>
        <time>2015-10-02T12:17:53Z</time>
      </trkpt>
      <trkpt lat="47.35906" lon="6.56275">
        <ele>604.211</ele>
        <time>2015-10-02T12:17:54Z</time>
      </trkpt>
      <trkpt lat="47.35905" lon="6.56268">
        <ele>604.846</ele>
        <time>2015-10-02T12:17:55Z</time>
      </trkpt>
      <trkpt lat="47.35905" lon="6.56261">
        <ele>604.142</ele>
        <time>2015-10-02T12:17:56Z</time>
      </trkpt>
      <trkpt lat="47.35904" lon="6.56253">
        <ele>605.454</ele>
        <time>2015-10-02T12:17:57Z</time>
      </trkpt>
      <trkpt lat="47.35904" lon="6.56246">
        <ele>602.736</ele>
        <time>2015-10-02T12:17:58Z</time>
      </trkpt>
      <trkpt lat="47.35904" lon="6.5624">
        <ele>603.499</ele>
        <time>2015-10-02T12:17:59Z</time>
      </trkpt>
      <trkpt lat="47.35904" lon="6.56234">
        <ele>603.849</ele>
        <time>2015-10-02T12:18:00Z</time>
      </trkpt>
      <trkpt lat="47.35904" lon="6.56226">
        <ele>600.964</ele>
        <time>2015-10-02T12:18:01Z</time>
      </trkpt>
      <trkpt lat="47.35902" lon="6.56213">
        <ele>601.098</ele>
        <time>2015-10-02T12:18:02Z</time>
      </trkpt>
      <trkpt lat="47.35903" lon="6.56208">
        <ele>601.778</ele>
        <time>2015-10-02T12:18:03Z</time>
      </trkpt>
      <trkpt lat="47.35906" lon="6.56201">
        <ele>598.007</ele>
        <time>2015-10-02T12:18:04Z</time>
      </trkpt>
      <trkpt lat="47.35906" lon="6.56195">
        <ele>597.982</ele>
        <time>2015-10-02T12:18:05Z</time>
      </trkpt>
      <trkpt lat="47.35905" lon="6.56188">
        <ele>598.654</ele>
        <time>2015-10-02T12:18:06Z</time>
      </trkpt>
      <trkpt lat="47.35905" lon="6.56181">
        <ele>598.062</ele>
        <time>2015-10-02T12:18:07Z</time>
      </trkpt>
      <trkpt lat="47.35905" lon="6.56175">
        <ele>598.265</ele>
        <time>2015-10-02T12:18:08Z</time>
      </trkpt>
      <trkpt lat="47.35906" lon="6.56168">
        <ele>597.896</ele>
        <time>2015-10-02T12:18:09Z</time>
      </trkpt>
      <trkpt lat="47.35905" lon="6.56159">
        <ele>596.651</ele>
        <time>2015-10-02T12:18:10Z</time>
      </trkpt>
      <trkpt lat="47.35905" lon="6.56152">
        <ele>596.378</ele>
        <time>2015-10-02T12:18:11Z</time>
      </trkpt>
      <trkpt lat="47.35904" lon="6.56144">
        <ele>596.835</ele>
        <time>2015-10-02T12:18:12Z</time>
      </trkpt>
      <trkpt lat="47.35902" lon="6.56135">
        <ele>596.921</ele>
        <time>2015-10-02T12:18:13Z</time>
      </trkpt>
      <trkpt lat="47.35902" lon="6.56129">
        <ele>597.294</ele>
        <time>2015-10-02T12:18:14Z</time>
      </trkpt>
      <trkpt lat="47.35903" lon="6.56122">
        <ele>597.638</ele>
        <time>2015-10-02T12:18:15Z</time>
      </trkpt>
      <trkpt lat="47.35903" lon="6.56116">
        <ele>599.038</ele>
        <time>2015-10-02T12:18:16Z</time>
      </trkpt>
      <trkpt lat="47.35903" lon="6.56109">
        <ele>600.063</ele>
        <time>2015-10-02T12:18:17Z</time>
      </trkpt>
      <trkpt lat="47.35902" lon="6.56102">
        <ele>599.906</ele>
        <time>2015-10-02T12:18:18Z</time>
      </trkpt>
      <trkpt lat="47.35902" lon="6.56094">
        <ele>600.436</ele>
        <time>2015-10-02T12:18:19Z</time>
      </trkpt>
      <trkpt lat="47.35902" lon="6.56086">
        <ele>601.158</ele>
        <time>2015-10-02T12:18:20Z</time>
      </trkpt>
      <trkpt lat="47.35901" lon="6.5608">
        <ele>601.4</ele>
        <time>2015-10-02T12:18:21Z</time>
      </trkpt>
      <trkpt lat="47.359" lon="6.56073">
        <ele>602.495</ele>
        <time>2015-10-02T12:18:22Z</time>
      </trkpt>
      <trkpt lat="47.35899" lon="6.56065">
        <ele>603.047</ele>
        <time>2015-10-02T12:18:23Z</time>
      </trkpt>
      <trkpt lat="47.35898" lon="6.56057">
        <ele>602.43</ele>
        <time>2015-10-02T12:18:24Z</time>
      </trkpt>
      <trkpt lat="47.35896" lon="6.56049">
        <ele>600.489</ele>
        <time>2015-10-02T12:18:25Z</time>
      </trkpt>
      <trkpt lat="47.35898" lon="6.56042">
        <ele>600.097</ele>
        <time>2015-10-02T12:18:26Z</time>
      </trkpt>
      <trkpt lat="47.35898" lon="6.56033">
        <ele>599.851</ele>
        <time>2015-10-02T12:18:27Z</time>
      </trkpt>
      <trkpt lat="47.35898" lon="6.56026">
        <ele>601.502</ele>
        <time>2015-10-02T12:18:28Z</time>
      </trkpt>
      <trkpt lat="47.35898" lon="6.5602">
        <ele>601.234</ele>
        <time>2015-10-02T12:18:29Z</time>
      </trkpt>
      <trkpt lat="47.35899" lon="6.56013">
        <ele>600.901</ele>
        <time>2015-10-02T12:18:30Z</time>
      </trkpt>
      <trkpt lat="47.35897" lon="6.56005">
        <ele>600.007</ele>
        <time>2015-10-02T12:18:31Z</time>
      </trkpt>
      <trkpt lat="47.35896" lon="6.55998">
        <ele>600.235</ele>
        <time>2015-10-02T12:18:32Z</time>
      </trkpt>
      <trkpt lat="47.35895" lon="6.55991">
        <ele>601.079</ele>
        <time>2015-10-02T12:18:33Z</time>
      </trkpt>
      <trkpt lat="47.35895" lon="6.55983">
        <ele>600.951</ele>
        <time>2015-10-02T12:18:34Z</time>
      </trkpt>
      <trkpt lat="47.35894" lon="6.55976">
        <ele>601.738</ele>
        <time>2015-10-02T12:18:35Z</time>
      </trkpt>
      <trkpt lat="47.35893" lon="6.55967">
        <ele>600.18</ele>
        <time>2015-10-02T12:18:36Z</time>
      </trkpt>
      <trkpt lat="47.35892" lon="6.55959">
        <ele>600.184</ele>
        <time>2015-10-02T12:18:37Z</time>
      </trkpt>
      <trkpt lat="47.35891" lon="6.55951">
        <ele>600.059</ele>
        <time>2015-10-02T12:18:38Z</time>
      </trkpt>
      <trkpt lat="47.35891" lon="6.55941">
        <ele>599.809</ele>
        <time>2015-10-02T12:18:39Z</time>
      </trkpt>
      <trkpt lat="47.3589" lon="6.55934">
        <ele>599.039</ele>
        <time>2015-10-02T12:18:40Z</time>
      </trkpt>
      <trkpt lat="47.35889" lon="6.55927">
        <ele>598.132</ele>
        <time>2015-10-02T12:18:41Z</time>
      </trkpt>
      <trkpt lat="47.35891" lon="6.55919">
        <ele>598.102</ele>
        <time>2015-10-02T12:18:42Z</time>
      </trkpt>
      <trkpt lat="47.35889" lon="6.55915">
        <ele>599.122</ele>
        <time>2015-10-02T12:18:43Z</time>
      </trkpt>
      <trkpt lat="47.35888" lon="6.55909">
        <ele>599.202</ele>
        <time>2015-10-02T12:18:44Z</time>
      </trkpt>
      <trkpt lat="47.35892" lon="6.559">
        <ele>597.545</ele>
        <time>2015-10-02T12:18:45Z</time>
      </trkpt>
      <trkpt lat="47.35891" lon="6.55891">
        <ele>598.605</ele>
        <time>2015-10-02T12:18:46Z</time>
      </trkpt>
      <trkpt lat="47.35895" lon="6.55881">
        <ele>596.795</ele>
        <time>2015-10-02T12:18:47Z</time>
      </trkpt>
      <trkpt lat="47.35894" lon="6.55874">
        <ele>596.736</ele>
        <time>2015-10-02T12:18:48Z</time>
      </trkpt>
      <trkpt lat="47.35891" lon="6.55863">
        <ele>598.048</ele>
        <time>2015-10-02T12:18:49Z</time>
      </trkpt>
      <trkpt lat="47.35888" lon="6.55855">
        <ele>598.502</ele>
        <time>2015-10-02T12:18:50Z</time>
      </trkpt>
      <trkpt lat="47.35886" lon="6.55847">
        <ele>598.969</ele>
        <time>2015-10-02T12:18:51Z</time>
      </trkpt>
      <trkpt lat="47.35886" lon="6.55838">
        <ele>601.149</ele>
        <time>2015-10-02T12:18:52Z</time>
      </trkpt>
      <trkpt lat="47.35886" lon="6.55829">
        <ele>602.231</ele>
        <time>2015-10-02T12:18:53Z</time>
      </trkpt>
      <trkpt lat="47.35884" lon="6.55822">
        <ele>602.651</ele>
        <time>2015-10-02T12:18:54Z</time>
      </trkpt>
      <trkpt lat="47.35884" lon="6.55816">
        <ele>603.664</ele>
        <time>2015-10-02T12:18:55Z</time>
      </trkpt>
      <trkpt lat="47.35881" lon="6.55813">
        <ele>605.094</ele>
        <time>2015-10-02T12:18:56Z</time>
      </trkpt>
      <trkpt lat="47.35881" lon="6.55806">
        <ele>604.771</ele>
        <time>2015-10-02T12:18:57Z</time>
      </trkpt>
      <trkpt lat="47.3588" lon="6.55798">
        <ele>604.551</ele>
        <time>2015-10-02T12:18:58Z</time>
      </trkpt>
      <trkpt lat="47.35881" lon="6.55787">
        <ele>604.09</ele>
        <time>2015-10-02T12:18:59Z</time>
      </trkpt>
      <trkpt lat="47.35879" lon="6.55781">
        <ele>604.282</ele>
        <time>2015-10-02T12:19:00Z</time>
      </trkpt>
      <trkpt lat="47.35879" lon="6.5577">
        <ele>604.147</ele>
        <time>2015-10-02T12:19:01Z</time>
      </trkpt>
      <trkpt lat="47.35878" lon="6.55766">
        <ele>604.751</ele>
        <time>2015-10-02T12:19:02Z</time>
      </trkpt>
      <trkpt lat="47.35877" lon="6.5576">
        <ele>604.331</ele>
        <time>2015-10-02T12:19:03Z</time>
      </trkpt>
      <trkpt lat="47.35875" lon="6.55753">
        <ele>605.245</ele>
        <time>2015-10-02T12:19:04Z</time>
      </trkpt>
      <trkpt lat="47.35875" lon="6.55748">
        <ele>605.836</ele>
        <time>2015-10-02T12:19:05Z</time>
      </trkpt>
      <trkpt lat="47.35873" lon="6.55743">
        <ele>607.989</ele>
        <time>2015-10-02T12:19:06Z</time>
      </trkpt>
      <trkpt lat="47.35871" lon="6.55736">
        <ele>608.736</ele>
        <time>2015-10-02T12:19:07Z</time>
      </trkpt>
      <trkpt lat="47.35867" lon="6.55726">
        <ele>605.529</ele>
        <time>2015-10-02T12:19:08Z</time>
      </trkpt>
      <trkpt lat="47.35864" lon="6.55721">
        <ele>604.899</ele>
        <time>2015-10-02T12:19:09Z</time>
      </trkpt>
      <trkpt lat="47.35862" lon="6.55715">
        <ele>605.06</ele>
        <time>2015-10-02T12:19:10Z</time>
      </trkpt>
      <trkpt lat="47.3586" lon="6.5571">
        <ele>606.386</ele>
        <time>2015-10-02T12:19:11Z</time>
      </trkpt>
      <trkpt lat="47.35859" lon="6.55704">
        <ele>607.031</ele>
        <time>2015-10-02T12:19:12Z</time>
      </trkpt>
      <trkpt lat="47.35856" lon="6.557">
        <ele>608.428</ele>
        <time>2015-10-02T12:19:13Z</time>
      </trkpt>
      <trkpt lat="47.35855" lon="6.5569">
        <ele>608.992</ele>
        <time>2015-10-02T12:19:14Z</time>
      </trkpt>
      <trkpt lat="47.35854" lon="6.55683">
        <ele>610.424</ele>
        <time>2015-10-02T12:19:15Z</time>
      </trkpt>
      <trkpt lat="47.35851" lon="6.55678">
        <ele>608.665</ele>
        <time>2015-10-02T12:19:16Z</time>
      </trkpt>
      <trkpt lat="47.35847" lon="6.55672">
        <ele>609.931</ele>
        <time>2015-10-02T12:19:17Z</time>
      </trkpt>
      <trkpt lat="47.35844" lon="6.55666">
        <ele>604.218</ele>
        <time>2015-10-02T12:19:18Z</time>
      </trkpt>
      <trkpt lat="47.35842" lon="6.5566">
        <ele>604.156</ele>
        <time>2015-10-02T12:19:19Z</time>
      </trkpt>
      <trkpt lat="47.35839" lon="6.55653">
        <ele>604.611</ele>
        <time>2015-10-02T12:19:20Z</time>
      </trkpt>
      <trkpt lat="47.35835" lon="6.55648">
        <ele>605.037</ele>
        <time>2015-10-02T12:19:21Z</time>
      </trkpt>
      <trkpt lat="47.35832" lon="6.55642">
        <ele>605.538</ele>
        <time>2015-10-02T12:19:22Z</time>
      </trkpt>
      <trkpt lat="47.35828" lon="6.55636">
        <ele>605.58</ele>
        <time>2015-10-02T12:19:23Z</time>
      </trkpt>
      <trkpt lat="47.35825" lon="6.55629">
        <ele>604.832</ele>
        <time>2015-10-02T12:19:24Z</time>
      </trkpt>
      <trkpt lat="47.35822" lon="6.55622">
        <ele>605.139</ele>
        <time>2015-10-02T12:19:25Z</time>
      </trkpt>
      <trkpt lat="47.35818" lon="6.55616">
        <ele>605.091</ele>
        <time>2015-10-02T12:19:26Z</time>
      </trkpt>
      <trkpt lat="47.35813" lon="6.5561">
        <ele>603.665</ele>
        <time>2015-10-02T12:19:27Z</time>
      </trkpt>
      <trkpt lat="47.35808" lon="6.55603">
        <ele>600.874</ele>
        <time>2015-10-02T12:19:28Z</time>
      </trkpt>
      <trkpt lat="47.35803" lon="6.55596">
        <ele>600.393</ele>
        <time>2015-10-02T12:19:29Z</time>
      </trkpt>
      <trkpt lat="47.35799" lon="6.55589">
        <ele>600.623</ele>
        <time>2015-10-02T12:19:30Z</time>
      </trkpt>
      <trkpt lat="47.35794" lon="6.55583">
        <ele>600.536</ele>
        <time>2015-10-02T12:19:31Z</time>
      </trkpt>
      <trkpt lat="47.3579" lon="6.55578">
        <ele>600.722</ele>
        <time>2015-10-02T12:19:32Z</time>
      </trkpt>
      <trkpt lat="47.35785" lon="6.55573">
        <ele>600.358</ele>
        <time>2015-10-02T12:19:33Z</time>
      </trkpt>
      <trkpt lat="47.35781" lon="6.55568">
        <ele>600.384</ele>
        <time>2015-10-02T12:19:34Z</time>
      </trkpt>
      <trkpt lat="47.35778" lon="6.55562">
        <ele>600.886</ele>
        <time>2015-10-02T12:19:35Z</time>
      </trkpt>
      <trkpt lat="47.35773" lon="6.55561">
        <ele>601.001</ele>
        <time>2015-10-02T12:19:36Z</time>
      </trkpt>
      <trkpt lat="47.35766" lon="6.55553">
        <ele>596.646</ele>
        <time>2015-10-02T12:19:37Z</time>
      </trkpt>
      <trkpt lat="47.35764" lon="6.55544">
        <ele>597.76</ele>
        <time>2015-10-02T12:19:38Z</time>
      </trkpt>
      <trkpt lat="47.35759" lon="6.55539">
        <ele>595.222</ele>
        <time>2015-10-02T12:19:39Z</time>
      </trkpt>
      <trkpt lat="47.35753" lon="6.55535">
        <ele>592.762</ele>
        <time>2015-10-02T12:19:40Z</time>
      </trkpt>
      <trkpt lat="47.35749" lon="6.5553">
        <ele>593.206</ele>
        <time>2015-10-02T12:19:41Z</time>
      </trkpt>
      <trkpt lat="47.35745" lon="6.55524">
        <ele>593.16</ele>
        <time>2015-10-02T12:19:42Z</time>
      </trkpt>
      <trkpt lat="47.35741" lon="6.55518">
        <ele>592.611</ele>
        <time>2015-10-02T12:19:43Z</time>
      </trkpt>
      <trkpt lat="47.35737" lon="6.55513">
        <ele>593.398</ele>
        <time>2015-10-02T12:19:44Z</time>
      </trkpt>
      <trkpt lat="47.35733" lon="6.55508">
        <ele>594</ele>
        <time>2015-10-02T12:19:45Z</time>
      </trkpt>
      <trkpt lat="47.35728" lon="6.55503">
        <ele>593.073</ele>
        <time>2015-10-02T12:19:46Z</time>
      </trkpt>
      <trkpt lat="47.35724" lon="6.55498">
        <ele>592.403</ele>
        <time>2015-10-02T12:19:47Z</time>
      </trkpt>
      <trkpt lat="47.3572" lon="6.55493">
        <ele>592.704</ele>
        <time>2015-10-02T12:19:48Z</time>
      </trkpt>
      <trkpt lat="47.35716" lon="6.55488">
        <ele>591.726</ele>
        <time>2015-10-02T12:19:49Z</time>
      </trkpt>
      <trkpt lat="47.35712" lon="6.55482">
        <ele>591.571</ele>
        <time>2015-10-02T12:19:50Z</time>
      </trkpt>
      <trkpt lat="47.35708" lon="6.55477">
        <ele>591.967</ele>
        <time>2015-10-02T12:19:51Z</time>
      </trkpt>
      <trkpt lat="47.35703" lon="6.55471">
        <ele>592.593</ele>
        <time>2015-10-02T12:19:52Z</time>
      </trkpt>
      <trkpt lat="47.35699" lon="6.55465">
        <ele>592.589</ele>
        <time>2015-10-02T12:19:53Z</time>
      </trkpt>
      <trkpt lat="47.35696" lon="6.55459">
        <ele>592.492</ele>
        <time>2015-10-02T12:19:54Z</time>
      </trkpt>
      <trkpt lat="47.35692" lon="6.55454">
        <ele>592.056</ele>
        <time>2015-10-02T12:19:55Z</time>
      </trkpt>
      <trkpt lat="47.35688" lon="6.55448">
        <ele>592.279</ele>
        <time>2015-10-02T12:19:56Z</time>
      </trkpt>
      <trkpt lat="47.35685" lon="6.55441">
        <ele>592.794</ele>
        <time>2015-10-02T12:19:57Z</time>
      </trkpt>
      <trkpt lat="47.35682" lon="6.55435">
        <ele>593.725</ele>
        <time>2015-10-02T12:19:58Z</time>
      </trkpt>
      <trkpt lat="47.35679" lon="6.55427">
        <ele>593.793</ele>
        <time>2015-10-02T12:19:59Z</time>
      </trkpt>
      <trkpt lat="47.35676" lon="6.5542">
        <ele>593.81</ele>
        <time>2015-10-02T12:20:00Z</time>
      </trkpt>
      <trkpt lat="47.35673" lon="6.55411">
        <ele>594.104</ele>
        <time>2015-10-02T12:20:01Z</time>
      </trkpt>
      <trkpt lat="47.3567" lon="6.55404">
        <ele>595.036</ele>
        <time>2015-10-02T12:20:02Z</time>
      </trkpt>
      <trkpt lat="47.35668" lon="6.55397">
        <ele>594.123</ele>
        <time>2015-10-02T12:20:03Z</time>
      </trkpt>
      <trkpt lat="47.35665" lon="6.55389">
        <ele>593.923</ele>
        <time>2015-10-02T12:20:04Z</time>
      </trkpt>
      <trkpt lat="47.35662" lon="6.5538">
        <ele>593.561</ele>
        <time>2015-10-02T12:20:05Z</time>
      </trkpt>
      <trkpt lat="47.3566" lon="6.55369">
        <ele>592.997</ele>
        <time>2015-10-02T12:20:06Z</time>
      </trkpt>
      <trkpt lat="47.35657" lon="6.5536">
        <ele>592.332</ele>
        <time>2015-10-02T12:20:07Z</time>
      </trkpt>
      <trkpt lat="47.35654" lon="6.55349">
        <ele>591.588</ele>
        <time>2015-10-02T12:20:08Z</time>
      </trkpt>
      <trkpt lat="47.35651" lon="6.55339">
        <ele>590.807</ele>
        <time>2015-10-02T12:20:09Z</time>
      </trkpt>
      <trkpt lat="47.35648" lon="6.55328">
        <ele>590.075</ele>
        <time>2015-10-02T12:20:10Z</time>
      </trkpt>
      <trkpt lat="47.35646" lon="6.55317">
        <ele>589.993</ele>
        <time>2015-10-02T12:20:11Z</time>
      </trkpt>
      <trkpt lat="47.35643" lon="6.55305">
        <ele>589.565</ele>
        <time>2015-10-02T12:20:12Z</time>
      </trkpt>
      <trkpt lat="47.3564" lon="6.55294">
        <ele>589.046</ele>
        <time>2015-10-02T12:20:13Z</time>
      </trkpt>
      <trkpt lat="47.35638" lon="6.55281">
        <ele>588.671</ele>
        <time>2015-10-02T12:20:14Z</time>
      </trkpt>
      <trkpt lat="47.35635" lon="6.5527">
        <ele>589.16</ele>
        <time>2015-10-02T12:20:15Z</time>
      </trkpt>
      <trkpt lat="47.35632" lon="6.55259">
        <ele>589.471</ele>
        <time>2015-10-02T12:20:16Z</time>
      </trkpt>
      <trkpt lat="47.3563" lon="6.55246">
        <ele>589.415</ele>
        <time>2015-10-02T12:20:17Z</time>
      </trkpt>
      <trkpt lat="47.35628" lon="6.55235">
        <ele>588.937</ele>
        <time>2015-10-02T12:20:18Z</time>
      </trkpt>
      <trkpt lat="47.35625" lon="6.55224">
        <ele>589.817</ele>
        <time>2015-10-02T12:20:19Z</time>
      </trkpt>
      <trkpt lat="47.35622" lon="6.55213">
        <ele>589.327</ele>
        <time>2015-10-02T12:20:20Z</time>
      </trkpt>
      <trkpt lat="47.3562" lon="6.55203">
        <ele>589.028</ele>
        <time>2015-10-02T12:20:21Z</time>
      </trkpt>
      <trkpt lat="47.35617" lon="6.55192">
        <ele>588.83</ele>
        <time>2015-10-02T12:20:22Z</time>
      </trkpt>
      <trkpt lat="47.35614" lon="6.55182">
        <ele>588.99</ele>
        <time>2015-10-02T12:20:23Z</time>
      </trkpt>
      <trkpt lat="47.35612" lon="6.55171">
        <ele>588.337</ele>
        <time>2015-10-02T12:20:24Z</time>
      </trkpt>
      <trkpt lat="47.35609" lon="6.55161">
        <ele>588.211</ele>
        <time>2015-10-02T12:20:25Z</time>
      </trkpt>
      <trkpt lat="47.35606" lon="6.55151">
        <ele>588.564</ele>
        <time>2015-10-02T12:20:26Z</time>
      </trkpt>
      <trkpt lat="47.35604" lon="6.5514">
        <ele>588.283</ele>
        <time>2015-10-02T12:20:27Z</time>
      </trkpt>
      <trkpt lat="47.35602" lon="6.5513">
        <ele>588.502</ele>
        <time>2015-10-02T12:20:28Z</time>
      </trkpt>
      <trkpt lat="47.356" lon="6.55121">
        <ele>588.374</ele>
        <time>2015-10-02T12:20:29Z</time>
      </trkpt>
      <trkpt lat="47.35598" lon="6.55113">
        <ele>588.843</ele>
        <time>2015-10-02T12:20:30Z</time>
      </trkpt>
      <trkpt lat="47.35595" lon="6.55105">
        <ele>588.842</ele>
        <time>2015-10-02T12:20:31Z</time>
      </trkpt>
      <trkpt lat="47.35593" lon="6.55096">
        <ele>588.683</ele>
        <time>2015-10-02T12:20:32Z</time>
      </trkpt>
      <trkpt lat="47.3559" lon="6.55088">
        <ele>589.062</ele>
        <time>2015-10-02T12:20:33Z</time>
      </trkpt>
      <trkpt lat="47.35588" lon="6.5508">
        <ele>589.053</ele>
        <time>2015-10-02T12:20:34Z</time>
      </trkpt>
      <trkpt lat="47.35585" lon="6.55072">
        <ele>589.426</ele>
        <time>2015-10-02T12:20:35Z</time>
      </trkpt>
      <trkpt lat="47.35582" lon="6.55063">
        <ele>589.367</ele>
        <time>2015-10-02T12:20:36Z</time>
      </trkpt>
      <trkpt lat="47.35579" lon="6.55055">
        <ele>589.701</ele>
        <time>2015-10-02T12:20:37Z</time>
      </trkpt>
      <trkpt lat="47.35575" lon="6.55045">
        <ele>589.926</ele>
        <time>2015-10-02T12:20:38Z</time>
      </trkpt>
      <trkpt lat="47.35572" lon="6.55035">
        <ele>589.82</ele>
        <time>2015-10-02T12:20:39Z</time>
      </trkpt>
      <trkpt lat="47.35569" lon="6.55025">
        <ele>589.485</ele>
        <time>2015-10-02T12:20:40Z</time>
      </trkpt>
      <trkpt lat="47.35566" lon="6.55015">
        <ele>589.165</ele>
        <time>2015-10-02T12:20:41Z</time>
      </trkpt>
      <trkpt lat="47.35562" lon="6.55004">
        <ele>589.499</ele>
        <time>2015-10-02T12:20:42Z</time>
      </trkpt>
      <trkpt lat="47.35559" lon="6.54994">
        <ele>589.246</ele>
        <time>2015-10-02T12:20:43Z</time>
      </trkpt>
      <trkpt lat="47.35555" lon="6.54983">
        <ele>588.755</ele>
        <time>2015-10-02T12:20:44Z</time>
      </trkpt>
      <trkpt lat="47.35551" lon="6.54972">
        <ele>588.582</ele>
        <time>2015-10-02T12:20:45Z</time>
      </trkpt>
      <trkpt lat="47.35547" lon="6.5496">
        <ele>589.115</ele>
        <time>2015-10-02T12:20:46Z</time>
      </trkpt>
      <trkpt lat="47.35543" lon="6.54949">
        <ele>588.946</ele>
        <time>2015-10-02T12:20:47Z</time>
      </trkpt>
      <trkpt lat="47.3554" lon="6.54936">
        <ele>588.689</ele>
        <time>2015-10-02T12:20:48Z</time>
      </trkpt>
      <trkpt lat="47.35536" lon="6.54924">
        <ele>588.142</ele>
        <time>2015-10-02T12:20:49Z</time>
      </trkpt>
      <trkpt lat="47.35533" lon="6.54911">
        <ele>587.459</ele>
        <time>2015-10-02T12:20:50Z</time>
      </trkpt>
      <trkpt lat="47.35529" lon="6.54898">
        <ele>586.213</ele>
        <time>2015-10-02T12:20:51Z</time>
      </trkpt>
      <trkpt lat="47.35527" lon="6.54884">
        <ele>585.426</ele>
        <time>2015-10-02T12:20:52Z</time>
      </trkpt>
      <trkpt lat="47.35524" lon="6.54871">
        <ele>583.001</ele>
        <time>2015-10-02T12:20:53Z</time>
      </trkpt>
      <trkpt lat="47.35522" lon="6.54858">
        <ele>582.382</ele>
        <time>2015-10-02T12:20:54Z</time>
      </trkpt>
      <trkpt lat="47.35522" lon="6.54845">
        <ele>581.426</ele>
        <time>2015-10-02T12:20:55Z</time>
      </trkpt>
      <trkpt lat="47.3552" lon="6.5483">
        <ele>580.623</ele>
        <time>2015-10-02T12:20:56Z</time>
      </trkpt>
      <trkpt lat="47.35519" lon="6.54817">
        <ele>580.155</ele>
        <time>2015-10-02T12:20:57Z</time>
      </trkpt>
      <trkpt lat="47.35519" lon="6.54803">
        <ele>580.675</ele>
        <time>2015-10-02T12:20:58Z</time>
      </trkpt>
      <trkpt lat="47.35519" lon="6.5479">
        <ele>580.348</ele>
        <time>2015-10-02T12:20:59Z</time>
      </trkpt>
      <trkpt lat="47.35518" lon="6.54777">
        <ele>579.984</ele>
        <time>2015-10-02T12:21:00Z</time>
      </trkpt>
      <trkpt lat="47.35517" lon="6.54765">
        <ele>579.764</ele>
        <time>2015-10-02T12:21:01Z</time>
      </trkpt>
      <trkpt lat="47.35517" lon="6.54753">
        <ele>579.213</ele>
        <time>2015-10-02T12:21:02Z</time>
      </trkpt>
      <trkpt lat="47.35517" lon="6.54742">
        <ele>579.243</ele>
        <time>2015-10-02T12:21:03Z</time>
      </trkpt>
      <trkpt lat="47.35516" lon="6.54731">
        <ele>578.422</ele>
        <time>2015-10-02T12:21:04Z</time>
      </trkpt>
      <trkpt lat="47.35515" lon="6.54718">
        <ele>577.286</ele>
        <time>2015-10-02T12:21:05Z</time>
      </trkpt>
      <trkpt lat="47.35514" lon="6.54706">
        <ele>577.166</ele>
        <time>2015-10-02T12:21:06Z</time>
      </trkpt>
      <trkpt lat="47.35513" lon="6.54696">
        <ele>577.603</ele>
        <time>2015-10-02T12:21:07Z</time>
      </trkpt>
      <trkpt lat="47.35511" lon="6.54685">
        <ele>577.879</ele>
        <time>2015-10-02T12:21:08Z</time>
      </trkpt>
      <trkpt lat="47.35511" lon="6.54674">
        <ele>577.818</ele>
        <time>2015-10-02T12:21:09Z</time>
      </trkpt>
      <trkpt lat="47.35509" lon="6.54663">
        <ele>577.371</ele>
        <time>2015-10-02T12:21:10Z</time>
      </trkpt>
      <trkpt lat="47.35508" lon="6.54652">
        <ele>577.975</ele>
        <time>2015-10-02T12:21:11Z</time>
      </trkpt>
      <trkpt lat="47.35507" lon="6.54641">
        <ele>577.277</ele>
        <time>2015-10-02T12:21:12Z</time>
      </trkpt>
      <trkpt lat="47.35507" lon="6.54629">
        <ele>576.228</ele>
        <time>2015-10-02T12:21:13Z</time>
      </trkpt>
      <trkpt lat="47.35507" lon="6.54615">
        <ele>574.811</ele>
        <time>2015-10-02T12:21:14Z</time>
      </trkpt>
      <trkpt lat="47.35507" lon="6.546">
        <ele>573.117</ele>
        <time>2015-10-02T12:21:15Z</time>
      </trkpt>
      <trkpt lat="47.35506" lon="6.5459">
        <ele>572.84</ele>
        <time>2015-10-02T12:21:16Z</time>
      </trkpt>
      <trkpt lat="47.35505" lon="6.54578">
        <ele>572.617</ele>
        <time>2015-10-02T12:21:17Z</time>
      </trkpt>
      <trkpt lat="47.35506" lon="6.54564">
        <ele>571.205</ele>
        <time>2015-10-02T12:21:18Z</time>
      </trkpt>
      <trkpt lat="47.35504" lon="6.54552">
        <ele>570.309</ele>
        <time>2015-10-02T12:21:19Z</time>
      </trkpt>
      <trkpt lat="47.35503" lon="6.54541">
        <ele>569.797</ele>
        <time>2015-10-02T12:21:20Z</time>
      </trkpt>
      <trkpt lat="47.35503" lon="6.5453">
        <ele>568.99</ele>
        <time>2015-10-02T12:21:21Z</time>
      </trkpt>
      <trkpt lat="47.35503" lon="6.54519">
        <ele>568.422</ele>
        <time>2015-10-02T12:21:22Z</time>
      </trkpt>
      <trkpt lat="47.35502" lon="6.54508">
        <ele>568.194</ele>
        <time>2015-10-02T12:21:23Z</time>
      </trkpt>
      <trkpt lat="47.35501" lon="6.54498">
        <ele>567.87</ele>
        <time>2015-10-02T12:21:24Z</time>
      </trkpt>
      <trkpt lat="47.35499" lon="6.54489">
        <ele>567.325</ele>
        <time>2015-10-02T12:21:25Z</time>
      </trkpt>
      <trkpt lat="47.35498" lon="6.54479">
        <ele>566.942</ele>
        <time>2015-10-02T12:21:26Z</time>
      </trkpt>
      <trkpt lat="47.35496" lon="6.54469">
        <ele>566.924</ele>
        <time>2015-10-02T12:21:27Z</time>
      </trkpt>
      <trkpt lat="47.35494" lon="6.54459">
        <ele>566.925</ele>
        <time>2015-10-02T12:21:28Z</time>
      </trkpt>
      <trkpt lat="47.35492" lon="6.54451">
        <ele>568.032</ele>
        <time>2015-10-02T12:21:29Z</time>
      </trkpt>
      <trkpt lat="47.35489" lon="6.54442">
        <ele>568.099</ele>
        <time>2015-10-02T12:21:30Z</time>
      </trkpt>
      <trkpt lat="47.35487" lon="6.54436">
        <ele>568.492</ele>
        <time>2015-10-02T12:21:31Z</time>
      </trkpt>
      <trkpt lat="47.35485" lon="6.54428">
        <ele>568.313</ele>
        <time>2015-10-02T12:21:32Z</time>
      </trkpt>
      <trkpt lat="47.35482" lon="6.54421">
        <ele>568.538</ele>
        <time>2015-10-02T12:21:33Z</time>
      </trkpt>
      <trkpt lat="47.35479" lon="6.54415">
        <ele>569.005</ele>
        <time>2015-10-02T12:21:34Z</time>
      </trkpt>
      <trkpt lat="47.35476" lon="6.54409">
        <ele>570.098</ele>
        <time>2015-10-02T12:21:35Z</time>
      </trkpt>
      <trkpt lat="47.35473" lon="6.54401">
        <ele>570.272</ele>
        <time>2015-10-02T12:21:36Z</time>
      </trkpt>
      <trkpt lat="47.35471" lon="6.54393">
        <ele>570.938</ele>
        <time>2015-10-02T12:21:37Z</time>
      </trkpt>
      <trkpt lat="47.35469" lon="6.54384">
        <ele>570.894</ele>
        <time>2015-10-02T12:21:38Z</time>
      </trkpt>
      <trkpt lat="47.35467" lon="6.54376">
        <ele>570.612</ele>
        <time>2015-10-02T12:21:39Z</time>
      </trkpt>
      <trkpt lat="47.35465" lon="6.54367">
        <ele>569.882</ele>
        <time>2015-10-02T12:21:40Z</time>
      </trkpt>
      <trkpt lat="47.35465" lon="6.54358">
        <ele>569.771</ele>
        <time>2015-10-02T12:21:41Z</time>
      </trkpt>
      <trkpt lat="47.35464" lon="6.54349">
        <ele>570.149</ele>
        <time>2015-10-02T12:21:42Z</time>
      </trkpt>
      <trkpt lat="47.35463" lon="6.5434">
        <ele>569.552</ele>
        <time>2015-10-02T12:21:43Z</time>
      </trkpt>
      <trkpt lat="47.35464" lon="6.54331">
        <ele>569.925</ele>
        <time>2015-10-02T12:21:44Z</time>
      </trkpt>
      <trkpt lat="47.35463" lon="6.54323">
        <ele>569.51</ele>
        <time>2015-10-02T12:21:45Z</time>
      </trkpt>
      <trkpt lat="47.35463" lon="6.54314">
        <ele>569.966</ele>
        <time>2015-10-02T12:21:46Z</time>
      </trkpt>
      <trkpt lat="47.35463" lon="6.54306">
        <ele>570.231</ele>
        <time>2015-10-02T12:21:47Z</time>
      </trkpt>
      <trkpt lat="47.35463" lon="6.54298">
        <ele>569.857</ele>
        <time>2015-10-02T12:21:48Z</time>
      </trkpt>
      <trkpt lat="47.35463" lon="6.5429">
        <ele>569.522</ele>
        <time>2015-10-02T12:21:49Z</time>
      </trkpt>
      <trkpt lat="47.35462" lon="6.54281">
        <ele>568.723</ele>
        <time>2015-10-02T12:21:50Z</time>
      </trkpt>
      <trkpt lat="47.35462" lon="6.54274">
        <ele>568.186</ele>
        <time>2015-10-02T12:21:51Z</time>
      </trkpt>
      <trkpt lat="47.35461" lon="6.54267">
        <ele>567.671</ele>
        <time>2015-10-02T12:21:52Z</time>
      </trkpt>
      <trkpt lat="47.35461" lon="6.5426">
        <ele>566.862</ele>
        <time>2015-10-02T12:21:53Z</time>
      </trkpt>
      <trkpt lat="47.35461" lon="6.54253">
        <ele>566.949</ele>
        <time>2015-10-02T12:21:54Z</time>
      </trkpt>
      <trkpt lat="47.35461" lon="6.54246">
        <ele>567.04</ele>
        <time>2015-10-02T12:21:55Z</time>
      </trkpt>
      <trkpt lat="47.35461" lon="6.5424">
        <ele>567.984</ele>
        <time>2015-10-02T12:21:56Z</time>
      </trkpt>
      <trkpt lat="47.35463" lon="6.54235">
        <ele>569.179</ele>
        <time>2015-10-02T12:21:57Z</time>
      </trkpt>
      <trkpt lat="47.35464" lon="6.54228">
        <ele>568.407</ele>
        <time>2015-10-02T12:21:58Z</time>
      </trkpt>
      <trkpt lat="47.35464" lon="6.54221">
        <ele>568.967</ele>
        <time>2015-10-02T12:21:59Z</time>
      </trkpt>
      <trkpt lat="47.35464" lon="6.54213">
        <ele>568.266</ele>
        <time>2015-10-02T12:22:00Z</time>
      </trkpt>
      <trkpt lat="47.35464" lon="6.54206">
        <ele>568.495</ele>
        <time>2015-10-02T12:22:01Z</time>
      </trkpt>
      <trkpt lat="47.35465" lon="6.54199">
        <ele>567.64</ele>
        <time>2015-10-02T12:22:02Z</time>
      </trkpt>
      <trkpt lat="47.35465" lon="6.54192">
        <ele>567.062</ele>
        <time>2015-10-02T12:22:03Z</time>
      </trkpt>
      <trkpt lat="47.35464" lon="6.54184">
        <ele>566.591</ele>
        <time>2015-10-02T12:22:04Z</time>
      </trkpt>
      <trkpt lat="47.35464" lon="6.54177">
        <ele>566.415</ele>
        <time>2015-10-02T12:22:05Z</time>
      </trkpt>
      <trkpt lat="47.35464" lon="6.54167">
        <ele>565.369</ele>
        <time>2015-10-02T12:22:06Z</time>
      </trkpt>
      <trkpt lat="47.35464" lon="6.54159">
        <ele>564.426</ele>
        <time>2015-10-02T12:22:07Z</time>
      </trkpt>
      <trkpt lat="47.35463" lon="6.54152">
        <ele>564.023</ele>
        <time>2015-10-02T12:22:08Z</time>
      </trkpt>
      <trkpt lat="47.35463" lon="6.54144">
        <ele>563.76</ele>
        <time>2015-10-02T12:22:09Z</time>
      </trkpt>
      <trkpt lat="47.35463" lon="6.54136">
        <ele>563.891</ele>
        <time>2015-10-02T12:22:10Z</time>
      </trkpt>
      <trkpt lat="47.35463" lon="6.54127">
        <ele>564.684</ele>
        <time>2015-10-02T12:22:11Z</time>
      </trkpt>
      <trkpt lat="47.35463" lon="6.54117">
        <ele>563.38</ele>
        <time>2015-10-02T12:22:12Z</time>
      </trkpt>
      <trkpt lat="47.35464" lon="6.54108">
        <ele>564.468</ele>
        <time>2015-10-02T12:22:13Z</time>
      </trkpt>
      <trkpt lat="47.35463" lon="6.54099">
        <ele>564.253</ele>
        <time>2015-10-02T12:22:14Z</time>
      </trkpt>
      <trkpt lat="47.35462" lon="6.5409">
        <ele>564.887</ele>
        <time>2015-10-02T12:22:15Z</time>
      </trkpt>
      <trkpt lat="47.35461" lon="6.54078">
        <ele>563.349</ele>
        <time>2015-10-02T12:22:16Z</time>
      </trkpt>
      <trkpt lat="47.35461" lon="6.54068">
        <ele>562.485</ele>
        <time>2015-10-02T12:22:17Z</time>
      </trkpt>
      <trkpt lat="47.35462" lon="6.54059">
        <ele>562.044</ele>
        <time>2015-10-02T12:22:18Z</time>
      </trkpt>
      <trkpt lat="47.35461" lon="6.54049">
        <ele>561.111</ele>
        <time>2015-10-02T12:22:19Z</time>
      </trkpt>
      <trkpt lat="47.35461" lon="6.5404">
        <ele>561.711</ele>
        <time>2015-10-02T12:22:20Z</time>
      </trkpt>
      <trkpt lat="47.35461" lon="6.5403">
        <ele>561.358</ele>
        <time>2015-10-02T12:22:21Z</time>
      </trkpt>
      <trkpt lat="47.3546" lon="6.54022">
        <ele>560.36</ele>
        <time>2015-10-02T12:22:22Z</time>
      </trkpt>
      <trkpt lat="47.3546" lon="6.54013">
        <ele>559.985</ele>
        <time>2015-10-02T12:22:23Z</time>
      </trkpt>
      <trkpt lat="47.3546" lon="6.54005">
        <ele>560.773</ele>
        <time>2015-10-02T12:22:24Z</time>
      </trkpt>
      <trkpt lat="47.35459" lon="6.53995">
        <ele>561.107</ele>
        <time>2015-10-02T12:22:25Z</time>
      </trkpt>
      <trkpt lat="47.35459" lon="6.53982">
        <ele>560.087</ele>
        <time>2015-10-02T12:22:26Z</time>
      </trkpt>
      <trkpt lat="47.35458" lon="6.53971">
        <ele>558.748</ele>
        <time>2015-10-02T12:22:27Z</time>
      </trkpt>
      <trkpt lat="47.35457" lon="6.53961">
        <ele>557.879</ele>
        <time>2015-10-02T12:22:28Z</time>
      </trkpt>
      <trkpt lat="47.35455" lon="6.53952">
        <ele>557.912</ele>
        <time>2015-10-02T12:22:29Z</time>
      </trkpt>
      <trkpt lat="47.35453" lon="6.53942">
        <ele>557.939</ele>
        <time>2015-10-02T12:22:30Z</time>
      </trkpt>
      <trkpt lat="47.35452" lon="6.53932">
        <ele>558.421</ele>
        <time>2015-10-02T12:22:31Z</time>
      </trkpt>
      <trkpt lat="47.35451" lon="6.53923">
        <ele>559.281</ele>
        <time>2015-10-02T12:22:32Z</time>
      </trkpt>
      <trkpt lat="47.35449" lon="6.53912">
        <ele>559.808</ele>
        <time>2015-10-02T12:22:33Z</time>
      </trkpt>
      <trkpt lat="47.35447" lon="6.53903">
        <ele>560.525</ele>
        <time>2015-10-02T12:22:34Z</time>
      </trkpt>
      <trkpt lat="47.35444" lon="6.53894">
        <ele>561.351</ele>
        <time>2015-10-02T12:22:35Z</time>
      </trkpt>
      <trkpt lat="47.35442" lon="6.53885">
        <ele>561.434</ele>
        <time>2015-10-02T12:22:36Z</time>
      </trkpt>
      <trkpt lat="47.35441" lon="6.53874">
        <ele>561.405</ele>
        <time>2015-10-02T12:22:37Z</time>
      </trkpt>
      <trkpt lat="47.3544" lon="6.53866">
        <ele>560.93</ele>
        <time>2015-10-02T12:22:38Z</time>
      </trkpt>
      <trkpt lat="47.35438" lon="6.53858">
        <ele>560.604</ele>
        <time>2015-10-02T12:22:39Z</time>
      </trkpt>
      <trkpt lat="47.35435" lon="6.53849">
        <ele>559.786</ele>
        <time>2015-10-02T12:22:40Z</time>
      </trkpt>
      <trkpt lat="47.35433" lon="6.53842">
        <ele>559.266</ele>
        <time>2015-10-02T12:22:41Z</time>
      </trkpt>
      <trkpt lat="47.35432" lon="6.53833">
        <ele>559.314</ele>
        <time>2015-10-02T12:22:42Z</time>
      </trkpt>
      <trkpt lat="47.3543" lon="6.53826">
        <ele>559.223</ele>
        <time>2015-10-02T12:22:43Z</time>
      </trkpt>
      <trkpt lat="47.35428" lon="6.53817">
        <ele>559.642</ele>
        <time>2015-10-02T12:22:44Z</time>
      </trkpt>
      <trkpt lat="47.35427" lon="6.53811">
        <ele>559.523</ele>
        <time>2015-10-02T12:22:45Z</time>
      </trkpt>
      <trkpt lat="47.35426" lon="6.53803">
        <ele>559.757</ele>
        <time>2015-10-02T12:22:46Z</time>
      </trkpt>
      <trkpt lat="47.35424" lon="6.53795">
        <ele>559.58</ele>
        <time>2015-10-02T12:22:47Z</time>
      </trkpt>
      <trkpt lat="47.35423" lon="6.53788">
        <ele>560.51</ele>
        <time>2015-10-02T12:22:48Z</time>
      </trkpt>
      <trkpt lat="47.35421" lon="6.53781">
        <ele>561.168</ele>
        <time>2015-10-02T12:22:49Z</time>
      </trkpt>
      <trkpt lat="47.35419" lon="6.53774">
        <ele>561.886</ele>
        <time>2015-10-02T12:22:50Z</time>
      </trkpt>
      <trkpt lat="47.35418" lon="6.53766">
        <ele>562.206</ele>
        <time>2015-10-02T12:22:51Z</time>
      </trkpt>
      <trkpt lat="47.35417" lon="6.5376">
        <ele>563.098</ele>
        <time>2015-10-02T12:22:52Z</time>
      </trkpt>
      <trkpt lat="47.35416" lon="6.53753">
        <ele>562.571</ele>
        <time>2015-10-02T12:22:53Z</time>
      </trkpt>
      <trkpt lat="47.35416" lon="6.53745">
        <ele>562.106</ele>
        <time>2015-10-02T12:22:54Z</time>
      </trkpt>
      <trkpt lat="47.35416" lon="6.53736">
        <ele>561.349</ele>
        <time>2015-10-02T12:22:55Z</time>
      </trkpt>
      <trkpt lat="47.35415" lon="6.53729">
        <ele>561.36</ele>
        <time>2015-10-02T12:22:56Z</time>
      </trkpt>
      <trkpt lat="47.35415" lon="6.53723">
        <ele>561.752</ele>
        <time>2015-10-02T12:22:57Z</time>
      </trkpt>
      <trkpt lat="47.35414" lon="6.53719">
        <ele>561.501</ele>
        <time>2015-10-02T12:22:58Z</time>
      </trkpt>
      <trkpt lat="47.35414" lon="6.53714">
        <ele>562.18</ele>
        <time>2015-10-02T12:22:59Z</time>
      </trkpt>
      <trkpt lat="47.35414" lon="6.53708">
        <ele>561.871</ele>
        <time>2015-10-02T12:23:00Z</time>
      </trkpt>
      <trkpt lat="47.35414" lon="6.53703">
        <ele>562.108</ele>
        <time>2015-10-02T12:23:01Z</time>
      </trkpt>
      <trkpt lat="47.35414" lon="6.53699">
        <ele>561.965</ele>
        <time>2015-10-02T12:23:02Z</time>
      </trkpt>
      <trkpt lat="47.35413" lon="6.53695">
        <ele>561.897</ele>
        <time>2015-10-02T12:23:03Z</time>
      </trkpt>
      <trkpt lat="47.35413" lon="6.53691">
        <ele>561.768</ele>
        <time>2015-10-02T12:23:04Z</time>
      </trkpt>
      <trkpt lat="47.35413" lon="6.53687">
        <ele>562.39</ele>
        <time>2015-10-02T12:23:05Z</time>
      </trkpt>
      <trkpt lat="47.35413" lon="6.53683">
        <ele>562.166</ele>
        <time>2015-10-02T12:23:06Z</time>
      </trkpt>
      <trkpt lat="47.35413" lon="6.53679">
        <ele>563.534</ele>
        <time>2015-10-02T12:23:07Z</time>
      </trkpt>
      <trkpt lat="47.35414" lon="6.53674">
        <ele>563.589</ele>
        <time>2015-10-02T12:23:08Z</time>
      </trkpt>
      <trkpt lat="47.35414" lon="6.53669">
        <ele>563.226</ele>
        <time>2015-10-02T12:23:09Z</time>
      </trkpt>
      <trkpt lat="47.35415" lon="6.53665">
        <ele>563.68</ele>
        <time>2015-10-02T12:23:10Z</time>
      </trkpt>
      <trkpt lat="47.35415" lon="6.5366">
        <ele>564.652</ele>
        <time>2015-10-02T12:23:11Z</time>
      </trkpt>
      <trkpt lat="47.35416" lon="6.53655">
        <ele>564.864</ele>
        <time>2015-10-02T12:23:12Z</time>
      </trkpt>
      <trkpt lat="47.35416" lon="6.5365">
        <ele>564.904</ele>
        <time>2015-10-02T12:23:13Z</time>
      </trkpt>
      <trkpt lat="47.35416" lon="6.53644">
        <ele>565.883</ele>
        <time>2015-10-02T12:23:14Z</time>
      </trkpt>
      <trkpt lat="47.35417" lon="6.53639">
        <ele>565.966</ele>
        <time>2015-10-02T12:23:15Z</time>
      </trkpt>
      <trkpt lat="47.35417" lon="6.53633">
        <ele>564.75</ele>
        <time>2015-10-02T12:23:16Z</time>
      </trkpt>
      <trkpt lat="47.35418" lon="6.53627">
        <ele>564.238</ele>
        <time>2015-10-02T12:23:17Z</time>
      </trkpt>
      <trkpt lat="47.35418" lon="6.53621">
        <ele>563.774</ele>
        <time>2015-10-02T12:23:18Z</time>
      </trkpt>
      <trkpt lat="47.35419" lon="6.53616">
        <ele>563.546</ele>
        <time>2015-10-02T12:23:19Z</time>
      </trkpt>
      <trkpt lat="47.3542" lon="6.5361">
        <ele>563.233</ele>
        <time>2015-10-02T12:23:20Z</time>
      </trkpt>
      <trkpt lat="47.3542" lon="6.53605">
        <ele>563.649</ele>
        <time>2015-10-02T12:23:21Z</time>
      </trkpt>
      <trkpt lat="47.35421" lon="6.53599">
        <ele>563.682</ele>
        <time>2015-10-02T12:23:22Z</time>
      </trkpt>
      <trkpt lat="47.35422" lon="6.53593">
        <ele>563.201</ele>
        <time>2015-10-02T12:23:23Z</time>
      </trkpt>
      <trkpt lat="47.35422" lon="6.53587">
        <ele>563.677</ele>
        <time>2015-10-02T12:23:24Z</time>
      </trkpt>
      <trkpt lat="47.35423" lon="6.53582">
        <ele>563.48</ele>
        <time>2015-10-02T12:23:25Z</time>
      </trkpt>
      <trkpt lat="47.35424" lon="6.53577">
        <ele>562.751</ele>
        <time>2015-10-02T12:23:26Z</time>
      </trkpt>
      <trkpt lat="47.35425" lon="6.53572">
        <ele>562.552</ele>
        <time>2015-10-02T12:23:27Z</time>
      </trkpt>
      <trkpt lat="47.35425" lon="6.53566">
        <ele>562.593</ele>
        <time>2015-10-02T12:23:28Z</time>
      </trkpt>
      <trkpt lat="47.35426" lon="6.53561">
        <ele>562.638</ele>
        <time>2015-10-02T12:23:29Z</time>
      </trkpt>
      <trkpt lat="47.35427" lon="6.53556">
        <ele>562.445</ele>
        <time>2015-10-02T12:23:30Z</time>
      </trkpt>
      <trkpt lat="47.35428" lon="6.53551">
        <ele>562.471</ele>
        <time>2015-10-02T12:23:31Z</time>
      </trkpt>
      <trkpt lat="47.35429" lon="6.53545">
        <ele>562.393</ele>
        <time>2015-10-02T12:23:32Z</time>
      </trkpt>
      <trkpt lat="47.3543" lon="6.5354">
        <ele>563.069</ele>
        <time>2015-10-02T12:23:33Z</time>
      </trkpt>
      <trkpt lat="47.35431" lon="6.53535">
        <ele>563.185</ele>
        <time>2015-10-02T12:23:34Z</time>
      </trkpt>
      <trkpt lat="47.35432" lon="6.5353">
        <ele>562.941</ele>
        <time>2015-10-02T12:23:35Z</time>
      </trkpt>
      <trkpt lat="47.35432" lon="6.53525">
        <ele>562.628</ele>
        <time>2015-10-02T12:23:36Z</time>
      </trkpt>
      <trkpt lat="47.35434" lon="6.53519">
        <ele>562.318</ele>
        <time>2015-10-02T12:23:37Z</time>
      </trkpt>
      <trkpt lat="47.35434" lon="6.53513">
        <ele>562.38</ele>
        <time>2015-10-02T12:23:38Z</time>
      </trkpt>
      <trkpt lat="47.35435" lon="6.53507">
        <ele>561.984</ele>
        <time>2015-10-02T12:23:39Z</time>
      </trkpt>
      <trkpt lat="47.35435" lon="6.53501">
        <ele>562.326</ele>
        <time>2015-10-02T12:23:40Z</time>
      </trkpt>
      <trkpt lat="47.35436" lon="6.53495">
        <ele>563.154</ele>
        <time>2015-10-02T12:23:41Z</time>
      </trkpt>
      <trkpt lat="47.35436" lon="6.53489">
        <ele>564.655</ele>
        <time>2015-10-02T12:23:42Z</time>
      </trkpt>
      <trkpt lat="47.35437" lon="6.53483">
        <ele>564.233</ele>
        <time>2015-10-02T12:23:43Z</time>
      </trkpt>
      <trkpt lat="47.35437" lon="6.53477">
        <ele>563.717</ele>
        <time>2015-10-02T12:23:44Z</time>
      </trkpt>
      <trkpt lat="47.35437" lon="6.53471">
        <ele>563.591</ele>
        <time>2015-10-02T12:23:45Z</time>
      </trkpt>
      <trkpt lat="47.35437" lon="6.53465">
        <ele>564.134</ele>
        <time>2015-10-02T12:23:46Z</time>
      </trkpt>
      <trkpt lat="47.35437" lon="6.53459">
        <ele>563.79</ele>
        <time>2015-10-02T12:23:47Z</time>
      </trkpt>
      <trkpt lat="47.35436" lon="6.53453">
        <ele>563.566</ele>
        <time>2015-10-02T12:23:48Z</time>
      </trkpt>
      <trkpt lat="47.35436" lon="6.53447">
        <ele>565.167</ele>
        <time>2015-10-02T12:23:49Z</time>
      </trkpt>
      <trkpt lat="47.35436" lon="6.53441">
        <ele>565.802</ele>
        <time>2015-10-02T12:23:50Z</time>
      </trkpt>
      <trkpt lat="47.35436" lon="6.53436">
        <ele>565.765</ele>
        <time>2015-10-02T12:23:51Z</time>
      </trkpt>
      <trkpt lat="47.35438" lon="6.5343">
        <ele>567.519</ele>
        <time>2015-10-02T12:23:52Z</time>
      </trkpt>
      <trkpt lat="47.35437" lon="6.53422">
        <ele>566.849</ele>
        <time>2015-10-02T12:23:53Z</time>
      </trkpt>
      <trkpt lat="47.35438" lon="6.53413">
        <ele>567.09</ele>
        <time>2015-10-02T12:23:54Z</time>
      </trkpt>
      <trkpt lat="47.35437" lon="6.53405">
        <ele>566.355</ele>
        <time>2015-10-02T12:23:55Z</time>
      </trkpt>
      <trkpt lat="47.35437" lon="6.53397">
        <ele>566.542</ele>
        <time>2015-10-02T12:23:56Z</time>
      </trkpt>
      <trkpt lat="47.35437" lon="6.53389">
        <ele>565.343</ele>
        <time>2015-10-02T12:23:57Z</time>
      </trkpt>
      <trkpt lat="47.35438" lon="6.53381">
        <ele>565.097</ele>
        <time>2015-10-02T12:23:58Z</time>
      </trkpt>
      <trkpt lat="47.35439" lon="6.53372">
        <ele>564.516</ele>
        <time>2015-10-02T12:23:59Z</time>
      </trkpt>
      <trkpt lat="47.35441" lon="6.53362">
        <ele>563.267</ele>
        <time>2015-10-02T12:24:00Z</time>
      </trkpt>
      <trkpt lat="47.35442" lon="6.53353">
        <ele>562.456</ele>
        <time>2015-10-02T12:24:01Z</time>
      </trkpt>
      <trkpt lat="47.35444" lon="6.53346">
        <ele>562.634</ele>
        <time>2015-10-02T12:24:02Z</time>
      </trkpt>
      <trkpt lat="47.35445" lon="6.53337">
        <ele>561.512</ele>
        <time>2015-10-02T12:24:03Z</time>
      </trkpt>
      <trkpt lat="47.35447" lon="6.53331">
        <ele>561.527</ele>
        <time>2015-10-02T12:24:04Z</time>
      </trkpt>
      <trkpt lat="47.35451" lon="6.53325">
        <ele>561.932</ele>
        <time>2015-10-02T12:24:05Z</time>
      </trkpt>
      <trkpt lat="47.35454" lon="6.53318">
        <ele>562.006</ele>
        <time>2015-10-02T12:24:06Z</time>
      </trkpt>
      <trkpt lat="47.35456" lon="6.5331">
        <ele>561.558</ele>
        <time>2015-10-02T12:24:07Z</time>
      </trkpt>
      <trkpt lat="47.35459" lon="6.53303">
        <ele>561.649</ele>
        <time>2015-10-02T12:24:08Z</time>
      </trkpt>
      <trkpt lat="47.35462" lon="6.53295">
        <ele>560.686</ele>
        <time>2015-10-02T12:24:09Z</time>
      </trkpt>
      <trkpt lat="47.35465" lon="6.53289">
        <ele>559.906</ele>
        <time>2015-10-02T12:24:10Z</time>
      </trkpt>
      <trkpt lat="47.35469" lon="6.53282">
        <ele>558.946</ele>
        <time>2015-10-02T12:24:11Z</time>
      </trkpt>
      <trkpt lat="47.35473" lon="6.53276">
        <ele>558.5</ele>
        <time>2015-10-02T12:24:12Z</time>
      </trkpt>
      <trkpt lat="47.35477" lon="6.53271">
        <ele>558.637</ele>
        <time>2015-10-02T12:24:13Z</time>
      </trkpt>
      <trkpt lat="47.3548" lon="6.53263">
        <ele>558.17</ele>
        <time>2015-10-02T12:24:14Z</time>
      </trkpt>
      <trkpt lat="47.35484" lon="6.53254">
        <ele>557.141</ele>
        <time>2015-10-02T12:24:15Z</time>
      </trkpt>
      <trkpt lat="47.35488" lon="6.53248">
        <ele>557.311</ele>
        <time>2015-10-02T12:24:16Z</time>
      </trkpt>
      <trkpt lat="47.35492" lon="6.5324">
        <ele>558.734</ele>
        <time>2015-10-02T12:24:17Z</time>
      </trkpt>
      <trkpt lat="47.35497" lon="6.53233">
        <ele>559.189</ele>
        <time>2015-10-02T12:24:18Z</time>
      </trkpt>
      <trkpt lat="47.35501" lon="6.53222">
        <ele>558.765</ele>
        <time>2015-10-02T12:24:19Z</time>
      </trkpt>
      <trkpt lat="47.35506" lon="6.53214">
        <ele>558.742</ele>
        <time>2015-10-02T12:24:20Z</time>
      </trkpt>
      <trkpt lat="47.35511" lon="6.53206">
        <ele>557.424</ele>
        <time>2015-10-02T12:24:21Z</time>
      </trkpt>
      <trkpt lat="47.35515" lon="6.53198">
        <ele>556.265</ele>
        <time>2015-10-02T12:24:22Z</time>
      </trkpt>
      <trkpt lat="47.35519" lon="6.5319">
        <ele>555.913</ele>
        <time>2015-10-02T12:24:23Z</time>
      </trkpt>
      <trkpt lat="47.35523" lon="6.53182">
        <ele>555.745</ele>
        <time>2015-10-02T12:24:24Z</time>
      </trkpt>
      <trkpt lat="47.35527" lon="6.53174">
        <ele>555.29</ele>
        <time>2015-10-02T12:24:25Z</time>
      </trkpt>
      <trkpt lat="47.35531" lon="6.53165">
        <ele>554.286</ele>
        <time>2015-10-02T12:24:26Z</time>
      </trkpt>
      <trkpt lat="47.35533" lon="6.53155">
        <ele>554.409</ele>
        <time>2015-10-02T12:24:27Z</time>
      </trkpt>
      <trkpt lat="47.35535" lon="6.53145">
        <ele>554.412</ele>
        <time>2015-10-02T12:24:28Z</time>
      </trkpt>
      <trkpt lat="47.35537" lon="6.53135">
        <ele>553.995</ele>
        <time>2015-10-02T12:24:29Z</time>
      </trkpt>
      <trkpt lat="47.35539" lon="6.53125">
        <ele>554.405</ele>
        <time>2015-10-02T12:24:30Z</time>
      </trkpt>
      <trkpt lat="47.35541" lon="6.53115">
        <ele>555.3</ele>
        <time>2015-10-02T12:24:31Z</time>
      </trkpt>
      <trkpt lat="47.35543" lon="6.53105">
        <ele>555.015</ele>
        <time>2015-10-02T12:24:32Z</time>
      </trkpt>
      <trkpt lat="47.35544" lon="6.53096">
        <ele>554.57</ele>
        <time>2015-10-02T12:24:33Z</time>
      </trkpt>
      <trkpt lat="47.35548" lon="6.53084">
        <ele>554.452</ele>
        <time>2015-10-02T12:24:34Z</time>
      </trkpt>
      <trkpt lat="47.35548" lon="6.53076">
        <ele>555.677</ele>
        <time>2015-10-02T12:24:35Z</time>
      </trkpt>
      <trkpt lat="47.3555" lon="6.53065">
        <ele>555.003</ele>
        <time>2015-10-02T12:24:36Z</time>
      </trkpt>
      <trkpt lat="47.35551" lon="6.53055">
        <ele>554.59</ele>
        <time>2015-10-02T12:24:37Z</time>
      </trkpt>
      <trkpt lat="47.35552" lon="6.53046">
        <ele>554.245</ele>
        <time>2015-10-02T12:24:38Z</time>
      </trkpt>
      <trkpt lat="47.35553" lon="6.53037">
        <ele>554.57</ele>
        <time>2015-10-02T12:24:39Z</time>
      </trkpt>
      <trkpt lat="47.35553" lon="6.53029">
        <ele>554.927</ele>
        <time>2015-10-02T12:24:40Z</time>
      </trkpt>
      <trkpt lat="47.35554" lon="6.53021">
        <ele>555.049</ele>
        <time>2015-10-02T12:24:41Z</time>
      </trkpt>
      <trkpt lat="47.35554" lon="6.53013">
        <ele>555.711</ele>
        <time>2015-10-02T12:24:42Z</time>
      </trkpt>
      <trkpt lat="47.35554" lon="6.53006">
        <ele>555.366</ele>
        <time>2015-10-02T12:24:43Z</time>
      </trkpt>
      <trkpt lat="47.35555" lon="6.52998">
        <ele>555.306</ele>
        <time>2015-10-02T12:24:44Z</time>
      </trkpt>
      <trkpt lat="47.35555" lon="6.5299">
        <ele>555.878</ele>
        <time>2015-10-02T12:24:45Z</time>
      </trkpt>
      <trkpt lat="47.35556" lon="6.52982">
        <ele>555.575</ele>
        <time>2015-10-02T12:24:46Z</time>
      </trkpt>
      <trkpt lat="47.35556" lon="6.52973">
        <ele>555.789</ele>
        <time>2015-10-02T12:24:47Z</time>
      </trkpt>
      <trkpt lat="47.35556" lon="6.52964">
        <ele>555.821</ele>
        <time>2015-10-02T12:24:48Z</time>
      </trkpt>
      <trkpt lat="47.35558" lon="6.52955">
        <ele>555.131</ele>
        <time>2015-10-02T12:24:49Z</time>
      </trkpt>
      <trkpt lat="47.35559" lon="6.52945">
        <ele>555.004</ele>
        <time>2015-10-02T12:24:50Z</time>
      </trkpt>
      <trkpt lat="47.35559" lon="6.52935">
        <ele>555.35</ele>
        <time>2015-10-02T12:24:51Z</time>
      </trkpt>
      <trkpt lat="47.35559" lon="6.52925">
        <ele>555.805</ele>
        <time>2015-10-02T12:24:52Z</time>
      </trkpt>
      <trkpt lat="47.35558" lon="6.52916">
        <ele>554.994</ele>
        <time>2015-10-02T12:24:53Z</time>
      </trkpt>
      <trkpt lat="47.35559" lon="6.52909">
        <ele>554.315</ele>
        <time>2015-10-02T12:24:54Z</time>
      </trkpt>
      <trkpt lat="47.35559" lon="6.52902">
        <ele>554.29</ele>
        <time>2015-10-02T12:24:55Z</time>
      </trkpt>
      <trkpt lat="47.35558" lon="6.52895">
        <ele>553.443</ele>
        <time>2015-10-02T12:24:56Z</time>
      </trkpt>
      <trkpt lat="47.3556" lon="6.52888">
        <ele>551.896</ele>
        <time>2015-10-02T12:24:57Z</time>
      </trkpt>
      <trkpt lat="47.3556" lon="6.52881">
        <ele>552.867</ele>
        <time>2015-10-02T12:24:58Z</time>
      </trkpt>
      <trkpt lat="47.3556" lon="6.52873">
        <ele>552.419</ele>
        <time>2015-10-02T12:24:59Z</time>
      </trkpt>
      <trkpt lat="47.3556" lon="6.52863">
        <ele>552.076</ele>
        <time>2015-10-02T12:25:00Z</time>
      </trkpt>
      <trkpt lat="47.35562" lon="6.52849">
        <ele>549</ele>
        <time>2015-10-02T12:25:01Z</time>
      </trkpt>
      <trkpt lat="47.35559" lon="6.52838">
        <ele>549.209</ele>
        <time>2015-10-02T12:25:02Z</time>
      </trkpt>
      <trkpt lat="47.35561" lon="6.52829">
        <ele>546.797</ele>
        <time>2015-10-02T12:25:03Z</time>
      </trkpt>
      <trkpt lat="47.35561" lon="6.52819">
        <ele>547.396</ele>
        <time>2015-10-02T12:25:04Z</time>
      </trkpt>
      <trkpt lat="47.35561" lon="6.52808">
        <ele>546.187</ele>
        <time>2015-10-02T12:25:05Z</time>
      </trkpt>
      <trkpt lat="47.35559" lon="6.52796">
        <ele>544.536</ele>
        <time>2015-10-02T12:25:06Z</time>
      </trkpt>
      <trkpt lat="47.35559" lon="6.52786">
        <ele>544.217</ele>
        <time>2015-10-02T12:25:07Z</time>
      </trkpt>
      <trkpt lat="47.3556" lon="6.52773">
        <ele>543.63</ele>
        <time>2015-10-02T12:25:08Z</time>
      </trkpt>
      <trkpt lat="47.35561" lon="6.52763">
        <ele>543.827</ele>
        <time>2015-10-02T12:25:09Z</time>
      </trkpt>
      <trkpt lat="47.35561" lon="6.52753">
        <ele>543.632</ele>
        <time>2015-10-02T12:25:10Z</time>
      </trkpt>
      <trkpt lat="47.35561" lon="6.52745">
        <ele>543.063</ele>
        <time>2015-10-02T12:25:11Z</time>
      </trkpt>
      <trkpt lat="47.3556" lon="6.52737">
        <ele>542.016</ele>
        <time>2015-10-02T12:25:12Z</time>
      </trkpt>
      <trkpt lat="47.3556" lon="6.5273">
        <ele>541.979</ele>
        <time>2015-10-02T12:25:13Z</time>
      </trkpt>
      <trkpt lat="47.35559" lon="6.52723">
        <ele>542.051</ele>
        <time>2015-10-02T12:25:14Z</time>
      </trkpt>
      <trkpt lat="47.35559" lon="6.52715">
        <ele>543.815</ele>
        <time>2015-10-02T12:25:15Z</time>
      </trkpt>
      <trkpt lat="47.35559" lon="6.5271">
        <ele>543.195</ele>
        <time>2015-10-02T12:25:16Z</time>
      </trkpt>
      <trkpt lat="47.35559" lon="6.52705">
        <ele>543.871</ele>
        <time>2015-10-02T12:25:17Z</time>
      </trkpt>
      <trkpt lat="47.35558" lon="6.527">
        <ele>544.987</ele>
        <time>2015-10-02T12:25:18Z</time>
      </trkpt>
      <trkpt lat="47.35557" lon="6.52694">
        <ele>544.968</ele>
        <time>2015-10-02T12:25:19Z</time>
      </trkpt>
      <trkpt lat="47.35557" lon="6.52688">
        <ele>545.037</ele>
        <time>2015-10-02T12:25:20Z</time>
      </trkpt>
      <trkpt lat="47.35557" lon="6.52683">
        <ele>544.715</ele>
        <time>2015-10-02T12:25:21Z</time>
      </trkpt>
      <trkpt lat="47.35557" lon="6.5268">
        <ele>545.247</ele>
        <time>2015-10-02T12:25:22Z</time>
      </trkpt>
      <trkpt lat="47.35557" lon="6.52677">
        <ele>545.269</ele>
        <time>2015-10-02T12:25:23Z</time>
      </trkpt>
      <trkpt lat="47.35557" lon="6.52672">
        <ele>544.746</ele>
        <time>2015-10-02T12:25:24Z</time>
      </trkpt>
      <trkpt lat="47.35556" lon="6.52668">
        <ele>544.513</ele>
        <time>2015-10-02T12:25:25Z</time>
      </trkpt>
      <trkpt lat="47.35558" lon="6.52667">
        <ele>544.562</ele>
        <time>2015-10-02T12:25:26Z</time>
      </trkpt>
      <trkpt lat="47.35559" lon="6.52662">
        <ele>542.97</ele>
        <time>2015-10-02T12:25:27Z</time>
      </trkpt>
      <trkpt lat="47.35558" lon="6.52658">
        <ele>543.955</ele>
        <time>2015-10-02T12:25:28Z</time>
      </trkpt>
      <trkpt lat="47.35558" lon="6.52654">
        <ele>544.679</ele>
        <time>2015-10-02T12:25:29Z</time>
      </trkpt>
      <trkpt lat="47.35557" lon="6.52649">
        <ele>545.662</ele>
        <time>2015-10-02T12:25:30Z</time>
      </trkpt>
      <trkpt lat="47.35556" lon="6.52644">
        <ele>544.107</ele>
        <time>2015-10-02T12:25:31Z</time>
      </trkpt>
      <trkpt lat="47.35556" lon="6.5264">
        <ele>545.2</ele>
        <time>2015-10-02T12:25:32Z</time>
      </trkpt>
      <trkpt lat="47.35555" lon="6.52636">
        <ele>546.059</ele>
        <time>2015-10-02T12:25:33Z</time>
      </trkpt>
      <trkpt lat="47.35554" lon="6.52632">
        <ele>546.158</ele>
        <time>2015-10-02T12:25:34Z</time>
      </trkpt>
      <trkpt lat="47.35554" lon="6.52628">
        <ele>546.677</ele>
        <time>2015-10-02T12:25:35Z</time>
      </trkpt>
      <trkpt lat="47.35554" lon="6.52623">
        <ele>546.114</ele>
        <time>2015-10-02T12:25:36Z</time>
      </trkpt>
      <trkpt lat="47.35553" lon="6.52618">
        <ele>546.031</ele>
        <time>2015-10-02T12:25:37Z</time>
      </trkpt>
      <trkpt lat="47.35553" lon="6.52614">
        <ele>545.075</ele>
        <time>2015-10-02T12:25:38Z</time>
      </trkpt>
      <trkpt lat="47.35553" lon="6.52609">
        <ele>546.328</ele>
        <time>2015-10-02T12:25:39Z</time>
      </trkpt>
      <trkpt lat="47.35553" lon="6.52604">
        <ele>547.571</ele>
        <time>2015-10-02T12:25:40Z</time>
      </trkpt>
      <trkpt lat="47.35553" lon="6.526">
        <ele>548.016</ele>
        <time>2015-10-02T12:25:41Z</time>
      </trkpt>
      <trkpt lat="47.35553" lon="6.52594">
        <ele>548.02</ele>
        <time>2015-10-02T12:25:42Z</time>
      </trkpt>
      <trkpt lat="47.35553" lon="6.52589">
        <ele>548.226</ele>
        <time>2015-10-02T12:25:43Z</time>
      </trkpt>
      <trkpt lat="47.35553" lon="6.52584">
        <ele>548.482</ele>
        <time>2015-10-02T12:25:44Z</time>
      </trkpt>
      <trkpt lat="47.35553" lon="6.5258">
        <ele>549.49</ele>
        <time>2015-10-02T12:25:45Z</time>
      </trkpt>
      <trkpt lat="47.35553" lon="6.52575">
        <ele>549.687</ele>
        <time>2015-10-02T12:25:46Z</time>
      </trkpt>
      <trkpt lat="47.35553" lon="6.52571">
        <ele>548.185</ele>
        <time>2015-10-02T12:25:47Z</time>
      </trkpt>
      <trkpt lat="47.35553" lon="6.52567">
        <ele>547.813</ele>
        <time>2015-10-02T12:25:48Z</time>
      </trkpt>
      <trkpt lat="47.35553" lon="6.52562">
        <ele>547.173</ele>
        <time>2015-10-02T12:25:49Z</time>
      </trkpt>
      <trkpt lat="47.35552" lon="6.52558">
        <ele>546.683</ele>
        <time>2015-10-02T12:25:50Z</time>
      </trkpt>
      <trkpt lat="47.35552" lon="6.52556">
        <ele>544.151</ele>
        <time>2015-10-02T12:25:51Z</time>
      </trkpt>
      <trkpt lat="47.35551" lon="6.52554">
        <ele>544.933</ele>
        <time>2015-10-02T12:25:52Z</time>
      </trkpt>
      <trkpt lat="47.35551" lon="6.52552">
        <ele>546.64</ele>
        <time>2015-10-02T12:25:54Z</time>
      </trkpt>
      <trkpt lat="47.35551" lon="6.52553">
        <ele>547.936</ele>
        <time>2015-10-02T12:25:55Z</time>
      </trkpt>
      <trkpt lat="47.35552" lon="6.52554">
        <ele>548.793</ele>
        <time>2015-10-02T12:25:56Z</time>
      </trkpt>
      <trkpt lat="47.35553" lon="6.52556">
        <ele>550.518</ele>
        <time>2015-10-02T12:25:58Z</time>
      </trkpt>
      <trkpt lat="47.35555" lon="6.52556">
        <ele>553.383</ele>
        <time>2015-10-02T12:26:00Z</time>
      </trkpt>
      <trkpt lat="47.35554" lon="6.52548">
        <ele>550.825</ele>
        <time>2015-10-02T12:26:03Z</time>
      </trkpt>
      <trkpt lat="47.35555" lon="6.52547">
        <ele>550.01</ele>
        <time>2015-10-02T12:26:05Z</time>
      </trkpt>
      <trkpt lat="47.35555" lon="6.52541">
        <ele>551.052</ele>
        <time>2015-10-02T12:26:12Z</time>
      </trkpt>
      <trkpt lat="47.35556" lon="6.5254">
        <ele>552.991</ele>
        <time>2015-10-02T12:26:21Z</time>
      </trkpt>
      <trkpt lat="47.35558" lon="6.52546">
        <ele>555.997</ele>
        <time>2015-10-02T12:26:37Z</time>
      </trkpt>
      <trkpt lat="47.35559" lon="6.52554">
        <ele>563.451</ele>
        <time>2015-10-02T12:26:40Z</time>
      </trkpt>
      <trkpt lat="47.35559" lon="6.52561">
        <ele>567.827</ele>
        <time>2015-10-02T12:26:43Z</time>
      </trkpt>
      <trkpt lat="47.35559" lon="6.5256">
        <ele>574.236</ele>
        <time>2015-10-02T12:26:47Z</time>
      </trkpt>
      <trkpt lat="47.3556" lon="6.52559">
        <ele>576.81</ele>
        <time>2015-10-02T12:26:49Z</time>
      </trkpt>
      <trkpt lat="47.3556" lon="6.52556">
        <ele>573.993</ele>
        <time>2015-10-02T12:26:54Z</time>
      </trkpt>
      <trkpt lat="47.35559" lon="6.52555">
        <ele>570.686</ele>
        <time>2015-10-02T12:26:55Z</time>
      </trkpt>
      <trkpt lat="47.35559" lon="6.52553">
        <ele>569.324</ele>
        <time>2015-10-02T12:26:56Z</time>
      </trkpt>
      <trkpt lat="47.35558" lon="6.52549">
        <ele>568.32</ele>
        <time>2015-10-02T12:26:57Z</time>
      </trkpt>
      <trkpt lat="47.35558" lon="6.52546">
        <ele>567.128</ele>
        <time>2015-10-02T12:26:58Z</time>
      </trkpt>
      <trkpt lat="47.35557" lon="6.52541">
        <ele>565.902</ele>
        <time>2015-10-02T12:26:59Z</time>
      </trkpt>
      <trkpt lat="47.35556" lon="6.52538">
        <ele>567.173</ele>
        <time>2015-10-02T12:27:00Z</time>
      </trkpt>
      <trkpt lat="47.35555" lon="6.52535">
        <ele>566.637</ele>
        <time>2015-10-02T12:27:01Z</time>
      </trkpt>
      <trkpt lat="47.35554" lon="6.5253">
        <ele>565.834</ele>
        <time>2015-10-02T12:27:02Z</time>
      </trkpt>
      <trkpt lat="47.35553" lon="6.52524">
        <ele>563.635</ele>
        <time>2015-10-02T12:27:03Z</time>
      </trkpt>
      <trkpt lat="47.35553" lon="6.52518">
        <ele>562.365</ele>
        <time>2015-10-02T12:27:04Z</time>
      </trkpt>
      <trkpt lat="47.3555" lon="6.52509">
        <ele>559.458</ele>
        <time>2015-10-02T12:27:05Z</time>
      </trkpt>
      <trkpt lat="47.35549" lon="6.525">
        <ele>557.542</ele>
        <time>2015-10-02T12:27:06Z</time>
      </trkpt>
      <trkpt lat="47.35549" lon="6.52492">
        <ele>556.34</ele>
        <time>2015-10-02T12:27:07Z</time>
      </trkpt>
      <trkpt lat="47.35548" lon="6.52486">
        <ele>554.792</ele>
        <time>2015-10-02T12:27:08Z</time>
      </trkpt>
      <trkpt lat="47.35546" lon="6.5248">
        <ele>554.356</ele>
        <time>2015-10-02T12:27:09Z</time>
      </trkpt>
      <trkpt lat="47.35543" lon="6.52473">
        <ele>554.172</ele>
        <time>2015-10-02T12:27:10Z</time>
      </trkpt>
      <trkpt lat="47.35542" lon="6.52465">
        <ele>553.635</ele>
        <time>2015-10-02T12:27:11Z</time>
      </trkpt>
      <trkpt lat="47.3554" lon="6.52457">
        <ele>553.954</ele>
        <time>2015-10-02T12:27:12Z</time>
      </trkpt>
      <trkpt lat="47.35538" lon="6.52449">
        <ele>553.217</ele>
        <time>2015-10-02T12:27:13Z</time>
      </trkpt>
      <trkpt lat="47.35535" lon="6.52441">
        <ele>553.392</ele>
        <time>2015-10-02T12:27:14Z</time>
      </trkpt>
      <trkpt lat="47.35535" lon="6.5243">
        <ele>554.257</ele>
        <time>2015-10-02T12:27:15Z</time>
      </trkpt>
      <trkpt lat="47.35533" lon="6.52423">
        <ele>553.867</ele>
        <time>2015-10-02T12:27:16Z</time>
      </trkpt>
      <trkpt lat="47.35531" lon="6.52413">
        <ele>553.952</ele>
        <time>2015-10-02T12:27:17Z</time>
      </trkpt>
      <trkpt lat="47.35528" lon="6.52406">
        <ele>553.254</ele>
        <time>2015-10-02T12:27:18Z</time>
      </trkpt>
      <trkpt lat="47.35525" lon="6.52397">
        <ele>553.019</ele>
        <time>2015-10-02T12:27:19Z</time>
      </trkpt>
      <trkpt lat="47.35522" lon="6.5239">
        <ele>552.851</ele>
        <time>2015-10-02T12:27:20Z</time>
      </trkpt>
      <trkpt lat="47.35518" lon="6.52383">
        <ele>552.764</ele>
        <time>2015-10-02T12:27:21Z</time>
      </trkpt>
      <trkpt lat="47.35516" lon="6.52376">
        <ele>552.707</ele>
        <time>2015-10-02T12:27:22Z</time>
      </trkpt>
      <trkpt lat="47.35512" lon="6.52369">
        <ele>552.791</ele>
        <time>2015-10-02T12:27:23Z</time>
      </trkpt>
      <trkpt lat="47.35508" lon="6.52363">
        <ele>552.843</ele>
        <time>2015-10-02T12:27:24Z</time>
      </trkpt>
      <trkpt lat="47.35504" lon="6.52357">
        <ele>552.65</ele>
        <time>2015-10-02T12:27:25Z</time>
      </trkpt>
      <trkpt lat="47.355" lon="6.5235">
        <ele>552.249</ele>
        <time>2015-10-02T12:27:26Z</time>
      </trkpt>
      <trkpt lat="47.35495" lon="6.52343">
        <ele>552.166</ele>
        <time>2015-10-02T12:27:27Z</time>
      </trkpt>
      <trkpt lat="47.35491" lon="6.52335">
        <ele>551.768</ele>
        <time>2015-10-02T12:27:28Z</time>
      </trkpt>
      <trkpt lat="47.35487" lon="6.52326">
        <ele>551.382</ele>
        <time>2015-10-02T12:27:29Z</time>
      </trkpt>
      <trkpt lat="47.35481" lon="6.5232">
        <ele>551.392</ele>
        <time>2015-10-02T12:27:30Z</time>
      </trkpt>
      <trkpt lat="47.35476" lon="6.52311">
        <ele>550.195</ele>
        <time>2015-10-02T12:27:31Z</time>
      </trkpt>
      <trkpt lat="47.35472" lon="6.52303">
        <ele>550.04</ele>
        <time>2015-10-02T12:27:32Z</time>
      </trkpt>
      <trkpt lat="47.35466" lon="6.52295">
        <ele>548.966</ele>
        <time>2015-10-02T12:27:33Z</time>
      </trkpt>
      <trkpt lat="47.35461" lon="6.52287">
        <ele>548.103</ele>
        <time>2015-10-02T12:27:34Z</time>
      </trkpt>
      <trkpt lat="47.35458" lon="6.52279">
        <ele>547.857</ele>
        <time>2015-10-02T12:27:35Z</time>
      </trkpt>
      <trkpt lat="47.35453" lon="6.52269">
        <ele>545.913</ele>
        <time>2015-10-02T12:27:36Z</time>
      </trkpt>
      <trkpt lat="47.3545" lon="6.52259">
        <ele>545.74</ele>
        <time>2015-10-02T12:27:37Z</time>
      </trkpt>
      <trkpt lat="47.35447" lon="6.52249">
        <ele>545.005</ele>
        <time>2015-10-02T12:27:38Z</time>
      </trkpt>
      <trkpt lat="47.35444" lon="6.5224">
        <ele>542.729</ele>
        <time>2015-10-02T12:27:39Z</time>
      </trkpt>
      <trkpt lat="47.35442" lon="6.52229">
        <ele>542.264</ele>
        <time>2015-10-02T12:27:40Z</time>
      </trkpt>
      <trkpt lat="47.35441" lon="6.52218">
        <ele>541.948</ele>
        <time>2015-10-02T12:27:41Z</time>
      </trkpt>
      <trkpt lat="47.3544" lon="6.52207">
        <ele>541.459</ele>
        <time>2015-10-02T12:27:42Z</time>
      </trkpt>
      <trkpt lat="47.35439" lon="6.52197">
        <ele>541.598</ele>
        <time>2015-10-02T12:27:43Z</time>
      </trkpt>
      <trkpt lat="47.35438" lon="6.52187">
        <ele>541.492</ele>
        <time>2015-10-02T12:27:44Z</time>
      </trkpt>
      <trkpt lat="47.35437" lon="6.52177">
        <ele>541.712</ele>
        <time>2015-10-02T12:27:45Z</time>
      </trkpt>
      <trkpt lat="47.35436" lon="6.52168">
        <ele>541.331</ele>
        <time>2015-10-02T12:27:46Z</time>
      </trkpt>
      <trkpt lat="47.35435" lon="6.52159">
        <ele>540.854</ele>
        <time>2015-10-02T12:27:47Z</time>
      </trkpt>
      <trkpt lat="47.35434" lon="6.52151">
        <ele>541.399</ele>
        <time>2015-10-02T12:27:48Z</time>
      </trkpt>
      <trkpt lat="47.35433" lon="6.52143">
        <ele>541.133</ele>
        <time>2015-10-02T12:27:49Z</time>
      </trkpt>
      <trkpt lat="47.35432" lon="6.52135">
        <ele>542.212</ele>
        <time>2015-10-02T12:27:50Z</time>
      </trkpt>
      <trkpt lat="47.35431" lon="6.52125">
        <ele>541.552</ele>
        <time>2015-10-02T12:27:51Z</time>
      </trkpt>
      <trkpt lat="47.35429" lon="6.52117">
        <ele>541.764</ele>
        <time>2015-10-02T12:27:52Z</time>
      </trkpt>
      <trkpt lat="47.35427" lon="6.52109">
        <ele>542.222</ele>
        <time>2015-10-02T12:27:53Z</time>
      </trkpt>
      <trkpt lat="47.35425" lon="6.52101">
        <ele>541.273</ele>
        <time>2015-10-02T12:27:54Z</time>
      </trkpt>
      <trkpt lat="47.35423" lon="6.52093">
        <ele>540.954</ele>
        <time>2015-10-02T12:27:55Z</time>
      </trkpt>
      <trkpt lat="47.3542" lon="6.52085">
        <ele>541.382</ele>
        <time>2015-10-02T12:27:56Z</time>
      </trkpt>
      <trkpt lat="47.35418" lon="6.52079">
        <ele>540.955</ele>
        <time>2015-10-02T12:27:57Z</time>
      </trkpt>
      <trkpt lat="47.35416" lon="6.52071">
        <ele>540.892</ele>
        <time>2015-10-02T12:27:58Z</time>
      </trkpt>
      <trkpt lat="47.35413" lon="6.52063">
        <ele>540.845</ele>
        <time>2015-10-02T12:27:59Z</time>
      </trkpt>
      <trkpt lat="47.3541" lon="6.52055">
        <ele>539.395</ele>
        <time>2015-10-02T12:28:00Z</time>
      </trkpt>
      <trkpt lat="47.35407" lon="6.52048">
        <ele>539.144</ele>
        <time>2015-10-02T12:28:01Z</time>
      </trkpt>
      <trkpt lat="47.35404" lon="6.52041">
        <ele>538.863</ele>
        <time>2015-10-02T12:28:02Z</time>
      </trkpt>
      <trkpt lat="47.35401" lon="6.52032">
        <ele>537.871</ele>
        <time>2015-10-02T12:28:03Z</time>
      </trkpt>
      <trkpt lat="47.35398" lon="6.52025">
        <ele>537.876</ele>
        <time>2015-10-02T12:28:04Z</time>
      </trkpt>
      <trkpt lat="47.35395" lon="6.52018">
        <ele>537.585</ele>
        <time>2015-10-02T12:28:05Z</time>
      </trkpt>
      <trkpt lat="47.35391" lon="6.52012">
        <ele>537.463</ele>
        <time>2015-10-02T12:28:06Z</time>
      </trkpt>
      <trkpt lat="47.35389" lon="6.52005">
        <ele>537.129</ele>
        <time>2015-10-02T12:28:07Z</time>
      </trkpt>
      <trkpt lat="47.35385" lon="6.51999">
        <ele>537.298</ele>
        <time>2015-10-02T12:28:08Z</time>
      </trkpt>
      <trkpt lat="47.35381" lon="6.51993">
        <ele>537.634</ele>
        <time>2015-10-02T12:28:09Z</time>
      </trkpt>
      <trkpt lat="47.35378" lon="6.51987">
        <ele>537.057</ele>
        <time>2015-10-02T12:28:10Z</time>
      </trkpt>
      <trkpt lat="47.35374" lon="6.51982">
        <ele>536.948</ele>
        <time>2015-10-02T12:28:11Z</time>
      </trkpt>
      <trkpt lat="47.3537" lon="6.51976">
        <ele>536.672</ele>
        <time>2015-10-02T12:28:12Z</time>
      </trkpt>
      <trkpt lat="47.35367" lon="6.5197">
        <ele>536.87</ele>
        <time>2015-10-02T12:28:13Z</time>
      </trkpt>
      <trkpt lat="47.35363" lon="6.51964">
        <ele>537.235</ele>
        <time>2015-10-02T12:28:14Z</time>
      </trkpt>
      <trkpt lat="47.3536" lon="6.51958">
        <ele>536.99</ele>
        <time>2015-10-02T12:28:15Z</time>
      </trkpt>
      <trkpt lat="47.35357" lon="6.51951">
        <ele>536.609</ele>
        <time>2015-10-02T12:28:16Z</time>
      </trkpt>
      <trkpt lat="47.35354" lon="6.51945">
        <ele>536.836</ele>
        <time>2015-10-02T12:28:17Z</time>
      </trkpt>
      <trkpt lat="47.35351" lon="6.51939">
        <ele>536.62</ele>
        <time>2015-10-02T12:28:18Z</time>
      </trkpt>
      <trkpt lat="47.35347" lon="6.51933">
        <ele>536.236</ele>
        <time>2015-10-02T12:28:19Z</time>
      </trkpt>
      <trkpt lat="47.35344" lon="6.51927">
        <ele>535.936</ele>
        <time>2015-10-02T12:28:20Z</time>
      </trkpt>
      <trkpt lat="47.35341" lon="6.51921">
        <ele>535.407</ele>
        <time>2015-10-02T12:28:21Z</time>
      </trkpt>
      <trkpt lat="47.35337" lon="6.51915">
        <ele>535.718</ele>
        <time>2015-10-02T12:28:22Z</time>
      </trkpt>
      <trkpt lat="47.35334" lon="6.51909">
        <ele>535.68</ele>
        <time>2015-10-02T12:28:23Z</time>
      </trkpt>
      <trkpt lat="47.35331" lon="6.51903">
        <ele>535.646</ele>
        <time>2015-10-02T12:28:24Z</time>
      </trkpt>
      <trkpt lat="47.35328" lon="6.51897">
        <ele>535.987</ele>
        <time>2015-10-02T12:28:25Z</time>
      </trkpt>
      <trkpt lat="47.35325" lon="6.51891">
        <ele>536.002</ele>
        <time>2015-10-02T12:28:26Z</time>
      </trkpt>
      <trkpt lat="47.35322" lon="6.51885">
        <ele>536.003</ele>
        <time>2015-10-02T12:28:27Z</time>
      </trkpt>
      <trkpt lat="47.3532" lon="6.51879">
        <ele>536.415</ele>
        <time>2015-10-02T12:28:28Z</time>
      </trkpt>
      <trkpt lat="47.35317" lon="6.51873">
        <ele>536.283</ele>
        <time>2015-10-02T12:28:29Z</time>
      </trkpt>
      <trkpt lat="47.35314" lon="6.51867">
        <ele>536.496</ele>
        <time>2015-10-02T12:28:30Z</time>
      </trkpt>
      <trkpt lat="47.35312" lon="6.51861">
        <ele>536.826</ele>
        <time>2015-10-02T12:28:31Z</time>
      </trkpt>
      <trkpt lat="47.35309" lon="6.51856">
        <ele>536.938</ele>
        <time>2015-10-02T12:28:32Z</time>
      </trkpt>
      <trkpt lat="47.35308" lon="6.5185">
        <ele>537.001</ele>
        <time>2015-10-02T12:28:33Z</time>
      </trkpt>
      <trkpt lat="47.35306" lon="6.51843">
        <ele>536.703</ele>
        <time>2015-10-02T12:28:34Z</time>
      </trkpt>
      <trkpt lat="47.35304" lon="6.51837">
        <ele>536.754</ele>
        <time>2015-10-02T12:28:35Z</time>
      </trkpt>
      <trkpt lat="47.35302" lon="6.51831">
        <ele>537.169</ele>
        <time>2015-10-02T12:28:36Z</time>
      </trkpt>
      <trkpt lat="47.35301" lon="6.51824">
        <ele>537.023</ele>
        <time>2015-10-02T12:28:37Z</time>
      </trkpt>
      <trkpt lat="47.353" lon="6.51817">
        <ele>536.945</ele>
        <time>2015-10-02T12:28:38Z</time>
      </trkpt>
      <trkpt lat="47.35299" lon="6.51811">
        <ele>537.175</ele>
        <time>2015-10-02T12:28:39Z</time>
      </trkpt>
      <trkpt lat="47.35298" lon="6.51804">
        <ele>537.17</ele>
        <time>2015-10-02T12:28:40Z</time>
      </trkpt>
      <trkpt lat="47.35297" lon="6.51798">
        <ele>536.608</ele>
        <time>2015-10-02T12:28:41Z</time>
      </trkpt>
      <trkpt lat="47.35296" lon="6.51792">
        <ele>535.741</ele>
        <time>2015-10-02T12:28:42Z</time>
      </trkpt>
      <trkpt lat="47.35295" lon="6.51786">
        <ele>535.304</ele>
        <time>2015-10-02T12:28:43Z</time>
      </trkpt>
      <trkpt lat="47.35293" lon="6.5178">
        <ele>534.195</ele>
        <time>2015-10-02T12:28:44Z</time>
      </trkpt>
      <trkpt lat="47.35292" lon="6.51772">
        <ele>532.967</ele>
        <time>2015-10-02T12:28:45Z</time>
      </trkpt>
      <trkpt lat="47.35291" lon="6.51767">
        <ele>532.622</ele>
        <time>2015-10-02T12:28:46Z</time>
      </trkpt>
      <trkpt lat="47.3529" lon="6.5176">
        <ele>532.169</ele>
        <time>2015-10-02T12:28:47Z</time>
      </trkpt>
      <trkpt lat="47.3529" lon="6.51755">
        <ele>532.536</ele>
        <time>2015-10-02T12:28:48Z</time>
      </trkpt>
      <trkpt lat="47.35289" lon="6.5175">
        <ele>532.781</ele>
        <time>2015-10-02T12:28:49Z</time>
      </trkpt>
      <trkpt lat="47.35288" lon="6.51745">
        <ele>532.804</ele>
        <time>2015-10-02T12:28:50Z</time>
      </trkpt>
      <trkpt lat="47.35288" lon="6.5174">
        <ele>532.592</ele>
        <time>2015-10-02T12:28:51Z</time>
      </trkpt>
      <trkpt lat="47.35287" lon="6.51734">
        <ele>532.993</ele>
        <time>2015-10-02T12:28:52Z</time>
      </trkpt>
      <trkpt lat="47.35287" lon="6.51729">
        <ele>533.14</ele>
        <time>2015-10-02T12:28:53Z</time>
      </trkpt>
      <trkpt lat="47.35287" lon="6.51723">
        <ele>533.515</ele>
        <time>2015-10-02T12:28:54Z</time>
      </trkpt>
      <trkpt lat="47.35287" lon="6.51718">
        <ele>533.016</ele>
        <time>2015-10-02T12:28:55Z</time>
      </trkpt>
      <trkpt lat="47.35287" lon="6.51712">
        <ele>531.929</ele>
        <time>2015-10-02T12:28:56Z</time>
      </trkpt>
      <trkpt lat="47.35287" lon="6.51707">
        <ele>531.642</ele>
        <time>2015-10-02T12:28:57Z</time>
      </trkpt>
      <trkpt lat="47.35287" lon="6.51702">
        <ele>531.849</ele>
        <time>2015-10-02T12:28:58Z</time>
      </trkpt>
      <trkpt lat="47.35288" lon="6.51697">
        <ele>531.917</ele>
        <time>2015-10-02T12:28:59Z</time>
      </trkpt>
      <trkpt lat="47.35288" lon="6.51692">
        <ele>531.891</ele>
        <time>2015-10-02T12:29:00Z</time>
      </trkpt>
      <trkpt lat="47.35288" lon="6.51687">
        <ele>531.628</ele>
        <time>2015-10-02T12:29:01Z</time>
      </trkpt>
      <trkpt lat="47.35288" lon="6.51681">
        <ele>528.726</ele>
        <time>2015-10-02T12:29:02Z</time>
      </trkpt>
      <trkpt lat="47.35288" lon="6.51676">
        <ele>529.679</ele>
        <time>2015-10-02T12:29:03Z</time>
      </trkpt>
      <trkpt lat="47.35289" lon="6.51671">
        <ele>531.05</ele>
        <time>2015-10-02T12:29:04Z</time>
      </trkpt>
      <trkpt lat="47.35289" lon="6.51667">
        <ele>530.952</ele>
        <time>2015-10-02T12:29:05Z</time>
      </trkpt>
      <trkpt lat="47.3529" lon="6.51662">
        <ele>530.825</ele>
        <time>2015-10-02T12:29:06Z</time>
      </trkpt>
      <trkpt lat="47.3529" lon="6.51657">
        <ele>530.838</ele>
        <time>2015-10-02T12:29:07Z</time>
      </trkpt>
      <trkpt lat="47.35291" lon="6.51653">
        <ele>531.105</ele>
        <time>2015-10-02T12:29:08Z</time>
      </trkpt>
      <trkpt lat="47.35291" lon="6.51648">
        <ele>531.656</ele>
        <time>2015-10-02T12:29:09Z</time>
      </trkpt>
      <trkpt lat="47.35291" lon="6.51644">
        <ele>531.552</ele>
        <time>2015-10-02T12:29:10Z</time>
      </trkpt>
      <trkpt lat="47.35292" lon="6.51639">
        <ele>531.556</ele>
        <time>2015-10-02T12:29:11Z</time>
      </trkpt>
      <trkpt lat="47.35292" lon="6.51634">
        <ele>531.506</ele>
        <time>2015-10-02T12:29:12Z</time>
      </trkpt>
      <trkpt lat="47.35292" lon="6.5163">
        <ele>531.813</ele>
        <time>2015-10-02T12:29:13Z</time>
      </trkpt>
      <trkpt lat="47.35292" lon="6.51626">
        <ele>532.128</ele>
        <time>2015-10-02T12:29:14Z</time>
      </trkpt>
      <trkpt lat="47.35293" lon="6.51622">
        <ele>532.777</ele>
        <time>2015-10-02T12:29:15Z</time>
      </trkpt>
      <trkpt lat="47.35294" lon="6.51618">
        <ele>532.532</ele>
        <time>2015-10-02T12:29:16Z</time>
      </trkpt>
      <trkpt lat="47.35294" lon="6.51614">
        <ele>533.606</ele>
        <time>2015-10-02T12:29:17Z</time>
      </trkpt>
      <trkpt lat="47.35295" lon="6.5161">
        <ele>534.972</ele>
        <time>2015-10-02T12:29:18Z</time>
      </trkpt>
      <trkpt lat="47.35296" lon="6.51606">
        <ele>535.021</ele>
        <time>2015-10-02T12:29:19Z</time>
      </trkpt>
      <trkpt lat="47.35297" lon="6.51603">
        <ele>535.354</ele>
        <time>2015-10-02T12:29:20Z</time>
      </trkpt>
      <trkpt lat="47.35298" lon="6.51599">
        <ele>535.4</ele>
        <time>2015-10-02T12:29:21Z</time>
      </trkpt>
      <trkpt lat="47.35299" lon="6.51596">
        <ele>535.212</ele>
        <time>2015-10-02T12:29:22Z</time>
      </trkpt>
      <trkpt lat="47.353" lon="6.51592">
        <ele>535.146</ele>
        <time>2015-10-02T12:29:23Z</time>
      </trkpt>
      <trkpt lat="47.35301" lon="6.51588">
        <ele>535.365</ele>
        <time>2015-10-02T12:29:24Z</time>
      </trkpt>
      <trkpt lat="47.35302" lon="6.51585">
        <ele>535.474</ele>
        <time>2015-10-02T12:29:25Z</time>
      </trkpt>
      <trkpt lat="47.35304" lon="6.51582">
        <ele>535.839</ele>
        <time>2015-10-02T12:29:26Z</time>
      </trkpt>
      <trkpt lat="47.35305" lon="6.51579">
        <ele>536.217</ele>
        <time>2015-10-02T12:29:27Z</time>
      </trkpt>
      <trkpt lat="47.35307" lon="6.51575">
        <ele>536.297</ele>
        <time>2015-10-02T12:29:28Z</time>
      </trkpt>
      <trkpt lat="47.35309" lon="6.51572">
        <ele>536.629</ele>
        <time>2015-10-02T12:29:29Z</time>
      </trkpt>
      <trkpt lat="47.3531" lon="6.51569">
        <ele>536.529</ele>
        <time>2015-10-02T12:29:30Z</time>
      </trkpt>
      <trkpt lat="47.35312" lon="6.51566">
        <ele>536.841</ele>
        <time>2015-10-02T12:29:31Z</time>
      </trkpt>
      <trkpt lat="47.35314" lon="6.51563">
        <ele>536.88</ele>
        <time>2015-10-02T12:29:32Z</time>
      </trkpt>
      <trkpt lat="47.35316" lon="6.51559">
        <ele>536.855</ele>
        <time>2015-10-02T12:29:33Z</time>
      </trkpt>
      <trkpt lat="47.35317" lon="6.51556">
        <ele>537.203</ele>
        <time>2015-10-02T12:29:34Z</time>
      </trkpt>
      <trkpt lat="47.35319" lon="6.51553">
        <ele>537.312</ele>
        <time>2015-10-02T12:29:35Z</time>
      </trkpt>
      <trkpt lat="47.35321" lon="6.51549">
        <ele>537.471</ele>
        <time>2015-10-02T12:29:36Z</time>
      </trkpt>
      <trkpt lat="47.35322" lon="6.51546">
        <ele>537.552</ele>
        <time>2015-10-02T12:29:37Z</time>
      </trkpt>
      <trkpt lat="47.35324" lon="6.51542">
        <ele>537.126</ele>
        <time>2015-10-02T12:29:38Z</time>
      </trkpt>
      <trkpt lat="47.35326" lon="6.51538">
        <ele>537.11</ele>
        <time>2015-10-02T12:29:39Z</time>
      </trkpt>
      <trkpt lat="47.35327" lon="6.51535">
        <ele>537.143</ele>
        <time>2015-10-02T12:29:40Z</time>
      </trkpt>
      <trkpt lat="47.35328" lon="6.51531">
        <ele>537.65</ele>
        <time>2015-10-02T12:29:41Z</time>
      </trkpt>
      <trkpt lat="47.3533" lon="6.51528">
        <ele>537.654</ele>
        <time>2015-10-02T12:29:42Z</time>
      </trkpt>
      <trkpt lat="47.35331" lon="6.51525">
        <ele>537.816</ele>
        <time>2015-10-02T12:29:43Z</time>
      </trkpt>
      <trkpt lat="47.35332" lon="6.51522">
        <ele>538.54</ele>
        <time>2015-10-02T12:29:44Z</time>
      </trkpt>
      <trkpt lat="47.35334" lon="6.51519">
        <ele>538.746</ele>
        <time>2015-10-02T12:29:45Z</time>
      </trkpt>
      <trkpt lat="47.35336" lon="6.51516">
        <ele>538.549</ele>
        <time>2015-10-02T12:29:46Z</time>
      </trkpt>
      <trkpt lat="47.35337" lon="6.51513">
        <ele>538.698</ele>
        <time>2015-10-02T12:29:47Z</time>
      </trkpt>
      <trkpt lat="47.35339" lon="6.5151">
        <ele>538.756</ele>
        <time>2015-10-02T12:29:48Z</time>
      </trkpt>
      <trkpt lat="47.3534" lon="6.51506">
        <ele>538.986</ele>
        <time>2015-10-02T12:29:49Z</time>
      </trkpt>
      <trkpt lat="47.35342" lon="6.51502">
        <ele>539.235</ele>
        <time>2015-10-02T12:29:50Z</time>
      </trkpt>
      <trkpt lat="47.35343" lon="6.51499">
        <ele>539.767</ele>
        <time>2015-10-02T12:29:51Z</time>
      </trkpt>
      <trkpt lat="47.35345" lon="6.51496">
        <ele>539.674</ele>
        <time>2015-10-02T12:29:52Z</time>
      </trkpt>
      <trkpt lat="47.35346" lon="6.51493">
        <ele>540.465</ele>
        <time>2015-10-02T12:29:53Z</time>
      </trkpt>
      <trkpt lat="47.35348" lon="6.5149">
        <ele>540.263</ele>
        <time>2015-10-02T12:29:54Z</time>
      </trkpt>
      <trkpt lat="47.3535" lon="6.51487">
        <ele>540.195</ele>
        <time>2015-10-02T12:29:55Z</time>
      </trkpt>
      <trkpt lat="47.35352" lon="6.51485">
        <ele>540.08</ele>
        <time>2015-10-02T12:29:56Z</time>
      </trkpt>
      <trkpt lat="47.35354" lon="6.51482">
        <ele>539.651</ele>
        <time>2015-10-02T12:29:57Z</time>
      </trkpt>
      <trkpt lat="47.35356" lon="6.51478">
        <ele>539.854</ele>
        <time>2015-10-02T12:29:58Z</time>
      </trkpt>
      <trkpt lat="47.35358" lon="6.51475">
        <ele>539.802</ele>
        <time>2015-10-02T12:29:59Z</time>
      </trkpt>
      <trkpt lat="47.3536" lon="6.51472">
        <ele>539.645</ele>
        <time>2015-10-02T12:30:00Z</time>
      </trkpt>
      <trkpt lat="47.35362" lon="6.51469">
        <ele>539.66</ele>
        <time>2015-10-02T12:30:01Z</time>
      </trkpt>
      <trkpt lat="47.35364" lon="6.51466">
        <ele>540.225</ele>
        <time>2015-10-02T12:30:02Z</time>
      </trkpt>
      <trkpt lat="47.35366" lon="6.51462">
        <ele>539.74</ele>
        <time>2015-10-02T12:30:03Z</time>
      </trkpt>
      <trkpt lat="47.35367" lon="6.51459">
        <ele>539.597</ele>
        <time>2015-10-02T12:30:04Z</time>
      </trkpt>
      <trkpt lat="47.35369" lon="6.51456">
        <ele>539.618</ele>
        <time>2015-10-02T12:30:05Z</time>
      </trkpt>
      <trkpt lat="47.35371" lon="6.51453">
        <ele>539.751</ele>
        <time>2015-10-02T12:30:06Z</time>
      </trkpt>
      <trkpt lat="47.35373" lon="6.5145">
        <ele>539.262</ele>
        <time>2015-10-02T12:30:07Z</time>
      </trkpt>
      <trkpt lat="47.35375" lon="6.51447">
        <ele>539.403</ele>
        <time>2015-10-02T12:30:08Z</time>
      </trkpt>
      <trkpt lat="47.35376" lon="6.51443">
        <ele>539.499</ele>
        <time>2015-10-02T12:30:09Z</time>
      </trkpt>
      <trkpt lat="47.35378" lon="6.5144">
        <ele>539.411</ele>
        <time>2015-10-02T12:30:10Z</time>
      </trkpt>
      <trkpt lat="47.3538" lon="6.51437">
        <ele>539.571</ele>
        <time>2015-10-02T12:30:11Z</time>
      </trkpt>
      <trkpt lat="47.35382" lon="6.51434">
        <ele>539.522</ele>
        <time>2015-10-02T12:30:12Z</time>
      </trkpt>
      <trkpt lat="47.35384" lon="6.51431">
        <ele>539.209</ele>
        <time>2015-10-02T12:30:13Z</time>
      </trkpt>
      <trkpt lat="47.35386" lon="6.51427">
        <ele>539.731</ele>
        <time>2015-10-02T12:30:14Z</time>
      </trkpt>
      <trkpt lat="47.35388" lon="6.51423">
        <ele>540.134</ele>
        <time>2015-10-02T12:30:15Z</time>
      </trkpt>
      <trkpt lat="47.3539" lon="6.5142">
        <ele>539.996</ele>
        <time>2015-10-02T12:30:16Z</time>
      </trkpt>
      <trkpt lat="47.35391" lon="6.51416">
        <ele>540.326</ele>
        <time>2015-10-02T12:30:17Z</time>
      </trkpt>
      <trkpt lat="47.35393" lon="6.51413">
        <ele>539.699</ele>
        <time>2015-10-02T12:30:18Z</time>
      </trkpt>
      <trkpt lat="47.35394" lon="6.51409">
        <ele>539.63</ele>
        <time>2015-10-02T12:30:19Z</time>
      </trkpt>
      <trkpt lat="47.35396" lon="6.51405">
        <ele>539.028</ele>
        <time>2015-10-02T12:30:20Z</time>
      </trkpt>
      <trkpt lat="47.35397" lon="6.51401">
        <ele>538.6</ele>
        <time>2015-10-02T12:30:21Z</time>
      </trkpt>
      <trkpt lat="47.35399" lon="6.51398">
        <ele>538.736</ele>
        <time>2015-10-02T12:30:22Z</time>
      </trkpt>
      <trkpt lat="47.354" lon="6.51394">
        <ele>538.98</ele>
        <time>2015-10-02T12:30:23Z</time>
      </trkpt>
      <trkpt lat="47.35402" lon="6.51391">
        <ele>539.419</ele>
        <time>2015-10-02T12:30:24Z</time>
      </trkpt>
      <trkpt lat="47.35404" lon="6.51388">
        <ele>539.391</ele>
        <time>2015-10-02T12:30:25Z</time>
      </trkpt>
      <trkpt lat="47.35406" lon="6.51385">
        <ele>539.385</ele>
        <time>2015-10-02T12:30:26Z</time>
      </trkpt>
      <trkpt lat="47.35408" lon="6.51382">
        <ele>539.342</ele>
        <time>2015-10-02T12:30:27Z</time>
      </trkpt>
      <trkpt lat="47.3541" lon="6.51379">
        <ele>538.375</ele>
        <time>2015-10-02T12:30:28Z</time>
      </trkpt>
      <trkpt lat="47.35412" lon="6.51376">
        <ele>538.546</ele>
        <time>2015-10-02T12:30:29Z</time>
      </trkpt>
      <trkpt lat="47.35414" lon="6.51373">
        <ele>538.558</ele>
        <time>2015-10-02T12:30:30Z</time>
      </trkpt>
      <trkpt lat="47.35416" lon="6.5137">
        <ele>539</ele>
        <time>2015-10-02T12:30:31Z</time>
      </trkpt>
      <trkpt lat="47.35417" lon="6.51367">
        <ele>539.291</ele>
        <time>2015-10-02T12:30:32Z</time>
      </trkpt>
      <trkpt lat="47.35418" lon="6.51364">
        <ele>540.082</ele>
        <time>2015-10-02T12:30:33Z</time>
      </trkpt>
      <trkpt lat="47.3542" lon="6.5136">
        <ele>540.229</ele>
        <time>2015-10-02T12:30:34Z</time>
      </trkpt>
      <trkpt lat="47.35421" lon="6.51357">
        <ele>539.998</ele>
        <time>2015-10-02T12:30:35Z</time>
      </trkpt>
      <trkpt lat="47.35422" lon="6.51354">
        <ele>539.762</ele>
        <time>2015-10-02T12:30:36Z</time>
      </trkpt>
      <trkpt lat="47.35423" lon="6.51351">
        <ele>540.522</ele>
        <time>2015-10-02T12:30:37Z</time>
      </trkpt>
      <trkpt lat="47.35424" lon="6.51348">
        <ele>540.013</ele>
        <time>2015-10-02T12:30:38Z</time>
      </trkpt>
      <trkpt lat="47.35424" lon="6.51345">
        <ele>541.006</ele>
        <time>2015-10-02T12:30:39Z</time>
      </trkpt>
      <trkpt lat="47.35424" lon="6.51342">
        <ele>541.608</ele>
        <time>2015-10-02T12:30:40Z</time>
      </trkpt>
      <trkpt lat="47.35424" lon="6.51341">
        <ele>542.596</ele>
        <time>2015-10-02T12:30:41Z</time>
      </trkpt>
      <trkpt lat="47.35423" lon="6.51339">
        <ele>542.281</ele>
        <time>2015-10-02T12:30:42Z</time>
      </trkpt>
      <trkpt lat="47.35421" lon="6.51339">
        <ele>542.49</ele>
        <time>2015-10-02T12:30:43Z</time>
      </trkpt>
      <trkpt lat="47.3542" lon="6.5134">
        <ele>541.868</ele>
        <time>2015-10-02T12:30:44Z</time>
      </trkpt>
      <trkpt lat="47.35418" lon="6.51341">
        <ele>542.306</ele>
        <time>2015-10-02T12:30:45Z</time>
      </trkpt>
      <trkpt lat="47.35418" lon="6.51344">
        <ele>541.925</ele>
        <time>2015-10-02T12:30:46Z</time>
      </trkpt>
      <trkpt lat="47.35417" lon="6.51346">
        <ele>541.421</ele>
        <time>2015-10-02T12:30:47Z</time>
      </trkpt>
      <trkpt lat="47.35416" lon="6.51349">
        <ele>540.786</ele>
        <time>2015-10-02T12:30:48Z</time>
      </trkpt>
      <trkpt lat="47.35415" lon="6.51352">
        <ele>540.804</ele>
        <time>2015-10-02T12:30:49Z</time>
      </trkpt>
      <trkpt lat="47.35414" lon="6.51355">
        <ele>541.141</ele>
        <time>2015-10-02T12:30:50Z</time>
      </trkpt>
      <trkpt lat="47.35413" lon="6.51358">
        <ele>539.914</ele>
        <time>2015-10-02T12:30:51Z</time>
      </trkpt>
      <trkpt lat="47.35412" lon="6.51361">
        <ele>540.336</ele>
        <time>2015-10-02T12:30:52Z</time>
      </trkpt>
      <trkpt lat="47.35411" lon="6.51364">
        <ele>540.123</ele>
        <time>2015-10-02T12:30:53Z</time>
      </trkpt>
      <trkpt lat="47.3541" lon="6.51367">
        <ele>539.672</ele>
        <time>2015-10-02T12:30:54Z</time>
      </trkpt>
      <trkpt lat="47.35408" lon="6.5137">
        <ele>540.203</ele>
        <time>2015-10-02T12:30:55Z</time>
      </trkpt>
      <trkpt lat="47.35407" lon="6.51373">
        <ele>540.437</ele>
        <time>2015-10-02T12:30:56Z</time>
      </trkpt>
      <trkpt lat="47.35406" lon="6.51376">
        <ele>540.658</ele>
        <time>2015-10-02T12:30:57Z</time>
      </trkpt>
      <trkpt lat="47.35404" lon="6.5138">
        <ele>540.501</ele>
        <time>2015-10-02T12:30:58Z</time>
      </trkpt>
      <trkpt lat="47.35402" lon="6.51384">
        <ele>540.218</ele>
        <time>2015-10-02T12:30:59Z</time>
      </trkpt>
      <trkpt lat="47.35401" lon="6.51388">
        <ele>539.806</ele>
        <time>2015-10-02T12:31:00Z</time>
      </trkpt>
      <trkpt lat="47.35399" lon="6.51393">
        <ele>539.863</ele>
        <time>2015-10-02T12:31:01Z</time>
      </trkpt>
      <trkpt lat="47.35397" lon="6.51398">
        <ele>540.399</ele>
        <time>2015-10-02T12:31:02Z</time>
      </trkpt>
      <trkpt lat="47.35395" lon="6.51402">
        <ele>540.214</ele>
        <time>2015-10-02T12:31:03Z</time>
      </trkpt>
      <trkpt lat="47.35392" lon="6.51406">
        <ele>539.767</ele>
        <time>2015-10-02T12:31:04Z</time>
      </trkpt>
      <trkpt lat="47.3539" lon="6.51409">
        <ele>539.677</ele>
        <time>2015-10-02T12:31:05Z</time>
      </trkpt>
      <trkpt lat="47.35388" lon="6.51412">
        <ele>539.779</ele>
        <time>2015-10-02T12:31:06Z</time>
      </trkpt>
      <trkpt lat="47.35387" lon="6.51415">
        <ele>539.888</ele>
        <time>2015-10-02T12:31:07Z</time>
      </trkpt>
      <trkpt lat="47.35386" lon="6.51417">
        <ele>540.391</ele>
        <time>2015-10-02T12:31:08Z</time>
      </trkpt>
      <trkpt lat="47.35387" lon="6.51419">
        <ele>539.621</ele>
        <time>2015-10-02T12:31:09Z</time>
      </trkpt>
      <trkpt lat="47.35388" lon="6.5142">
        <ele>540.597</ele>
        <time>2015-10-02T12:31:10Z</time>
      </trkpt>
      <trkpt lat="47.3539" lon="6.51419">
        <ele>540.755</ele>
        <time>2015-10-02T12:31:11Z</time>
      </trkpt>
      <trkpt lat="47.35392" lon="6.51416">
        <ele>540.043</ele>
        <time>2015-10-02T12:31:12Z</time>
      </trkpt>
      <trkpt lat="47.35394" lon="6.51413">
        <ele>540.066</ele>
        <time>2015-10-02T12:31:13Z</time>
      </trkpt>
      <trkpt lat="47.35396" lon="6.51408">
        <ele>540.136</ele>
        <time>2015-10-02T12:31:14Z</time>
      </trkpt>
      <trkpt lat="47.35398" lon="6.51404">
        <ele>539.822</ele>
        <time>2015-10-02T12:31:15Z</time>
      </trkpt>
      <trkpt lat="47.354" lon="6.514">
        <ele>539.813</ele>
        <time>2015-10-02T12:31:16Z</time>
      </trkpt>
      <trkpt lat="47.35402" lon="6.51396">
        <ele>539.698</ele>
        <time>2015-10-02T12:31:17Z</time>
      </trkpt>
      <trkpt lat="47.35404" lon="6.51391">
        <ele>539.149</ele>
        <time>2015-10-02T12:31:18Z</time>
      </trkpt>
      <trkpt lat="47.35407" lon="6.51387">
        <ele>538.737</ele>
        <time>2015-10-02T12:31:19Z</time>
      </trkpt>
      <trkpt lat="47.3541" lon="6.51383">
        <ele>538.41</ele>
        <time>2015-10-02T12:31:20Z</time>
      </trkpt>
      <trkpt lat="47.35412" lon="6.51378">
        <ele>536.766</ele>
        <time>2015-10-02T12:31:21Z</time>
      </trkpt>
      <trkpt lat="47.35414" lon="6.51374">
        <ele>537.664</ele>
        <time>2015-10-02T12:31:22Z</time>
      </trkpt>
      <trkpt lat="47.35416" lon="6.51368">
        <ele>538.849</ele>
        <time>2015-10-02T12:31:23Z</time>
      </trkpt>
      <trkpt lat="47.35417" lon="6.51363">
        <ele>538.424</ele>
        <time>2015-10-02T12:31:24Z</time>
      </trkpt>
      <trkpt lat="47.35419" lon="6.51357">
        <ele>538.289</ele>
        <time>2015-10-02T12:31:25Z</time>
      </trkpt>
      <trkpt lat="47.3542" lon="6.51351">
        <ele>539.443</ele>
        <time>2015-10-02T12:31:26Z</time>
      </trkpt>
      <trkpt lat="47.35422" lon="6.51346">
        <ele>540.385</ele>
        <time>2015-10-02T12:31:27Z</time>
      </trkpt>
      <trkpt lat="47.35423" lon="6.51339">
        <ele>539.492</ele>
        <time>2015-10-02T12:31:28Z</time>
      </trkpt>
      <trkpt lat="47.35425" lon="6.51333">
        <ele>539.182</ele>
        <time>2015-10-02T12:31:29Z</time>
      </trkpt>
      <trkpt lat="47.35425" lon="6.51326">
        <ele>539.672</ele>
        <time>2015-10-02T12:31:30Z</time>
      </trkpt>
      <trkpt lat="47.35426" lon="6.51317">
        <ele>539.853</ele>
        <time>2015-10-02T12:31:31Z</time>
      </trkpt>
      <trkpt lat="47.35426" lon="6.5131">
        <ele>540.698</ele>
        <time>2015-10-02T12:31:32Z</time>
      </trkpt>
      <trkpt lat="47.35427" lon="6.51304">
        <ele>540.838</ele>
        <time>2015-10-02T12:31:33Z</time>
      </trkpt>
      <trkpt lat="47.35427" lon="6.51297">
        <ele>540.279</ele>
        <time>2015-10-02T12:31:34Z</time>
      </trkpt>
      <trkpt lat="47.35427" lon="6.5129">
        <ele>540.181</ele>
        <time>2015-10-02T12:31:35Z</time>
      </trkpt>
      <trkpt lat="47.35427" lon="6.51282">
        <ele>539.79</ele>
        <time>2015-10-02T12:31:36Z</time>
      </trkpt>
      <trkpt lat="47.35427" lon="6.51274">
        <ele>540.653</ele>
        <time>2015-10-02T12:31:37Z</time>
      </trkpt>
      <trkpt lat="47.35426" lon="6.51267">
        <ele>540.541</ele>
        <time>2015-10-02T12:31:38Z</time>
      </trkpt>
      <trkpt lat="47.35426" lon="6.51259">
        <ele>540.398</ele>
        <time>2015-10-02T12:31:39Z</time>
      </trkpt>
      <trkpt lat="47.35426" lon="6.51252">
        <ele>540.21</ele>
        <time>2015-10-02T12:31:40Z</time>
      </trkpt>
      <trkpt lat="47.35425" lon="6.51246">
        <ele>541.024</ele>
        <time>2015-10-02T12:31:41Z</time>
      </trkpt>
      <trkpt lat="47.35425" lon="6.51236">
        <ele>541.143</ele>
        <time>2015-10-02T12:31:42Z</time>
      </trkpt>
      <trkpt lat="47.35424" lon="6.51227">
        <ele>540.46</ele>
        <time>2015-10-02T12:31:43Z</time>
      </trkpt>
      <trkpt lat="47.35424" lon="6.51218">
        <ele>539.912</ele>
        <time>2015-10-02T12:31:44Z</time>
      </trkpt>
      <trkpt lat="47.35424" lon="6.51209">
        <ele>539.267</ele>
        <time>2015-10-02T12:31:45Z</time>
      </trkpt>
      <trkpt lat="47.35424" lon="6.51199">
        <ele>539.48</ele>
        <time>2015-10-02T12:31:46Z</time>
      </trkpt>
      <trkpt lat="47.35423" lon="6.51189">
        <ele>539.379</ele>
        <time>2015-10-02T12:31:47Z</time>
      </trkpt>
      <trkpt lat="47.35422" lon="6.51179">
        <ele>539.466</ele>
        <time>2015-10-02T12:31:48Z</time>
      </trkpt>
      <trkpt lat="47.35422" lon="6.51167">
        <ele>537.658</ele>
        <time>2015-10-02T12:31:49Z</time>
      </trkpt>
      <trkpt lat="47.35421" lon="6.51156">
        <ele>537.941</ele>
        <time>2015-10-02T12:31:50Z</time>
      </trkpt>
      <trkpt lat="47.3542" lon="6.51146">
        <ele>539.085</ele>
        <time>2015-10-02T12:31:51Z</time>
      </trkpt>
      <trkpt lat="47.35418" lon="6.51135">
        <ele>538.694</ele>
        <time>2015-10-02T12:31:52Z</time>
      </trkpt>
      <trkpt lat="47.35418" lon="6.51123">
        <ele>538.755</ele>
        <time>2015-10-02T12:31:53Z</time>
      </trkpt>
      <trkpt lat="47.35417" lon="6.51111">
        <ele>537.915</ele>
        <time>2015-10-02T12:31:54Z</time>
      </trkpt>
      <trkpt lat="47.35416" lon="6.51097">
        <ele>537.024</ele>
        <time>2015-10-02T12:31:55Z</time>
      </trkpt>
      <trkpt lat="47.35415" lon="6.51083">
        <ele>536.756</ele>
        <time>2015-10-02T12:31:56Z</time>
      </trkpt>
      <trkpt lat="47.35415" lon="6.51071">
        <ele>535.588</ele>
        <time>2015-10-02T12:31:57Z</time>
      </trkpt>
      <trkpt lat="47.35414" lon="6.51058">
        <ele>535.171</ele>
        <time>2015-10-02T12:31:58Z</time>
      </trkpt>
      <trkpt lat="47.35414" lon="6.51044">
        <ele>534.515</ele>
        <time>2015-10-02T12:31:59Z</time>
      </trkpt>
      <trkpt lat="47.35415" lon="6.51031">
        <ele>534.022</ele>
        <time>2015-10-02T12:32:00Z</time>
      </trkpt>
      <trkpt lat="47.35416" lon="6.51017">
        <ele>533.476</ele>
        <time>2015-10-02T12:32:01Z</time>
      </trkpt>
      <trkpt lat="47.35416" lon="6.51003">
        <ele>533.615</ele>
        <time>2015-10-02T12:32:02Z</time>
      </trkpt>
      <trkpt lat="47.35417" lon="6.50989">
        <ele>533.07</ele>
        <time>2015-10-02T12:32:03Z</time>
      </trkpt>
      <trkpt lat="47.35417" lon="6.50974">
        <ele>532.562</ele>
        <time>2015-10-02T12:32:04Z</time>
      </trkpt>
      <trkpt lat="47.35417" lon="6.50961">
        <ele>532.747</ele>
        <time>2015-10-02T12:32:05Z</time>
      </trkpt>
      <trkpt lat="47.35418" lon="6.50947">
        <ele>532.179</ele>
        <time>2015-10-02T12:32:06Z</time>
      </trkpt>
      <trkpt lat="47.35419" lon="6.50933">
        <ele>532.313</ele>
        <time>2015-10-02T12:32:07Z</time>
      </trkpt>
      <trkpt lat="47.35419" lon="6.5092">
        <ele>531.438</ele>
        <time>2015-10-02T12:32:08Z</time>
      </trkpt>
      <trkpt lat="47.3542" lon="6.50907">
        <ele>530.522</ele>
        <time>2015-10-02T12:32:09Z</time>
      </trkpt>
      <trkpt lat="47.35421" lon="6.50893">
        <ele>530.552</ele>
        <time>2015-10-02T12:32:10Z</time>
      </trkpt>
      <trkpt lat="47.35422" lon="6.5088">
        <ele>530.274</ele>
        <time>2015-10-02T12:32:11Z</time>
      </trkpt>
      <trkpt lat="47.35424" lon="6.50865">
        <ele>530.169</ele>
        <time>2015-10-02T12:32:12Z</time>
      </trkpt>
      <trkpt lat="47.35425" lon="6.50852">
        <ele>530.372</ele>
        <time>2015-10-02T12:32:13Z</time>
      </trkpt>
      <trkpt lat="47.35428" lon="6.50838">
        <ele>529.443</ele>
        <time>2015-10-02T12:32:14Z</time>
      </trkpt>
      <trkpt lat="47.35429" lon="6.50825">
        <ele>528.705</ele>
        <time>2015-10-02T12:32:15Z</time>
      </trkpt>
      <trkpt lat="47.35429" lon="6.50813">
        <ele>527.948</ele>
        <time>2015-10-02T12:32:16Z</time>
      </trkpt>
      <trkpt lat="47.35431" lon="6.50799">
        <ele>528.247</ele>
        <time>2015-10-02T12:32:17Z</time>
      </trkpt>
      <trkpt lat="47.35432" lon="6.50788">
        <ele>529.232</ele>
        <time>2015-10-02T12:32:18Z</time>
      </trkpt>
      <trkpt lat="47.35434" lon="6.50774">
        <ele>527.614</ele>
        <time>2015-10-02T12:32:19Z</time>
      </trkpt>
      <trkpt lat="47.35436" lon="6.50761">
        <ele>527.637</ele>
        <time>2015-10-02T12:32:20Z</time>
      </trkpt>
      <trkpt lat="47.35437" lon="6.50749">
        <ele>527.64</ele>
        <time>2015-10-02T12:32:21Z</time>
      </trkpt>
      <trkpt lat="47.35439" lon="6.50737">
        <ele>528.24</ele>
        <time>2015-10-02T12:32:22Z</time>
      </trkpt>
      <trkpt lat="47.3544" lon="6.50722">
        <ele>527.778</ele>
        <time>2015-10-02T12:32:23Z</time>
      </trkpt>
      <trkpt lat="47.35441" lon="6.50709">
        <ele>527.152</ele>
        <time>2015-10-02T12:32:24Z</time>
      </trkpt>
      <trkpt lat="47.35443" lon="6.50693">
        <ele>525.496</ele>
        <time>2015-10-02T12:32:25Z</time>
      </trkpt>
      <trkpt lat="47.35444" lon="6.50682">
        <ele>526.107</ele>
        <time>2015-10-02T12:32:26Z</time>
      </trkpt>
      <trkpt lat="47.35446" lon="6.50669">
        <ele>526.538</ele>
        <time>2015-10-02T12:32:27Z</time>
      </trkpt>
      <trkpt lat="47.35447" lon="6.50657">
        <ele>526.958</ele>
        <time>2015-10-02T12:32:28Z</time>
      </trkpt>
      <trkpt lat="47.3545" lon="6.50644">
        <ele>526.118</ele>
        <time>2015-10-02T12:32:29Z</time>
      </trkpt>
      <trkpt lat="47.35454" lon="6.5063">
        <ele>524.543</ele>
        <time>2015-10-02T12:32:30Z</time>
      </trkpt>
      <trkpt lat="47.35458" lon="6.50618">
        <ele>524.568</ele>
        <time>2015-10-02T12:32:31Z</time>
      </trkpt>
      <trkpt lat="47.35462" lon="6.50606">
        <ele>524.823</ele>
        <time>2015-10-02T12:32:32Z</time>
      </trkpt>
      <trkpt lat="47.35467" lon="6.50594">
        <ele>523.882</ele>
        <time>2015-10-02T12:32:33Z</time>
      </trkpt>
      <trkpt lat="47.35471" lon="6.50581">
        <ele>523.635</ele>
        <time>2015-10-02T12:32:34Z</time>
      </trkpt>
      <trkpt lat="47.35475" lon="6.50569">
        <ele>522.585</ele>
        <time>2015-10-02T12:32:35Z</time>
      </trkpt>
      <trkpt lat="47.35479" lon="6.50556">
        <ele>523.103</ele>
        <time>2015-10-02T12:32:36Z</time>
      </trkpt>
      <trkpt lat="47.35481" lon="6.50544">
        <ele>522.687</ele>
        <time>2015-10-02T12:32:37Z</time>
      </trkpt>
      <trkpt lat="47.35482" lon="6.50529">
        <ele>523.396</ele>
        <time>2015-10-02T12:32:38Z</time>
      </trkpt>
      <trkpt lat="47.35483" lon="6.50517">
        <ele>522.514</ele>
        <time>2015-10-02T12:32:39Z</time>
      </trkpt>
      <trkpt lat="47.35483" lon="6.50505">
        <ele>522.382</ele>
        <time>2015-10-02T12:32:40Z</time>
      </trkpt>
      <trkpt lat="47.35482" lon="6.50493">
        <ele>521.411</ele>
        <time>2015-10-02T12:32:41Z</time>
      </trkpt>
      <trkpt lat="47.35481" lon="6.50482">
        <ele>520.986</ele>
        <time>2015-10-02T12:32:42Z</time>
      </trkpt>
      <trkpt lat="47.35479" lon="6.5047">
        <ele>520.967</ele>
        <time>2015-10-02T12:32:43Z</time>
      </trkpt>
      <trkpt lat="47.35477" lon="6.5046">
        <ele>521.828</ele>
        <time>2015-10-02T12:32:44Z</time>
      </trkpt>
      <trkpt lat="47.35475" lon="6.50451">
        <ele>522.37</ele>
        <time>2015-10-02T12:32:45Z</time>
      </trkpt>
      <trkpt lat="47.35472" lon="6.50439">
        <ele>521.814</ele>
        <time>2015-10-02T12:32:46Z</time>
      </trkpt>
      <trkpt lat="47.3547" lon="6.5043">
        <ele>522.181</ele>
        <time>2015-10-02T12:32:47Z</time>
      </trkpt>
      <trkpt lat="47.35468" lon="6.50421">
        <ele>522.438</ele>
        <time>2015-10-02T12:32:48Z</time>
      </trkpt>
      <trkpt lat="47.35466" lon="6.50412">
        <ele>522.693</ele>
        <time>2015-10-02T12:32:49Z</time>
      </trkpt>
      <trkpt lat="47.35464" lon="6.50404">
        <ele>523.371</ele>
        <time>2015-10-02T12:32:50Z</time>
      </trkpt>
      <trkpt lat="47.35462" lon="6.50396">
        <ele>523.362</ele>
        <time>2015-10-02T12:32:51Z</time>
      </trkpt>
      <trkpt lat="47.3546" lon="6.50388">
        <ele>523.603</ele>
        <time>2015-10-02T12:32:52Z</time>
      </trkpt>
      <trkpt lat="47.35458" lon="6.5038">
        <ele>523.888</ele>
        <time>2015-10-02T12:32:53Z</time>
      </trkpt>
      <trkpt lat="47.35457" lon="6.50375">
        <ele>523.663</ele>
        <time>2015-10-02T12:32:54Z</time>
      </trkpt>
      <trkpt lat="47.35454" lon="6.50368">
        <ele>523.225</ele>
        <time>2015-10-02T12:32:55Z</time>
      </trkpt>
      <trkpt lat="47.35453" lon="6.50359">
        <ele>523.466</ele>
        <time>2015-10-02T12:32:56Z</time>
      </trkpt>
      <trkpt lat="47.35452" lon="6.50353">
        <ele>523.124</ele>
        <time>2015-10-02T12:32:57Z</time>
      </trkpt>
      <trkpt lat="47.3545" lon="6.50346">
        <ele>523.547</ele>
        <time>2015-10-02T12:32:58Z</time>
      </trkpt>
      <trkpt lat="47.35448" lon="6.50338">
        <ele>523.561</ele>
        <time>2015-10-02T12:32:59Z</time>
      </trkpt>
      <trkpt lat="47.35445" lon="6.5033">
        <ele>523.379</ele>
        <time>2015-10-02T12:33:00Z</time>
      </trkpt>
      <trkpt lat="47.35444" lon="6.50322">
        <ele>523.562</ele>
        <time>2015-10-02T12:33:01Z</time>
      </trkpt>
      <trkpt lat="47.35442" lon="6.50313">
        <ele>523.293</ele>
        <time>2015-10-02T12:33:02Z</time>
      </trkpt>
      <trkpt lat="47.35439" lon="6.50306">
        <ele>523.26</ele>
        <time>2015-10-02T12:33:03Z</time>
      </trkpt>
      <trkpt lat="47.35437" lon="6.50299">
        <ele>523.322</ele>
        <time>2015-10-02T12:33:04Z</time>
      </trkpt>
      <trkpt lat="47.35435" lon="6.50292">
        <ele>522.845</ele>
        <time>2015-10-02T12:33:05Z</time>
      </trkpt>
      <trkpt lat="47.35433" lon="6.50284">
        <ele>522.555</ele>
        <time>2015-10-02T12:33:06Z</time>
      </trkpt>
      <trkpt lat="47.35431" lon="6.50278">
        <ele>522.708</ele>
        <time>2015-10-02T12:33:07Z</time>
      </trkpt>
      <trkpt lat="47.3543" lon="6.50271">
        <ele>522.698</ele>
        <time>2015-10-02T12:33:08Z</time>
      </trkpt>
      <trkpt lat="47.35428" lon="6.50263">
        <ele>522.494</ele>
        <time>2015-10-02T12:33:09Z</time>
      </trkpt>
      <trkpt lat="47.35426" lon="6.50256">
        <ele>522.696</ele>
        <time>2015-10-02T12:33:10Z</time>
      </trkpt>
      <trkpt lat="47.35424" lon="6.50249">
        <ele>522.082</ele>
        <time>2015-10-02T12:33:11Z</time>
      </trkpt>
      <trkpt lat="47.35423" lon="6.50241">
        <ele>521.871</ele>
        <time>2015-10-02T12:33:12Z</time>
      </trkpt>
      <trkpt lat="47.35421" lon="6.50232">
        <ele>520.847</ele>
        <time>2015-10-02T12:33:13Z</time>
      </trkpt>
      <trkpt lat="47.3542" lon="6.50224">
        <ele>520.666</ele>
        <time>2015-10-02T12:33:14Z</time>
      </trkpt>
      <trkpt lat="47.35418" lon="6.50216">
        <ele>520.308</ele>
        <time>2015-10-02T12:33:15Z</time>
      </trkpt>
      <trkpt lat="47.35417" lon="6.50206">
        <ele>520.593</ele>
        <time>2015-10-02T12:33:16Z</time>
      </trkpt>
      <trkpt lat="47.35415" lon="6.50195">
        <ele>519.018</ele>
        <time>2015-10-02T12:33:17Z</time>
      </trkpt>
      <trkpt lat="47.35414" lon="6.50184">
        <ele>518.944</ele>
        <time>2015-10-02T12:33:18Z</time>
      </trkpt>
      <trkpt lat="47.35412" lon="6.50173">
        <ele>518.172</ele>
        <time>2015-10-02T12:33:19Z</time>
      </trkpt>
      <trkpt lat="47.35411" lon="6.50161">
        <ele>518.149</ele>
        <time>2015-10-02T12:33:20Z</time>
      </trkpt>
      <trkpt lat="47.35409" lon="6.50149">
        <ele>517.273</ele>
        <time>2015-10-02T12:33:21Z</time>
      </trkpt>
      <trkpt lat="47.35407" lon="6.50137">
        <ele>516.97</ele>
        <time>2015-10-02T12:33:22Z</time>
      </trkpt>
      <trkpt lat="47.35406" lon="6.50124">
        <ele>516.586</ele>
        <time>2015-10-02T12:33:23Z</time>
      </trkpt>
      <trkpt lat="47.35404" lon="6.50111">
        <ele>516.308</ele>
        <time>2015-10-02T12:33:24Z</time>
      </trkpt>
      <trkpt lat="47.35402" lon="6.50097">
        <ele>516.217</ele>
        <time>2015-10-02T12:33:25Z</time>
      </trkpt>
      <trkpt lat="47.35401" lon="6.50084">
        <ele>515.922</ele>
        <time>2015-10-02T12:33:26Z</time>
      </trkpt>
      <trkpt lat="47.35399" lon="6.5007">
        <ele>515.312</ele>
        <time>2015-10-02T12:33:27Z</time>
      </trkpt>
      <trkpt lat="47.35398" lon="6.50056">
        <ele>514.978</ele>
        <time>2015-10-02T12:33:28Z</time>
      </trkpt>
      <trkpt lat="47.35398" lon="6.50042">
        <ele>514.347</ele>
        <time>2015-10-02T12:33:29Z</time>
      </trkpt>
      <trkpt lat="47.35397" lon="6.50028">
        <ele>514.257</ele>
        <time>2015-10-02T12:33:30Z</time>
      </trkpt>
      <trkpt lat="47.35397" lon="6.50014">
        <ele>514.109</ele>
        <time>2015-10-02T12:33:31Z</time>
      </trkpt>
      <trkpt lat="47.35398" lon="6.49999">
        <ele>513.731</ele>
        <time>2015-10-02T12:33:32Z</time>
      </trkpt>
      <trkpt lat="47.35398" lon="6.49983">
        <ele>512.743</ele>
        <time>2015-10-02T12:33:33Z</time>
      </trkpt>
      <trkpt lat="47.35398" lon="6.49969">
        <ele>512.31</ele>
        <time>2015-10-02T12:33:34Z</time>
      </trkpt>
      <trkpt lat="47.35399" lon="6.49954">
        <ele>511.5</ele>
        <time>2015-10-02T12:33:35Z</time>
      </trkpt>
      <trkpt lat="47.35399" lon="6.49939">
        <ele>511.048</ele>
        <time>2015-10-02T12:33:36Z</time>
      </trkpt>
      <trkpt lat="47.35399" lon="6.49923">
        <ele>511.106</ele>
        <time>2015-10-02T12:33:37Z</time>
      </trkpt>
      <trkpt lat="47.354" lon="6.49909">
        <ele>510.543</ele>
        <time>2015-10-02T12:33:38Z</time>
      </trkpt>
      <trkpt lat="47.354" lon="6.4989">
        <ele>507.59</ele>
        <time>2015-10-02T12:33:39Z</time>
      </trkpt>
      <trkpt lat="47.354" lon="6.49875">
        <ele>507.473</ele>
        <time>2015-10-02T12:33:40Z</time>
      </trkpt>
      <trkpt lat="47.354" lon="6.4986">
        <ele>506.958</ele>
        <time>2015-10-02T12:33:41Z</time>
      </trkpt>
      <trkpt lat="47.35401" lon="6.49844">
        <ele>507.131</ele>
        <time>2015-10-02T12:33:42Z</time>
      </trkpt>
      <trkpt lat="47.354" lon="6.49829">
        <ele>506.45</ele>
        <time>2015-10-02T12:33:43Z</time>
      </trkpt>
      <trkpt lat="47.35399" lon="6.49814">
        <ele>505.86</ele>
        <time>2015-10-02T12:33:44Z</time>
      </trkpt>
      <trkpt lat="47.35398" lon="6.49799">
        <ele>505.438</ele>
        <time>2015-10-02T12:33:45Z</time>
      </trkpt>
      <trkpt lat="47.35396" lon="6.49785">
        <ele>504.835</ele>
        <time>2015-10-02T12:33:46Z</time>
      </trkpt>
      <trkpt lat="47.35394" lon="6.49771">
        <ele>504.428</ele>
        <time>2015-10-02T12:33:47Z</time>
      </trkpt>
      <trkpt lat="47.3539" lon="6.49757">
        <ele>503.758</ele>
        <time>2015-10-02T12:33:48Z</time>
      </trkpt>
      <trkpt lat="47.35387" lon="6.49745">
        <ele>504.096</ele>
        <time>2015-10-02T12:33:49Z</time>
      </trkpt>
      <trkpt lat="47.35384" lon="6.49732">
        <ele>504.076</ele>
        <time>2015-10-02T12:33:50Z</time>
      </trkpt>
      <trkpt lat="47.3538" lon="6.4972">
        <ele>504.16</ele>
        <time>2015-10-02T12:33:51Z</time>
      </trkpt>
      <trkpt lat="47.35377" lon="6.49708">
        <ele>503.97</ele>
        <time>2015-10-02T12:33:52Z</time>
      </trkpt>
      <trkpt lat="47.35373" lon="6.49698">
        <ele>503.786</ele>
        <time>2015-10-02T12:33:53Z</time>
      </trkpt>
      <trkpt lat="47.35369" lon="6.49689">
        <ele>503.995</ele>
        <time>2015-10-02T12:33:54Z</time>
      </trkpt>
      <trkpt lat="47.35366" lon="6.49679">
        <ele>503.487</ele>
        <time>2015-10-02T12:33:55Z</time>
      </trkpt>
      <trkpt lat="47.35363" lon="6.49669">
        <ele>503.825</ele>
        <time>2015-10-02T12:33:56Z</time>
      </trkpt>
      <trkpt lat="47.3536" lon="6.49661">
        <ele>504.287</ele>
        <time>2015-10-02T12:33:57Z</time>
      </trkpt>
      <trkpt lat="47.35356" lon="6.49652">
        <ele>503.996</ele>
        <time>2015-10-02T12:33:58Z</time>
      </trkpt>
      <trkpt lat="47.35353" lon="6.49644">
        <ele>504.217</ele>
        <time>2015-10-02T12:33:59Z</time>
      </trkpt>
      <trkpt lat="47.3535" lon="6.49636">
        <ele>504.201</ele>
        <time>2015-10-02T12:34:00Z</time>
      </trkpt>
      <trkpt lat="47.35347" lon="6.49628">
        <ele>504.754</ele>
        <time>2015-10-02T12:34:01Z</time>
      </trkpt>
      <trkpt lat="47.35345" lon="6.49621">
        <ele>505.406</ele>
        <time>2015-10-02T12:34:02Z</time>
      </trkpt>
      <trkpt lat="47.35343" lon="6.49614">
        <ele>505.143</ele>
        <time>2015-10-02T12:34:03Z</time>
      </trkpt>
      <trkpt lat="47.35341" lon="6.49607">
        <ele>504.884</ele>
        <time>2015-10-02T12:34:04Z</time>
      </trkpt>
      <trkpt lat="47.35339" lon="6.49599">
        <ele>505.069</ele>
        <time>2015-10-02T12:34:05Z</time>
      </trkpt>
      <trkpt lat="47.35336" lon="6.49591">
        <ele>504.569</ele>
        <time>2015-10-02T12:34:06Z</time>
      </trkpt>
      <trkpt lat="47.35333" lon="6.49584">
        <ele>503.927</ele>
        <time>2015-10-02T12:34:07Z</time>
      </trkpt>
      <trkpt lat="47.35331" lon="6.49576">
        <ele>504.445</ele>
        <time>2015-10-02T12:34:08Z</time>
      </trkpt>
      <trkpt lat="47.35329" lon="6.49568">
        <ele>504.782</ele>
        <time>2015-10-02T12:34:09Z</time>
      </trkpt>
      <trkpt lat="47.35327" lon="6.49562">
        <ele>504.638</ele>
        <time>2015-10-02T12:34:10Z</time>
      </trkpt>
      <trkpt lat="47.35325" lon="6.49555">
        <ele>504.714</ele>
        <time>2015-10-02T12:34:11Z</time>
      </trkpt>
      <trkpt lat="47.35324" lon="6.49549">
        <ele>504.27</ele>
        <time>2015-10-02T12:34:12Z</time>
      </trkpt>
      <trkpt lat="47.35323" lon="6.49543">
        <ele>504.973</ele>
        <time>2015-10-02T12:34:13Z</time>
      </trkpt>
      <trkpt lat="47.35321" lon="6.49538">
        <ele>504.96</ele>
        <time>2015-10-02T12:34:14Z</time>
      </trkpt>
      <trkpt lat="47.3532" lon="6.49532">
        <ele>505.351</ele>
        <time>2015-10-02T12:34:15Z</time>
      </trkpt>
      <trkpt lat="47.35318" lon="6.49527">
        <ele>505.704</ele>
        <time>2015-10-02T12:34:16Z</time>
      </trkpt>
      <trkpt lat="47.35317" lon="6.49522">
        <ele>506.015</ele>
        <time>2015-10-02T12:34:17Z</time>
      </trkpt>
      <trkpt lat="47.35317" lon="6.49517">
        <ele>506.6</ele>
        <time>2015-10-02T12:34:18Z</time>
      </trkpt>
      <trkpt lat="47.35316" lon="6.49512">
        <ele>506.679</ele>
        <time>2015-10-02T12:34:19Z</time>
      </trkpt>
      <trkpt lat="47.35315" lon="6.49508">
        <ele>506.989</ele>
        <time>2015-10-02T12:34:20Z</time>
      </trkpt>
      <trkpt lat="47.35314" lon="6.49503">
        <ele>507.374</ele>
        <time>2015-10-02T12:34:21Z</time>
      </trkpt>
      <trkpt lat="47.35313" lon="6.49498">
        <ele>507.638</ele>
        <time>2015-10-02T12:34:22Z</time>
      </trkpt>
      <trkpt lat="47.35312" lon="6.49493">
        <ele>506.991</ele>
        <time>2015-10-02T12:34:23Z</time>
      </trkpt>
      <trkpt lat="47.35313" lon="6.49486">
        <ele>507.569</ele>
        <time>2015-10-02T12:34:24Z</time>
      </trkpt>
      <trkpt lat="47.35312" lon="6.49482">
        <ele>507.51</ele>
        <time>2015-10-02T12:34:25Z</time>
      </trkpt>
      <trkpt lat="47.35311" lon="6.49478">
        <ele>508.071</ele>
        <time>2015-10-02T12:34:26Z</time>
      </trkpt>
      <trkpt lat="47.3531" lon="6.49474">
        <ele>508.397</ele>
        <time>2015-10-02T12:34:27Z</time>
      </trkpt>
      <trkpt lat="47.35309" lon="6.4947">
        <ele>508.003</ele>
        <time>2015-10-02T12:34:28Z</time>
      </trkpt>
      <trkpt lat="47.35308" lon="6.49466">
        <ele>508.382</ele>
        <time>2015-10-02T12:34:29Z</time>
      </trkpt>
      <trkpt lat="47.35307" lon="6.49462">
        <ele>508.238</ele>
        <time>2015-10-02T12:34:30Z</time>
      </trkpt>
      <trkpt lat="47.35306" lon="6.49457">
        <ele>508.438</ele>
        <time>2015-10-02T12:34:31Z</time>
      </trkpt>
      <trkpt lat="47.35305" lon="6.49453">
        <ele>508.565</ele>
        <time>2015-10-02T12:34:32Z</time>
      </trkpt>
      <trkpt lat="47.35304" lon="6.4945">
        <ele>508.556</ele>
        <time>2015-10-02T12:34:33Z</time>
      </trkpt>
      <trkpt lat="47.35303" lon="6.49446">
        <ele>508.059</ele>
        <time>2015-10-02T12:34:34Z</time>
      </trkpt>
      <trkpt lat="47.35302" lon="6.49442">
        <ele>507.922</ele>
        <time>2015-10-02T12:34:35Z</time>
      </trkpt>
      <trkpt lat="47.353" lon="6.49438">
        <ele>508.837</ele>
        <time>2015-10-02T12:34:36Z</time>
      </trkpt>
      <trkpt lat="47.35299" lon="6.49434">
        <ele>509.591</ele>
        <time>2015-10-02T12:34:37Z</time>
      </trkpt>
      <trkpt lat="47.35298" lon="6.4943">
        <ele>510.173</ele>
        <time>2015-10-02T12:34:38Z</time>
      </trkpt>
      <trkpt lat="47.35298" lon="6.49425">
        <ele>510.645</ele>
        <time>2015-10-02T12:34:39Z</time>
      </trkpt>
      <trkpt lat="47.35297" lon="6.49421">
        <ele>510.797</ele>
        <time>2015-10-02T12:34:40Z</time>
      </trkpt>
      <trkpt lat="47.35296" lon="6.49417">
        <ele>510.88</ele>
        <time>2015-10-02T12:34:41Z</time>
      </trkpt>
      <trkpt lat="47.35295" lon="6.49413">
        <ele>511.085</ele>
        <time>2015-10-02T12:34:42Z</time>
      </trkpt>
      <trkpt lat="47.35294" lon="6.49409">
        <ele>510.983</ele>
        <time>2015-10-02T12:34:43Z</time>
      </trkpt>
      <trkpt lat="47.35293" lon="6.49405">
        <ele>512.665</ele>
        <time>2015-10-02T12:34:44Z</time>
      </trkpt>
      <trkpt lat="47.35293" lon="6.49401">
        <ele>512.616</ele>
        <time>2015-10-02T12:34:45Z</time>
      </trkpt>
      <trkpt lat="47.35292" lon="6.49397">
        <ele>512.438</ele>
        <time>2015-10-02T12:34:46Z</time>
      </trkpt>
      <trkpt lat="47.35291" lon="6.49392">
        <ele>512.943</ele>
        <time>2015-10-02T12:34:47Z</time>
      </trkpt>
      <trkpt lat="47.3529" lon="6.49388">
        <ele>512.991</ele>
        <time>2015-10-02T12:34:48Z</time>
      </trkpt>
      <trkpt lat="47.35289" lon="6.49384">
        <ele>513.317</ele>
        <time>2015-10-02T12:34:49Z</time>
      </trkpt>
      <trkpt lat="47.35288" lon="6.4938">
        <ele>512.757</ele>
        <time>2015-10-02T12:34:50Z</time>
      </trkpt>
      <trkpt lat="47.35287" lon="6.49376">
        <ele>512.541</ele>
        <time>2015-10-02T12:34:51Z</time>
      </trkpt>
      <trkpt lat="47.35286" lon="6.49371">
        <ele>512.711</ele>
        <time>2015-10-02T12:34:52Z</time>
      </trkpt>
      <trkpt lat="47.35286" lon="6.49367">
        <ele>514.198</ele>
        <time>2015-10-02T12:34:53Z</time>
      </trkpt>
      <trkpt lat="47.35285" lon="6.49363">
        <ele>515.179</ele>
        <time>2015-10-02T12:34:54Z</time>
      </trkpt>
      <trkpt lat="47.35284" lon="6.49359">
        <ele>515.59</ele>
        <time>2015-10-02T12:34:55Z</time>
      </trkpt>
      <trkpt lat="47.35283" lon="6.49354">
        <ele>516.149</ele>
        <time>2015-10-02T12:34:56Z</time>
      </trkpt>
      <trkpt lat="47.35283" lon="6.4935">
        <ele>515.926</ele>
        <time>2015-10-02T12:34:57Z</time>
      </trkpt>
      <trkpt lat="47.35282" lon="6.49346">
        <ele>515.353</ele>
        <time>2015-10-02T12:34:58Z</time>
      </trkpt>
      <trkpt lat="47.35282" lon="6.49341">
        <ele>515.164</ele>
        <time>2015-10-02T12:34:59Z</time>
      </trkpt>
      <trkpt lat="47.35282" lon="6.49338">
        <ele>515.08</ele>
        <time>2015-10-02T12:35:00Z</time>
      </trkpt>
      <trkpt lat="47.35281" lon="6.49334">
        <ele>515.081</ele>
        <time>2015-10-02T12:35:01Z</time>
      </trkpt>
      <trkpt lat="47.35281" lon="6.4933">
        <ele>515.966</ele>
        <time>2015-10-02T12:35:02Z</time>
      </trkpt>
      <trkpt lat="47.35281" lon="6.49327">
        <ele>515.954</ele>
        <time>2015-10-02T12:35:03Z</time>
      </trkpt>
      <trkpt lat="47.35281" lon="6.49323">
        <ele>516.173</ele>
        <time>2015-10-02T12:35:04Z</time>
      </trkpt>
      <trkpt lat="47.3528" lon="6.4932">
        <ele>514.739</ele>
        <time>2015-10-02T12:35:05Z</time>
      </trkpt>
      <trkpt lat="47.3528" lon="6.49316">
        <ele>514.596</ele>
        <time>2015-10-02T12:35:06Z</time>
      </trkpt>
      <trkpt lat="47.3528" lon="6.49312">
        <ele>513.981</ele>
        <time>2015-10-02T12:35:07Z</time>
      </trkpt>
      <trkpt lat="47.3528" lon="6.49308">
        <ele>514.223</ele>
        <time>2015-10-02T12:35:08Z</time>
      </trkpt>
      <trkpt lat="47.35281" lon="6.49304">
        <ele>514.817</ele>
        <time>2015-10-02T12:35:09Z</time>
      </trkpt>
      <trkpt lat="47.35281" lon="6.493">
        <ele>514.735</ele>
        <time>2015-10-02T12:35:10Z</time>
      </trkpt>
      <trkpt lat="47.35281" lon="6.49296">
        <ele>514.587</ele>
        <time>2015-10-02T12:35:11Z</time>
      </trkpt>
      <trkpt lat="47.35281" lon="6.49292">
        <ele>514.296</ele>
        <time>2015-10-02T12:35:12Z</time>
      </trkpt>
      <trkpt lat="47.35281" lon="6.49287">
        <ele>513.954</ele>
        <time>2015-10-02T12:35:13Z</time>
      </trkpt>
      <trkpt lat="47.35281" lon="6.49282">
        <ele>513.102</ele>
        <time>2015-10-02T12:35:14Z</time>
      </trkpt>
      <trkpt lat="47.35281" lon="6.49277">
        <ele>512.484</ele>
        <time>2015-10-02T12:35:15Z</time>
      </trkpt>
      <trkpt lat="47.35281" lon="6.49271">
        <ele>513.154</ele>
        <time>2015-10-02T12:35:16Z</time>
      </trkpt>
      <trkpt lat="47.35281" lon="6.49266">
        <ele>513.982</ele>
        <time>2015-10-02T12:35:17Z</time>
      </trkpt>
      <trkpt lat="47.35281" lon="6.49261">
        <ele>514.195</ele>
        <time>2015-10-02T12:35:18Z</time>
      </trkpt>
      <trkpt lat="47.35282" lon="6.49255">
        <ele>515.202</ele>
        <time>2015-10-02T12:35:19Z</time>
      </trkpt>
      <trkpt lat="47.35281" lon="6.4925">
        <ele>514.978</ele>
        <time>2015-10-02T12:35:20Z</time>
      </trkpt>
      <trkpt lat="47.35281" lon="6.49245">
        <ele>515.214</ele>
        <time>2015-10-02T12:35:21Z</time>
      </trkpt>
      <trkpt lat="47.35281" lon="6.49239">
        <ele>515.363</ele>
        <time>2015-10-02T12:35:22Z</time>
      </trkpt>
      <trkpt lat="47.35281" lon="6.49234">
        <ele>515.232</ele>
        <time>2015-10-02T12:35:23Z</time>
      </trkpt>
      <trkpt lat="47.35281" lon="6.49229">
        <ele>514.53</ele>
        <time>2015-10-02T12:35:24Z</time>
      </trkpt>
      <trkpt lat="47.35281" lon="6.49224">
        <ele>515.605</ele>
        <time>2015-10-02T12:35:25Z</time>
      </trkpt>
      <trkpt lat="47.35281" lon="6.49219">
        <ele>513.852</ele>
        <time>2015-10-02T12:35:26Z</time>
      </trkpt>
      <trkpt lat="47.35281" lon="6.49213">
        <ele>513.561</ele>
        <time>2015-10-02T12:35:27Z</time>
      </trkpt>
      <trkpt lat="47.35281" lon="6.49208">
        <ele>513.412</ele>
        <time>2015-10-02T12:35:28Z</time>
      </trkpt>
      <trkpt lat="47.35281" lon="6.49203">
        <ele>514.72</ele>
        <time>2015-10-02T12:35:29Z</time>
      </trkpt>
      <trkpt lat="47.3528" lon="6.49198">
        <ele>514.167</ele>
        <time>2015-10-02T12:35:30Z</time>
      </trkpt>
      <trkpt lat="47.3528" lon="6.49192">
        <ele>513.875</ele>
        <time>2015-10-02T12:35:31Z</time>
      </trkpt>
      <trkpt lat="47.35279" lon="6.49187">
        <ele>514.172</ele>
        <time>2015-10-02T12:35:32Z</time>
      </trkpt>
      <trkpt lat="47.35278" lon="6.49182">
        <ele>513.245</ele>
        <time>2015-10-02T12:35:33Z</time>
      </trkpt>
      <trkpt lat="47.35277" lon="6.49177">
        <ele>512.431</ele>
        <time>2015-10-02T12:35:34Z</time>
      </trkpt>
      <trkpt lat="47.35276" lon="6.49172">
        <ele>511.532</ele>
        <time>2015-10-02T12:35:35Z</time>
      </trkpt>
      <trkpt lat="47.35275" lon="6.49168">
        <ele>511.709</ele>
        <time>2015-10-02T12:35:36Z</time>
      </trkpt>
      <trkpt lat="47.35274" lon="6.49164">
        <ele>511.051</ele>
        <time>2015-10-02T12:35:37Z</time>
      </trkpt>
      <trkpt lat="47.35273" lon="6.4916">
        <ele>510.455</ele>
        <time>2015-10-02T12:35:38Z</time>
      </trkpt>
      <trkpt lat="47.35272" lon="6.49156">
        <ele>510.046</ele>
        <time>2015-10-02T12:35:39Z</time>
      </trkpt>
      <trkpt lat="47.35271" lon="6.49152">
        <ele>510.366</ele>
        <time>2015-10-02T12:35:40Z</time>
      </trkpt>
      <trkpt lat="47.3527" lon="6.49149">
        <ele>510.072</ele>
        <time>2015-10-02T12:35:41Z</time>
      </trkpt>
      <trkpt lat="47.35269" lon="6.49144">
        <ele>510.048</ele>
        <time>2015-10-02T12:35:42Z</time>
      </trkpt>
      <trkpt lat="47.35268" lon="6.4914">
        <ele>510.08</ele>
        <time>2015-10-02T12:35:43Z</time>
      </trkpt>
      <trkpt lat="47.35267" lon="6.49135">
        <ele>508.863</ele>
        <time>2015-10-02T12:35:44Z</time>
      </trkpt>
      <trkpt lat="47.35266" lon="6.4913">
        <ele>508.376</ele>
        <time>2015-10-02T12:35:45Z</time>
      </trkpt>
      <trkpt lat="47.35265" lon="6.49125">
        <ele>508.543</ele>
        <time>2015-10-02T12:35:46Z</time>
      </trkpt>
      <trkpt lat="47.35264" lon="6.4912">
        <ele>508.258</ele>
        <time>2015-10-02T12:35:47Z</time>
      </trkpt>
      <trkpt lat="47.35263" lon="6.49115">
        <ele>508.671</ele>
        <time>2015-10-02T12:35:48Z</time>
      </trkpt>
      <trkpt lat="47.35262" lon="6.4911">
        <ele>508.424</ele>
        <time>2015-10-02T12:35:49Z</time>
      </trkpt>
      <trkpt lat="47.35261" lon="6.49105">
        <ele>508.883</ele>
        <time>2015-10-02T12:35:50Z</time>
      </trkpt>
      <trkpt lat="47.3526" lon="6.49101">
        <ele>509.193</ele>
        <time>2015-10-02T12:35:51Z</time>
      </trkpt>
      <trkpt lat="47.35259" lon="6.49097">
        <ele>509.54</ele>
        <time>2015-10-02T12:35:52Z</time>
      </trkpt>
      <trkpt lat="47.35259" lon="6.49093">
        <ele>510.295</ele>
        <time>2015-10-02T12:35:53Z</time>
      </trkpt>
      <trkpt lat="47.35258" lon="6.49089">
        <ele>510.247</ele>
        <time>2015-10-02T12:35:54Z</time>
      </trkpt>
      <trkpt lat="47.35258" lon="6.49085">
        <ele>510.027</ele>
        <time>2015-10-02T12:35:55Z</time>
      </trkpt>
      <trkpt lat="47.35258" lon="6.49081">
        <ele>511.508</ele>
        <time>2015-10-02T12:35:56Z</time>
      </trkpt>
      <trkpt lat="47.35258" lon="6.49076">
        <ele>512.066</ele>
        <time>2015-10-02T12:35:57Z</time>
      </trkpt>
      <trkpt lat="47.35258" lon="6.49072">
        <ele>513.293</ele>
        <time>2015-10-02T12:35:58Z</time>
      </trkpt>
      <trkpt lat="47.35257" lon="6.49068">
        <ele>512.171</ele>
        <time>2015-10-02T12:35:59Z</time>
      </trkpt>
      <trkpt lat="47.35258" lon="6.49064">
        <ele>510.462</ele>
        <time>2015-10-02T12:36:00Z</time>
      </trkpt>
      <trkpt lat="47.35258" lon="6.49059">
        <ele>509.947</ele>
        <time>2015-10-02T12:36:01Z</time>
      </trkpt>
      <trkpt lat="47.35258" lon="6.49055">
        <ele>510.298</ele>
        <time>2015-10-02T12:36:02Z</time>
      </trkpt>
      <trkpt lat="47.35259" lon="6.49051">
        <ele>511.687</ele>
        <time>2015-10-02T12:36:03Z</time>
      </trkpt>
      <trkpt lat="47.35259" lon="6.49047">
        <ele>512.14</ele>
        <time>2015-10-02T12:36:04Z</time>
      </trkpt>
      <trkpt lat="47.3526" lon="6.49043">
        <ele>511.918</ele>
        <time>2015-10-02T12:36:05Z</time>
      </trkpt>
      <trkpt lat="47.35261" lon="6.4904">
        <ele>512.134</ele>
        <time>2015-10-02T12:36:06Z</time>
      </trkpt>
      <trkpt lat="47.35261" lon="6.49036">
        <ele>511.906</ele>
        <time>2015-10-02T12:36:07Z</time>
      </trkpt>
      <trkpt lat="47.35262" lon="6.49031">
        <ele>511.917</ele>
        <time>2015-10-02T12:36:08Z</time>
      </trkpt>
      <trkpt lat="47.35263" lon="6.49026">
        <ele>511.325</ele>
        <time>2015-10-02T12:36:09Z</time>
      </trkpt>
      <trkpt lat="47.35264" lon="6.49021">
        <ele>510.838</ele>
        <time>2015-10-02T12:36:10Z</time>
      </trkpt>
      <trkpt lat="47.35265" lon="6.49016">
        <ele>511.774</ele>
        <time>2015-10-02T12:36:11Z</time>
      </trkpt>
      <trkpt lat="47.35265" lon="6.49011">
        <ele>511.809</ele>
        <time>2015-10-02T12:36:12Z</time>
      </trkpt>
      <trkpt lat="47.35266" lon="6.49006">
        <ele>511.492</ele>
        <time>2015-10-02T12:36:13Z</time>
      </trkpt>
      <trkpt lat="47.35268" lon="6.49001">
        <ele>510.887</ele>
        <time>2015-10-02T12:36:14Z</time>
      </trkpt>
      <trkpt lat="47.35269" lon="6.48996">
        <ele>510.67</ele>
        <time>2015-10-02T12:36:15Z</time>
      </trkpt>
      <trkpt lat="47.3527" lon="6.48992">
        <ele>510.94</ele>
        <time>2015-10-02T12:36:16Z</time>
      </trkpt>
      <trkpt lat="47.35272" lon="6.48987">
        <ele>510.352</ele>
        <time>2015-10-02T12:36:17Z</time>
      </trkpt>
      <trkpt lat="47.35273" lon="6.48981">
        <ele>510.903</ele>
        <time>2015-10-02T12:36:18Z</time>
      </trkpt>
      <trkpt lat="47.35274" lon="6.48976">
        <ele>510.463</ele>
        <time>2015-10-02T12:36:19Z</time>
      </trkpt>
      <trkpt lat="47.35275" lon="6.48972">
        <ele>511.151</ele>
        <time>2015-10-02T12:36:20Z</time>
      </trkpt>
      <trkpt lat="47.35276" lon="6.48967">
        <ele>511.269</ele>
        <time>2015-10-02T12:36:21Z</time>
      </trkpt>
      <trkpt lat="47.35277" lon="6.48963">
        <ele>511.24</ele>
        <time>2015-10-02T12:36:22Z</time>
      </trkpt>
      <trkpt lat="47.35278" lon="6.48958">
        <ele>510.921</ele>
        <time>2015-10-02T12:36:23Z</time>
      </trkpt>
      <trkpt lat="47.3528" lon="6.48953">
        <ele>511.317</ele>
        <time>2015-10-02T12:36:24Z</time>
      </trkpt>
      <trkpt lat="47.35282" lon="6.48948">
        <ele>510.363</ele>
        <time>2015-10-02T12:36:25Z</time>
      </trkpt>
      <trkpt lat="47.35283" lon="6.48943">
        <ele>511.227</ele>
        <time>2015-10-02T12:36:26Z</time>
      </trkpt>
      <trkpt lat="47.35284" lon="6.48938">
        <ele>511.064</ele>
        <time>2015-10-02T12:36:27Z</time>
      </trkpt>
      <trkpt lat="47.35285" lon="6.48932">
        <ele>511.248</ele>
        <time>2015-10-02T12:36:28Z</time>
      </trkpt>
      <trkpt lat="47.35287" lon="6.48927">
        <ele>510.663</ele>
        <time>2015-10-02T12:36:29Z</time>
      </trkpt>
      <trkpt lat="47.35288" lon="6.48922">
        <ele>511.128</ele>
        <time>2015-10-02T12:36:30Z</time>
      </trkpt>
      <trkpt lat="47.35289" lon="6.48916">
        <ele>511.807</ele>
        <time>2015-10-02T12:36:31Z</time>
      </trkpt>
      <trkpt lat="47.35291" lon="6.48911">
        <ele>512.467</ele>
        <time>2015-10-02T12:36:32Z</time>
      </trkpt>
      <trkpt lat="47.35292" lon="6.48906">
        <ele>512.667</ele>
        <time>2015-10-02T12:36:33Z</time>
      </trkpt>
      <trkpt lat="47.35292" lon="6.48901">
        <ele>513.039</ele>
        <time>2015-10-02T12:36:34Z</time>
      </trkpt>
      <trkpt lat="47.35293" lon="6.48895">
        <ele>512.687</ele>
        <time>2015-10-02T12:36:35Z</time>
      </trkpt>
      <trkpt lat="47.35294" lon="6.4889">
        <ele>512.748</ele>
        <time>2015-10-02T12:36:36Z</time>
      </trkpt>
      <trkpt lat="47.35294" lon="6.48885">
        <ele>513.043</ele>
        <time>2015-10-02T12:36:37Z</time>
      </trkpt>
      <trkpt lat="47.35295" lon="6.4888">
        <ele>513.39</ele>
        <time>2015-10-02T12:36:38Z</time>
      </trkpt>
      <trkpt lat="47.35295" lon="6.48875">
        <ele>513.365</ele>
        <time>2015-10-02T12:36:39Z</time>
      </trkpt>
      <trkpt lat="47.35295" lon="6.4887">
        <ele>513.714</ele>
        <time>2015-10-02T12:36:40Z</time>
      </trkpt>
      <trkpt lat="47.35295" lon="6.48865">
        <ele>513.335</ele>
        <time>2015-10-02T12:36:41Z</time>
      </trkpt>
      <trkpt lat="47.35295" lon="6.4886">
        <ele>513.338</ele>
        <time>2015-10-02T12:36:42Z</time>
      </trkpt>
      <trkpt lat="47.35295" lon="6.48854">
        <ele>512.854</ele>
        <time>2015-10-02T12:36:43Z</time>
      </trkpt>
      <trkpt lat="47.35295" lon="6.4885">
        <ele>513.654</ele>
        <time>2015-10-02T12:36:44Z</time>
      </trkpt>
      <trkpt lat="47.35295" lon="6.48846">
        <ele>514.028</ele>
        <time>2015-10-02T12:36:45Z</time>
      </trkpt>
      <trkpt lat="47.35295" lon="6.48842">
        <ele>514.96</ele>
        <time>2015-10-02T12:36:46Z</time>
      </trkpt>
      <trkpt lat="47.35295" lon="6.48838">
        <ele>514.474</ele>
        <time>2015-10-02T12:36:47Z</time>
      </trkpt>
      <trkpt lat="47.35295" lon="6.48834">
        <ele>515.747</ele>
        <time>2015-10-02T12:36:48Z</time>
      </trkpt>
      <trkpt lat="47.35294" lon="6.48829">
        <ele>516.243</ele>
        <time>2015-10-02T12:36:49Z</time>
      </trkpt>
      <trkpt lat="47.35294" lon="6.48824">
        <ele>516.602</ele>
        <time>2015-10-02T12:36:50Z</time>
      </trkpt>
      <trkpt lat="47.35294" lon="6.48821">
        <ele>518.163</ele>
        <time>2015-10-02T12:36:51Z</time>
      </trkpt>
      <trkpt lat="47.35294" lon="6.48817">
        <ele>520.035</ele>
        <time>2015-10-02T12:36:52Z</time>
      </trkpt>
      <trkpt lat="47.35293" lon="6.48814">
        <ele>519.781</ele>
        <time>2015-10-02T12:36:53Z</time>
      </trkpt>
      <trkpt lat="47.35292" lon="6.4881">
        <ele>520.176</ele>
        <time>2015-10-02T12:36:54Z</time>
      </trkpt>
      <trkpt lat="47.35291" lon="6.48805">
        <ele>519.542</ele>
        <time>2015-10-02T12:36:55Z</time>
      </trkpt>
      <trkpt lat="47.3529" lon="6.48799">
        <ele>520.061</ele>
        <time>2015-10-02T12:36:56Z</time>
      </trkpt>
      <trkpt lat="47.35289" lon="6.48792">
        <ele>520.686</ele>
        <time>2015-10-02T12:36:57Z</time>
      </trkpt>
      <trkpt lat="47.35292" lon="6.48783">
        <ele>519.511</ele>
        <time>2015-10-02T12:36:58Z</time>
      </trkpt>
      <trkpt lat="47.35294" lon="6.48774">
        <ele>517.879</ele>
        <time>2015-10-02T12:36:59Z</time>
      </trkpt>
      <trkpt lat="47.35295" lon="6.48766">
        <ele>516.312</ele>
        <time>2015-10-02T12:37:00Z</time>
      </trkpt>
      <trkpt lat="47.35296" lon="6.48759">
        <ele>515.718</ele>
        <time>2015-10-02T12:37:01Z</time>
      </trkpt>
      <trkpt lat="47.35298" lon="6.48753">
        <ele>515.977</ele>
        <time>2015-10-02T12:37:02Z</time>
      </trkpt>
      <trkpt lat="47.35301" lon="6.48746">
        <ele>514.99</ele>
        <time>2015-10-02T12:37:03Z</time>
      </trkpt>
      <trkpt lat="47.35302" lon="6.48741">
        <ele>515.335</ele>
        <time>2015-10-02T12:37:04Z</time>
      </trkpt>
      <trkpt lat="47.35305" lon="6.48737">
        <ele>514.843</ele>
        <time>2015-10-02T12:37:05Z</time>
      </trkpt>
      <trkpt lat="47.35307" lon="6.48731">
        <ele>513.961</ele>
        <time>2015-10-02T12:37:06Z</time>
      </trkpt>
      <trkpt lat="47.35309" lon="6.48726">
        <ele>514.124</ele>
        <time>2015-10-02T12:37:07Z</time>
      </trkpt>
      <trkpt lat="47.35312" lon="6.48718">
        <ele>511.69</ele>
        <time>2015-10-02T12:37:08Z</time>
      </trkpt>
      <trkpt lat="47.35314" lon="6.48713">
        <ele>511.118</ele>
        <time>2015-10-02T12:37:09Z</time>
      </trkpt>
      <trkpt lat="47.35315" lon="6.48706">
        <ele>509.156</ele>
        <time>2015-10-02T12:37:10Z</time>
      </trkpt>
      <trkpt lat="47.35317" lon="6.48701">
        <ele>510.757</ele>
        <time>2015-10-02T12:37:11Z</time>
      </trkpt>
      <trkpt lat="47.35317" lon="6.48696">
        <ele>511.702</ele>
        <time>2015-10-02T12:37:12Z</time>
      </trkpt>
      <trkpt lat="47.35317" lon="6.48689">
        <ele>512.807</ele>
        <time>2015-10-02T12:37:13Z</time>
      </trkpt>
      <trkpt lat="47.35316" lon="6.48683">
        <ele>511.787</ele>
        <time>2015-10-02T12:37:14Z</time>
      </trkpt>
      <trkpt lat="47.35315" lon="6.48679">
        <ele>511.422</ele>
        <time>2015-10-02T12:37:15Z</time>
      </trkpt>
      <trkpt lat="47.35315" lon="6.48675">
        <ele>511.963</ele>
        <time>2015-10-02T12:37:16Z</time>
      </trkpt>
      <trkpt lat="47.35314" lon="6.4867">
        <ele>512.344</ele>
        <time>2015-10-02T12:37:17Z</time>
      </trkpt>
      <trkpt lat="47.35313" lon="6.48666">
        <ele>512.52</ele>
        <time>2015-10-02T12:37:18Z</time>
      </trkpt>
      <trkpt lat="47.35312" lon="6.48662">
        <ele>512.975</ele>
        <time>2015-10-02T12:37:19Z</time>
      </trkpt>
      <trkpt lat="47.35311" lon="6.48658">
        <ele>513.713</ele>
        <time>2015-10-02T12:37:20Z</time>
      </trkpt>
      <trkpt lat="47.3531" lon="6.48654">
        <ele>514.731</ele>
        <time>2015-10-02T12:37:21Z</time>
      </trkpt>
      <trkpt lat="47.35309" lon="6.4865">
        <ele>515.749</ele>
        <time>2015-10-02T12:37:22Z</time>
      </trkpt>
      <trkpt lat="47.35308" lon="6.48646">
        <ele>515.631</ele>
        <time>2015-10-02T12:37:23Z</time>
      </trkpt>
      <trkpt lat="47.35307" lon="6.48643">
        <ele>515.518</ele>
        <time>2015-10-02T12:37:24Z</time>
      </trkpt>
      <trkpt lat="47.35306" lon="6.48639">
        <ele>516.02</ele>
        <time>2015-10-02T12:37:25Z</time>
      </trkpt>
      <trkpt lat="47.35306" lon="6.48635">
        <ele>516.159</ele>
        <time>2015-10-02T12:37:26Z</time>
      </trkpt>
      <trkpt lat="47.35305" lon="6.48632">
        <ele>516.167</ele>
        <time>2015-10-02T12:37:27Z</time>
      </trkpt>
      <trkpt lat="47.35304" lon="6.48628">
        <ele>516.494</ele>
        <time>2015-10-02T12:37:28Z</time>
      </trkpt>
      <trkpt lat="47.35304" lon="6.48625">
        <ele>516.779</ele>
        <time>2015-10-02T12:37:29Z</time>
      </trkpt>
      <trkpt lat="47.35303" lon="6.48622">
        <ele>516.873</ele>
        <time>2015-10-02T12:37:30Z</time>
      </trkpt>
      <trkpt lat="47.35302" lon="6.48619">
        <ele>517.073</ele>
        <time>2015-10-02T12:37:31Z</time>
      </trkpt>
      <trkpt lat="47.35302" lon="6.48618">
        <ele>517.106</ele>
        <time>2015-10-02T12:37:32Z</time>
      </trkpt>
      <trkpt lat="47.35301" lon="6.48616">
        <ele>516.033</ele>
        <time>2015-10-02T12:37:33Z</time>
      </trkpt>
      <trkpt lat="47.35301" lon="6.48614">
        <ele>518.566</ele>
        <time>2015-10-02T12:37:34Z</time>
      </trkpt>
      <trkpt lat="47.353" lon="6.48612">
        <ele>518.547</ele>
        <time>2015-10-02T12:37:35Z</time>
      </trkpt>
      <trkpt lat="47.353" lon="6.4861">
        <ele>518.228</ele>
        <time>2015-10-02T12:37:36Z</time>
      </trkpt>
      <trkpt lat="47.35299" lon="6.48609">
        <ele>518.59</ele>
        <time>2015-10-02T12:37:38Z</time>
      </trkpt>
      <trkpt lat="47.35299" lon="6.48607">
        <ele>518.073</ele>
        <time>2015-10-02T12:37:39Z</time>
      </trkpt>
      <trkpt lat="47.35298" lon="6.48604">
        <ele>517.373</ele>
        <time>2015-10-02T12:37:40Z</time>
      </trkpt>
      <trkpt lat="47.35298" lon="6.48601">
        <ele>516.161</ele>
        <time>2015-10-02T12:37:41Z</time>
      </trkpt>
      <trkpt lat="47.35298" lon="6.48598">
        <ele>514.923</ele>
        <time>2015-10-02T12:37:42Z</time>
      </trkpt>
      <trkpt lat="47.35298" lon="6.48595">
        <ele>514.446</ele>
        <time>2015-10-02T12:37:43Z</time>
      </trkpt>
      <trkpt lat="47.35297" lon="6.48591">
        <ele>514.53</ele>
        <time>2015-10-02T12:37:44Z</time>
      </trkpt>
      <trkpt lat="47.35297" lon="6.48588">
        <ele>514.326</ele>
        <time>2015-10-02T12:37:45Z</time>
      </trkpt>
      <trkpt lat="47.35297" lon="6.48585">
        <ele>513.853</ele>
        <time>2015-10-02T12:37:46Z</time>
      </trkpt>
      <trkpt lat="47.35296" lon="6.48581">
        <ele>514.273</ele>
        <time>2015-10-02T12:37:47Z</time>
      </trkpt>
      <trkpt lat="47.35296" lon="6.48578">
        <ele>514.5</ele>
        <time>2015-10-02T12:37:48Z</time>
      </trkpt>
      <trkpt lat="47.35296" lon="6.48576">
        <ele>515.219</ele>
        <time>2015-10-02T12:37:49Z</time>
      </trkpt>
      <trkpt lat="47.35296" lon="6.48572">
        <ele>516.18</ele>
        <time>2015-10-02T12:37:50Z</time>
      </trkpt>
      <trkpt lat="47.35296" lon="6.48569">
        <ele>516.685</ele>
        <time>2015-10-02T12:37:51Z</time>
      </trkpt>
      <trkpt lat="47.35297" lon="6.48565">
        <ele>517.513</ele>
        <time>2015-10-02T12:37:52Z</time>
      </trkpt>
      <trkpt lat="47.35297" lon="6.48562">
        <ele>517.135</ele>
        <time>2015-10-02T12:37:53Z</time>
      </trkpt>
      <trkpt lat="47.35297" lon="6.48558">
        <ele>515.258</ele>
        <time>2015-10-02T12:37:54Z</time>
      </trkpt>
      <trkpt lat="47.35298" lon="6.48554">
        <ele>514.959</ele>
        <time>2015-10-02T12:37:55Z</time>
      </trkpt>
      <trkpt lat="47.35298" lon="6.48551">
        <ele>514.969</ele>
        <time>2015-10-02T12:37:56Z</time>
      </trkpt>
      <trkpt lat="47.35298" lon="6.48547">
        <ele>515.6</ele>
        <time>2015-10-02T12:37:57Z</time>
      </trkpt>
      <trkpt lat="47.35299" lon="6.48544">
        <ele>515.383</ele>
        <time>2015-10-02T12:37:58Z</time>
      </trkpt>
      <trkpt lat="47.35299" lon="6.48541">
        <ele>514.884</ele>
        <time>2015-10-02T12:37:59Z</time>
      </trkpt>
      <trkpt lat="47.35299" lon="6.48537">
        <ele>515.008</ele>
        <time>2015-10-02T12:38:00Z</time>
      </trkpt>
      <trkpt lat="47.353" lon="6.48534">
        <ele>515.668</ele>
        <time>2015-10-02T12:38:01Z</time>
      </trkpt>
      <trkpt lat="47.353" lon="6.48531">
        <ele>516.165</ele>
        <time>2015-10-02T12:38:02Z</time>
      </trkpt>
      <trkpt lat="47.353" lon="6.48528">
        <ele>515.942</ele>
        <time>2015-10-02T12:38:03Z</time>
      </trkpt>
      <trkpt lat="47.353" lon="6.48524">
        <ele>516.856</ele>
        <time>2015-10-02T12:38:04Z</time>
      </trkpt>
      <trkpt lat="47.353" lon="6.48521">
        <ele>516.473</ele>
        <time>2015-10-02T12:38:05Z</time>
      </trkpt>
      <trkpt lat="47.353" lon="6.48517">
        <ele>516.35</ele>
        <time>2015-10-02T12:38:06Z</time>
      </trkpt>
      <trkpt lat="47.353" lon="6.48514">
        <ele>515.964</ele>
        <time>2015-10-02T12:38:07Z</time>
      </trkpt>
      <trkpt lat="47.353" lon="6.48511">
        <ele>516.832</ele>
        <time>2015-10-02T12:38:08Z</time>
      </trkpt>
      <trkpt lat="47.353" lon="6.48508">
        <ele>516.836</ele>
        <time>2015-10-02T12:38:09Z</time>
      </trkpt>
      <trkpt lat="47.35301" lon="6.48505">
        <ele>515.709</ele>
        <time>2015-10-02T12:38:10Z</time>
      </trkpt>
      <trkpt lat="47.35301" lon="6.48502">
        <ele>517.871</ele>
        <time>2015-10-02T12:38:11Z</time>
      </trkpt>
      <trkpt lat="47.35301" lon="6.48499">
        <ele>517.549</ele>
        <time>2015-10-02T12:38:12Z</time>
      </trkpt>
      <trkpt lat="47.35302" lon="6.48496">
        <ele>517.269</ele>
        <time>2015-10-02T12:38:13Z</time>
      </trkpt>
      <trkpt lat="47.35302" lon="6.48493">
        <ele>517.319</ele>
        <time>2015-10-02T12:38:14Z</time>
      </trkpt>
      <trkpt lat="47.35302" lon="6.48489">
        <ele>516.825</ele>
        <time>2015-10-02T12:38:15Z</time>
      </trkpt>
      <trkpt lat="47.35302" lon="6.48485">
        <ele>516.494</ele>
        <time>2015-10-02T12:38:16Z</time>
      </trkpt>
      <trkpt lat="47.35302" lon="6.48482">
        <ele>516.978</ele>
        <time>2015-10-02T12:38:17Z</time>
      </trkpt>
      <trkpt lat="47.35302" lon="6.48478">
        <ele>515.502</ele>
        <time>2015-10-02T12:38:18Z</time>
      </trkpt>
      <trkpt lat="47.35302" lon="6.48475">
        <ele>516.793</ele>
        <time>2015-10-02T12:38:19Z</time>
      </trkpt>
      <trkpt lat="47.35303" lon="6.48471">
        <ele>517.37</ele>
        <time>2015-10-02T12:38:20Z</time>
      </trkpt>
      <trkpt lat="47.35303" lon="6.48468">
        <ele>517.101</ele>
        <time>2015-10-02T12:38:21Z</time>
      </trkpt>
      <trkpt lat="47.35303" lon="6.48465">
        <ele>517.82</ele>
        <time>2015-10-02T12:38:22Z</time>
      </trkpt>
      <trkpt lat="47.35303" lon="6.48461">
        <ele>517.341</ele>
        <time>2015-10-02T12:38:23Z</time>
      </trkpt>
      <trkpt lat="47.35303" lon="6.48458">
        <ele>517.288</ele>
        <time>2015-10-02T12:38:24Z</time>
      </trkpt>
      <trkpt lat="47.35303" lon="6.48454">
        <ele>517.899</ele>
        <time>2015-10-02T12:38:25Z</time>
      </trkpt>
      <trkpt lat="47.35303" lon="6.4845">
        <ele>517.502</ele>
        <time>2015-10-02T12:38:26Z</time>
      </trkpt>
      <trkpt lat="47.35303" lon="6.48445">
        <ele>517.617</ele>
        <time>2015-10-02T12:38:27Z</time>
      </trkpt>
      <trkpt lat="47.35303" lon="6.48441">
        <ele>517.584</ele>
        <time>2015-10-02T12:38:28Z</time>
      </trkpt>
      <trkpt lat="47.35303" lon="6.48437">
        <ele>517.774</ele>
        <time>2015-10-02T12:38:29Z</time>
      </trkpt>
      <trkpt lat="47.35303" lon="6.48433">
        <ele>518.284</ele>
        <time>2015-10-02T12:38:30Z</time>
      </trkpt>
      <trkpt lat="47.35303" lon="6.48429">
        <ele>519.54</ele>
        <time>2015-10-02T12:38:31Z</time>
      </trkpt>
      <trkpt lat="47.35303" lon="6.48426">
        <ele>518.479</ele>
        <time>2015-10-02T12:38:32Z</time>
      </trkpt>
      <trkpt lat="47.35303" lon="6.48422">
        <ele>519.19</ele>
        <time>2015-10-02T12:38:33Z</time>
      </trkpt>
      <trkpt lat="47.35303" lon="6.48419">
        <ele>519.374</ele>
        <time>2015-10-02T12:38:34Z</time>
      </trkpt>
      <trkpt lat="47.35303" lon="6.48415">
        <ele>520.188</ele>
        <time>2015-10-02T12:38:35Z</time>
      </trkpt>
      <trkpt lat="47.35303" lon="6.48411">
        <ele>520.425</ele>
        <time>2015-10-02T12:38:36Z</time>
      </trkpt>
      <trkpt lat="47.35303" lon="6.48407">
        <ele>520.147</ele>
        <time>2015-10-02T12:38:37Z</time>
      </trkpt>
      <trkpt lat="47.35303" lon="6.48403">
        <ele>520.766</ele>
        <time>2015-10-02T12:38:38Z</time>
      </trkpt>
      <trkpt lat="47.35303" lon="6.484">
        <ele>520.96</ele>
        <time>2015-10-02T12:38:39Z</time>
      </trkpt>
      <trkpt lat="47.35302" lon="6.48396">
        <ele>521.277</ele>
        <time>2015-10-02T12:38:40Z</time>
      </trkpt>
      <trkpt lat="47.35302" lon="6.48392">
        <ele>521.454</ele>
        <time>2015-10-02T12:38:41Z</time>
      </trkpt>
      <trkpt lat="47.35301" lon="6.48389">
        <ele>521.189</ele>
        <time>2015-10-02T12:38:42Z</time>
      </trkpt>
      <trkpt lat="47.35301" lon="6.48385">
        <ele>521.055</ele>
        <time>2015-10-02T12:38:43Z</time>
      </trkpt>
      <trkpt lat="47.35301" lon="6.48381">
        <ele>519.799</ele>
        <time>2015-10-02T12:38:44Z</time>
      </trkpt>
      <trkpt lat="47.35301" lon="6.48377">
        <ele>520.32</ele>
        <time>2015-10-02T12:38:45Z</time>
      </trkpt>
      <trkpt lat="47.353" lon="6.48373">
        <ele>521.016</ele>
        <time>2015-10-02T12:38:46Z</time>
      </trkpt>
      <trkpt lat="47.353" lon="6.48369">
        <ele>521.044</ele>
        <time>2015-10-02T12:38:47Z</time>
      </trkpt>
      <trkpt lat="47.35299" lon="6.48365">
        <ele>521.214</ele>
        <time>2015-10-02T12:38:48Z</time>
      </trkpt>
      <trkpt lat="47.35298" lon="6.48361">
        <ele>521.071</ele>
        <time>2015-10-02T12:38:49Z</time>
      </trkpt>
      <trkpt lat="47.35297" lon="6.48357">
        <ele>522.366</ele>
        <time>2015-10-02T12:38:50Z</time>
      </trkpt>
      <trkpt lat="47.35296" lon="6.48354">
        <ele>522.956</ele>
        <time>2015-10-02T12:38:51Z</time>
      </trkpt>
      <trkpt lat="47.35295" lon="6.4835">
        <ele>522.462</ele>
        <time>2015-10-02T12:38:52Z</time>
      </trkpt>
      <trkpt lat="47.35294" lon="6.48346">
        <ele>522.646</ele>
        <time>2015-10-02T12:38:53Z</time>
      </trkpt>
      <trkpt lat="47.35293" lon="6.48343">
        <ele>523.532</ele>
        <time>2015-10-02T12:38:54Z</time>
      </trkpt>
      <trkpt lat="47.35291" lon="6.48339">
        <ele>523.405</ele>
        <time>2015-10-02T12:38:55Z</time>
      </trkpt>
      <trkpt lat="47.3529" lon="6.48335">
        <ele>521.56</ele>
        <time>2015-10-02T12:38:56Z</time>
      </trkpt>
      <trkpt lat="47.35289" lon="6.48331">
        <ele>521.176</ele>
        <time>2015-10-02T12:38:57Z</time>
      </trkpt>
      <trkpt lat="47.35287" lon="6.48327">
        <ele>520.871</ele>
        <time>2015-10-02T12:38:58Z</time>
      </trkpt>
      <trkpt lat="47.35286" lon="6.48323">
        <ele>520.455</ele>
        <time>2015-10-02T12:38:59Z</time>
      </trkpt>
      <trkpt lat="47.35285" lon="6.4832">
        <ele>520.657</ele>
        <time>2015-10-02T12:39:00Z</time>
      </trkpt>
      <trkpt lat="47.35284" lon="6.48316">
        <ele>520.423</ele>
        <time>2015-10-02T12:39:01Z</time>
      </trkpt>
      <trkpt lat="47.35283" lon="6.48312">
        <ele>521.295</ele>
        <time>2015-10-02T12:39:02Z</time>
      </trkpt>
      <trkpt lat="47.35282" lon="6.48308">
        <ele>520.344</ele>
        <time>2015-10-02T12:39:03Z</time>
      </trkpt>
      <trkpt lat="47.35281" lon="6.48304">
        <ele>520.902</ele>
        <time>2015-10-02T12:39:04Z</time>
      </trkpt>
      <trkpt lat="47.3528" lon="6.48301">
        <ele>520.905</ele>
        <time>2015-10-02T12:39:05Z</time>
      </trkpt>
      <trkpt lat="47.3528" lon="6.48297">
        <ele>520.919</ele>
        <time>2015-10-02T12:39:06Z</time>
      </trkpt>
      <trkpt lat="47.35279" lon="6.48294">
        <ele>521.135</ele>
        <time>2015-10-02T12:39:07Z</time>
      </trkpt>
      <trkpt lat="47.35278" lon="6.4829">
        <ele>521.587</ele>
        <time>2015-10-02T12:39:08Z</time>
      </trkpt>
      <trkpt lat="47.35277" lon="6.48286">
        <ele>520.704</ele>
        <time>2015-10-02T12:39:09Z</time>
      </trkpt>
      <trkpt lat="47.35277" lon="6.48282">
        <ele>520.595</ele>
        <time>2015-10-02T12:39:10Z</time>
      </trkpt>
      <trkpt lat="47.35276" lon="6.48277">
        <ele>520.882</ele>
        <time>2015-10-02T12:39:11Z</time>
      </trkpt>
      <trkpt lat="47.35276" lon="6.48273">
        <ele>520.381</ele>
        <time>2015-10-02T12:39:12Z</time>
      </trkpt>
      <trkpt lat="47.35275" lon="6.48269">
        <ele>520.077</ele>
        <time>2015-10-02T12:39:13Z</time>
      </trkpt>
      <trkpt lat="47.35275" lon="6.48265">
        <ele>520.339</ele>
        <time>2015-10-02T12:39:14Z</time>
      </trkpt>
      <trkpt lat="47.35274" lon="6.48261">
        <ele>519.213</ele>
        <time>2015-10-02T12:39:15Z</time>
      </trkpt>
      <trkpt lat="47.35273" lon="6.48257">
        <ele>519.171</ele>
        <time>2015-10-02T12:39:16Z</time>
      </trkpt>
      <trkpt lat="47.35273" lon="6.48253">
        <ele>519.1</ele>
        <time>2015-10-02T12:39:17Z</time>
      </trkpt>
      <trkpt lat="47.35273" lon="6.48249">
        <ele>519.625</ele>
        <time>2015-10-02T12:39:18Z</time>
      </trkpt>
      <trkpt lat="47.35273" lon="6.48244">
        <ele>519.504</ele>
        <time>2015-10-02T12:39:19Z</time>
      </trkpt>
      <trkpt lat="47.35272" lon="6.48239">
        <ele>519.667</ele>
        <time>2015-10-02T12:39:20Z</time>
      </trkpt>
      <trkpt lat="47.35272" lon="6.48235">
        <ele>521.541</ele>
        <time>2015-10-02T12:39:21Z</time>
      </trkpt>
      <trkpt lat="47.35272" lon="6.48231">
        <ele>522.182</ele>
        <time>2015-10-02T12:39:22Z</time>
      </trkpt>
      <trkpt lat="47.35271" lon="6.48227">
        <ele>522.776</ele>
        <time>2015-10-02T12:39:23Z</time>
      </trkpt>
      <trkpt lat="47.35271" lon="6.48223">
        <ele>522.755</ele>
        <time>2015-10-02T12:39:24Z</time>
      </trkpt>
      <trkpt lat="47.3527" lon="6.48219">
        <ele>523.45</ele>
        <time>2015-10-02T12:39:25Z</time>
      </trkpt>
      <trkpt lat="47.3527" lon="6.48215">
        <ele>524.786</ele>
        <time>2015-10-02T12:39:26Z</time>
      </trkpt>
      <trkpt lat="47.35269" lon="6.48211">
        <ele>525.961</ele>
        <time>2015-10-02T12:39:27Z</time>
      </trkpt>
      <trkpt lat="47.35269" lon="6.48207">
        <ele>525.632</ele>
        <time>2015-10-02T12:39:28Z</time>
      </trkpt>
      <trkpt lat="47.35269" lon="6.48202">
        <ele>526.869</ele>
        <time>2015-10-02T12:39:29Z</time>
      </trkpt>
      <trkpt lat="47.35269" lon="6.48198">
        <ele>527.754</ele>
        <time>2015-10-02T12:39:30Z</time>
      </trkpt>
      <trkpt lat="47.35268" lon="6.48195">
        <ele>528.814</ele>
        <time>2015-10-02T12:39:31Z</time>
      </trkpt>
      <trkpt lat="47.35268" lon="6.48191">
        <ele>529.331</ele>
        <time>2015-10-02T12:39:32Z</time>
      </trkpt>
      <trkpt lat="47.35268" lon="6.48187">
        <ele>529.164</ele>
        <time>2015-10-02T12:39:33Z</time>
      </trkpt>
      <trkpt lat="47.35267" lon="6.48183">
        <ele>530.137</ele>
        <time>2015-10-02T12:39:34Z</time>
      </trkpt>
      <trkpt lat="47.35266" lon="6.48179">
        <ele>530.419</ele>
        <time>2015-10-02T12:39:35Z</time>
      </trkpt>
      <trkpt lat="47.35266" lon="6.48175">
        <ele>531.536</ele>
        <time>2015-10-02T12:39:36Z</time>
      </trkpt>
      <trkpt lat="47.35265" lon="6.48171">
        <ele>531.553</ele>
        <time>2015-10-02T12:39:37Z</time>
      </trkpt>
      <trkpt lat="47.35265" lon="6.48167">
        <ele>532.705</ele>
        <time>2015-10-02T12:39:38Z</time>
      </trkpt>
      <trkpt lat="47.35264" lon="6.48162">
        <ele>533.623</ele>
        <time>2015-10-02T12:39:39Z</time>
      </trkpt>
      <trkpt lat="47.35264" lon="6.48158">
        <ele>533.146</ele>
        <time>2015-10-02T12:39:40Z</time>
      </trkpt>
      <trkpt lat="47.35263" lon="6.48154">
        <ele>532.737</ele>
        <time>2015-10-02T12:39:41Z</time>
      </trkpt>
      <trkpt lat="47.35263" lon="6.48149">
        <ele>531.453</ele>
        <time>2015-10-02T12:39:42Z</time>
      </trkpt>
      <trkpt lat="47.35262" lon="6.48145">
        <ele>532.508</ele>
        <time>2015-10-02T12:39:43Z</time>
      </trkpt>
      <trkpt lat="47.35262" lon="6.4814">
        <ele>531.402</ele>
        <time>2015-10-02T12:39:44Z</time>
      </trkpt>
      <trkpt lat="47.35262" lon="6.48136">
        <ele>531.26</ele>
        <time>2015-10-02T12:39:45Z</time>
      </trkpt>
      <trkpt lat="47.35262" lon="6.48131">
        <ele>531.311</ele>
        <time>2015-10-02T12:39:46Z</time>
      </trkpt>
      <trkpt lat="47.35261" lon="6.48126">
        <ele>530.884</ele>
        <time>2015-10-02T12:39:47Z</time>
      </trkpt>
      <trkpt lat="47.35261" lon="6.4812">
        <ele>531.247</ele>
        <time>2015-10-02T12:39:48Z</time>
      </trkpt>
      <trkpt lat="47.3526" lon="6.48115">
        <ele>532.479</ele>
        <time>2015-10-02T12:39:49Z</time>
      </trkpt>
      <trkpt lat="47.3526" lon="6.48109">
        <ele>532.153</ele>
        <time>2015-10-02T12:39:50Z</time>
      </trkpt>
      <trkpt lat="47.35259" lon="6.48103">
        <ele>531.217</ele>
        <time>2015-10-02T12:39:51Z</time>
      </trkpt>
      <trkpt lat="47.35258" lon="6.48097">
        <ele>531.421</ele>
        <time>2015-10-02T12:39:52Z</time>
      </trkpt>
      <trkpt lat="47.35257" lon="6.48092">
        <ele>531.458</ele>
        <time>2015-10-02T12:39:53Z</time>
      </trkpt>
      <trkpt lat="47.35256" lon="6.48086">
        <ele>530.962</ele>
        <time>2015-10-02T12:39:54Z</time>
      </trkpt>
      <trkpt lat="47.35255" lon="6.48081">
        <ele>532.195</ele>
        <time>2015-10-02T12:39:55Z</time>
      </trkpt>
      <trkpt lat="47.35255" lon="6.48076">
        <ele>531.439</ele>
        <time>2015-10-02T12:39:56Z</time>
      </trkpt>
      <trkpt lat="47.35254" lon="6.48071">
        <ele>531.174</ele>
        <time>2015-10-02T12:39:57Z</time>
      </trkpt>
      <trkpt lat="47.35254" lon="6.48065">
        <ele>531.109</ele>
        <time>2015-10-02T12:39:58Z</time>
      </trkpt>
      <trkpt lat="47.35253" lon="6.4806">
        <ele>530.786</ele>
        <time>2015-10-02T12:39:59Z</time>
      </trkpt>
      <trkpt lat="47.35253" lon="6.48055">
        <ele>530.642</ele>
        <time>2015-10-02T12:40:00Z</time>
      </trkpt>
      <trkpt lat="47.35252" lon="6.4805">
        <ele>529.027</ele>
        <time>2015-10-02T12:40:01Z</time>
      </trkpt>
      <trkpt lat="47.35252" lon="6.48045">
        <ele>529.022</ele>
        <time>2015-10-02T12:40:02Z</time>
      </trkpt>
      <trkpt lat="47.35252" lon="6.4804">
        <ele>529.511</ele>
        <time>2015-10-02T12:40:03Z</time>
      </trkpt>
      <trkpt lat="47.35251" lon="6.48034">
        <ele>529.471</ele>
        <time>2015-10-02T12:40:04Z</time>
      </trkpt>
      <trkpt lat="47.35251" lon="6.48029">
        <ele>530.424</ele>
        <time>2015-10-02T12:40:05Z</time>
      </trkpt>
      <trkpt lat="47.3525" lon="6.48024">
        <ele>530.62</ele>
        <time>2015-10-02T12:40:06Z</time>
      </trkpt>
      <trkpt lat="47.3525" lon="6.48019">
        <ele>531.274</ele>
        <time>2015-10-02T12:40:07Z</time>
      </trkpt>
      <trkpt lat="47.3525" lon="6.48014">
        <ele>531.145</ele>
        <time>2015-10-02T12:40:08Z</time>
      </trkpt>
      <trkpt lat="47.35249" lon="6.48009">
        <ele>533.496</ele>
        <time>2015-10-02T12:40:09Z</time>
      </trkpt>
      <trkpt lat="47.35249" lon="6.48005">
        <ele>533.172</ele>
        <time>2015-10-02T12:40:10Z</time>
      </trkpt>
      <trkpt lat="47.35249" lon="6.48">
        <ele>532.945</ele>
        <time>2015-10-02T12:40:11Z</time>
      </trkpt>
      <trkpt lat="47.35249" lon="6.47994">
        <ele>533.075</ele>
        <time>2015-10-02T12:40:12Z</time>
      </trkpt>
      <trkpt lat="47.35249" lon="6.47988">
        <ele>533.413</ele>
        <time>2015-10-02T12:40:13Z</time>
      </trkpt>
      <trkpt lat="47.35248" lon="6.47983">
        <ele>534.158</ele>
        <time>2015-10-02T12:40:14Z</time>
      </trkpt>
      <trkpt lat="47.35248" lon="6.47977">
        <ele>534.613</ele>
        <time>2015-10-02T12:40:15Z</time>
      </trkpt>
      <trkpt lat="47.35247" lon="6.47971">
        <ele>533.906</ele>
        <time>2015-10-02T12:40:16Z</time>
      </trkpt>
      <trkpt lat="47.35247" lon="6.47966">
        <ele>533.397</ele>
        <time>2015-10-02T12:40:17Z</time>
      </trkpt>
      <trkpt lat="47.35246" lon="6.4796">
        <ele>533.981</ele>
        <time>2015-10-02T12:40:18Z</time>
      </trkpt>
      <trkpt lat="47.35246" lon="6.47955">
        <ele>534.987</ele>
        <time>2015-10-02T12:40:19Z</time>
      </trkpt>
      <trkpt lat="47.35246" lon="6.47949">
        <ele>532.873</ele>
        <time>2015-10-02T12:40:20Z</time>
      </trkpt>
      <trkpt lat="47.35245" lon="6.47944">
        <ele>532.578</ele>
        <time>2015-10-02T12:40:21Z</time>
      </trkpt>
      <trkpt lat="47.35244" lon="6.47939">
        <ele>531.942</ele>
        <time>2015-10-02T12:40:22Z</time>
      </trkpt>
      <trkpt lat="47.35243" lon="6.47934">
        <ele>532.034</ele>
        <time>2015-10-02T12:40:23Z</time>
      </trkpt>
      <trkpt lat="47.35243" lon="6.47929">
        <ele>531.565</ele>
        <time>2015-10-02T12:40:24Z</time>
      </trkpt>
      <trkpt lat="47.35242" lon="6.47925">
        <ele>531.429</ele>
        <time>2015-10-02T12:40:25Z</time>
      </trkpt>
      <trkpt lat="47.35242" lon="6.47921">
        <ele>531.425</ele>
        <time>2015-10-02T12:40:26Z</time>
      </trkpt>
      <trkpt lat="47.35241" lon="6.47918">
        <ele>530.888</ele>
        <time>2015-10-02T12:40:27Z</time>
      </trkpt>
      <trkpt lat="47.35241" lon="6.47914">
        <ele>530.124</ele>
        <time>2015-10-02T12:40:28Z</time>
      </trkpt>
      <trkpt lat="47.35241" lon="6.47911">
        <ele>530.151</ele>
        <time>2015-10-02T12:40:29Z</time>
      </trkpt>
      <trkpt lat="47.3524" lon="6.47907">
        <ele>530.402</ele>
        <time>2015-10-02T12:40:30Z</time>
      </trkpt>
      <trkpt lat="47.3524" lon="6.47903">
        <ele>529.985</ele>
        <time>2015-10-02T12:40:31Z</time>
      </trkpt>
      <trkpt lat="47.3524" lon="6.47898">
        <ele>529.758</ele>
        <time>2015-10-02T12:40:32Z</time>
      </trkpt>
      <trkpt lat="47.3524" lon="6.47894">
        <ele>530.079</ele>
        <time>2015-10-02T12:40:33Z</time>
      </trkpt>
      <trkpt lat="47.35239" lon="6.4789">
        <ele>530.633</ele>
        <time>2015-10-02T12:40:34Z</time>
      </trkpt>
      <trkpt lat="47.35239" lon="6.47886">
        <ele>530.602</ele>
        <time>2015-10-02T12:40:35Z</time>
      </trkpt>
      <trkpt lat="47.35239" lon="6.47881">
        <ele>530.23</ele>
        <time>2015-10-02T12:40:36Z</time>
      </trkpt>
      <trkpt lat="47.35239" lon="6.47877">
        <ele>530.737</ele>
        <time>2015-10-02T12:40:37Z</time>
      </trkpt>
      <trkpt lat="47.35238" lon="6.47872">
        <ele>531.753</ele>
        <time>2015-10-02T12:40:38Z</time>
      </trkpt>
      <trkpt lat="47.35238" lon="6.47868">
        <ele>531.649</ele>
        <time>2015-10-02T12:40:39Z</time>
      </trkpt>
      <trkpt lat="47.35237" lon="6.47864">
        <ele>531.7</ele>
        <time>2015-10-02T12:40:40Z</time>
      </trkpt>
      <trkpt lat="47.35237" lon="6.47859">
        <ele>531.956</ele>
        <time>2015-10-02T12:40:41Z</time>
      </trkpt>
      <trkpt lat="47.35236" lon="6.47855">
        <ele>531.778</ele>
        <time>2015-10-02T12:40:42Z</time>
      </trkpt>
      <trkpt lat="47.35236" lon="6.47851">
        <ele>531.859</ele>
        <time>2015-10-02T12:40:43Z</time>
      </trkpt>
      <trkpt lat="47.35235" lon="6.47847">
        <ele>531.674</ele>
        <time>2015-10-02T12:40:44Z</time>
      </trkpt>
      <trkpt lat="47.35235" lon="6.47843">
        <ele>532.244</ele>
        <time>2015-10-02T12:40:45Z</time>
      </trkpt>
      <trkpt lat="47.35234" lon="6.47839">
        <ele>532.271</ele>
        <time>2015-10-02T12:40:46Z</time>
      </trkpt>
      <trkpt lat="47.35234" lon="6.47835">
        <ele>532.126</ele>
        <time>2015-10-02T12:40:47Z</time>
      </trkpt>
      <trkpt lat="47.35234" lon="6.4783">
        <ele>532.848</ele>
        <time>2015-10-02T12:40:48Z</time>
      </trkpt>
      <trkpt lat="47.35234" lon="6.47826">
        <ele>533.495</ele>
        <time>2015-10-02T12:40:49Z</time>
      </trkpt>
      <trkpt lat="47.35234" lon="6.47822">
        <ele>534.207</ele>
        <time>2015-10-02T12:40:50Z</time>
      </trkpt>
      <trkpt lat="47.35234" lon="6.47818">
        <ele>533.557</ele>
        <time>2015-10-02T12:40:51Z</time>
      </trkpt>
      <trkpt lat="47.35234" lon="6.47815">
        <ele>533.507</ele>
        <time>2015-10-02T12:40:52Z</time>
      </trkpt>
      <trkpt lat="47.35234" lon="6.47811">
        <ele>533.488</ele>
        <time>2015-10-02T12:40:53Z</time>
      </trkpt>
      <trkpt lat="47.35234" lon="6.47807">
        <ele>533.733</ele>
        <time>2015-10-02T12:40:54Z</time>
      </trkpt>
      <trkpt lat="47.35235" lon="6.47803">
        <ele>533.343</ele>
        <time>2015-10-02T12:40:55Z</time>
      </trkpt>
      <trkpt lat="47.35235" lon="6.47799">
        <ele>533.305</ele>
        <time>2015-10-02T12:40:56Z</time>
      </trkpt>
      <trkpt lat="47.35235" lon="6.47794">
        <ele>532.85</ele>
        <time>2015-10-02T12:40:57Z</time>
      </trkpt>
      <trkpt lat="47.35236" lon="6.4779">
        <ele>532.794</ele>
        <time>2015-10-02T12:40:58Z</time>
      </trkpt>
      <trkpt lat="47.35236" lon="6.47785">
        <ele>532.815</ele>
        <time>2015-10-02T12:40:59Z</time>
      </trkpt>
      <trkpt lat="47.35236" lon="6.47781">
        <ele>533.535</ele>
        <time>2015-10-02T12:41:00Z</time>
      </trkpt>
      <trkpt lat="47.35236" lon="6.47776">
        <ele>533.288</ele>
        <time>2015-10-02T12:41:01Z</time>
      </trkpt>
      <trkpt lat="47.35236" lon="6.47772">
        <ele>533.498</ele>
        <time>2015-10-02T12:41:02Z</time>
      </trkpt>
      <trkpt lat="47.35236" lon="6.47767">
        <ele>533.522</ele>
        <time>2015-10-02T12:41:03Z</time>
      </trkpt>
      <trkpt lat="47.35237" lon="6.47763">
        <ele>534.642</ele>
        <time>2015-10-02T12:41:04Z</time>
      </trkpt>
      <trkpt lat="47.35237" lon="6.47759">
        <ele>535.166</ele>
        <time>2015-10-02T12:41:05Z</time>
      </trkpt>
      <trkpt lat="47.35238" lon="6.47755">
        <ele>536.718</ele>
        <time>2015-10-02T12:41:06Z</time>
      </trkpt>
      <trkpt lat="47.35238" lon="6.47751">
        <ele>537.011</ele>
        <time>2015-10-02T12:41:07Z</time>
      </trkpt>
      <trkpt lat="47.35238" lon="6.47747">
        <ele>536.693</ele>
        <time>2015-10-02T12:41:08Z</time>
      </trkpt>
      <trkpt lat="47.35238" lon="6.47742">
        <ele>537.379</ele>
        <time>2015-10-02T12:41:09Z</time>
      </trkpt>
      <trkpt lat="47.35239" lon="6.47738">
        <ele>536.921</ele>
        <time>2015-10-02T12:41:10Z</time>
      </trkpt>
      <trkpt lat="47.35239" lon="6.47733">
        <ele>536.564</ele>
        <time>2015-10-02T12:41:11Z</time>
      </trkpt>
      <trkpt lat="47.35239" lon="6.47729">
        <ele>536.106</ele>
        <time>2015-10-02T12:41:12Z</time>
      </trkpt>
      <trkpt lat="47.35239" lon="6.47725">
        <ele>536.406</ele>
        <time>2015-10-02T12:41:13Z</time>
      </trkpt>
      <trkpt lat="47.35239" lon="6.4772">
        <ele>537.781</ele>
        <time>2015-10-02T12:41:14Z</time>
      </trkpt>
      <trkpt lat="47.35238" lon="6.47717">
        <ele>537.927</ele>
        <time>2015-10-02T12:41:15Z</time>
      </trkpt>
      <trkpt lat="47.35238" lon="6.47713">
        <ele>538.652</ele>
        <time>2015-10-02T12:41:16Z</time>
      </trkpt>
      <trkpt lat="47.35238" lon="6.47709">
        <ele>538.691</ele>
        <time>2015-10-02T12:41:17Z</time>
      </trkpt>
      <trkpt lat="47.35238" lon="6.47705">
        <ele>539.833</ele>
        <time>2015-10-02T12:41:18Z</time>
      </trkpt>
      <trkpt lat="47.35238" lon="6.47702">
        <ele>540.573</ele>
        <time>2015-10-02T12:41:19Z</time>
      </trkpt>
      <trkpt lat="47.35238" lon="6.47699">
        <ele>540.986</ele>
        <time>2015-10-02T12:41:20Z</time>
      </trkpt>
      <trkpt lat="47.35238" lon="6.47696">
        <ele>540.864</ele>
        <time>2015-10-02T12:41:21Z</time>
      </trkpt>
      <trkpt lat="47.35238" lon="6.47693">
        <ele>540.444</ele>
        <time>2015-10-02T12:41:22Z</time>
      </trkpt>
      <trkpt lat="47.35239" lon="6.4769">
        <ele>540.427</ele>
        <time>2015-10-02T12:41:23Z</time>
      </trkpt>
      <trkpt lat="47.35239" lon="6.47687">
        <ele>540.989</ele>
        <time>2015-10-02T12:41:24Z</time>
      </trkpt>
      <trkpt lat="47.35239" lon="6.47682">
        <ele>540.744</ele>
        <time>2015-10-02T12:41:25Z</time>
      </trkpt>
      <trkpt lat="47.35239" lon="6.47678">
        <ele>540.884</ele>
        <time>2015-10-02T12:41:26Z</time>
      </trkpt>
      <trkpt lat="47.35239" lon="6.47674">
        <ele>540.859</ele>
        <time>2015-10-02T12:41:27Z</time>
      </trkpt>
      <trkpt lat="47.35239" lon="6.47669">
        <ele>541.375</ele>
        <time>2015-10-02T12:41:28Z</time>
      </trkpt>
      <trkpt lat="47.3524" lon="6.47665">
        <ele>541.428</ele>
        <time>2015-10-02T12:41:29Z</time>
      </trkpt>
      <trkpt lat="47.3524" lon="6.47661">
        <ele>541.738</ele>
        <time>2015-10-02T12:41:30Z</time>
      </trkpt>
      <trkpt lat="47.3524" lon="6.47656">
        <ele>541.72</ele>
        <time>2015-10-02T12:41:31Z</time>
      </trkpt>
      <trkpt lat="47.35241" lon="6.47651">
        <ele>541.414</ele>
        <time>2015-10-02T12:41:32Z</time>
      </trkpt>
      <trkpt lat="47.35241" lon="6.47646">
        <ele>541.345</ele>
        <time>2015-10-02T12:41:33Z</time>
      </trkpt>
      <trkpt lat="47.35241" lon="6.4764">
        <ele>540.495</ele>
        <time>2015-10-02T12:41:34Z</time>
      </trkpt>
      <trkpt lat="47.35242" lon="6.47634">
        <ele>540.317</ele>
        <time>2015-10-02T12:41:35Z</time>
      </trkpt>
      <trkpt lat="47.35242" lon="6.47628">
        <ele>540.53</ele>
        <time>2015-10-02T12:41:36Z</time>
      </trkpt>
      <trkpt lat="47.35242" lon="6.47621">
        <ele>540.401</ele>
        <time>2015-10-02T12:41:37Z</time>
      </trkpt>
      <trkpt lat="47.35242" lon="6.47615">
        <ele>539.998</ele>
        <time>2015-10-02T12:41:38Z</time>
      </trkpt>
      <trkpt lat="47.35242" lon="6.47609">
        <ele>539.939</ele>
        <time>2015-10-02T12:41:39Z</time>
      </trkpt>
      <trkpt lat="47.35241" lon="6.47602">
        <ele>540.172</ele>
        <time>2015-10-02T12:41:40Z</time>
      </trkpt>
      <trkpt lat="47.35241" lon="6.47594">
        <ele>540.851</ele>
        <time>2015-10-02T12:41:41Z</time>
      </trkpt>
      <trkpt lat="47.35242" lon="6.47587">
        <ele>540.825</ele>
        <time>2015-10-02T12:41:42Z</time>
      </trkpt>
      <trkpt lat="47.35242" lon="6.47579">
        <ele>541.171</ele>
        <time>2015-10-02T12:41:43Z</time>
      </trkpt>
      <trkpt lat="47.35242" lon="6.47572">
        <ele>540.635</ele>
        <time>2015-10-02T12:41:44Z</time>
      </trkpt>
      <trkpt lat="47.35241" lon="6.47564">
        <ele>540.536</ele>
        <time>2015-10-02T12:41:45Z</time>
      </trkpt>
      <trkpt lat="47.35241" lon="6.47557">
        <ele>540.898</ele>
        <time>2015-10-02T12:41:46Z</time>
      </trkpt>
      <trkpt lat="47.35241" lon="6.4755">
        <ele>540.587</ele>
        <time>2015-10-02T12:41:47Z</time>
      </trkpt>
      <trkpt lat="47.35241" lon="6.47543">
        <ele>540.11</ele>
        <time>2015-10-02T12:41:48Z</time>
      </trkpt>
      <trkpt lat="47.35241" lon="6.47535">
        <ele>539.834</ele>
        <time>2015-10-02T12:41:49Z</time>
      </trkpt>
      <trkpt lat="47.3524" lon="6.47527">
        <ele>538.828</ele>
        <time>2015-10-02T12:41:50Z</time>
      </trkpt>
      <trkpt lat="47.3524" lon="6.47519">
        <ele>538.451</ele>
        <time>2015-10-02T12:41:51Z</time>
      </trkpt>
      <trkpt lat="47.3524" lon="6.4751">
        <ele>538.072</ele>
        <time>2015-10-02T12:41:52Z</time>
      </trkpt>
      <trkpt lat="47.35239" lon="6.47502">
        <ele>537.464</ele>
        <time>2015-10-02T12:41:53Z</time>
      </trkpt>
      <trkpt lat="47.35239" lon="6.47494">
        <ele>537.568</ele>
        <time>2015-10-02T12:41:54Z</time>
      </trkpt>
      <trkpt lat="47.35238" lon="6.47486">
        <ele>537.243</ele>
        <time>2015-10-02T12:41:55Z</time>
      </trkpt>
      <trkpt lat="47.35237" lon="6.47477">
        <ele>537.157</ele>
        <time>2015-10-02T12:41:56Z</time>
      </trkpt>
      <trkpt lat="47.35236" lon="6.4747">
        <ele>536.763</ele>
        <time>2015-10-02T12:41:57Z</time>
      </trkpt>
      <trkpt lat="47.35236" lon="6.47461">
        <ele>536.504</ele>
        <time>2015-10-02T12:41:58Z</time>
      </trkpt>
      <trkpt lat="47.35235" lon="6.47453">
        <ele>536.154</ele>
        <time>2015-10-02T12:41:59Z</time>
      </trkpt>
      <trkpt lat="47.35234" lon="6.47446">
        <ele>536.451</ele>
        <time>2015-10-02T12:42:00Z</time>
      </trkpt>
      <trkpt lat="47.35233" lon="6.47438">
        <ele>535.723</ele>
        <time>2015-10-02T12:42:01Z</time>
      </trkpt>
      <trkpt lat="47.35232" lon="6.4743">
        <ele>535.506</ele>
        <time>2015-10-02T12:42:02Z</time>
      </trkpt>
      <trkpt lat="47.35231" lon="6.47422">
        <ele>534.863</ele>
        <time>2015-10-02T12:42:03Z</time>
      </trkpt>
      <trkpt lat="47.3523" lon="6.47414">
        <ele>534.46</ele>
        <time>2015-10-02T12:42:04Z</time>
      </trkpt>
      <trkpt lat="47.35228" lon="6.47407">
        <ele>534.58</ele>
        <time>2015-10-02T12:42:05Z</time>
      </trkpt>
      <trkpt lat="47.35227" lon="6.47399">
        <ele>534.868</ele>
        <time>2015-10-02T12:42:06Z</time>
      </trkpt>
      <trkpt lat="47.35226" lon="6.47391">
        <ele>534.721</ele>
        <time>2015-10-02T12:42:07Z</time>
      </trkpt>
      <trkpt lat="47.35225" lon="6.47383">
        <ele>534.562</ele>
        <time>2015-10-02T12:42:08Z</time>
      </trkpt>
      <trkpt lat="47.35224" lon="6.47376">
        <ele>534.823</ele>
        <time>2015-10-02T12:42:09Z</time>
      </trkpt>
      <trkpt lat="47.35222" lon="6.47369">
        <ele>534.491</ele>
        <time>2015-10-02T12:42:10Z</time>
      </trkpt>
      <trkpt lat="47.35221" lon="6.47362">
        <ele>534.347</ele>
        <time>2015-10-02T12:42:11Z</time>
      </trkpt>
      <trkpt lat="47.3522" lon="6.47356">
        <ele>534.03</ele>
        <time>2015-10-02T12:42:12Z</time>
      </trkpt>
      <trkpt lat="47.35218" lon="6.47349">
        <ele>533.811</ele>
        <time>2015-10-02T12:42:13Z</time>
      </trkpt>
      <trkpt lat="47.35217" lon="6.47343">
        <ele>533.53</ele>
        <time>2015-10-02T12:42:14Z</time>
      </trkpt>
      <trkpt lat="47.35215" lon="6.47336">
        <ele>533.61</ele>
        <time>2015-10-02T12:42:15Z</time>
      </trkpt>
      <trkpt lat="47.35214" lon="6.4733">
        <ele>533.36</ele>
        <time>2015-10-02T12:42:16Z</time>
      </trkpt>
      <trkpt lat="47.35213" lon="6.47322">
        <ele>533.554</ele>
        <time>2015-10-02T12:42:17Z</time>
      </trkpt>
      <trkpt lat="47.35212" lon="6.47316">
        <ele>533.519</ele>
        <time>2015-10-02T12:42:18Z</time>
      </trkpt>
      <trkpt lat="47.35211" lon="6.47309">
        <ele>533.368</ele>
        <time>2015-10-02T12:42:19Z</time>
      </trkpt>
      <trkpt lat="47.3521" lon="6.47303">
        <ele>533.688</ele>
        <time>2015-10-02T12:42:20Z</time>
      </trkpt>
      <trkpt lat="47.35209" lon="6.47296">
        <ele>533.633</ele>
        <time>2015-10-02T12:42:21Z</time>
      </trkpt>
      <trkpt lat="47.35209" lon="6.4729">
        <ele>533.633</ele>
        <time>2015-10-02T12:42:22Z</time>
      </trkpt>
      <trkpt lat="47.35209" lon="6.47284">
        <ele>533.621</ele>
        <time>2015-10-02T12:42:23Z</time>
      </trkpt>
      <trkpt lat="47.35208" lon="6.47278">
        <ele>533.42</ele>
        <time>2015-10-02T12:42:24Z</time>
      </trkpt>
      <trkpt lat="47.35208" lon="6.47271">
        <ele>532.922</ele>
        <time>2015-10-02T12:42:25Z</time>
      </trkpt>
      <trkpt lat="47.35208" lon="6.47264">
        <ele>532.001</ele>
        <time>2015-10-02T12:42:26Z</time>
      </trkpt>
      <trkpt lat="47.35208" lon="6.47258">
        <ele>532.074</ele>
        <time>2015-10-02T12:42:27Z</time>
      </trkpt>
      <trkpt lat="47.35207" lon="6.47251">
        <ele>531.579</ele>
        <time>2015-10-02T12:42:28Z</time>
      </trkpt>
      <trkpt lat="47.35208" lon="6.47244">
        <ele>531.951</ele>
        <time>2015-10-02T12:42:29Z</time>
      </trkpt>
      <trkpt lat="47.35208" lon="6.47235">
        <ele>531.313</ele>
        <time>2015-10-02T12:42:30Z</time>
      </trkpt>
      <trkpt lat="47.35208" lon="6.47227">
        <ele>531.027</ele>
        <time>2015-10-02T12:42:31Z</time>
      </trkpt>
      <trkpt lat="47.35209" lon="6.47219">
        <ele>531.059</ele>
        <time>2015-10-02T12:42:32Z</time>
      </trkpt>
      <trkpt lat="47.35211" lon="6.4721">
        <ele>530.131</ele>
        <time>2015-10-02T12:42:33Z</time>
      </trkpt>
      <trkpt lat="47.35212" lon="6.47203">
        <ele>530.669</ele>
        <time>2015-10-02T12:42:34Z</time>
      </trkpt>
      <trkpt lat="47.35213" lon="6.47196">
        <ele>530.94</ele>
        <time>2015-10-02T12:42:35Z</time>
      </trkpt>
      <trkpt lat="47.35212" lon="6.47189">
        <ele>531.547</ele>
        <time>2015-10-02T12:42:36Z</time>
      </trkpt>
      <trkpt lat="47.35212" lon="6.47181">
        <ele>531.251</ele>
        <time>2015-10-02T12:42:37Z</time>
      </trkpt>
      <trkpt lat="47.35213" lon="6.47175">
        <ele>532.363</ele>
        <time>2015-10-02T12:42:38Z</time>
      </trkpt>
      <trkpt lat="47.35215" lon="6.47169">
        <ele>532.185</ele>
        <time>2015-10-02T12:42:39Z</time>
      </trkpt>
      <trkpt lat="47.35216" lon="6.47163">
        <ele>531.941</ele>
        <time>2015-10-02T12:42:40Z</time>
      </trkpt>
      <trkpt lat="47.35217" lon="6.47157">
        <ele>531.886</ele>
        <time>2015-10-02T12:42:41Z</time>
      </trkpt>
      <trkpt lat="47.35218" lon="6.47152">
        <ele>532.668</ele>
        <time>2015-10-02T12:42:42Z</time>
      </trkpt>
      <trkpt lat="47.35219" lon="6.47146">
        <ele>532.609</ele>
        <time>2015-10-02T12:42:43Z</time>
      </trkpt>
      <trkpt lat="47.3522" lon="6.4714">
        <ele>533.309</ele>
        <time>2015-10-02T12:42:44Z</time>
      </trkpt>
      <trkpt lat="47.35222" lon="6.47135">
        <ele>533.086</ele>
        <time>2015-10-02T12:42:45Z</time>
      </trkpt>
      <trkpt lat="47.35223" lon="6.47129">
        <ele>533.547</ele>
        <time>2015-10-02T12:42:46Z</time>
      </trkpt>
      <trkpt lat="47.35224" lon="6.47124">
        <ele>533.767</ele>
        <time>2015-10-02T12:42:47Z</time>
      </trkpt>
      <trkpt lat="47.35225" lon="6.47119">
        <ele>533.921</ele>
        <time>2015-10-02T12:42:48Z</time>
      </trkpt>
      <trkpt lat="47.35227" lon="6.47114">
        <ele>534.169</ele>
        <time>2015-10-02T12:42:49Z</time>
      </trkpt>
      <trkpt lat="47.35228" lon="6.47109">
        <ele>535.211</ele>
        <time>2015-10-02T12:42:50Z</time>
      </trkpt>
      <trkpt lat="47.3523" lon="6.47104">
        <ele>535.374</ele>
        <time>2015-10-02T12:42:51Z</time>
      </trkpt>
      <trkpt lat="47.35231" lon="6.47098">
        <ele>536.195</ele>
        <time>2015-10-02T12:42:52Z</time>
      </trkpt>
      <trkpt lat="47.35232" lon="6.47093">
        <ele>536.936</ele>
        <time>2015-10-02T12:42:53Z</time>
      </trkpt>
      <trkpt lat="47.35233" lon="6.47087">
        <ele>538.108</ele>
        <time>2015-10-02T12:42:54Z</time>
      </trkpt>
      <trkpt lat="47.35234" lon="6.47081">
        <ele>539.194</ele>
        <time>2015-10-02T12:42:55Z</time>
      </trkpt>
      <trkpt lat="47.35234" lon="6.47075">
        <ele>538.514</ele>
        <time>2015-10-02T12:42:56Z</time>
      </trkpt>
      <trkpt lat="47.35234" lon="6.47069">
        <ele>538.59</ele>
        <time>2015-10-02T12:42:57Z</time>
      </trkpt>
      <trkpt lat="47.35234" lon="6.47064">
        <ele>539.164</ele>
        <time>2015-10-02T12:42:58Z</time>
      </trkpt>
      <trkpt lat="47.35234" lon="6.47059">
        <ele>539.106</ele>
        <time>2015-10-02T12:42:59Z</time>
      </trkpt>
      <trkpt lat="47.35234" lon="6.47053">
        <ele>539.372</ele>
        <time>2015-10-02T12:43:00Z</time>
      </trkpt>
      <trkpt lat="47.35233" lon="6.47048">
        <ele>540.239</ele>
        <time>2015-10-02T12:43:01Z</time>
      </trkpt>
      <trkpt lat="47.35233" lon="6.47043">
        <ele>540.941</ele>
        <time>2015-10-02T12:43:02Z</time>
      </trkpt>
      <trkpt lat="47.35232" lon="6.47039">
        <ele>541.515</ele>
        <time>2015-10-02T12:43:03Z</time>
      </trkpt>
      <trkpt lat="47.35231" lon="6.47034">
        <ele>540.926</ele>
        <time>2015-10-02T12:43:04Z</time>
      </trkpt>
      <trkpt lat="47.3523" lon="6.47028">
        <ele>541.157</ele>
        <time>2015-10-02T12:43:05Z</time>
      </trkpt>
      <trkpt lat="47.35229" lon="6.47022">
        <ele>541.122</ele>
        <time>2015-10-02T12:43:06Z</time>
      </trkpt>
      <trkpt lat="47.35228" lon="6.47016">
        <ele>541.149</ele>
        <time>2015-10-02T12:43:07Z</time>
      </trkpt>
      <trkpt lat="47.35228" lon="6.4701">
        <ele>541.089</ele>
        <time>2015-10-02T12:43:08Z</time>
      </trkpt>
      <trkpt lat="47.35227" lon="6.47004">
        <ele>540.744</ele>
        <time>2015-10-02T12:43:09Z</time>
      </trkpt>
      <trkpt lat="47.35227" lon="6.46999">
        <ele>540.877</ele>
        <time>2015-10-02T12:43:10Z</time>
      </trkpt>
      <trkpt lat="47.35227" lon="6.46993">
        <ele>540.971</ele>
        <time>2015-10-02T12:43:11Z</time>
      </trkpt>
      <trkpt lat="47.35226" lon="6.46987">
        <ele>540.526</ele>
        <time>2015-10-02T12:43:12Z</time>
      </trkpt>
      <trkpt lat="47.35225" lon="6.4698">
        <ele>541.312</ele>
        <time>2015-10-02T12:43:13Z</time>
      </trkpt>
      <trkpt lat="47.35225" lon="6.46973">
        <ele>541.08</ele>
        <time>2015-10-02T12:43:14Z</time>
      </trkpt>
      <trkpt lat="47.35225" lon="6.46966">
        <ele>540.878</ele>
        <time>2015-10-02T12:43:15Z</time>
      </trkpt>
      <trkpt lat="47.35226" lon="6.46957">
        <ele>540.115</ele>
        <time>2015-10-02T12:43:16Z</time>
      </trkpt>
      <trkpt lat="47.35227" lon="6.46947">
        <ele>539.669</ele>
        <time>2015-10-02T12:43:17Z</time>
      </trkpt>
      <trkpt lat="47.35229" lon="6.46938">
        <ele>539.172</ele>
        <time>2015-10-02T12:43:18Z</time>
      </trkpt>
      <trkpt lat="47.35231" lon="6.46928">
        <ele>539.011</ele>
        <time>2015-10-02T12:43:19Z</time>
      </trkpt>
      <trkpt lat="47.35232" lon="6.46918">
        <ele>539.247</ele>
        <time>2015-10-02T12:43:20Z</time>
      </trkpt>
      <trkpt lat="47.35232" lon="6.46908">
        <ele>537.414</ele>
        <time>2015-10-02T12:43:21Z</time>
      </trkpt>
      <trkpt lat="47.35233" lon="6.46898">
        <ele>535.772</ele>
        <time>2015-10-02T12:43:22Z</time>
      </trkpt>
      <trkpt lat="47.35232" lon="6.46884">
        <ele>533.033</ele>
        <time>2015-10-02T12:43:23Z</time>
      </trkpt>
      <trkpt lat="47.35234" lon="6.46873">
        <ele>533.274</ele>
        <time>2015-10-02T12:43:24Z</time>
      </trkpt>
      <trkpt lat="47.35236" lon="6.46861">
        <ele>532.412</ele>
        <time>2015-10-02T12:43:25Z</time>
      </trkpt>
      <trkpt lat="47.35238" lon="6.46849">
        <ele>531.516</ele>
        <time>2015-10-02T12:43:26Z</time>
      </trkpt>
      <trkpt lat="47.35239" lon="6.46838">
        <ele>531.923</ele>
        <time>2015-10-02T12:43:27Z</time>
      </trkpt>
      <trkpt lat="47.35242" lon="6.46827">
        <ele>532.527</ele>
        <time>2015-10-02T12:43:28Z</time>
      </trkpt>
      <trkpt lat="47.35243" lon="6.46817">
        <ele>531.952</ele>
        <time>2015-10-02T12:43:29Z</time>
      </trkpt>
      <trkpt lat="47.35245" lon="6.46807">
        <ele>531.77</ele>
        <time>2015-10-02T12:43:30Z</time>
      </trkpt>
      <trkpt lat="47.35247" lon="6.46797">
        <ele>530.992</ele>
        <time>2015-10-02T12:43:31Z</time>
      </trkpt>
      <trkpt lat="47.35249" lon="6.46789">
        <ele>530.072</ele>
        <time>2015-10-02T12:43:32Z</time>
      </trkpt>
      <trkpt lat="47.35251" lon="6.4678">
        <ele>530.14</ele>
        <time>2015-10-02T12:43:33Z</time>
      </trkpt>
      <trkpt lat="47.35255" lon="6.46768">
        <ele>528.153</ele>
        <time>2015-10-02T12:43:34Z</time>
      </trkpt>
      <trkpt lat="47.35257" lon="6.4676">
        <ele>526.957</ele>
        <time>2015-10-02T12:43:35Z</time>
      </trkpt>
      <trkpt lat="47.35259" lon="6.4675">
        <ele>526.732</ele>
        <time>2015-10-02T12:43:36Z</time>
      </trkpt>
      <trkpt lat="47.35262" lon="6.4674">
        <ele>523.586</ele>
        <time>2015-10-02T12:43:37Z</time>
      </trkpt>
      <trkpt lat="47.35264" lon="6.46733">
        <ele>524.005</ele>
        <time>2015-10-02T12:43:38Z</time>
      </trkpt>
      <trkpt lat="47.35269" lon="6.46731">
        <ele>525.692</ele>
        <time>2015-10-02T12:43:39Z</time>
      </trkpt>
      <trkpt lat="47.35273" lon="6.46725">
        <ele>527.74</ele>
        <time>2015-10-02T12:43:40Z</time>
      </trkpt>
      <trkpt lat="47.35276" lon="6.46719">
        <ele>529.05</ele>
        <time>2015-10-02T12:43:41Z</time>
      </trkpt>
      <trkpt lat="47.35279" lon="6.46713">
        <ele>528.342</ele>
        <time>2015-10-02T12:43:42Z</time>
      </trkpt>
      <trkpt lat="47.35281" lon="6.46705">
        <ele>527.914</ele>
        <time>2015-10-02T12:43:43Z</time>
      </trkpt>
      <trkpt lat="47.35284" lon="6.46699">
        <ele>528.218</ele>
        <time>2015-10-02T12:43:44Z</time>
      </trkpt>
      <trkpt lat="47.35286" lon="6.46691">
        <ele>527.684</ele>
        <time>2015-10-02T12:43:45Z</time>
      </trkpt>
      <trkpt lat="47.35288" lon="6.46686">
        <ele>527.491</ele>
        <time>2015-10-02T12:43:46Z</time>
      </trkpt>
      <trkpt lat="47.35291" lon="6.46681">
        <ele>529.228</ele>
        <time>2015-10-02T12:43:47Z</time>
      </trkpt>
      <trkpt lat="47.35293" lon="6.46677">
        <ele>529.666</ele>
        <time>2015-10-02T12:43:48Z</time>
      </trkpt>
      <trkpt lat="47.35295" lon="6.46671">
        <ele>529.558</ele>
        <time>2015-10-02T12:43:49Z</time>
      </trkpt>
      <trkpt lat="47.35296" lon="6.46666">
        <ele>530.412</ele>
        <time>2015-10-02T12:43:50Z</time>
      </trkpt>
      <trkpt lat="47.35297" lon="6.4666">
        <ele>531.049</ele>
        <time>2015-10-02T12:43:51Z</time>
      </trkpt>
      <trkpt lat="47.35297" lon="6.46654">
        <ele>530.67</ele>
        <time>2015-10-02T12:43:52Z</time>
      </trkpt>
      <trkpt lat="47.35298" lon="6.46649">
        <ele>530.661</ele>
        <time>2015-10-02T12:43:53Z</time>
      </trkpt>
      <trkpt lat="47.35297" lon="6.46645">
        <ele>531.307</ele>
        <time>2015-10-02T12:43:54Z</time>
      </trkpt>
      <trkpt lat="47.35297" lon="6.46641">
        <ele>531.001</ele>
        <time>2015-10-02T12:43:55Z</time>
      </trkpt>
      <trkpt lat="47.35296" lon="6.46635">
        <ele>530.504</ele>
        <time>2015-10-02T12:43:56Z</time>
      </trkpt>
      <trkpt lat="47.35294" lon="6.46629">
        <ele>530.234</ele>
        <time>2015-10-02T12:43:57Z</time>
      </trkpt>
      <trkpt lat="47.35294" lon="6.46624">
        <ele>530.719</ele>
        <time>2015-10-02T12:43:58Z</time>
      </trkpt>
      <trkpt lat="47.35293" lon="6.46619">
        <ele>531.562</ele>
        <time>2015-10-02T12:43:59Z</time>
      </trkpt>
      <trkpt lat="47.35293" lon="6.46614">
        <ele>530.352</ele>
        <time>2015-10-02T12:44:00Z</time>
      </trkpt>
      <trkpt lat="47.35293" lon="6.46609">
        <ele>531.715</ele>
        <time>2015-10-02T12:44:01Z</time>
      </trkpt>
      <trkpt lat="47.35292" lon="6.46605">
        <ele>532.757</ele>
        <time>2015-10-02T12:44:02Z</time>
      </trkpt>
      <trkpt lat="47.35291" lon="6.466">
        <ele>531.48</ele>
        <time>2015-10-02T12:44:03Z</time>
      </trkpt>
      <trkpt lat="47.3529" lon="6.46596">
        <ele>531.179</ele>
        <time>2015-10-02T12:44:04Z</time>
      </trkpt>
      <trkpt lat="47.35288" lon="6.46592">
        <ele>531.397</ele>
        <time>2015-10-02T12:44:05Z</time>
      </trkpt>
      <trkpt lat="47.35287" lon="6.46588">
        <ele>530.986</ele>
        <time>2015-10-02T12:44:06Z</time>
      </trkpt>
      <trkpt lat="47.35285" lon="6.46584">
        <ele>530.795</ele>
        <time>2015-10-02T12:44:07Z</time>
      </trkpt>
      <trkpt lat="47.35284" lon="6.4658">
        <ele>530.312</ele>
        <time>2015-10-02T12:44:08Z</time>
      </trkpt>
      <trkpt lat="47.35284" lon="6.46576">
        <ele>531.303</ele>
        <time>2015-10-02T12:44:09Z</time>
      </trkpt>
      <trkpt lat="47.35283" lon="6.46572">
        <ele>531.697</ele>
        <time>2015-10-02T12:44:10Z</time>
      </trkpt>
      <trkpt lat="47.35283" lon="6.46568">
        <ele>531.716</ele>
        <time>2015-10-02T12:44:11Z</time>
      </trkpt>
      <trkpt lat="47.35282" lon="6.46564">
        <ele>532.474</ele>
        <time>2015-10-02T12:44:12Z</time>
      </trkpt>
      <trkpt lat="47.35281" lon="6.46559">
        <ele>534.673</ele>
        <time>2015-10-02T12:44:13Z</time>
      </trkpt>
      <trkpt lat="47.35281" lon="6.46555">
        <ele>534.444</ele>
        <time>2015-10-02T12:44:14Z</time>
      </trkpt>
      <trkpt lat="47.35281" lon="6.46551">
        <ele>535.212</ele>
        <time>2015-10-02T12:44:15Z</time>
      </trkpt>
      <trkpt lat="47.35281" lon="6.46546">
        <ele>535.808</ele>
        <time>2015-10-02T12:44:16Z</time>
      </trkpt>
      <trkpt lat="47.35282" lon="6.46542">
        <ele>535.332</ele>
        <time>2015-10-02T12:44:17Z</time>
      </trkpt>
      <trkpt lat="47.35283" lon="6.46538">
        <ele>535.36</ele>
        <time>2015-10-02T12:44:18Z</time>
      </trkpt>
      <trkpt lat="47.35284" lon="6.46534">
        <ele>534.918</ele>
        <time>2015-10-02T12:44:19Z</time>
      </trkpt>
      <trkpt lat="47.35285" lon="6.46529">
        <ele>534.85</ele>
        <time>2015-10-02T12:44:20Z</time>
      </trkpt>
      <trkpt lat="47.35286" lon="6.46524">
        <ele>533.484</ele>
        <time>2015-10-02T12:44:21Z</time>
      </trkpt>
      <trkpt lat="47.35286" lon="6.4652">
        <ele>533.214</ele>
        <time>2015-10-02T12:44:22Z</time>
      </trkpt>
      <trkpt lat="47.35287" lon="6.46515">
        <ele>534</ele>
        <time>2015-10-02T12:44:23Z</time>
      </trkpt>
      <trkpt lat="47.35287" lon="6.46511">
        <ele>534.281</ele>
        <time>2015-10-02T12:44:24Z</time>
      </trkpt>
      <trkpt lat="47.35288" lon="6.46507">
        <ele>534.144</ele>
        <time>2015-10-02T12:44:25Z</time>
      </trkpt>
      <trkpt lat="47.35288" lon="6.46504">
        <ele>534.373</ele>
        <time>2015-10-02T12:44:26Z</time>
      </trkpt>
      <trkpt lat="47.35288" lon="6.465">
        <ele>533.862</ele>
        <time>2015-10-02T12:44:27Z</time>
      </trkpt>
      <trkpt lat="47.35288" lon="6.46496">
        <ele>533.151</ele>
        <time>2015-10-02T12:44:28Z</time>
      </trkpt>
      <trkpt lat="47.35288" lon="6.46492">
        <ele>533.763</ele>
        <time>2015-10-02T12:44:29Z</time>
      </trkpt>
      <trkpt lat="47.35289" lon="6.46488">
        <ele>536.379</ele>
        <time>2015-10-02T12:44:30Z</time>
      </trkpt>
      <trkpt lat="47.35289" lon="6.46484">
        <ele>535.711</ele>
        <time>2015-10-02T12:44:31Z</time>
      </trkpt>
      <trkpt lat="47.35289" lon="6.46479">
        <ele>534.669</ele>
        <time>2015-10-02T12:44:32Z</time>
      </trkpt>
      <trkpt lat="47.35288" lon="6.46474">
        <ele>534.801</ele>
        <time>2015-10-02T12:44:33Z</time>
      </trkpt>
      <trkpt lat="47.35288" lon="6.46468">
        <ele>534.979</ele>
        <time>2015-10-02T12:44:34Z</time>
      </trkpt>
      <trkpt lat="47.35286" lon="6.46461">
        <ele>533.691</ele>
        <time>2015-10-02T12:44:35Z</time>
      </trkpt>
      <trkpt lat="47.35285" lon="6.46455">
        <ele>533.53</ele>
        <time>2015-10-02T12:44:36Z</time>
      </trkpt>
      <trkpt lat="47.35281" lon="6.46449">
        <ele>532.248</ele>
        <time>2015-10-02T12:44:37Z</time>
      </trkpt>
      <trkpt lat="47.35278" lon="6.46443">
        <ele>532.101</ele>
        <time>2015-10-02T12:44:38Z</time>
      </trkpt>
      <trkpt lat="47.35275" lon="6.46437">
        <ele>531.595</ele>
        <time>2015-10-02T12:44:39Z</time>
      </trkpt>
      <trkpt lat="47.3527" lon="6.46433">
        <ele>528.984</ele>
        <time>2015-10-02T12:44:40Z</time>
      </trkpt>
      <trkpt lat="47.35267" lon="6.46427">
        <ele>528.248</ele>
        <time>2015-10-02T12:44:41Z</time>
      </trkpt>
      <trkpt lat="47.35262" lon="6.46423">
        <ele>529.766</ele>
        <time>2015-10-02T12:44:42Z</time>
      </trkpt>
      <trkpt lat="47.3526" lon="6.46418">
        <ele>530.134</ele>
        <time>2015-10-02T12:44:43Z</time>
      </trkpt>
      <trkpt lat="47.35256" lon="6.46414">
        <ele>530.306</ele>
        <time>2015-10-02T12:44:44Z</time>
      </trkpt>
      <trkpt lat="47.35253" lon="6.46411">
        <ele>529.782</ele>
        <time>2015-10-02T12:44:45Z</time>
      </trkpt>
      <trkpt lat="47.35249" lon="6.46406">
        <ele>530.013</ele>
        <time>2015-10-02T12:44:46Z</time>
      </trkpt>
      <trkpt lat="47.35246" lon="6.46401">
        <ele>531.211</ele>
        <time>2015-10-02T12:44:47Z</time>
      </trkpt>
      <trkpt lat="47.35243" lon="6.46397">
        <ele>531.518</ele>
        <time>2015-10-02T12:44:48Z</time>
      </trkpt>
      <trkpt lat="47.3524" lon="6.46392">
        <ele>531.781</ele>
        <time>2015-10-02T12:44:49Z</time>
      </trkpt>
      <trkpt lat="47.35237" lon="6.46389">
        <ele>531.695</ele>
        <time>2015-10-02T12:44:50Z</time>
      </trkpt>
      <trkpt lat="47.35234" lon="6.46386">
        <ele>533.243</ele>
        <time>2015-10-02T12:44:51Z</time>
      </trkpt>
      <trkpt lat="47.3523" lon="6.46382">
        <ele>533.074</ele>
        <time>2015-10-02T12:44:52Z</time>
      </trkpt>
      <trkpt lat="47.35227" lon="6.46378">
        <ele>533.261</ele>
        <time>2015-10-02T12:44:53Z</time>
      </trkpt>
      <trkpt lat="47.35223" lon="6.46374">
        <ele>532.441</ele>
        <time>2015-10-02T12:44:54Z</time>
      </trkpt>
      <trkpt lat="47.35219" lon="6.4637">
        <ele>533.188</ele>
        <time>2015-10-02T12:44:55Z</time>
      </trkpt>
      <trkpt lat="47.35216" lon="6.46366">
        <ele>534.079</ele>
        <time>2015-10-02T12:44:56Z</time>
      </trkpt>
      <trkpt lat="47.35213" lon="6.46361">
        <ele>533.984</ele>
        <time>2015-10-02T12:44:57Z</time>
      </trkpt>
      <trkpt lat="47.3521" lon="6.46357">
        <ele>534.661</ele>
        <time>2015-10-02T12:44:58Z</time>
      </trkpt>
      <trkpt lat="47.35206" lon="6.46353">
        <ele>534.513</ele>
        <time>2015-10-02T12:44:59Z</time>
      </trkpt>
      <trkpt lat="47.35202" lon="6.46348">
        <ele>534.126</ele>
        <time>2015-10-02T12:45:00Z</time>
      </trkpt>
      <trkpt lat="47.35198" lon="6.46343">
        <ele>533.48</ele>
        <time>2015-10-02T12:45:01Z</time>
      </trkpt>
      <trkpt lat="47.35194" lon="6.46337">
        <ele>532.304</ele>
        <time>2015-10-02T12:45:02Z</time>
      </trkpt>
      <trkpt lat="47.35189" lon="6.46332">
        <ele>532.112</ele>
        <time>2015-10-02T12:45:03Z</time>
      </trkpt>
      <trkpt lat="47.35186" lon="6.46328">
        <ele>532.091</ele>
        <time>2015-10-02T12:45:04Z</time>
      </trkpt>
      <trkpt lat="47.35182" lon="6.46322">
        <ele>532.306</ele>
        <time>2015-10-02T12:45:05Z</time>
      </trkpt>
      <trkpt lat="47.35179" lon="6.46317">
        <ele>531.175</ele>
        <time>2015-10-02T12:45:06Z</time>
      </trkpt>
      <trkpt lat="47.35176" lon="6.46312">
        <ele>530.528</ele>
        <time>2015-10-02T12:45:07Z</time>
      </trkpt>
      <trkpt lat="47.35173" lon="6.46307">
        <ele>531.028</ele>
        <time>2015-10-02T12:45:08Z</time>
      </trkpt>
      <trkpt lat="47.35169" lon="6.46301">
        <ele>531.774</ele>
        <time>2015-10-02T12:45:09Z</time>
      </trkpt>
      <trkpt lat="47.35166" lon="6.46296">
        <ele>532.287</ele>
        <time>2015-10-02T12:45:10Z</time>
      </trkpt>
      <trkpt lat="47.35163" lon="6.4629">
        <ele>531.799</ele>
        <time>2015-10-02T12:45:11Z</time>
      </trkpt>
      <trkpt lat="47.35158" lon="6.46285">
        <ele>532.213</ele>
        <time>2015-10-02T12:45:12Z</time>
      </trkpt>
      <trkpt lat="47.35155" lon="6.4628">
        <ele>532.325</ele>
        <time>2015-10-02T12:45:13Z</time>
      </trkpt>
      <trkpt lat="47.3515" lon="6.46275">
        <ele>531.565</ele>
        <time>2015-10-02T12:45:14Z</time>
      </trkpt>
      <trkpt lat="47.35147" lon="6.46269">
        <ele>531.731</ele>
        <time>2015-10-02T12:45:15Z</time>
      </trkpt>
      <trkpt lat="47.35144" lon="6.46264">
        <ele>532.136</ele>
        <time>2015-10-02T12:45:16Z</time>
      </trkpt>
      <trkpt lat="47.35141" lon="6.46258">
        <ele>531.215</ele>
        <time>2015-10-02T12:45:17Z</time>
      </trkpt>
      <trkpt lat="47.35139" lon="6.46252">
        <ele>531.465</ele>
        <time>2015-10-02T12:45:18Z</time>
      </trkpt>
      <trkpt lat="47.35135" lon="6.46245">
        <ele>530.372</ele>
        <time>2015-10-02T12:45:19Z</time>
      </trkpt>
      <trkpt lat="47.35132" lon="6.46239">
        <ele>530.714</ele>
        <time>2015-10-02T12:45:20Z</time>
      </trkpt>
      <trkpt lat="47.35129" lon="6.46233">
        <ele>530.978</ele>
        <time>2015-10-02T12:45:21Z</time>
      </trkpt>
      <trkpt lat="47.35125" lon="6.46228">
        <ele>530.673</ele>
        <time>2015-10-02T12:45:22Z</time>
      </trkpt>
      <trkpt lat="47.35121" lon="6.46221">
        <ele>530.376</ele>
        <time>2015-10-02T12:45:23Z</time>
      </trkpt>
      <trkpt lat="47.35118" lon="6.46215">
        <ele>530.066</ele>
        <time>2015-10-02T12:45:24Z</time>
      </trkpt>
      <trkpt lat="47.35115" lon="6.46208">
        <ele>529.831</ele>
        <time>2015-10-02T12:45:25Z</time>
      </trkpt>
      <trkpt lat="47.35111" lon="6.46203">
        <ele>530.337</ele>
        <time>2015-10-02T12:45:26Z</time>
      </trkpt>
      <trkpt lat="47.35107" lon="6.46198">
        <ele>530.057</ele>
        <time>2015-10-02T12:45:27Z</time>
      </trkpt>
      <trkpt lat="47.35104" lon="6.46192">
        <ele>530.011</ele>
        <time>2015-10-02T12:45:28Z</time>
      </trkpt>
      <trkpt lat="47.35101" lon="6.46186">
        <ele>528.562</ele>
        <time>2015-10-02T12:45:29Z</time>
      </trkpt>
      <trkpt lat="47.35098" lon="6.4618">
        <ele>529.907</ele>
        <time>2015-10-02T12:45:30Z</time>
      </trkpt>
      <trkpt lat="47.35095" lon="6.46174">
        <ele>529.921</ele>
        <time>2015-10-02T12:45:31Z</time>
      </trkpt>
      <trkpt lat="47.35092" lon="6.46168">
        <ele>530.448</ele>
        <time>2015-10-02T12:45:32Z</time>
      </trkpt>
      <trkpt lat="47.35087" lon="6.46161">
        <ele>530.421</ele>
        <time>2015-10-02T12:45:33Z</time>
      </trkpt>
      <trkpt lat="47.35084" lon="6.46155">
        <ele>531.315</ele>
        <time>2015-10-02T12:45:34Z</time>
      </trkpt>
      <trkpt lat="47.35079" lon="6.46149">
        <ele>530.486</ele>
        <time>2015-10-02T12:45:35Z</time>
      </trkpt>
      <trkpt lat="47.35074" lon="6.46142">
        <ele>529.851</ele>
        <time>2015-10-02T12:45:36Z</time>
      </trkpt>
      <trkpt lat="47.3507" lon="6.46135">
        <ele>530.39</ele>
        <time>2015-10-02T12:45:37Z</time>
      </trkpt>
      <trkpt lat="47.35067" lon="6.46128">
        <ele>529.834</ele>
        <time>2015-10-02T12:45:38Z</time>
      </trkpt>
      <trkpt lat="47.35063" lon="6.46121">
        <ele>529.146</ele>
        <time>2015-10-02T12:45:39Z</time>
      </trkpt>
      <trkpt lat="47.35059" lon="6.46114">
        <ele>529.659</ele>
        <time>2015-10-02T12:45:40Z</time>
      </trkpt>
      <trkpt lat="47.35054" lon="6.46106">
        <ele>529.362</ele>
        <time>2015-10-02T12:45:41Z</time>
      </trkpt>
      <trkpt lat="47.35051" lon="6.461">
        <ele>529.826</ele>
        <time>2015-10-02T12:45:42Z</time>
      </trkpt>
      <trkpt lat="47.35046" lon="6.46092">
        <ele>529.318</ele>
        <time>2015-10-02T12:45:43Z</time>
      </trkpt>
      <trkpt lat="47.35042" lon="6.46085">
        <ele>529.55</ele>
        <time>2015-10-02T12:45:44Z</time>
      </trkpt>
      <trkpt lat="47.35038" lon="6.46079">
        <ele>530.921</ele>
        <time>2015-10-02T12:45:45Z</time>
      </trkpt>
      <trkpt lat="47.35034" lon="6.46071">
        <ele>530.385</ele>
        <time>2015-10-02T12:45:46Z</time>
      </trkpt>
      <trkpt lat="47.35029" lon="6.46063">
        <ele>529.831</ele>
        <time>2015-10-02T12:45:47Z</time>
      </trkpt>
      <trkpt lat="47.35025" lon="6.46055">
        <ele>529.265</ele>
        <time>2015-10-02T12:45:48Z</time>
      </trkpt>
      <trkpt lat="47.35021" lon="6.46048">
        <ele>530.576</ele>
        <time>2015-10-02T12:45:49Z</time>
      </trkpt>
      <trkpt lat="47.35017" lon="6.4604">
        <ele>531.37</ele>
        <time>2015-10-02T12:45:50Z</time>
      </trkpt>
      <trkpt lat="47.35012" lon="6.46033">
        <ele>530.964</ele>
        <time>2015-10-02T12:45:51Z</time>
      </trkpt>
      <trkpt lat="47.35009" lon="6.46024">
        <ele>530.412</ele>
        <time>2015-10-02T12:45:52Z</time>
      </trkpt>
      <trkpt lat="47.35005" lon="6.46015">
        <ele>528.365</ele>
        <time>2015-10-02T12:45:53Z</time>
      </trkpt>
      <trkpt lat="47.35002" lon="6.46007">
        <ele>529.873</ele>
        <time>2015-10-02T12:45:54Z</time>
      </trkpt>
      <trkpt lat="47.34998" lon="6.45998">
        <ele>529.339</ele>
        <time>2015-10-02T12:45:55Z</time>
      </trkpt>
      <trkpt lat="47.34994" lon="6.4599">
        <ele>528.344</ele>
        <time>2015-10-02T12:45:56Z</time>
      </trkpt>
      <trkpt lat="47.3499" lon="6.45981">
        <ele>528.646</ele>
        <time>2015-10-02T12:45:57Z</time>
      </trkpt>
      <trkpt lat="47.34987" lon="6.45973">
        <ele>528.122</ele>
        <time>2015-10-02T12:45:58Z</time>
      </trkpt>
      <trkpt lat="47.34983" lon="6.45964">
        <ele>527.114</ele>
        <time>2015-10-02T12:45:59Z</time>
      </trkpt>
      <trkpt lat="47.34981" lon="6.45955">
        <ele>527.785</ele>
        <time>2015-10-02T12:46:00Z</time>
      </trkpt>
      <trkpt lat="47.34979" lon="6.45947">
        <ele>528.891</ele>
        <time>2015-10-02T12:46:01Z</time>
      </trkpt>
      <trkpt lat="47.34978" lon="6.45938">
        <ele>529.949</ele>
        <time>2015-10-02T12:46:02Z</time>
      </trkpt>
      <trkpt lat="47.34975" lon="6.45931">
        <ele>529.988</ele>
        <time>2015-10-02T12:46:03Z</time>
      </trkpt>
      <trkpt lat="47.34971" lon="6.45924">
        <ele>530.219</ele>
        <time>2015-10-02T12:46:04Z</time>
      </trkpt>
      <trkpt lat="47.34968" lon="6.45916">
        <ele>529.403</ele>
        <time>2015-10-02T12:46:05Z</time>
      </trkpt>
      <trkpt lat="47.34964" lon="6.45908">
        <ele>527.827</ele>
        <time>2015-10-02T12:46:06Z</time>
      </trkpt>
      <trkpt lat="47.34962" lon="6.459">
        <ele>529.526</ele>
        <time>2015-10-02T12:46:07Z</time>
      </trkpt>
      <trkpt lat="47.3496" lon="6.45893">
        <ele>529.487</ele>
        <time>2015-10-02T12:46:08Z</time>
      </trkpt>
      <trkpt lat="47.34957" lon="6.45884">
        <ele>529.37</ele>
        <time>2015-10-02T12:46:09Z</time>
      </trkpt>
      <trkpt lat="47.34954" lon="6.45876">
        <ele>529.664</ele>
        <time>2015-10-02T12:46:10Z</time>
      </trkpt>
      <trkpt lat="47.34952" lon="6.45868">
        <ele>526.728</ele>
        <time>2015-10-02T12:46:11Z</time>
      </trkpt>
      <trkpt lat="47.3495" lon="6.45859">
        <ele>527.843</ele>
        <time>2015-10-02T12:46:12Z</time>
      </trkpt>
      <trkpt lat="47.34947" lon="6.45853">
        <ele>529.192</ele>
        <time>2015-10-02T12:46:13Z</time>
      </trkpt>
      <trkpt lat="47.34944" lon="6.45846">
        <ele>529.458</ele>
        <time>2015-10-02T12:46:14Z</time>
      </trkpt>
      <trkpt lat="47.3494" lon="6.45839">
        <ele>528.979</ele>
        <time>2015-10-02T12:46:15Z</time>
      </trkpt>
      <trkpt lat="47.34936" lon="6.45834">
        <ele>528.199</ele>
        <time>2015-10-02T12:46:16Z</time>
      </trkpt>
      <trkpt lat="47.34933" lon="6.45828">
        <ele>529.401</ele>
        <time>2015-10-02T12:46:17Z</time>
      </trkpt>
      <trkpt lat="47.3493" lon="6.45821">
        <ele>529.606</ele>
        <time>2015-10-02T12:46:18Z</time>
      </trkpt>
      <trkpt lat="47.34927" lon="6.45815">
        <ele>530.4</ele>
        <time>2015-10-02T12:46:19Z</time>
      </trkpt>
      <trkpt lat="47.34922" lon="6.45808">
        <ele>529.946</ele>
        <time>2015-10-02T12:46:20Z</time>
      </trkpt>
      <trkpt lat="47.34919" lon="6.45802">
        <ele>528.412</ele>
        <time>2015-10-02T12:46:21Z</time>
      </trkpt>
      <trkpt lat="47.34914" lon="6.45796">
        <ele>528.358</ele>
        <time>2015-10-02T12:46:22Z</time>
      </trkpt>
      <trkpt lat="47.3491" lon="6.4579">
        <ele>528.252</ele>
        <time>2015-10-02T12:46:23Z</time>
      </trkpt>
      <trkpt lat="47.34906" lon="6.45784">
        <ele>528.781</ele>
        <time>2015-10-02T12:46:24Z</time>
      </trkpt>
      <trkpt lat="47.34902" lon="6.45778">
        <ele>529.263</ele>
        <time>2015-10-02T12:46:25Z</time>
      </trkpt>
      <trkpt lat="47.34898" lon="6.45773">
        <ele>529.95</ele>
        <time>2015-10-02T12:46:26Z</time>
      </trkpt>
      <trkpt lat="47.34893" lon="6.45769">
        <ele>529.549</ele>
        <time>2015-10-02T12:46:27Z</time>
      </trkpt>
      <trkpt lat="47.34887" lon="6.45765">
        <ele>529.657</ele>
        <time>2015-10-02T12:46:28Z</time>
      </trkpt>
      <trkpt lat="47.34883" lon="6.45761">
        <ele>531.442</ele>
        <time>2015-10-02T12:46:29Z</time>
      </trkpt>
      <trkpt lat="47.34879" lon="6.45755">
        <ele>530.532</ele>
        <time>2015-10-02T12:46:30Z</time>
      </trkpt>
      <trkpt lat="47.34874" lon="6.45749">
        <ele>530.171</ele>
        <time>2015-10-02T12:46:31Z</time>
      </trkpt>
      <trkpt lat="47.34869" lon="6.45744">
        <ele>530.979</ele>
        <time>2015-10-02T12:46:32Z</time>
      </trkpt>
      <trkpt lat="47.34865" lon="6.45741">
        <ele>533.479</ele>
        <time>2015-10-02T12:46:33Z</time>
      </trkpt>
      <trkpt lat="47.34859" lon="6.45736">
        <ele>532.361</ele>
        <time>2015-10-02T12:46:34Z</time>
      </trkpt>
      <trkpt lat="47.34854" lon="6.4573">
        <ele>531.792</ele>
        <time>2015-10-02T12:46:35Z</time>
      </trkpt>
      <trkpt lat="47.34849" lon="6.45724">
        <ele>530.09</ele>
        <time>2015-10-02T12:46:36Z</time>
      </trkpt>
      <trkpt lat="47.34844" lon="6.45718">
        <ele>529.258</ele>
        <time>2015-10-02T12:46:37Z</time>
      </trkpt>
      <trkpt lat="47.34839" lon="6.45712">
        <ele>528.888</ele>
        <time>2015-10-02T12:46:38Z</time>
      </trkpt>
      <trkpt lat="47.34835" lon="6.45708">
        <ele>531.538</ele>
        <time>2015-10-02T12:46:39Z</time>
      </trkpt>
      <trkpt lat="47.3483" lon="6.45703">
        <ele>531.814</ele>
        <time>2015-10-02T12:46:40Z</time>
      </trkpt>
      <trkpt lat="47.34826" lon="6.45697">
        <ele>533.327</ele>
        <time>2015-10-02T12:46:41Z</time>
      </trkpt>
      <trkpt lat="47.3482" lon="6.45692">
        <ele>532.844</ele>
        <time>2015-10-02T12:46:42Z</time>
      </trkpt>
      <trkpt lat="47.34814" lon="6.45686">
        <ele>533.112</ele>
        <time>2015-10-02T12:46:43Z</time>
      </trkpt>
      <trkpt lat="47.34809" lon="6.45681">
        <ele>532.505</ele>
        <time>2015-10-02T12:46:44Z</time>
      </trkpt>
      <trkpt lat="47.34803" lon="6.45674">
        <ele>531.814</ele>
        <time>2015-10-02T12:46:45Z</time>
      </trkpt>
      <trkpt lat="47.34797" lon="6.45669">
        <ele>530.536</ele>
        <time>2015-10-02T12:46:46Z</time>
      </trkpt>
      <trkpt lat="47.34792" lon="6.45663">
        <ele>531.245</ele>
        <time>2015-10-02T12:46:47Z</time>
      </trkpt>
      <trkpt lat="47.34788" lon="6.45658">
        <ele>531.248</ele>
        <time>2015-10-02T12:46:48Z</time>
      </trkpt>
      <trkpt lat="47.34784" lon="6.45654">
        <ele>530.981</ele>
        <time>2015-10-02T12:46:49Z</time>
      </trkpt>
      <trkpt lat="47.3478" lon="6.4565">
        <ele>530.896</ele>
        <time>2015-10-02T12:46:50Z</time>
      </trkpt>
      <trkpt lat="47.34776" lon="6.45645">
        <ele>529.788</ele>
        <time>2015-10-02T12:46:51Z</time>
      </trkpt>
      <trkpt lat="47.34772" lon="6.45642">
        <ele>528.207</ele>
        <time>2015-10-02T12:46:52Z</time>
      </trkpt>
      <trkpt lat="47.34768" lon="6.45637">
        <ele>527.086</ele>
        <time>2015-10-02T12:46:53Z</time>
      </trkpt>
      <trkpt lat="47.34765" lon="6.45632">
        <ele>526.429</ele>
        <time>2015-10-02T12:46:54Z</time>
      </trkpt>
      <trkpt lat="47.34763" lon="6.45629">
        <ele>529.085</ele>
        <time>2015-10-02T12:46:55Z</time>
      </trkpt>
      <trkpt lat="47.34761" lon="6.45625">
        <ele>528.938</ele>
        <time>2015-10-02T12:46:56Z</time>
      </trkpt>
      <trkpt lat="47.34759" lon="6.45621">
        <ele>528.658</ele>
        <time>2015-10-02T12:46:57Z</time>
      </trkpt>
      <trkpt lat="47.34757" lon="6.45616">
        <ele>527.625</ele>
        <time>2015-10-02T12:46:58Z</time>
      </trkpt>
      <trkpt lat="47.34754" lon="6.45611">
        <ele>526.199</ele>
        <time>2015-10-02T12:46:59Z</time>
      </trkpt>
      <trkpt lat="47.34751" lon="6.45608">
        <ele>526.415</ele>
        <time>2015-10-02T12:47:00Z</time>
      </trkpt>
      <trkpt lat="47.3475" lon="6.45603">
        <ele>526.915</ele>
        <time>2015-10-02T12:47:01Z</time>
      </trkpt>
      <trkpt lat="47.34748" lon="6.45598">
        <ele>526.552</ele>
        <time>2015-10-02T12:47:02Z</time>
      </trkpt>
      <trkpt lat="47.34746" lon="6.45595">
        <ele>527.266</ele>
        <time>2015-10-02T12:47:03Z</time>
      </trkpt>
      <trkpt lat="47.34744" lon="6.4559">
        <ele>527.05</ele>
        <time>2015-10-02T12:47:04Z</time>
      </trkpt>
      <trkpt lat="47.34742" lon="6.45585">
        <ele>526.943</ele>
        <time>2015-10-02T12:47:05Z</time>
      </trkpt>
      <trkpt lat="47.34741" lon="6.4558">
        <ele>525.847</ele>
        <time>2015-10-02T12:47:06Z</time>
      </trkpt>
      <trkpt lat="47.34739" lon="6.45575">
        <ele>524.865</ele>
        <time>2015-10-02T12:47:07Z</time>
      </trkpt>
      <trkpt lat="47.34738" lon="6.4557">
        <ele>524.916</ele>
        <time>2015-10-02T12:47:08Z</time>
      </trkpt>
      <trkpt lat="47.34736" lon="6.45564">
        <ele>524.922</ele>
        <time>2015-10-02T12:47:09Z</time>
      </trkpt>
      <trkpt lat="47.34735" lon="6.45559">
        <ele>525.481</ele>
        <time>2015-10-02T12:47:10Z</time>
      </trkpt>
      <trkpt lat="47.34734" lon="6.45553">
        <ele>525.987</ele>
        <time>2015-10-02T12:47:11Z</time>
      </trkpt>
      <trkpt lat="47.34733" lon="6.45547">
        <ele>526.129</ele>
        <time>2015-10-02T12:47:12Z</time>
      </trkpt>
      <trkpt lat="47.34732" lon="6.4554">
        <ele>524.748</ele>
        <time>2015-10-02T12:47:13Z</time>
      </trkpt>
      <trkpt lat="47.34731" lon="6.45533">
        <ele>524.073</ele>
        <time>2015-10-02T12:47:14Z</time>
      </trkpt>
      <trkpt lat="47.3473" lon="6.45526">
        <ele>523.841</ele>
        <time>2015-10-02T12:47:15Z</time>
      </trkpt>
      <trkpt lat="47.3473" lon="6.45519">
        <ele>524.634</ele>
        <time>2015-10-02T12:47:16Z</time>
      </trkpt>
      <trkpt lat="47.34728" lon="6.45511">
        <ele>522.895</ele>
        <time>2015-10-02T12:47:17Z</time>
      </trkpt>
      <trkpt lat="47.34727" lon="6.45504">
        <ele>523.444</ele>
        <time>2015-10-02T12:47:18Z</time>
      </trkpt>
      <trkpt lat="47.34727" lon="6.45497">
        <ele>522.772</ele>
        <time>2015-10-02T12:47:19Z</time>
      </trkpt>
      <trkpt lat="47.34729" lon="6.45488">
        <ele>523.202</ele>
        <time>2015-10-02T12:47:20Z</time>
      </trkpt>
      <trkpt lat="47.34729" lon="6.45479">
        <ele>523.24</ele>
        <time>2015-10-02T12:47:21Z</time>
      </trkpt>
      <trkpt lat="47.34727" lon="6.4547">
        <ele>521.575</ele>
        <time>2015-10-02T12:47:22Z</time>
      </trkpt>
      <trkpt lat="47.34725" lon="6.4546">
        <ele>520.785</ele>
        <time>2015-10-02T12:47:23Z</time>
      </trkpt>
      <trkpt lat="47.34724" lon="6.4545">
        <ele>520.52</ele>
        <time>2015-10-02T12:47:24Z</time>
      </trkpt>
      <trkpt lat="47.34724" lon="6.45441">
        <ele>521.439</ele>
        <time>2015-10-02T12:47:25Z</time>
      </trkpt>
      <trkpt lat="47.34723" lon="6.45429">
        <ele>520.353</ele>
        <time>2015-10-02T12:47:26Z</time>
      </trkpt>
      <trkpt lat="47.34723" lon="6.45418">
        <ele>520.953</ele>
        <time>2015-10-02T12:47:27Z</time>
      </trkpt>
      <trkpt lat="47.34722" lon="6.45407">
        <ele>520.593</ele>
        <time>2015-10-02T12:47:28Z</time>
      </trkpt>
      <trkpt lat="47.34722" lon="6.45397">
        <ele>521.632</ele>
        <time>2015-10-02T12:47:29Z</time>
      </trkpt>
      <trkpt lat="47.3472" lon="6.45386">
        <ele>521.35</ele>
        <time>2015-10-02T12:47:30Z</time>
      </trkpt>
      <trkpt lat="47.3472" lon="6.45375">
        <ele>522.049</ele>
        <time>2015-10-02T12:47:31Z</time>
      </trkpt>
      <trkpt lat="47.34721" lon="6.45365">
        <ele>522.437</ele>
        <time>2015-10-02T12:47:32Z</time>
      </trkpt>
      <trkpt lat="47.34721" lon="6.45354">
        <ele>522.003</ele>
        <time>2015-10-02T12:47:33Z</time>
      </trkpt>
      <trkpt lat="47.34721" lon="6.45343">
        <ele>521.225</ele>
        <time>2015-10-02T12:47:34Z</time>
      </trkpt>
      <trkpt lat="47.34721" lon="6.45333">
        <ele>520.846</ele>
        <time>2015-10-02T12:47:35Z</time>
      </trkpt>
      <trkpt lat="47.34722" lon="6.45324">
        <ele>522.03</ele>
        <time>2015-10-02T12:47:36Z</time>
      </trkpt>
      <trkpt lat="47.34723" lon="6.45312">
        <ele>522.363</ele>
        <time>2015-10-02T12:47:37Z</time>
      </trkpt>
      <trkpt lat="47.34724" lon="6.45302">
        <ele>523.463</ele>
        <time>2015-10-02T12:47:38Z</time>
      </trkpt>
      <trkpt lat="47.34723" lon="6.45292">
        <ele>524.101</ele>
        <time>2015-10-02T12:47:39Z</time>
      </trkpt>
      <trkpt lat="47.34723" lon="6.45281">
        <ele>522.082</ele>
        <time>2015-10-02T12:47:40Z</time>
      </trkpt>
      <trkpt lat="47.34723" lon="6.45273">
        <ele>522.719</ele>
        <time>2015-10-02T12:47:41Z</time>
      </trkpt>
      <trkpt lat="47.34723" lon="6.45265">
        <ele>524.214</ele>
        <time>2015-10-02T12:47:42Z</time>
      </trkpt>
      <trkpt lat="47.34719" lon="6.45256">
        <ele>524.506</ele>
        <time>2015-10-02T12:47:43Z</time>
      </trkpt>
      <trkpt lat="47.34718" lon="6.45246">
        <ele>522.13</ele>
        <time>2015-10-02T12:47:44Z</time>
      </trkpt>
      <trkpt lat="47.34716" lon="6.45238">
        <ele>519.578</ele>
        <time>2015-10-02T12:47:45Z</time>
      </trkpt>
      <trkpt lat="47.34712" lon="6.45229">
        <ele>518.669</ele>
        <time>2015-10-02T12:47:46Z</time>
      </trkpt>
      <trkpt lat="47.34708" lon="6.4522">
        <ele>518.07</ele>
        <time>2015-10-02T12:47:47Z</time>
      </trkpt>
      <trkpt lat="47.34705" lon="6.45213">
        <ele>518.316</ele>
        <time>2015-10-02T12:47:48Z</time>
      </trkpt>
      <trkpt lat="47.34702" lon="6.45205">
        <ele>517.267</ele>
        <time>2015-10-02T12:47:49Z</time>
      </trkpt>
      <trkpt lat="47.34699" lon="6.45198">
        <ele>520.231</ele>
        <time>2015-10-02T12:47:50Z</time>
      </trkpt>
      <trkpt lat="47.34695" lon="6.4519">
        <ele>520.773</ele>
        <time>2015-10-02T12:47:51Z</time>
      </trkpt>
      <trkpt lat="47.34692" lon="6.45182">
        <ele>521.071</ele>
        <time>2015-10-02T12:47:52Z</time>
      </trkpt>
      <trkpt lat="47.34688" lon="6.45175">
        <ele>520.608</ele>
        <time>2015-10-02T12:47:53Z</time>
      </trkpt>
      <trkpt lat="47.34683" lon="6.45168">
        <ele>521.004</ele>
        <time>2015-10-02T12:47:54Z</time>
      </trkpt>
      <trkpt lat="47.34678" lon="6.4516">
        <ele>519.919</ele>
        <time>2015-10-02T12:47:55Z</time>
      </trkpt>
      <trkpt lat="47.34673" lon="6.45153">
        <ele>519.707</ele>
        <time>2015-10-02T12:47:56Z</time>
      </trkpt>
      <trkpt lat="47.34667" lon="6.45146">
        <ele>519.237</ele>
        <time>2015-10-02T12:47:57Z</time>
      </trkpt>
      <trkpt lat="47.34661" lon="6.4514">
        <ele>518.312</ele>
        <time>2015-10-02T12:47:58Z</time>
      </trkpt>
      <trkpt lat="47.34656" lon="6.45134">
        <ele>519.561</ele>
        <time>2015-10-02T12:47:59Z</time>
      </trkpt>
      <trkpt lat="47.34648" lon="6.45127">
        <ele>517.777</ele>
        <time>2015-10-02T12:48:00Z</time>
      </trkpt>
      <trkpt lat="47.34642" lon="6.4512">
        <ele>517.054</ele>
        <time>2015-10-02T12:48:01Z</time>
      </trkpt>
      <trkpt lat="47.34635" lon="6.45114">
        <ele>517.247</ele>
        <time>2015-10-02T12:48:02Z</time>
      </trkpt>
      <trkpt lat="47.34627" lon="6.45109">
        <ele>516.587</ele>
        <time>2015-10-02T12:48:03Z</time>
      </trkpt>
      <trkpt lat="47.3462" lon="6.45104">
        <ele>517.582</ele>
        <time>2015-10-02T12:48:04Z</time>
      </trkpt>
      <trkpt lat="47.34614" lon="6.45098">
        <ele>517.605</ele>
        <time>2015-10-02T12:48:05Z</time>
      </trkpt>
      <trkpt lat="47.34606" lon="6.4509">
        <ele>516.005</ele>
        <time>2015-10-02T12:48:06Z</time>
      </trkpt>
      <trkpt lat="47.34599" lon="6.45083">
        <ele>514.358</ele>
        <time>2015-10-02T12:48:07Z</time>
      </trkpt>
      <trkpt lat="47.34592" lon="6.45075">
        <ele>513.032</ele>
        <time>2015-10-02T12:48:08Z</time>
      </trkpt>
      <trkpt lat="47.34588" lon="6.45068">
        <ele>514.912</ele>
        <time>2015-10-02T12:48:09Z</time>
      </trkpt>
      <trkpt lat="47.34581" lon="6.4506">
        <ele>515.135</ele>
        <time>2015-10-02T12:48:10Z</time>
      </trkpt>
      <trkpt lat="47.34575" lon="6.45051">
        <ele>515.192</ele>
        <time>2015-10-02T12:48:11Z</time>
      </trkpt>
      <trkpt lat="47.34569" lon="6.45042">
        <ele>516.599</ele>
        <time>2015-10-02T12:48:12Z</time>
      </trkpt>
      <trkpt lat="47.34563" lon="6.45032">
        <ele>516.75</ele>
        <time>2015-10-02T12:48:13Z</time>
      </trkpt>
      <trkpt lat="47.34559" lon="6.45022">
        <ele>517.994</ele>
        <time>2015-10-02T12:48:14Z</time>
      </trkpt>
      <trkpt lat="47.34553" lon="6.45012">
        <ele>518.69</ele>
        <time>2015-10-02T12:48:15Z</time>
      </trkpt>
      <trkpt lat="47.34551" lon="6.45002">
        <ele>520.846</ele>
        <time>2015-10-02T12:48:16Z</time>
      </trkpt>
      <trkpt lat="47.34548" lon="6.44991">
        <ele>521.56</ele>
        <time>2015-10-02T12:48:17Z</time>
      </trkpt>
      <trkpt lat="47.34544" lon="6.44978">
        <ele>521.315</ele>
        <time>2015-10-02T12:48:18Z</time>
      </trkpt>
      <trkpt lat="47.34541" lon="6.44968">
        <ele>520.42</ele>
        <time>2015-10-02T12:48:19Z</time>
      </trkpt>
      <trkpt lat="47.34538" lon="6.44958">
        <ele>520.296</ele>
        <time>2015-10-02T12:48:20Z</time>
      </trkpt>
      <trkpt lat="47.34537" lon="6.44947">
        <ele>518.911</ele>
        <time>2015-10-02T12:48:21Z</time>
      </trkpt>
      <trkpt lat="47.34532" lon="6.44936">
        <ele>516.027</ele>
        <time>2015-10-02T12:48:22Z</time>
      </trkpt>
      <trkpt lat="47.34532" lon="6.44925">
        <ele>516.146</ele>
        <time>2015-10-02T12:48:23Z</time>
      </trkpt>
      <trkpt lat="47.34532" lon="6.44914">
        <ele>518.549</ele>
        <time>2015-10-02T12:48:24Z</time>
      </trkpt>
      <trkpt lat="47.34531" lon="6.44905">
        <ele>518.537</ele>
        <time>2015-10-02T12:48:25Z</time>
      </trkpt>
      <trkpt lat="47.3453" lon="6.44898">
        <ele>517.198</ele>
        <time>2015-10-02T12:48:26Z</time>
      </trkpt>
      <trkpt lat="47.3453" lon="6.4489">
        <ele>516.839</ele>
        <time>2015-10-02T12:48:27Z</time>
      </trkpt>
      <trkpt lat="47.34533" lon="6.44878">
        <ele>516.649</ele>
        <time>2015-10-02T12:48:28Z</time>
      </trkpt>
      <trkpt lat="47.34534" lon="6.44869">
        <ele>516.641</ele>
        <time>2015-10-02T12:48:29Z</time>
      </trkpt>
      <trkpt lat="47.34535" lon="6.44856">
        <ele>518.321</ele>
        <time>2015-10-02T12:48:30Z</time>
      </trkpt>
      <trkpt lat="47.34536" lon="6.44845">
        <ele>518.113</ele>
        <time>2015-10-02T12:48:31Z</time>
      </trkpt>
      <trkpt lat="47.34536" lon="6.44834">
        <ele>518.123</ele>
        <time>2015-10-02T12:48:32Z</time>
      </trkpt>
      <trkpt lat="47.34535" lon="6.44821">
        <ele>514.964</ele>
        <time>2015-10-02T12:48:33Z</time>
      </trkpt>
      <trkpt lat="47.34536" lon="6.44811">
        <ele>515.502</ele>
        <time>2015-10-02T12:48:34Z</time>
      </trkpt>
      <trkpt lat="47.34531" lon="6.44799">
        <ele>513.472</ele>
        <time>2015-10-02T12:48:35Z</time>
      </trkpt>
      <trkpt lat="47.3453" lon="6.4479">
        <ele>512.147</ele>
        <time>2015-10-02T12:48:36Z</time>
      </trkpt>
      <trkpt lat="47.34528" lon="6.44778">
        <ele>512.116</ele>
        <time>2015-10-02T12:48:37Z</time>
      </trkpt>
      <trkpt lat="47.34521" lon="6.44767">
        <ele>506.815</ele>
        <time>2015-10-02T12:48:38Z</time>
      </trkpt>
      <trkpt lat="47.34519" lon="6.44759">
        <ele>505.079</ele>
        <time>2015-10-02T12:48:39Z</time>
      </trkpt>
      <trkpt lat="47.34516" lon="6.4475">
        <ele>504.757</ele>
        <time>2015-10-02T12:48:40Z</time>
      </trkpt>
      <trkpt lat="47.34514" lon="6.44741">
        <ele>505.504</ele>
        <time>2015-10-02T12:48:41Z</time>
      </trkpt>
      <trkpt lat="47.34512" lon="6.44732">
        <ele>506.503</ele>
        <time>2015-10-02T12:48:42Z</time>
      </trkpt>
      <trkpt lat="47.34511" lon="6.44723">
        <ele>508.243</ele>
        <time>2015-10-02T12:48:43Z</time>
      </trkpt>
      <trkpt lat="47.3451" lon="6.44711">
        <ele>504.751</ele>
        <time>2015-10-02T12:48:44Z</time>
      </trkpt>
      <trkpt lat="47.34507" lon="6.44703">
        <ele>506.258</ele>
        <time>2015-10-02T12:48:45Z</time>
      </trkpt>
      <trkpt lat="47.34504" lon="6.44695">
        <ele>508.093</ele>
        <time>2015-10-02T12:48:46Z</time>
      </trkpt>
      <trkpt lat="47.34502" lon="6.44688">
        <ele>508.051</ele>
        <time>2015-10-02T12:48:47Z</time>
      </trkpt>
      <trkpt lat="47.34501" lon="6.4468">
        <ele>508.531</ele>
        <time>2015-10-02T12:48:48Z</time>
      </trkpt>
      <trkpt lat="47.34499" lon="6.44675">
        <ele>508.887</ele>
        <time>2015-10-02T12:48:49Z</time>
      </trkpt>
      <trkpt lat="47.34498" lon="6.44669">
        <ele>509.984</ele>
        <time>2015-10-02T12:48:50Z</time>
      </trkpt>
      <trkpt lat="47.34499" lon="6.44661">
        <ele>510.27</ele>
        <time>2015-10-02T12:48:51Z</time>
      </trkpt>
      <trkpt lat="47.34496" lon="6.44657">
        <ele>509.483</ele>
        <time>2015-10-02T12:48:52Z</time>
      </trkpt>
      <trkpt lat="47.34496" lon="6.44651">
        <ele>511.678</ele>
        <time>2015-10-02T12:48:53Z</time>
      </trkpt>
      <trkpt lat="47.34495" lon="6.44647">
        <ele>509.361</ele>
        <time>2015-10-02T12:48:54Z</time>
      </trkpt>
      <trkpt lat="47.34493" lon="6.44641">
        <ele>509.653</ele>
        <time>2015-10-02T12:48:55Z</time>
      </trkpt>
      <trkpt lat="47.34491" lon="6.44634">
        <ele>508.749</ele>
        <time>2015-10-02T12:48:56Z</time>
      </trkpt>
      <trkpt lat="47.34489" lon="6.44629">
        <ele>509.052</ele>
        <time>2015-10-02T12:48:57Z</time>
      </trkpt>
      <trkpt lat="47.34488" lon="6.44623">
        <ele>508.306</ele>
        <time>2015-10-02T12:48:58Z</time>
      </trkpt>
      <trkpt lat="47.34487" lon="6.44617">
        <ele>507.654</ele>
        <time>2015-10-02T12:48:59Z</time>
      </trkpt>
      <trkpt lat="47.34485" lon="6.4461">
        <ele>506.999</ele>
        <time>2015-10-02T12:49:00Z</time>
      </trkpt>
      <trkpt lat="47.34485" lon="6.44601">
        <ele>507.345</ele>
        <time>2015-10-02T12:49:01Z</time>
      </trkpt>
      <trkpt lat="47.34484" lon="6.44596">
        <ele>509.078</ele>
        <time>2015-10-02T12:49:02Z</time>
      </trkpt>
      <trkpt lat="47.34482" lon="6.44592">
        <ele>510.157</ele>
        <time>2015-10-02T12:49:03Z</time>
      </trkpt>
      <trkpt lat="47.3448" lon="6.44586">
        <ele>510.679</ele>
        <time>2015-10-02T12:49:04Z</time>
      </trkpt>
      <trkpt lat="47.34479" lon="6.4458">
        <ele>511.904</ele>
        <time>2015-10-02T12:49:05Z</time>
      </trkpt>
      <trkpt lat="47.34477" lon="6.44573">
        <ele>511.205</ele>
        <time>2015-10-02T12:49:06Z</time>
      </trkpt>
      <trkpt lat="47.34474" lon="6.44567">
        <ele>510.42</ele>
        <time>2015-10-02T12:49:07Z</time>
      </trkpt>
      <trkpt lat="47.34472" lon="6.44561">
        <ele>510.53</ele>
        <time>2015-10-02T12:49:08Z</time>
      </trkpt>
      <trkpt lat="47.34471" lon="6.44556">
        <ele>512.851</ele>
        <time>2015-10-02T12:49:09Z</time>
      </trkpt>
      <trkpt lat="47.34468" lon="6.44551">
        <ele>511.7</ele>
        <time>2015-10-02T12:49:10Z</time>
      </trkpt>
      <trkpt lat="47.34467" lon="6.44547">
        <ele>513.372</ele>
        <time>2015-10-02T12:49:11Z</time>
      </trkpt>
      <trkpt lat="47.34464" lon="6.44543">
        <ele>514.266</ele>
        <time>2015-10-02T12:49:12Z</time>
      </trkpt>
      <trkpt lat="47.34461" lon="6.44538">
        <ele>513.773</ele>
        <time>2015-10-02T12:49:13Z</time>
      </trkpt>
      <trkpt lat="47.34458" lon="6.44534">
        <ele>514.338</ele>
        <time>2015-10-02T12:49:14Z</time>
      </trkpt>
      <trkpt lat="47.34456" lon="6.44528">
        <ele>514.184</ele>
        <time>2015-10-02T12:49:15Z</time>
      </trkpt>
      <trkpt lat="47.34452" lon="6.44523">
        <ele>513.214</ele>
        <time>2015-10-02T12:49:16Z</time>
      </trkpt>
      <trkpt lat="47.34449" lon="6.44518">
        <ele>512.329</ele>
        <time>2015-10-02T12:49:17Z</time>
      </trkpt>
      <trkpt lat="47.34446" lon="6.44514">
        <ele>511.714</ele>
        <time>2015-10-02T12:49:18Z</time>
      </trkpt>
      <trkpt lat="47.34444" lon="6.4451">
        <ele>510.702</ele>
        <time>2015-10-02T12:49:18Z</time>
      </trkpt>
      <trkpt lat="47.34441" lon="6.44506">
        <ele>510.827</ele>
        <time>2015-10-02T12:49:19Z</time>
      </trkpt>
      <trkpt lat="47.34438" lon="6.44502">
        <ele>511.546</ele>
        <time>2015-10-02T12:49:20Z</time>
      </trkpt>
      <trkpt lat="47.34434" lon="6.445">
        <ele>511.686</ele>
        <time>2015-10-02T12:49:21Z</time>
      </trkpt>
      <trkpt lat="47.34432" lon="6.44495">
        <ele>511.708</ele>
        <time>2015-10-02T12:49:22Z</time>
      </trkpt>
      <trkpt lat="47.34428" lon="6.44491">
        <ele>510.678</ele>
        <time>2015-10-02T12:49:23Z</time>
      </trkpt>
      <trkpt lat="47.34425" lon="6.44486">
        <ele>510.167</ele>
        <time>2015-10-02T12:49:24Z</time>
      </trkpt>
      <trkpt lat="47.34422" lon="6.44482">
        <ele>508.797</ele>
        <time>2015-10-02T12:49:25Z</time>
      </trkpt>
      <trkpt lat="47.34418" lon="6.44478">
        <ele>507.84</ele>
        <time>2015-10-02T12:49:26Z</time>
      </trkpt>
      <trkpt lat="47.34415" lon="6.44473">
        <ele>507.17</ele>
        <time>2015-10-02T12:49:27Z</time>
      </trkpt>
      <trkpt lat="47.34411" lon="6.44469">
        <ele>506.12</ele>
        <time>2015-10-02T12:49:28Z</time>
      </trkpt>
      <trkpt lat="47.34408" lon="6.44464">
        <ele>506.689</ele>
        <time>2015-10-02T12:49:29Z</time>
      </trkpt>
      <trkpt lat="47.34405" lon="6.44459">
        <ele>506.666</ele>
        <time>2015-10-02T12:49:30Z</time>
      </trkpt>
      <trkpt lat="47.34402" lon="6.44454">
        <ele>508.026</ele>
        <time>2015-10-02T12:49:31Z</time>
      </trkpt>
      <trkpt lat="47.344" lon="6.44449">
        <ele>507.838</ele>
        <time>2015-10-02T12:49:32Z</time>
      </trkpt>
      <trkpt lat="47.34397" lon="6.44444">
        <ele>508.923</ele>
        <time>2015-10-02T12:49:33Z</time>
      </trkpt>
      <trkpt lat="47.34396" lon="6.44439">
        <ele>509.667</ele>
        <time>2015-10-02T12:49:34Z</time>
      </trkpt>
      <trkpt lat="47.34394" lon="6.44434">
        <ele>512.143</ele>
        <time>2015-10-02T12:49:35Z</time>
      </trkpt>
      <trkpt lat="47.34391" lon="6.44429">
        <ele>512.231</ele>
        <time>2015-10-02T12:49:36Z</time>
      </trkpt>
      <trkpt lat="47.34388" lon="6.44423">
        <ele>511.292</ele>
        <time>2015-10-02T12:49:37Z</time>
      </trkpt>
      <trkpt lat="47.34384" lon="6.44417">
        <ele>509.651</ele>
        <time>2015-10-02T12:49:38Z</time>
      </trkpt>
      <trkpt lat="47.34381" lon="6.4441">
        <ele>509.023</ele>
        <time>2015-10-02T12:49:39Z</time>
      </trkpt>
      <trkpt lat="47.34378" lon="6.44404">
        <ele>507.948</ele>
        <time>2015-10-02T12:49:40Z</time>
      </trkpt>
      <trkpt lat="47.34374" lon="6.444">
        <ele>506.988</ele>
        <time>2015-10-02T12:49:41Z</time>
      </trkpt>
      <trkpt lat="47.34371" lon="6.44393">
        <ele>506.258</ele>
        <time>2015-10-02T12:49:42Z</time>
      </trkpt>
      <trkpt lat="47.34369" lon="6.44387">
        <ele>506.245</ele>
        <time>2015-10-02T12:49:43Z</time>
      </trkpt>
      <trkpt lat="47.34366" lon="6.4438">
        <ele>505.648</ele>
        <time>2015-10-02T12:49:44Z</time>
      </trkpt>
      <trkpt lat="47.34364" lon="6.44375">
        <ele>505.935</ele>
        <time>2015-10-02T12:49:45Z</time>
      </trkpt>
      <trkpt lat="47.34362" lon="6.44369">
        <ele>505.502</ele>
        <time>2015-10-02T12:49:46Z</time>
      </trkpt>
      <trkpt lat="47.3436" lon="6.44364">
        <ele>505.273</ele>
        <time>2015-10-02T12:49:47Z</time>
      </trkpt>
      <trkpt lat="47.34357" lon="6.44358">
        <ele>506.187</ele>
        <time>2015-10-02T12:49:48Z</time>
      </trkpt>
      <trkpt lat="47.34353" lon="6.44352">
        <ele>504.472</ele>
        <time>2015-10-02T12:49:49Z</time>
      </trkpt>
      <trkpt lat="47.34351" lon="6.44347">
        <ele>505.058</ele>
        <time>2015-10-02T12:49:50Z</time>
      </trkpt>
      <trkpt lat="47.34347" lon="6.44341">
        <ele>504.406</ele>
        <time>2015-10-02T12:49:51Z</time>
      </trkpt>
      <trkpt lat="47.34344" lon="6.44336">
        <ele>505.395</ele>
        <time>2015-10-02T12:49:52Z</time>
      </trkpt>
      <trkpt lat="47.34341" lon="6.4433">
        <ele>506.204</ele>
        <time>2015-10-02T12:49:53Z</time>
      </trkpt>
      <trkpt lat="47.34338" lon="6.44324">
        <ele>507.191</ele>
        <time>2015-10-02T12:49:54Z</time>
      </trkpt>
      <trkpt lat="47.34335" lon="6.4432">
        <ele>506.952</ele>
        <time>2015-10-02T12:49:55Z</time>
      </trkpt>
      <trkpt lat="47.34331" lon="6.44316">
        <ele>507.202</ele>
        <time>2015-10-02T12:49:56Z</time>
      </trkpt>
      <trkpt lat="47.34327" lon="6.44311">
        <ele>508.282</ele>
        <time>2015-10-02T12:49:57Z</time>
      </trkpt>
      <trkpt lat="47.34322" lon="6.44306">
        <ele>508.308</ele>
        <time>2015-10-02T12:49:58Z</time>
      </trkpt>
      <trkpt lat="47.34318" lon="6.443">
        <ele>508.289</ele>
        <time>2015-10-02T12:49:59Z</time>
      </trkpt>
      <trkpt lat="47.34314" lon="6.44294">
        <ele>507.428</ele>
        <time>2015-10-02T12:50:00Z</time>
      </trkpt>
      <trkpt lat="47.3431" lon="6.44289">
        <ele>506.864</ele>
        <time>2015-10-02T12:50:01Z</time>
      </trkpt>
      <trkpt lat="47.34306" lon="6.44284">
        <ele>505.799</ele>
        <time>2015-10-02T12:50:02Z</time>
      </trkpt>
      <trkpt lat="47.34303" lon="6.44279">
        <ele>507.61</ele>
        <time>2015-10-02T12:50:03Z</time>
      </trkpt>
      <trkpt lat="47.343" lon="6.44274">
        <ele>508.874</ele>
        <time>2015-10-02T12:50:04Z</time>
      </trkpt>
      <trkpt lat="47.34296" lon="6.44269">
        <ele>508.799</ele>
        <time>2015-10-02T12:50:05Z</time>
      </trkpt>
      <trkpt lat="47.34292" lon="6.44265">
        <ele>509.07</ele>
        <time>2015-10-02T12:50:06Z</time>
      </trkpt>
      <trkpt lat="47.3429" lon="6.44259">
        <ele>507.569</ele>
        <time>2015-10-02T12:50:07Z</time>
      </trkpt>
      <trkpt lat="47.34286" lon="6.44255">
        <ele>507.222</ele>
        <time>2015-10-02T12:50:08Z</time>
      </trkpt>
      <trkpt lat="47.34283" lon="6.44251">
        <ele>506.67</ele>
        <time>2015-10-02T12:50:09Z</time>
      </trkpt>
      <trkpt lat="47.34279" lon="6.44245">
        <ele>505.87</ele>
        <time>2015-10-02T12:50:10Z</time>
      </trkpt>
      <trkpt lat="47.34276" lon="6.44239">
        <ele>504.534</ele>
        <time>2015-10-02T12:50:11Z</time>
      </trkpt>
      <trkpt lat="47.34271" lon="6.44234">
        <ele>503.19</ele>
        <time>2015-10-02T12:50:12Z</time>
      </trkpt>
      <trkpt lat="47.34267" lon="6.4423">
        <ele>502.167</ele>
        <time>2015-10-02T12:50:13Z</time>
      </trkpt>
      <trkpt lat="47.34263" lon="6.44224">
        <ele>502.866</ele>
        <time>2015-10-02T12:50:14Z</time>
      </trkpt>
      <trkpt lat="47.34259" lon="6.44219">
        <ele>502.663</ele>
        <time>2015-10-02T12:50:15Z</time>
      </trkpt>
      <trkpt lat="47.34255" lon="6.44214">
        <ele>502.205</ele>
        <time>2015-10-02T12:50:16Z</time>
      </trkpt>
      <trkpt lat="47.34252" lon="6.44207">
        <ele>500.452</ele>
        <time>2015-10-02T12:50:17Z</time>
      </trkpt>
      <trkpt lat="47.34249" lon="6.44201">
        <ele>500.532</ele>
        <time>2015-10-02T12:50:18Z</time>
      </trkpt>
      <trkpt lat="47.34245" lon="6.44195">
        <ele>499.942</ele>
        <time>2015-10-02T12:50:19Z</time>
      </trkpt>
      <trkpt lat="47.3424" lon="6.44189">
        <ele>499.236</ele>
        <time>2015-10-02T12:50:20Z</time>
      </trkpt>
      <trkpt lat="47.34237" lon="6.44184">
        <ele>499.475</ele>
        <time>2015-10-02T12:50:21Z</time>
      </trkpt>
      <trkpt lat="47.34233" lon="6.44178">
        <ele>499.147</ele>
        <time>2015-10-02T12:50:22Z</time>
      </trkpt>
      <trkpt lat="47.34228" lon="6.44172">
        <ele>498.098</ele>
        <time>2015-10-02T12:50:23Z</time>
      </trkpt>
      <trkpt lat="47.34223" lon="6.44166">
        <ele>497.331</ele>
        <time>2015-10-02T12:50:24Z</time>
      </trkpt>
      <trkpt lat="47.34221" lon="6.44163">
        <ele>500.7</ele>
        <time>2015-10-02T12:50:25Z</time>
      </trkpt>
      <trkpt lat="47.34217" lon="6.44158">
        <ele>499.802</ele>
        <time>2015-10-02T12:50:26Z</time>
      </trkpt>
      <trkpt lat="47.34212" lon="6.44152">
        <ele>498.571</ele>
        <time>2015-10-02T12:50:27Z</time>
      </trkpt>
      <trkpt lat="47.34208" lon="6.44148">
        <ele>499.954</ele>
        <time>2015-10-02T12:50:28Z</time>
      </trkpt>
      <trkpt lat="47.34203" lon="6.44143">
        <ele>499.039</ele>
        <time>2015-10-02T12:50:29Z</time>
      </trkpt>
      <trkpt lat="47.34201" lon="6.44139">
        <ele>503.069</ele>
        <time>2015-10-02T12:50:30Z</time>
      </trkpt>
      <trkpt lat="47.34199" lon="6.44135">
        <ele>503.154</ele>
        <time>2015-10-02T12:50:31Z</time>
      </trkpt>
      <trkpt lat="47.34195" lon="6.44131">
        <ele>503.05</ele>
        <time>2015-10-02T12:50:32Z</time>
      </trkpt>
      <trkpt lat="47.34191" lon="6.44126">
        <ele>503.367</ele>
        <time>2015-10-02T12:50:33Z</time>
      </trkpt>
      <trkpt lat="47.34187" lon="6.4412">
        <ele>501.964</ele>
        <time>2015-10-02T12:50:34Z</time>
      </trkpt>
      <trkpt lat="47.34184" lon="6.44115">
        <ele>500.898</ele>
        <time>2015-10-02T12:50:35Z</time>
      </trkpt>
      <trkpt lat="47.3418" lon="6.44109">
        <ele>501.291</ele>
        <time>2015-10-02T12:50:36Z</time>
      </trkpt>
      <trkpt lat="47.34177" lon="6.44105">
        <ele>501.394</ele>
        <time>2015-10-02T12:50:37Z</time>
      </trkpt>
      <trkpt lat="47.34174" lon="6.441">
        <ele>500.915</ele>
        <time>2015-10-02T12:50:38Z</time>
      </trkpt>
      <trkpt lat="47.34171" lon="6.44095">
        <ele>501.114</ele>
        <time>2015-10-02T12:50:39Z</time>
      </trkpt>
      <trkpt lat="47.34169" lon="6.44091">
        <ele>501.073</ele>
        <time>2015-10-02T12:50:40Z</time>
      </trkpt>
      <trkpt lat="47.34166" lon="6.44086">
        <ele>499.893</ele>
        <time>2015-10-02T12:50:41Z</time>
      </trkpt>
      <trkpt lat="47.34163" lon="6.44081">
        <ele>499.017</ele>
        <time>2015-10-02T12:50:42Z</time>
      </trkpt>
      <trkpt lat="47.3416" lon="6.44076">
        <ele>498.56</ele>
        <time>2015-10-02T12:50:43Z</time>
      </trkpt>
      <trkpt lat="47.34158" lon="6.44071">
        <ele>498.756</ele>
        <time>2015-10-02T12:50:44Z</time>
      </trkpt>
      <trkpt lat="47.34156" lon="6.44066">
        <ele>499.328</ele>
        <time>2015-10-02T12:50:45Z</time>
      </trkpt>
      <trkpt lat="47.34153" lon="6.44062">
        <ele>498.83</ele>
        <time>2015-10-02T12:50:46Z</time>
      </trkpt>
      <trkpt lat="47.34152" lon="6.44057">
        <ele>500.179</ele>
        <time>2015-10-02T12:50:47Z</time>
      </trkpt>
      <trkpt lat="47.34151" lon="6.44052">
        <ele>501.081</ele>
        <time>2015-10-02T12:50:48Z</time>
      </trkpt>
      <trkpt lat="47.34149" lon="6.44048">
        <ele>499.949</ele>
        <time>2015-10-02T12:50:49Z</time>
      </trkpt>
      <trkpt lat="47.34148" lon="6.44043">
        <ele>501.532</ele>
        <time>2015-10-02T12:50:50Z</time>
      </trkpt>
      <trkpt lat="47.34146" lon="6.4404">
        <ele>502.504</ele>
        <time>2015-10-02T12:50:51Z</time>
      </trkpt>
      <trkpt lat="47.34145" lon="6.44036">
        <ele>502.168</ele>
        <time>2015-10-02T12:50:52Z</time>
      </trkpt>
      <trkpt lat="47.34144" lon="6.44032">
        <ele>501.398</ele>
        <time>2015-10-02T12:50:53Z</time>
      </trkpt>
      <trkpt lat="47.34143" lon="6.44027">
        <ele>501.69</ele>
        <time>2015-10-02T12:50:54Z</time>
      </trkpt>
      <trkpt lat="47.34142" lon="6.44022">
        <ele>500.834</ele>
        <time>2015-10-02T12:50:55Z</time>
      </trkpt>
      <trkpt lat="47.34141" lon="6.44017">
        <ele>501.465</ele>
        <time>2015-10-02T12:50:56Z</time>
      </trkpt>
      <trkpt lat="47.3414" lon="6.44012">
        <ele>503.516</ele>
        <time>2015-10-02T12:50:57Z</time>
      </trkpt>
      <trkpt lat="47.34139" lon="6.44007">
        <ele>504.822</ele>
        <time>2015-10-02T12:50:58Z</time>
      </trkpt>
      <trkpt lat="47.34139" lon="6.44002">
        <ele>505.98</ele>
        <time>2015-10-02T12:50:59Z</time>
      </trkpt>
      <trkpt lat="47.34139" lon="6.43997">
        <ele>505.177</ele>
        <time>2015-10-02T12:51:00Z</time>
      </trkpt>
      <trkpt lat="47.34138" lon="6.43992">
        <ele>505.91</ele>
        <time>2015-10-02T12:51:01Z</time>
      </trkpt>
      <trkpt lat="47.34138" lon="6.43987">
        <ele>505.783</ele>
        <time>2015-10-02T12:51:02Z</time>
      </trkpt>
      <trkpt lat="47.34137" lon="6.43982">
        <ele>507.163</ele>
        <time>2015-10-02T12:51:03Z</time>
      </trkpt>
      <trkpt lat="47.34137" lon="6.43977">
        <ele>506.9</ele>
        <time>2015-10-02T12:51:04Z</time>
      </trkpt>
      <trkpt lat="47.34136" lon="6.43972">
        <ele>507.042</ele>
        <time>2015-10-02T12:51:05Z</time>
      </trkpt>
      <trkpt lat="47.34136" lon="6.43967">
        <ele>505.858</ele>
        <time>2015-10-02T12:51:06Z</time>
      </trkpt>
      <trkpt lat="47.34135" lon="6.43961">
        <ele>506.004</ele>
        <time>2015-10-02T12:51:07Z</time>
      </trkpt>
      <trkpt lat="47.34135" lon="6.43956">
        <ele>505.903</ele>
        <time>2015-10-02T12:51:08Z</time>
      </trkpt>
      <trkpt lat="47.34134" lon="6.4395">
        <ele>506.364</ele>
        <time>2015-10-02T12:51:09Z</time>
      </trkpt>
      <trkpt lat="47.34133" lon="6.43945">
        <ele>506.147</ele>
        <time>2015-10-02T12:51:10Z</time>
      </trkpt>
      <trkpt lat="47.34132" lon="6.43939">
        <ele>505.384</ele>
        <time>2015-10-02T12:51:11Z</time>
      </trkpt>
      <trkpt lat="47.34132" lon="6.43934">
        <ele>506.822</ele>
        <time>2015-10-02T12:51:12Z</time>
      </trkpt>
      <trkpt lat="47.34131" lon="6.43928">
        <ele>508.151</ele>
        <time>2015-10-02T12:51:13Z</time>
      </trkpt>
      <trkpt lat="47.34131" lon="6.43923">
        <ele>507.849</ele>
        <time>2015-10-02T12:51:14Z</time>
      </trkpt>
      <trkpt lat="47.3413" lon="6.43917">
        <ele>506.939</ele>
        <time>2015-10-02T12:51:15Z</time>
      </trkpt>
      <trkpt lat="47.3413" lon="6.43911">
        <ele>508.43</ele>
        <time>2015-10-02T12:51:16Z</time>
      </trkpt>
      <trkpt lat="47.3413" lon="6.43906">
        <ele>510.866</ele>
        <time>2015-10-02T12:51:17Z</time>
      </trkpt>
      <trkpt lat="47.34129" lon="6.43901">
        <ele>509.604</ele>
        <time>2015-10-02T12:51:18Z</time>
      </trkpt>
      <trkpt lat="47.34128" lon="6.43895">
        <ele>509.599</ele>
        <time>2015-10-02T12:51:19Z</time>
      </trkpt>
      <trkpt lat="47.34128" lon="6.43889">
        <ele>510.017</ele>
        <time>2015-10-02T12:51:20Z</time>
      </trkpt>
      <trkpt lat="47.34127" lon="6.43884">
        <ele>509.007</ele>
        <time>2015-10-02T12:51:21Z</time>
      </trkpt>
      <trkpt lat="47.34127" lon="6.43878">
        <ele>507.908</ele>
        <time>2015-10-02T12:51:22Z</time>
      </trkpt>
      <trkpt lat="47.34126" lon="6.43873">
        <ele>508.636</ele>
        <time>2015-10-02T12:51:23Z</time>
      </trkpt>
      <trkpt lat="47.34126" lon="6.43867">
        <ele>508.045</ele>
        <time>2015-10-02T12:51:24Z</time>
      </trkpt>
      <trkpt lat="47.34125" lon="6.43862">
        <ele>509.055</ele>
        <time>2015-10-02T12:51:25Z</time>
      </trkpt>
      <trkpt lat="47.34125" lon="6.43856">
        <ele>507.574</ele>
        <time>2015-10-02T12:51:26Z</time>
      </trkpt>
      <trkpt lat="47.34124" lon="6.4385">
        <ele>509.542</ele>
        <time>2015-10-02T12:51:27Z</time>
      </trkpt>
      <trkpt lat="47.34124" lon="6.43845">
        <ele>509.677</ele>
        <time>2015-10-02T12:51:28Z</time>
      </trkpt>
      <trkpt lat="47.34123" lon="6.4384">
        <ele>508.725</ele>
        <time>2015-10-02T12:51:29Z</time>
      </trkpt>
      <trkpt lat="47.34122" lon="6.43835">
        <ele>508.547</ele>
        <time>2015-10-02T12:51:30Z</time>
      </trkpt>
      <trkpt lat="47.34121" lon="6.4383">
        <ele>509.203</ele>
        <time>2015-10-02T12:51:31Z</time>
      </trkpt>
      <trkpt lat="47.3412" lon="6.43825">
        <ele>510.268</ele>
        <time>2015-10-02T12:51:32Z</time>
      </trkpt>
      <trkpt lat="47.34119" lon="6.4382">
        <ele>510.924</ele>
        <time>2015-10-02T12:51:33Z</time>
      </trkpt>
      <trkpt lat="47.34118" lon="6.43815">
        <ele>511.619</ele>
        <time>2015-10-02T12:51:34Z</time>
      </trkpt>
      <trkpt lat="47.34117" lon="6.43811">
        <ele>512.24</ele>
        <time>2015-10-02T12:51:35Z</time>
      </trkpt>
      <trkpt lat="47.34116" lon="6.43806">
        <ele>512.583</ele>
        <time>2015-10-02T12:51:36Z</time>
      </trkpt>
      <trkpt lat="47.34114" lon="6.43802">
        <ele>513.047</ele>
        <time>2015-10-02T12:51:37Z</time>
      </trkpt>
      <trkpt lat="47.34112" lon="6.43797">
        <ele>513.879</ele>
        <time>2015-10-02T12:51:38Z</time>
      </trkpt>
      <trkpt lat="47.3411" lon="6.43793">
        <ele>514.041</ele>
        <time>2015-10-02T12:51:39Z</time>
      </trkpt>
      <trkpt lat="47.34108" lon="6.43789">
        <ele>514.232</ele>
        <time>2015-10-02T12:51:40Z</time>
      </trkpt>
      <trkpt lat="47.34106" lon="6.43785">
        <ele>513.721</ele>
        <time>2015-10-02T12:51:41Z</time>
      </trkpt>
      <trkpt lat="47.34103" lon="6.4378">
        <ele>513.92</ele>
        <time>2015-10-02T12:51:42Z</time>
      </trkpt>
      <trkpt lat="47.34101" lon="6.43776">
        <ele>513.506</ele>
        <time>2015-10-02T12:51:43Z</time>
      </trkpt>
      <trkpt lat="47.34099" lon="6.43771">
        <ele>513.666</ele>
        <time>2015-10-02T12:51:44Z</time>
      </trkpt>
      <trkpt lat="47.34097" lon="6.43767">
        <ele>513.265</ele>
        <time>2015-10-02T12:51:45Z</time>
      </trkpt>
      <trkpt lat="47.34095" lon="6.43762">
        <ele>513.35</ele>
        <time>2015-10-02T12:51:46Z</time>
      </trkpt>
      <trkpt lat="47.34093" lon="6.43758">
        <ele>513.53</ele>
        <time>2015-10-02T12:51:47Z</time>
      </trkpt>
      <trkpt lat="47.34091" lon="6.43754">
        <ele>513.32</ele>
        <time>2015-10-02T12:51:48Z</time>
      </trkpt>
      <trkpt lat="47.3409" lon="6.43751">
        <ele>513.769</ele>
        <time>2015-10-02T12:51:49Z</time>
      </trkpt>
      <trkpt lat="47.34089" lon="6.43747">
        <ele>514.045</ele>
        <time>2015-10-02T12:51:50Z</time>
      </trkpt>
      <trkpt lat="47.34088" lon="6.43743">
        <ele>514.533</ele>
        <time>2015-10-02T12:51:51Z</time>
      </trkpt>
      <trkpt lat="47.34087" lon="6.43739">
        <ele>514.585</ele>
        <time>2015-10-02T12:51:52Z</time>
      </trkpt>
      <trkpt lat="47.34085" lon="6.43735">
        <ele>514.674</ele>
        <time>2015-10-02T12:51:53Z</time>
      </trkpt>
      <trkpt lat="47.34084" lon="6.43731">
        <ele>513.793</ele>
        <time>2015-10-02T12:51:54Z</time>
      </trkpt>
      <trkpt lat="47.34083" lon="6.43727">
        <ele>514.161</ele>
        <time>2015-10-02T12:51:55Z</time>
      </trkpt>
      <trkpt lat="47.34082" lon="6.43723">
        <ele>514.267</ele>
        <time>2015-10-02T12:51:56Z</time>
      </trkpt>
      <trkpt lat="47.34082" lon="6.4372">
        <ele>513.743</ele>
        <time>2015-10-02T12:51:57Z</time>
      </trkpt>
      <trkpt lat="47.34081" lon="6.43716">
        <ele>514.094</ele>
        <time>2015-10-02T12:51:58Z</time>
      </trkpt>
      <trkpt lat="47.34081" lon="6.43712">
        <ele>514.37</ele>
        <time>2015-10-02T12:51:59Z</time>
      </trkpt>
      <trkpt lat="47.34081" lon="6.43708">
        <ele>515.041</ele>
        <time>2015-10-02T12:52:00Z</time>
      </trkpt>
      <trkpt lat="47.3408" lon="6.43704">
        <ele>516.607</ele>
        <time>2015-10-02T12:52:01Z</time>
      </trkpt>
      <trkpt lat="47.3408" lon="6.437">
        <ele>516.022</ele>
        <time>2015-10-02T12:52:02Z</time>
      </trkpt>
      <trkpt lat="47.3408" lon="6.43696">
        <ele>516.934</ele>
        <time>2015-10-02T12:52:03Z</time>
      </trkpt>
      <trkpt lat="47.34079" lon="6.43693">
        <ele>517.522</ele>
        <time>2015-10-02T12:52:04Z</time>
      </trkpt>
      <trkpt lat="47.34079" lon="6.43689">
        <ele>518.384</ele>
        <time>2015-10-02T12:52:05Z</time>
      </trkpt>
      <trkpt lat="47.34079" lon="6.43685">
        <ele>518.551</ele>
        <time>2015-10-02T12:52:06Z</time>
      </trkpt>
      <trkpt lat="47.34079" lon="6.43681">
        <ele>517.916</ele>
        <time>2015-10-02T12:52:07Z</time>
      </trkpt>
      <trkpt lat="47.34078" lon="6.43676">
        <ele>517.857</ele>
        <time>2015-10-02T12:52:08Z</time>
      </trkpt>
      <trkpt lat="47.34078" lon="6.43672">
        <ele>517.152</ele>
        <time>2015-10-02T12:52:09Z</time>
      </trkpt>
      <trkpt lat="47.34077" lon="6.43668">
        <ele>516.678</ele>
        <time>2015-10-02T12:52:10Z</time>
      </trkpt>
      <trkpt lat="47.34077" lon="6.43664">
        <ele>516.801</ele>
        <time>2015-10-02T12:52:11Z</time>
      </trkpt>
      <trkpt lat="47.34076" lon="6.4366">
        <ele>517.125</ele>
        <time>2015-10-02T12:52:12Z</time>
      </trkpt>
      <trkpt lat="47.34076" lon="6.43656">
        <ele>517.115</ele>
        <time>2015-10-02T12:52:13Z</time>
      </trkpt>
      <trkpt lat="47.34076" lon="6.43652">
        <ele>516.831</ele>
        <time>2015-10-02T12:52:14Z</time>
      </trkpt>
      <trkpt lat="47.34076" lon="6.43648">
        <ele>516.859</ele>
        <time>2015-10-02T12:52:15Z</time>
      </trkpt>
      <trkpt lat="47.34075" lon="6.43644">
        <ele>517.831</ele>
        <time>2015-10-02T12:52:16Z</time>
      </trkpt>
      <trkpt lat="47.34075" lon="6.4364">
        <ele>517.029</ele>
        <time>2015-10-02T12:52:17Z</time>
      </trkpt>
      <trkpt lat="47.34075" lon="6.43636">
        <ele>517.461</ele>
        <time>2015-10-02T12:52:18Z</time>
      </trkpt>
      <trkpt lat="47.34074" lon="6.43632">
        <ele>517.494</ele>
        <time>2015-10-02T12:52:19Z</time>
      </trkpt>
      <trkpt lat="47.34073" lon="6.43628">
        <ele>517.559</ele>
        <time>2015-10-02T12:52:20Z</time>
      </trkpt>
      <trkpt lat="47.34073" lon="6.43624">
        <ele>517.963</ele>
        <time>2015-10-02T12:52:21Z</time>
      </trkpt>
      <trkpt lat="47.34072" lon="6.4362">
        <ele>517.008</ele>
        <time>2015-10-02T12:52:22Z</time>
      </trkpt>
      <trkpt lat="47.34072" lon="6.43616">
        <ele>518.223</ele>
        <time>2015-10-02T12:52:23Z</time>
      </trkpt>
      <trkpt lat="47.34071" lon="6.43612">
        <ele>517.746</ele>
        <time>2015-10-02T12:52:24Z</time>
      </trkpt>
      <trkpt lat="47.3407" lon="6.43609">
        <ele>518.004</ele>
        <time>2015-10-02T12:52:25Z</time>
      </trkpt>
      <trkpt lat="47.3407" lon="6.43605">
        <ele>519.706</ele>
        <time>2015-10-02T12:52:26Z</time>
      </trkpt>
      <trkpt lat="47.34069" lon="6.43601">
        <ele>518.545</ele>
        <time>2015-10-02T12:52:27Z</time>
      </trkpt>
      <trkpt lat="47.34068" lon="6.43597">
        <ele>519.602</ele>
        <time>2015-10-02T12:52:28Z</time>
      </trkpt>
      <trkpt lat="47.34068" lon="6.43594">
        <ele>519.789</ele>
        <time>2015-10-02T12:52:29Z</time>
      </trkpt>
      <trkpt lat="47.34067" lon="6.4359">
        <ele>519.349</ele>
        <time>2015-10-02T12:52:30Z</time>
      </trkpt>
      <trkpt lat="47.34066" lon="6.43587">
        <ele>518.609</ele>
        <time>2015-10-02T12:52:31Z</time>
      </trkpt>
      <trkpt lat="47.34066" lon="6.43583">
        <ele>519.226</ele>
        <time>2015-10-02T12:52:32Z</time>
      </trkpt>
      <trkpt lat="47.34065" lon="6.4358">
        <ele>518.641</ele>
        <time>2015-10-02T12:52:33Z</time>
      </trkpt>
      <trkpt lat="47.34064" lon="6.43576">
        <ele>518.526</ele>
        <time>2015-10-02T12:52:34Z</time>
      </trkpt>
      <trkpt lat="47.34064" lon="6.43572">
        <ele>518.518</ele>
        <time>2015-10-02T12:52:35Z</time>
      </trkpt>
      <trkpt lat="47.34063" lon="6.43569">
        <ele>519.024</ele>
        <time>2015-10-02T12:52:36Z</time>
      </trkpt>
      <trkpt lat="47.34063" lon="6.43565">
        <ele>519.43</ele>
        <time>2015-10-02T12:52:37Z</time>
      </trkpt>
      <trkpt lat="47.34063" lon="6.43561">
        <ele>520.037</ele>
        <time>2015-10-02T12:52:38Z</time>
      </trkpt>
      <trkpt lat="47.34062" lon="6.43558">
        <ele>522.38</ele>
        <time>2015-10-02T12:52:39Z</time>
      </trkpt>
      <trkpt lat="47.34062" lon="6.43555">
        <ele>523.055</ele>
        <time>2015-10-02T12:52:40Z</time>
      </trkpt>
      <trkpt lat="47.34062" lon="6.43551">
        <ele>522.568</ele>
        <time>2015-10-02T12:52:41Z</time>
      </trkpt>
      <trkpt lat="47.34061" lon="6.43548">
        <ele>524.3</ele>
        <time>2015-10-02T12:52:42Z</time>
      </trkpt>
      <trkpt lat="47.3406" lon="6.43544">
        <ele>525.138</ele>
        <time>2015-10-02T12:52:43Z</time>
      </trkpt>
      <trkpt lat="47.3406" lon="6.43541">
        <ele>525.873</ele>
        <time>2015-10-02T12:52:44Z</time>
      </trkpt>
      <trkpt lat="47.34059" lon="6.43538">
        <ele>526.91</ele>
        <time>2015-10-02T12:52:45Z</time>
      </trkpt>
      <trkpt lat="47.34058" lon="6.43535">
        <ele>526.344</ele>
        <time>2015-10-02T12:52:46Z</time>
      </trkpt>
      <trkpt lat="47.34057" lon="6.43532">
        <ele>526.426</ele>
        <time>2015-10-02T12:52:47Z</time>
      </trkpt>
      <trkpt lat="47.34057" lon="6.43529">
        <ele>527.822</ele>
        <time>2015-10-02T12:52:48Z</time>
      </trkpt>
      <trkpt lat="47.34056" lon="6.43526">
        <ele>528.87</ele>
        <time>2015-10-02T12:52:49Z</time>
      </trkpt>
      <trkpt lat="47.34054" lon="6.43523">
        <ele>528.095</ele>
        <time>2015-10-02T12:52:50Z</time>
      </trkpt>
      <trkpt lat="47.34053" lon="6.43519">
        <ele>528.133</ele>
        <time>2015-10-02T12:52:51Z</time>
      </trkpt>
      <trkpt lat="47.34052" lon="6.43516">
        <ele>527.323</ele>
        <time>2015-10-02T12:52:52Z</time>
      </trkpt>
      <trkpt lat="47.34051" lon="6.43512">
        <ele>526.453</ele>
        <time>2015-10-02T12:52:53Z</time>
      </trkpt>
      <trkpt lat="47.34049" lon="6.43509">
        <ele>525.727</ele>
        <time>2015-10-02T12:52:54Z</time>
      </trkpt>
      <trkpt lat="47.34047" lon="6.43506">
        <ele>526.794</ele>
        <time>2015-10-02T12:52:55Z</time>
      </trkpt>
      <trkpt lat="47.34046" lon="6.43502">
        <ele>528.021</ele>
        <time>2015-10-02T12:52:56Z</time>
      </trkpt>
      <trkpt lat="47.34044" lon="6.43499">
        <ele>527.939</ele>
        <time>2015-10-02T12:52:57Z</time>
      </trkpt>
      <trkpt lat="47.34043" lon="6.43496">
        <ele>529.116</ele>
        <time>2015-10-02T12:52:58Z</time>
      </trkpt>
      <trkpt lat="47.34042" lon="6.43493">
        <ele>531.25</ele>
        <time>2015-10-02T12:52:59Z</time>
      </trkpt>
      <trkpt lat="47.34042" lon="6.43489">
        <ele>530.242</ele>
        <time>2015-10-02T12:53:00Z</time>
      </trkpt>
      <trkpt lat="47.34041" lon="6.43486">
        <ele>530.803</ele>
        <time>2015-10-02T12:53:01Z</time>
      </trkpt>
      <trkpt lat="47.3404" lon="6.43482">
        <ele>530.696</ele>
        <time>2015-10-02T12:53:02Z</time>
      </trkpt>
      <trkpt lat="47.3404" lon="6.43478">
        <ele>531.163</ele>
        <time>2015-10-02T12:53:03Z</time>
      </trkpt>
      <trkpt lat="47.34039" lon="6.43475">
        <ele>530.761</ele>
        <time>2015-10-02T12:53:04Z</time>
      </trkpt>
      <trkpt lat="47.34038" lon="6.43471">
        <ele>531.29</ele>
        <time>2015-10-02T12:53:05Z</time>
      </trkpt>
      <trkpt lat="47.34038" lon="6.43467">
        <ele>531.329</ele>
        <time>2015-10-02T12:53:06Z</time>
      </trkpt>
      <trkpt lat="47.34037" lon="6.43464">
        <ele>532.074</ele>
        <time>2015-10-02T12:53:07Z</time>
      </trkpt>
      <trkpt lat="47.34036" lon="6.4346">
        <ele>532.658</ele>
        <time>2015-10-02T12:53:08Z</time>
      </trkpt>
      <trkpt lat="47.34035" lon="6.43457">
        <ele>534.317</ele>
        <time>2015-10-02T12:53:09Z</time>
      </trkpt>
      <trkpt lat="47.34035" lon="6.43454">
        <ele>533.776</ele>
        <time>2015-10-02T12:53:10Z</time>
      </trkpt>
      <trkpt lat="47.34034" lon="6.43451">
        <ele>535.137</ele>
        <time>2015-10-02T12:53:11Z</time>
      </trkpt>
      <trkpt lat="47.34033" lon="6.43448">
        <ele>534.708</ele>
        <time>2015-10-02T12:53:12Z</time>
      </trkpt>
      <trkpt lat="47.34032" lon="6.43446">
        <ele>537.896</ele>
        <time>2015-10-02T12:53:13Z</time>
      </trkpt>
      <trkpt lat="47.34031" lon="6.43443">
        <ele>537.993</ele>
        <time>2015-10-02T12:53:14Z</time>
      </trkpt>
      <trkpt lat="47.3403" lon="6.4344">
        <ele>538.029</ele>
        <time>2015-10-02T12:53:15Z</time>
      </trkpt>
      <trkpt lat="47.34029" lon="6.43437">
        <ele>538.096</ele>
        <time>2015-10-02T12:53:16Z</time>
      </trkpt>
      <trkpt lat="47.34028" lon="6.43433">
        <ele>537.997</ele>
        <time>2015-10-02T12:53:17Z</time>
      </trkpt>
      <trkpt lat="47.34027" lon="6.4343">
        <ele>537.991</ele>
        <time>2015-10-02T12:53:18Z</time>
      </trkpt>
      <trkpt lat="47.34026" lon="6.43427">
        <ele>537.32</ele>
        <time>2015-10-02T12:53:19Z</time>
      </trkpt>
      <trkpt lat="47.34025" lon="6.43423">
        <ele>537.121</ele>
        <time>2015-10-02T12:53:20Z</time>
      </trkpt>
      <trkpt lat="47.34024" lon="6.43419">
        <ele>537.741</ele>
        <time>2015-10-02T12:53:21Z</time>
      </trkpt>
      <trkpt lat="47.34023" lon="6.43415">
        <ele>537.885</ele>
        <time>2015-10-02T12:53:22Z</time>
      </trkpt>
      <trkpt lat="47.34022" lon="6.43411">
        <ele>538.422</ele>
        <time>2015-10-02T12:53:23Z</time>
      </trkpt>
      <trkpt lat="47.34021" lon="6.43408">
        <ele>537.812</ele>
        <time>2015-10-02T12:53:24Z</time>
      </trkpt>
      <trkpt lat="47.3402" lon="6.43404">
        <ele>536.387</ele>
        <time>2015-10-02T12:53:25Z</time>
      </trkpt>
      <trkpt lat="47.34018" lon="6.434">
        <ele>536.519</ele>
        <time>2015-10-02T12:53:26Z</time>
      </trkpt>
      <trkpt lat="47.34017" lon="6.43396">
        <ele>537.346</ele>
        <time>2015-10-02T12:53:27Z</time>
      </trkpt>
      <trkpt lat="47.34016" lon="6.43392">
        <ele>536.67</ele>
        <time>2015-10-02T12:53:28Z</time>
      </trkpt>
      <trkpt lat="47.34015" lon="6.43388">
        <ele>535.584</ele>
        <time>2015-10-02T12:53:29Z</time>
      </trkpt>
      <trkpt lat="47.34013" lon="6.43385">
        <ele>535.851</ele>
        <time>2015-10-02T12:53:30Z</time>
      </trkpt>
      <trkpt lat="47.34012" lon="6.43382">
        <ele>535.225</ele>
        <time>2015-10-02T12:53:31Z</time>
      </trkpt>
      <trkpt lat="47.34011" lon="6.43379">
        <ele>535.341</ele>
        <time>2015-10-02T12:53:32Z</time>
      </trkpt>
      <trkpt lat="47.3401" lon="6.43376">
        <ele>535.271</ele>
        <time>2015-10-02T12:53:33Z</time>
      </trkpt>
      <trkpt lat="47.34008" lon="6.43372">
        <ele>534.934</ele>
        <time>2015-10-02T12:53:34Z</time>
      </trkpt>
      <trkpt lat="47.34007" lon="6.43369">
        <ele>535.843</ele>
        <time>2015-10-02T12:53:35Z</time>
      </trkpt>
      <trkpt lat="47.34005" lon="6.43366">
        <ele>535.847</ele>
        <time>2015-10-02T12:53:36Z</time>
      </trkpt>
      <trkpt lat="47.34004" lon="6.43362">
        <ele>536.342</ele>
        <time>2015-10-02T12:53:37Z</time>
      </trkpt>
      <trkpt lat="47.34003" lon="6.43359">
        <ele>535.7</ele>
        <time>2015-10-02T12:53:38Z</time>
      </trkpt>
      <trkpt lat="47.34001" lon="6.43356">
        <ele>535.819</ele>
        <time>2015-10-02T12:53:39Z</time>
      </trkpt>
      <trkpt lat="47.33999" lon="6.43353">
        <ele>535.368</ele>
        <time>2015-10-02T12:53:40Z</time>
      </trkpt>
      <trkpt lat="47.33998" lon="6.43349">
        <ele>534.977</ele>
        <time>2015-10-02T12:53:41Z</time>
      </trkpt>
      <trkpt lat="47.33996" lon="6.43347">
        <ele>534.311</ele>
        <time>2015-10-02T12:53:42Z</time>
      </trkpt>
      <trkpt lat="47.33994" lon="6.43344">
        <ele>535.405</ele>
        <time>2015-10-02T12:53:43Z</time>
      </trkpt>
      <trkpt lat="47.33991" lon="6.43342">
        <ele>535.013</ele>
        <time>2015-10-02T12:53:44Z</time>
      </trkpt>
      <trkpt lat="47.33989" lon="6.43339">
        <ele>534.989</ele>
        <time>2015-10-02T12:53:45Z</time>
      </trkpt>
      <trkpt lat="47.33987" lon="6.43337">
        <ele>534.161</ele>
        <time>2015-10-02T12:53:46Z</time>
      </trkpt>
      <trkpt lat="47.33985" lon="6.43334">
        <ele>535.196</ele>
        <time>2015-10-02T12:53:47Z</time>
      </trkpt>
      <trkpt lat="47.33984" lon="6.43332">
        <ele>535.008</ele>
        <time>2015-10-02T12:53:48Z</time>
      </trkpt>
      <trkpt lat="47.33982" lon="6.43329">
        <ele>535.368</ele>
        <time>2015-10-02T12:53:49Z</time>
      </trkpt>
      <trkpt lat="47.3398" lon="6.43326">
        <ele>534.377</ele>
        <time>2015-10-02T12:53:50Z</time>
      </trkpt>
      <trkpt lat="47.33978" lon="6.43323">
        <ele>533.553</ele>
        <time>2015-10-02T12:53:51Z</time>
      </trkpt>
      <trkpt lat="47.33976" lon="6.4332">
        <ele>533.993</ele>
        <time>2015-10-02T12:53:52Z</time>
      </trkpt>
      <trkpt lat="47.33974" lon="6.43318">
        <ele>535.813</ele>
        <time>2015-10-02T12:53:53Z</time>
      </trkpt>
      <trkpt lat="47.33973" lon="6.43316">
        <ele>535.57</ele>
        <time>2015-10-02T12:53:54Z</time>
      </trkpt>
      <trkpt lat="47.33971" lon="6.43313">
        <ele>534.66</ele>
        <time>2015-10-02T12:53:55Z</time>
      </trkpt>
      <trkpt lat="47.33969" lon="6.4331">
        <ele>533.496</ele>
        <time>2015-10-02T12:53:56Z</time>
      </trkpt>
      <trkpt lat="47.33967" lon="6.43307">
        <ele>532.992</ele>
        <time>2015-10-02T12:53:57Z</time>
      </trkpt>
      <trkpt lat="47.33965" lon="6.43304">
        <ele>532.538</ele>
        <time>2015-10-02T12:53:58Z</time>
      </trkpt>
      <trkpt lat="47.33963" lon="6.43302">
        <ele>531.76</ele>
        <time>2015-10-02T12:53:59Z</time>
      </trkpt>
      <trkpt lat="47.33961" lon="6.433">
        <ele>532.319</ele>
        <time>2015-10-02T12:54:00Z</time>
      </trkpt>
      <trkpt lat="47.33959" lon="6.43297">
        <ele>532.301</ele>
        <time>2015-10-02T12:54:01Z</time>
      </trkpt>
      <trkpt lat="47.33957" lon="6.43295">
        <ele>532.462</ele>
        <time>2015-10-02T12:54:02Z</time>
      </trkpt>
      <trkpt lat="47.33955" lon="6.43292">
        <ele>532.385</ele>
        <time>2015-10-02T12:54:03Z</time>
      </trkpt>
      <trkpt lat="47.33953" lon="6.4329">
        <ele>531.862</ele>
        <time>2015-10-02T12:54:04Z</time>
      </trkpt>
      <trkpt lat="47.33951" lon="6.43287">
        <ele>531.5</ele>
        <time>2015-10-02T12:54:05Z</time>
      </trkpt>
      <trkpt lat="47.33949" lon="6.43284">
        <ele>532.446</ele>
        <time>2015-10-02T12:54:06Z</time>
      </trkpt>
      <trkpt lat="47.33948" lon="6.43281">
        <ele>532.688</ele>
        <time>2015-10-02T12:54:07Z</time>
      </trkpt>
      <trkpt lat="47.33946" lon="6.43278">
        <ele>530.392</ele>
        <time>2015-10-02T12:54:08Z</time>
      </trkpt>
      <trkpt lat="47.33945" lon="6.43274">
        <ele>531.605</ele>
        <time>2015-10-02T12:54:09Z</time>
      </trkpt>
      <trkpt lat="47.33943" lon="6.43271">
        <ele>531.397</ele>
        <time>2015-10-02T12:54:10Z</time>
      </trkpt>
      <trkpt lat="47.33942" lon="6.43267">
        <ele>531.354</ele>
        <time>2015-10-02T12:54:11Z</time>
      </trkpt>
      <trkpt lat="47.33941" lon="6.43263">
        <ele>530.087</ele>
        <time>2015-10-02T12:54:12Z</time>
      </trkpt>
      <trkpt lat="47.3394" lon="6.4326">
        <ele>529.59</ele>
        <time>2015-10-02T12:54:13Z</time>
      </trkpt>
      <trkpt lat="47.33939" lon="6.43256">
        <ele>528.525</ele>
        <time>2015-10-02T12:54:14Z</time>
      </trkpt>
      <trkpt lat="47.33937" lon="6.43252">
        <ele>528.283</ele>
        <time>2015-10-02T12:54:15Z</time>
      </trkpt>
      <trkpt lat="47.33936" lon="6.43248">
        <ele>526.38</ele>
        <time>2015-10-02T12:54:16Z</time>
      </trkpt>
      <trkpt lat="47.33935" lon="6.43244">
        <ele>526.605</ele>
        <time>2015-10-02T12:54:17Z</time>
      </trkpt>
      <trkpt lat="47.33935" lon="6.4324">
        <ele>527.108</ele>
        <time>2015-10-02T12:54:18Z</time>
      </trkpt>
      <trkpt lat="47.33934" lon="6.43235">
        <ele>527.645</ele>
        <time>2015-10-02T12:54:19Z</time>
      </trkpt>
      <trkpt lat="47.33934" lon="6.43231">
        <ele>528.863</ele>
        <time>2015-10-02T12:54:20Z</time>
      </trkpt>
      <trkpt lat="47.33934" lon="6.43228">
        <ele>529.142</ele>
        <time>2015-10-02T12:54:21Z</time>
      </trkpt>
      <trkpt lat="47.33934" lon="6.43224">
        <ele>526.372</ele>
        <time>2015-10-02T12:54:22Z</time>
      </trkpt>
      <trkpt lat="47.33934" lon="6.43221">
        <ele>525.054</ele>
        <time>2015-10-02T12:54:23Z</time>
      </trkpt>
      <trkpt lat="47.33934" lon="6.43218">
        <ele>525.727</ele>
        <time>2015-10-02T12:54:24Z</time>
      </trkpt>
      <trkpt lat="47.33934" lon="6.43216">
        <ele>525.602</ele>
        <time>2015-10-02T12:54:25Z</time>
      </trkpt>
      <trkpt lat="47.33933" lon="6.43214">
        <ele>525.015</ele>
        <time>2015-10-02T12:54:26Z</time>
      </trkpt>
      <trkpt lat="47.33933" lon="6.43211">
        <ele>525.726</ele>
        <time>2015-10-02T12:54:27Z</time>
      </trkpt>
      <trkpt lat="47.33932" lon="6.4321">
        <ele>526.184</ele>
        <time>2015-10-02T12:54:28Z</time>
      </trkpt>
      <trkpt lat="47.33931" lon="6.43208">
        <ele>525.691</ele>
        <time>2015-10-02T12:54:29Z</time>
      </trkpt>
      <trkpt lat="47.3393" lon="6.43206">
        <ele>525.371</ele>
        <time>2015-10-02T12:54:30Z</time>
      </trkpt>
      <trkpt lat="47.33928" lon="6.43204">
        <ele>524.647</ele>
        <time>2015-10-02T12:54:31Z</time>
      </trkpt>
      <trkpt lat="47.33927" lon="6.43202">
        <ele>525.218</ele>
        <time>2015-10-02T12:54:32Z</time>
      </trkpt>
      <trkpt lat="47.33926" lon="6.432">
        <ele>525.388</ele>
        <time>2015-10-02T12:54:33Z</time>
      </trkpt>
      <trkpt lat="47.33924" lon="6.43198">
        <ele>525.651</ele>
        <time>2015-10-02T12:54:34Z</time>
      </trkpt>
      <trkpt lat="47.33923" lon="6.43195">
        <ele>525.598</ele>
        <time>2015-10-02T12:54:35Z</time>
      </trkpt>
      <trkpt lat="47.33921" lon="6.43192">
        <ele>525.458</ele>
        <time>2015-10-02T12:54:36Z</time>
      </trkpt>
      <trkpt lat="47.33919" lon="6.43189">
        <ele>524.865</ele>
        <time>2015-10-02T12:54:37Z</time>
      </trkpt>
      <trkpt lat="47.33917" lon="6.43185">
        <ele>524.679</ele>
        <time>2015-10-02T12:54:38Z</time>
      </trkpt>
      <trkpt lat="47.33916" lon="6.43182">
        <ele>525.014</ele>
        <time>2015-10-02T12:54:39Z</time>
      </trkpt>
      <trkpt lat="47.33914" lon="6.43179">
        <ele>524.146</ele>
        <time>2015-10-02T12:54:40Z</time>
      </trkpt>
      <trkpt lat="47.33912" lon="6.43175">
        <ele>524.402</ele>
        <time>2015-10-02T12:54:41Z</time>
      </trkpt>
      <trkpt lat="47.33911" lon="6.43173">
        <ele>525.974</ele>
        <time>2015-10-02T12:54:42Z</time>
      </trkpt>
      <trkpt lat="47.3391" lon="6.4317">
        <ele>526.342</ele>
        <time>2015-10-02T12:54:43Z</time>
      </trkpt>
      <trkpt lat="47.33908" lon="6.43168">
        <ele>527.64</ele>
        <time>2015-10-02T12:54:44Z</time>
      </trkpt>
      <trkpt lat="47.33907" lon="6.43166">
        <ele>527.686</ele>
        <time>2015-10-02T12:54:45Z</time>
      </trkpt>
      <trkpt lat="47.33906" lon="6.43163">
        <ele>527.766</ele>
        <time>2015-10-02T12:54:46Z</time>
      </trkpt>
      <trkpt lat="47.33905" lon="6.4316">
        <ele>526.95</ele>
        <time>2015-10-02T12:54:47Z</time>
      </trkpt>
      <trkpt lat="47.33904" lon="6.43158">
        <ele>526.619</ele>
        <time>2015-10-02T12:54:48Z</time>
      </trkpt>
      <trkpt lat="47.33903" lon="6.43156">
        <ele>525.097</ele>
        <time>2015-10-02T12:54:49Z</time>
      </trkpt>
      <trkpt lat="47.33905" lon="6.43159">
        <ele>528.142</ele>
        <time>2015-10-02T12:55:06Z</time>
      </trkpt>
      <trkpt lat="47.33906" lon="6.43158">
        <ele>526.993</ele>
        <time>2015-10-02T12:55:17Z</time>
      </trkpt>
      <trkpt lat="47.33906" lon="6.43157">
        <ele>526.691</ele>
        <time>2015-10-02T12:55:19Z</time>
      </trkpt>
      <trkpt lat="47.33905" lon="6.43155">
        <ele>524.743</ele>
        <time>2015-10-02T12:58:47Z</time>
      </trkpt>
      <trkpt lat="47.33905" lon="6.43156">
        <ele>523.822</ele>
        <time>2015-10-02T12:58:49Z</time>
      </trkpt>
      <trkpt lat="47.33905" lon="6.43158">
        <ele>524.349</ele>
        <time>2015-10-02T12:58:52Z</time>
      </trkpt>
      <trkpt lat="47.33904" lon="6.43157">
        <ele>523.862</ele>
        <time>2015-10-02T12:58:54Z</time>
      </trkpt>
      <trkpt lat="47.33902" lon="6.43156">
        <ele>523.844</ele>
        <time>2015-10-02T12:58:55Z</time>
      </trkpt>
      <trkpt lat="47.33901" lon="6.43156">
        <ele>523.306</ele>
        <time>2015-10-02T12:58:56Z</time>
      </trkpt>
      <trkpt lat="47.339" lon="6.43156">
        <ele>523.3</ele>
        <time>2015-10-02T12:58:58Z</time>
      </trkpt>
      <trkpt lat="47.33899" lon="6.43155">
        <ele>522.119</ele>
        <time>2015-10-02T12:59:01Z</time>
      </trkpt>
      <trkpt lat="47.339" lon="6.43154">
        <ele>522.484</ele>
        <time>2015-10-02T12:59:03Z</time>
      </trkpt>
      <trkpt lat="47.339" lon="6.43152">
        <ele>524.987</ele>
        <time>2015-10-02T13:01:22Z</time>
      </trkpt>
      <trkpt lat="47.33899" lon="6.43151">
        <ele>524.382</ele>
        <time>2015-10-02T13:02:15Z</time>
      </trkpt>
      <trkpt lat="47.33898" lon="6.43152">
        <ele>522.095</ele>
        <time>2015-10-02T13:03:23Z</time>
      </trkpt>
      <trkpt lat="47.33899" lon="6.43153">
        <ele>522.317</ele>
        <time>2015-10-02T13:03:34Z</time>
      </trkpt>
      <trkpt lat="47.339" lon="6.43154">
        <ele>522.804</ele>
        <time>2015-10-02T13:03:35Z</time>
      </trkpt>
      <trkpt lat="47.33902" lon="6.43154">
        <ele>523.652</ele>
        <time>2015-10-02T13:03:36Z</time>
      </trkpt>
      <trkpt lat="47.33903" lon="6.43155">
        <ele>523.712</ele>
        <time>2015-10-02T13:03:37Z</time>
      </trkpt>
      <trkpt lat="47.33904" lon="6.43156">
        <ele>524.131</ele>
        <time>2015-10-02T13:03:38Z</time>
      </trkpt>
      <trkpt lat="47.33905" lon="6.43157">
        <ele>524.522</ele>
        <time>2015-10-02T13:03:39Z</time>
      </trkpt>
      <trkpt lat="47.33906" lon="6.43157">
        <ele>525.05</ele>
        <time>2015-10-02T13:03:41Z</time>
      </trkpt>
      <trkpt lat="47.33906" lon="6.43159">
        <ele>526.104</ele>
        <time>2015-10-02T13:04:15Z</time>
      </trkpt>
      <trkpt lat="47.33906" lon="6.43156">
        <ele>525.813</ele>
        <time>2015-10-02T13:05:51Z</time>
      </trkpt>
      <trkpt lat="47.33905" lon="6.43156">
        <ele>525.549</ele>
        <time>2015-10-02T13:05:54Z</time>
      </trkpt>
      <trkpt lat="47.33904" lon="6.43157">
        <ele>526.75</ele>
        <time>2015-10-02T13:05:56Z</time>
      </trkpt>
      <trkpt lat="47.33901" lon="6.43156">
        <ele>528.759</ele>
        <time>2015-10-02T13:05:58Z</time>
      </trkpt>
      <trkpt lat="47.339" lon="6.43155">
        <ele>529.99</ele>
        <time>2015-10-02T13:05:59Z</time>
      </trkpt>
      <trkpt lat="47.33899" lon="6.43153">
        <ele>529.606</ele>
        <time>2015-10-02T13:06:00Z</time>
      </trkpt>
      <trkpt lat="47.33897" lon="6.4315">
        <ele>529.443</ele>
        <time>2015-10-02T13:06:01Z</time>
      </trkpt>
      <trkpt lat="47.33895" lon="6.43147">
        <ele>529.143</ele>
        <time>2015-10-02T13:06:02Z</time>
      </trkpt>
      <trkpt lat="47.33892" lon="6.43144">
        <ele>530.318</ele>
        <time>2015-10-02T13:06:03Z</time>
      </trkpt>
      <trkpt lat="47.3389" lon="6.43142">
        <ele>530.58</ele>
        <time>2015-10-02T13:06:04Z</time>
      </trkpt>
      <trkpt lat="47.33887" lon="6.43139">
        <ele>530.732</ele>
        <time>2015-10-02T13:06:05Z</time>
      </trkpt>
      <trkpt lat="47.33884" lon="6.43137">
        <ele>531.451</ele>
        <time>2015-10-02T13:06:06Z</time>
      </trkpt>
      <trkpt lat="47.33881" lon="6.43135">
        <ele>531.188</ele>
        <time>2015-10-02T13:06:07Z</time>
      </trkpt>
      <trkpt lat="47.33878" lon="6.43133">
        <ele>530.858</ele>
        <time>2015-10-02T13:06:08Z</time>
      </trkpt>
      <trkpt lat="47.33875" lon="6.4313">
        <ele>531.888</ele>
        <time>2015-10-02T13:06:09Z</time>
      </trkpt>
      <trkpt lat="47.33873" lon="6.43127">
        <ele>532.485</ele>
        <time>2015-10-02T13:06:10Z</time>
      </trkpt>
      <trkpt lat="47.33871" lon="6.43124">
        <ele>531.939</ele>
        <time>2015-10-02T13:06:11Z</time>
      </trkpt>
      <trkpt lat="47.33868" lon="6.43121">
        <ele>531.827</ele>
        <time>2015-10-02T13:06:12Z</time>
      </trkpt>
      <trkpt lat="47.33866" lon="6.43118">
        <ele>530.904</ele>
        <time>2015-10-02T13:06:13Z</time>
      </trkpt>
      <trkpt lat="47.33863" lon="6.43115">
        <ele>530.209</ele>
        <time>2015-10-02T13:06:14Z</time>
      </trkpt>
      <trkpt lat="47.33861" lon="6.43111">
        <ele>529.196</ele>
        <time>2015-10-02T13:06:15Z</time>
      </trkpt>
      <trkpt lat="47.33859" lon="6.43107">
        <ele>529.489</ele>
        <time>2015-10-02T13:06:16Z</time>
      </trkpt>
      <trkpt lat="47.33857" lon="6.43103">
        <ele>528.838</ele>
        <time>2015-10-02T13:06:17Z</time>
      </trkpt>
      <trkpt lat="47.33854" lon="6.43098">
        <ele>528.507</ele>
        <time>2015-10-02T13:06:18Z</time>
      </trkpt>
      <trkpt lat="47.33851" lon="6.43093">
        <ele>526.833</ele>
        <time>2015-10-02T13:06:19Z</time>
      </trkpt>
      <trkpt lat="47.33848" lon="6.43088">
        <ele>526.127</ele>
        <time>2015-10-02T13:06:20Z</time>
      </trkpt>
      <trkpt lat="47.33846" lon="6.43083">
        <ele>525.781</ele>
        <time>2015-10-02T13:06:21Z</time>
      </trkpt>
      <trkpt lat="47.33844" lon="6.43078">
        <ele>524.568</ele>
        <time>2015-10-02T13:06:22Z</time>
      </trkpt>
      <trkpt lat="47.33842" lon="6.43074">
        <ele>523.361</ele>
        <time>2015-10-02T13:06:23Z</time>
      </trkpt>
      <trkpt lat="47.3384" lon="6.43069">
        <ele>522.426</ele>
        <time>2015-10-02T13:06:24Z</time>
      </trkpt>
      <trkpt lat="47.33838" lon="6.43063">
        <ele>520.942</ele>
        <time>2015-10-02T13:06:25Z</time>
      </trkpt>
      <trkpt lat="47.33838" lon="6.43057">
        <ele>520.673</ele>
        <time>2015-10-02T13:06:26Z</time>
      </trkpt>
      <trkpt lat="47.33838" lon="6.43051">
        <ele>520.561</ele>
        <time>2015-10-02T13:06:27Z</time>
      </trkpt>
      <trkpt lat="47.33838" lon="6.43046">
        <ele>521.067</ele>
        <time>2015-10-02T13:06:28Z</time>
      </trkpt>
      <trkpt lat="47.33839" lon="6.4304">
        <ele>521.711</ele>
        <time>2015-10-02T13:06:29Z</time>
      </trkpt>
      <trkpt lat="47.33842" lon="6.43032">
        <ele>521.659</ele>
        <time>2015-10-02T13:06:30Z</time>
      </trkpt>
      <trkpt lat="47.33843" lon="6.43023">
        <ele>518.825</ele>
        <time>2015-10-02T13:06:31Z</time>
      </trkpt>
      <trkpt lat="47.33843" lon="6.43013">
        <ele>518.561</ele>
        <time>2015-10-02T13:06:32Z</time>
      </trkpt>
      <trkpt lat="47.33843" lon="6.43005">
        <ele>518.629</ele>
        <time>2015-10-02T13:06:33Z</time>
      </trkpt>
      <trkpt lat="47.33842" lon="6.42998">
        <ele>518.512</ele>
        <time>2015-10-02T13:06:34Z</time>
      </trkpt>
      <trkpt lat="47.33842" lon="6.42991">
        <ele>519.053</ele>
        <time>2015-10-02T13:06:35Z</time>
      </trkpt>
      <trkpt lat="47.33841" lon="6.42984">
        <ele>519.653</ele>
        <time>2015-10-02T13:06:36Z</time>
      </trkpt>
      <trkpt lat="47.33841" lon="6.42978">
        <ele>519.734</ele>
        <time>2015-10-02T13:06:37Z</time>
      </trkpt>
      <trkpt lat="47.33838" lon="6.42971">
        <ele>515.005</ele>
        <time>2015-10-02T13:06:38Z</time>
      </trkpt>
      <trkpt lat="47.33839" lon="6.42966">
        <ele>515.462</ele>
        <time>2015-10-02T13:06:39Z</time>
      </trkpt>
      <trkpt lat="47.33841" lon="6.4296">
        <ele>517.263</ele>
        <time>2015-10-02T13:06:40Z</time>
      </trkpt>
      <trkpt lat="47.33841" lon="6.42955">
        <ele>518.653</ele>
        <time>2015-10-02T13:06:41Z</time>
      </trkpt>
      <trkpt lat="47.33843" lon="6.42949">
        <ele>518.782</ele>
        <time>2015-10-02T13:06:42Z</time>
      </trkpt>
      <trkpt lat="47.33844" lon="6.42944">
        <ele>520.402</ele>
        <time>2015-10-02T13:06:43Z</time>
      </trkpt>
      <trkpt lat="47.33846" lon="6.4294">
        <ele>519.177</ele>
        <time>2015-10-02T13:06:44Z</time>
      </trkpt>
      <trkpt lat="47.33847" lon="6.42934">
        <ele>520.097</ele>
        <time>2015-10-02T13:06:45Z</time>
      </trkpt>
      <trkpt lat="47.33849" lon="6.42929">
        <ele>519.662</ele>
        <time>2015-10-02T13:06:46Z</time>
      </trkpt>
      <trkpt lat="47.3385" lon="6.42924">
        <ele>519.652</ele>
        <time>2015-10-02T13:06:47Z</time>
      </trkpt>
      <trkpt lat="47.33852" lon="6.42918">
        <ele>519.606</ele>
        <time>2015-10-02T13:06:48Z</time>
      </trkpt>
      <trkpt lat="47.33853" lon="6.42913">
        <ele>518.252</ele>
        <time>2015-10-02T13:06:49Z</time>
      </trkpt>
      <trkpt lat="47.33855" lon="6.42908">
        <ele>515.236</ele>
        <time>2015-10-02T13:06:50Z</time>
      </trkpt>
      <trkpt lat="47.33856" lon="6.42902">
        <ele>516.718</ele>
        <time>2015-10-02T13:06:51Z</time>
      </trkpt>
      <trkpt lat="47.33858" lon="6.42896">
        <ele>518.031</ele>
        <time>2015-10-02T13:06:52Z</time>
      </trkpt>
      <trkpt lat="47.33859" lon="6.4289">
        <ele>518.361</ele>
        <time>2015-10-02T13:06:53Z</time>
      </trkpt>
      <trkpt lat="47.33859" lon="6.42885">
        <ele>519.308</ele>
        <time>2015-10-02T13:06:54Z</time>
      </trkpt>
      <trkpt lat="47.3386" lon="6.42878">
        <ele>519.856</ele>
        <time>2015-10-02T13:06:55Z</time>
      </trkpt>
      <trkpt lat="47.3386" lon="6.4287">
        <ele>517.439</ele>
        <time>2015-10-02T13:06:56Z</time>
      </trkpt>
      <trkpt lat="47.33861" lon="6.42862">
        <ele>517.613</ele>
        <time>2015-10-02T13:06:57Z</time>
      </trkpt>
      <trkpt lat="47.33862" lon="6.42854">
        <ele>517.004</ele>
        <time>2015-10-02T13:06:58Z</time>
      </trkpt>
      <trkpt lat="47.33862" lon="6.42853">
        <ele>517.466</ele>
        <time>2015-10-02T13:06:59Z</time>
      </trkpt>
      <trkpt lat="47.33864" lon="6.4284">
        <ele>514.456</ele>
        <time>2015-10-02T13:07:00Z</time>
      </trkpt>
      <trkpt lat="47.33865" lon="6.42834">
        <ele>515.189</ele>
        <time>2015-10-02T13:07:01Z</time>
      </trkpt>
      <trkpt lat="47.33865" lon="6.42831">
        <ele>514.524</ele>
        <time>2015-10-02T13:07:02Z</time>
      </trkpt>
      <trkpt lat="47.33868" lon="6.42823">
        <ele>513.36</ele>
        <time>2015-10-02T13:07:03Z</time>
      </trkpt>
      <trkpt lat="47.33871" lon="6.42814">
        <ele>513.878</ele>
        <time>2015-10-02T13:07:04Z</time>
      </trkpt>
      <trkpt lat="47.33874" lon="6.42806">
        <ele>512.995</ele>
        <time>2015-10-02T13:07:05Z</time>
      </trkpt>
      <trkpt lat="47.33876" lon="6.42796">
        <ele>510.569</ele>
        <time>2015-10-02T13:07:06Z</time>
      </trkpt>
      <trkpt lat="47.33879" lon="6.42788">
        <ele>508.974</ele>
        <time>2015-10-02T13:07:07Z</time>
      </trkpt>
      <trkpt lat="47.33882" lon="6.42779">
        <ele>508.806</ele>
        <time>2015-10-02T13:07:08Z</time>
      </trkpt>
      <trkpt lat="47.33886" lon="6.42769">
        <ele>509.35</ele>
        <time>2015-10-02T13:07:09Z</time>
      </trkpt>
      <trkpt lat="47.33892" lon="6.4276">
        <ele>509.306</ele>
        <time>2015-10-02T13:07:10Z</time>
      </trkpt>
      <trkpt lat="47.33897" lon="6.4275">
        <ele>508.971</ele>
        <time>2015-10-02T13:07:11Z</time>
      </trkpt>
      <trkpt lat="47.33904" lon="6.42731">
        <ele>507.052</ele>
        <time>2015-10-02T13:07:12Z</time>
      </trkpt>
      <trkpt lat="47.33909" lon="6.42724">
        <ele>506.934</ele>
        <time>2015-10-02T13:07:13Z</time>
      </trkpt>
      <trkpt lat="47.33915" lon="6.42715">
        <ele>506.764</ele>
        <time>2015-10-02T13:07:14Z</time>
      </trkpt>
      <trkpt lat="47.33921" lon="6.42705">
        <ele>505.942</ele>
        <time>2015-10-02T13:07:15Z</time>
      </trkpt>
      <trkpt lat="47.33927" lon="6.42695">
        <ele>506.248</ele>
        <time>2015-10-02T13:07:16Z</time>
      </trkpt>
      <trkpt lat="47.33933" lon="6.42686">
        <ele>505.735</ele>
        <time>2015-10-02T13:07:17Z</time>
      </trkpt>
      <trkpt lat="47.3394" lon="6.42677">
        <ele>506.842</ele>
        <time>2015-10-02T13:07:18Z</time>
      </trkpt>
      <trkpt lat="47.33945" lon="6.4267">
        <ele>506.5</ele>
        <time>2015-10-02T13:07:19Z</time>
      </trkpt>
      <trkpt lat="47.3395" lon="6.4266">
        <ele>506.225</ele>
        <time>2015-10-02T13:07:20Z</time>
      </trkpt>
      <trkpt lat="47.33955" lon="6.42653">
        <ele>503.521</ele>
        <time>2015-10-02T13:07:21Z</time>
      </trkpt>
      <trkpt lat="47.3396" lon="6.4264">
        <ele>501.683</ele>
        <time>2015-10-02T13:07:22Z</time>
      </trkpt>
      <trkpt lat="47.33965" lon="6.4263">
        <ele>501.32</ele>
        <time>2015-10-02T13:07:23Z</time>
      </trkpt>
      <trkpt lat="47.3397" lon="6.42622">
        <ele>500.805</ele>
        <time>2015-10-02T13:07:24Z</time>
      </trkpt>
      <trkpt lat="47.33975" lon="6.42614">
        <ele>499.528</ele>
        <time>2015-10-02T13:07:25Z</time>
      </trkpt>
      <trkpt lat="47.33982" lon="6.42608">
        <ele>500.035</ele>
        <time>2015-10-02T13:07:26Z</time>
      </trkpt>
      <trkpt lat="47.33988" lon="6.42603">
        <ele>500.496</ele>
        <time>2015-10-02T13:07:27Z</time>
      </trkpt>
      <trkpt lat="47.33997" lon="6.42598">
        <ele>502.607</ele>
        <time>2015-10-02T13:07:28Z</time>
      </trkpt>
      <trkpt lat="47.34005" lon="6.42595">
        <ele>503.957</ele>
        <time>2015-10-02T13:07:29Z</time>
      </trkpt>
      <trkpt lat="47.34013" lon="6.4259">
        <ele>503.325</ele>
        <time>2015-10-02T13:07:30Z</time>
      </trkpt>
      <trkpt lat="47.34021" lon="6.4259">
        <ele>505.606</ele>
        <time>2015-10-02T13:07:31Z</time>
      </trkpt>
      <trkpt lat="47.34029" lon="6.4259">
        <ele>504.935</ele>
        <time>2015-10-02T13:07:32Z</time>
      </trkpt>
      <trkpt lat="47.34037" lon="6.42589">
        <ele>504.624</ele>
        <time>2015-10-02T13:07:33Z</time>
      </trkpt>
      <trkpt lat="47.34046" lon="6.42591">
        <ele>504.405</ele>
        <time>2015-10-02T13:07:34Z</time>
      </trkpt>
      <trkpt lat="47.34056" lon="6.42593">
        <ele>503.774</ele>
        <time>2015-10-02T13:07:35Z</time>
      </trkpt>
      <trkpt lat="47.34065" lon="6.42595">
        <ele>504.848</ele>
        <time>2015-10-02T13:07:36Z</time>
      </trkpt>
      <trkpt lat="47.34074" lon="6.42594">
        <ele>504.306</ele>
        <time>2015-10-02T13:07:37Z</time>
      </trkpt>
      <trkpt lat="47.34083" lon="6.42593">
        <ele>503.286</ele>
        <time>2015-10-02T13:07:38Z</time>
      </trkpt>
      <trkpt lat="47.34092" lon="6.42593">
        <ele>502.751</ele>
        <time>2015-10-02T13:07:39Z</time>
      </trkpt>
      <trkpt lat="47.34103" lon="6.42591">
        <ele>502.898</ele>
        <time>2015-10-02T13:07:40Z</time>
      </trkpt>
      <trkpt lat="47.34112" lon="6.42592">
        <ele>503.697</ele>
        <time>2015-10-02T13:07:41Z</time>
      </trkpt>
      <trkpt lat="47.34121" lon="6.42593">
        <ele>503.554</ele>
        <time>2015-10-02T13:07:42Z</time>
      </trkpt>
      <trkpt lat="47.3413" lon="6.42593">
        <ele>504.044</ele>
        <time>2015-10-02T13:07:43Z</time>
      </trkpt>
      <trkpt lat="47.34137" lon="6.42595">
        <ele>504.243</ele>
        <time>2015-10-02T13:07:44Z</time>
      </trkpt>
      <trkpt lat="47.34149" lon="6.42603">
        <ele>504.534</ele>
        <time>2015-10-02T13:07:45Z</time>
      </trkpt>
      <trkpt lat="47.34158" lon="6.42609">
        <ele>504.79</ele>
        <time>2015-10-02T13:07:46Z</time>
      </trkpt>
      <trkpt lat="47.34166" lon="6.42618">
        <ele>503.229</ele>
        <time>2015-10-02T13:07:47Z</time>
      </trkpt>
      <trkpt lat="47.3417" lon="6.42628">
        <ele>503.197</ele>
        <time>2015-10-02T13:07:48Z</time>
      </trkpt>
      <trkpt lat="47.34176" lon="6.42637">
        <ele>499.801</ele>
        <time>2015-10-02T13:07:49Z</time>
      </trkpt>
      <trkpt lat="47.3418" lon="6.42647">
        <ele>499.33</ele>
        <time>2015-10-02T13:07:50Z</time>
      </trkpt>
      <trkpt lat="47.34186" lon="6.42658">
        <ele>499.358</ele>
        <time>2015-10-02T13:07:51Z</time>
      </trkpt>
      <trkpt lat="47.34192" lon="6.42667">
        <ele>498.876</ele>
        <time>2015-10-02T13:07:52Z</time>
      </trkpt>
      <trkpt lat="47.34198" lon="6.42677">
        <ele>498.396</ele>
        <time>2015-10-02T13:07:53Z</time>
      </trkpt>
      <trkpt lat="47.34203" lon="6.42688">
        <ele>498.178</ele>
        <time>2015-10-02T13:07:54Z</time>
      </trkpt>
      <trkpt lat="47.34211" lon="6.42694">
        <ele>495.082</ele>
        <time>2015-10-02T13:07:55Z</time>
      </trkpt>
      <trkpt lat="47.34217" lon="6.42703">
        <ele>494.711</ele>
        <time>2015-10-02T13:07:56Z</time>
      </trkpt>
      <trkpt lat="47.34224" lon="6.42709">
        <ele>494.375</ele>
        <time>2015-10-02T13:07:57Z</time>
      </trkpt>
      <trkpt lat="47.34231" lon="6.42714">
        <ele>495.325</ele>
        <time>2015-10-02T13:07:58Z</time>
      </trkpt>
      <trkpt lat="47.34239" lon="6.42719">
        <ele>495.202</ele>
        <time>2015-10-02T13:07:59Z</time>
      </trkpt>
      <trkpt lat="47.34247" lon="6.42719">
        <ele>495.488</ele>
        <time>2015-10-02T13:08:00Z</time>
      </trkpt>
      <trkpt lat="47.34257" lon="6.42716">
        <ele>494.232</ele>
        <time>2015-10-02T13:08:01Z</time>
      </trkpt>
      <trkpt lat="47.34264" lon="6.42712">
        <ele>494.135</ele>
        <time>2015-10-02T13:08:02Z</time>
      </trkpt>
      <trkpt lat="47.34268" lon="6.42705">
        <ele>494.981</ele>
        <time>2015-10-02T13:08:03Z</time>
      </trkpt>
      <trkpt lat="47.34271" lon="6.42694">
        <ele>495.881</ele>
        <time>2015-10-02T13:08:04Z</time>
      </trkpt>
      <trkpt lat="47.34272" lon="6.42681">
        <ele>492.517</ele>
        <time>2015-10-02T13:08:05Z</time>
      </trkpt>
      <trkpt lat="47.34271" lon="6.42671">
        <ele>492.739</ele>
        <time>2015-10-02T13:08:06Z</time>
      </trkpt>
      <trkpt lat="47.34272" lon="6.42658">
        <ele>489.787</ele>
        <time>2015-10-02T13:08:07Z</time>
      </trkpt>
      <trkpt lat="47.3427" lon="6.42647">
        <ele>488.888</ele>
        <time>2015-10-02T13:08:08Z</time>
      </trkpt>
      <trkpt lat="47.34268" lon="6.42635">
        <ele>488.562</ele>
        <time>2015-10-02T13:08:09Z</time>
      </trkpt>
      <trkpt lat="47.34266" lon="6.42622">
        <ele>484.854</ele>
        <time>2015-10-02T13:08:10Z</time>
      </trkpt>
      <trkpt lat="47.34264" lon="6.42609">
        <ele>482.741</ele>
        <time>2015-10-02T13:08:11Z</time>
      </trkpt>
      <trkpt lat="47.34261" lon="6.42598">
        <ele>482.583</ele>
        <time>2015-10-02T13:08:12Z</time>
      </trkpt>
      <trkpt lat="47.34259" lon="6.42587">
        <ele>482.368</ele>
        <time>2015-10-02T13:08:13Z</time>
      </trkpt>
      <trkpt lat="47.34256" lon="6.42577">
        <ele>481.389</ele>
        <time>2015-10-02T13:08:14Z</time>
      </trkpt>
      <trkpt lat="47.34254" lon="6.42566">
        <ele>482.803</ele>
        <time>2015-10-02T13:08:15Z</time>
      </trkpt>
      <trkpt lat="47.34251" lon="6.42555">
        <ele>484.554</ele>
        <time>2015-10-02T13:08:16Z</time>
      </trkpt>
      <trkpt lat="47.34249" lon="6.42543">
        <ele>485.92</ele>
        <time>2015-10-02T13:08:17Z</time>
      </trkpt>
      <trkpt lat="47.34247" lon="6.42534">
        <ele>486.356</ele>
        <time>2015-10-02T13:08:18Z</time>
      </trkpt>
      <trkpt lat="47.34243" lon="6.42523">
        <ele>485.056</ele>
        <time>2015-10-02T13:08:19Z</time>
      </trkpt>
      <trkpt lat="47.34242" lon="6.42516">
        <ele>490.569</ele>
        <time>2015-10-02T13:08:20Z</time>
      </trkpt>
      <trkpt lat="47.3424" lon="6.42506">
        <ele>489.822</ele>
        <time>2015-10-02T13:08:21Z</time>
      </trkpt>
      <trkpt lat="47.34238" lon="6.42495">
        <ele>487.605</ele>
        <time>2015-10-02T13:08:22Z</time>
      </trkpt>
      <trkpt lat="47.34234" lon="6.42485">
        <ele>485.811</ele>
        <time>2015-10-02T13:08:23Z</time>
      </trkpt>
      <trkpt lat="47.34232" lon="6.42478">
        <ele>484.979</ele>
        <time>2015-10-02T13:08:24Z</time>
      </trkpt>
      <trkpt lat="47.34228" lon="6.42468">
        <ele>484.616</ele>
        <time>2015-10-02T13:08:25Z</time>
      </trkpt>
      <trkpt lat="47.34224" lon="6.42457">
        <ele>483.588</ele>
        <time>2015-10-02T13:08:26Z</time>
      </trkpt>
      <trkpt lat="47.3422" lon="6.42447">
        <ele>484.258</ele>
        <time>2015-10-02T13:08:27Z</time>
      </trkpt>
      <trkpt lat="47.34216" lon="6.42437">
        <ele>483.828</ele>
        <time>2015-10-02T13:08:28Z</time>
      </trkpt>
      <trkpt lat="47.34213" lon="6.42426">
        <ele>485.08</ele>
        <time>2015-10-02T13:08:29Z</time>
      </trkpt>
      <trkpt lat="47.34208" lon="6.42414">
        <ele>483.395</ele>
        <time>2015-10-02T13:08:30Z</time>
      </trkpt>
      <trkpt lat="47.34202" lon="6.42403">
        <ele>483.014</ele>
        <time>2015-10-02T13:08:31Z</time>
      </trkpt>
      <trkpt lat="47.34198" lon="6.42395">
        <ele>479.824</ele>
        <time>2015-10-02T13:08:32Z</time>
      </trkpt>
      <trkpt lat="47.34196" lon="6.42388">
        <ele>479.704</ele>
        <time>2015-10-02T13:08:33Z</time>
      </trkpt>
      <trkpt lat="47.34193" lon="6.42379">
        <ele>479.745</ele>
        <time>2015-10-02T13:08:34Z</time>
      </trkpt>
      <trkpt lat="47.34191" lon="6.4237">
        <ele>478.76</ele>
        <time>2015-10-02T13:08:35Z</time>
      </trkpt>
      <trkpt lat="47.34187" lon="6.42362">
        <ele>476.816</ele>
        <time>2015-10-02T13:08:36Z</time>
      </trkpt>
      <trkpt lat="47.34184" lon="6.42354">
        <ele>475.71</ele>
        <time>2015-10-02T13:08:37Z</time>
      </trkpt>
      <trkpt lat="47.34181" lon="6.42347">
        <ele>476.531</ele>
        <time>2015-10-02T13:08:38Z</time>
      </trkpt>
      <trkpt lat="47.3418" lon="6.42341">
        <ele>476.029</ele>
        <time>2015-10-02T13:08:39Z</time>
      </trkpt>
      <trkpt lat="47.34177" lon="6.42334">
        <ele>476.465</ele>
        <time>2015-10-02T13:08:40Z</time>
      </trkpt>
      <trkpt lat="47.34175" lon="6.42327">
        <ele>475.714</ele>
        <time>2015-10-02T13:08:41Z</time>
      </trkpt>
      <trkpt lat="47.34173" lon="6.4232">
        <ele>476.071</ele>
        <time>2015-10-02T13:08:42Z</time>
      </trkpt>
      <trkpt lat="47.34171" lon="6.42314">
        <ele>475.401</ele>
        <time>2015-10-02T13:08:43Z</time>
      </trkpt>
      <trkpt lat="47.34169" lon="6.42308">
        <ele>475.455</ele>
        <time>2015-10-02T13:08:44Z</time>
      </trkpt>
      <trkpt lat="47.34167" lon="6.42301">
        <ele>475.667</ele>
        <time>2015-10-02T13:08:45Z</time>
      </trkpt>
      <trkpt lat="47.34165" lon="6.42294">
        <ele>475.458</ele>
        <time>2015-10-02T13:08:46Z</time>
      </trkpt>
      <trkpt lat="47.34163" lon="6.42288">
        <ele>475.286</ele>
        <time>2015-10-02T13:08:47Z</time>
      </trkpt>
      <trkpt lat="47.34161" lon="6.42281">
        <ele>475.809</ele>
        <time>2015-10-02T13:08:48Z</time>
      </trkpt>
      <trkpt lat="47.34158" lon="6.42273">
        <ele>474.404</ele>
        <time>2015-10-02T13:08:49Z</time>
      </trkpt>
      <trkpt lat="47.34156" lon="6.42266">
        <ele>474.325</ele>
        <time>2015-10-02T13:08:50Z</time>
      </trkpt>
      <trkpt lat="47.34154" lon="6.42259">
        <ele>474.314</ele>
        <time>2015-10-02T13:08:51Z</time>
      </trkpt>
      <trkpt lat="47.34151" lon="6.42253">
        <ele>473.573</ele>
        <time>2015-10-02T13:08:52Z</time>
      </trkpt>
      <trkpt lat="47.34149" lon="6.42246">
        <ele>473.517</ele>
        <time>2015-10-02T13:08:53Z</time>
      </trkpt>
      <trkpt lat="47.34146" lon="6.42239">
        <ele>473.669</ele>
        <time>2015-10-02T13:08:54Z</time>
      </trkpt>
      <trkpt lat="47.34144" lon="6.42231">
        <ele>473.328</ele>
        <time>2015-10-02T13:08:55Z</time>
      </trkpt>
      <trkpt lat="47.34141" lon="6.42223">
        <ele>472.806</ele>
        <time>2015-10-02T13:08:56Z</time>
      </trkpt>
      <trkpt lat="47.34137" lon="6.42215">
        <ele>471.705</ele>
        <time>2015-10-02T13:08:57Z</time>
      </trkpt>
      <trkpt lat="47.34134" lon="6.42206">
        <ele>471.215</ele>
        <time>2015-10-02T13:08:58Z</time>
      </trkpt>
      <trkpt lat="47.34132" lon="6.42197">
        <ele>471.905</ele>
        <time>2015-10-02T13:08:59Z</time>
      </trkpt>
      <trkpt lat="47.34129" lon="6.4219">
        <ele>470.811</ele>
        <time>2015-10-02T13:09:00Z</time>
      </trkpt>
      <trkpt lat="47.34125" lon="6.4218">
        <ele>469.578</ele>
        <time>2015-10-02T13:09:01Z</time>
      </trkpt>
      <trkpt lat="47.34123" lon="6.42172">
        <ele>469.962</ele>
        <time>2015-10-02T13:09:02Z</time>
      </trkpt>
      <trkpt lat="47.3412" lon="6.42162">
        <ele>468.825</ele>
        <time>2015-10-02T13:09:03Z</time>
      </trkpt>
      <trkpt lat="47.34117" lon="6.42153">
        <ele>468.775</ele>
        <time>2015-10-02T13:09:04Z</time>
      </trkpt>
      <trkpt lat="47.34115" lon="6.42143">
        <ele>469.261</ele>
        <time>2015-10-02T13:09:05Z</time>
      </trkpt>
      <trkpt lat="47.34113" lon="6.42134">
        <ele>469.626</ele>
        <time>2015-10-02T13:09:06Z</time>
      </trkpt>
      <trkpt lat="47.34112" lon="6.42126">
        <ele>468.868</ele>
        <time>2015-10-02T13:09:07Z</time>
      </trkpt>
      <trkpt lat="47.34109" lon="6.42117">
        <ele>467.286</ele>
        <time>2015-10-02T13:09:08Z</time>
      </trkpt>
      <trkpt lat="47.34106" lon="6.42107">
        <ele>467.947</ele>
        <time>2015-10-02T13:09:09Z</time>
      </trkpt>
      <trkpt lat="47.34103" lon="6.42098">
        <ele>467.912</ele>
        <time>2015-10-02T13:09:10Z</time>
      </trkpt>
      <trkpt lat="47.34105" lon="6.42091">
        <ele>468.835</ele>
        <time>2015-10-02T13:09:11Z</time>
      </trkpt>
      <trkpt lat="47.34101" lon="6.42078">
        <ele>468.82</ele>
        <time>2015-10-02T13:09:12Z</time>
      </trkpt>
      <trkpt lat="47.34098" lon="6.42068">
        <ele>469.4</ele>
        <time>2015-10-02T13:09:13Z</time>
      </trkpt>
      <trkpt lat="47.34096" lon="6.42058">
        <ele>468.92</ele>
        <time>2015-10-02T13:09:14Z</time>
      </trkpt>
      <trkpt lat="47.34093" lon="6.42047">
        <ele>468.735</ele>
        <time>2015-10-02T13:09:15Z</time>
      </trkpt>
      <trkpt lat="47.3409" lon="6.42038">
        <ele>468.527</ele>
        <time>2015-10-02T13:09:16Z</time>
      </trkpt>
      <trkpt lat="47.34088" lon="6.42028">
        <ele>469.106</ele>
        <time>2015-10-02T13:09:17Z</time>
      </trkpt>
      <trkpt lat="47.34086" lon="6.4202">
        <ele>470.308</ele>
        <time>2015-10-02T13:09:18Z</time>
      </trkpt>
      <trkpt lat="47.34083" lon="6.42009">
        <ele>470.125</ele>
        <time>2015-10-02T13:09:19Z</time>
      </trkpt>
      <trkpt lat="47.3408" lon="6.41999">
        <ele>468.95</ele>
        <time>2015-10-02T13:09:20Z</time>
      </trkpt>
      <trkpt lat="47.34072" lon="6.41985">
        <ele>463.359</ele>
        <time>2015-10-02T13:09:21Z</time>
      </trkpt>
      <trkpt lat="47.3407" lon="6.41975">
        <ele>463.594</ele>
        <time>2015-10-02T13:09:22Z</time>
      </trkpt>
      <trkpt lat="47.34068" lon="6.41963">
        <ele>462.322</ele>
        <time>2015-10-02T13:09:23Z</time>
      </trkpt>
      <trkpt lat="47.34067" lon="6.41954">
        <ele>462.208</ele>
        <time>2015-10-02T13:09:24Z</time>
      </trkpt>
      <trkpt lat="47.34065" lon="6.41942">
        <ele>460.567</ele>
        <time>2015-10-02T13:09:25Z</time>
      </trkpt>
      <trkpt lat="47.34062" lon="6.4193">
        <ele>460.368</ele>
        <time>2015-10-02T13:09:26Z</time>
      </trkpt>
      <trkpt lat="47.34058" lon="6.41918">
        <ele>459.438</ele>
        <time>2015-10-02T13:09:27Z</time>
      </trkpt>
      <trkpt lat="47.34055" lon="6.41907">
        <ele>459.42</ele>
        <time>2015-10-02T13:09:28Z</time>
      </trkpt>
      <trkpt lat="47.34052" lon="6.41895">
        <ele>459.379</ele>
        <time>2015-10-02T13:09:29Z</time>
      </trkpt>
      <trkpt lat="47.34049" lon="6.41884">
        <ele>458.918</ele>
        <time>2015-10-02T13:09:30Z</time>
      </trkpt>
      <trkpt lat="47.34046" lon="6.41872">
        <ele>458.942</ele>
        <time>2015-10-02T13:09:31Z</time>
      </trkpt>
      <trkpt lat="47.34043" lon="6.4186">
        <ele>456.522</ele>
        <time>2015-10-02T13:09:32Z</time>
      </trkpt>
      <trkpt lat="47.34039" lon="6.41846">
        <ele>455.189</ele>
        <time>2015-10-02T13:09:33Z</time>
      </trkpt>
      <trkpt lat="47.34034" lon="6.41834">
        <ele>454.581</ele>
        <time>2015-10-02T13:09:34Z</time>
      </trkpt>
      <trkpt lat="47.3403" lon="6.4182">
        <ele>454.359</ele>
        <time>2015-10-02T13:09:35Z</time>
      </trkpt>
      <trkpt lat="47.34025" lon="6.41807">
        <ele>454.377</ele>
        <time>2015-10-02T13:09:36Z</time>
      </trkpt>
      <trkpt lat="47.34019" lon="6.4179">
        <ele>451.767</ele>
        <time>2015-10-02T13:09:37Z</time>
      </trkpt>
      <trkpt lat="47.34015" lon="6.41777">
        <ele>451.798</ele>
        <time>2015-10-02T13:09:38Z</time>
      </trkpt>
      <trkpt lat="47.34011" lon="6.41764">
        <ele>451.147</ele>
        <time>2015-10-02T13:09:39Z</time>
      </trkpt>
      <trkpt lat="47.34007" lon="6.4175">
        <ele>450.835</ele>
        <time>2015-10-02T13:09:40Z</time>
      </trkpt>
      <trkpt lat="47.34002" lon="6.41737">
        <ele>450.627</ele>
        <time>2015-10-02T13:09:41Z</time>
      </trkpt>
      <trkpt lat="47.33995" lon="6.41723">
        <ele>447.651</ele>
        <time>2015-10-02T13:09:42Z</time>
      </trkpt>
      <trkpt lat="47.33991" lon="6.4171">
        <ele>445.206</ele>
        <time>2015-10-02T13:09:43Z</time>
      </trkpt>
      <trkpt lat="47.33985" lon="6.41695">
        <ele>441.438</ele>
        <time>2015-10-02T13:09:44Z</time>
      </trkpt>
      <trkpt lat="47.3398" lon="6.41682">
        <ele>441.735</ele>
        <time>2015-10-02T13:09:45Z</time>
      </trkpt>
      <trkpt lat="47.33974" lon="6.41668">
        <ele>439.509</ele>
        <time>2015-10-02T13:09:46Z</time>
      </trkpt>
      <trkpt lat="47.3397" lon="6.41654">
        <ele>439.026</ele>
        <time>2015-10-02T13:09:47Z</time>
      </trkpt>
      <trkpt lat="47.33964" lon="6.4164">
        <ele>437.657</ele>
        <time>2015-10-02T13:09:48Z</time>
      </trkpt>
      <trkpt lat="47.33961" lon="6.41626">
        <ele>436.995</ele>
        <time>2015-10-02T13:09:49Z</time>
      </trkpt>
      <trkpt lat="47.33958" lon="6.41612">
        <ele>435.826</ele>
        <time>2015-10-02T13:09:50Z</time>
      </trkpt>
      <trkpt lat="47.33953" lon="6.41599">
        <ele>439.28</ele>
        <time>2015-10-02T13:09:51Z</time>
      </trkpt>
      <trkpt lat="47.33951" lon="6.41585">
        <ele>438.411</ele>
        <time>2015-10-02T13:09:52Z</time>
      </trkpt>
      <trkpt lat="47.33941" lon="6.41568">
        <ele>432.976</ele>
        <time>2015-10-02T13:09:53Z</time>
      </trkpt>
      <trkpt lat="47.33937" lon="6.41554">
        <ele>433.4</ele>
        <time>2015-10-02T13:09:54Z</time>
      </trkpt>
      <trkpt lat="47.33934" lon="6.41541">
        <ele>434.043</ele>
        <time>2015-10-02T13:09:55Z</time>
      </trkpt>
      <trkpt lat="47.33931" lon="6.41527">
        <ele>433.367</ele>
        <time>2015-10-02T13:09:56Z</time>
      </trkpt>
      <trkpt lat="47.33927" lon="6.41512">
        <ele>432.682</ele>
        <time>2015-10-02T13:09:57Z</time>
      </trkpt>
      <trkpt lat="47.33922" lon="6.41497">
        <ele>432.885</ele>
        <time>2015-10-02T13:09:58Z</time>
      </trkpt>
      <trkpt lat="47.33918" lon="6.41482">
        <ele>433.251</ele>
        <time>2015-10-02T13:09:59Z</time>
      </trkpt>
      <trkpt lat="47.33914" lon="6.41468">
        <ele>433.271</ele>
        <time>2015-10-02T13:10:00Z</time>
      </trkpt>
      <trkpt lat="47.33911" lon="6.41455">
        <ele>433.944</ele>
        <time>2015-10-02T13:10:01Z</time>
      </trkpt>
      <trkpt lat="47.33908" lon="6.41442">
        <ele>434.258</ele>
        <time>2015-10-02T13:10:02Z</time>
      </trkpt>
      <trkpt lat="47.33904" lon="6.41429">
        <ele>433.525</ele>
        <time>2015-10-02T13:10:03Z</time>
      </trkpt>
      <trkpt lat="47.33901" lon="6.41416">
        <ele>433.763</ele>
        <time>2015-10-02T13:10:04Z</time>
      </trkpt>
      <trkpt lat="47.33897" lon="6.41402">
        <ele>433.093</ele>
        <time>2015-10-02T13:10:05Z</time>
      </trkpt>
      <trkpt lat="47.33894" lon="6.41389">
        <ele>433.118</ele>
        <time>2015-10-02T13:10:06Z</time>
      </trkpt>
      <trkpt lat="47.3389" lon="6.41375">
        <ele>432.764</ele>
        <time>2015-10-02T13:10:07Z</time>
      </trkpt>
      <trkpt lat="47.33886" lon="6.41362">
        <ele>432.507</ele>
        <time>2015-10-02T13:10:08Z</time>
      </trkpt>
      <trkpt lat="47.3388" lon="6.41349">
        <ele>431.745</ele>
        <time>2015-10-02T13:10:09Z</time>
      </trkpt>
      <trkpt lat="47.33876" lon="6.41337">
        <ele>431.483</ele>
        <time>2015-10-02T13:10:10Z</time>
      </trkpt>
      <trkpt lat="47.3387" lon="6.41324">
        <ele>430.769</ele>
        <time>2015-10-02T13:10:11Z</time>
      </trkpt>
      <trkpt lat="47.33866" lon="6.41311">
        <ele>429.595</ele>
        <time>2015-10-02T13:10:12Z</time>
      </trkpt>
      <trkpt lat="47.33864" lon="6.41297">
        <ele>429.622</ele>
        <time>2015-10-02T13:10:13Z</time>
      </trkpt>
      <trkpt lat="47.33864" lon="6.41283">
        <ele>429.007</ele>
        <time>2015-10-02T13:10:14Z</time>
      </trkpt>
      <trkpt lat="47.33865" lon="6.41269">
        <ele>428.941</ele>
        <time>2015-10-02T13:10:15Z</time>
      </trkpt>
      <trkpt lat="47.33868" lon="6.41255">
        <ele>428.683</ele>
        <time>2015-10-02T13:10:16Z</time>
      </trkpt>
      <trkpt lat="47.33876" lon="6.41247">
        <ele>428.952</ele>
        <time>2015-10-02T13:10:17Z</time>
      </trkpt>
      <trkpt lat="47.33884" lon="6.41239">
        <ele>429.743</ele>
        <time>2015-10-02T13:10:18Z</time>
      </trkpt>
      <trkpt lat="47.33893" lon="6.41228">
        <ele>427.641</ele>
        <time>2015-10-02T13:10:19Z</time>
      </trkpt>
      <trkpt lat="47.33901" lon="6.41218">
        <ele>427.719</ele>
        <time>2015-10-02T13:10:20Z</time>
      </trkpt>
      <trkpt lat="47.33908" lon="6.41207">
        <ele>427.928</ele>
        <time>2015-10-02T13:10:21Z</time>
      </trkpt>
      <trkpt lat="47.3391" lon="6.41194">
        <ele>427.623</ele>
        <time>2015-10-02T13:10:22Z</time>
      </trkpt>
      <trkpt lat="47.3391" lon="6.41181">
        <ele>426.837</ele>
        <time>2015-10-02T13:10:23Z</time>
      </trkpt>
      <trkpt lat="47.33909" lon="6.41167">
        <ele>427.12</ele>
        <time>2015-10-02T13:10:24Z</time>
      </trkpt>
      <trkpt lat="47.33906" lon="6.41153">
        <ele>427.242</ele>
        <time>2015-10-02T13:10:25Z</time>
      </trkpt>
      <trkpt lat="47.33903" lon="6.41139">
        <ele>426.657</ele>
        <time>2015-10-02T13:10:26Z</time>
      </trkpt>
      <trkpt lat="47.33899" lon="6.41127">
        <ele>426.989</ele>
        <time>2015-10-02T13:10:27Z</time>
      </trkpt>
      <trkpt lat="47.33896" lon="6.41114">
        <ele>426.506</ele>
        <time>2015-10-02T13:10:28Z</time>
      </trkpt>
      <trkpt lat="47.33892" lon="6.41102">
        <ele>425.249</ele>
        <time>2015-10-02T13:10:29Z</time>
      </trkpt>
      <trkpt lat="47.33888" lon="6.41088">
        <ele>423.528</ele>
        <time>2015-10-02T13:10:30Z</time>
      </trkpt>
      <trkpt lat="47.33886" lon="6.41073">
        <ele>423.123</ele>
        <time>2015-10-02T13:10:31Z</time>
      </trkpt>
      <trkpt lat="47.33883" lon="6.41058">
        <ele>422.417</ele>
        <time>2015-10-02T13:10:32Z</time>
      </trkpt>
      <trkpt lat="47.33881" lon="6.41044">
        <ele>421.672</ele>
        <time>2015-10-02T13:10:33Z</time>
      </trkpt>
      <trkpt lat="47.33881" lon="6.4103">
        <ele>420.321</ele>
        <time>2015-10-02T13:10:34Z</time>
      </trkpt>
      <trkpt lat="47.33881" lon="6.41016">
        <ele>420.384</ele>
        <time>2015-10-02T13:10:35Z</time>
      </trkpt>
      <trkpt lat="47.3388" lon="6.41002">
        <ele>419.162</ele>
        <time>2015-10-02T13:10:36Z</time>
      </trkpt>
      <trkpt lat="47.33882" lon="6.40988">
        <ele>419.276</ele>
        <time>2015-10-02T13:10:37Z</time>
      </trkpt>
      <trkpt lat="47.33884" lon="6.40971">
        <ele>418.839</ele>
        <time>2015-10-02T13:10:38Z</time>
      </trkpt>
      <trkpt lat="47.33883" lon="6.40957">
        <ele>417.512</ele>
        <time>2015-10-02T13:10:39Z</time>
      </trkpt>
      <trkpt lat="47.33882" lon="6.40941">
        <ele>417.859</ele>
        <time>2015-10-02T13:10:40Z</time>
      </trkpt>
      <trkpt lat="47.33879" lon="6.40927">
        <ele>416.013</ele>
        <time>2015-10-02T13:10:41Z</time>
      </trkpt>
      <trkpt lat="47.3388" lon="6.40913">
        <ele>413.891</ele>
        <time>2015-10-02T13:10:42Z</time>
      </trkpt>
      <trkpt lat="47.33878" lon="6.40898">
        <ele>413.404</ele>
        <time>2015-10-02T13:10:43Z</time>
      </trkpt>
      <trkpt lat="47.33876" lon="6.40884">
        <ele>413.479</ele>
        <time>2015-10-02T13:10:44Z</time>
      </trkpt>
      <trkpt lat="47.33875" lon="6.40871">
        <ele>413.857</ele>
        <time>2015-10-02T13:10:45Z</time>
      </trkpt>
      <trkpt lat="47.33869" lon="6.40854">
        <ele>413.042</ele>
        <time>2015-10-02T13:10:46Z</time>
      </trkpt>
      <trkpt lat="47.33867" lon="6.4084">
        <ele>412.97</ele>
        <time>2015-10-02T13:10:47Z</time>
      </trkpt>
      <trkpt lat="47.33865" lon="6.40824">
        <ele>408.603</ele>
        <time>2015-10-02T13:10:48Z</time>
      </trkpt>
      <trkpt lat="47.33864" lon="6.40809">
        <ele>409.601</ele>
        <time>2015-10-02T13:10:49Z</time>
      </trkpt>
      <trkpt lat="47.33864" lon="6.40795">
        <ele>410.327</ele>
        <time>2015-10-02T13:10:50Z</time>
      </trkpt>
      <trkpt lat="47.33862" lon="6.40781">
        <ele>411.89</ele>
        <time>2015-10-02T13:10:51Z</time>
      </trkpt>
      <trkpt lat="47.33857" lon="6.40767">
        <ele>409.69</ele>
        <time>2015-10-02T13:10:52Z</time>
      </trkpt>
      <trkpt lat="47.33853" lon="6.40753">
        <ele>409.857</ele>
        <time>2015-10-02T13:10:53Z</time>
      </trkpt>
      <trkpt lat="47.3385" lon="6.40739">
        <ele>409.534</ele>
        <time>2015-10-02T13:10:54Z</time>
      </trkpt>
      <trkpt lat="47.33846" lon="6.40727">
        <ele>410.273</ele>
        <time>2015-10-02T13:10:55Z</time>
      </trkpt>
      <trkpt lat="47.33842" lon="6.40714">
        <ele>412.088</ele>
        <time>2015-10-02T13:10:56Z</time>
      </trkpt>
      <trkpt lat="47.33836" lon="6.40699">
        <ele>410.937</ele>
        <time>2015-10-02T13:10:57Z</time>
      </trkpt>
      <trkpt lat="47.3383" lon="6.40685">
        <ele>410.898</ele>
        <time>2015-10-02T13:10:58Z</time>
      </trkpt>
      <trkpt lat="47.33824" lon="6.40672">
        <ele>412.53</ele>
        <time>2015-10-02T13:10:59Z</time>
      </trkpt>
      <trkpt lat="47.33818" lon="6.4066">
        <ele>413.464</ele>
        <time>2015-10-02T13:11:00Z</time>
      </trkpt>
      <trkpt lat="47.33812" lon="6.40647">
        <ele>413.711</ele>
        <time>2015-10-02T13:11:01Z</time>
      </trkpt>
      <trkpt lat="47.33807" lon="6.40634">
        <ele>411.638</ele>
        <time>2015-10-02T13:11:02Z</time>
      </trkpt>
      <trkpt lat="47.33801" lon="6.40621">
        <ele>411.767</ele>
        <time>2015-10-02T13:11:03Z</time>
      </trkpt>
      <trkpt lat="47.33795" lon="6.40608">
        <ele>411.861</ele>
        <time>2015-10-02T13:11:04Z</time>
      </trkpt>
      <trkpt lat="47.33792" lon="6.40592">
        <ele>411.323</ele>
        <time>2015-10-02T13:11:05Z</time>
      </trkpt>
      <trkpt lat="47.3379" lon="6.40577">
        <ele>409.38</ele>
        <time>2015-10-02T13:11:06Z</time>
      </trkpt>
      <trkpt lat="47.33792" lon="6.40563">
        <ele>407.784</ele>
        <time>2015-10-02T13:11:07Z</time>
      </trkpt>
      <trkpt lat="47.33795" lon="6.40548">
        <ele>405.492</ele>
        <time>2015-10-02T13:11:08Z</time>
      </trkpt>
      <trkpt lat="47.338" lon="6.40535">
        <ele>405.642</ele>
        <time>2015-10-02T13:11:09Z</time>
      </trkpt>
      <trkpt lat="47.33804" lon="6.40522">
        <ele>404.455</ele>
        <time>2015-10-02T13:11:10Z</time>
      </trkpt>
      <trkpt lat="47.33809" lon="6.40508">
        <ele>403.63</ele>
        <time>2015-10-02T13:11:11Z</time>
      </trkpt>
      <trkpt lat="47.33813" lon="6.40491">
        <ele>403.073</ele>
        <time>2015-10-02T13:11:12Z</time>
      </trkpt>
      <trkpt lat="47.33815" lon="6.40471">
        <ele>398.711</ele>
        <time>2015-10-02T13:11:13Z</time>
      </trkpt>
      <trkpt lat="47.33814" lon="6.40454">
        <ele>399.575</ele>
        <time>2015-10-02T13:11:14Z</time>
      </trkpt>
      <trkpt lat="47.3381" lon="6.40442">
        <ele>399.194</ele>
        <time>2015-10-02T13:11:15Z</time>
      </trkpt>
      <trkpt lat="47.33806" lon="6.4043">
        <ele>398.993</ele>
        <time>2015-10-02T13:11:16Z</time>
      </trkpt>
      <trkpt lat="47.338" lon="6.40417">
        <ele>399.357</ele>
        <time>2015-10-02T13:11:17Z</time>
      </trkpt>
      <trkpt lat="47.33795" lon="6.40406">
        <ele>398.248</ele>
        <time>2015-10-02T13:11:18Z</time>
      </trkpt>
      <trkpt lat="47.3379" lon="6.40393">
        <ele>397.004</ele>
        <time>2015-10-02T13:11:19Z</time>
      </trkpt>
      <trkpt lat="47.33787" lon="6.40382">
        <ele>394.428</ele>
        <time>2015-10-02T13:11:20Z</time>
      </trkpt>
      <trkpt lat="47.33787" lon="6.40368">
        <ele>393.352</ele>
        <time>2015-10-02T13:11:21Z</time>
      </trkpt>
      <trkpt lat="47.33791" lon="6.40352">
        <ele>392.458</ele>
        <time>2015-10-02T13:11:22Z</time>
      </trkpt>
      <trkpt lat="47.33791" lon="6.40338">
        <ele>392.374</ele>
        <time>2015-10-02T13:11:23Z</time>
      </trkpt>
      <trkpt lat="47.3379" lon="6.40323">
        <ele>392.046</ele>
        <time>2015-10-02T13:11:24Z</time>
      </trkpt>
      <trkpt lat="47.33785" lon="6.40308">
        <ele>389.401</ele>
        <time>2015-10-02T13:11:25Z</time>
      </trkpt>
      <trkpt lat="47.33779" lon="6.40294">
        <ele>386.615</ele>
        <time>2015-10-02T13:11:26Z</time>
      </trkpt>
      <trkpt lat="47.33776" lon="6.4028">
        <ele>386.421</ele>
        <time>2015-10-02T13:11:27Z</time>
      </trkpt>
      <trkpt lat="47.3377" lon="6.40268">
        <ele>386.175</ele>
        <time>2015-10-02T13:11:28Z</time>
      </trkpt>
      <trkpt lat="47.33765" lon="6.40253">
        <ele>384.422</ele>
        <time>2015-10-02T13:11:29Z</time>
      </trkpt>
      <trkpt lat="47.33758" lon="6.4024">
        <ele>383.055</ele>
        <time>2015-10-02T13:11:30Z</time>
      </trkpt>
      <trkpt lat="47.33754" lon="6.40225">
        <ele>382.515</ele>
        <time>2015-10-02T13:11:31Z</time>
      </trkpt>
      <trkpt lat="47.33749" lon="6.40212">
        <ele>383.386</ele>
        <time>2015-10-02T13:11:32Z</time>
      </trkpt>
      <trkpt lat="47.33744" lon="6.402">
        <ele>382.5</ele>
        <time>2015-10-02T13:11:33Z</time>
      </trkpt>
      <trkpt lat="47.3374" lon="6.40185">
        <ele>380.687</ele>
        <time>2015-10-02T13:11:34Z</time>
      </trkpt>
      <trkpt lat="47.33735" lon="6.4017">
        <ele>380.855</ele>
        <time>2015-10-02T13:11:35Z</time>
      </trkpt>
      <trkpt lat="47.33731" lon="6.40157">
        <ele>380.892</ele>
        <time>2015-10-02T13:11:36Z</time>
      </trkpt>
      <trkpt lat="47.33727" lon="6.40143">
        <ele>380.88</ele>
        <time>2015-10-02T13:11:37Z</time>
      </trkpt>
      <trkpt lat="47.33723" lon="6.4013">
        <ele>379.698</ele>
        <time>2015-10-02T13:11:38Z</time>
      </trkpt>
      <trkpt lat="47.33718" lon="6.40116">
        <ele>379.499</ele>
        <time>2015-10-02T13:11:39Z</time>
      </trkpt>
      <trkpt lat="47.33714" lon="6.40102">
        <ele>379.563</ele>
        <time>2015-10-02T13:11:40Z</time>
      </trkpt>
      <trkpt lat="47.33709" lon="6.40088">
        <ele>379.615</ele>
        <time>2015-10-02T13:11:41Z</time>
      </trkpt>
      <trkpt lat="47.33702" lon="6.40072">
        <ele>378.726</ele>
        <time>2015-10-02T13:11:42Z</time>
      </trkpt>
      <trkpt lat="47.33697" lon="6.40059">
        <ele>378.286</ele>
        <time>2015-10-02T13:11:43Z</time>
      </trkpt>
      <trkpt lat="47.33692" lon="6.40045">
        <ele>378.129</ele>
        <time>2015-10-02T13:11:44Z</time>
      </trkpt>
      <trkpt lat="47.33687" lon="6.40032">
        <ele>377.018</ele>
        <time>2015-10-02T13:11:45Z</time>
      </trkpt>
      <trkpt lat="47.33681" lon="6.40019">
        <ele>375.856</ele>
        <time>2015-10-02T13:11:46Z</time>
      </trkpt>
      <trkpt lat="47.33676" lon="6.40006">
        <ele>375.968</ele>
        <time>2015-10-02T13:11:47Z</time>
      </trkpt>
      <trkpt lat="47.33671" lon="6.39994">
        <ele>376.645</ele>
        <time>2015-10-02T13:11:48Z</time>
      </trkpt>
      <trkpt lat="47.33664" lon="6.39981">
        <ele>376.655</ele>
        <time>2015-10-02T13:11:49Z</time>
      </trkpt>
      <trkpt lat="47.33657" lon="6.3997">
        <ele>376.944</ele>
        <time>2015-10-02T13:11:50Z</time>
      </trkpt>
      <trkpt lat="47.33651" lon="6.39959">
        <ele>377.572</ele>
        <time>2015-10-02T13:11:51Z</time>
      </trkpt>
      <trkpt lat="47.33644" lon="6.39953">
        <ele>377.92</ele>
        <time>2015-10-02T13:11:52Z</time>
      </trkpt>
      <trkpt lat="47.33637" lon="6.39947">
        <ele>380.092</ele>
        <time>2015-10-02T13:11:53Z</time>
      </trkpt>
      <trkpt lat="47.33629" lon="6.39939">
        <ele>380.468</ele>
        <time>2015-10-02T13:11:54Z</time>
      </trkpt>
      <trkpt lat="47.33621" lon="6.3993">
        <ele>379.898</ele>
        <time>2015-10-02T13:11:55Z</time>
      </trkpt>
      <trkpt lat="47.33614" lon="6.39922">
        <ele>379.389</ele>
        <time>2015-10-02T13:11:56Z</time>
      </trkpt>
      <trkpt lat="47.33608" lon="6.39912">
        <ele>378.615</ele>
        <time>2015-10-02T13:11:57Z</time>
      </trkpt>
      <trkpt lat="47.33604" lon="6.39899">
        <ele>374.62</ele>
        <time>2015-10-02T13:11:58Z</time>
      </trkpt>
      <trkpt lat="47.33604" lon="6.39889">
        <ele>373.507</ele>
        <time>2015-10-02T13:11:59Z</time>
      </trkpt>
      <trkpt lat="47.33604" lon="6.39878">
        <ele>373.105</ele>
        <time>2015-10-02T13:12:00Z</time>
      </trkpt>
      <trkpt lat="47.33605" lon="6.39865">
        <ele>372.359</ele>
        <time>2015-10-02T13:12:01Z</time>
      </trkpt>
      <trkpt lat="47.33609" lon="6.39857">
        <ele>372.765</ele>
        <time>2015-10-02T13:12:02Z</time>
      </trkpt>
      <trkpt lat="47.33613" lon="6.39847">
        <ele>372.11</ele>
        <time>2015-10-02T13:12:03Z</time>
      </trkpt>
      <trkpt lat="47.33613" lon="6.39836">
        <ele>373.032</ele>
        <time>2015-10-02T13:12:04Z</time>
      </trkpt>
      <trkpt lat="47.33612" lon="6.39825">
        <ele>373.24</ele>
        <time>2015-10-02T13:12:05Z</time>
      </trkpt>
      <trkpt lat="47.33611" lon="6.39815">
        <ele>374.536</ele>
        <time>2015-10-02T13:12:06Z</time>
      </trkpt>
      <trkpt lat="47.33608" lon="6.39804">
        <ele>375.079</ele>
        <time>2015-10-02T13:12:07Z</time>
      </trkpt>
      <trkpt lat="47.33606" lon="6.39794">
        <ele>374.565</ele>
        <time>2015-10-02T13:12:08Z</time>
      </trkpt>
      <trkpt lat="47.33604" lon="6.39784">
        <ele>370.577</ele>
        <time>2015-10-02T13:12:09Z</time>
      </trkpt>
      <trkpt lat="47.33601" lon="6.39773">
        <ele>370.047</ele>
        <time>2015-10-02T13:12:10Z</time>
      </trkpt>
      <trkpt lat="47.33596" lon="6.39763">
        <ele>370.301</ele>
        <time>2015-10-02T13:12:11Z</time>
      </trkpt>
      <trkpt lat="47.33591" lon="6.39754">
        <ele>369.377</ele>
        <time>2015-10-02T13:12:12Z</time>
      </trkpt>
      <trkpt lat="47.33587" lon="6.39744">
        <ele>365.904</ele>
        <time>2015-10-02T13:12:13Z</time>
      </trkpt>
      <trkpt lat="47.33583" lon="6.39733">
        <ele>365.417</ele>
        <time>2015-10-02T13:12:14Z</time>
      </trkpt>
      <trkpt lat="47.33579" lon="6.39723">
        <ele>365.444</ele>
        <time>2015-10-02T13:12:15Z</time>
      </trkpt>
      <trkpt lat="47.33575" lon="6.39715">
        <ele>364.357</ele>
        <time>2015-10-02T13:12:16Z</time>
      </trkpt>
      <trkpt lat="47.33573" lon="6.39705">
        <ele>363.53</ele>
        <time>2015-10-02T13:12:17Z</time>
      </trkpt>
      <trkpt lat="47.3357" lon="6.39694">
        <ele>362.913</ele>
        <time>2015-10-02T13:12:18Z</time>
      </trkpt>
      <trkpt lat="47.33568" lon="6.39685">
        <ele>363.423</ele>
        <time>2015-10-02T13:12:19Z</time>
      </trkpt>
      <trkpt lat="47.33567" lon="6.39675">
        <ele>364.802</ele>
        <time>2015-10-02T13:12:20Z</time>
      </trkpt>
      <trkpt lat="47.33565" lon="6.39665">
        <ele>364.675</ele>
        <time>2015-10-02T13:12:21Z</time>
      </trkpt>
      <trkpt lat="47.33564" lon="6.39655">
        <ele>364.496</ele>
        <time>2015-10-02T13:12:22Z</time>
      </trkpt>
      <trkpt lat="47.33563" lon="6.39644">
        <ele>365.472</ele>
        <time>2015-10-02T13:12:23Z</time>
      </trkpt>
      <trkpt lat="47.33561" lon="6.39633">
        <ele>363.865</ele>
        <time>2015-10-02T13:12:24Z</time>
      </trkpt>
      <trkpt lat="47.33561" lon="6.39624">
        <ele>364.207</ele>
        <time>2015-10-02T13:12:25Z</time>
      </trkpt>
      <trkpt lat="47.33561" lon="6.39614">
        <ele>365.006</ele>
        <time>2015-10-02T13:12:26Z</time>
      </trkpt>
      <trkpt lat="47.33562" lon="6.39605">
        <ele>365.827</ele>
        <time>2015-10-02T13:12:27Z</time>
      </trkpt>
      <trkpt lat="47.33562" lon="6.39596">
        <ele>363.405</ele>
        <time>2015-10-02T13:12:28Z</time>
      </trkpt>
      <trkpt lat="47.33561" lon="6.39587">
        <ele>364.087</ele>
        <time>2015-10-02T13:12:29Z</time>
      </trkpt>
      <trkpt lat="47.33561" lon="6.39577">
        <ele>365.1</ele>
        <time>2015-10-02T13:12:30Z</time>
      </trkpt>
      <trkpt lat="47.3356" lon="6.39567">
        <ele>365.601</ele>
        <time>2015-10-02T13:12:31Z</time>
      </trkpt>
      <trkpt lat="47.33559" lon="6.39557">
        <ele>365.686</ele>
        <time>2015-10-02T13:12:32Z</time>
      </trkpt>
      <trkpt lat="47.33557" lon="6.39546">
        <ele>365.715</ele>
        <time>2015-10-02T13:12:33Z</time>
      </trkpt>
      <trkpt lat="47.33555" lon="6.39536">
        <ele>366.432</ele>
        <time>2015-10-02T13:12:34Z</time>
      </trkpt>
      <trkpt lat="47.33554" lon="6.39525">
        <ele>365.82</ele>
        <time>2015-10-02T13:12:35Z</time>
      </trkpt>
      <trkpt lat="47.33552" lon="6.39517">
        <ele>366.858</ele>
        <time>2015-10-02T13:12:36Z</time>
      </trkpt>
      <trkpt lat="47.3355" lon="6.39507">
        <ele>366.478</ele>
        <time>2015-10-02T13:12:37Z</time>
      </trkpt>
      <trkpt lat="47.33548" lon="6.39497">
        <ele>366.091</ele>
        <time>2015-10-02T13:12:38Z</time>
      </trkpt>
      <trkpt lat="47.33546" lon="6.39488">
        <ele>366.163</ele>
        <time>2015-10-02T13:12:39Z</time>
      </trkpt>
      <trkpt lat="47.33543" lon="6.39478">
        <ele>366.807</ele>
        <time>2015-10-02T13:12:40Z</time>
      </trkpt>
      <trkpt lat="47.33541" lon="6.39469">
        <ele>366.884</ele>
        <time>2015-10-02T13:12:41Z</time>
      </trkpt>
      <trkpt lat="47.33537" lon="6.39459">
        <ele>364.807</ele>
        <time>2015-10-02T13:12:42Z</time>
      </trkpt>
      <trkpt lat="47.33533" lon="6.39449">
        <ele>362.412</ele>
        <time>2015-10-02T13:12:43Z</time>
      </trkpt>
      <trkpt lat="47.3353" lon="6.39441">
        <ele>361.601</ele>
        <time>2015-10-02T13:12:44Z</time>
      </trkpt>
      <trkpt lat="47.33529" lon="6.39431">
        <ele>363.299</ele>
        <time>2015-10-02T13:12:45Z</time>
      </trkpt>
      <trkpt lat="47.33524" lon="6.3942">
        <ele>362.527</ele>
        <time>2015-10-02T13:12:46Z</time>
      </trkpt>
      <trkpt lat="47.33521" lon="6.39411">
        <ele>362.42</ele>
        <time>2015-10-02T13:12:47Z</time>
      </trkpt>
      <trkpt lat="47.33519" lon="6.39402">
        <ele>363.473</ele>
        <time>2015-10-02T13:12:48Z</time>
      </trkpt>
      <trkpt lat="47.33517" lon="6.39394">
        <ele>364.083</ele>
        <time>2015-10-02T13:12:49Z</time>
      </trkpt>
      <trkpt lat="47.33516" lon="6.39383">
        <ele>363.52</ele>
        <time>2015-10-02T13:12:50Z</time>
      </trkpt>
      <trkpt lat="47.33515" lon="6.39373">
        <ele>364.117</ele>
        <time>2015-10-02T13:12:51Z</time>
      </trkpt>
      <trkpt lat="47.33515" lon="6.39362">
        <ele>364.686</ele>
        <time>2015-10-02T13:12:52Z</time>
      </trkpt>
      <trkpt lat="47.33513" lon="6.3935">
        <ele>362.778</ele>
        <time>2015-10-02T13:12:53Z</time>
      </trkpt>
      <trkpt lat="47.33513" lon="6.39338">
        <ele>362.263</ele>
        <time>2015-10-02T13:12:54Z</time>
      </trkpt>
      <trkpt lat="47.33514" lon="6.39329">
        <ele>360.404</ele>
        <time>2015-10-02T13:12:55Z</time>
      </trkpt>
      <trkpt lat="47.33513" lon="6.39319">
        <ele>359.422</ele>
        <time>2015-10-02T13:12:56Z</time>
      </trkpt>
      <trkpt lat="47.33513" lon="6.39309">
        <ele>358.43</ele>
        <time>2015-10-02T13:12:57Z</time>
      </trkpt>
      <trkpt lat="47.33513" lon="6.39299">
        <ele>358.237</ele>
        <time>2015-10-02T13:12:58Z</time>
      </trkpt>
      <trkpt lat="47.33512" lon="6.39288">
        <ele>359.731</ele>
        <time>2015-10-02T13:12:59Z</time>
      </trkpt>
      <trkpt lat="47.33512" lon="6.39278">
        <ele>359.221</ele>
        <time>2015-10-02T13:13:00Z</time>
      </trkpt>
      <trkpt lat="47.33511" lon="6.39267">
        <ele>359.734</ele>
        <time>2015-10-02T13:13:01Z</time>
      </trkpt>
      <trkpt lat="47.3351" lon="6.39257">
        <ele>359.375</ele>
        <time>2015-10-02T13:13:02Z</time>
      </trkpt>
      <trkpt lat="47.33508" lon="6.39248">
        <ele>359.693</ele>
        <time>2015-10-02T13:13:03Z</time>
      </trkpt>
      <trkpt lat="47.33507" lon="6.39237">
        <ele>359.374</ele>
        <time>2015-10-02T13:13:04Z</time>
      </trkpt>
      <trkpt lat="47.33506" lon="6.39227">
        <ele>359.029</ele>
        <time>2015-10-02T13:13:05Z</time>
      </trkpt>
      <trkpt lat="47.33504" lon="6.39217">
        <ele>357.761</ele>
        <time>2015-10-02T13:13:06Z</time>
      </trkpt>
      <trkpt lat="47.33503" lon="6.39207">
        <ele>358.241</ele>
        <time>2015-10-02T13:13:07Z</time>
      </trkpt>
      <trkpt lat="47.33501" lon="6.39197">
        <ele>358.227</ele>
        <time>2015-10-02T13:13:08Z</time>
      </trkpt>
      <trkpt lat="47.335" lon="6.39186">
        <ele>357.65</ele>
        <time>2015-10-02T13:13:09Z</time>
      </trkpt>
      <trkpt lat="47.33498" lon="6.39177">
        <ele>357.628</ele>
        <time>2015-10-02T13:13:10Z</time>
      </trkpt>
      <trkpt lat="47.33497" lon="6.39166">
        <ele>358.302</ele>
        <time>2015-10-02T13:13:11Z</time>
      </trkpt>
      <trkpt lat="47.33495" lon="6.39156">
        <ele>358.581</ele>
        <time>2015-10-02T13:13:12Z</time>
      </trkpt>
      <trkpt lat="47.33494" lon="6.39146">
        <ele>357.93</ele>
        <time>2015-10-02T13:13:13Z</time>
      </trkpt>
      <trkpt lat="47.33492" lon="6.39138">
        <ele>358.165</ele>
        <time>2015-10-02T13:13:14Z</time>
      </trkpt>
      <trkpt lat="47.33491" lon="6.39127">
        <ele>357.931</ele>
        <time>2015-10-02T13:13:15Z</time>
      </trkpt>
      <trkpt lat="47.3349" lon="6.39117">
        <ele>357.707</ele>
        <time>2015-10-02T13:13:16Z</time>
      </trkpt>
      <trkpt lat="47.33489" lon="6.39107">
        <ele>358.396</ele>
        <time>2015-10-02T13:13:17Z</time>
      </trkpt>
      <trkpt lat="47.33487" lon="6.39098">
        <ele>356.788</ele>
        <time>2015-10-02T13:13:18Z</time>
      </trkpt>
      <trkpt lat="47.33487" lon="6.39087">
        <ele>355.933</ele>
        <time>2015-10-02T13:13:19Z</time>
      </trkpt>
      <trkpt lat="47.33487" lon="6.39076">
        <ele>355.443</ele>
        <time>2015-10-02T13:13:20Z</time>
      </trkpt>
      <trkpt lat="47.33487" lon="6.39065">
        <ele>355.21</ele>
        <time>2015-10-02T13:13:21Z</time>
      </trkpt>
      <trkpt lat="47.33489" lon="6.39054">
        <ele>356.651</ele>
        <time>2015-10-02T13:13:22Z</time>
      </trkpt>
      <trkpt lat="47.3349" lon="6.39044">
        <ele>356.907</ele>
        <time>2015-10-02T13:13:23Z</time>
      </trkpt>
      <trkpt lat="47.33492" lon="6.39033">
        <ele>357.314</ele>
        <time>2015-10-02T13:13:24Z</time>
      </trkpt>
      <trkpt lat="47.33493" lon="6.39022">
        <ele>357.204</ele>
        <time>2015-10-02T13:13:25Z</time>
      </trkpt>
      <trkpt lat="47.33495" lon="6.39011">
        <ele>357.794</ele>
        <time>2015-10-02T13:13:26Z</time>
      </trkpt>
      <trkpt lat="47.33496" lon="6.39001">
        <ele>357.41</ele>
        <time>2015-10-02T13:13:27Z</time>
      </trkpt>
      <trkpt lat="47.33497" lon="6.3899">
        <ele>357.595</ele>
        <time>2015-10-02T13:13:28Z</time>
      </trkpt>
      <trkpt lat="47.33498" lon="6.38979">
        <ele>357.073</ele>
        <time>2015-10-02T13:13:29Z</time>
      </trkpt>
      <trkpt lat="47.33499" lon="6.38968">
        <ele>357.219</ele>
        <time>2015-10-02T13:13:30Z</time>
      </trkpt>
      <trkpt lat="47.335" lon="6.38957">
        <ele>357.418</ele>
        <time>2015-10-02T13:13:31Z</time>
      </trkpt>
      <trkpt lat="47.335" lon="6.38945">
        <ele>357.09</ele>
        <time>2015-10-02T13:13:32Z</time>
      </trkpt>
      <trkpt lat="47.33501" lon="6.38936">
        <ele>355.617</ele>
        <time>2015-10-02T13:13:33Z</time>
      </trkpt>
      <trkpt lat="47.33503" lon="6.38926">
        <ele>356.64</ele>
        <time>2015-10-02T13:13:34Z</time>
      </trkpt>
      <trkpt lat="47.33504" lon="6.38915">
        <ele>356.863</ele>
        <time>2015-10-02T13:13:35Z</time>
      </trkpt>
      <trkpt lat="47.33506" lon="6.38905">
        <ele>355.831</ele>
        <time>2015-10-02T13:13:36Z</time>
      </trkpt>
      <trkpt lat="47.33507" lon="6.38895">
        <ele>355.304</ele>
        <time>2015-10-02T13:13:37Z</time>
      </trkpt>
      <trkpt lat="47.33508" lon="6.38884">
        <ele>354.442</ele>
        <time>2015-10-02T13:13:38Z</time>
      </trkpt>
      <trkpt lat="47.33509" lon="6.38873">
        <ele>354.65</ele>
        <time>2015-10-02T13:13:39Z</time>
      </trkpt>
      <trkpt lat="47.3351" lon="6.38863">
        <ele>354.484</ele>
        <time>2015-10-02T13:13:40Z</time>
      </trkpt>
      <trkpt lat="47.33511" lon="6.38854">
        <ele>354.093</ele>
        <time>2015-10-02T13:13:41Z</time>
      </trkpt>
      <trkpt lat="47.33512" lon="6.38844">
        <ele>354.419</ele>
        <time>2015-10-02T13:13:42Z</time>
      </trkpt>
      <trkpt lat="47.33515" lon="6.38833">
        <ele>354.501</ele>
        <time>2015-10-02T13:13:43Z</time>
      </trkpt>
      <trkpt lat="47.33517" lon="6.38824">
        <ele>354.276</ele>
        <time>2015-10-02T13:13:44Z</time>
      </trkpt>
      <trkpt lat="47.33518" lon="6.38814">
        <ele>354.393</ele>
        <time>2015-10-02T13:13:45Z</time>
      </trkpt>
      <trkpt lat="47.33521" lon="6.38804">
        <ele>354.497</ele>
        <time>2015-10-02T13:13:46Z</time>
      </trkpt>
      <trkpt lat="47.33524" lon="6.38796">
        <ele>353.997</ele>
        <time>2015-10-02T13:13:47Z</time>
      </trkpt>
      <trkpt lat="47.33528" lon="6.38788">
        <ele>353.923</ele>
        <time>2015-10-02T13:13:48Z</time>
      </trkpt>
      <trkpt lat="47.33533" lon="6.38781">
        <ele>353.481</ele>
        <time>2015-10-02T13:13:49Z</time>
      </trkpt>
      <trkpt lat="47.33538" lon="6.38775">
        <ele>353.486</ele>
        <time>2015-10-02T13:13:50Z</time>
      </trkpt>
      <trkpt lat="47.33544" lon="6.38768">
        <ele>352.746</ele>
        <time>2015-10-02T13:13:51Z</time>
      </trkpt>
      <trkpt lat="47.3355" lon="6.38762">
        <ele>352.467</ele>
        <time>2015-10-02T13:13:52Z</time>
      </trkpt>
      <trkpt lat="47.33556" lon="6.38757">
        <ele>351.637</ele>
        <time>2015-10-02T13:13:53Z</time>
      </trkpt>
      <trkpt lat="47.33562" lon="6.38751">
        <ele>351.475</ele>
        <time>2015-10-02T13:13:54Z</time>
      </trkpt>
      <trkpt lat="47.33569" lon="6.38744">
        <ele>351.427</ele>
        <time>2015-10-02T13:13:55Z</time>
      </trkpt>
      <trkpt lat="47.33576" lon="6.38739">
        <ele>350.992</ele>
        <time>2015-10-02T13:13:56Z</time>
      </trkpt>
      <trkpt lat="47.33582" lon="6.38732">
        <ele>350.764</ele>
        <time>2015-10-02T13:13:57Z</time>
      </trkpt>
      <trkpt lat="47.33589" lon="6.38726">
        <ele>350.302</ele>
        <time>2015-10-02T13:13:58Z</time>
      </trkpt>
      <trkpt lat="47.33596" lon="6.38719">
        <ele>349.916</ele>
        <time>2015-10-02T13:13:59Z</time>
      </trkpt>
      <trkpt lat="47.33602" lon="6.38712">
        <ele>349.464</ele>
        <time>2015-10-02T13:14:00Z</time>
      </trkpt>
      <trkpt lat="47.33609" lon="6.38705">
        <ele>348.932</ele>
        <time>2015-10-02T13:14:01Z</time>
      </trkpt>
      <trkpt lat="47.33616" lon="6.38698">
        <ele>348.459</ele>
        <time>2015-10-02T13:14:02Z</time>
      </trkpt>
      <trkpt lat="47.33623" lon="6.3869">
        <ele>347.992</ele>
        <time>2015-10-02T13:14:03Z</time>
      </trkpt>
      <trkpt lat="47.3363" lon="6.38683">
        <ele>347.864</ele>
        <time>2015-10-02T13:14:04Z</time>
      </trkpt>
      <trkpt lat="47.33637" lon="6.38675">
        <ele>347.435</ele>
        <time>2015-10-02T13:14:05Z</time>
      </trkpt>
      <trkpt lat="47.33645" lon="6.38668">
        <ele>347.282</ele>
        <time>2015-10-02T13:14:06Z</time>
      </trkpt>
      <trkpt lat="47.33652" lon="6.38662">
        <ele>347.483</ele>
        <time>2015-10-02T13:14:07Z</time>
      </trkpt>
      <trkpt lat="47.33658" lon="6.38655">
        <ele>347.385</ele>
        <time>2015-10-02T13:14:08Z</time>
      </trkpt>
      <trkpt lat="47.33665" lon="6.38649">
        <ele>347.112</ele>
        <time>2015-10-02T13:14:09Z</time>
      </trkpt>
      <trkpt lat="47.33672" lon="6.38642">
        <ele>346.91</ele>
        <time>2015-10-02T13:14:10Z</time>
      </trkpt>
      <trkpt lat="47.33679" lon="6.38637">
        <ele>346.456</ele>
        <time>2015-10-02T13:14:11Z</time>
      </trkpt>
      <trkpt lat="47.33685" lon="6.3863">
        <ele>346.305</ele>
        <time>2015-10-02T13:14:12Z</time>
      </trkpt>
      <trkpt lat="47.33691" lon="6.38624">
        <ele>346.638</ele>
        <time>2015-10-02T13:14:13Z</time>
      </trkpt>
      <trkpt lat="47.33697" lon="6.38618">
        <ele>346.847</ele>
        <time>2015-10-02T13:14:14Z</time>
      </trkpt>
      <trkpt lat="47.33703" lon="6.38612">
        <ele>346.361</ele>
        <time>2015-10-02T13:14:15Z</time>
      </trkpt>
      <trkpt lat="47.33709" lon="6.38606">
        <ele>346.331</ele>
        <time>2015-10-02T13:14:16Z</time>
      </trkpt>
      <trkpt lat="47.33715" lon="6.386">
        <ele>345.852</ele>
        <time>2015-10-02T13:14:17Z</time>
      </trkpt>
      <trkpt lat="47.33721" lon="6.38594">
        <ele>345.452</ele>
        <time>2015-10-02T13:14:18Z</time>
      </trkpt>
      <trkpt lat="47.33727" lon="6.38589">
        <ele>345.852</ele>
        <time>2015-10-02T13:14:19Z</time>
      </trkpt>
      <trkpt lat="47.33733" lon="6.38584">
        <ele>346.097</ele>
        <time>2015-10-02T13:14:20Z</time>
      </trkpt>
      <trkpt lat="47.33739" lon="6.38579">
        <ele>346.23</ele>
        <time>2015-10-02T13:14:21Z</time>
      </trkpt>
      <trkpt lat="47.33744" lon="6.38573">
        <ele>345.588</ele>
        <time>2015-10-02T13:14:22Z</time>
      </trkpt>
      <trkpt lat="47.33749" lon="6.38567">
        <ele>345.528</ele>
        <time>2015-10-02T13:14:23Z</time>
      </trkpt>
      <trkpt lat="47.33754" lon="6.38561">
        <ele>344.99</ele>
        <time>2015-10-02T13:14:24Z</time>
      </trkpt>
      <trkpt lat="47.33758" lon="6.38555">
        <ele>344.976</ele>
        <time>2015-10-02T13:14:25Z</time>
      </trkpt>
      <trkpt lat="47.33762" lon="6.38549">
        <ele>344.124</ele>
        <time>2015-10-02T13:14:26Z</time>
      </trkpt>
      <trkpt lat="47.33768" lon="6.38543">
        <ele>344.083</ele>
        <time>2015-10-02T13:14:27Z</time>
      </trkpt>
      <trkpt lat="47.33772" lon="6.38538">
        <ele>344.37</ele>
        <time>2015-10-02T13:14:28Z</time>
      </trkpt>
      <trkpt lat="47.33776" lon="6.38531">
        <ele>344.767</ele>
        <time>2015-10-02T13:14:29Z</time>
      </trkpt>
      <trkpt lat="47.3378" lon="6.38525">
        <ele>344.525</ele>
        <time>2015-10-02T13:14:30Z</time>
      </trkpt>
      <trkpt lat="47.33784" lon="6.38518">
        <ele>344.291</ele>
        <time>2015-10-02T13:14:31Z</time>
      </trkpt>
      <trkpt lat="47.33788" lon="6.38511">
        <ele>344.284</ele>
        <time>2015-10-02T13:14:32Z</time>
      </trkpt>
      <trkpt lat="47.33791" lon="6.38505">
        <ele>344.659</ele>
        <time>2015-10-02T13:14:33Z</time>
      </trkpt>
      <trkpt lat="47.33794" lon="6.38499">
        <ele>343.211</ele>
        <time>2015-10-02T13:14:34Z</time>
      </trkpt>
      <trkpt lat="47.33798" lon="6.38493">
        <ele>344.373</ele>
        <time>2015-10-02T13:14:35Z</time>
      </trkpt>
      <trkpt lat="47.33801" lon="6.38486">
        <ele>344.761</ele>
        <time>2015-10-02T13:14:36Z</time>
      </trkpt>
      <trkpt lat="47.33804" lon="6.38479">
        <ele>345.709</ele>
        <time>2015-10-02T13:14:37Z</time>
      </trkpt>
      <trkpt lat="47.33807" lon="6.38473">
        <ele>348.459</ele>
        <time>2015-10-02T13:14:38Z</time>
      </trkpt>
      <trkpt lat="47.3381" lon="6.38465">
        <ele>347.996</ele>
        <time>2015-10-02T13:14:39Z</time>
      </trkpt>
      <trkpt lat="47.33811" lon="6.38457">
        <ele>348.687</ele>
        <time>2015-10-02T13:14:40Z</time>
      </trkpt>
      <trkpt lat="47.33814" lon="6.3845">
        <ele>347.838</ele>
        <time>2015-10-02T13:14:41Z</time>
      </trkpt>
      <trkpt lat="47.33816" lon="6.38443">
        <ele>347.932</ele>
        <time>2015-10-02T13:14:42Z</time>
      </trkpt>
      <trkpt lat="47.33819" lon="6.38436">
        <ele>347.692</ele>
        <time>2015-10-02T13:14:43Z</time>
      </trkpt>
      <trkpt lat="47.33821" lon="6.38431">
        <ele>348.154</ele>
        <time>2015-10-02T13:14:44Z</time>
      </trkpt>
      <trkpt lat="47.33822" lon="6.38424">
        <ele>347.91</ele>
        <time>2015-10-02T13:14:45Z</time>
      </trkpt>
      <trkpt lat="47.33824" lon="6.38418">
        <ele>348.066</ele>
        <time>2015-10-02T13:14:46Z</time>
      </trkpt>
      <trkpt lat="47.33825" lon="6.38411">
        <ele>348.075</ele>
        <time>2015-10-02T13:14:47Z</time>
      </trkpt>
      <trkpt lat="47.33826" lon="6.38404">
        <ele>348.293</ele>
        <time>2015-10-02T13:14:48Z</time>
      </trkpt>
      <trkpt lat="47.33827" lon="6.38397">
        <ele>348.186</ele>
        <time>2015-10-02T13:14:49Z</time>
      </trkpt>
      <trkpt lat="47.33828" lon="6.3839">
        <ele>348.466</ele>
        <time>2015-10-02T13:14:50Z</time>
      </trkpt>
      <trkpt lat="47.33829" lon="6.38382">
        <ele>347.196</ele>
        <time>2015-10-02T13:14:51Z</time>
      </trkpt>
      <trkpt lat="47.3383" lon="6.38372">
        <ele>346.148</ele>
        <time>2015-10-02T13:14:52Z</time>
      </trkpt>
      <trkpt lat="47.3383" lon="6.38365">
        <ele>345.707</ele>
        <time>2015-10-02T13:14:53Z</time>
      </trkpt>
      <trkpt lat="47.3383" lon="6.38357">
        <ele>345.511</ele>
        <time>2015-10-02T13:14:54Z</time>
      </trkpt>
      <trkpt lat="47.33831" lon="6.38347">
        <ele>344.831</ele>
        <time>2015-10-02T13:14:55Z</time>
      </trkpt>
      <trkpt lat="47.33832" lon="6.38338">
        <ele>345.317</ele>
        <time>2015-10-02T13:14:56Z</time>
      </trkpt>
      <trkpt lat="47.33832" lon="6.3833">
        <ele>345.498</ele>
        <time>2015-10-02T13:14:57Z</time>
      </trkpt>
      <trkpt lat="47.33831" lon="6.38323">
        <ele>346.273</ele>
        <time>2015-10-02T13:14:58Z</time>
      </trkpt>
      <trkpt lat="47.33831" lon="6.38314">
        <ele>346.493</ele>
        <time>2015-10-02T13:14:59Z</time>
      </trkpt>
      <trkpt lat="47.33832" lon="6.38306">
        <ele>346.034</ele>
        <time>2015-10-02T13:15:00Z</time>
      </trkpt>
      <trkpt lat="47.33831" lon="6.38297">
        <ele>345.672</ele>
        <time>2015-10-02T13:15:01Z</time>
      </trkpt>
      <trkpt lat="47.33832" lon="6.38291">
        <ele>344.738</ele>
        <time>2015-10-02T13:15:02Z</time>
      </trkpt>
      <trkpt lat="47.33834" lon="6.38285">
        <ele>343.769</ele>
        <time>2015-10-02T13:15:03Z</time>
      </trkpt>
      <trkpt lat="47.33835" lon="6.38278">
        <ele>343.135</ele>
        <time>2015-10-02T13:15:04Z</time>
      </trkpt>
      <trkpt lat="47.33837" lon="6.3827">
        <ele>343.664</ele>
        <time>2015-10-02T13:15:05Z</time>
      </trkpt>
      <trkpt lat="47.33838" lon="6.38264">
        <ele>344.233</ele>
        <time>2015-10-02T13:15:06Z</time>
      </trkpt>
      <trkpt lat="47.3384" lon="6.38256">
        <ele>344.857</ele>
        <time>2015-10-02T13:15:07Z</time>
      </trkpt>
      <trkpt lat="47.33841" lon="6.38249">
        <ele>345.684</ele>
        <time>2015-10-02T13:15:08Z</time>
      </trkpt>
      <trkpt lat="47.33841" lon="6.38242">
        <ele>344.747</ele>
        <time>2015-10-02T13:15:09Z</time>
      </trkpt>
      <trkpt lat="47.33842" lon="6.38234">
        <ele>343.15</ele>
        <time>2015-10-02T13:15:10Z</time>
      </trkpt>
      <trkpt lat="47.33844" lon="6.38228">
        <ele>342.546</ele>
        <time>2015-10-02T13:15:11Z</time>
      </trkpt>
      <trkpt lat="47.33846" lon="6.38222">
        <ele>343.043</ele>
        <time>2015-10-02T13:15:12Z</time>
      </trkpt>
      <trkpt lat="47.33847" lon="6.38216">
        <ele>342.969</ele>
        <time>2015-10-02T13:15:13Z</time>
      </trkpt>
      <trkpt lat="47.33848" lon="6.38211">
        <ele>342.281</ele>
        <time>2015-10-02T13:15:14Z</time>
      </trkpt>
      <trkpt lat="47.33849" lon="6.38205">
        <ele>341.519</ele>
        <time>2015-10-02T13:15:15Z</time>
      </trkpt>
      <trkpt lat="47.33851" lon="6.382">
        <ele>341.074</ele>
        <time>2015-10-02T13:15:16Z</time>
      </trkpt>
      <trkpt lat="47.33852" lon="6.38195">
        <ele>340.639</ele>
        <time>2015-10-02T13:15:17Z</time>
      </trkpt>
      <trkpt lat="47.33853" lon="6.38191">
        <ele>339.902</ele>
        <time>2015-10-02T13:15:18Z</time>
      </trkpt>
      <trkpt lat="47.33854" lon="6.38188">
        <ele>339.937</ele>
        <time>2015-10-02T13:15:19Z</time>
      </trkpt>
      <trkpt lat="47.33856" lon="6.38184">
        <ele>340.206</ele>
        <time>2015-10-02T13:15:20Z</time>
      </trkpt>
      <trkpt lat="47.33857" lon="6.38182">
        <ele>340.101</ele>
        <time>2015-10-02T13:15:21Z</time>
      </trkpt>
      <trkpt lat="47.33858" lon="6.3818">
        <ele>339.928</ele>
        <time>2015-10-02T13:15:22Z</time>
      </trkpt>
      <trkpt lat="47.33859" lon="6.38178">
        <ele>340.395</ele>
        <time>2015-10-02T13:15:23Z</time>
      </trkpt>
      <trkpt lat="47.33859" lon="6.38176">
        <ele>339.438</ele>
        <time>2015-10-02T13:15:24Z</time>
      </trkpt>
      <trkpt lat="47.3386" lon="6.38174">
        <ele>338.772</ele>
        <time>2015-10-02T13:15:25Z</time>
      </trkpt>
      <trkpt lat="47.33857" lon="6.38177">
        <ele>335.061</ele>
        <time>2015-10-02T13:15:55Z</time>
      </trkpt>
      <trkpt lat="47.3386" lon="6.38177">
        <ele>335.016</ele>
        <time>2015-10-02T13:15:56Z</time>
      </trkpt>
      <trkpt lat="47.3386" lon="6.38177">
        <ele>334.746</ele>
        <time>2015-10-02T13:15:57Z</time>
      </trkpt>
      <trkpt lat="47.33861" lon="6.38177">
        <ele>333.641</ele>
        <time>2015-10-02T13:15:58Z</time>
      </trkpt>
      <trkpt lat="47.33858" lon="6.38179">
        <ele>333.409</ele>
        <time>2015-10-02T13:16:17Z</time>
      </trkpt>
      <trkpt lat="47.33857" lon="6.38177">
        <ele>332.936</ele>
        <time>2015-10-02T13:17:00Z</time>
      </trkpt>
      <trkpt lat="47.33857" lon="6.38174">
        <ele>333.807</ele>
        <time>2015-10-02T13:17:01Z</time>
      </trkpt>
      <trkpt lat="47.33856" lon="6.38169">
        <ele>334.347</ele>
        <time>2015-10-02T13:17:02Z</time>
      </trkpt>
      <trkpt lat="47.33856" lon="6.38164">
        <ele>334.641</ele>
        <time>2015-10-02T13:17:03Z</time>
      </trkpt>
      <trkpt lat="47.33855" lon="6.38158">
        <ele>334.287</ele>
        <time>2015-10-02T13:17:04Z</time>
      </trkpt>
      <trkpt lat="47.33855" lon="6.38152">
        <ele>334.198</ele>
        <time>2015-10-02T13:17:05Z</time>
      </trkpt>
      <trkpt lat="47.33854" lon="6.38145">
        <ele>333.318</ele>
        <time>2015-10-02T13:17:06Z</time>
      </trkpt>
      <trkpt lat="47.33851" lon="6.38137">
        <ele>333.472</ele>
        <time>2015-10-02T13:17:07Z</time>
      </trkpt>
      <trkpt lat="47.3385" lon="6.3813">
        <ele>332.85</ele>
        <time>2015-10-02T13:17:08Z</time>
      </trkpt>
      <trkpt lat="47.33848" lon="6.38122">
        <ele>333.409</ele>
        <time>2015-10-02T13:17:09Z</time>
      </trkpt>
      <trkpt lat="47.33846" lon="6.38114">
        <ele>333.725</ele>
        <time>2015-10-02T13:17:10Z</time>
      </trkpt>
      <trkpt lat="47.33844" lon="6.38108">
        <ele>333.549</ele>
        <time>2015-10-02T13:17:11Z</time>
      </trkpt>
      <trkpt lat="47.33842" lon="6.38103">
        <ele>333.704</ele>
        <time>2015-10-02T13:17:12Z</time>
      </trkpt>
      <trkpt lat="47.3384" lon="6.38097">
        <ele>333.037</ele>
        <time>2015-10-02T13:17:13Z</time>
      </trkpt>
      <trkpt lat="47.33837" lon="6.38089">
        <ele>334.067</ele>
        <time>2015-10-02T13:17:14Z</time>
      </trkpt>
      <trkpt lat="47.33833" lon="6.3808">
        <ele>332.259</ele>
        <time>2015-10-02T13:17:15Z</time>
      </trkpt>
      <trkpt lat="47.33833" lon="6.38071">
        <ele>330.221</ele>
        <time>2015-10-02T13:17:16Z</time>
      </trkpt>
      <trkpt lat="47.33829" lon="6.38064">
        <ele>329.401</ele>
        <time>2015-10-02T13:17:17Z</time>
      </trkpt>
      <trkpt lat="47.33825" lon="6.38056">
        <ele>331.606</ele>
        <time>2015-10-02T13:17:18Z</time>
      </trkpt>
      <trkpt lat="47.33825" lon="6.38048">
        <ele>332.853</ele>
        <time>2015-10-02T13:17:19Z</time>
      </trkpt>
      <trkpt lat="47.33822" lon="6.38041">
        <ele>333.01</ele>
        <time>2015-10-02T13:17:20Z</time>
      </trkpt>
      <trkpt lat="47.33819" lon="6.38035">
        <ele>334.305</ele>
        <time>2015-10-02T13:17:21Z</time>
      </trkpt>
      <trkpt lat="47.33816" lon="6.38025">
        <ele>332.202</ele>
        <time>2015-10-02T13:17:22Z</time>
      </trkpt>
      <trkpt lat="47.33813" lon="6.38017">
        <ele>331.823</ele>
        <time>2015-10-02T13:17:23Z</time>
      </trkpt>
      <trkpt lat="47.3381" lon="6.38008">
        <ele>330.574</ele>
        <time>2015-10-02T13:17:24Z</time>
      </trkpt>
      <trkpt lat="47.33808" lon="6.38">
        <ele>329.431</ele>
        <time>2015-10-02T13:17:25Z</time>
      </trkpt>
      <trkpt lat="47.33806" lon="6.37992">
        <ele>329.504</ele>
        <time>2015-10-02T13:17:26Z</time>
      </trkpt>
      <trkpt lat="47.33803" lon="6.37983">
        <ele>329.134</ele>
        <time>2015-10-02T13:17:27Z</time>
      </trkpt>
      <trkpt lat="47.33801" lon="6.37974">
        <ele>328.594</ele>
        <time>2015-10-02T13:17:28Z</time>
      </trkpt>
      <trkpt lat="47.33798" lon="6.37965">
        <ele>328.561</ele>
        <time>2015-10-02T13:17:29Z</time>
      </trkpt>
      <trkpt lat="47.33795" lon="6.37956">
        <ele>328.321</ele>
        <time>2015-10-02T13:17:30Z</time>
      </trkpt>
      <trkpt lat="47.33793" lon="6.37945">
        <ele>325.108</ele>
        <time>2015-10-02T13:17:31Z</time>
      </trkpt>
      <trkpt lat="47.3379" lon="6.37936">
        <ele>324.513</ele>
        <time>2015-10-02T13:17:32Z</time>
      </trkpt>
      <trkpt lat="47.33788" lon="6.37928">
        <ele>324.546</ele>
        <time>2015-10-02T13:17:33Z</time>
      </trkpt>
      <trkpt lat="47.33785" lon="6.37921">
        <ele>324.026</ele>
        <time>2015-10-02T13:17:34Z</time>
      </trkpt>
      <trkpt lat="47.33782" lon="6.37912">
        <ele>323.908</ele>
        <time>2015-10-02T13:17:35Z</time>
      </trkpt>
      <trkpt lat="47.3378" lon="6.37903">
        <ele>323.891</ele>
        <time>2015-10-02T13:17:36Z</time>
      </trkpt>
      <trkpt lat="47.33778" lon="6.37894">
        <ele>324.604</ele>
        <time>2015-10-02T13:17:37Z</time>
      </trkpt>
      <trkpt lat="47.33776" lon="6.37885">
        <ele>325.215</ele>
        <time>2015-10-02T13:17:38Z</time>
      </trkpt>
      <trkpt lat="47.33772" lon="6.37876">
        <ele>324.815</ele>
        <time>2015-10-02T13:17:39Z</time>
      </trkpt>
      <trkpt lat="47.3377" lon="6.37867">
        <ele>324.382</ele>
        <time>2015-10-02T13:17:40Z</time>
      </trkpt>
      <trkpt lat="47.33767" lon="6.37859">
        <ele>323.996</ele>
        <time>2015-10-02T13:17:41Z</time>
      </trkpt>
      <trkpt lat="47.33765" lon="6.3785">
        <ele>323.327</ele>
        <time>2015-10-02T13:17:42Z</time>
      </trkpt>
      <trkpt lat="47.33764" lon="6.37842">
        <ele>322.301</ele>
        <time>2015-10-02T13:17:43Z</time>
      </trkpt>
      <trkpt lat="47.33762" lon="6.37833">
        <ele>322.127</ele>
        <time>2015-10-02T13:17:44Z</time>
      </trkpt>
      <trkpt lat="47.33761" lon="6.37824">
        <ele>322.336</ele>
        <time>2015-10-02T13:17:45Z</time>
      </trkpt>
      <trkpt lat="47.33761" lon="6.37816">
        <ele>322.036</ele>
        <time>2015-10-02T13:17:46Z</time>
      </trkpt>
      <trkpt lat="47.33761" lon="6.37808">
        <ele>321.183</ele>
        <time>2015-10-02T13:17:47Z</time>
      </trkpt>
      <trkpt lat="47.33761" lon="6.378">
        <ele>321.092</ele>
        <time>2015-10-02T13:17:48Z</time>
      </trkpt>
      <trkpt lat="47.33762" lon="6.3779">
        <ele>322.158</ele>
        <time>2015-10-02T13:17:49Z</time>
      </trkpt>
      <trkpt lat="47.33763" lon="6.37782">
        <ele>321.617</ele>
        <time>2015-10-02T13:17:50Z</time>
      </trkpt>
      <trkpt lat="47.33764" lon="6.37775">
        <ele>320.882</ele>
        <time>2015-10-02T13:17:51Z</time>
      </trkpt>
      <trkpt lat="47.33766" lon="6.37767">
        <ele>320.222</ele>
        <time>2015-10-02T13:17:52Z</time>
      </trkpt>
      <trkpt lat="47.33768" lon="6.3776">
        <ele>320.469</ele>
        <time>2015-10-02T13:17:53Z</time>
      </trkpt>
      <trkpt lat="47.33769" lon="6.37755">
        <ele>320.285</ele>
        <time>2015-10-02T13:17:54Z</time>
      </trkpt>
      <trkpt lat="47.3377" lon="6.37749">
        <ele>319.792</ele>
        <time>2015-10-02T13:17:55Z</time>
      </trkpt>
      <trkpt lat="47.3377" lon="6.37744">
        <ele>318.898</ele>
        <time>2015-10-02T13:17:56Z</time>
      </trkpt>
      <trkpt lat="47.3377" lon="6.37738">
        <ele>318.443</ele>
        <time>2015-10-02T13:17:57Z</time>
      </trkpt>
      <trkpt lat="47.33771" lon="6.37733">
        <ele>318.576</ele>
        <time>2015-10-02T13:17:58Z</time>
      </trkpt>
      <trkpt lat="47.33772" lon="6.37728">
        <ele>318.071</ele>
        <time>2015-10-02T13:17:59Z</time>
      </trkpt>
      <trkpt lat="47.33772" lon="6.37722">
        <ele>317.382</ele>
        <time>2015-10-02T13:18:00Z</time>
      </trkpt>
      <trkpt lat="47.33772" lon="6.37716">
        <ele>317.707</ele>
        <time>2015-10-02T13:18:01Z</time>
      </trkpt>
      <trkpt lat="47.33772" lon="6.3771">
        <ele>317.788</ele>
        <time>2015-10-02T13:18:02Z</time>
      </trkpt>
      <trkpt lat="47.33773" lon="6.37704">
        <ele>317.808</ele>
        <time>2015-10-02T13:18:03Z</time>
      </trkpt>
      <trkpt lat="47.33772" lon="6.37697">
        <ele>316.972</ele>
        <time>2015-10-02T13:18:04Z</time>
      </trkpt>
      <trkpt lat="47.33771" lon="6.37691">
        <ele>317.496</ele>
        <time>2015-10-02T13:18:05Z</time>
      </trkpt>
      <trkpt lat="47.3377" lon="6.37684">
        <ele>317.593</ele>
        <time>2015-10-02T13:18:06Z</time>
      </trkpt>
      <trkpt lat="47.33768" lon="6.37677">
        <ele>317.3</ele>
        <time>2015-10-02T13:18:07Z</time>
      </trkpt>
      <trkpt lat="47.33766" lon="6.37672">
        <ele>316.992</ele>
        <time>2015-10-02T13:18:08Z</time>
      </trkpt>
      <trkpt lat="47.33765" lon="6.37665">
        <ele>316.004</ele>
        <time>2015-10-02T13:18:09Z</time>
      </trkpt>
      <trkpt lat="47.33762" lon="6.3766">
        <ele>316.034</ele>
        <time>2015-10-02T13:18:10Z</time>
      </trkpt>
      <trkpt lat="47.33759" lon="6.37655">
        <ele>315.604</ele>
        <time>2015-10-02T13:18:11Z</time>
      </trkpt>
      <trkpt lat="47.33756" lon="6.3765">
        <ele>316.249</ele>
        <time>2015-10-02T13:18:12Z</time>
      </trkpt>
      <trkpt lat="47.33753" lon="6.37646">
        <ele>317.284</ele>
        <time>2015-10-02T13:18:13Z</time>
      </trkpt>
      <trkpt lat="47.33751" lon="6.37642">
        <ele>318.112</ele>
        <time>2015-10-02T13:18:14Z</time>
      </trkpt>
      <trkpt lat="47.33749" lon="6.37638">
        <ele>318.75</ele>
        <time>2015-10-02T13:18:15Z</time>
      </trkpt>
      <trkpt lat="47.33747" lon="6.37634">
        <ele>318.758</ele>
        <time>2015-10-02T13:18:16Z</time>
      </trkpt>
      <trkpt lat="47.33745" lon="6.3763">
        <ele>319.177</ele>
        <time>2015-10-02T13:18:17Z</time>
      </trkpt>
      <trkpt lat="47.33743" lon="6.37626">
        <ele>319.536</ele>
        <time>2015-10-02T13:18:18Z</time>
      </trkpt>
      <trkpt lat="47.3374" lon="6.37622">
        <ele>320.473</ele>
        <time>2015-10-02T13:18:19Z</time>
      </trkpt>
      <trkpt lat="47.33738" lon="6.37618">
        <ele>320.768</ele>
        <time>2015-10-02T13:18:20Z</time>
      </trkpt>
      <trkpt lat="47.33736" lon="6.37615">
        <ele>320.933</ele>
        <time>2015-10-02T13:18:21Z</time>
      </trkpt>
      <trkpt lat="47.33733" lon="6.37611">
        <ele>320.6</ele>
        <time>2015-10-02T13:18:22Z</time>
      </trkpt>
      <trkpt lat="47.33731" lon="6.37607">
        <ele>321.373</ele>
        <time>2015-10-02T13:18:23Z</time>
      </trkpt>
      <trkpt lat="47.33728" lon="6.37604">
        <ele>322.408</ele>
        <time>2015-10-02T13:18:24Z</time>
      </trkpt>
      <trkpt lat="47.33726" lon="6.37601">
        <ele>322.784</ele>
        <time>2015-10-02T13:18:25Z</time>
      </trkpt>
      <trkpt lat="47.33724" lon="6.37599">
        <ele>323.381</ele>
        <time>2015-10-02T13:18:26Z</time>
      </trkpt>
      <trkpt lat="47.33721" lon="6.37596">
        <ele>323.645</ele>
        <time>2015-10-02T13:18:27Z</time>
      </trkpt>
      <trkpt lat="47.33718" lon="6.37594">
        <ele>323.665</ele>
        <time>2015-10-02T13:18:28Z</time>
      </trkpt>
      <trkpt lat="47.33715" lon="6.37592">
        <ele>323.395</ele>
        <time>2015-10-02T13:18:29Z</time>
      </trkpt>
      <trkpt lat="47.33712" lon="6.3759">
        <ele>323.399</ele>
        <time>2015-10-02T13:18:30Z</time>
      </trkpt>
      <trkpt lat="47.33708" lon="6.37589">
        <ele>323.172</ele>
        <time>2015-10-02T13:18:31Z</time>
      </trkpt>
      <trkpt lat="47.33704" lon="6.37587">
        <ele>323.346</ele>
        <time>2015-10-02T13:18:32Z</time>
      </trkpt>
      <trkpt lat="47.337" lon="6.37585">
        <ele>323.406</ele>
        <time>2015-10-02T13:18:33Z</time>
      </trkpt>
      <trkpt lat="47.33696" lon="6.37583">
        <ele>322.857</ele>
        <time>2015-10-02T13:18:34Z</time>
      </trkpt>
      <trkpt lat="47.33692" lon="6.37582">
        <ele>322.488</ele>
        <time>2015-10-02T13:18:35Z</time>
      </trkpt>
      <trkpt lat="47.33688" lon="6.3758">
        <ele>322.237</ele>
        <time>2015-10-02T13:18:36Z</time>
      </trkpt>
      <trkpt lat="47.33682" lon="6.37579">
        <ele>322.014</ele>
        <time>2015-10-02T13:18:37Z</time>
      </trkpt>
      <trkpt lat="47.33677" lon="6.37579">
        <ele>321.995</ele>
        <time>2015-10-02T13:18:38Z</time>
      </trkpt>
      <trkpt lat="47.33672" lon="6.37578">
        <ele>321.707</ele>
        <time>2015-10-02T13:18:39Z</time>
      </trkpt>
      <trkpt lat="47.33667" lon="6.3758">
        <ele>321.71</ele>
        <time>2015-10-02T13:18:40Z</time>
      </trkpt>
      <trkpt lat="47.33663" lon="6.37581">
        <ele>321.349</ele>
        <time>2015-10-02T13:18:41Z</time>
      </trkpt>
      <trkpt lat="47.33659" lon="6.37583">
        <ele>321.186</ele>
        <time>2015-10-02T13:18:42Z</time>
      </trkpt>
      <trkpt lat="47.33655" lon="6.37585">
        <ele>321.245</ele>
        <time>2015-10-02T13:18:43Z</time>
      </trkpt>
      <trkpt lat="47.33652" lon="6.37587">
        <ele>321.323</ele>
        <time>2015-10-02T13:18:44Z</time>
      </trkpt>
      <trkpt lat="47.33649" lon="6.37589">
        <ele>321.254</ele>
        <time>2015-10-02T13:18:45Z</time>
      </trkpt>
      <trkpt lat="47.33646" lon="6.3759">
        <ele>321.34</ele>
        <time>2015-10-02T13:18:46Z</time>
      </trkpt>
      <trkpt lat="47.33642" lon="6.37592">
        <ele>321.625</ele>
        <time>2015-10-02T13:18:47Z</time>
      </trkpt>
      <trkpt lat="47.33639" lon="6.37593">
        <ele>321.366</ele>
        <time>2015-10-02T13:18:48Z</time>
      </trkpt>
      <trkpt lat="47.33635" lon="6.37594">
        <ele>321.557</ele>
        <time>2015-10-02T13:18:49Z</time>
      </trkpt>
      <trkpt lat="47.3363" lon="6.37594">
        <ele>321.325</ele>
        <time>2015-10-02T13:18:50Z</time>
      </trkpt>
      <trkpt lat="47.33625" lon="6.37595">
        <ele>321.658</ele>
        <time>2015-10-02T13:18:51Z</time>
      </trkpt>
      <trkpt lat="47.3362" lon="6.37596">
        <ele>321.682</ele>
        <time>2015-10-02T13:18:52Z</time>
      </trkpt>
      <trkpt lat="47.33615" lon="6.37596">
        <ele>321.267</ele>
        <time>2015-10-02T13:18:53Z</time>
      </trkpt>
      <trkpt lat="47.3361" lon="6.37596">
        <ele>321.752</ele>
        <time>2015-10-02T13:18:54Z</time>
      </trkpt>
      <trkpt lat="47.33605" lon="6.37596">
        <ele>321.257</ele>
        <time>2015-10-02T13:18:55Z</time>
      </trkpt>
      <trkpt lat="47.33599" lon="6.37596">
        <ele>321.27</ele>
        <time>2015-10-02T13:18:56Z</time>
      </trkpt>
      <trkpt lat="47.33594" lon="6.37595">
        <ele>321.126</ele>
        <time>2015-10-02T13:18:57Z</time>
      </trkpt>
      <trkpt lat="47.33588" lon="6.37595">
        <ele>320.918</ele>
        <time>2015-10-02T13:18:58Z</time>
      </trkpt>
      <trkpt lat="47.33583" lon="6.37594">
        <ele>320.972</ele>
        <time>2015-10-02T13:18:59Z</time>
      </trkpt>
      <trkpt lat="47.33579" lon="6.37594">
        <ele>320.899</ele>
        <time>2015-10-02T13:19:00Z</time>
      </trkpt>
      <trkpt lat="47.33576" lon="6.37595">
        <ele>320.981</ele>
        <time>2015-10-02T13:19:01Z</time>
      </trkpt>
      <trkpt lat="47.33572" lon="6.37596">
        <ele>321.28</ele>
        <time>2015-10-02T13:19:02Z</time>
      </trkpt>
      <trkpt lat="47.33568" lon="6.37596">
        <ele>321.554</ele>
        <time>2015-10-02T13:19:03Z</time>
      </trkpt>
      <trkpt lat="47.33565" lon="6.37595">
        <ele>322.145</ele>
        <time>2015-10-02T13:19:04Z</time>
      </trkpt>
      <trkpt lat="47.33561" lon="6.37595">
        <ele>321.678</ele>
        <time>2015-10-02T13:19:05Z</time>
      </trkpt>
      <trkpt lat="47.33556" lon="6.37597">
        <ele>322.099</ele>
        <time>2015-10-02T13:19:06Z</time>
      </trkpt>
      <trkpt lat="47.33551" lon="6.37598">
        <ele>322.075</ele>
        <time>2015-10-02T13:19:07Z</time>
      </trkpt>
      <trkpt lat="47.33545" lon="6.37601">
        <ele>322.276</ele>
        <time>2015-10-02T13:19:08Z</time>
      </trkpt>
      <trkpt lat="47.33539" lon="6.37603">
        <ele>321.926</ele>
        <time>2015-10-02T13:19:09Z</time>
      </trkpt>
      <trkpt lat="47.33533" lon="6.37605">
        <ele>321.695</ele>
        <time>2015-10-02T13:19:10Z</time>
      </trkpt>
      <trkpt lat="47.33526" lon="6.37607">
        <ele>320.924</ele>
        <time>2015-10-02T13:19:11Z</time>
      </trkpt>
      <trkpt lat="47.3352" lon="6.37608">
        <ele>321.481</ele>
        <time>2015-10-02T13:19:12Z</time>
      </trkpt>
      <trkpt lat="47.33514" lon="6.37606">
        <ele>321.341</ele>
        <time>2015-10-02T13:19:13Z</time>
      </trkpt>
      <trkpt lat="47.33509" lon="6.37605">
        <ele>321.244</ele>
        <time>2015-10-02T13:19:14Z</time>
      </trkpt>
      <trkpt lat="47.33504" lon="6.37603">
        <ele>321.932</ele>
        <time>2015-10-02T13:19:15Z</time>
      </trkpt>
      <trkpt lat="47.33499" lon="6.376">
        <ele>322.051</ele>
        <time>2015-10-02T13:19:16Z</time>
      </trkpt>
      <trkpt lat="47.33496" lon="6.37596">
        <ele>322.247</ele>
        <time>2015-10-02T13:19:17Z</time>
      </trkpt>
      <trkpt lat="47.33492" lon="6.37594">
        <ele>322.331</ele>
        <time>2015-10-02T13:19:18Z</time>
      </trkpt>
      <trkpt lat="47.33489" lon="6.3759">
        <ele>322.238</ele>
        <time>2015-10-02T13:19:19Z</time>
      </trkpt>
      <trkpt lat="47.33484" lon="6.37588">
        <ele>322.022</ele>
        <time>2015-10-02T13:19:20Z</time>
      </trkpt>
      <trkpt lat="47.3348" lon="6.37585">
        <ele>322.349</ele>
        <time>2015-10-02T13:19:21Z</time>
      </trkpt>
      <trkpt lat="47.33476" lon="6.37582">
        <ele>322.66</ele>
        <time>2015-10-02T13:19:22Z</time>
      </trkpt>
      <trkpt lat="47.33473" lon="6.37579">
        <ele>322.6</ele>
        <time>2015-10-02T13:19:23Z</time>
      </trkpt>
      <trkpt lat="47.33468" lon="6.37576">
        <ele>322.822</ele>
        <time>2015-10-02T13:19:24Z</time>
      </trkpt>
      <trkpt lat="47.33465" lon="6.37573">
        <ele>323.005</ele>
        <time>2015-10-02T13:19:25Z</time>
      </trkpt>
      <trkpt lat="47.33461" lon="6.37571">
        <ele>322.709</ele>
        <time>2015-10-02T13:19:26Z</time>
      </trkpt>
      <trkpt lat="47.33457" lon="6.37568">
        <ele>323.379</ele>
        <time>2015-10-02T13:19:27Z</time>
      </trkpt>
      <trkpt lat="47.33453" lon="6.37566">
        <ele>323.288</ele>
        <time>2015-10-02T13:19:28Z</time>
      </trkpt>
      <trkpt lat="47.3345" lon="6.37563">
        <ele>323.261</ele>
        <time>2015-10-02T13:19:29Z</time>
      </trkpt>
      <trkpt lat="47.33446" lon="6.3756">
        <ele>323.021</ele>
        <time>2015-10-02T13:19:30Z</time>
      </trkpt>
      <trkpt lat="47.33442" lon="6.37556">
        <ele>322.85</ele>
        <time>2015-10-02T13:19:31Z</time>
      </trkpt>
      <trkpt lat="47.33438" lon="6.37553">
        <ele>322.682</ele>
        <time>2015-10-02T13:19:32Z</time>
      </trkpt>
      <trkpt lat="47.33435" lon="6.37549">
        <ele>322.801</ele>
        <time>2015-10-02T13:19:33Z</time>
      </trkpt>
      <trkpt lat="47.33431" lon="6.37545">
        <ele>322.959</ele>
        <time>2015-10-02T13:19:34Z</time>
      </trkpt>
      <trkpt lat="47.33428" lon="6.37542">
        <ele>322.813</ele>
        <time>2015-10-02T13:19:35Z</time>
      </trkpt>
      <trkpt lat="47.33425" lon="6.37538">
        <ele>322.969</ele>
        <time>2015-10-02T13:19:36Z</time>
      </trkpt>
      <trkpt lat="47.33421" lon="6.37534">
        <ele>322.346</ele>
        <time>2015-10-02T13:19:37Z</time>
      </trkpt>
      <trkpt lat="47.33418" lon="6.3753">
        <ele>322.216</ele>
        <time>2015-10-02T13:19:38Z</time>
      </trkpt>
      <trkpt lat="47.33415" lon="6.37526">
        <ele>321.895</ele>
        <time>2015-10-02T13:19:39Z</time>
      </trkpt>
      <trkpt lat="47.33412" lon="6.37522">
        <ele>322.031</ele>
        <time>2015-10-02T13:19:40Z</time>
      </trkpt>
      <trkpt lat="47.33409" lon="6.37518">
        <ele>321.837</ele>
        <time>2015-10-02T13:19:41Z</time>
      </trkpt>
      <trkpt lat="47.33406" lon="6.37514">
        <ele>321.44</ele>
        <time>2015-10-02T13:19:42Z</time>
      </trkpt>
      <trkpt lat="47.33403" lon="6.3751">
        <ele>321.599</ele>
        <time>2015-10-02T13:19:43Z</time>
      </trkpt>
      <trkpt lat="47.334" lon="6.37505">
        <ele>321.194</ele>
        <time>2015-10-02T13:19:44Z</time>
      </trkpt>
      <trkpt lat="47.33397" lon="6.37501">
        <ele>321.044</ele>
        <time>2015-10-02T13:19:45Z</time>
      </trkpt>
      <trkpt lat="47.33394" lon="6.37496">
        <ele>320.941</ele>
        <time>2015-10-02T13:19:46Z</time>
      </trkpt>
      <trkpt lat="47.33391" lon="6.37491">
        <ele>320.893</ele>
        <time>2015-10-02T13:19:47Z</time>
      </trkpt>
      <trkpt lat="47.33388" lon="6.37486">
        <ele>321.002</ele>
        <time>2015-10-02T13:19:48Z</time>
      </trkpt>
      <trkpt lat="47.33385" lon="6.37482">
        <ele>320.876</ele>
        <time>2015-10-02T13:19:49Z</time>
      </trkpt>
      <trkpt lat="47.33382" lon="6.37477">
        <ele>320.444</ele>
        <time>2015-10-02T13:19:50Z</time>
      </trkpt>
      <trkpt lat="47.33379" lon="6.37472">
        <ele>320.473</ele>
        <time>2015-10-02T13:19:51Z</time>
      </trkpt>
      <trkpt lat="47.33376" lon="6.37468">
        <ele>320.415</ele>
        <time>2015-10-02T13:19:52Z</time>
      </trkpt>
      <trkpt lat="47.33374" lon="6.37463">
        <ele>320.907</ele>
        <time>2015-10-02T13:19:53Z</time>
      </trkpt>
      <trkpt lat="47.33371" lon="6.37459">
        <ele>321.026</ele>
        <time>2015-10-02T13:19:54Z</time>
      </trkpt>
      <trkpt lat="47.33368" lon="6.37454">
        <ele>320.241</ele>
        <time>2015-10-02T13:19:55Z</time>
      </trkpt>
      <trkpt lat="47.33365" lon="6.3745">
        <ele>320.539</ele>
        <time>2015-10-02T13:19:56Z</time>
      </trkpt>
      <trkpt lat="47.33362" lon="6.37445">
        <ele>320.296</ele>
        <time>2015-10-02T13:19:57Z</time>
      </trkpt>
      <trkpt lat="47.33359" lon="6.37441">
        <ele>320.073</ele>
        <time>2015-10-02T13:19:58Z</time>
      </trkpt>
      <trkpt lat="47.33355" lon="6.37436">
        <ele>320.016</ele>
        <time>2015-10-02T13:19:59Z</time>
      </trkpt>
      <trkpt lat="47.33351" lon="6.37431">
        <ele>319.796</ele>
        <time>2015-10-02T13:20:00Z</time>
      </trkpt>
      <trkpt lat="47.33346" lon="6.37427">
        <ele>319.574</ele>
        <time>2015-10-02T13:20:01Z</time>
      </trkpt>
      <trkpt lat="47.33341" lon="6.37423">
        <ele>318.368</ele>
        <time>2015-10-02T13:20:02Z</time>
      </trkpt>
      <trkpt lat="47.33335" lon="6.37419">
        <ele>318.136</ele>
        <time>2015-10-02T13:20:03Z</time>
      </trkpt>
      <trkpt lat="47.33329" lon="6.37416">
        <ele>317.425</ele>
        <time>2015-10-02T13:20:04Z</time>
      </trkpt>
      <trkpt lat="47.33322" lon="6.37413">
        <ele>316.264</ele>
        <time>2015-10-02T13:20:05Z</time>
      </trkpt>
      <trkpt lat="47.33316" lon="6.3741">
        <ele>316.089</ele>
        <time>2015-10-02T13:20:06Z</time>
      </trkpt>
      <trkpt lat="47.33309" lon="6.37408">
        <ele>316.173</ele>
        <time>2015-10-02T13:20:07Z</time>
      </trkpt>
      <trkpt lat="47.33302" lon="6.37405">
        <ele>315.745</ele>
        <time>2015-10-02T13:20:08Z</time>
      </trkpt>
      <trkpt lat="47.33295" lon="6.37403">
        <ele>315.797</ele>
        <time>2015-10-02T13:20:09Z</time>
      </trkpt>
      <trkpt lat="47.33288" lon="6.374">
        <ele>315.79</ele>
        <time>2015-10-02T13:20:10Z</time>
      </trkpt>
      <trkpt lat="47.33282" lon="6.37396">
        <ele>315.586</ele>
        <time>2015-10-02T13:20:11Z</time>
      </trkpt>
      <trkpt lat="47.33275" lon="6.37393">
        <ele>315.34</ele>
        <time>2015-10-02T13:20:12Z</time>
      </trkpt>
      <trkpt lat="47.33269" lon="6.37391">
        <ele>315.333</ele>
        <time>2015-10-02T13:20:13Z</time>
      </trkpt>
      <trkpt lat="47.33263" lon="6.37387">
        <ele>315.244</ele>
        <time>2015-10-02T13:20:14Z</time>
      </trkpt>
      <trkpt lat="47.33257" lon="6.37384">
        <ele>315.392</ele>
        <time>2015-10-02T13:20:15Z</time>
      </trkpt>
      <trkpt lat="47.33251" lon="6.37381">
        <ele>315.108</ele>
        <time>2015-10-02T13:20:16Z</time>
      </trkpt>
      <trkpt lat="47.33245" lon="6.37378">
        <ele>314.722</ele>
        <time>2015-10-02T13:20:17Z</time>
      </trkpt>
      <trkpt lat="47.33239" lon="6.37376">
        <ele>314.366</ele>
        <time>2015-10-02T13:20:18Z</time>
      </trkpt>
      <trkpt lat="47.33233" lon="6.37373">
        <ele>314.325</ele>
        <time>2015-10-02T13:20:19Z</time>
      </trkpt>
      <trkpt lat="47.33224" lon="6.37371">
        <ele>313.165</ele>
        <time>2015-10-02T13:20:20Z</time>
      </trkpt>
      <trkpt lat="47.33217" lon="6.37369">
        <ele>312.894</ele>
        <time>2015-10-02T13:20:21Z</time>
      </trkpt>
      <trkpt lat="47.33211" lon="6.37368">
        <ele>313.334</ele>
        <time>2015-10-02T13:20:22Z</time>
      </trkpt>
      <trkpt lat="47.33203" lon="6.37367">
        <ele>312.372</ele>
        <time>2015-10-02T13:20:23Z</time>
      </trkpt>
      <trkpt lat="47.33196" lon="6.37365">
        <ele>311.936</ele>
        <time>2015-10-02T13:20:24Z</time>
      </trkpt>
      <trkpt lat="47.33188" lon="6.37363">
        <ele>311.662</ele>
        <time>2015-10-02T13:20:25Z</time>
      </trkpt>
      <trkpt lat="47.33179" lon="6.37361">
        <ele>311.046</ele>
        <time>2015-10-02T13:20:26Z</time>
      </trkpt>
      <trkpt lat="47.33171" lon="6.37358">
        <ele>310.827</ele>
        <time>2015-10-02T13:20:27Z</time>
      </trkpt>
      <trkpt lat="47.33162" lon="6.37355">
        <ele>309.91</ele>
        <time>2015-10-02T13:20:28Z</time>
      </trkpt>
      <trkpt lat="47.33153" lon="6.37352">
        <ele>310.123</ele>
        <time>2015-10-02T13:20:29Z</time>
      </trkpt>
      <trkpt lat="47.33143" lon="6.37349">
        <ele>309.443</ele>
        <time>2015-10-02T13:20:30Z</time>
      </trkpt>
      <trkpt lat="47.33134" lon="6.37346">
        <ele>309.022</ele>
        <time>2015-10-02T13:20:31Z</time>
      </trkpt>
      <trkpt lat="47.33125" lon="6.37342">
        <ele>308.659</ele>
        <time>2015-10-02T13:20:32Z</time>
      </trkpt>
      <trkpt lat="47.33116" lon="6.37337">
        <ele>307.411</ele>
        <time>2015-10-02T13:20:33Z</time>
      </trkpt>
      <trkpt lat="47.33107" lon="6.37332">
        <ele>306.94</ele>
        <time>2015-10-02T13:20:34Z</time>
      </trkpt>
      <trkpt lat="47.33098" lon="6.37325">
        <ele>306.487</ele>
        <time>2015-10-02T13:20:35Z</time>
      </trkpt>
      <trkpt lat="47.33091" lon="6.37318">
        <ele>305.912</ele>
        <time>2015-10-02T13:20:36Z</time>
      </trkpt>
      <trkpt lat="47.33082" lon="6.37311">
        <ele>304.815</ele>
        <time>2015-10-02T13:20:37Z</time>
      </trkpt>
      <trkpt lat="47.33074" lon="6.37304">
        <ele>304.347</ele>
        <time>2015-10-02T13:20:38Z</time>
      </trkpt>
      <trkpt lat="47.33065" lon="6.37297">
        <ele>302.912</ele>
        <time>2015-10-02T13:20:39Z</time>
      </trkpt>
      <trkpt lat="47.33057" lon="6.3729">
        <ele>302.076</ele>
        <time>2015-10-02T13:20:40Z</time>
      </trkpt>
      <trkpt lat="47.3305" lon="6.37286">
        <ele>302.478</ele>
        <time>2015-10-02T13:20:41Z</time>
      </trkpt>
      <trkpt lat="47.33041" lon="6.37282">
        <ele>302.585</ele>
        <time>2015-10-02T13:20:42Z</time>
      </trkpt>
      <trkpt lat="47.33033" lon="6.37282">
        <ele>302.761</ele>
        <time>2015-10-02T13:20:43Z</time>
      </trkpt>
      <trkpt lat="47.33025" lon="6.37283">
        <ele>302.86</ele>
        <time>2015-10-02T13:20:44Z</time>
      </trkpt>
      <trkpt lat="47.33017" lon="6.37286">
        <ele>303.001</ele>
        <time>2015-10-02T13:20:45Z</time>
      </trkpt>
      <trkpt lat="47.3301" lon="6.37289">
        <ele>302.95</ele>
        <time>2015-10-02T13:20:46Z</time>
      </trkpt>
      <trkpt lat="47.33003" lon="6.37293">
        <ele>303.044</ele>
        <time>2015-10-02T13:20:47Z</time>
      </trkpt>
      <trkpt lat="47.32997" lon="6.37295">
        <ele>303.072</ele>
        <time>2015-10-02T13:20:48Z</time>
      </trkpt>
      <trkpt lat="47.3299" lon="6.37297">
        <ele>303.146</ele>
        <time>2015-10-02T13:20:49Z</time>
      </trkpt>
      <trkpt lat="47.32983" lon="6.37298">
        <ele>303.174</ele>
        <time>2015-10-02T13:20:50Z</time>
      </trkpt>
      <trkpt lat="47.32977" lon="6.373">
        <ele>302.821</ele>
        <time>2015-10-02T13:20:51Z</time>
      </trkpt>
      <trkpt lat="47.3297" lon="6.37302">
        <ele>302.69</ele>
        <time>2015-10-02T13:20:52Z</time>
      </trkpt>
      <trkpt lat="47.32964" lon="6.37304">
        <ele>302.494</ele>
        <time>2015-10-02T13:20:53Z</time>
      </trkpt>
      <trkpt lat="47.32957" lon="6.37306">
        <ele>302.429</ele>
        <time>2015-10-02T13:20:54Z</time>
      </trkpt>
      <trkpt lat="47.32951" lon="6.37308">
        <ele>301.942</ele>
        <time>2015-10-02T13:20:55Z</time>
      </trkpt>
      <trkpt lat="47.32946" lon="6.37309">
        <ele>302.051</ele>
        <time>2015-10-02T13:20:56Z</time>
      </trkpt>
      <trkpt lat="47.3294" lon="6.37311">
        <ele>302.18</ele>
        <time>2015-10-02T13:20:57Z</time>
      </trkpt>
      <trkpt lat="47.32934" lon="6.37313">
        <ele>301.986</ele>
        <time>2015-10-02T13:20:58Z</time>
      </trkpt>
      <trkpt lat="47.32927" lon="6.37314">
        <ele>301.147</ele>
        <time>2015-10-02T13:20:59Z</time>
      </trkpt>
      <trkpt lat="47.32922" lon="6.37314">
        <ele>301.457</ele>
        <time>2015-10-02T13:21:00Z</time>
      </trkpt>
      <trkpt lat="47.32915" lon="6.37313">
        <ele>301.51</ele>
        <time>2015-10-02T13:21:01Z</time>
      </trkpt>
      <trkpt lat="47.32909" lon="6.37313">
        <ele>301.079</ele>
        <time>2015-10-02T13:21:02Z</time>
      </trkpt>
      <trkpt lat="47.32904" lon="6.37312">
        <ele>301.244</ele>
        <time>2015-10-02T13:21:03Z</time>
      </trkpt>
      <trkpt lat="47.32899" lon="6.37311">
        <ele>301.483</ele>
        <time>2015-10-02T13:21:04Z</time>
      </trkpt>
      <trkpt lat="47.32894" lon="6.37309">
        <ele>301.634</ele>
        <time>2015-10-02T13:21:05Z</time>
      </trkpt>
      <trkpt lat="47.32889" lon="6.37308">
        <ele>301.677</ele>
        <time>2015-10-02T13:21:06Z</time>
      </trkpt>
      <trkpt lat="47.32884" lon="6.37306">
        <ele>301.546</ele>
        <time>2015-10-02T13:21:07Z</time>
      </trkpt>
      <trkpt lat="47.32879" lon="6.37305">
        <ele>301.556</ele>
        <time>2015-10-02T13:21:08Z</time>
      </trkpt>
      <trkpt lat="47.32875" lon="6.37304">
        <ele>302.135</ele>
        <time>2015-10-02T13:21:09Z</time>
      </trkpt>
      <trkpt lat="47.3287" lon="6.37302">
        <ele>301.836</ele>
        <time>2015-10-02T13:21:10Z</time>
      </trkpt>
      <trkpt lat="47.32864" lon="6.37301">
        <ele>301.301</ele>
        <time>2015-10-02T13:21:11Z</time>
      </trkpt>
      <trkpt lat="47.32859" lon="6.373">
        <ele>301.503</ele>
        <time>2015-10-02T13:21:12Z</time>
      </trkpt>
      <trkpt lat="47.32855" lon="6.37298">
        <ele>301.931</ele>
        <time>2015-10-02T13:21:13Z</time>
      </trkpt>
      <trkpt lat="47.3285" lon="6.37297">
        <ele>301.269</ele>
        <time>2015-10-02T13:21:14Z</time>
      </trkpt>
      <trkpt lat="47.32845" lon="6.37296">
        <ele>302.354</ele>
        <time>2015-10-02T13:21:15Z</time>
      </trkpt>
      <trkpt lat="47.32841" lon="6.37295">
        <ele>302.791</ele>
        <time>2015-10-02T13:21:16Z</time>
      </trkpt>
      <trkpt lat="47.32836" lon="6.37293">
        <ele>302.971</ele>
        <time>2015-10-02T13:21:17Z</time>
      </trkpt>
      <trkpt lat="47.32831" lon="6.37291">
        <ele>303.333</ele>
        <time>2015-10-02T13:21:18Z</time>
      </trkpt>
      <trkpt lat="47.32827" lon="6.37288">
        <ele>303.428</ele>
        <time>2015-10-02T13:21:19Z</time>
      </trkpt>
      <trkpt lat="47.32822" lon="6.37285">
        <ele>303.425</ele>
        <time>2015-10-02T13:21:20Z</time>
      </trkpt>
      <trkpt lat="47.32819" lon="6.37281">
        <ele>303.582</ele>
        <time>2015-10-02T13:21:21Z</time>
      </trkpt>
      <trkpt lat="47.32815" lon="6.37277">
        <ele>303.62</ele>
        <time>2015-10-02T13:21:22Z</time>
      </trkpt>
      <trkpt lat="47.32811" lon="6.37274">
        <ele>304.627</ele>
        <time>2015-10-02T13:21:23Z</time>
      </trkpt>
      <trkpt lat="47.32806" lon="6.37269">
        <ele>303.755</ele>
        <time>2015-10-02T13:21:24Z</time>
      </trkpt>
      <trkpt lat="47.32803" lon="6.37265">
        <ele>302.576</ele>
        <time>2015-10-02T13:21:25Z</time>
      </trkpt>
      <trkpt lat="47.32801" lon="6.37261">
        <ele>301.01</ele>
        <time>2015-10-02T13:21:26Z</time>
      </trkpt>
      <trkpt lat="47.328" lon="6.37257">
        <ele>302.566</ele>
        <time>2015-10-02T13:21:27Z</time>
      </trkpt>
      <trkpt lat="47.32797" lon="6.37252">
        <ele>303.636</ele>
        <time>2015-10-02T13:21:28Z</time>
      </trkpt>
      <trkpt lat="47.32795" lon="6.37246">
        <ele>302.58</ele>
        <time>2015-10-02T13:21:29Z</time>
      </trkpt>
      <trkpt lat="47.32791" lon="6.37241">
        <ele>301.266</ele>
        <time>2015-10-02T13:21:30Z</time>
      </trkpt>
      <trkpt lat="47.32788" lon="6.37235">
        <ele>301.052</ele>
        <time>2015-10-02T13:21:31Z</time>
      </trkpt>
      <trkpt lat="47.32784" lon="6.37232">
        <ele>300.995</ele>
        <time>2015-10-02T13:21:32Z</time>
      </trkpt>
      <trkpt lat="47.32779" lon="6.37227">
        <ele>300.74</ele>
        <time>2015-10-02T13:21:33Z</time>
      </trkpt>
      <trkpt lat="47.32775" lon="6.37223">
        <ele>301.147</ele>
        <time>2015-10-02T13:21:34Z</time>
      </trkpt>
      <trkpt lat="47.3277" lon="6.37219">
        <ele>301.025</ele>
        <time>2015-10-02T13:21:35Z</time>
      </trkpt>
      <trkpt lat="47.32765" lon="6.37214">
        <ele>300.827</ele>
        <time>2015-10-02T13:21:36Z</time>
      </trkpt>
      <trkpt lat="47.32761" lon="6.3721">
        <ele>301.209</ele>
        <time>2015-10-02T13:21:37Z</time>
      </trkpt>
      <trkpt lat="47.32757" lon="6.37206">
        <ele>300.245</ele>
        <time>2015-10-02T13:21:38Z</time>
      </trkpt>
      <trkpt lat="47.32754" lon="6.37201">
        <ele>300.286</ele>
        <time>2015-10-02T13:21:39Z</time>
      </trkpt>
      <trkpt lat="47.32751" lon="6.37198">
        <ele>300.559</ele>
        <time>2015-10-02T13:21:40Z</time>
      </trkpt>
      <trkpt lat="47.32746" lon="6.37194">
        <ele>300.341</ele>
        <time>2015-10-02T13:21:41Z</time>
      </trkpt>
      <trkpt lat="47.32742" lon="6.37191">
        <ele>300.468</ele>
        <time>2015-10-02T13:21:42Z</time>
      </trkpt>
      <trkpt lat="47.32737" lon="6.37187">
        <ele>300.841</ele>
        <time>2015-10-02T13:21:43Z</time>
      </trkpt>
      <trkpt lat="47.32732" lon="6.37183">
        <ele>300.193</ele>
        <time>2015-10-02T13:21:44Z</time>
      </trkpt>
      <trkpt lat="47.32728" lon="6.3718">
        <ele>300.053</ele>
        <time>2015-10-02T13:21:45Z</time>
      </trkpt>
      <trkpt lat="47.32723" lon="6.37178">
        <ele>299.799</ele>
        <time>2015-10-02T13:21:46Z</time>
      </trkpt>
      <trkpt lat="47.32719" lon="6.37176">
        <ele>300.036</ele>
        <time>2015-10-02T13:21:47Z</time>
      </trkpt>
      <trkpt lat="47.32716" lon="6.37175">
        <ele>300.563</ele>
        <time>2015-10-02T13:21:48Z</time>
      </trkpt>
      <trkpt lat="47.32712" lon="6.37172">
        <ele>301.408</ele>
        <time>2015-10-02T13:21:49Z</time>
      </trkpt>
      <trkpt lat="47.32708" lon="6.37171">
        <ele>301.531</ele>
        <time>2015-10-02T13:21:50Z</time>
      </trkpt>
      <trkpt lat="47.32705" lon="6.37169">
        <ele>302.476</ele>
        <time>2015-10-02T13:21:51Z</time>
      </trkpt>
      <trkpt lat="47.32702" lon="6.37168">
        <ele>302.271</ele>
        <time>2015-10-02T13:21:52Z</time>
      </trkpt>
      <trkpt lat="47.32699" lon="6.37165">
        <ele>302.475</ele>
        <time>2015-10-02T13:21:53Z</time>
      </trkpt>
      <trkpt lat="47.32695" lon="6.37163">
        <ele>303.081</ele>
        <time>2015-10-02T13:21:54Z</time>
      </trkpt>
      <trkpt lat="47.32692" lon="6.37161">
        <ele>303.102</ele>
        <time>2015-10-02T13:21:55Z</time>
      </trkpt>
      <trkpt lat="47.32688" lon="6.37159">
        <ele>302.701</ele>
        <time>2015-10-02T13:21:56Z</time>
      </trkpt>
      <trkpt lat="47.32685" lon="6.37156">
        <ele>302.053</ele>
        <time>2015-10-02T13:21:57Z</time>
      </trkpt>
      <trkpt lat="47.32681" lon="6.37153">
        <ele>301.882</ele>
        <time>2015-10-02T13:21:58Z</time>
      </trkpt>
      <trkpt lat="47.32678" lon="6.37149">
        <ele>301.969</ele>
        <time>2015-10-02T13:21:59Z</time>
      </trkpt>
      <trkpt lat="47.32675" lon="6.37145">
        <ele>302.172</ele>
        <time>2015-10-02T13:22:00Z</time>
      </trkpt>
      <trkpt lat="47.32671" lon="6.37141">
        <ele>302.369</ele>
        <time>2015-10-02T13:22:01Z</time>
      </trkpt>
      <trkpt lat="47.32668" lon="6.37136">
        <ele>302.759</ele>
        <time>2015-10-02T13:22:02Z</time>
      </trkpt>
      <trkpt lat="47.32665" lon="6.3713">
        <ele>302.662</ele>
        <time>2015-10-02T13:22:03Z</time>
      </trkpt>
      <trkpt lat="47.32662" lon="6.37124">
        <ele>302.944</ele>
        <time>2015-10-02T13:22:04Z</time>
      </trkpt>
      <trkpt lat="47.32659" lon="6.37119">
        <ele>302.531</ele>
        <time>2015-10-02T13:22:05Z</time>
      </trkpt>
      <trkpt lat="47.32656" lon="6.37112">
        <ele>302.044</ele>
        <time>2015-10-02T13:22:06Z</time>
      </trkpt>
      <trkpt lat="47.32654" lon="6.37105">
        <ele>302.839</ele>
        <time>2015-10-02T13:22:07Z</time>
      </trkpt>
      <trkpt lat="47.32651" lon="6.37097">
        <ele>301.732</ele>
        <time>2015-10-02T13:22:08Z</time>
      </trkpt>
      <trkpt lat="47.32648" lon="6.37089">
        <ele>301.178</ele>
        <time>2015-10-02T13:22:09Z</time>
      </trkpt>
      <trkpt lat="47.32645" lon="6.37081">
        <ele>300.986</ele>
        <time>2015-10-02T13:22:10Z</time>
      </trkpt>
      <trkpt lat="47.32642" lon="6.37073">
        <ele>301.26</ele>
        <time>2015-10-02T13:22:11Z</time>
      </trkpt>
      <trkpt lat="47.3264" lon="6.37066">
        <ele>301.192</ele>
        <time>2015-10-02T13:22:12Z</time>
      </trkpt>
      <trkpt lat="47.32637" lon="6.37058">
        <ele>300.657</ele>
        <time>2015-10-02T13:22:13Z</time>
      </trkpt>
      <trkpt lat="47.32635" lon="6.3705">
        <ele>300.738</ele>
        <time>2015-10-02T13:22:14Z</time>
      </trkpt>
      <trkpt lat="47.32633" lon="6.37042">
        <ele>300.049</ele>
        <time>2015-10-02T13:22:15Z</time>
      </trkpt>
      <trkpt lat="47.3263" lon="6.37034">
        <ele>299.265</ele>
        <time>2015-10-02T13:22:16Z</time>
      </trkpt>
      <trkpt lat="47.32628" lon="6.37026">
        <ele>298.666</ele>
        <time>2015-10-02T13:22:17Z</time>
      </trkpt>
      <trkpt lat="47.32626" lon="6.37017">
        <ele>299.367</ele>
        <time>2015-10-02T13:22:18Z</time>
      </trkpt>
      <trkpt lat="47.32623" lon="6.37008">
        <ele>299.319</ele>
        <time>2015-10-02T13:22:19Z</time>
      </trkpt>
      <trkpt lat="47.32621" lon="6.37">
        <ele>299.042</ele>
        <time>2015-10-02T13:22:20Z</time>
      </trkpt>
      <trkpt lat="47.32617" lon="6.36989">
        <ele>298.849</ele>
        <time>2015-10-02T13:22:21Z</time>
      </trkpt>
      <trkpt lat="47.32614" lon="6.36979">
        <ele>298.526</ele>
        <time>2015-10-02T13:22:22Z</time>
      </trkpt>
      <trkpt lat="47.32611" lon="6.36969">
        <ele>296.859</ele>
        <time>2015-10-02T13:22:23Z</time>
      </trkpt>
      <trkpt lat="47.32607" lon="6.3696">
        <ele>297.158</ele>
        <time>2015-10-02T13:22:24Z</time>
      </trkpt>
      <trkpt lat="47.32603" lon="6.36951">
        <ele>296.751</ele>
        <time>2015-10-02T13:22:25Z</time>
      </trkpt>
      <trkpt lat="47.326" lon="6.36943">
        <ele>296.292</ele>
        <time>2015-10-02T13:22:26Z</time>
      </trkpt>
      <trkpt lat="47.32596" lon="6.36936">
        <ele>295.853</ele>
        <time>2015-10-02T13:22:27Z</time>
      </trkpt>
      <trkpt lat="47.32593" lon="6.36928">
        <ele>295.125</ele>
        <time>2015-10-02T13:22:28Z</time>
      </trkpt>
      <trkpt lat="47.3259" lon="6.3692">
        <ele>294.678</ele>
        <time>2015-10-02T13:22:29Z</time>
      </trkpt>
      <trkpt lat="47.32587" lon="6.36912">
        <ele>294.147</ele>
        <time>2015-10-02T13:22:30Z</time>
      </trkpt>
      <trkpt lat="47.32583" lon="6.36904">
        <ele>293.36</ele>
        <time>2015-10-02T13:22:31Z</time>
      </trkpt>
      <trkpt lat="47.3258" lon="6.36896">
        <ele>292.937</ele>
        <time>2015-10-02T13:22:32Z</time>
      </trkpt>
      <trkpt lat="47.32577" lon="6.36887">
        <ele>292.738</ele>
        <time>2015-10-02T13:22:33Z</time>
      </trkpt>
      <trkpt lat="47.32574" lon="6.36878">
        <ele>292.072</ele>
        <time>2015-10-02T13:22:34Z</time>
      </trkpt>
      <trkpt lat="47.32572" lon="6.36868">
        <ele>291.268</ele>
        <time>2015-10-02T13:22:35Z</time>
      </trkpt>
      <trkpt lat="47.32571" lon="6.36858">
        <ele>290.747</ele>
        <time>2015-10-02T13:22:36Z</time>
      </trkpt>
      <trkpt lat="47.32572" lon="6.36848">
        <ele>290.503</ele>
        <time>2015-10-02T13:22:37Z</time>
      </trkpt>
      <trkpt lat="47.32574" lon="6.36837">
        <ele>290.465</ele>
        <time>2015-10-02T13:22:38Z</time>
      </trkpt>
      <trkpt lat="47.32576" lon="6.36827">
        <ele>290.5</ele>
        <time>2015-10-02T13:22:39Z</time>
      </trkpt>
      <trkpt lat="47.32578" lon="6.36817">
        <ele>289.521</ele>
        <time>2015-10-02T13:22:40Z</time>
      </trkpt>
      <trkpt lat="47.3258" lon="6.36807">
        <ele>290.239</ele>
        <time>2015-10-02T13:22:41Z</time>
      </trkpt>
      <trkpt lat="47.32581" lon="6.36797">
        <ele>289.636</ele>
        <time>2015-10-02T13:22:42Z</time>
      </trkpt>
      <trkpt lat="47.32582" lon="6.36787">
        <ele>289.652</ele>
        <time>2015-10-02T13:22:43Z</time>
      </trkpt>
      <trkpt lat="47.32582" lon="6.36777">
        <ele>289.437</ele>
        <time>2015-10-02T13:22:44Z</time>
      </trkpt>
      <trkpt lat="47.32582" lon="6.36768">
        <ele>289.204</ele>
        <time>2015-10-02T13:22:45Z</time>
      </trkpt>
      <trkpt lat="47.32582" lon="6.36759">
        <ele>289.371</ele>
        <time>2015-10-02T13:22:46Z</time>
      </trkpt>
      <trkpt lat="47.32581" lon="6.36749">
        <ele>289.462</ele>
        <time>2015-10-02T13:22:47Z</time>
      </trkpt>
      <trkpt lat="47.3258" lon="6.36741">
        <ele>288.846</ele>
        <time>2015-10-02T13:22:48Z</time>
      </trkpt>
      <trkpt lat="47.3258" lon="6.36732">
        <ele>288.552</ele>
        <time>2015-10-02T13:22:49Z</time>
      </trkpt>
      <trkpt lat="47.32579" lon="6.36723">
        <ele>288.501</ele>
        <time>2015-10-02T13:22:50Z</time>
      </trkpt>
      <trkpt lat="47.32578" lon="6.36716">
        <ele>288.46</ele>
        <time>2015-10-02T13:22:51Z</time>
      </trkpt>
      <trkpt lat="47.32577" lon="6.36708">
        <ele>288.172</ele>
        <time>2015-10-02T13:22:52Z</time>
      </trkpt>
      <trkpt lat="47.32576" lon="6.367">
        <ele>288.53</ele>
        <time>2015-10-02T13:22:53Z</time>
      </trkpt>
      <trkpt lat="47.32575" lon="6.36692">
        <ele>288.609</ele>
        <time>2015-10-02T13:22:54Z</time>
      </trkpt>
      <trkpt lat="47.32573" lon="6.36685">
        <ele>288.148</ele>
        <time>2015-10-02T13:22:55Z</time>
      </trkpt>
      <trkpt lat="47.32572" lon="6.36677">
        <ele>288.114</ele>
        <time>2015-10-02T13:22:56Z</time>
      </trkpt>
      <trkpt lat="47.32569" lon="6.3667">
        <ele>287.84</ele>
        <time>2015-10-02T13:22:57Z</time>
      </trkpt>
      <trkpt lat="47.32567" lon="6.36664">
        <ele>287.802</ele>
        <time>2015-10-02T13:22:58Z</time>
      </trkpt>
      <trkpt lat="47.32564" lon="6.36658">
        <ele>287.648</ele>
        <time>2015-10-02T13:22:59Z</time>
      </trkpt>
      <trkpt lat="47.32561" lon="6.36653">
        <ele>287.062</ele>
        <time>2015-10-02T13:23:00Z</time>
      </trkpt>
      <trkpt lat="47.32557" lon="6.36647">
        <ele>286.993</ele>
        <time>2015-10-02T13:23:01Z</time>
      </trkpt>
      <trkpt lat="47.32553" lon="6.36643">
        <ele>286.823</ele>
        <time>2015-10-02T13:23:02Z</time>
      </trkpt>
      <trkpt lat="47.32549" lon="6.3664">
        <ele>286.847</ele>
        <time>2015-10-02T13:23:03Z</time>
      </trkpt>
      <trkpt lat="47.32544" lon="6.36637">
        <ele>286.893</ele>
        <time>2015-10-02T13:23:04Z</time>
      </trkpt>
      <trkpt lat="47.32537" lon="6.36636">
        <ele>285.959</ele>
        <time>2015-10-02T13:23:05Z</time>
      </trkpt>
      <trkpt lat="47.32532" lon="6.36637">
        <ele>285.726</ele>
        <time>2015-10-02T13:23:06Z</time>
      </trkpt>
      <trkpt lat="47.32526" lon="6.3664">
        <ele>284.655</ele>
        <time>2015-10-02T13:23:07Z</time>
      </trkpt>
      <trkpt lat="47.3252" lon="6.36644">
        <ele>284.484</ele>
        <time>2015-10-02T13:23:08Z</time>
      </trkpt>
      <trkpt lat="47.32516" lon="6.3665">
        <ele>283.93</ele>
        <time>2015-10-02T13:23:09Z</time>
      </trkpt>
      <trkpt lat="47.32512" lon="6.36653">
        <ele>283.778</ele>
        <time>2015-10-02T13:23:10Z</time>
      </trkpt>
      <trkpt lat="47.32508" lon="6.36657">
        <ele>283.596</ele>
        <time>2015-10-02T13:23:11Z</time>
      </trkpt>
      <trkpt lat="47.32503" lon="6.36659">
        <ele>283.115</ele>
        <time>2015-10-02T13:23:12Z</time>
      </trkpt>
      <trkpt lat="47.32498" lon="6.36662">
        <ele>282.553</ele>
        <time>2015-10-02T13:23:13Z</time>
      </trkpt>
      <trkpt lat="47.32493" lon="6.3666">
        <ele>282.457</ele>
        <time>2015-10-02T13:23:14Z</time>
      </trkpt>
      <trkpt lat="47.32488" lon="6.36655">
        <ele>282.132</ele>
        <time>2015-10-02T13:23:15Z</time>
      </trkpt>
      <trkpt lat="47.32482" lon="6.3665">
        <ele>282.005</ele>
        <time>2015-10-02T13:23:16Z</time>
      </trkpt>
      <trkpt lat="47.32477" lon="6.36645">
        <ele>281.794</ele>
        <time>2015-10-02T13:23:17Z</time>
      </trkpt>
      <trkpt lat="47.32473" lon="6.3664">
        <ele>281.69</ele>
        <time>2015-10-02T13:23:18Z</time>
      </trkpt>
      <trkpt lat="47.32468" lon="6.36634">
        <ele>281.59</ele>
        <time>2015-10-02T13:23:19Z</time>
      </trkpt>
      <trkpt lat="47.32464" lon="6.36629">
        <ele>283.104</ele>
        <time>2015-10-02T13:23:20Z</time>
      </trkpt>
      <trkpt lat="47.3246" lon="6.36624">
        <ele>283.489</ele>
        <time>2015-10-02T13:23:21Z</time>
      </trkpt>
      <trkpt lat="47.32456" lon="6.3662">
        <ele>283.756</ele>
        <time>2015-10-02T13:23:22Z</time>
      </trkpt>
      <trkpt lat="47.32452" lon="6.36615">
        <ele>283.737</ele>
        <time>2015-10-02T13:23:23Z</time>
      </trkpt>
      <trkpt lat="47.32448" lon="6.3661">
        <ele>283.552</ele>
        <time>2015-10-02T13:23:24Z</time>
      </trkpt>
      <trkpt lat="47.32444" lon="6.36606">
        <ele>283.07</ele>
        <time>2015-10-02T13:23:25Z</time>
      </trkpt>
      <trkpt lat="47.32441" lon="6.36601">
        <ele>282.944</ele>
        <time>2015-10-02T13:23:26Z</time>
      </trkpt>
      <trkpt lat="47.32436" lon="6.36596">
        <ele>282.95</ele>
        <time>2015-10-02T13:23:27Z</time>
      </trkpt>
      <trkpt lat="47.32433" lon="6.36591">
        <ele>283.462</ele>
        <time>2015-10-02T13:23:28Z</time>
      </trkpt>
      <trkpt lat="47.32429" lon="6.36587">
        <ele>283.579</ele>
        <time>2015-10-02T13:23:29Z</time>
      </trkpt>
      <trkpt lat="47.32425" lon="6.36583">
        <ele>284.055</ele>
        <time>2015-10-02T13:23:30Z</time>
      </trkpt>
      <trkpt lat="47.32422" lon="6.36578">
        <ele>283.803</ele>
        <time>2015-10-02T13:23:31Z</time>
      </trkpt>
      <trkpt lat="47.32419" lon="6.36573">
        <ele>283.841</ele>
        <time>2015-10-02T13:23:32Z</time>
      </trkpt>
      <trkpt lat="47.32416" lon="6.36569">
        <ele>283.148</ele>
        <time>2015-10-02T13:23:33Z</time>
      </trkpt>
      <trkpt lat="47.32412" lon="6.36564">
        <ele>282.74</ele>
        <time>2015-10-02T13:23:34Z</time>
      </trkpt>
      <trkpt lat="47.32409" lon="6.3656">
        <ele>282.45</ele>
        <time>2015-10-02T13:23:35Z</time>
      </trkpt>
      <trkpt lat="47.32406" lon="6.36556">
        <ele>281.942</ele>
        <time>2015-10-02T13:23:36Z</time>
      </trkpt>
      <trkpt lat="47.32402" lon="6.36552">
        <ele>281.755</ele>
        <time>2015-10-02T13:23:37Z</time>
      </trkpt>
      <trkpt lat="47.32399" lon="6.36548">
        <ele>282.326</ele>
        <time>2015-10-02T13:23:38Z</time>
      </trkpt>
      <trkpt lat="47.32396" lon="6.36545">
        <ele>282.558</ele>
        <time>2015-10-02T13:23:39Z</time>
      </trkpt>
      <trkpt lat="47.32393" lon="6.36541">
        <ele>282.846</ele>
        <time>2015-10-02T13:23:40Z</time>
      </trkpt>
      <trkpt lat="47.3239" lon="6.36536">
        <ele>282.798</ele>
        <time>2015-10-02T13:23:41Z</time>
      </trkpt>
      <trkpt lat="47.32386" lon="6.36532">
        <ele>282.308</ele>
        <time>2015-10-02T13:23:42Z</time>
      </trkpt>
      <trkpt lat="47.32384" lon="6.36528">
        <ele>281.93</ele>
        <time>2015-10-02T13:23:43Z</time>
      </trkpt>
      <trkpt lat="47.32381" lon="6.36524">
        <ele>281.512</ele>
        <time>2015-10-02T13:23:44Z</time>
      </trkpt>
      <trkpt lat="47.32379" lon="6.3652">
        <ele>281.677</ele>
        <time>2015-10-02T13:23:45Z</time>
      </trkpt>
      <trkpt lat="47.32376" lon="6.36516">
        <ele>281.898</ele>
        <time>2015-10-02T13:23:46Z</time>
      </trkpt>
      <trkpt lat="47.32373" lon="6.36512">
        <ele>282.556</ele>
        <time>2015-10-02T13:23:47Z</time>
      </trkpt>
      <trkpt lat="47.32371" lon="6.36509">
        <ele>283.326</ele>
        <time>2015-10-02T13:23:48Z</time>
      </trkpt>
      <trkpt lat="47.3237" lon="6.36507">
        <ele>283.806</ele>
        <time>2015-10-02T13:23:49Z</time>
      </trkpt>
      <trkpt lat="47.32368" lon="6.36505">
        <ele>284.546</ele>
        <time>2015-10-02T13:23:50Z</time>
      </trkpt>
      <trkpt lat="47.32366" lon="6.36503">
        <ele>284.561</ele>
        <time>2015-10-02T13:23:51Z</time>
      </trkpt>
      <trkpt lat="47.32364" lon="6.36501">
        <ele>284.04</ele>
        <time>2015-10-02T13:23:52Z</time>
      </trkpt>
      <trkpt lat="47.32363" lon="6.36499">
        <ele>284.704</ele>
        <time>2015-10-02T13:23:53Z</time>
      </trkpt>
      <trkpt lat="47.32362" lon="6.36496">
        <ele>284.55</ele>
        <time>2015-10-02T13:23:54Z</time>
      </trkpt>
      <trkpt lat="47.32361" lon="6.36492">
        <ele>284.384</ele>
        <time>2015-10-02T13:23:55Z</time>
      </trkpt>
      <trkpt lat="47.32361" lon="6.36487">
        <ele>283.987</ele>
        <time>2015-10-02T13:23:56Z</time>
      </trkpt>
      <trkpt lat="47.3236" lon="6.36482">
        <ele>283.748</ele>
        <time>2015-10-02T13:23:57Z</time>
      </trkpt>
      <trkpt lat="47.32359" lon="6.36477">
        <ele>283.297</ele>
        <time>2015-10-02T13:23:58Z</time>
      </trkpt>
      <trkpt lat="47.32359" lon="6.36472">
        <ele>283.471</ele>
        <time>2015-10-02T13:23:59Z</time>
      </trkpt>
      <trkpt lat="47.32358" lon="6.36467">
        <ele>283.776</ele>
        <time>2015-10-02T13:24:00Z</time>
      </trkpt>
      <trkpt lat="47.32357" lon="6.36461">
        <ele>283.172</ele>
        <time>2015-10-02T13:24:01Z</time>
      </trkpt>
      <trkpt lat="47.32356" lon="6.36455">
        <ele>282.766</ele>
        <time>2015-10-02T13:24:02Z</time>
      </trkpt>
      <trkpt lat="47.32354" lon="6.3645">
        <ele>282.005</ele>
        <time>2015-10-02T13:24:03Z</time>
      </trkpt>
      <trkpt lat="47.32353" lon="6.36445">
        <ele>281.985</ele>
        <time>2015-10-02T13:24:04Z</time>
      </trkpt>
      <trkpt lat="47.32351" lon="6.3644">
        <ele>282.284</ele>
        <time>2015-10-02T13:24:05Z</time>
      </trkpt>
      <trkpt lat="47.3235" lon="6.36434">
        <ele>282.218</ele>
        <time>2015-10-02T13:24:06Z</time>
      </trkpt>
      <trkpt lat="47.32349" lon="6.36429">
        <ele>282.7</ele>
        <time>2015-10-02T13:24:07Z</time>
      </trkpt>
      <trkpt lat="47.32348" lon="6.36424">
        <ele>282.197</ele>
        <time>2015-10-02T13:24:08Z</time>
      </trkpt>
      <trkpt lat="47.32348" lon="6.36419">
        <ele>281.714</ele>
        <time>2015-10-02T13:24:09Z</time>
      </trkpt>
      <trkpt lat="47.32347" lon="6.36414">
        <ele>281.994</ele>
        <time>2015-10-02T13:24:10Z</time>
      </trkpt>
      <trkpt lat="47.32346" lon="6.36409">
        <ele>282.123</ele>
        <time>2015-10-02T13:24:11Z</time>
      </trkpt>
      <trkpt lat="47.32346" lon="6.36403">
        <ele>282.255</ele>
        <time>2015-10-02T13:24:12Z</time>
      </trkpt>
      <trkpt lat="47.32346" lon="6.36398">
        <ele>282.51</ele>
        <time>2015-10-02T13:24:13Z</time>
      </trkpt>
      <trkpt lat="47.32346" lon="6.36392">
        <ele>282.463</ele>
        <time>2015-10-02T13:24:14Z</time>
      </trkpt>
      <trkpt lat="47.32346" lon="6.36387">
        <ele>282.38</ele>
        <time>2015-10-02T13:24:15Z</time>
      </trkpt>
      <trkpt lat="47.32346" lon="6.36381">
        <ele>282.231</ele>
        <time>2015-10-02T13:24:16Z</time>
      </trkpt>
      <trkpt lat="47.32347" lon="6.36376">
        <ele>282.327</ele>
        <time>2015-10-02T13:24:17Z</time>
      </trkpt>
      <trkpt lat="47.32347" lon="6.36371">
        <ele>283.056</ele>
        <time>2015-10-02T13:24:18Z</time>
      </trkpt>
      <trkpt lat="47.32347" lon="6.36366">
        <ele>283.136</ele>
        <time>2015-10-02T13:24:19Z</time>
      </trkpt>
      <trkpt lat="47.32348" lon="6.36361">
        <ele>283.085</ele>
        <time>2015-10-02T13:24:20Z</time>
      </trkpt>
      <trkpt lat="47.32348" lon="6.36356">
        <ele>283.273</ele>
        <time>2015-10-02T13:24:21Z</time>
      </trkpt>
      <trkpt lat="47.32349" lon="6.3635">
        <ele>283.568</ele>
        <time>2015-10-02T13:24:22Z</time>
      </trkpt>
      <trkpt lat="47.3235" lon="6.36344">
        <ele>283.649</ele>
        <time>2015-10-02T13:24:23Z</time>
      </trkpt>
      <trkpt lat="47.32351" lon="6.36338">
        <ele>283.566</ele>
        <time>2015-10-02T13:24:24Z</time>
      </trkpt>
      <trkpt lat="47.32352" lon="6.36333">
        <ele>282.429</ele>
        <time>2015-10-02T13:24:25Z</time>
      </trkpt>
      <trkpt lat="47.32352" lon="6.36328">
        <ele>281.173</ele>
        <time>2015-10-02T13:24:26Z</time>
      </trkpt>
      <trkpt lat="47.32353" lon="6.36323">
        <ele>281.843</ele>
        <time>2015-10-02T13:24:27Z</time>
      </trkpt>
      <trkpt lat="47.32354" lon="6.36317">
        <ele>281.675</ele>
        <time>2015-10-02T13:24:28Z</time>
      </trkpt>
      <trkpt lat="47.32355" lon="6.36312">
        <ele>281.391</ele>
        <time>2015-10-02T13:24:29Z</time>
      </trkpt>
      <trkpt lat="47.32355" lon="6.36307">
        <ele>281.956</ele>
        <time>2015-10-02T13:24:30Z</time>
      </trkpt>
      <trkpt lat="47.32356" lon="6.36302">
        <ele>281.738</ele>
        <time>2015-10-02T13:24:31Z</time>
      </trkpt>
      <trkpt lat="47.32356" lon="6.36296">
        <ele>281.162</ele>
        <time>2015-10-02T13:24:32Z</time>
      </trkpt>
      <trkpt lat="47.32356" lon="6.3629">
        <ele>280.878</ele>
        <time>2015-10-02T13:24:33Z</time>
      </trkpt>
      <trkpt lat="47.32356" lon="6.36284">
        <ele>281.062</ele>
        <time>2015-10-02T13:24:34Z</time>
      </trkpt>
      <trkpt lat="47.32356" lon="6.36278">
        <ele>280.409</ele>
        <time>2015-10-02T13:24:35Z</time>
      </trkpt>
      <trkpt lat="47.32356" lon="6.36272">
        <ele>279.731</ele>
        <time>2015-10-02T13:24:36Z</time>
      </trkpt>
      <trkpt lat="47.32356" lon="6.36265">
        <ele>279.826</ele>
        <time>2015-10-02T13:24:37Z</time>
      </trkpt>
      <trkpt lat="47.32356" lon="6.36257">
        <ele>280.088</ele>
        <time>2015-10-02T13:24:38Z</time>
      </trkpt>
      <trkpt lat="47.32355" lon="6.36251">
        <ele>280.039</ele>
        <time>2015-10-02T13:24:39Z</time>
      </trkpt>
      <trkpt lat="47.32355" lon="6.36243">
        <ele>279.637</ele>
        <time>2015-10-02T13:24:40Z</time>
      </trkpt>
      <trkpt lat="47.32355" lon="6.36236">
        <ele>279.717</ele>
        <time>2015-10-02T13:24:41Z</time>
      </trkpt>
      <trkpt lat="47.32355" lon="6.3623">
        <ele>280.355</ele>
        <time>2015-10-02T13:24:42Z</time>
      </trkpt>
      <trkpt lat="47.32355" lon="6.36223">
        <ele>280.239</ele>
        <time>2015-10-02T13:24:43Z</time>
      </trkpt>
      <trkpt lat="47.32356" lon="6.36217">
        <ele>279.743</ele>
        <time>2015-10-02T13:24:44Z</time>
      </trkpt>
      <trkpt lat="47.32356" lon="6.36211">
        <ele>279.502</ele>
        <time>2015-10-02T13:24:45Z</time>
      </trkpt>
      <trkpt lat="47.32357" lon="6.36204">
        <ele>279.464</ele>
        <time>2015-10-02T13:24:46Z</time>
      </trkpt>
      <trkpt lat="47.32359" lon="6.36199">
        <ele>279.429</ele>
        <time>2015-10-02T13:24:47Z</time>
      </trkpt>
      <trkpt lat="47.32361" lon="6.36194">
        <ele>279.981</ele>
        <time>2015-10-02T13:24:48Z</time>
      </trkpt>
      <trkpt lat="47.32363" lon="6.36189">
        <ele>280.062</ele>
        <time>2015-10-02T13:24:49Z</time>
      </trkpt>
      <trkpt lat="47.32365" lon="6.36184">
        <ele>279.743</ele>
        <time>2015-10-02T13:24:50Z</time>
      </trkpt>
      <trkpt lat="47.32367" lon="6.3618">
        <ele>280.704</ele>
        <time>2015-10-02T13:24:51Z</time>
      </trkpt>
      <trkpt lat="47.32369" lon="6.36176">
        <ele>281.491</ele>
        <time>2015-10-02T13:24:52Z</time>
      </trkpt>
      <trkpt lat="47.32371" lon="6.36173">
        <ele>281.522</ele>
        <time>2015-10-02T13:24:53Z</time>
      </trkpt>
      <trkpt lat="47.32373" lon="6.3617">
        <ele>282.472</ele>
        <time>2015-10-02T13:24:54Z</time>
      </trkpt>
      <trkpt lat="47.32375" lon="6.36167">
        <ele>282.344</ele>
        <time>2015-10-02T13:24:55Z</time>
      </trkpt>
      <trkpt lat="47.32378" lon="6.36165">
        <ele>282.553</ele>
        <time>2015-10-02T13:24:56Z</time>
      </trkpt>
      <trkpt lat="47.3238" lon="6.36163">
        <ele>282.931</ele>
        <time>2015-10-02T13:24:57Z</time>
      </trkpt>
      <trkpt lat="47.32382" lon="6.36161">
        <ele>282.848</ele>
        <time>2015-10-02T13:24:58Z</time>
      </trkpt>
      <trkpt lat="47.32385" lon="6.36159">
        <ele>282.524</ele>
        <time>2015-10-02T13:24:59Z</time>
      </trkpt>
      <trkpt lat="47.32387" lon="6.36157">
        <ele>282.588</ele>
        <time>2015-10-02T13:25:00Z</time>
      </trkpt>
      <trkpt lat="47.32389" lon="6.36154">
        <ele>282.535</ele>
        <time>2015-10-02T13:25:01Z</time>
      </trkpt>
      <trkpt lat="47.32391" lon="6.36151">
        <ele>281.795</ele>
        <time>2015-10-02T13:25:02Z</time>
      </trkpt>
      <trkpt lat="47.32392" lon="6.36147">
        <ele>281.671</ele>
        <time>2015-10-02T13:25:03Z</time>
      </trkpt>
      <trkpt lat="47.32392" lon="6.36142">
        <ele>281.186</ele>
        <time>2015-10-02T13:25:04Z</time>
      </trkpt>
      <trkpt lat="47.32392" lon="6.36137">
        <ele>281.466</ele>
        <time>2015-10-02T13:25:05Z</time>
      </trkpt>
      <trkpt lat="47.32391" lon="6.36133">
        <ele>281.329</ele>
        <time>2015-10-02T13:25:06Z</time>
      </trkpt>
      <trkpt lat="47.3239" lon="6.36129">
        <ele>281.636</ele>
        <time>2015-10-02T13:25:07Z</time>
      </trkpt>
      <trkpt lat="47.32388" lon="6.36125">
        <ele>281.586</ele>
        <time>2015-10-02T13:25:08Z</time>
      </trkpt>
      <trkpt lat="47.32387" lon="6.36122">
        <ele>281.437</ele>
        <time>2015-10-02T13:25:09Z</time>
      </trkpt>
      <trkpt lat="47.32386" lon="6.36121">
        <ele>281.115</ele>
        <time>2015-10-02T13:25:10Z</time>
      </trkpt>
      <trkpt lat="47.32385" lon="6.36122">
        <ele>279.663</ele>
        <time>2015-10-02T13:25:15Z</time>
      </trkpt>
      <trkpt lat="47.32385" lon="6.3612">
        <ele>278.729</ele>
        <time>2015-10-02T13:25:21Z</time>
      </trkpt>
      <trkpt lat="47.32384" lon="6.36119">
        <ele>279.572</ele>
        <time>2015-10-02T13:25:23Z</time>
      </trkpt>
      <trkpt lat="47.32383" lon="6.36118">
        <ele>280.674</ele>
        <time>2015-10-02T13:28:47Z</time>
      </trkpt>
    </trkseg>
  </trk>
</gpx>